<?xml version="1.0" encoding="UTF-8" standalone="no" ?>
<gpx xmlns="http://www.topografix.com/GPX/1/1" xmlns:xsi="http://www.w3.org/2001/XMLSchema-instance" xsi:schemaLocation="http://www.topografix.com/GPX/1/1 http://www.topografix.com/GPX/1/1/gpx.xsd" version="1.1" creator="VisuGPX - https://www.visugpx.com">
  <metadata>
    <name>58 Nantes-Nîmes 2021</name>
  </metadata>
  <trk>
    <name><![CDATA[2021 Nantes-Nîmes light]]></name>
    <extensions>
      <line xmlns="http://www.topografix.com/GPX/gpx_style/0/2">
        <color>0000FF</color>
        <width>4</width>
      </line>
    </extensions>
    <trkseg>
      <trkpt lat="47.2176" lon="-1.54329">
        <ele>10.60000038147</ele>
        <time>2021-07-29T11:45:03Z</time>
      </trkpt>
      <trkpt lat="47.21753" lon="-1.54364">
        <ele>10</ele>
        <time>2021-07-29T11:45:10Z</time>
      </trkpt>
      <trkpt lat="47.21712" lon="-1.54485">
        <ele>10.800000190735</ele>
        <time>2021-07-29T11:45:35Z</time>
      </trkpt>
      <trkpt lat="47.21666" lon="-1.54559">
        <ele>11.60000038147</ele>
        <time>2021-07-29T11:45:52Z</time>
      </trkpt>
      <trkpt lat="47.21658" lon="-1.54569">
        <ele>11.39999961853</ele>
        <time>2021-07-29T11:45:57Z</time>
      </trkpt>
      <trkpt lat="47.21655" lon="-1.54588">
        <ele>11.60000038147</ele>
        <time>2021-07-29T11:46:03Z</time>
      </trkpt>
      <trkpt lat="47.21623" lon="-1.54722">
        <ele>12.39999961853</ele>
        <time>2021-07-29T11:47:07Z</time>
      </trkpt>
      <trkpt lat="47.21614" lon="-1.54747">
        <ele>12.60000038147</ele>
        <time>2021-07-29T11:47:13Z</time>
      </trkpt>
      <trkpt lat="47.21572" lon="-1.54821">
        <ele>12.800000190735</ele>
        <time>2021-07-29T11:47:27Z</time>
      </trkpt>
      <trkpt lat="47.21527" lon="-1.54924">
        <ele>11.39999961853</ele>
        <time>2021-07-29T11:47:44Z</time>
      </trkpt>
      <trkpt lat="47.2151" lon="-1.55">
        <ele>10.60000038147</ele>
        <time>2021-07-29T11:47:57Z</time>
      </trkpt>
      <trkpt lat="47.21492" lon="-1.55089">
        <ele>10.39999961853</ele>
        <time>2021-07-29T11:48:56Z</time>
      </trkpt>
      <trkpt lat="47.21479" lon="-1.55146">
        <ele>11</ele>
        <time>2021-07-29T11:49:06Z</time>
      </trkpt>
      <trkpt lat="47.2143" lon="-1.5539">
        <ele>11.800000190735</ele>
        <time>2021-07-29T11:49:50Z</time>
      </trkpt>
      <trkpt lat="47.21476" lon="-1.55445">
        <ele>11</ele>
        <time>2021-07-29T11:50:21Z</time>
      </trkpt>
      <trkpt lat="47.21525" lon="-1.55487">
        <ele>11.199999809265</ele>
        <time>2021-07-29T11:50:45Z</time>
      </trkpt>
      <trkpt lat="47.21573" lon="-1.5552">
        <ele>10.39999961853</ele>
        <time>2021-07-29T11:51:13Z</time>
      </trkpt>
      <trkpt lat="47.21589" lon="-1.55627">
        <ele>9.6000003814697</ele>
        <time>2021-07-29T11:51:44Z</time>
      </trkpt>
      <trkpt lat="47.21612" lon="-1.55721">
        <ele>11.60000038147</ele>
        <time>2021-07-29T11:52:28Z</time>
      </trkpt>
      <trkpt lat="47.21612" lon="-1.55729">
        <ele>11.60000038147</ele>
        <time>2021-07-29T11:52:31Z</time>
      </trkpt>
      <trkpt lat="47.21606" lon="-1.55787">
        <ele>14</ele>
        <time>2021-07-29T11:52:49Z</time>
      </trkpt>
      <trkpt lat="47.21605" lon="-1.55789">
        <ele>14</ele>
        <time>2021-07-29T11:52:50Z</time>
      </trkpt>
      <trkpt lat="47.21593" lon="-1.55836">
        <ele>17</ele>
        <time>2021-07-29T11:53:15Z</time>
      </trkpt>
      <trkpt lat="47.21592" lon="-1.55859">
        <ele>17.799999237061</ele>
        <time>2021-07-29T11:53:25Z</time>
      </trkpt>
      <trkpt lat="47.21583" lon="-1.56017">
        <ele>21</ele>
        <time>2021-07-29T11:54:03Z</time>
      </trkpt>
      <trkpt lat="47.21557" lon="-1.56126">
        <ele>24</ele>
        <time>2021-07-29T11:54:34Z</time>
      </trkpt>
      <trkpt lat="47.2155" lon="-1.56138">
        <ele>25</ele>
        <time>2021-07-29T11:54:43Z</time>
      </trkpt>
      <trkpt lat="47.2154" lon="-1.56241">
        <ele>28.799999237061</ele>
        <time>2021-07-29T11:55:19Z</time>
      </trkpt>
      <trkpt lat="47.21505" lon="-1.56409">
        <ele>32.400001525879</ele>
        <time>2021-07-29T11:56:01Z</time>
      </trkpt>
      <trkpt lat="47.21468" lon="-1.56627">
        <ele>32.599998474121</ele>
        <time>2021-07-29T11:56:44Z</time>
      </trkpt>
      <trkpt lat="47.21472" lon="-1.56673">
        <ele>32.599998474121</ele>
        <time>2021-07-29T11:56:52Z</time>
      </trkpt>
      <trkpt lat="47.21468" lon="-1.5672">
        <ele>30.799999237061</ele>
        <time>2021-07-29T11:57:32Z</time>
      </trkpt>
      <trkpt lat="47.21469" lon="-1.56723">
        <ele>30.799999237061</ele>
        <time>2021-07-29T11:57:33Z</time>
      </trkpt>
      <trkpt lat="47.21462" lon="-1.56781">
        <ele>30.60000038147</ele>
        <time>2021-07-29T11:57:43Z</time>
      </trkpt>
      <trkpt lat="47.21459" lon="-1.56822">
        <ele>30.39999961853</ele>
        <time>2021-07-29T11:57:48Z</time>
      </trkpt>
      <trkpt lat="47.21439" lon="-1.56959">
        <ele>28.60000038147</ele>
        <time>2021-07-29T11:58:02Z</time>
      </trkpt>
      <trkpt lat="47.21439" lon="-1.5697">
        <ele>28.39999961853</ele>
        <time>2021-07-29T11:58:03Z</time>
      </trkpt>
      <trkpt lat="47.2144" lon="-1.57056">
        <ele>26.799999237061</ele>
        <time>2021-07-29T11:58:10Z</time>
      </trkpt>
      <trkpt lat="47.21456" lon="-1.57223">
        <ele>23.39999961853</ele>
        <time>2021-07-29T11:58:22Z</time>
      </trkpt>
      <trkpt lat="47.2147" lon="-1.5736">
        <ele>20</ele>
        <time>2021-07-29T11:58:32Z</time>
      </trkpt>
      <trkpt lat="47.21479" lon="-1.57442">
        <ele>16.799999237061</ele>
        <time>2021-07-29T11:58:40Z</time>
      </trkpt>
      <trkpt lat="47.21478" lon="-1.57485">
        <ele>14.800000190735</ele>
        <time>2021-07-29T11:58:46Z</time>
      </trkpt>
      <trkpt lat="47.21365" lon="-1.57507">
        <ele>14.39999961853</ele>
        <time>2021-07-29T11:59:12Z</time>
      </trkpt>
      <trkpt lat="47.21252" lon="-1.57565">
        <ele>17.799999237061</ele>
        <time>2021-07-29T11:59:45Z</time>
      </trkpt>
      <trkpt lat="47.21172" lon="-1.57625">
        <ele>18.200000762939</ele>
        <time>2021-07-29T12:00:13Z</time>
      </trkpt>
      <trkpt lat="47.21081" lon="-1.57678">
        <ele>18.200000762939</ele>
        <time>2021-07-29T12:00:47Z</time>
      </trkpt>
      <trkpt lat="47.20973" lon="-1.57738">
        <ele>21.200000762939</ele>
        <time>2021-07-29T12:01:22Z</time>
      </trkpt>
      <trkpt lat="47.20967" lon="-1.57743">
        <ele>21.39999961853</ele>
        <time>2021-07-29T12:01:24Z</time>
      </trkpt>
      <trkpt lat="47.20878" lon="-1.57801">
        <ele>24.39999961853</ele>
        <time>2021-07-29T12:01:57Z</time>
      </trkpt>
      <trkpt lat="47.20875" lon="-1.57803">
        <ele>24.60000038147</ele>
        <time>2021-07-29T12:01:58Z</time>
      </trkpt>
      <trkpt lat="47.20852" lon="-1.5782">
        <ele>25.200000762939</ele>
        <time>2021-07-29T12:02:05Z</time>
      </trkpt>
      <trkpt lat="47.20786" lon="-1.57859">
        <ele>26.200000762939</ele>
        <time>2021-07-29T12:02:21Z</time>
      </trkpt>
      <trkpt lat="47.20751" lon="-1.57882">
        <ele>26.200000762939</ele>
        <time>2021-07-29T12:02:29Z</time>
      </trkpt>
      <trkpt lat="47.20725" lon="-1.57903">
        <ele>26</ele>
        <time>2021-07-29T12:02:36Z</time>
      </trkpt>
      <trkpt lat="47.20676" lon="-1.57934">
        <ele>26.200000762939</ele>
        <time>2021-07-29T12:03:30Z</time>
      </trkpt>
      <trkpt lat="47.20675" lon="-1.57924">
        <ele>26.60000038147</ele>
        <time>2021-07-29T12:03:34Z</time>
      </trkpt>
      <trkpt lat="47.2068" lon="-1.57911">
        <ele>27.200000762939</ele>
        <time>2021-07-29T12:04:27Z</time>
      </trkpt>
      <trkpt lat="47.20712" lon="-1.57929">
        <ele>26.39999961853</ele>
        <time>2021-07-29T12:04:39Z</time>
      </trkpt>
      <trkpt lat="47.20741" lon="-1.58045">
        <ele>25.799999237061</ele>
        <time>2021-07-29T12:04:55Z</time>
      </trkpt>
      <trkpt lat="47.20763" lon="-1.58165">
        <ele>29</ele>
        <time>2021-07-29T12:05:27Z</time>
      </trkpt>
      <trkpt lat="47.20766" lon="-1.58176">
        <ele>29.60000038147</ele>
        <time>2021-07-29T12:05:31Z</time>
      </trkpt>
      <trkpt lat="47.20777" lon="-1.5821">
        <ele>31.39999961853</ele>
        <time>2021-07-29T12:05:43Z</time>
      </trkpt>
      <trkpt lat="47.20802" lon="-1.58332">
        <ele>34.599998474121</ele>
        <time>2021-07-29T12:06:17Z</time>
      </trkpt>
      <trkpt lat="47.20839" lon="-1.58488">
        <ele>37.599998474121</ele>
        <time>2021-07-29T12:06:50Z</time>
      </trkpt>
      <trkpt lat="47.20853" lon="-1.58528">
        <ele>37.799999237061</ele>
        <time>2021-07-29T12:06:59Z</time>
      </trkpt>
      <trkpt lat="47.20856" lon="-1.58557">
        <ele>37.599998474121</ele>
        <time>2021-07-29T12:07:05Z</time>
      </trkpt>
      <trkpt lat="47.2088" lon="-1.58658">
        <ele>39.599998474121</ele>
        <time>2021-07-29T12:07:26Z</time>
      </trkpt>
      <trkpt lat="47.20886" lon="-1.58699">
        <ele>41.200000762939</ele>
        <time>2021-07-29T12:07:38Z</time>
      </trkpt>
      <trkpt lat="47.20946" lon="-1.58859">
        <ele>42</ele>
        <time>2021-07-29T12:08:10Z</time>
      </trkpt>
      <trkpt lat="47.20998" lon="-1.59074">
        <ele>42.799999237061</ele>
        <time>2021-07-29T12:08:45Z</time>
      </trkpt>
      <trkpt lat="47.20999" lon="-1.59087">
        <ele>42.799999237061</ele>
        <time>2021-07-29T12:08:47Z</time>
      </trkpt>
      <trkpt lat="47.21005" lon="-1.59164">
        <ele>43.799999237061</ele>
        <time>2021-07-29T12:08:58Z</time>
      </trkpt>
      <trkpt lat="47.21" lon="-1.59316">
        <ele>45</ele>
        <time>2021-07-29T12:09:20Z</time>
      </trkpt>
      <trkpt lat="47.2098" lon="-1.59449">
        <ele>45.599998474121</ele>
        <time>2021-07-29T12:09:40Z</time>
      </trkpt>
      <trkpt lat="47.20976" lon="-1.59504">
        <ele>46</ele>
        <time>2021-07-29T12:09:48Z</time>
      </trkpt>
      <trkpt lat="47.2097" lon="-1.59557">
        <ele>46.200000762939</ele>
        <time>2021-07-29T12:09:56Z</time>
      </trkpt>
      <trkpt lat="47.2097" lon="-1.59564">
        <ele>46.200000762939</ele>
        <time>2021-07-29T12:09:57Z</time>
      </trkpt>
      <trkpt lat="47.2097" lon="-1.59723">
        <ele>47.400001525879</ele>
        <time>2021-07-29T12:10:25Z</time>
      </trkpt>
      <trkpt lat="47.20978" lon="-1.59824">
        <ele>47.799999237061</ele>
        <time>2021-07-29T12:10:42Z</time>
      </trkpt>
      <trkpt lat="47.20978" lon="-1.59844">
        <ele>47.799999237061</ele>
        <time>2021-07-29T12:10:45Z</time>
      </trkpt>
      <trkpt lat="47.20982" lon="-1.5989">
        <ele>47.799999237061</ele>
        <time>2021-07-29T12:10:52Z</time>
      </trkpt>
      <trkpt lat="47.20988" lon="-1.6002">
        <ele>49.400001525879</ele>
        <time>2021-07-29T12:11:12Z</time>
      </trkpt>
      <trkpt lat="47.20993" lon="-1.60072">
        <ele>49.400001525879</ele>
        <time>2021-07-29T12:11:20Z</time>
      </trkpt>
      <trkpt lat="47.21045" lon="-1.60508">
        <ele>48.599998474121</ele>
        <time>2021-07-29T12:12:18Z</time>
      </trkpt>
      <trkpt lat="47.21059" lon="-1.6064">
        <ele>48.599998474121</ele>
        <time>2021-07-29T12:12:35Z</time>
      </trkpt>
      <trkpt lat="47.21075" lon="-1.6074">
        <ele>48</ele>
        <time>2021-07-29T12:12:48Z</time>
      </trkpt>
      <trkpt lat="47.21097" lon="-1.60898">
        <ele>46.599998474121</ele>
        <time>2021-07-29T12:13:08Z</time>
      </trkpt>
      <trkpt lat="47.21164" lon="-1.60901">
        <ele>44.599998474121</ele>
        <time>2021-07-29T12:13:30Z</time>
      </trkpt>
      <trkpt lat="47.21198" lon="-1.60874">
        <ele>45.200000762939</ele>
        <time>2021-07-29T12:13:40Z</time>
      </trkpt>
      <trkpt lat="47.21224" lon="-1.60856">
        <ele>45.799999237061</ele>
        <time>2021-07-29T12:13:47Z</time>
      </trkpt>
      <trkpt lat="47.21249" lon="-1.6084">
        <ele>46.200000762939</ele>
        <time>2021-07-29T12:13:55Z</time>
      </trkpt>
      <trkpt lat="47.21287" lon="-1.60816">
        <ele>46.400001525879</ele>
        <time>2021-07-29T12:14:04Z</time>
      </trkpt>
      <trkpt lat="47.2133" lon="-1.60781">
        <ele>46.799999237061</ele>
        <time>2021-07-29T12:14:15Z</time>
      </trkpt>
      <trkpt lat="47.21334" lon="-1.60779">
        <ele>46.799999237061</ele>
        <time>2021-07-29T12:14:16Z</time>
      </trkpt>
      <trkpt lat="47.21369" lon="-1.60762">
        <ele>47</ele>
        <time>2021-07-29T12:14:25Z</time>
      </trkpt>
      <trkpt lat="47.21475" lon="-1.60811">
        <ele>48.599998474121</ele>
        <time>2021-07-29T12:15:01Z</time>
      </trkpt>
      <trkpt lat="47.21726" lon="-1.61213">
        <ele>50</ele>
        <time>2021-07-29T12:16:20Z</time>
      </trkpt>
      <trkpt lat="47.21744" lon="-1.61268">
        <ele>50.400001525879</ele>
        <time>2021-07-29T12:16:29Z</time>
      </trkpt>
      <trkpt lat="47.21801" lon="-1.61469">
        <ele>51.200000762939</ele>
        <time>2021-07-29T12:17:02Z</time>
      </trkpt>
      <trkpt lat="47.21812" lon="-1.61556">
        <ele>52</ele>
        <time>2021-07-29T12:17:16Z</time>
      </trkpt>
      <trkpt lat="47.21855" lon="-1.61765">
        <ele>50.400001525879</ele>
        <time>2021-07-29T12:17:43Z</time>
      </trkpt>
      <trkpt lat="47.21924" lon="-1.62095">
        <ele>47.400001525879</ele>
        <time>2021-07-29T12:18:22Z</time>
      </trkpt>
      <trkpt lat="47.21929" lon="-1.6212">
        <ele>47.200000762939</ele>
        <time>2021-07-29T12:18:25Z</time>
      </trkpt>
      <trkpt lat="47.21946" lon="-1.6218">
        <ele>47</ele>
        <time>2021-07-29T12:18:34Z</time>
      </trkpt>
      <trkpt lat="47.21948" lon="-1.622">
        <ele>47</ele>
        <time>2021-07-29T12:18:37Z</time>
      </trkpt>
      <trkpt lat="47.21956" lon="-1.62242">
        <ele>47.200000762939</ele>
        <time>2021-07-29T12:18:43Z</time>
      </trkpt>
      <trkpt lat="47.21981" lon="-1.62365">
        <ele>48</ele>
        <time>2021-07-29T12:19:02Z</time>
      </trkpt>
      <trkpt lat="47.22003" lon="-1.62501">
        <ele>47.799999237061</ele>
        <time>2021-07-29T12:19:21Z</time>
      </trkpt>
      <trkpt lat="47.22047" lon="-1.62699">
        <ele>44.599998474121</ele>
        <time>2021-07-29T12:19:41Z</time>
      </trkpt>
      <trkpt lat="47.22052" lon="-1.62706">
        <ele>44.400001525879</ele>
        <time>2021-07-29T12:19:42Z</time>
      </trkpt>
      <trkpt lat="47.22066" lon="-1.62798">
        <ele>41.200000762939</ele>
        <time>2021-07-29T12:19:56Z</time>
      </trkpt>
      <trkpt lat="47.22136" lon="-1.628">
        <ele>40.799999237061</ele>
        <time>2021-07-29T12:20:22Z</time>
      </trkpt>
      <trkpt lat="47.22201" lon="-1.62808">
        <ele>43.400001525879</ele>
        <time>2021-07-29T12:22:49Z</time>
      </trkpt>
      <trkpt lat="47.22288" lon="-1.6281">
        <ele>44.599998474121</ele>
        <time>2021-07-29T12:23:20Z</time>
      </trkpt>
      <trkpt lat="47.22294" lon="-1.62795">
        <ele>44.400001525879</ele>
        <time>2021-07-29T12:23:46Z</time>
      </trkpt>
      <trkpt lat="47.2232" lon="-1.62667">
        <ele>43.599998474121</ele>
        <time>2021-07-29T12:24:25Z</time>
      </trkpt>
      <trkpt lat="47.22373" lon="-1.6257">
        <ele>43.400001525879</ele>
        <time>2021-07-29T12:24:52Z</time>
      </trkpt>
      <trkpt lat="47.22408" lon="-1.62588">
        <ele>44</ele>
        <time>2021-07-29T12:25:06Z</time>
      </trkpt>
      <trkpt lat="47.2244" lon="-1.62615">
        <ele>44.599998474121</ele>
        <time>2021-07-29T12:25:19Z</time>
      </trkpt>
      <trkpt lat="47.22398" lon="-1.62749">
        <ele>44</ele>
        <time>2021-07-29T12:26:03Z</time>
      </trkpt>
      <trkpt lat="47.22492" lon="-1.62666">
        <ele>39.799999237061</ele>
        <time>2021-07-29T13:15:45Z</time>
      </trkpt>
      <trkpt lat="47.22516" lon="-1.62689">
        <ele>43.400001525879</ele>
        <time>2021-07-29T13:15:54Z</time>
      </trkpt>
      <trkpt lat="47.22577" lon="-1.62687">
        <ele>43.799999237061</ele>
        <time>2021-07-29T13:16:42Z</time>
      </trkpt>
      <trkpt lat="47.22458" lon="-1.62918">
        <ele>44.200000762939</ele>
        <time>2021-07-29T13:17:33Z</time>
      </trkpt>
      <trkpt lat="47.22425" lon="-1.62963">
        <ele>44.400001525879</ele>
        <time>2021-07-29T13:17:45Z</time>
      </trkpt>
      <trkpt lat="47.22386" lon="-1.62994">
        <ele>43.799999237061</ele>
        <time>2021-07-29T13:17:54Z</time>
      </trkpt>
      <trkpt lat="47.2234" lon="-1.63016">
        <ele>43</ele>
        <time>2021-07-29T13:18:02Z</time>
      </trkpt>
      <trkpt lat="47.22149" lon="-1.63094">
        <ele>42</ele>
        <time>2021-07-29T13:18:37Z</time>
      </trkpt>
      <trkpt lat="47.22152" lon="-1.63248">
        <ele>40.599998474121</ele>
        <time>2021-07-29T13:19:01Z</time>
      </trkpt>
      <trkpt lat="47.22177" lon="-1.63352">
        <ele>41.599998474121</ele>
        <time>2021-07-29T13:19:20Z</time>
      </trkpt>
      <trkpt lat="47.22193" lon="-1.6349">
        <ele>43.200000762939</ele>
        <time>2021-07-29T13:19:50Z</time>
      </trkpt>
      <trkpt lat="47.22202" lon="-1.63585">
        <ele>44.599998474121</ele>
        <time>2021-07-29T13:20:09Z</time>
      </trkpt>
      <trkpt lat="47.22217" lon="-1.63714">
        <ele>47.599998474121</ele>
        <time>2021-07-29T13:20:36Z</time>
      </trkpt>
      <trkpt lat="47.22218" lon="-1.6372">
        <ele>47.799999237061</ele>
        <time>2021-07-29T13:20:37Z</time>
      </trkpt>
      <trkpt lat="47.22237" lon="-1.639">
        <ele>49</ele>
        <time>2021-07-29T13:21:07Z</time>
      </trkpt>
      <trkpt lat="47.22239" lon="-1.63913">
        <ele>49</ele>
        <time>2021-07-29T13:21:09Z</time>
      </trkpt>
      <trkpt lat="47.22247" lon="-1.63976">
        <ele>48.599998474121</ele>
        <time>2021-07-29T13:21:20Z</time>
      </trkpt>
      <trkpt lat="47.22224" lon="-1.6399">
        <ele>48.200000762939</ele>
        <time>2021-07-29T13:21:26Z</time>
      </trkpt>
      <trkpt lat="47.22213" lon="-1.63989">
        <ele>48</ele>
        <time>2021-07-29T13:21:28Z</time>
      </trkpt>
      <trkpt lat="47.2218" lon="-1.63998">
        <ele>48</ele>
        <time>2021-07-29T13:21:34Z</time>
      </trkpt>
      <trkpt lat="47.21939" lon="-1.64058">
        <ele>49.599998474121</ele>
        <time>2021-07-29T13:22:29Z</time>
      </trkpt>
      <trkpt lat="47.21871" lon="-1.64109">
        <ele>48.200000762939</ele>
        <time>2021-07-29T13:22:42Z</time>
      </trkpt>
      <trkpt lat="47.21854" lon="-1.64127">
        <ele>47</ele>
        <time>2021-07-29T13:22:46Z</time>
      </trkpt>
      <trkpt lat="47.21835" lon="-1.64155">
        <ele>45.400001525879</ele>
        <time>2021-07-29T13:22:51Z</time>
      </trkpt>
      <trkpt lat="47.21832" lon="-1.64163">
        <ele>45</ele>
        <time>2021-07-29T13:22:52Z</time>
      </trkpt>
      <trkpt lat="47.21777" lon="-1.6431">
        <ele>42</ele>
        <time>2021-07-29T13:23:09Z</time>
      </trkpt>
      <trkpt lat="47.21741" lon="-1.64412">
        <ele>40</ele>
        <time>2021-07-29T13:23:22Z</time>
      </trkpt>
      <trkpt lat="47.21636" lon="-1.64633">
        <ele>37</ele>
        <time>2021-07-29T13:23:53Z</time>
      </trkpt>
      <trkpt lat="47.21586" lon="-1.64703">
        <ele>35.200000762939</ele>
        <time>2021-07-29T13:24:04Z</time>
      </trkpt>
      <trkpt lat="47.21554" lon="-1.64739">
        <ele>34.799999237061</ele>
        <time>2021-07-29T13:24:10Z</time>
      </trkpt>
      <trkpt lat="47.2148" lon="-1.64779">
        <ele>32.400001525879</ele>
        <time>2021-07-29T13:24:21Z</time>
      </trkpt>
      <trkpt lat="47.21473" lon="-1.64783">
        <ele>32.200000762939</ele>
        <time>2021-07-29T13:24:22Z</time>
      </trkpt>
      <trkpt lat="47.21421" lon="-1.64807">
        <ele>31.60000038147</ele>
        <time>2021-07-29T13:24:29Z</time>
      </trkpt>
      <trkpt lat="47.21316" lon="-1.64836">
        <ele>27.39999961853</ele>
        <time>2021-07-29T13:24:44Z</time>
      </trkpt>
      <trkpt lat="47.21309" lon="-1.64837">
        <ele>27.200000762939</ele>
        <time>2021-07-29T13:24:45Z</time>
      </trkpt>
      <trkpt lat="47.2118" lon="-1.64868">
        <ele>24</ele>
        <time>2021-07-29T13:25:01Z</time>
      </trkpt>
      <trkpt lat="47.21158" lon="-1.64875">
        <ele>23.200000762939</ele>
        <time>2021-07-29T13:25:04Z</time>
      </trkpt>
      <trkpt lat="47.21114" lon="-1.64904">
        <ele>19.799999237061</ele>
        <time>2021-07-29T13:25:16Z</time>
      </trkpt>
      <trkpt lat="47.21115" lon="-1.6493">
        <ele>18.799999237061</ele>
        <time>2021-07-29T13:25:22Z</time>
      </trkpt>
      <trkpt lat="47.21121" lon="-1.64963">
        <ele>18.60000038147</ele>
        <time>2021-07-29T13:25:30Z</time>
      </trkpt>
      <trkpt lat="47.21136" lon="-1.6502">
        <ele>20.799999237061</ele>
        <time>2021-07-29T13:25:47Z</time>
      </trkpt>
      <trkpt lat="47.21146" lon="-1.65085">
        <ele>23.39999961853</ele>
        <time>2021-07-29T13:26:09Z</time>
      </trkpt>
      <trkpt lat="47.21146" lon="-1.65089">
        <ele>23.39999961853</ele>
        <time>2021-07-29T13:26:10Z</time>
      </trkpt>
      <trkpt lat="47.21145" lon="-1.65099">
        <ele>23.39999961853</ele>
        <time>2021-07-29T13:26:12Z</time>
      </trkpt>
      <trkpt lat="47.21138" lon="-1.65112">
        <ele>22.799999237061</ele>
        <time>2021-07-29T13:26:16Z</time>
      </trkpt>
      <trkpt lat="47.21108" lon="-1.65134">
        <ele>19.39999961853</ele>
        <time>2021-07-29T13:26:27Z</time>
      </trkpt>
      <trkpt lat="47.21073" lon="-1.65152">
        <ele>18.39999961853</ele>
        <time>2021-07-29T13:26:40Z</time>
      </trkpt>
      <trkpt lat="47.21061" lon="-1.65177">
        <ele>18.39999961853</ele>
        <time>2021-07-29T13:26:51Z</time>
      </trkpt>
      <trkpt lat="47.21015" lon="-1.65145">
        <ele>15.39999961853</ele>
        <time>2021-07-29T13:27:21Z</time>
      </trkpt>
      <trkpt lat="47.21012" lon="-1.65439">
        <ele>13.199999809265</ele>
        <time>2021-07-29T13:28:00Z</time>
      </trkpt>
      <trkpt lat="47.21027" lon="-1.65557">
        <ele>13.199999809265</ele>
        <time>2021-07-29T13:28:19Z</time>
      </trkpt>
      <trkpt lat="47.21043" lon="-1.65657">
        <ele>15.60000038147</ele>
        <time>2021-07-29T13:28:44Z</time>
      </trkpt>
      <trkpt lat="47.2101" lon="-1.65714">
        <ele>18.60000038147</ele>
        <time>2021-07-29T13:29:10Z</time>
      </trkpt>
      <trkpt lat="47.20914" lon="-1.65795">
        <ele>21.60000038147</ele>
        <time>2021-07-29T13:29:47Z</time>
      </trkpt>
      <trkpt lat="47.20909" lon="-1.65799">
        <ele>21.799999237061</ele>
        <time>2021-07-29T13:29:49Z</time>
      </trkpt>
      <trkpt lat="47.20782" lon="-1.65927">
        <ele>25.200000762939</ele>
        <time>2021-07-29T13:30:36Z</time>
      </trkpt>
      <trkpt lat="47.20745" lon="-1.65946">
        <ele>25.60000038147</ele>
        <time>2021-07-29T13:30:47Z</time>
      </trkpt>
      <trkpt lat="47.20726" lon="-1.65958">
        <ele>26</ele>
        <time>2021-07-29T13:30:52Z</time>
      </trkpt>
      <trkpt lat="47.20658" lon="-1.66">
        <ele>25.200000762939</ele>
        <time>2021-07-29T13:31:08Z</time>
      </trkpt>
      <trkpt lat="47.2062" lon="-1.66025">
        <ele>24.60000038147</ele>
        <time>2021-07-29T13:31:15Z</time>
      </trkpt>
      <trkpt lat="47.20614" lon="-1.66028">
        <ele>24.60000038147</ele>
        <time>2021-07-29T13:31:16Z</time>
      </trkpt>
      <trkpt lat="47.20574" lon="-1.66037">
        <ele>23.799999237061</ele>
        <time>2021-07-29T13:31:21Z</time>
      </trkpt>
      <trkpt lat="47.20537" lon="-1.66056">
        <ele>23</ele>
        <time>2021-07-29T13:31:26Z</time>
      </trkpt>
      <trkpt lat="47.20494" lon="-1.66082">
        <ele>19.799999237061</ele>
        <time>2021-07-29T13:31:34Z</time>
      </trkpt>
      <trkpt lat="47.20487" lon="-1.66085">
        <ele>19.200000762939</ele>
        <time>2021-07-29T13:31:36Z</time>
      </trkpt>
      <trkpt lat="47.20482" lon="-1.661">
        <ele>16.200000762939</ele>
        <time>2021-07-29T13:31:39Z</time>
      </trkpt>
      <trkpt lat="47.20483" lon="-1.66132">
        <ele>14.199999809265</ele>
        <time>2021-07-29T13:31:43Z</time>
      </trkpt>
      <trkpt lat="47.20492" lon="-1.66204">
        <ele>13.39999961853</ele>
        <time>2021-07-29T13:31:51Z</time>
      </trkpt>
      <trkpt lat="47.20491" lon="-1.66221">
        <ele>12.800000190735</ele>
        <time>2021-07-29T13:31:53Z</time>
      </trkpt>
      <trkpt lat="47.20511" lon="-1.66286">
        <ele>11.60000038147</ele>
        <time>2021-07-29T13:32:07Z</time>
      </trkpt>
      <trkpt lat="47.20529" lon="-1.66318">
        <ele>13.60000038147</ele>
        <time>2021-07-29T13:32:20Z</time>
      </trkpt>
      <trkpt lat="47.20507" lon="-1.66371">
        <ele>16.200000762939</ele>
        <time>2021-07-29T13:32:38Z</time>
      </trkpt>
      <trkpt lat="47.20499" lon="-1.66378">
        <ele>16.200000762939</ele>
        <time>2021-07-29T13:32:41Z</time>
      </trkpt>
      <trkpt lat="47.20489" lon="-1.66385">
        <ele>16</ele>
        <time>2021-07-29T13:32:44Z</time>
      </trkpt>
      <trkpt lat="47.20429" lon="-1.66408">
        <ele>15.39999961853</ele>
        <time>2021-07-29T13:32:53Z</time>
      </trkpt>
      <trkpt lat="47.20337" lon="-1.66436">
        <ele>10</ele>
        <time>2021-07-29T13:33:06Z</time>
      </trkpt>
      <trkpt lat="47.20299" lon="-1.6647">
        <ele>9.3999996185303</ele>
        <time>2021-07-29T13:33:15Z</time>
      </trkpt>
      <trkpt lat="47.20237" lon="-1.66555">
        <ele>9.1999998092651</ele>
        <time>2021-07-29T13:33:29Z</time>
      </trkpt>
      <trkpt lat="47.20205" lon="-1.66624">
        <ele>9.1999998092651</ele>
        <time>2021-07-29T13:33:38Z</time>
      </trkpt>
      <trkpt lat="47.20203" lon="-1.66633">
        <ele>9.3999996185303</ele>
        <time>2021-07-29T13:33:39Z</time>
      </trkpt>
      <trkpt lat="47.20204" lon="-1.6665">
        <ele>9.1999998092651</ele>
        <time>2021-07-29T13:33:41Z</time>
      </trkpt>
      <trkpt lat="47.20205" lon="-1.66718">
        <ele>8.1999998092651</ele>
        <time>2021-07-29T13:33:51Z</time>
      </trkpt>
      <trkpt lat="47.20135" lon="-1.66839">
        <ele>8.1999998092651</ele>
        <time>2021-07-29T13:34:25Z</time>
      </trkpt>
      <trkpt lat="47.20171" lon="-1.6694">
        <ele>8.1999998092651</ele>
        <time>2021-07-29T13:34:39Z</time>
      </trkpt>
      <trkpt lat="47.20407" lon="-1.67468">
        <ele>7.8000001907349</ele>
        <time>2021-07-29T13:35:59Z</time>
      </trkpt>
      <trkpt lat="47.20426" lon="-1.67533">
        <ele>7.8000001907349</ele>
        <time>2021-07-29T13:36:08Z</time>
      </trkpt>
      <trkpt lat="47.2044" lon="-1.67552">
        <ele>7.5999999046326</ele>
        <time>2021-07-29T13:36:12Z</time>
      </trkpt>
      <trkpt lat="47.20461" lon="-1.676">
        <ele>7.5999999046326</ele>
        <time>2021-07-29T13:36:20Z</time>
      </trkpt>
      <trkpt lat="47.20478" lon="-1.67626">
        <ele>7.5999999046326</ele>
        <time>2021-07-29T13:36:25Z</time>
      </trkpt>
      <trkpt lat="47.20679" lon="-1.68255">
        <ele>8</ele>
        <time>2021-07-29T13:37:48Z</time>
      </trkpt>
      <trkpt lat="47.20695" lon="-1.68307">
        <ele>8.6000003814697</ele>
        <time>2021-07-29T13:37:55Z</time>
      </trkpt>
      <trkpt lat="47.20704" lon="-1.68343">
        <ele>8.6000003814697</ele>
        <time>2021-07-29T13:38:00Z</time>
      </trkpt>
      <trkpt lat="47.20712" lon="-1.68369">
        <ele>8.6000003814697</ele>
        <time>2021-07-29T13:38:04Z</time>
      </trkpt>
      <trkpt lat="47.20752" lon="-1.68504">
        <ele>7.4000000953674</ele>
        <time>2021-07-29T13:38:28Z</time>
      </trkpt>
      <trkpt lat="47.20902" lon="-1.69304">
        <ele>8.8000001907349</ele>
        <time>2021-07-29T13:40:12Z</time>
      </trkpt>
      <trkpt lat="47.20945" lon="-1.69922">
        <ele>8.8000001907349</ele>
        <time>2021-07-29T13:41:26Z</time>
      </trkpt>
      <trkpt lat="47.20957" lon="-1.70171">
        <ele>9.3999996185303</ele>
        <time>2021-07-29T13:42:04Z</time>
      </trkpt>
      <trkpt lat="47.2098" lon="-1.7038">
        <ele>9</ele>
        <time>2021-07-29T13:42:31Z</time>
      </trkpt>
      <trkpt lat="47.2098" lon="-1.70389">
        <ele>9</ele>
        <time>2021-07-29T13:42:32Z</time>
      </trkpt>
      <trkpt lat="47.20973" lon="-1.70539">
        <ele>10</ele>
        <time>2021-07-29T13:42:51Z</time>
      </trkpt>
      <trkpt lat="47.20968" lon="-1.70578">
        <ele>9.8000001907349</ele>
        <time>2021-07-29T13:42:57Z</time>
      </trkpt>
      <trkpt lat="47.20951" lon="-1.70701">
        <ele>9.1999998092651</ele>
        <time>2021-07-29T13:43:13Z</time>
      </trkpt>
      <trkpt lat="47.20951" lon="-1.70728">
        <ele>9.3999996185303</ele>
        <time>2021-07-29T13:43:16Z</time>
      </trkpt>
      <trkpt lat="47.2095" lon="-1.70784">
        <ele>9.6000003814697</ele>
        <time>2021-07-29T13:43:23Z</time>
      </trkpt>
      <trkpt lat="47.20976" lon="-1.70862">
        <ele>9.3999996185303</ele>
        <time>2021-07-29T13:43:33Z</time>
      </trkpt>
      <trkpt lat="47.21009" lon="-1.7096">
        <ele>8</ele>
        <time>2021-07-29T13:43:46Z</time>
      </trkpt>
      <trkpt lat="47.21044" lon="-1.71072">
        <ele>7.4000000953674</ele>
        <time>2021-07-29T13:44:03Z</time>
      </trkpt>
      <trkpt lat="47.21039" lon="-1.71126">
        <ele>7.1999998092651</ele>
        <time>2021-07-29T13:44:12Z</time>
      </trkpt>
      <trkpt lat="47.20999" lon="-1.71198">
        <ele>7.4000000953674</ele>
        <time>2021-07-29T13:44:23Z</time>
      </trkpt>
      <trkpt lat="47.20892" lon="-1.71292">
        <ele>7.1999998092651</ele>
        <time>2021-07-29T13:44:49Z</time>
      </trkpt>
      <trkpt lat="47.20887" lon="-1.71294">
        <ele>7.1999998092651</ele>
        <time>2021-07-29T13:44:50Z</time>
      </trkpt>
      <trkpt lat="47.20845" lon="-1.71506">
        <ele>8.1999998092651</ele>
        <time>2021-07-29T13:45:20Z</time>
      </trkpt>
      <trkpt lat="47.20865" lon="-1.7211">
        <ele>8.6000003814697</ele>
        <time>2021-07-29T13:46:33Z</time>
      </trkpt>
      <trkpt lat="47.20871" lon="-1.72173">
        <ele>8.6000003814697</ele>
        <time>2021-07-29T13:46:41Z</time>
      </trkpt>
      <trkpt lat="47.20895" lon="-1.72481">
        <ele>8.3999996185303</ele>
        <time>2021-07-29T13:47:21Z</time>
      </trkpt>
      <trkpt lat="47.20907" lon="-1.72619">
        <ele>8.3999996185303</ele>
        <time>2021-07-29T13:47:39Z</time>
      </trkpt>
      <trkpt lat="47.20923" lon="-1.72831">
        <ele>8</ele>
        <time>2021-07-29T13:48:10Z</time>
      </trkpt>
      <trkpt lat="47.20939" lon="-1.72884">
        <ele>7.8000001907349</ele>
        <time>2021-07-29T13:48:19Z</time>
      </trkpt>
      <trkpt lat="47.20989" lon="-1.73052">
        <ele>6.8000001907349</ele>
        <time>2021-07-29T13:48:46Z</time>
      </trkpt>
      <trkpt lat="47.21008" lon="-1.73089">
        <ele>7</ele>
        <time>2021-07-29T13:48:53Z</time>
      </trkpt>
      <trkpt lat="47.21036" lon="-1.73143">
        <ele>7.1999998092651</ele>
        <time>2021-07-29T13:49:03Z</time>
      </trkpt>
      <trkpt lat="47.21047" lon="-1.73151">
        <ele>7.1999998092651</ele>
        <time>2021-07-29T13:49:06Z</time>
      </trkpt>
      <trkpt lat="47.21113" lon="-1.73188">
        <ele>6.4000000953674</ele>
        <time>2021-07-29T13:49:21Z</time>
      </trkpt>
      <trkpt lat="47.21124" lon="-1.73469">
        <ele>7.5999999046326</ele>
        <time>2021-07-29T13:49:58Z</time>
      </trkpt>
      <trkpt lat="47.21123" lon="-1.73527">
        <ele>7.8000001907349</ele>
        <time>2021-07-29T13:50:05Z</time>
      </trkpt>
      <trkpt lat="47.21131" lon="-1.73822">
        <ele>8</ele>
        <time>2021-07-29T13:50:43Z</time>
      </trkpt>
      <trkpt lat="47.21173" lon="-1.74016">
        <ele>7</ele>
        <time>2021-07-29T13:51:09Z</time>
      </trkpt>
      <trkpt lat="47.2116" lon="-1.74094">
        <ele>7.1999998092651</ele>
        <time>2021-07-29T13:51:23Z</time>
      </trkpt>
      <trkpt lat="47.21091" lon="-1.74205">
        <ele>7.5999999046326</ele>
        <time>2021-07-29T13:51:45Z</time>
      </trkpt>
      <trkpt lat="47.21024" lon="-1.74322">
        <ele>7.4000000953674</ele>
        <time>2021-07-29T13:52:04Z</time>
      </trkpt>
      <trkpt lat="47.21021" lon="-1.74329">
        <ele>7.4000000953674</ele>
        <time>2021-07-29T13:52:05Z</time>
      </trkpt>
      <trkpt lat="47.20999" lon="-1.74447">
        <ele>7.4000000953674</ele>
        <time>2021-07-29T13:52:19Z</time>
      </trkpt>
      <trkpt lat="47.20993" lon="-1.74527">
        <ele>8</ele>
        <time>2021-07-29T13:52:29Z</time>
      </trkpt>
      <trkpt lat="47.20981" lon="-1.74628">
        <ele>8.1999998092651</ele>
        <time>2021-07-29T13:52:45Z</time>
      </trkpt>
      <trkpt lat="47.20975" lon="-1.74679">
        <ele>9.3999996185303</ele>
        <time>2021-07-29T13:52:53Z</time>
      </trkpt>
      <trkpt lat="47.2096" lon="-1.74831">
        <ele>9.8000001907349</ele>
        <time>2021-07-29T13:53:15Z</time>
      </trkpt>
      <trkpt lat="47.20891" lon="-1.74911">
        <ele>9.3999996185303</ele>
        <time>2021-07-29T13:53:35Z</time>
      </trkpt>
      <trkpt lat="47.2073" lon="-1.74957">
        <ele>7.8000001907349</ele>
        <time>2021-07-29T13:54:02Z</time>
      </trkpt>
      <trkpt lat="47.20616" lon="-1.75135">
        <ele>8</ele>
        <time>2021-07-29T13:54:33Z</time>
      </trkpt>
      <trkpt lat="47.20597" lon="-1.75194">
        <ele>7</ele>
        <time>2021-07-29T13:54:43Z</time>
      </trkpt>
      <trkpt lat="47.20575" lon="-1.75209">
        <ele>6.4000000953674</ele>
        <time>2021-07-29T13:54:59Z</time>
      </trkpt>
      <trkpt lat="47.20584" lon="-1.75237">
        <ele>6.8000001907349</ele>
        <time>2021-07-29T14:03:57Z</time>
      </trkpt>
      <trkpt lat="47.2056" lon="-1.75293">
        <ele>4.1999998092651</ele>
        <time>2021-07-29T14:04:26Z</time>
      </trkpt>
      <trkpt lat="47.20548" lon="-1.75321">
        <ele>6</ele>
        <time>2021-07-29T14:04:49Z</time>
      </trkpt>
      <trkpt lat="47.20547" lon="-1.7536">
        <ele>4.4000000953674</ele>
        <time>2021-07-29T14:11:12Z</time>
      </trkpt>
      <trkpt lat="47.20442" lon="-1.75614">
        <ele>4.1999998092651</ele>
        <time>2021-07-29T14:12:25Z</time>
      </trkpt>
      <trkpt lat="47.20381" lon="-1.75624">
        <ele>5.1999998092651</ele>
        <time>2021-07-29T14:12:59Z</time>
      </trkpt>
      <trkpt lat="47.20295" lon="-1.75498">
        <ele>8.3999996185303</ele>
        <time>2021-07-29T14:15:54Z</time>
      </trkpt>
      <trkpt lat="47.20292" lon="-1.755">
        <ele>8.3999996185303</ele>
        <time>2021-07-29T14:15:57Z</time>
      </trkpt>
      <trkpt lat="47.20291" lon="-1.75507">
        <ele>8.8000001907349</ele>
        <time>2021-07-29T14:16:01Z</time>
      </trkpt>
      <trkpt lat="47.2028" lon="-1.75606">
        <ele>9.6000003814697</ele>
        <time>2021-07-29T14:16:30Z</time>
      </trkpt>
      <trkpt lat="47.20202" lon="-1.75847">
        <ele>12.60000038147</ele>
        <time>2021-07-29T14:17:21Z</time>
      </trkpt>
      <trkpt lat="47.20162" lon="-1.75912">
        <ele>14</ele>
        <time>2021-07-29T14:17:38Z</time>
      </trkpt>
      <trkpt lat="47.20063" lon="-1.75966">
        <ele>16.799999237061</ele>
        <time>2021-07-29T14:18:13Z</time>
      </trkpt>
      <trkpt lat="47.20047" lon="-1.75811">
        <ele>16.60000038147</ele>
        <time>2021-07-29T14:18:49Z</time>
      </trkpt>
      <trkpt lat="47.20047" lon="-1.75804">
        <ele>16.799999237061</ele>
        <time>2021-07-29T14:18:50Z</time>
      </trkpt>
      <trkpt lat="47.20045" lon="-1.75707">
        <ele>17.200000762939</ele>
        <time>2021-07-29T14:19:05Z</time>
      </trkpt>
      <trkpt lat="47.20035" lon="-1.75675">
        <ele>17.60000038147</ele>
        <time>2021-07-29T14:19:11Z</time>
      </trkpt>
      <trkpt lat="47.20008" lon="-1.75602">
        <ele>19.799999237061</ele>
        <time>2021-07-29T14:19:28Z</time>
      </trkpt>
      <trkpt lat="47.20005" lon="-1.7557">
        <ele>21</ele>
        <time>2021-07-29T14:19:35Z</time>
      </trkpt>
      <trkpt lat="47.19988" lon="-1.75515">
        <ele>22.799999237061</ele>
        <time>2021-07-29T14:19:52Z</time>
      </trkpt>
      <trkpt lat="47.19977" lon="-1.75452">
        <ele>24</ele>
        <time>2021-07-29T14:20:05Z</time>
      </trkpt>
      <trkpt lat="47.19976" lon="-1.75383">
        <ele>24</ele>
        <time>2021-07-29T14:20:59Z</time>
      </trkpt>
      <trkpt lat="47.19978" lon="-1.75382">
        <ele>24</ele>
        <time>2021-07-29T14:21:06Z</time>
      </trkpt>
      <trkpt lat="47.19982" lon="-1.75469">
        <ele>24.39999961853</ele>
        <time>2021-07-29T14:21:25Z</time>
      </trkpt>
      <trkpt lat="47.19989" lon="-1.75552">
        <ele>24.200000762939</ele>
        <time>2021-07-29T14:21:45Z</time>
      </trkpt>
      <trkpt lat="47.1997" lon="-1.75572">
        <ele>23.39999961853</ele>
        <time>2021-07-29T14:21:52Z</time>
      </trkpt>
      <trkpt lat="47.19938" lon="-1.75601">
        <ele>23.799999237061</ele>
        <time>2021-07-29T14:22:02Z</time>
      </trkpt>
      <trkpt lat="47.1987" lon="-1.75672">
        <ele>24.799999237061</ele>
        <time>2021-07-29T14:22:21Z</time>
      </trkpt>
      <trkpt lat="47.1973" lon="-1.7581">
        <ele>26.799999237061</ele>
        <time>2021-07-29T14:23:04Z</time>
      </trkpt>
      <trkpt lat="47.19676" lon="-1.75843">
        <ele>27.60000038147</ele>
        <time>2021-07-29T14:23:18Z</time>
      </trkpt>
      <trkpt lat="47.19539" lon="-1.75931">
        <ele>29</ele>
        <time>2021-07-29T14:23:51Z</time>
      </trkpt>
      <trkpt lat="47.19504" lon="-1.75965">
        <ele>29.39999961853</ele>
        <time>2021-07-29T14:24:01Z</time>
      </trkpt>
      <trkpt lat="47.19438" lon="-1.76056">
        <ele>30</ele>
        <time>2021-07-29T14:24:20Z</time>
      </trkpt>
      <trkpt lat="47.19422" lon="-1.76082">
        <ele>30</ele>
        <time>2021-07-29T14:24:26Z</time>
      </trkpt>
      <trkpt lat="47.19407" lon="-1.76118">
        <ele>29.799999237061</ele>
        <time>2021-07-29T14:24:31Z</time>
      </trkpt>
      <trkpt lat="47.19321" lon="-1.76299">
        <ele>29.799999237061</ele>
        <time>2021-07-29T14:25:00Z</time>
      </trkpt>
      <trkpt lat="47.19262" lon="-1.76401">
        <ele>29.200000762939</ele>
        <time>2021-07-29T14:25:18Z</time>
      </trkpt>
      <trkpt lat="47.19238" lon="-1.76454">
        <ele>28.200000762939</ele>
        <time>2021-07-29T14:25:25Z</time>
      </trkpt>
      <trkpt lat="47.19207" lon="-1.76528">
        <ele>28</ele>
        <time>2021-07-29T14:25:35Z</time>
      </trkpt>
      <trkpt lat="47.19069" lon="-1.76819">
        <ele>26.39999961853</ele>
        <time>2021-07-29T14:26:18Z</time>
      </trkpt>
      <trkpt lat="47.19039" lon="-1.76865">
        <ele>26.39999961853</ele>
        <time>2021-07-29T14:26:26Z</time>
      </trkpt>
      <trkpt lat="47.18953" lon="-1.7699">
        <ele>26.799999237061</ele>
        <time>2021-07-29T14:26:50Z</time>
      </trkpt>
      <trkpt lat="47.18889" lon="-1.77093">
        <ele>27.799999237061</ele>
        <time>2021-07-29T14:27:10Z</time>
      </trkpt>
      <trkpt lat="47.18868" lon="-1.77137">
        <ele>28.60000038147</ele>
        <time>2021-07-29T14:27:18Z</time>
      </trkpt>
      <trkpt lat="47.18832" lon="-1.77312">
        <ele>29.200000762939</ele>
        <time>2021-07-29T14:27:43Z</time>
      </trkpt>
      <trkpt lat="47.18819" lon="-1.7743">
        <ele>28.799999237061</ele>
        <time>2021-07-29T14:27:58Z</time>
      </trkpt>
      <trkpt lat="47.18799" lon="-1.77459">
        <ele>28</ele>
        <time>2021-07-29T14:28:04Z</time>
      </trkpt>
      <trkpt lat="47.18791" lon="-1.77466">
        <ele>27.60000038147</ele>
        <time>2021-07-29T14:28:06Z</time>
      </trkpt>
      <trkpt lat="47.18776" lon="-1.77487">
        <ele>27.200000762939</ele>
        <time>2021-07-29T14:28:11Z</time>
      </trkpt>
      <trkpt lat="47.18763" lon="-1.77511">
        <ele>27.200000762939</ele>
        <time>2021-07-29T14:28:14Z</time>
      </trkpt>
      <trkpt lat="47.18708" lon="-1.77605">
        <ele>28.60000038147</ele>
        <time>2021-07-29T14:28:31Z</time>
      </trkpt>
      <trkpt lat="47.18602" lon="-1.77763">
        <ele>32.400001525879</ele>
        <time>2021-07-29T14:29:15Z</time>
      </trkpt>
      <trkpt lat="47.18598" lon="-1.77769">
        <ele>32.400001525879</ele>
        <time>2021-07-29T14:29:17Z</time>
      </trkpt>
      <trkpt lat="47.18534" lon="-1.77906">
        <ele>35.599998474121</ele>
        <time>2021-07-29T14:29:55Z</time>
      </trkpt>
      <trkpt lat="47.18525" lon="-1.77919">
        <ele>35.799999237061</ele>
        <time>2021-07-29T14:29:59Z</time>
      </trkpt>
      <trkpt lat="47.1846" lon="-1.77901">
        <ele>35.799999237061</ele>
        <time>2021-07-29T14:30:19Z</time>
      </trkpt>
      <trkpt lat="47.18319" lon="-1.77907">
        <ele>34.799999237061</ele>
        <time>2021-07-29T14:30:48Z</time>
      </trkpt>
      <trkpt lat="47.18252" lon="-1.77952">
        <ele>31.60000038147</ele>
        <time>2021-07-29T14:31:04Z</time>
      </trkpt>
      <trkpt lat="47.18255" lon="-1.77971">
        <ele>30</ele>
        <time>2021-07-29T14:36:45Z</time>
      </trkpt>
      <trkpt lat="47.18114" lon="-1.78189">
        <ele>30.39999961853</ele>
        <time>2021-07-29T14:37:36Z</time>
      </trkpt>
      <trkpt lat="47.17989" lon="-1.78246">
        <ele>30.39999961853</ele>
        <time>2021-07-29T14:38:00Z</time>
      </trkpt>
      <trkpt lat="47.17853" lon="-1.78281">
        <ele>28.39999961853</ele>
        <time>2021-07-29T14:38:22Z</time>
      </trkpt>
      <trkpt lat="47.1778" lon="-1.78372">
        <ele>26.39999961853</ele>
        <time>2021-07-29T14:38:39Z</time>
      </trkpt>
      <trkpt lat="47.17562" lon="-1.78605">
        <ele>24.200000762939</ele>
        <time>2021-07-29T14:39:21Z</time>
      </trkpt>
      <trkpt lat="47.17434" lon="-1.78693">
        <ele>22.60000038147</ele>
        <time>2021-07-29T14:39:47Z</time>
      </trkpt>
      <trkpt lat="47.17306" lon="-1.7874">
        <ele>20.799999237061</ele>
        <time>2021-07-29T14:40:12Z</time>
      </trkpt>
      <trkpt lat="47.17259" lon="-1.7875">
        <ele>19.39999961853</ele>
        <time>2021-07-29T14:40:19Z</time>
      </trkpt>
      <trkpt lat="47.17193" lon="-1.78765">
        <ele>17.60000038147</ele>
        <time>2021-07-29T14:40:28Z</time>
      </trkpt>
      <trkpt lat="47.17179" lon="-1.78764">
        <ele>17.39999961853</ele>
        <time>2021-07-29T14:40:30Z</time>
      </trkpt>
      <trkpt lat="47.171" lon="-1.78692">
        <ele>13.800000190735</ele>
        <time>2021-07-29T14:40:43Z</time>
      </trkpt>
      <trkpt lat="47.1706" lon="-1.78625">
        <ele>12.39999961853</ele>
        <time>2021-07-29T14:40:55Z</time>
      </trkpt>
      <trkpt lat="47.16991" lon="-1.78501">
        <ele>15.39999961853</ele>
        <time>2021-07-29T14:41:25Z</time>
      </trkpt>
      <trkpt lat="47.16989" lon="-1.78494">
        <ele>15.60000038147</ele>
        <time>2021-07-29T14:41:27Z</time>
      </trkpt>
      <trkpt lat="47.16966" lon="-1.7846">
        <ele>17.799999237061</ele>
        <time>2021-07-29T14:41:42Z</time>
      </trkpt>
      <trkpt lat="47.16927" lon="-1.78416">
        <ele>20</ele>
        <time>2021-07-29T14:42:05Z</time>
      </trkpt>
      <trkpt lat="47.16915" lon="-1.78404">
        <ele>21</ele>
        <time>2021-07-29T14:42:12Z</time>
      </trkpt>
      <trkpt lat="47.1689" lon="-1.78383">
        <ele>22.39999961853</ele>
        <time>2021-07-29T14:42:25Z</time>
      </trkpt>
      <trkpt lat="47.1686" lon="-1.78342">
        <ele>23.60000038147</ele>
        <time>2021-07-29T14:42:42Z</time>
      </trkpt>
      <trkpt lat="47.16758" lon="-1.78338">
        <ele>24</ele>
        <time>2021-07-29T14:43:08Z</time>
      </trkpt>
      <trkpt lat="47.16584" lon="-1.78374">
        <ele>21.200000762939</ele>
        <time>2021-07-29T14:43:35Z</time>
      </trkpt>
      <trkpt lat="47.16445" lon="-1.78386">
        <ele>18</ele>
        <time>2021-07-29T14:43:53Z</time>
      </trkpt>
      <trkpt lat="47.16437" lon="-1.78386">
        <ele>17.799999237061</ele>
        <time>2021-07-29T14:43:54Z</time>
      </trkpt>
      <trkpt lat="47.16283" lon="-1.78388">
        <ele>15.199999809265</ele>
        <time>2021-07-29T14:44:14Z</time>
      </trkpt>
      <trkpt lat="47.16068" lon="-1.78617">
        <ele>13.199999809265</ele>
        <time>2021-07-29T14:44:58Z</time>
      </trkpt>
      <trkpt lat="47.16054" lon="-1.78668">
        <ele>13</ele>
        <time>2021-07-29T14:45:04Z</time>
      </trkpt>
      <trkpt lat="47.16043" lon="-1.78777">
        <ele>13</ele>
        <time>2021-07-29T14:45:18Z</time>
      </trkpt>
      <trkpt lat="47.16026" lon="-1.78991">
        <ele>14.800000190735</ele>
        <time>2021-07-29T14:45:53Z</time>
      </trkpt>
      <trkpt lat="47.16002" lon="-1.79067">
        <ele>15.800000190735</ele>
        <time>2021-07-29T14:47:25Z</time>
      </trkpt>
      <trkpt lat="47.15932" lon="-1.79163">
        <ele>19.200000762939</ele>
        <time>2021-07-29T14:48:03Z</time>
      </trkpt>
      <trkpt lat="47.15918" lon="-1.79189">
        <ele>20.200000762939</ele>
        <time>2021-07-29T14:48:12Z</time>
      </trkpt>
      <trkpt lat="47.15907" lon="-1.79215">
        <ele>21.39999961853</ele>
        <time>2021-07-29T14:48:22Z</time>
      </trkpt>
      <trkpt lat="47.1589" lon="-1.79267">
        <ele>23</ele>
        <time>2021-07-29T14:48:39Z</time>
      </trkpt>
      <trkpt lat="47.15857" lon="-1.7936">
        <ele>26.799999237061</ele>
        <time>2021-07-29T14:49:12Z</time>
      </trkpt>
      <trkpt lat="47.15854" lon="-1.79368">
        <ele>26.799999237061</ele>
        <time>2021-07-29T14:49:15Z</time>
      </trkpt>
      <trkpt lat="47.15843" lon="-1.79399">
        <ele>28.39999961853</ele>
        <time>2021-07-29T14:49:26Z</time>
      </trkpt>
      <trkpt lat="47.15829" lon="-1.79432">
        <ele>29.799999237061</ele>
        <time>2021-07-29T14:49:37Z</time>
      </trkpt>
      <trkpt lat="47.15805" lon="-1.79478">
        <ele>32.400001525879</ele>
        <time>2021-07-29T14:49:54Z</time>
      </trkpt>
      <trkpt lat="47.15767" lon="-1.79502">
        <ele>34.200000762939</ele>
        <time>2021-07-29T14:50:12Z</time>
      </trkpt>
      <trkpt lat="47.15765" lon="-1.79503">
        <ele>34.400001525879</ele>
        <time>2021-07-29T14:50:13Z</time>
      </trkpt>
      <trkpt lat="47.15722" lon="-1.79534">
        <ele>35.799999237061</ele>
        <time>2021-07-29T14:50:29Z</time>
      </trkpt>
      <trkpt lat="47.15645" lon="-1.79598">
        <ele>39</ele>
        <time>2021-07-29T14:50:59Z</time>
      </trkpt>
      <trkpt lat="47.15639" lon="-1.79602">
        <ele>39.200000762939</ele>
        <time>2021-07-29T14:51:01Z</time>
      </trkpt>
      <trkpt lat="47.15558" lon="-1.79655">
        <ele>42.200000762939</ele>
        <time>2021-07-29T14:51:35Z</time>
      </trkpt>
      <trkpt lat="47.15509" lon="-1.79701">
        <ele>45.599998474121</ele>
        <time>2021-07-29T14:52:00Z</time>
      </trkpt>
      <trkpt lat="47.15507" lon="-1.79702">
        <ele>45.799999237061</ele>
        <time>2021-07-29T14:52:01Z</time>
      </trkpt>
      <trkpt lat="47.15455" lon="-1.79735">
        <ele>48.799999237061</ele>
        <time>2021-07-29T14:52:27Z</time>
      </trkpt>
      <trkpt lat="47.15444" lon="-1.79745">
        <ele>49.200000762939</ele>
        <time>2021-07-29T14:52:32Z</time>
      </trkpt>
      <trkpt lat="47.15383" lon="-1.79782">
        <ele>51</ele>
        <time>2021-07-29T14:52:59Z</time>
      </trkpt>
      <trkpt lat="47.15292" lon="-1.79871">
        <ele>54.599998474121</ele>
        <time>2021-07-29T14:53:40Z</time>
      </trkpt>
      <trkpt lat="47.15256" lon="-1.79903">
        <ele>55.799999237061</ele>
        <time>2021-07-29T14:53:54Z</time>
      </trkpt>
      <trkpt lat="47.15225" lon="-1.79921">
        <ele>56.200000762939</ele>
        <time>2021-07-29T14:54:02Z</time>
      </trkpt>
      <trkpt lat="47.15145" lon="-1.79993">
        <ele>57.400001525879</ele>
        <time>2021-07-29T14:54:22Z</time>
      </trkpt>
      <trkpt lat="47.15093" lon="-1.80108">
        <ele>55.799999237061</ele>
        <time>2021-07-29T14:54:43Z</time>
      </trkpt>
      <trkpt lat="47.15" lon="-1.80362">
        <ele>54</ele>
        <time>2021-07-29T14:55:24Z</time>
      </trkpt>
      <trkpt lat="47.14856" lon="-1.80494">
        <ele>52.400001525879</ele>
        <time>2021-07-29T14:55:55Z</time>
      </trkpt>
      <trkpt lat="47.14622" lon="-1.80625">
        <ele>49.799999237061</ele>
        <time>2021-07-29T14:56:40Z</time>
      </trkpt>
      <trkpt lat="47.14462" lon="-1.80779">
        <ele>48.400001525879</ele>
        <time>2021-07-29T14:57:12Z</time>
      </trkpt>
      <trkpt lat="47.14428" lon="-1.80809">
        <ele>48.599998474121</ele>
        <time>2021-07-29T14:57:19Z</time>
      </trkpt>
      <trkpt lat="47.14411" lon="-1.80838">
        <ele>48.799999237061</ele>
        <time>2021-07-29T14:57:25Z</time>
      </trkpt>
      <trkpt lat="47.14408" lon="-1.80842">
        <ele>48.799999237061</ele>
        <time>2021-07-29T14:57:26Z</time>
      </trkpt>
      <trkpt lat="47.14349" lon="-1.80986">
        <ele>49.599998474121</ele>
        <time>2021-07-29T14:57:48Z</time>
      </trkpt>
      <trkpt lat="47.14289" lon="-1.81125">
        <ele>49.200000762939</ele>
        <time>2021-07-29T14:58:09Z</time>
      </trkpt>
      <trkpt lat="47.14216" lon="-1.81342">
        <ele>48</ele>
        <time>2021-07-29T14:58:39Z</time>
      </trkpt>
      <trkpt lat="47.14203" lon="-1.81385">
        <ele>47.799999237061</ele>
        <time>2021-07-29T14:58:46Z</time>
      </trkpt>
      <trkpt lat="47.14135" lon="-1.8162">
        <ele>48.200000762939</ele>
        <time>2021-07-29T14:59:19Z</time>
      </trkpt>
      <trkpt lat="47.14063" lon="-1.81915">
        <ele>46.200000762939</ele>
        <time>2021-07-29T14:59:54Z</time>
      </trkpt>
      <trkpt lat="47.14025" lon="-1.82031">
        <ele>44.599998474121</ele>
        <time>2021-07-29T15:00:08Z</time>
      </trkpt>
      <trkpt lat="47.13977" lon="-1.82105">
        <ele>43.400001525879</ele>
        <time>2021-07-29T15:00:18Z</time>
      </trkpt>
      <trkpt lat="47.1395" lon="-1.82137">
        <ele>41.799999237061</ele>
        <time>2021-07-29T15:00:23Z</time>
      </trkpt>
      <trkpt lat="47.13946" lon="-1.82143">
        <ele>41.799999237061</ele>
        <time>2021-07-29T15:00:24Z</time>
      </trkpt>
      <trkpt lat="47.13926" lon="-1.82169">
        <ele>40.599998474121</ele>
        <time>2021-07-29T15:00:29Z</time>
      </trkpt>
      <trkpt lat="47.13834" lon="-1.82292">
        <ele>37</ele>
        <time>2021-07-29T15:00:51Z</time>
      </trkpt>
      <trkpt lat="47.1379" lon="-1.82316">
        <ele>36.799999237061</ele>
        <time>2021-07-29T15:00:59Z</time>
      </trkpt>
      <trkpt lat="47.13706" lon="-1.82315">
        <ele>37.200000762939</ele>
        <time>2021-07-29T15:01:16Z</time>
      </trkpt>
      <trkpt lat="47.13565" lon="-1.82461">
        <ele>37.200000762939</ele>
        <time>2021-07-29T15:01:51Z</time>
      </trkpt>
      <trkpt lat="47.13491" lon="-1.82556">
        <ele>34.599998474121</ele>
        <time>2021-07-29T15:02:09Z</time>
      </trkpt>
      <trkpt lat="47.13391" lon="-1.82704">
        <ele>31.39999961853</ele>
        <time>2021-07-29T15:02:32Z</time>
      </trkpt>
      <trkpt lat="47.1335" lon="-1.8276">
        <ele>29.799999237061</ele>
        <time>2021-07-29T15:02:39Z</time>
      </trkpt>
      <trkpt lat="47.13256" lon="-1.82854">
        <ele>26</ele>
        <time>2021-07-29T15:02:51Z</time>
      </trkpt>
      <trkpt lat="47.13217" lon="-1.82908">
        <ele>24</ele>
        <time>2021-07-29T15:02:56Z</time>
      </trkpt>
      <trkpt lat="47.13184" lon="-1.82941">
        <ele>21.39999961853</ele>
        <time>2021-07-29T15:03:00Z</time>
      </trkpt>
      <trkpt lat="47.13162" lon="-1.82959">
        <ele>20.39999961853</ele>
        <time>2021-07-29T15:03:03Z</time>
      </trkpt>
      <trkpt lat="47.13075" lon="-1.83112">
        <ele>21</ele>
        <time>2021-07-29T15:03:39Z</time>
      </trkpt>
      <trkpt lat="47.13079" lon="-1.8315">
        <ele>20.799999237061</ele>
        <time>2021-07-29T15:03:44Z</time>
      </trkpt>
      <trkpt lat="47.1316" lon="-1.83349">
        <ele>18.200000762939</ele>
        <time>2021-07-29T15:04:10Z</time>
      </trkpt>
      <trkpt lat="47.13179" lon="-1.83481">
        <ele>21.39999961853</ele>
        <time>2021-07-29T15:04:41Z</time>
      </trkpt>
      <trkpt lat="47.13187" lon="-1.83502">
        <ele>21.60000038147</ele>
        <time>2021-07-29T15:04:47Z</time>
      </trkpt>
      <trkpt lat="47.13183" lon="-1.83549">
        <ele>22</ele>
        <time>2021-07-29T15:04:57Z</time>
      </trkpt>
      <trkpt lat="47.13166" lon="-1.83568">
        <ele>22.39999961853</ele>
        <time>2021-07-29T15:05:02Z</time>
      </trkpt>
      <trkpt lat="47.13155" lon="-1.83628">
        <ele>22.39999961853</ele>
        <time>2021-07-29T15:05:12Z</time>
      </trkpt>
      <trkpt lat="47.13159" lon="-1.83701">
        <ele>21.799999237061</ele>
        <time>2021-07-29T15:05:21Z</time>
      </trkpt>
      <trkpt lat="47.13158" lon="-1.83738">
        <ele>21.799999237061</ele>
        <time>2021-07-29T15:05:25Z</time>
      </trkpt>
      <trkpt lat="47.13181" lon="-1.84032">
        <ele>21.60000038147</ele>
        <time>2021-07-29T15:06:06Z</time>
      </trkpt>
      <trkpt lat="47.13211" lon="-1.84271">
        <ele>23.799999237061</ele>
        <time>2021-07-29T15:06:47Z</time>
      </trkpt>
      <trkpt lat="47.13246" lon="-1.84788">
        <ele>21.39999961853</ele>
        <time>2021-07-29T15:07:48Z</time>
      </trkpt>
      <trkpt lat="47.13246" lon="-1.84804">
        <ele>21.60000038147</ele>
        <time>2021-07-29T15:07:50Z</time>
      </trkpt>
      <trkpt lat="47.13252" lon="-1.85053">
        <ele>21.799999237061</ele>
        <time>2021-07-29T15:08:22Z</time>
      </trkpt>
      <trkpt lat="47.13261" lon="-1.85226">
        <ele>20.60000038147</ele>
        <time>2021-07-29T15:08:40Z</time>
      </trkpt>
      <trkpt lat="47.13274" lon="-1.85452">
        <ele>22.60000038147</ele>
        <time>2021-07-29T15:09:06Z</time>
      </trkpt>
      <trkpt lat="47.13273" lon="-1.8546">
        <ele>22.60000038147</ele>
        <time>2021-07-29T15:09:07Z</time>
      </trkpt>
      <trkpt lat="47.13289" lon="-1.85788">
        <ele>21</ele>
        <time>2021-07-29T15:09:42Z</time>
      </trkpt>
      <trkpt lat="47.13271" lon="-1.85997">
        <ele>21.799999237061</ele>
        <time>2021-07-29T15:10:09Z</time>
      </trkpt>
      <trkpt lat="47.13256" lon="-1.86049">
        <ele>22</ele>
        <time>2021-07-29T15:10:17Z</time>
      </trkpt>
      <trkpt lat="47.13222" lon="-1.86226">
        <ele>21.799999237061</ele>
        <time>2021-07-29T15:10:43Z</time>
      </trkpt>
      <trkpt lat="47.13223" lon="-1.86461">
        <ele>22.60000038147</ele>
        <time>2021-07-29T15:11:12Z</time>
      </trkpt>
      <trkpt lat="47.1322" lon="-1.86572">
        <ele>22.799999237061</ele>
        <time>2021-07-29T15:11:28Z</time>
      </trkpt>
      <trkpt lat="47.13258" lon="-1.87204">
        <ele>24.799999237061</ele>
        <time>2021-07-29T15:12:53Z</time>
      </trkpt>
      <trkpt lat="47.13275" lon="-1.87438">
        <ele>27.60000038147</ele>
        <time>2021-07-29T15:13:32Z</time>
      </trkpt>
      <trkpt lat="47.13282" lon="-1.87579">
        <ele>28.60000038147</ele>
        <time>2021-07-29T15:13:55Z</time>
      </trkpt>
      <trkpt lat="47.13283" lon="-1.87585">
        <ele>28.799999237061</ele>
        <time>2021-07-29T15:13:56Z</time>
      </trkpt>
      <trkpt lat="47.13287" lon="-1.87611">
        <ele>29</ele>
        <time>2021-07-29T15:14:00Z</time>
      </trkpt>
      <trkpt lat="47.13237" lon="-1.87845">
        <ele>30</ele>
        <time>2021-07-29T15:14:40Z</time>
      </trkpt>
      <trkpt lat="47.13171" lon="-1.8808">
        <ele>31</ele>
        <time>2021-07-29T15:15:18Z</time>
      </trkpt>
      <trkpt lat="47.13149" lon="-1.88134">
        <ele>31.200000762939</ele>
        <time>2021-07-29T15:15:27Z</time>
      </trkpt>
      <trkpt lat="47.13106" lon="-1.88238">
        <ele>31</ele>
        <time>2021-07-29T15:15:42Z</time>
      </trkpt>
      <trkpt lat="47.12998" lon="-1.88438">
        <ele>30.200000762939</ele>
        <time>2021-07-29T15:16:13Z</time>
      </trkpt>
      <trkpt lat="47.12904" lon="-1.88635">
        <ele>29</ele>
        <time>2021-07-29T15:16:43Z</time>
      </trkpt>
      <trkpt lat="47.12882" lon="-1.88694">
        <ele>28.39999961853</ele>
        <time>2021-07-29T15:16:51Z</time>
      </trkpt>
      <trkpt lat="47.12868" lon="-1.88743">
        <ele>28</ele>
        <time>2021-07-29T15:16:57Z</time>
      </trkpt>
      <trkpt lat="47.12858" lon="-1.88799">
        <ele>27.39999961853</ele>
        <time>2021-07-29T15:17:03Z</time>
      </trkpt>
      <trkpt lat="47.1284" lon="-1.88909">
        <ele>26.799999237061</ele>
        <time>2021-07-29T15:17:15Z</time>
      </trkpt>
      <trkpt lat="47.12838" lon="-1.88949">
        <ele>26.799999237061</ele>
        <time>2021-07-29T15:17:20Z</time>
      </trkpt>
      <trkpt lat="47.12835" lon="-1.89012">
        <ele>26.799999237061</ele>
        <time>2021-07-29T15:17:28Z</time>
      </trkpt>
      <trkpt lat="47.12823" lon="-1.89083">
        <ele>26.60000038147</ele>
        <time>2021-07-29T15:17:38Z</time>
      </trkpt>
      <trkpt lat="47.1282" lon="-1.89106">
        <ele>26.60000038147</ele>
        <time>2021-07-29T15:17:41Z</time>
      </trkpt>
      <trkpt lat="47.12816" lon="-1.89216">
        <ele>25.60000038147</ele>
        <time>2021-07-29T15:17:55Z</time>
      </trkpt>
      <trkpt lat="47.12805" lon="-1.89344">
        <ele>25.799999237061</ele>
        <time>2021-07-29T15:18:11Z</time>
      </trkpt>
      <trkpt lat="47.12791" lon="-1.89403">
        <ele>26</ele>
        <time>2021-07-29T15:18:19Z</time>
      </trkpt>
      <trkpt lat="47.12735" lon="-1.89624">
        <ele>24</ele>
        <time>2021-07-29T15:18:44Z</time>
      </trkpt>
      <trkpt lat="47.1272" lon="-1.89698">
        <ele>23.200000762939</ele>
        <time>2021-07-29T15:18:52Z</time>
      </trkpt>
      <trkpt lat="47.12717" lon="-1.89725">
        <ele>22.60000038147</ele>
        <time>2021-07-29T15:18:55Z</time>
      </trkpt>
      <trkpt lat="47.12658" lon="-1.90261">
        <ele>19.799999237061</ele>
        <time>2021-07-29T15:19:50Z</time>
      </trkpt>
      <trkpt lat="47.12657" lon="-1.90282">
        <ele>19.799999237061</ele>
        <time>2021-07-29T15:19:52Z</time>
      </trkpt>
      <trkpt lat="47.12655" lon="-1.90372">
        <ele>19.799999237061</ele>
        <time>2021-07-29T15:20:01Z</time>
      </trkpt>
      <trkpt lat="47.12655" lon="-1.90395">
        <ele>19.799999237061</ele>
        <time>2021-07-29T15:20:04Z</time>
      </trkpt>
      <trkpt lat="47.12686" lon="-1.90724">
        <ele>20.799999237061</ele>
        <time>2021-07-29T15:20:53Z</time>
      </trkpt>
      <trkpt lat="47.127" lon="-1.90836">
        <ele>22.200000762939</ele>
        <time>2021-07-29T15:21:13Z</time>
      </trkpt>
      <trkpt lat="47.12711" lon="-1.90885">
        <ele>22.39999961853</ele>
        <time>2021-07-29T15:21:24Z</time>
      </trkpt>
      <trkpt lat="47.12725" lon="-1.90915">
        <ele>22.60000038147</ele>
        <time>2021-07-29T15:21:30Z</time>
      </trkpt>
      <trkpt lat="47.12754" lon="-1.90963">
        <ele>22.39999961853</ele>
        <time>2021-07-29T15:21:39Z</time>
      </trkpt>
      <trkpt lat="47.12791" lon="-1.91027">
        <ele>21.39999961853</ele>
        <time>2021-07-29T15:21:49Z</time>
      </trkpt>
      <trkpt lat="47.12827" lon="-1.91075">
        <ele>19.799999237061</ele>
        <time>2021-07-29T15:22:01Z</time>
      </trkpt>
      <trkpt lat="47.12826" lon="-1.91082">
        <ele>19.799999237061</ele>
        <time>2021-07-29T15:22:02Z</time>
      </trkpt>
      <trkpt lat="47.12802" lon="-1.91111">
        <ele>18.799999237061</ele>
        <time>2021-07-29T15:46:09Z</time>
      </trkpt>
      <trkpt lat="47.12771" lon="-1.91194">
        <ele>20.200000762939</ele>
        <time>2021-07-29T15:46:32Z</time>
      </trkpt>
      <trkpt lat="47.12742" lon="-1.91294">
        <ele>22.799999237061</ele>
        <time>2021-07-29T15:47:02Z</time>
      </trkpt>
      <trkpt lat="47.12727" lon="-1.91456">
        <ele>23.60000038147</ele>
        <time>2021-07-29T15:47:32Z</time>
      </trkpt>
      <trkpt lat="47.12698" lon="-1.916">
        <ele>23.60000038147</ele>
        <time>2021-07-29T15:47:53Z</time>
      </trkpt>
      <trkpt lat="47.12598" lon="-1.92171">
        <ele>20.39999961853</ele>
        <time>2021-07-29T15:49:02Z</time>
      </trkpt>
      <trkpt lat="47.12477" lon="-1.9288">
        <ele>20</ele>
        <time>2021-07-29T15:50:38Z</time>
      </trkpt>
      <trkpt lat="47.1245" lon="-1.92995">
        <ele>19.799999237061</ele>
        <time>2021-07-29T15:50:57Z</time>
      </trkpt>
      <trkpt lat="47.12409" lon="-1.93219">
        <ele>19.39999961853</ele>
        <time>2021-07-29T15:51:32Z</time>
      </trkpt>
      <trkpt lat="47.12186" lon="-1.93967">
        <ele>18.799999237061</ele>
        <time>2021-07-29T15:53:28Z</time>
      </trkpt>
      <trkpt lat="47.1203" lon="-1.94294">
        <ele>17.799999237061</ele>
        <time>2021-07-29T15:54:19Z</time>
      </trkpt>
      <trkpt lat="47.11879" lon="-1.94616">
        <ele>17.799999237061</ele>
        <time>2021-07-29T15:55:14Z</time>
      </trkpt>
      <trkpt lat="47.11843" lon="-1.9468">
        <ele>17.200000762939</ele>
        <time>2021-07-29T15:55:25Z</time>
      </trkpt>
      <trkpt lat="47.1178" lon="-1.94798">
        <ele>15.60000038147</ele>
        <time>2021-07-29T15:58:36Z</time>
      </trkpt>
      <trkpt lat="47.11762" lon="-1.94838">
        <ele>16.200000762939</ele>
        <time>2021-07-29T15:58:47Z</time>
      </trkpt>
      <trkpt lat="47.11769" lon="-1.95002">
        <ele>16.200000762939</ele>
        <time>2021-07-29T15:59:17Z</time>
      </trkpt>
      <trkpt lat="47.11774" lon="-1.95109">
        <ele>18</ele>
        <time>2021-07-29T15:59:38Z</time>
      </trkpt>
      <trkpt lat="47.11826" lon="-1.95181">
        <ele>17.60000038147</ele>
        <time>2021-07-29T15:59:58Z</time>
      </trkpt>
      <trkpt lat="47.11888" lon="-1.95209">
        <ele>17.60000038147</ele>
        <time>2021-07-29T16:00:12Z</time>
      </trkpt>
      <trkpt lat="47.11979" lon="-1.95254">
        <ele>17.39999961853</ele>
        <time>2021-07-29T16:02:18Z</time>
      </trkpt>
      <trkpt lat="47.12003" lon="-1.95263">
        <ele>17.799999237061</ele>
        <time>2021-07-29T16:02:25Z</time>
      </trkpt>
      <trkpt lat="47.12067" lon="-1.95313">
        <ele>17.799999237061</ele>
        <time>2021-07-29T16:02:41Z</time>
      </trkpt>
      <trkpt lat="47.12144" lon="-1.95403">
        <ele>17</ele>
        <time>2021-07-29T16:02:59Z</time>
      </trkpt>
      <trkpt lat="47.12151" lon="-1.95417">
        <ele>16.799999237061</ele>
        <time>2021-07-29T16:03:01Z</time>
      </trkpt>
      <trkpt lat="47.12215" lon="-1.95547">
        <ele>15.39999961853</ele>
        <time>2021-07-29T16:03:20Z</time>
      </trkpt>
      <trkpt lat="47.12283" lon="-1.95632">
        <ele>15.199999809265</ele>
        <time>2021-07-29T16:03:35Z</time>
      </trkpt>
      <trkpt lat="47.12512" lon="-1.95855">
        <ele>15.39999961853</ele>
        <time>2021-07-29T16:04:24Z</time>
      </trkpt>
      <trkpt lat="47.12596" lon="-1.95989">
        <ele>17.200000762939</ele>
        <time>2021-07-29T16:04:50Z</time>
      </trkpt>
      <trkpt lat="47.12667" lon="-1.96142">
        <ele>17.39999961853</ele>
        <time>2021-07-29T16:05:13Z</time>
      </trkpt>
      <trkpt lat="47.1267" lon="-1.96149">
        <ele>17.60000038147</ele>
        <time>2021-07-29T16:05:14Z</time>
      </trkpt>
      <trkpt lat="47.12883" lon="-1.96735">
        <ele>14.800000190735</ele>
        <time>2021-07-29T16:06:28Z</time>
      </trkpt>
      <trkpt lat="47.1301" lon="-1.96849">
        <ele>12.800000190735</ele>
        <time>2021-07-29T16:06:57Z</time>
      </trkpt>
      <trkpt lat="47.13055" lon="-1.96873">
        <ele>12.60000038147</ele>
        <time>2021-07-29T16:07:08Z</time>
      </trkpt>
      <trkpt lat="47.13112" lon="-1.96942">
        <ele>13</ele>
        <time>2021-07-29T16:07:23Z</time>
      </trkpt>
      <trkpt lat="47.13137" lon="-1.96982">
        <ele>13</ele>
        <time>2021-07-29T16:07:32Z</time>
      </trkpt>
      <trkpt lat="47.13127" lon="-1.97025">
        <ele>12.60000038147</ele>
        <time>2021-07-29T16:09:57Z</time>
      </trkpt>
      <trkpt lat="47.12995" lon="-1.97225">
        <ele>13.60000038147</ele>
        <time>2021-07-29T16:10:46Z</time>
      </trkpt>
      <trkpt lat="47.13021" lon="-1.97366">
        <ele>12.39999961853</ele>
        <time>2021-07-29T16:11:29Z</time>
      </trkpt>
      <trkpt lat="47.1311" lon="-1.97582">
        <ele>12.60000038147</ele>
        <time>2021-07-29T16:12:05Z</time>
      </trkpt>
      <trkpt lat="47.13104" lon="-1.97829">
        <ele>13</ele>
        <time>2021-07-29T16:12:40Z</time>
      </trkpt>
      <trkpt lat="47.1308" lon="-1.97917">
        <ele>13</ele>
        <time>2021-07-29T16:12:54Z</time>
      </trkpt>
      <trkpt lat="47.1303" lon="-1.98029">
        <ele>12.199999809265</ele>
        <time>2021-07-29T16:13:59Z</time>
      </trkpt>
      <trkpt lat="47.12934" lon="-1.98253">
        <ele>12</ele>
        <time>2021-07-29T16:14:45Z</time>
      </trkpt>
      <trkpt lat="47.12904" lon="-1.98478">
        <ele>11.60000038147</ele>
        <time>2021-07-29T16:15:24Z</time>
      </trkpt>
      <trkpt lat="47.12915" lon="-1.98595">
        <ele>11</ele>
        <time>2021-07-29T16:15:45Z</time>
      </trkpt>
      <trkpt lat="47.12928" lon="-1.98707">
        <ele>11.39999961853</ele>
        <time>2021-07-29T16:17:08Z</time>
      </trkpt>
      <trkpt lat="47.13144" lon="-1.98746">
        <ele>13.39999961853</ele>
        <time>2021-07-29T16:18:04Z</time>
      </trkpt>
      <trkpt lat="47.13176" lon="-1.98756">
        <ele>14</ele>
        <time>2021-07-29T16:18:14Z</time>
      </trkpt>
      <trkpt lat="47.13222" lon="-1.9881">
        <ele>15.800000190735</ele>
        <time>2021-07-29T16:18:29Z</time>
      </trkpt>
      <trkpt lat="47.13259" lon="-1.98905">
        <ele>16.799999237061</ele>
        <time>2021-07-29T16:18:49Z</time>
      </trkpt>
      <trkpt lat="47.13313" lon="-1.99114">
        <ele>18.200000762939</ele>
        <time>2021-07-29T16:19:25Z</time>
      </trkpt>
      <trkpt lat="47.13286" lon="-1.99277">
        <ele>16.799999237061</ele>
        <time>2021-07-29T16:19:45Z</time>
      </trkpt>
      <trkpt lat="47.13273" lon="-1.99321">
        <ele>16.39999961853</ele>
        <time>2021-07-29T16:19:51Z</time>
      </trkpt>
      <trkpt lat="47.13259" lon="-1.99488">
        <ele>17.200000762939</ele>
        <time>2021-07-29T16:20:18Z</time>
      </trkpt>
      <trkpt lat="47.13244" lon="-1.9958">
        <ele>19.200000762939</ele>
        <time>2021-07-29T16:20:34Z</time>
      </trkpt>
      <trkpt lat="47.13211" lon="-1.99793">
        <ele>18.200000762939</ele>
        <time>2021-07-29T16:21:02Z</time>
      </trkpt>
      <trkpt lat="47.13208" lon="-1.99953">
        <ele>17</ele>
        <time>2021-07-29T16:21:22Z</time>
      </trkpt>
      <trkpt lat="47.1321" lon="-1.99982">
        <ele>16.799999237061</ele>
        <time>2021-07-29T16:21:26Z</time>
      </trkpt>
      <trkpt lat="47.13224" lon="-2.00142">
        <ele>17.39999961853</ele>
        <time>2021-07-29T16:21:50Z</time>
      </trkpt>
      <trkpt lat="47.13209" lon="-2.00257">
        <ele>18.39999961853</ele>
        <time>2021-07-29T16:22:07Z</time>
      </trkpt>
      <trkpt lat="47.13159" lon="-2.00595">
        <ele>19</ele>
        <time>2021-07-29T16:22:54Z</time>
      </trkpt>
      <trkpt lat="47.13135" lon="-2.00674">
        <ele>19.39999961853</ele>
        <time>2021-07-29T16:23:05Z</time>
      </trkpt>
      <trkpt lat="47.13118" lon="-2.00722">
        <ele>19.39999961853</ele>
        <time>2021-07-29T16:23:12Z</time>
      </trkpt>
      <trkpt lat="47.13063" lon="-2.00879">
        <ele>18.39999961853</ele>
        <time>2021-07-29T16:23:32Z</time>
      </trkpt>
      <trkpt lat="47.12933" lon="-2.01192">
        <ele>19.200000762939</ele>
        <time>2021-07-29T16:24:24Z</time>
      </trkpt>
      <trkpt lat="47.12931" lon="-2.01304">
        <ele>18</ele>
        <time>2021-07-29T16:24:38Z</time>
      </trkpt>
      <trkpt lat="47.12933" lon="-2.01385">
        <ele>18.200000762939</ele>
        <time>2021-07-29T16:24:48Z</time>
      </trkpt>
      <trkpt lat="47.12918" lon="-2.0144">
        <ele>18.39999961853</ele>
        <time>2021-07-29T16:24:56Z</time>
      </trkpt>
      <trkpt lat="47.12911" lon="-2.01451">
        <ele>18.39999961853</ele>
        <time>2021-07-29T16:24:58Z</time>
      </trkpt>
      <trkpt lat="47.12903" lon="-2.01698">
        <ele>19.60000038147</ele>
        <time>2021-07-29T16:25:40Z</time>
      </trkpt>
      <trkpt lat="47.12886" lon="-2.01908">
        <ele>21</ele>
        <time>2021-07-29T16:26:11Z</time>
      </trkpt>
      <trkpt lat="47.12855" lon="-2.02274">
        <ele>20.799999237061</ele>
        <time>2021-07-29T16:27:00Z</time>
      </trkpt>
      <trkpt lat="47.12905" lon="-2.02711">
        <ele>20.200000762939</ele>
        <time>2021-07-29T16:28:01Z</time>
      </trkpt>
      <trkpt lat="47.13035" lon="-2.03186">
        <ele>19.39999961853</ele>
        <time>2021-07-29T16:29:05Z</time>
      </trkpt>
      <trkpt lat="47.13054" lon="-2.0325">
        <ele>17.799999237061</ele>
        <time>2021-07-29T16:29:13Z</time>
      </trkpt>
      <trkpt lat="47.13076" lon="-2.03323">
        <ele>17</ele>
        <time>2021-07-29T16:29:22Z</time>
      </trkpt>
      <trkpt lat="47.13077" lon="-2.03332">
        <ele>17</ele>
        <time>2021-07-29T16:29:23Z</time>
      </trkpt>
      <trkpt lat="47.1308" lon="-2.03387">
        <ele>17</ele>
        <time>2021-07-29T16:29:30Z</time>
      </trkpt>
      <trkpt lat="47.13083" lon="-2.03456">
        <ele>17</ele>
        <time>2021-07-29T16:29:43Z</time>
      </trkpt>
      <trkpt lat="47.1306" lon="-2.03606">
        <ele>15.60000038147</ele>
        <time>2021-07-29T16:30:04Z</time>
      </trkpt>
      <trkpt lat="47.13056" lon="-2.03613">
        <ele>15.60000038147</ele>
        <time>2021-07-29T16:30:05Z</time>
      </trkpt>
      <trkpt lat="47.13032" lon="-2.03667">
        <ele>15.199999809265</ele>
        <time>2021-07-29T16:30:12Z</time>
      </trkpt>
      <trkpt lat="47.13027" lon="-2.03701">
        <ele>14.800000190735</ele>
        <time>2021-07-29T16:30:16Z</time>
      </trkpt>
      <trkpt lat="47.13028" lon="-2.03709">
        <ele>14.800000190735</ele>
        <time>2021-07-29T16:30:17Z</time>
      </trkpt>
      <trkpt lat="47.13092" lon="-2.0404">
        <ele>14.800000190735</ele>
        <time>2021-07-29T16:31:02Z</time>
      </trkpt>
      <trkpt lat="47.131" lon="-2.04108">
        <ele>15</ele>
        <time>2021-07-29T16:31:12Z</time>
      </trkpt>
      <trkpt lat="47.1311" lon="-2.04168">
        <ele>15.199999809265</ele>
        <time>2021-07-29T16:31:20Z</time>
      </trkpt>
      <trkpt lat="47.13122" lon="-2.04336">
        <ele>15</ele>
        <time>2021-07-29T16:31:40Z</time>
      </trkpt>
      <trkpt lat="47.13063" lon="-2.04483">
        <ele>15.199999809265</ele>
        <time>2021-07-29T16:31:59Z</time>
      </trkpt>
      <trkpt lat="47.13045" lon="-2.04508">
        <ele>15.39999961853</ele>
        <time>2021-07-29T16:32:03Z</time>
      </trkpt>
      <trkpt lat="47.12975" lon="-2.046">
        <ele>15.60000038147</ele>
        <time>2021-07-29T16:32:23Z</time>
      </trkpt>
      <trkpt lat="47.12963" lon="-2.04619">
        <ele>15.60000038147</ele>
        <time>2021-07-29T16:32:27Z</time>
      </trkpt>
      <trkpt lat="47.12949" lon="-2.0465">
        <ele>16.200000762939</ele>
        <time>2021-07-29T16:32:33Z</time>
      </trkpt>
      <trkpt lat="47.12949" lon="-2.04734">
        <ele>17</ele>
        <time>2021-07-29T16:32:48Z</time>
      </trkpt>
      <trkpt lat="47.12956" lon="-2.04788">
        <ele>15.800000190735</ele>
        <time>2021-07-29T16:34:15Z</time>
      </trkpt>
      <trkpt lat="47.12957" lon="-2.04881">
        <ele>18.39999961853</ele>
        <time>2021-07-29T16:34:43Z</time>
      </trkpt>
      <trkpt lat="47.13017" lon="-2.05033">
        <ele>21.39999961853</ele>
        <time>2021-07-29T16:35:24Z</time>
      </trkpt>
      <trkpt lat="47.13035" lon="-2.05124">
        <ele>21</ele>
        <time>2021-07-29T16:35:36Z</time>
      </trkpt>
      <trkpt lat="47.13042" lon="-2.0529">
        <ele>18</ele>
        <time>2021-07-29T16:35:51Z</time>
      </trkpt>
      <trkpt lat="47.13043" lon="-2.05398">
        <ele>16.39999961853</ele>
        <time>2021-07-29T16:36:03Z</time>
      </trkpt>
      <trkpt lat="47.13043" lon="-2.05436">
        <ele>16.200000762939</ele>
        <time>2021-07-29T16:36:08Z</time>
      </trkpt>
      <trkpt lat="47.13029" lon="-2.05518">
        <ele>16.799999237061</ele>
        <time>2021-07-29T16:36:23Z</time>
      </trkpt>
      <trkpt lat="47.12989" lon="-2.05643">
        <ele>17.799999237061</ele>
        <time>2021-07-29T16:36:46Z</time>
      </trkpt>
      <trkpt lat="47.12966" lon="-2.05786">
        <ele>20</ele>
        <time>2021-07-29T16:37:18Z</time>
      </trkpt>
      <trkpt lat="47.12931" lon="-2.05999">
        <ele>22</ele>
        <time>2021-07-29T16:37:59Z</time>
      </trkpt>
      <trkpt lat="47.12905" lon="-2.06098">
        <ele>20.799999237061</ele>
        <time>2021-07-29T16:38:12Z</time>
      </trkpt>
      <trkpt lat="47.12888" lon="-2.06129">
        <ele>20.200000762939</ele>
        <time>2021-07-29T16:38:16Z</time>
      </trkpt>
      <trkpt lat="47.12816" lon="-2.06205">
        <ele>17.200000762939</ele>
        <time>2021-07-29T16:38:27Z</time>
      </trkpt>
      <trkpt lat="47.12769" lon="-2.06247">
        <ele>15.800000190735</ele>
        <time>2021-07-29T16:38:34Z</time>
      </trkpt>
      <trkpt lat="47.12724" lon="-2.06309">
        <ele>14.800000190735</ele>
        <time>2021-07-29T16:38:43Z</time>
      </trkpt>
      <trkpt lat="47.1271" lon="-2.06414">
        <ele>16</ele>
        <time>2021-07-29T16:38:59Z</time>
      </trkpt>
      <trkpt lat="47.12676" lon="-2.06537">
        <ele>18.60000038147</ele>
        <time>2021-07-29T16:39:25Z</time>
      </trkpt>
      <trkpt lat="47.12652" lon="-2.06653">
        <ele>18.60000038147</ele>
        <time>2021-07-29T16:39:44Z</time>
      </trkpt>
      <trkpt lat="47.12642" lon="-2.06711">
        <ele>18.39999961853</ele>
        <time>2021-07-29T16:39:52Z</time>
      </trkpt>
      <trkpt lat="47.12632" lon="-2.06755">
        <ele>18.39999961853</ele>
        <time>2021-07-29T16:39:58Z</time>
      </trkpt>
      <trkpt lat="47.12612" lon="-2.06875">
        <ele>21.60000038147</ele>
        <time>2021-07-29T16:40:34Z</time>
      </trkpt>
      <trkpt lat="47.12605" lon="-2.06929">
        <ele>22.799999237061</ele>
        <time>2021-07-29T16:40:47Z</time>
      </trkpt>
      <trkpt lat="47.12593" lon="-2.07133">
        <ele>25.39999961853</ele>
        <time>2021-07-29T16:41:29Z</time>
      </trkpt>
      <trkpt lat="47.12608" lon="-2.07205">
        <ele>25.39999961853</ele>
        <time>2021-07-29T16:41:41Z</time>
      </trkpt>
      <trkpt lat="47.12625" lon="-2.07289">
        <ele>26</ele>
        <time>2021-07-29T16:41:55Z</time>
      </trkpt>
      <trkpt lat="47.12632" lon="-2.07401">
        <ele>26.60000038147</ele>
        <time>2021-07-29T16:42:12Z</time>
      </trkpt>
      <trkpt lat="47.12627" lon="-2.07574">
        <ele>26</ele>
        <time>2021-07-29T16:42:38Z</time>
      </trkpt>
      <trkpt lat="47.12625" lon="-2.07589">
        <ele>25.60000038147</ele>
        <time>2021-07-29T16:42:40Z</time>
      </trkpt>
      <trkpt lat="47.12619" lon="-2.07627">
        <ele>25.200000762939</ele>
        <time>2021-07-29T16:42:45Z</time>
      </trkpt>
      <trkpt lat="47.12612" lon="-2.07663">
        <ele>24.39999961853</ele>
        <time>2021-07-29T16:42:50Z</time>
      </trkpt>
      <trkpt lat="47.12596" lon="-2.07751">
        <ele>21.799999237061</ele>
        <time>2021-07-29T16:43:01Z</time>
      </trkpt>
      <trkpt lat="47.12573" lon="-2.07855">
        <ele>19.60000038147</ele>
        <time>2021-07-29T16:43:17Z</time>
      </trkpt>
      <trkpt lat="47.1256" lon="-2.07918">
        <ele>21.799999237061</ele>
        <time>2021-07-29T16:43:38Z</time>
      </trkpt>
      <trkpt lat="47.12546" lon="-2.07984">
        <ele>25</ele>
        <time>2021-07-29T16:44:00Z</time>
      </trkpt>
      <trkpt lat="47.12529" lon="-2.08048">
        <ele>27.39999961853</ele>
        <time>2021-07-29T16:44:20Z</time>
      </trkpt>
      <trkpt lat="47.12484" lon="-2.08139">
        <ele>30.60000038147</ele>
        <time>2021-07-29T16:44:47Z</time>
      </trkpt>
      <trkpt lat="47.12467" lon="-2.0819">
        <ele>31.39999961853</ele>
        <time>2021-07-29T16:44:59Z</time>
      </trkpt>
      <trkpt lat="47.12245" lon="-2.08364">
        <ele>33.599998474121</ele>
        <time>2021-07-29T16:46:03Z</time>
      </trkpt>
      <trkpt lat="47.12115" lon="-2.08581">
        <ele>33.400001525879</ele>
        <time>2021-07-29T16:46:56Z</time>
      </trkpt>
      <trkpt lat="47.12075" lon="-2.08785">
        <ele>34</ele>
        <time>2021-07-29T16:47:35Z</time>
      </trkpt>
      <trkpt lat="47.12075" lon="-2.08827">
        <ele>33.200000762939</ele>
        <time>2021-07-29T16:47:43Z</time>
      </trkpt>
      <trkpt lat="47.12061" lon="-2.08866">
        <ele>31.799999237061</ele>
        <time>2021-07-29T16:47:49Z</time>
      </trkpt>
      <trkpt lat="47.12027" lon="-2.08908">
        <ele>26.200000762939</ele>
        <time>2021-07-29T16:47:59Z</time>
      </trkpt>
      <trkpt lat="47.12022" lon="-2.08914">
        <ele>25.60000038147</ele>
        <time>2021-07-29T16:48:00Z</time>
      </trkpt>
      <trkpt lat="47.11985" lon="-2.08962">
        <ele>23</ele>
        <time>2021-07-29T16:48:08Z</time>
      </trkpt>
      <trkpt lat="47.11942" lon="-2.09056">
        <ele>18.200000762939</ele>
        <time>2021-07-29T16:48:18Z</time>
      </trkpt>
      <trkpt lat="47.11937" lon="-2.09082">
        <ele>17.200000762939</ele>
        <time>2021-07-29T16:48:22Z</time>
      </trkpt>
      <trkpt lat="47.11947" lon="-2.09101">
        <ele>17.60000038147</ele>
        <time>2021-07-29T16:55:41Z</time>
      </trkpt>
      <trkpt lat="47.11938" lon="-2.09073">
        <ele>17.60000038147</ele>
        <time>2021-07-29T16:55:48Z</time>
      </trkpt>
      <trkpt lat="47.11938" lon="-2.09056">
        <ele>17.39999961853</ele>
        <time>2021-07-29T16:55:53Z</time>
      </trkpt>
      <trkpt lat="47.11972" lon="-2.08996">
        <ele>15</ele>
        <time>2021-07-29T16:56:13Z</time>
      </trkpt>
      <trkpt lat="47.11979" lon="-2.08978">
        <ele>14.800000190735</ele>
        <time>2021-07-29T16:56:19Z</time>
      </trkpt>
      <trkpt lat="47.12001" lon="-2.08946">
        <ele>17.200000762939</ele>
        <time>2021-07-29T16:56:39Z</time>
      </trkpt>
      <trkpt lat="47.12017" lon="-2.08911">
        <ele>20.200000762939</ele>
        <time>2021-07-29T16:56:59Z</time>
      </trkpt>
      <trkpt lat="47.12019" lon="-2.08907">
        <ele>20.39999961853</ele>
        <time>2021-07-29T16:57:01Z</time>
      </trkpt>
      <trkpt lat="47.12045" lon="-2.08885">
        <ele>23</ele>
        <time>2021-07-29T16:57:22Z</time>
      </trkpt>
      <trkpt lat="47.12052" lon="-2.08871">
        <ele>24.799999237061</ele>
        <time>2021-07-29T16:57:33Z</time>
      </trkpt>
      <trkpt lat="47.12058" lon="-2.0886">
        <ele>26.200000762939</ele>
        <time>2021-07-29T16:57:42Z</time>
      </trkpt>
      <trkpt lat="47.12064" lon="-2.08837">
        <ele>28.60000038147</ele>
        <time>2021-07-29T16:57:58Z</time>
      </trkpt>
      <trkpt lat="47.12066" lon="-2.08812">
        <ele>30.799999237061</ele>
        <time>2021-07-29T16:58:14Z</time>
      </trkpt>
      <trkpt lat="47.12073" lon="-2.08706">
        <ele>34</ele>
        <time>2021-07-29T16:58:51Z</time>
      </trkpt>
      <trkpt lat="47.12112" lon="-2.08572">
        <ele>33.400001525879</ele>
        <time>2021-07-29T16:59:27Z</time>
      </trkpt>
      <trkpt lat="47.12113" lon="-2.08558">
        <ele>32.799999237061</ele>
        <time>2021-07-29T16:59:45Z</time>
      </trkpt>
      <trkpt lat="47.12105" lon="-2.08535">
        <ele>32.200000762939</ele>
        <time>2021-07-29T16:59:54Z</time>
      </trkpt>
      <trkpt lat="47.12131" lon="-2.08475">
        <ele>30.200000762939</ele>
        <time>2021-07-29T17:00:15Z</time>
      </trkpt>
      <trkpt lat="47.12086" lon="-2.08626">
        <ele>26.200000762939</ele>
        <time>2021-07-30T06:59:05Z</time>
      </trkpt>
      <trkpt lat="47.12073" lon="-2.08668">
        <ele>23</ele>
        <time>2021-07-30T06:59:13Z</time>
      </trkpt>
      <trkpt lat="47.12066" lon="-2.08709">
        <ele>22.799999237061</ele>
        <time>2021-07-30T06:59:21Z</time>
      </trkpt>
      <trkpt lat="47.12059" lon="-2.08795">
        <ele>22.799999237061</ele>
        <time>2021-07-30T06:59:32Z</time>
      </trkpt>
      <trkpt lat="47.12049" lon="-2.08842">
        <ele>22.60000038147</ele>
        <time>2021-07-30T06:59:36Z</time>
      </trkpt>
      <trkpt lat="47.12014" lon="-2.08925">
        <ele>19.200000762939</ele>
        <time>2021-07-30T06:59:43Z</time>
      </trkpt>
      <trkpt lat="47.11985" lon="-2.08966">
        <ele>16.60000038147</ele>
        <time>2021-07-30T06:59:47Z</time>
      </trkpt>
      <trkpt lat="47.11952" lon="-2.09024">
        <ele>13.60000038147</ele>
        <time>2021-07-30T06:59:52Z</time>
      </trkpt>
      <trkpt lat="47.11941" lon="-2.0905">
        <ele>10</ele>
        <time>2021-07-30T06:59:55Z</time>
      </trkpt>
      <trkpt lat="47.11936" lon="-2.09069">
        <ele>6.4000000953674</ele>
        <time>2021-07-30T06:59:59Z</time>
      </trkpt>
      <trkpt lat="47.11918" lon="-2.09048">
        <ele>3.7999999523163</ele>
        <time>2021-07-30T07:00:16Z</time>
      </trkpt>
      <trkpt lat="47.11919" lon="-2.0907">
        <ele>4</ele>
        <time>2021-07-30T07:00:25Z</time>
      </trkpt>
      <trkpt lat="47.11915" lon="-2.09176">
        <ele>4.5999999046326</ele>
        <time>2021-07-30T07:00:54Z</time>
      </trkpt>
      <trkpt lat="47.11902" lon="-2.092">
        <ele>8.1999998092651</ele>
        <time>2021-07-30T07:01:09Z</time>
      </trkpt>
      <trkpt lat="47.11904" lon="-2.09226">
        <ele>12</ele>
        <time>2021-07-30T07:01:55Z</time>
      </trkpt>
      <trkpt lat="47.11903" lon="-2.09228">
        <ele>12</ele>
        <time>2021-07-30T07:01:56Z</time>
      </trkpt>
      <trkpt lat="47.11886" lon="-2.09316">
        <ele>14</ele>
        <time>2021-07-30T07:02:30Z</time>
      </trkpt>
      <trkpt lat="47.11873" lon="-2.09489">
        <ele>13.199999809265</ele>
        <time>2021-07-30T07:02:59Z</time>
      </trkpt>
      <trkpt lat="47.11852" lon="-2.09677">
        <ele>16.799999237061</ele>
        <time>2021-07-30T07:03:35Z</time>
      </trkpt>
      <trkpt lat="47.11844" lon="-2.09727">
        <ele>16.39999961853</ele>
        <time>2021-07-30T07:03:42Z</time>
      </trkpt>
      <trkpt lat="47.1179" lon="-2.09814">
        <ele>15</ele>
        <time>2021-07-30T07:03:57Z</time>
      </trkpt>
      <trkpt lat="47.11751" lon="-2.09853">
        <ele>14.39999961853</ele>
        <time>2021-07-30T07:04:06Z</time>
      </trkpt>
      <trkpt lat="47.11722" lon="-2.09971">
        <ele>14.60000038147</ele>
        <time>2021-07-30T07:04:28Z</time>
      </trkpt>
      <trkpt lat="47.11716" lon="-2.10019">
        <ele>16</ele>
        <time>2021-07-30T07:04:41Z</time>
      </trkpt>
      <trkpt lat="47.11715" lon="-2.10021">
        <ele>16.200000762939</ele>
        <time>2021-07-30T07:04:42Z</time>
      </trkpt>
      <trkpt lat="47.11685" lon="-2.1009">
        <ele>17.799999237061</ele>
        <time>2021-07-30T07:05:03Z</time>
      </trkpt>
      <trkpt lat="47.11655" lon="-2.10171">
        <ele>18.200000762939</ele>
        <time>2021-07-30T07:05:24Z</time>
      </trkpt>
      <trkpt lat="47.11651" lon="-2.10183">
        <ele>17.799999237061</ele>
        <time>2021-07-30T07:05:26Z</time>
      </trkpt>
      <trkpt lat="47.11634" lon="-2.10232">
        <ele>16</ele>
        <time>2021-07-30T07:05:36Z</time>
      </trkpt>
      <trkpt lat="47.11623" lon="-2.10249">
        <ele>15</ele>
        <time>2021-07-30T07:05:47Z</time>
      </trkpt>
      <trkpt lat="47.11622" lon="-2.10254">
        <ele>14.800000190735</ele>
        <time>2021-07-30T07:05:51Z</time>
      </trkpt>
      <trkpt lat="47.11591" lon="-2.10357">
        <ele>15.800000190735</ele>
        <time>2021-07-30T07:06:23Z</time>
      </trkpt>
      <trkpt lat="47.11589" lon="-2.10389">
        <ele>17.200000762939</ele>
        <time>2021-07-30T07:06:34Z</time>
      </trkpt>
      <trkpt lat="47.11586" lon="-2.10435">
        <ele>18.799999237061</ele>
        <time>2021-07-30T07:06:55Z</time>
      </trkpt>
      <trkpt lat="47.11587" lon="-2.10451">
        <ele>18.799999237061</ele>
        <time>2021-07-30T07:07:01Z</time>
      </trkpt>
      <trkpt lat="47.11582" lon="-2.10457">
        <ele>18.799999237061</ele>
        <time>2021-07-30T07:07:05Z</time>
      </trkpt>
      <trkpt lat="47.11567" lon="-2.10471">
        <ele>18.60000038147</ele>
        <time>2021-07-30T07:07:12Z</time>
      </trkpt>
      <trkpt lat="47.11519" lon="-2.10518">
        <ele>17.200000762939</ele>
        <time>2021-07-30T07:07:27Z</time>
      </trkpt>
      <trkpt lat="47.11496" lon="-2.10578">
        <ele>14.60000038147</ele>
        <time>2021-07-30T07:07:39Z</time>
      </trkpt>
      <trkpt lat="47.11465" lon="-2.10623">
        <ele>12.800000190735</ele>
        <time>2021-07-30T07:07:49Z</time>
      </trkpt>
      <trkpt lat="47.11461" lon="-2.10629">
        <ele>12.39999961853</ele>
        <time>2021-07-30T07:07:50Z</time>
      </trkpt>
      <trkpt lat="47.11422" lon="-2.10673">
        <ele>9.8000001907349</ele>
        <time>2021-07-30T07:07:57Z</time>
      </trkpt>
      <trkpt lat="47.11394" lon="-2.10694">
        <ele>8</ele>
        <time>2021-07-30T07:08:03Z</time>
      </trkpt>
      <trkpt lat="47.11384" lon="-2.10688">
        <ele>5.4000000953674</ele>
        <time>2021-07-30T07:08:08Z</time>
      </trkpt>
      <trkpt lat="47.11399" lon="-2.10629">
        <ele>3.4000000953674</ele>
        <time>2021-07-30T07:08:24Z</time>
      </trkpt>
      <trkpt lat="47.1141" lon="-2.10614">
        <ele>4</ele>
        <time>2021-07-30T07:08:35Z</time>
      </trkpt>
      <trkpt lat="47.11438" lon="-2.10618">
        <ele>6.5999999046326</ele>
        <time>2021-07-30T07:08:55Z</time>
      </trkpt>
      <trkpt lat="47.11463" lon="-2.10542">
        <ele>8.3999996185303</ele>
        <time>2021-07-30T07:09:20Z</time>
      </trkpt>
      <trkpt lat="47.11471" lon="-2.10462">
        <ele>6</ele>
        <time>2021-07-30T07:09:34Z</time>
      </trkpt>
      <trkpt lat="47.11461" lon="-2.10444">
        <ele>5</ele>
        <time>2021-07-30T07:09:38Z</time>
      </trkpt>
      <trkpt lat="47.11458" lon="-2.10424">
        <ele>3.4000000953674</ele>
        <time>2021-07-30T07:09:44Z</time>
      </trkpt>
      <trkpt lat="47.11464" lon="-2.10401">
        <ele>1.6000000238419</ele>
        <time>2021-07-30T07:13:15Z</time>
      </trkpt>
      <trkpt lat="47.11505" lon="-2.10112">
        <ele>0.40000000596046</ele>
        <time>2021-07-30T07:14:25Z</time>
      </trkpt>
      <trkpt lat="47.11521" lon="-2.10002">
        <ele>0.80000001192093</ele>
        <time>2021-07-30T07:14:44Z</time>
      </trkpt>
      <trkpt lat="47.11544" lon="-2.09943">
        <ele>1</ele>
        <time>2021-07-30T07:15:02Z</time>
      </trkpt>
      <trkpt lat="47.11547" lon="-2.099">
        <ele>1.2000000476837</ele>
        <time>2021-07-30T07:15:13Z</time>
      </trkpt>
      <trkpt lat="47.11462" lon="-2.09917">
        <ele>1.2000000476837</ele>
        <time>2021-07-30T07:15:53Z</time>
      </trkpt>
      <trkpt lat="47.11457" lon="-2.10027">
        <ele>1.2000000476837</ele>
        <time>2021-07-30T07:16:12Z</time>
      </trkpt>
      <trkpt lat="47.11458" lon="-2.10082">
        <ele>1.2000000476837</ele>
        <time>2021-07-30T07:16:21Z</time>
      </trkpt>
      <trkpt lat="47.11457" lon="-2.10128">
        <ele>1.6000000238419</ele>
        <time>2021-07-30T07:16:29Z</time>
      </trkpt>
      <trkpt lat="47.11401" lon="-2.10293">
        <ele>2</ele>
        <time>2021-07-30T07:17:02Z</time>
      </trkpt>
      <trkpt lat="47.11291" lon="-2.10387">
        <ele>4.5999999046326</ele>
        <time>2021-07-30T07:17:44Z</time>
      </trkpt>
      <trkpt lat="47.1124" lon="-2.10404">
        <ele>7.5999999046326</ele>
        <time>2021-07-30T07:18:09Z</time>
      </trkpt>
      <trkpt lat="47.11237" lon="-2.10407">
        <ele>7.8000001907349</ele>
        <time>2021-07-30T07:18:10Z</time>
      </trkpt>
      <trkpt lat="47.11222" lon="-2.10428">
        <ele>8.6000003814697</ele>
        <time>2021-07-30T07:18:15Z</time>
      </trkpt>
      <trkpt lat="47.11205" lon="-2.10455">
        <ele>8.8000001907349</ele>
        <time>2021-07-30T07:18:22Z</time>
      </trkpt>
      <trkpt lat="47.11079" lon="-2.10487">
        <ele>8</ele>
        <time>2021-07-30T07:18:57Z</time>
      </trkpt>
      <trkpt lat="47.11047" lon="-2.10536">
        <ele>10.39999961853</ele>
        <time>2021-07-30T07:19:16Z</time>
      </trkpt>
      <trkpt lat="47.11003" lon="-2.10586">
        <ele>11</ele>
        <time>2021-07-30T07:19:28Z</time>
      </trkpt>
      <trkpt lat="47.10927" lon="-2.10749">
        <ele>9</ele>
        <time>2021-07-30T07:19:53Z</time>
      </trkpt>
      <trkpt lat="47.10875" lon="-2.1073">
        <ele>7.5999999046326</ele>
        <time>2021-07-30T07:20:05Z</time>
      </trkpt>
      <trkpt lat="47.10854" lon="-2.10735">
        <ele>7.4000000953674</ele>
        <time>2021-07-30T07:20:09Z</time>
      </trkpt>
      <trkpt lat="47.10736" lon="-2.10594">
        <ele>7.1999998092651</ele>
        <time>2021-07-30T07:20:45Z</time>
      </trkpt>
      <trkpt lat="47.10722" lon="-2.10586">
        <ele>7.4000000953674</ele>
        <time>2021-07-30T07:20:50Z</time>
      </trkpt>
      <trkpt lat="47.1071" lon="-2.10583">
        <ele>7.8000001907349</ele>
        <time>2021-07-30T07:20:53Z</time>
      </trkpt>
      <trkpt lat="47.10676" lon="-2.10506">
        <ele>7.1999998092651</ele>
        <time>2021-07-30T07:21:05Z</time>
      </trkpt>
      <trkpt lat="47.10672" lon="-2.10475">
        <ele>5.5999999046326</ele>
        <time>2021-07-30T07:21:09Z</time>
      </trkpt>
      <trkpt lat="47.10671" lon="-2.10469">
        <ele>5.5999999046326</ele>
        <time>2021-07-30T07:21:10Z</time>
      </trkpt>
      <trkpt lat="47.10667" lon="-2.10457">
        <ele>5.4000000953674</ele>
        <time>2021-07-30T07:21:12Z</time>
      </trkpt>
      <trkpt lat="47.10689" lon="-2.10346">
        <ele>8.6000003814697</ele>
        <time>2021-07-30T07:21:35Z</time>
      </trkpt>
      <trkpt lat="47.1069" lon="-2.10342">
        <ele>8.8000001907349</ele>
        <time>2021-07-30T07:21:36Z</time>
      </trkpt>
      <trkpt lat="47.10699" lon="-2.10322">
        <ele>9.3999996185303</ele>
        <time>2021-07-30T07:21:42Z</time>
      </trkpt>
      <trkpt lat="47.10714" lon="-2.10294">
        <ele>11.800000190735</ele>
        <time>2021-07-30T07:21:53Z</time>
      </trkpt>
      <trkpt lat="47.1072" lon="-2.10269">
        <ele>13</ele>
        <time>2021-07-30T07:22:01Z</time>
      </trkpt>
      <trkpt lat="47.10725" lon="-2.10263">
        <ele>13.199999809265</ele>
        <time>2021-07-30T07:22:05Z</time>
      </trkpt>
      <trkpt lat="47.10733" lon="-2.10261">
        <ele>13.39999961853</ele>
        <time>2021-07-30T07:22:10Z</time>
      </trkpt>
      <trkpt lat="47.10759" lon="-2.10258">
        <ele>17</ele>
        <time>2021-07-30T07:22:34Z</time>
      </trkpt>
      <trkpt lat="47.1076" lon="-2.10257">
        <ele>17.200000762939</ele>
        <time>2021-07-30T07:22:35Z</time>
      </trkpt>
      <trkpt lat="47.10795" lon="-2.10197">
        <ele>20</ele>
        <time>2021-07-30T07:23:09Z</time>
      </trkpt>
      <trkpt lat="47.109" lon="-2.10272">
        <ele>22.200000762939</ele>
        <time>2021-07-30T07:24:03Z</time>
      </trkpt>
      <trkpt lat="47.10891" lon="-2.10225">
        <ele>22.60000038147</ele>
        <time>2021-07-30T07:24:23Z</time>
      </trkpt>
      <trkpt lat="47.10979" lon="-2.10046">
        <ele>25.799999237061</ele>
        <time>2021-07-30T07:25:10Z</time>
      </trkpt>
      <trkpt lat="47.11033" lon="-2.09918">
        <ele>27.200000762939</ele>
        <time>2021-07-30T07:25:41Z</time>
      </trkpt>
      <trkpt lat="47.11045" lon="-2.09836">
        <ele>26.799999237061</ele>
        <time>2021-07-30T07:25:54Z</time>
      </trkpt>
      <trkpt lat="47.11025" lon="-2.09762">
        <ele>26</ele>
        <time>2021-07-30T07:26:06Z</time>
      </trkpt>
      <trkpt lat="47.10964" lon="-2.09595">
        <ele>24.799999237061</ele>
        <time>2021-07-30T07:26:34Z</time>
      </trkpt>
      <trkpt lat="47.1096" lon="-2.09579">
        <ele>24.60000038147</ele>
        <time>2021-07-30T07:26:36Z</time>
      </trkpt>
      <trkpt lat="47.10932" lon="-2.09511">
        <ele>23.39999961853</ele>
        <time>2021-07-30T07:26:44Z</time>
      </trkpt>
      <trkpt lat="47.1092" lon="-2.09481">
        <ele>22.799999237061</ele>
        <time>2021-07-30T07:26:48Z</time>
      </trkpt>
      <trkpt lat="47.10868" lon="-2.09343">
        <ele>21.799999237061</ele>
        <time>2021-07-30T07:27:16Z</time>
      </trkpt>
      <trkpt lat="47.10848" lon="-2.09303">
        <ele>21.799999237061</ele>
        <time>2021-07-30T07:27:24Z</time>
      </trkpt>
      <trkpt lat="47.10798" lon="-2.0909">
        <ele>22.799999237061</ele>
        <time>2021-07-30T07:28:02Z</time>
      </trkpt>
      <trkpt lat="47.10777" lon="-2.09072">
        <ele>23</ele>
        <time>2021-07-30T07:28:09Z</time>
      </trkpt>
      <trkpt lat="47.10767" lon="-2.08878">
        <ele>22.60000038147</ele>
        <time>2021-07-30T07:28:41Z</time>
      </trkpt>
      <trkpt lat="47.10772" lon="-2.08861">
        <ele>22.60000038147</ele>
        <time>2021-07-30T07:28:44Z</time>
      </trkpt>
      <trkpt lat="47.10778" lon="-2.08815">
        <ele>23</ele>
        <time>2021-07-30T07:28:52Z</time>
      </trkpt>
      <trkpt lat="47.10749" lon="-2.08745">
        <ele>23.799999237061</ele>
        <time>2021-07-30T07:29:03Z</time>
      </trkpt>
      <trkpt lat="47.10732" lon="-2.08665">
        <ele>23.799999237061</ele>
        <time>2021-07-30T07:29:17Z</time>
      </trkpt>
      <trkpt lat="47.10714" lon="-2.08632">
        <ele>23.799999237061</ele>
        <time>2021-07-30T07:29:24Z</time>
      </trkpt>
      <trkpt lat="47.10707" lon="-2.08607">
        <ele>23.799999237061</ele>
        <time>2021-07-30T07:29:29Z</time>
      </trkpt>
      <trkpt lat="47.10695" lon="-2.08493">
        <ele>22.39999961853</ele>
        <time>2021-07-30T07:29:43Z</time>
      </trkpt>
      <trkpt lat="47.10615" lon="-2.08325">
        <ele>22.200000762939</ele>
        <time>2021-07-30T07:30:08Z</time>
      </trkpt>
      <trkpt lat="47.10578" lon="-2.08263">
        <ele>22.60000038147</ele>
        <time>2021-07-30T07:30:18Z</time>
      </trkpt>
      <trkpt lat="47.10489" lon="-2.08082">
        <ele>20.60000038147</ele>
        <time>2021-07-30T07:30:43Z</time>
      </trkpt>
      <trkpt lat="47.10456" lon="-2.08028">
        <ele>20.39999961853</ele>
        <time>2021-07-30T07:30:52Z</time>
      </trkpt>
      <trkpt lat="47.10389" lon="-2.07931">
        <ele>19.200000762939</ele>
        <time>2021-07-30T07:31:11Z</time>
      </trkpt>
      <trkpt lat="47.1038" lon="-2.07902">
        <ele>19</ele>
        <time>2021-07-30T07:31:14Z</time>
      </trkpt>
      <trkpt lat="47.10374" lon="-2.07855">
        <ele>19</ele>
        <time>2021-07-30T07:31:19Z</time>
      </trkpt>
      <trkpt lat="47.10373" lon="-2.0783">
        <ele>19</ele>
        <time>2021-07-30T07:31:22Z</time>
      </trkpt>
      <trkpt lat="47.10389" lon="-2.07737">
        <ele>19</ele>
        <time>2021-07-30T07:31:36Z</time>
      </trkpt>
      <trkpt lat="47.10404" lon="-2.07694">
        <ele>19.60000038147</ele>
        <time>2021-07-30T07:31:43Z</time>
      </trkpt>
      <trkpt lat="47.10406" lon="-2.07668">
        <ele>19.799999237061</ele>
        <time>2021-07-30T07:31:47Z</time>
      </trkpt>
      <trkpt lat="47.10407" lon="-2.07663">
        <ele>19.799999237061</ele>
        <time>2021-07-30T07:31:48Z</time>
      </trkpt>
      <trkpt lat="47.10351" lon="-2.0751">
        <ele>20</ele>
        <time>2021-07-30T07:32:18Z</time>
      </trkpt>
      <trkpt lat="47.10341" lon="-2.07485">
        <ele>19.799999237061</ele>
        <time>2021-07-30T07:32:22Z</time>
      </trkpt>
      <trkpt lat="47.10361" lon="-2.07423">
        <ele>18.200000762939</ele>
        <time>2021-07-30T07:32:35Z</time>
      </trkpt>
      <trkpt lat="47.10383" lon="-2.07353">
        <ele>21</ele>
        <time>2021-07-30T07:33:01Z</time>
      </trkpt>
      <trkpt lat="47.10384" lon="-2.07342">
        <ele>21.60000038147</ele>
        <time>2021-07-30T07:33:05Z</time>
      </trkpt>
      <trkpt lat="47.10396" lon="-2.07288">
        <ele>24.200000762939</ele>
        <time>2021-07-30T07:33:26Z</time>
      </trkpt>
      <trkpt lat="47.10434" lon="-2.07179">
        <ele>26.799999237061</ele>
        <time>2021-07-30T07:34:00Z</time>
      </trkpt>
      <trkpt lat="47.10468" lon="-2.06988">
        <ele>29</ele>
        <time>2021-07-30T07:34:41Z</time>
      </trkpt>
      <trkpt lat="47.10502" lon="-2.06905">
        <ele>30</ele>
        <time>2021-07-30T07:34:59Z</time>
      </trkpt>
      <trkpt lat="47.10504" lon="-2.06906">
        <ele>30</ele>
        <time>2021-07-30T07:35:02Z</time>
      </trkpt>
      <trkpt lat="47.10453" lon="-2.06854">
        <ele>29.799999237061</ele>
        <time>2021-07-30T07:35:26Z</time>
      </trkpt>
      <trkpt lat="47.10336" lon="-2.06597">
        <ele>31.39999961853</ele>
        <time>2021-07-30T07:36:18Z</time>
      </trkpt>
      <trkpt lat="47.10258" lon="-2.06433">
        <ele>32.799999237061</ele>
        <time>2021-07-30T07:36:48Z</time>
      </trkpt>
      <trkpt lat="47.10182" lon="-2.06299">
        <ele>33.799999237061</ele>
        <time>2021-07-30T07:37:14Z</time>
      </trkpt>
      <trkpt lat="47.10137" lon="-2.06259">
        <ele>33.799999237061</ele>
        <time>2021-07-30T07:37:24Z</time>
      </trkpt>
      <trkpt lat="47.10083" lon="-2.06126">
        <ele>34.400001525879</ele>
        <time>2021-07-30T07:37:46Z</time>
      </trkpt>
      <trkpt lat="47.10057" lon="-2.06058">
        <ele>34.200000762939</ele>
        <time>2021-07-30T07:38:00Z</time>
      </trkpt>
      <trkpt lat="47.09982" lon="-2.0607">
        <ele>34.200000762939</ele>
        <time>2021-07-30T07:38:18Z</time>
      </trkpt>
      <trkpt lat="47.09977" lon="-2.06067">
        <ele>34.200000762939</ele>
        <time>2021-07-30T07:38:19Z</time>
      </trkpt>
      <trkpt lat="47.09961" lon="-2.06053">
        <ele>34</ele>
        <time>2021-07-30T07:38:22Z</time>
      </trkpt>
      <trkpt lat="47.09914" lon="-2.06014">
        <ele>33.400001525879</ele>
        <time>2021-07-30T07:38:31Z</time>
      </trkpt>
      <trkpt lat="47.09866" lon="-2.0594">
        <ele>33</ele>
        <time>2021-07-30T07:38:42Z</time>
      </trkpt>
      <trkpt lat="47.09825" lon="-2.05862">
        <ele>31.799999237061</ele>
        <time>2021-07-30T07:38:54Z</time>
      </trkpt>
      <trkpt lat="47.09802" lon="-2.05782">
        <ele>31.60000038147</ele>
        <time>2021-07-30T07:39:06Z</time>
      </trkpt>
      <trkpt lat="47.09754" lon="-2.05617">
        <ele>31.200000762939</ele>
        <time>2021-07-30T07:39:28Z</time>
      </trkpt>
      <trkpt lat="47.09718" lon="-2.05569">
        <ele>30.200000762939</ele>
        <time>2021-07-30T07:39:35Z</time>
      </trkpt>
      <trkpt lat="47.09688" lon="-2.05536">
        <ele>29.200000762939</ele>
        <time>2021-07-30T07:39:40Z</time>
      </trkpt>
      <trkpt lat="47.09671" lon="-2.05512">
        <ele>29</ele>
        <time>2021-07-30T07:39:43Z</time>
      </trkpt>
      <trkpt lat="47.0965" lon="-2.05469">
        <ele>28.60000038147</ele>
        <time>2021-07-30T07:39:48Z</time>
      </trkpt>
      <trkpt lat="47.09614" lon="-2.05397">
        <ele>25.60000038147</ele>
        <time>2021-07-30T07:40:01Z</time>
      </trkpt>
      <trkpt lat="47.09599" lon="-2.05353">
        <ele>24.799999237061</ele>
        <time>2021-07-30T07:40:07Z</time>
      </trkpt>
      <trkpt lat="47.09592" lon="-2.05336">
        <ele>25</ele>
        <time>2021-07-30T07:40:09Z</time>
      </trkpt>
      <trkpt lat="47.09569" lon="-2.05281">
        <ele>24</ele>
        <time>2021-07-30T07:40:16Z</time>
      </trkpt>
      <trkpt lat="47.09561" lon="-2.05219">
        <ele>21</ele>
        <time>2021-07-30T07:40:23Z</time>
      </trkpt>
      <trkpt lat="47.09565" lon="-2.0519">
        <ele>20.200000762939</ele>
        <time>2021-07-30T07:40:26Z</time>
      </trkpt>
      <trkpt lat="47.09564" lon="-2.05134">
        <ele>16.799999237061</ele>
        <time>2021-07-30T07:40:33Z</time>
      </trkpt>
      <trkpt lat="47.09599" lon="-2.05087">
        <ele>15</ele>
        <time>2021-07-30T07:40:47Z</time>
      </trkpt>
      <trkpt lat="47.09649" lon="-2.05023">
        <ele>18.60000038147</ele>
        <time>2021-07-30T07:41:12Z</time>
      </trkpt>
      <trkpt lat="47.09652" lon="-2.05018">
        <ele>18.60000038147</ele>
        <time>2021-07-30T07:41:14Z</time>
      </trkpt>
      <trkpt lat="47.09672" lon="-2.0497">
        <ele>20.39999961853</ele>
        <time>2021-07-30T07:41:32Z</time>
      </trkpt>
      <trkpt lat="47.09637" lon="-2.04883">
        <ele>24.60000038147</ele>
        <time>2021-07-30T07:42:05Z</time>
      </trkpt>
      <trkpt lat="47.09623" lon="-2.04853">
        <ele>26.39999961853</ele>
        <time>2021-07-30T07:42:19Z</time>
      </trkpt>
      <trkpt lat="47.09605" lon="-2.04818">
        <ele>27.39999961853</ele>
        <time>2021-07-30T07:42:31Z</time>
      </trkpt>
      <trkpt lat="47.09594" lon="-2.04786">
        <ele>28</ele>
        <time>2021-07-30T07:42:39Z</time>
      </trkpt>
      <trkpt lat="47.09626" lon="-2.04675">
        <ele>29</ele>
        <time>2021-07-30T07:43:07Z</time>
      </trkpt>
      <trkpt lat="47.09604" lon="-2.04479">
        <ele>29.60000038147</ele>
        <time>2021-07-30T07:43:49Z</time>
      </trkpt>
      <trkpt lat="47.09514" lon="-2.04417">
        <ele>30</ele>
        <time>2021-07-30T07:44:13Z</time>
      </trkpt>
      <trkpt lat="47.09479" lon="-2.04373">
        <ele>30.200000762939</ele>
        <time>2021-07-30T07:44:23Z</time>
      </trkpt>
      <trkpt lat="47.09472" lon="-2.04362">
        <ele>30.39999961853</ele>
        <time>2021-07-30T07:44:25Z</time>
      </trkpt>
      <trkpt lat="47.09436" lon="-2.04303">
        <ele>31.60000038147</ele>
        <time>2021-07-30T07:44:37Z</time>
      </trkpt>
      <trkpt lat="47.09414" lon="-2.04276">
        <ele>31.799999237061</ele>
        <time>2021-07-30T07:44:43Z</time>
      </trkpt>
      <trkpt lat="47.09407" lon="-2.04268">
        <ele>31.799999237061</ele>
        <time>2021-07-30T07:44:45Z</time>
      </trkpt>
      <trkpt lat="47.09393" lon="-2.04253">
        <ele>31.60000038147</ele>
        <time>2021-07-30T07:44:49Z</time>
      </trkpt>
      <trkpt lat="47.09284" lon="-2.04111">
        <ele>31.39999961853</ele>
        <time>2021-07-30T07:45:38Z</time>
      </trkpt>
      <trkpt lat="47.0928" lon="-2.04115">
        <ele>31.200000762939</ele>
        <time>2021-07-30T07:45:39Z</time>
      </trkpt>
      <trkpt lat="47.09251" lon="-2.04149">
        <ele>31</ele>
        <time>2021-07-30T07:45:46Z</time>
      </trkpt>
      <trkpt lat="47.09227" lon="-2.04192">
        <ele>30.799999237061</ele>
        <time>2021-07-30T07:45:53Z</time>
      </trkpt>
      <trkpt lat="47.09202" lon="-2.0424">
        <ele>31</ele>
        <time>2021-07-30T07:46:01Z</time>
      </trkpt>
      <trkpt lat="47.09192" lon="-2.04256">
        <ele>31</ele>
        <time>2021-07-30T07:46:04Z</time>
      </trkpt>
      <trkpt lat="47.0912" lon="-2.04355">
        <ele>32.400001525879</ele>
        <time>2021-07-30T07:46:30Z</time>
      </trkpt>
      <trkpt lat="47.09008" lon="-2.0417">
        <ele>33.200000762939</ele>
        <time>2021-07-30T07:47:15Z</time>
      </trkpt>
      <trkpt lat="47.08961" lon="-2.0399">
        <ele>32.400001525879</ele>
        <time>2021-07-30T07:47:53Z</time>
      </trkpt>
      <trkpt lat="47.08995" lon="-2.03947">
        <ele>33.200000762939</ele>
        <time>2021-07-30T07:48:05Z</time>
      </trkpt>
      <trkpt lat="47.08988" lon="-2.03818">
        <ele>34.799999237061</ele>
        <time>2021-07-30T07:48:28Z</time>
      </trkpt>
      <trkpt lat="47.08956" lon="-2.03708">
        <ele>35</ele>
        <time>2021-07-30T07:48:45Z</time>
      </trkpt>
      <trkpt lat="47.08847" lon="-2.03586">
        <ele>36</ele>
        <time>2021-07-30T07:49:11Z</time>
      </trkpt>
      <trkpt lat="47.08839" lon="-2.03578">
        <ele>36</ele>
        <time>2021-07-30T07:49:13Z</time>
      </trkpt>
      <trkpt lat="47.08826" lon="-2.03585">
        <ele>36</ele>
        <time>2021-07-30T07:49:19Z</time>
      </trkpt>
      <trkpt lat="47.08738" lon="-2.03765">
        <ele>32.799999237061</ele>
        <time>2021-07-30T07:49:51Z</time>
      </trkpt>
      <trkpt lat="47.08699" lon="-2.03824">
        <ele>31.39999961853</ele>
        <time>2021-07-30T07:50:00Z</time>
      </trkpt>
      <trkpt lat="47.08678" lon="-2.03846">
        <ele>31</ele>
        <time>2021-07-30T07:50:04Z</time>
      </trkpt>
      <trkpt lat="47.08658" lon="-2.03868">
        <ele>30.200000762939</ele>
        <time>2021-07-30T07:50:08Z</time>
      </trkpt>
      <trkpt lat="47.08639" lon="-2.03881">
        <ele>29.39999961853</ele>
        <time>2021-07-30T07:50:11Z</time>
      </trkpt>
      <trkpt lat="47.08583" lon="-2.03931">
        <ele>25.39999961853</ele>
        <time>2021-07-30T07:50:26Z</time>
      </trkpt>
      <trkpt lat="47.08578" lon="-2.03935">
        <ele>25.39999961853</ele>
        <time>2021-07-30T07:50:27Z</time>
      </trkpt>
      <trkpt lat="47.08523" lon="-2.03976">
        <ele>24</ele>
        <time>2021-07-30T07:50:37Z</time>
      </trkpt>
      <trkpt lat="47.08503" lon="-2.03982">
        <ele>22</ele>
        <time>2021-07-30T07:50:44Z</time>
      </trkpt>
      <trkpt lat="47.08475" lon="-2.03922">
        <ele>19.39999961853</ele>
        <time>2021-07-30T07:50:55Z</time>
      </trkpt>
      <trkpt lat="47.08422" lon="-2.03773">
        <ele>17.60000038147</ele>
        <time>2021-07-30T07:51:15Z</time>
      </trkpt>
      <trkpt lat="47.08408" lon="-2.03742">
        <ele>17.799999237061</ele>
        <time>2021-07-30T07:51:21Z</time>
      </trkpt>
      <trkpt lat="47.08387" lon="-2.03687">
        <ele>18.60000038147</ele>
        <time>2021-07-30T07:51:32Z</time>
      </trkpt>
      <trkpt lat="47.08375" lon="-2.03635">
        <ele>19.200000762939</ele>
        <time>2021-07-30T07:51:41Z</time>
      </trkpt>
      <trkpt lat="47.08318" lon="-2.03358">
        <ele>18.799999237061</ele>
        <time>2021-07-30T07:52:18Z</time>
      </trkpt>
      <trkpt lat="47.08322" lon="-2.03275">
        <ele>19.200000762939</ele>
        <time>2021-07-30T07:52:31Z</time>
      </trkpt>
      <trkpt lat="47.08349" lon="-2.03208">
        <ele>22.200000762939</ele>
        <time>2021-07-30T07:52:53Z</time>
      </trkpt>
      <trkpt lat="47.0834" lon="-2.03155">
        <ele>23.39999961853</ele>
        <time>2021-07-30T07:53:19Z</time>
      </trkpt>
      <trkpt lat="47.08386" lon="-2.03101">
        <ele>25</ele>
        <time>2021-07-30T07:53:41Z</time>
      </trkpt>
      <trkpt lat="47.08401" lon="-2.0293">
        <ele>25.200000762939</ele>
        <time>2021-07-30T07:54:11Z</time>
      </trkpt>
      <trkpt lat="47.08366" lon="-2.02727">
        <ele>23.39999961853</ele>
        <time>2021-07-30T07:54:34Z</time>
      </trkpt>
      <trkpt lat="47.0835" lon="-2.02641">
        <ele>25.39999961853</ele>
        <time>2021-07-30T07:54:53Z</time>
      </trkpt>
      <trkpt lat="47.08309" lon="-2.02516">
        <ele>26.60000038147</ele>
        <time>2021-07-30T07:55:17Z</time>
      </trkpt>
      <trkpt lat="47.08265" lon="-2.02432">
        <ele>25.60000038147</ele>
        <time>2021-07-30T07:55:31Z</time>
      </trkpt>
      <trkpt lat="47.08243" lon="-2.02369">
        <ele>24</ele>
        <time>2021-07-30T07:55:41Z</time>
      </trkpt>
      <trkpt lat="47.08224" lon="-2.02298">
        <ele>22.799999237061</ele>
        <time>2021-07-30T07:55:52Z</time>
      </trkpt>
      <trkpt lat="47.08217" lon="-2.02279">
        <ele>22.39999961853</ele>
        <time>2021-07-30T07:55:55Z</time>
      </trkpt>
      <trkpt lat="47.08147" lon="-2.02113">
        <ele>19.39999961853</ele>
        <time>2021-07-30T07:56:15Z</time>
      </trkpt>
      <trkpt lat="47.08123" lon="-2.02068">
        <ele>19.200000762939</ele>
        <time>2021-07-30T07:56:22Z</time>
      </trkpt>
      <trkpt lat="47.0804" lon="-2.01881">
        <ele>21</ele>
        <time>2021-07-30T07:57:00Z</time>
      </trkpt>
      <trkpt lat="47.08103" lon="-2.01824">
        <ele>21.39999961853</ele>
        <time>2021-07-30T07:57:23Z</time>
      </trkpt>
      <trkpt lat="47.08221" lon="-2.01692">
        <ele>22.200000762939</ele>
        <time>2021-07-30T07:57:57Z</time>
      </trkpt>
      <trkpt lat="47.08247" lon="-2.01654">
        <ele>23.799999237061</ele>
        <time>2021-07-30T07:58:11Z</time>
      </trkpt>
      <trkpt lat="47.08306" lon="-2.01527">
        <ele>26</ele>
        <time>2021-07-30T07:58:45Z</time>
      </trkpt>
      <trkpt lat="47.08338" lon="-2.0154">
        <ele>26.39999961853</ele>
        <time>2021-07-30T07:58:56Z</time>
      </trkpt>
      <trkpt lat="47.08437" lon="-2.01603">
        <ele>25.39999961853</ele>
        <time>2021-07-30T07:59:18Z</time>
      </trkpt>
      <trkpt lat="47.08475" lon="-2.01641">
        <ele>25</ele>
        <time>2021-07-30T07:59:26Z</time>
      </trkpt>
      <trkpt lat="47.08512" lon="-2.01678">
        <ele>24.799999237061</ele>
        <time>2021-07-30T07:59:34Z</time>
      </trkpt>
      <trkpt lat="47.08553" lon="-2.0171">
        <ele>24.799999237061</ele>
        <time>2021-07-30T07:59:43Z</time>
      </trkpt>
      <trkpt lat="47.08578" lon="-2.01703">
        <ele>25</ele>
        <time>2021-07-30T07:59:50Z</time>
      </trkpt>
      <trkpt lat="47.08548" lon="-2.01642">
        <ele>26</ele>
        <time>2021-07-30T08:00:04Z</time>
      </trkpt>
      <trkpt lat="47.08469" lon="-2.01544">
        <ele>27.200000762939</ele>
        <time>2021-07-30T08:00:28Z</time>
      </trkpt>
      <trkpt lat="47.08405" lon="-2.01448">
        <ele>27.799999237061</ele>
        <time>2021-07-30T08:00:46Z</time>
      </trkpt>
      <trkpt lat="47.08206" lon="-2.01146">
        <ele>28.799999237061</ele>
        <time>2021-07-30T08:01:41Z</time>
      </trkpt>
      <trkpt lat="47.08149" lon="-2.01018">
        <ele>28.60000038147</ele>
        <time>2021-07-30T08:02:02Z</time>
      </trkpt>
      <trkpt lat="47.08063" lon="-2.00891">
        <ele>29.39999961853</ele>
        <time>2021-07-30T08:02:24Z</time>
      </trkpt>
      <trkpt lat="47.08008" lon="-2.00754">
        <ele>30</ele>
        <time>2021-07-30T08:02:43Z</time>
      </trkpt>
      <trkpt lat="47.0788" lon="-2.00423">
        <ele>29.60000038147</ele>
        <time>2021-07-30T08:03:29Z</time>
      </trkpt>
      <trkpt lat="47.07862" lon="-2.00295">
        <ele>28.60000038147</ele>
        <time>2021-07-30T08:03:42Z</time>
      </trkpt>
      <trkpt lat="47.07851" lon="-2.00175">
        <ele>27.60000038147</ele>
        <time>2021-07-30T08:03:54Z</time>
      </trkpt>
      <trkpt lat="47.07848" lon="-2.00007">
        <ele>26.60000038147</ele>
        <time>2021-07-30T08:04:11Z</time>
      </trkpt>
      <trkpt lat="47.07844" lon="-1.99978">
        <ele>26.39999961853</ele>
        <time>2021-07-30T08:04:14Z</time>
      </trkpt>
      <trkpt lat="47.07832" lon="-1.99945">
        <ele>26.39999961853</ele>
        <time>2021-07-30T08:04:18Z</time>
      </trkpt>
      <trkpt lat="47.07766" lon="-1.99796">
        <ele>25.39999961853</ele>
        <time>2021-07-30T08:04:37Z</time>
      </trkpt>
      <trkpt lat="47.07709" lon="-1.99621">
        <ele>25.39999961853</ele>
        <time>2021-07-30T08:05:00Z</time>
      </trkpt>
      <trkpt lat="47.07605" lon="-1.99356">
        <ele>24.799999237061</ele>
        <time>2021-07-30T08:05:35Z</time>
      </trkpt>
      <trkpt lat="47.07546" lon="-1.99283">
        <ele>22.200000762939</ele>
        <time>2021-07-30T08:05:52Z</time>
      </trkpt>
      <trkpt lat="47.07515" lon="-1.99297">
        <ele>21.39999961853</ele>
        <time>2021-07-30T08:05:59Z</time>
      </trkpt>
      <trkpt lat="47.07473" lon="-1.99302">
        <ele>21.39999961853</ele>
        <time>2021-07-30T08:06:07Z</time>
      </trkpt>
      <trkpt lat="47.07332" lon="-1.99298">
        <ele>21.200000762939</ele>
        <time>2021-07-30T08:06:31Z</time>
      </trkpt>
      <trkpt lat="47.07292" lon="-1.99307">
        <ele>21.39999961853</ele>
        <time>2021-07-30T08:06:39Z</time>
      </trkpt>
      <trkpt lat="47.07228" lon="-1.99334">
        <ele>24.799999237061</ele>
        <time>2021-07-30T08:07:09Z</time>
      </trkpt>
      <trkpt lat="47.07198" lon="-1.99358">
        <ele>27</ele>
        <time>2021-07-30T08:07:26Z</time>
      </trkpt>
      <trkpt lat="47.06986" lon="-1.99525">
        <ele>23.60000038147</ele>
        <time>2021-07-30T08:08:13Z</time>
      </trkpt>
      <trkpt lat="47.06896" lon="-1.99585">
        <ele>21.60000038147</ele>
        <time>2021-07-30T08:08:31Z</time>
      </trkpt>
      <trkpt lat="47.067" lon="-1.99704">
        <ele>18</ele>
        <time>2021-07-30T08:09:05Z</time>
      </trkpt>
      <trkpt lat="47.06598" lon="-1.99762">
        <ele>14.60000038147</ele>
        <time>2021-07-30T08:09:20Z</time>
      </trkpt>
      <trkpt lat="47.06576" lon="-1.99779">
        <ele>11.60000038147</ele>
        <time>2021-07-30T08:09:25Z</time>
      </trkpt>
      <trkpt lat="47.06548" lon="-1.99791">
        <ele>8</ele>
        <time>2021-07-30T08:09:30Z</time>
      </trkpt>
      <trkpt lat="47.06501" lon="-1.9981">
        <ele>6.5999999046326</ele>
        <time>2021-07-30T08:09:37Z</time>
      </trkpt>
      <trkpt lat="47.06467" lon="-1.99814">
        <ele>5.5999999046326</ele>
        <time>2021-07-30T08:09:42Z</time>
      </trkpt>
      <trkpt lat="47.06427" lon="-1.99819">
        <ele>4.1999998092651</ele>
        <time>2021-07-30T08:09:49Z</time>
      </trkpt>
      <trkpt lat="47.06385" lon="-1.99828">
        <ele>2.5999999046326</ele>
        <time>2021-07-30T08:09:56Z</time>
      </trkpt>
      <trkpt lat="47.06369" lon="-1.99836">
        <ele>2.4000000953674</ele>
        <time>2021-07-30T08:09:58Z</time>
      </trkpt>
      <trkpt lat="47.06348" lon="-1.99909">
        <ele>2</ele>
        <time>2021-07-30T08:10:10Z</time>
      </trkpt>
      <trkpt lat="47.06338" lon="-1.99976">
        <ele>1.7999999523163</ele>
        <time>2021-07-30T08:10:19Z</time>
      </trkpt>
      <trkpt lat="47.06334" lon="-2.00088">
        <ele>1</ele>
        <time>2021-07-30T08:10:37Z</time>
      </trkpt>
      <trkpt lat="47.06251" lon="-2.0014">
        <ele>-1</ele>
        <time>2021-07-30T08:11:11Z</time>
      </trkpt>
      <trkpt lat="47.06232" lon="-2.00147">
        <ele>-1</ele>
        <time>2021-07-30T08:11:16Z</time>
      </trkpt>
      <trkpt lat="47.06129" lon="-2.00212">
        <ele>-2.4000000953674</ele>
        <time>2021-07-30T08:11:50Z</time>
      </trkpt>
      <trkpt lat="47.06067" lon="-2.00234">
        <ele>-2.7999999523163</ele>
        <time>2021-07-30T08:12:06Z</time>
      </trkpt>
      <trkpt lat="47.06039" lon="-2.00249">
        <ele>-2.4000000953674</ele>
        <time>2021-07-30T08:12:13Z</time>
      </trkpt>
      <trkpt lat="47.05973" lon="-2.00279">
        <ele>-1.7999999523163</ele>
        <time>2021-07-30T08:12:30Z</time>
      </trkpt>
      <trkpt lat="47.05975" lon="-2.00301">
        <ele>-1.3999999761581</ele>
        <time>2021-07-30T08:12:39Z</time>
      </trkpt>
      <trkpt lat="47.05979" lon="-2.00307">
        <ele>-1.3999999761581</ele>
        <time>2021-07-30T08:12:42Z</time>
      </trkpt>
      <trkpt lat="47.05999" lon="-2.00294">
        <ele>-3.2000000476837</ele>
        <time>2021-07-30T08:44:18Z</time>
      </trkpt>
      <trkpt lat="47.05998" lon="-2.00291">
        <ele>-3.2000000476837</ele>
        <time>2021-07-30T08:44:19Z</time>
      </trkpt>
      <trkpt lat="47.06024" lon="-2.0026">
        <ele>-4.4000000953674</ele>
        <time>2021-07-30T08:44:37Z</time>
      </trkpt>
      <trkpt lat="47.06046" lon="-2.00253">
        <ele>-4.8000001907349</ele>
        <time>2021-07-30T08:44:45Z</time>
      </trkpt>
      <trkpt lat="47.05985" lon="-2.00134">
        <ele>-5.5999999046326</ele>
        <time>2021-07-30T08:45:19Z</time>
      </trkpt>
      <trkpt lat="47.05953" lon="-2.00097">
        <ele>-5.8000001907349</ele>
        <time>2021-07-30T08:45:28Z</time>
      </trkpt>
      <trkpt lat="47.05835" lon="-1.99971">
        <ele>-5.4000000953674</ele>
        <time>2021-07-30T08:45:56Z</time>
      </trkpt>
      <trkpt lat="47.05714" lon="-1.99845">
        <ele>-5.5999999046326</ele>
        <time>2021-07-30T08:46:25Z</time>
      </trkpt>
      <trkpt lat="47.05591" lon="-1.99753">
        <ele>-5.1999998092651</ele>
        <time>2021-07-30T08:46:52Z</time>
      </trkpt>
      <trkpt lat="47.05504" lon="-1.99665">
        <ele>-5.5999999046326</ele>
        <time>2021-07-30T08:47:11Z</time>
      </trkpt>
      <trkpt lat="47.05387" lon="-1.99513">
        <ele>-5.5999999046326</ele>
        <time>2021-07-30T08:47:40Z</time>
      </trkpt>
      <trkpt lat="47.0537" lon="-1.99442">
        <ele>-6</ele>
        <time>2021-07-30T08:47:49Z</time>
      </trkpt>
      <trkpt lat="47.05323" lon="-1.99404">
        <ele>-6.1999998092651</ele>
        <time>2021-07-30T08:47:59Z</time>
      </trkpt>
      <trkpt lat="47.05317" lon="-1.99403">
        <ele>-6.1999998092651</ele>
        <time>2021-07-30T08:48:00Z</time>
      </trkpt>
      <trkpt lat="47.05245" lon="-1.99276">
        <ele>-7</ele>
        <time>2021-07-30T08:50:47Z</time>
      </trkpt>
      <trkpt lat="47.05226" lon="-1.99244">
        <ele>-7.1999998092651</ele>
        <time>2021-07-30T08:50:58Z</time>
      </trkpt>
      <trkpt lat="47.05081" lon="-1.99047">
        <ele>-6</ele>
        <time>2021-07-30T08:51:48Z</time>
      </trkpt>
      <trkpt lat="47.04963" lon="-1.99052">
        <ele>-6.5999999046326</ele>
        <time>2021-07-30T08:52:12Z</time>
      </trkpt>
      <trkpt lat="47.04928" lon="-1.99054">
        <ele>-6.5999999046326</ele>
        <time>2021-07-30T08:52:19Z</time>
      </trkpt>
      <trkpt lat="47.04867" lon="-1.9909">
        <ele>-6.5999999046326</ele>
        <time>2021-07-30T08:52:31Z</time>
      </trkpt>
      <trkpt lat="47.04858" lon="-1.99098">
        <ele>-6.5999999046326</ele>
        <time>2021-07-30T08:52:33Z</time>
      </trkpt>
      <trkpt lat="47.04536" lon="-1.99138">
        <ele>-4</ele>
        <time>2021-07-30T08:53:39Z</time>
      </trkpt>
      <trkpt lat="47.04452" lon="-1.99106">
        <ele>-3.5999999046326</ele>
        <time>2021-07-30T08:53:56Z</time>
      </trkpt>
      <trkpt lat="47.04373" lon="-1.99067">
        <ele>-3.2000000476837</ele>
        <time>2021-07-30T08:54:12Z</time>
      </trkpt>
      <trkpt lat="47.04328" lon="-1.99052">
        <ele>-3</ele>
        <time>2021-07-30T08:54:20Z</time>
      </trkpt>
      <trkpt lat="47.04265" lon="-1.99001">
        <ele>-4.5999999046326</ele>
        <time>2021-07-30T08:54:43Z</time>
      </trkpt>
      <trkpt lat="47.0424" lon="-1.98978">
        <ele>-4.4000000953674</ele>
        <time>2021-07-30T08:54:50Z</time>
      </trkpt>
      <trkpt lat="47.04113" lon="-1.98871">
        <ele>-3.7999999523163</ele>
        <time>2021-07-30T08:55:21Z</time>
      </trkpt>
      <trkpt lat="47.04106" lon="-1.98864">
        <ele>-3.7999999523163</ele>
        <time>2021-07-30T08:55:23Z</time>
      </trkpt>
      <trkpt lat="47.04082" lon="-1.98842">
        <ele>-4.1999998092651</ele>
        <time>2021-07-30T08:55:29Z</time>
      </trkpt>
      <trkpt lat="47.0403" lon="-1.98759">
        <ele>-5.8000001907349</ele>
        <time>2021-07-30T08:55:43Z</time>
      </trkpt>
      <trkpt lat="47.03995" lon="-1.987">
        <ele>-5.8000001907349</ele>
        <time>2021-07-30T08:55:52Z</time>
      </trkpt>
      <trkpt lat="47.03815" lon="-1.98512">
        <ele>-7.5999999046326</ele>
        <time>2021-07-30T08:56:31Z</time>
      </trkpt>
      <trkpt lat="47.03798" lon="-1.98513">
        <ele>-7.5999999046326</ele>
        <time>2021-07-30T08:56:34Z</time>
      </trkpt>
      <trkpt lat="47.03777" lon="-1.98518">
        <ele>-7.4000000953674</ele>
        <time>2021-07-30T08:56:38Z</time>
      </trkpt>
      <trkpt lat="47.03634" lon="-1.98537">
        <ele>-5.4000000953674</ele>
        <time>2021-07-30T08:57:13Z</time>
      </trkpt>
      <trkpt lat="47.03555" lon="-1.98468">
        <ele>-3.4000000953674</ele>
        <time>2021-07-30T08:57:33Z</time>
      </trkpt>
      <trkpt lat="47.03375" lon="-1.98308">
        <ele>-2.7999999523163</ele>
        <time>2021-07-30T08:58:15Z</time>
      </trkpt>
      <trkpt lat="47.03371" lon="-1.98304">
        <ele>-2.7999999523163</ele>
        <time>2021-07-30T08:58:16Z</time>
      </trkpt>
      <trkpt lat="47.03276" lon="-1.98203">
        <ele>-2.5999999046326</ele>
        <time>2021-07-30T08:58:36Z</time>
      </trkpt>
      <trkpt lat="47.03155" lon="-1.98088">
        <ele>-3.2000000476837</ele>
        <time>2021-07-30T08:58:58Z</time>
      </trkpt>
      <trkpt lat="47.03118" lon="-1.98027">
        <ele>-4.1999998092651</ele>
        <time>2021-07-30T08:59:06Z</time>
      </trkpt>
      <trkpt lat="47.03112" lon="-1.9802">
        <ele>-4.4000000953674</ele>
        <time>2021-07-30T08:59:07Z</time>
      </trkpt>
      <trkpt lat="47.02976" lon="-1.97898">
        <ele>-6.1999998092651</ele>
        <time>2021-07-30T08:59:34Z</time>
      </trkpt>
      <trkpt lat="47.02933" lon="-1.97823">
        <ele>-6</ele>
        <time>2021-07-30T08:59:47Z</time>
      </trkpt>
      <trkpt lat="47.02919" lon="-1.97772">
        <ele>-5.8000001907349</ele>
        <time>2021-07-30T08:59:55Z</time>
      </trkpt>
      <trkpt lat="47.02908" lon="-1.97593">
        <ele>-6</ele>
        <time>2021-07-30T09:00:19Z</time>
      </trkpt>
      <trkpt lat="47.02908" lon="-1.97586">
        <ele>-6</ele>
        <time>2021-07-30T09:00:20Z</time>
      </trkpt>
      <trkpt lat="47.02908" lon="-1.97457">
        <ele>-5.8000001907349</ele>
        <time>2021-07-30T09:00:39Z</time>
      </trkpt>
      <trkpt lat="47.02903" lon="-1.97355">
        <ele>-5.4000000953674</ele>
        <time>2021-07-30T09:00:52Z</time>
      </trkpt>
      <trkpt lat="47.02979" lon="-1.97226">
        <ele>-4.8000001907349</ele>
        <time>2021-07-30T09:01:14Z</time>
      </trkpt>
      <trkpt lat="47.03276" lon="-1.9715">
        <ele>-4.4000000953674</ele>
        <time>2021-07-30T09:02:11Z</time>
      </trkpt>
      <trkpt lat="47.03327" lon="-1.97144">
        <ele>-4.4000000953674</ele>
        <time>2021-07-30T09:02:21Z</time>
      </trkpt>
      <trkpt lat="47.03385" lon="-1.97135">
        <ele>-4.5999999046326</ele>
        <time>2021-07-30T09:02:32Z</time>
      </trkpt>
      <trkpt lat="47.03386" lon="-1.97056">
        <ele>-5.4000000953674</ele>
        <time>2021-07-30T09:03:07Z</time>
      </trkpt>
      <trkpt lat="47.03382" lon="-1.97058">
        <ele>-5.5999999046326</ele>
        <time>2021-07-30T09:03:08Z</time>
      </trkpt>
      <trkpt lat="47.03348" lon="-1.97072">
        <ele>-6</ele>
        <time>2021-07-30T09:03:16Z</time>
      </trkpt>
      <trkpt lat="47.03319" lon="-1.97076">
        <ele>-6.5999999046326</ele>
        <time>2021-07-30T09:03:22Z</time>
      </trkpt>
      <trkpt lat="47.03145" lon="-1.97115">
        <ele>-5.4000000953674</ele>
        <time>2021-07-30T09:03:57Z</time>
      </trkpt>
      <trkpt lat="47.0305" lon="-1.9711">
        <ele>-5.8000001907349</ele>
        <time>2021-07-30T09:04:14Z</time>
      </trkpt>
      <trkpt lat="47.0293" lon="-1.9707">
        <ele>-5</ele>
        <time>2021-07-30T09:04:36Z</time>
      </trkpt>
      <trkpt lat="47.02829" lon="-1.97103">
        <ele>-4.5999999046326</ele>
        <time>2021-07-30T09:04:58Z</time>
      </trkpt>
      <trkpt lat="47.02715" lon="-1.97383">
        <ele>-4.5999999046326</ele>
        <time>2021-07-30T09:05:42Z</time>
      </trkpt>
      <trkpt lat="47.02708" lon="-1.97523">
        <ele>-5.1999998092651</ele>
        <time>2021-07-30T09:05:59Z</time>
      </trkpt>
      <trkpt lat="47.02666" lon="-1.97573">
        <ele>-5.1999998092651</ele>
        <time>2021-07-30T09:06:10Z</time>
      </trkpt>
      <trkpt lat="47.0259" lon="-1.97577">
        <ele>-8.3999996185303</ele>
        <time>2021-07-30T09:06:23Z</time>
      </trkpt>
      <trkpt lat="47.02203" lon="-1.97605">
        <ele>-9</ele>
        <time>2021-07-30T09:07:33Z</time>
      </trkpt>
      <trkpt lat="47.02145" lon="-1.97659">
        <ele>-9.3999996185303</ele>
        <time>2021-07-30T09:07:46Z</time>
      </trkpt>
      <trkpt lat="47.01786" lon="-1.98342">
        <ele>-8.6000003814697</ele>
        <time>2021-07-30T09:09:39Z</time>
      </trkpt>
      <trkpt lat="47.01619" lon="-1.98661">
        <ele>-7.8000001907349</ele>
        <time>2021-07-30T09:10:31Z</time>
      </trkpt>
      <trkpt lat="47.01555" lon="-1.98698">
        <ele>-8</ele>
        <time>2021-07-30T09:10:44Z</time>
      </trkpt>
      <trkpt lat="47.01448" lon="-1.98695">
        <ele>-9.6000003814697</ele>
        <time>2021-07-30T09:11:04Z</time>
      </trkpt>
      <trkpt lat="47.01077" lon="-1.98708">
        <ele>-9</ele>
        <time>2021-07-30T09:12:13Z</time>
      </trkpt>
      <trkpt lat="47.01032" lon="-1.98729">
        <ele>-8.8000001907349</ele>
        <time>2021-07-30T09:12:22Z</time>
      </trkpt>
      <trkpt lat="47.00993" lon="-1.9876">
        <ele>-8.3999996185303</ele>
        <time>2021-07-30T09:12:31Z</time>
      </trkpt>
      <trkpt lat="47.0084" lon="-1.98698">
        <ele>-8</ele>
        <time>2021-07-30T09:13:01Z</time>
      </trkpt>
      <trkpt lat="47.00623" lon="-1.98789">
        <ele>-9.8000001907349</ele>
        <time>2021-07-30T09:13:41Z</time>
      </trkpt>
      <trkpt lat="47.00618" lon="-1.9879">
        <ele>-10</ele>
        <time>2021-07-30T09:13:42Z</time>
      </trkpt>
      <trkpt lat="47.00606" lon="-1.9879">
        <ele>-10</ele>
        <time>2021-07-30T09:13:44Z</time>
      </trkpt>
      <trkpt lat="47.0057" lon="-1.98789">
        <ele>-9.8000001907349</ele>
        <time>2021-07-30T09:13:50Z</time>
      </trkpt>
      <trkpt lat="47.00553" lon="-1.98792">
        <ele>-9.8000001907349</ele>
        <time>2021-07-30T09:13:53Z</time>
      </trkpt>
      <trkpt lat="47.00505" lon="-1.98827">
        <ele>-8.8000001907349</ele>
        <time>2021-07-30T09:14:03Z</time>
      </trkpt>
      <trkpt lat="47.00274" lon="-1.98955">
        <ele>-8.6000003814697</ele>
        <time>2021-07-30T09:14:50Z</time>
      </trkpt>
      <trkpt lat="47.00133" lon="-1.99071">
        <ele>-9</ele>
        <time>2021-07-30T09:15:20Z</time>
      </trkpt>
      <trkpt lat="47.00113" lon="-1.99126">
        <ele>-7.5999999046326</ele>
        <time>2021-07-30T09:15:29Z</time>
      </trkpt>
      <trkpt lat="47.00115" lon="-1.9917">
        <ele>-5.8000001907349</ele>
        <time>2021-07-30T09:15:35Z</time>
      </trkpt>
      <trkpt lat="47.00114" lon="-1.99178">
        <ele>-5.5999999046326</ele>
        <time>2021-07-30T09:15:36Z</time>
      </trkpt>
      <trkpt lat="47.0007" lon="-1.99251">
        <ele>-6.1999998092651</ele>
        <time>2021-07-30T09:15:49Z</time>
      </trkpt>
      <trkpt lat="46.99677" lon="-1.99738">
        <ele>-7.1999998092651</ele>
        <time>2021-07-30T09:17:28Z</time>
      </trkpt>
      <trkpt lat="46.99611" lon="-1.9978">
        <ele>-8</ele>
        <time>2021-07-30T09:17:41Z</time>
      </trkpt>
      <trkpt lat="46.99497" lon="-1.99809">
        <ele>-9.3999996185303</ele>
        <time>2021-07-30T09:18:03Z</time>
      </trkpt>
      <trkpt lat="46.99369" lon="-1.99812">
        <ele>-8.6000003814697</ele>
        <time>2021-07-30T09:18:26Z</time>
      </trkpt>
      <trkpt lat="46.993" lon="-1.99833">
        <ele>-9.1999998092651</ele>
        <time>2021-07-30T09:18:38Z</time>
      </trkpt>
      <trkpt lat="46.99273" lon="-1.99845">
        <ele>-9</ele>
        <time>2021-07-30T09:18:43Z</time>
      </trkpt>
      <trkpt lat="46.99218" lon="-1.99885">
        <ele>-8.3999996185303</ele>
        <time>2021-07-30T09:18:53Z</time>
      </trkpt>
      <trkpt lat="46.98924" lon="-2.00215">
        <ele>-9.1999998092651</ele>
        <time>2021-07-30T09:20:01Z</time>
      </trkpt>
      <trkpt lat="46.98858" lon="-2.00224">
        <ele>-9.3999996185303</ele>
        <time>2021-07-30T09:20:13Z</time>
      </trkpt>
      <trkpt lat="46.98805" lon="-2.00221">
        <ele>-9.6000003814697</ele>
        <time>2021-07-30T09:20:23Z</time>
      </trkpt>
      <trkpt lat="46.98751" lon="-2.00239">
        <ele>-9.8000001907349</ele>
        <time>2021-07-30T09:20:33Z</time>
      </trkpt>
      <trkpt lat="46.98645" lon="-2.00273">
        <ele>-9.1999998092651</ele>
        <time>2021-07-30T09:20:55Z</time>
      </trkpt>
      <trkpt lat="46.9849" lon="-2.00181">
        <ele>-8.8000001907349</ele>
        <time>2021-07-30T09:21:32Z</time>
      </trkpt>
      <trkpt lat="46.9847" lon="-2.00151">
        <ele>-8.8000001907349</ele>
        <time>2021-07-30T09:21:39Z</time>
      </trkpt>
      <trkpt lat="46.98409" lon="-2.00155">
        <ele>-9</ele>
        <time>2021-07-30T09:21:53Z</time>
      </trkpt>
      <trkpt lat="46.98305" lon="-2.00205">
        <ele>-8.6000003814697</ele>
        <time>2021-07-30T09:22:19Z</time>
      </trkpt>
      <trkpt lat="46.98209" lon="-2.00204">
        <ele>-7.8000001907349</ele>
        <time>2021-07-30T09:22:37Z</time>
      </trkpt>
      <trkpt lat="46.97925" lon="-2.00114">
        <ele>-8.3999996185303</ele>
        <time>2021-07-30T09:23:33Z</time>
      </trkpt>
      <trkpt lat="46.9784" lon="-2.00118">
        <ele>-7.8000001907349</ele>
        <time>2021-07-30T09:23:48Z</time>
      </trkpt>
      <trkpt lat="46.97546" lon="-2.00177">
        <ele>-8</ele>
        <time>2021-07-30T09:24:40Z</time>
      </trkpt>
      <trkpt lat="46.97518" lon="-2.00153">
        <ele>-8.1999998092651</ele>
        <time>2021-07-30T09:24:47Z</time>
      </trkpt>
      <trkpt lat="46.97456" lon="-1.99944">
        <ele>-6.4000000953674</ele>
        <time>2021-07-30T09:25:23Z</time>
      </trkpt>
      <trkpt lat="46.97477" lon="-1.9986">
        <ele>-6</ele>
        <time>2021-07-30T09:43:42Z</time>
      </trkpt>
      <trkpt lat="46.97454" lon="-1.99806">
        <ele>-6.1999998092651</ele>
        <time>2021-07-30T09:44:02Z</time>
      </trkpt>
      <trkpt lat="46.97428" lon="-1.99731">
        <ele>-7.5999999046326</ele>
        <time>2021-07-30T09:44:21Z</time>
      </trkpt>
      <trkpt lat="46.97404" lon="-1.99648">
        <ele>-8.6000003814697</ele>
        <time>2021-07-30T09:44:37Z</time>
      </trkpt>
      <trkpt lat="46.97357" lon="-1.99618">
        <ele>-9.1999998092651</ele>
        <time>2021-07-30T09:46:03Z</time>
      </trkpt>
      <trkpt lat="46.97354" lon="-1.99625">
        <ele>-9</ele>
        <time>2021-07-30T09:46:05Z</time>
      </trkpt>
      <trkpt lat="46.97341" lon="-1.99659">
        <ele>-9</ele>
        <time>2021-07-30T09:46:12Z</time>
      </trkpt>
      <trkpt lat="46.97318" lon="-1.99684">
        <ele>-8.8000001907349</ele>
        <time>2021-07-30T09:46:20Z</time>
      </trkpt>
      <trkpt lat="46.97296" lon="-1.99709">
        <ele>-8.8000001907349</ele>
        <time>2021-07-30T09:46:27Z</time>
      </trkpt>
      <trkpt lat="46.97271" lon="-1.99736">
        <ele>-8.3999996185303</ele>
        <time>2021-07-30T09:46:33Z</time>
      </trkpt>
      <trkpt lat="46.97218" lon="-1.99783">
        <ele>-8.6000003814697</ele>
        <time>2021-07-30T09:46:45Z</time>
      </trkpt>
      <trkpt lat="46.97203" lon="-1.99811">
        <ele>-8.8000001907349</ele>
        <time>2021-07-30T09:46:50Z</time>
      </trkpt>
      <trkpt lat="46.97144" lon="-1.99922">
        <ele>-7.8000001907349</ele>
        <time>2021-07-30T09:47:09Z</time>
      </trkpt>
      <trkpt lat="46.9711" lon="-1.99975">
        <ele>-7.5999999046326</ele>
        <time>2021-07-30T09:47:19Z</time>
      </trkpt>
      <trkpt lat="46.97099" lon="-1.99999">
        <ele>-7.5999999046326</ele>
        <time>2021-07-30T09:47:23Z</time>
      </trkpt>
      <trkpt lat="46.97087" lon="-2.00021">
        <ele>-7.4000000953674</ele>
        <time>2021-07-30T09:47:27Z</time>
      </trkpt>
      <trkpt lat="46.97006" lon="-2.00158">
        <ele>-6.8000001907349</ele>
        <time>2021-07-30T09:47:51Z</time>
      </trkpt>
      <trkpt lat="46.96999" lon="-2.00167">
        <ele>-7</ele>
        <time>2021-07-30T09:47:53Z</time>
      </trkpt>
      <trkpt lat="46.96946" lon="-2.00207">
        <ele>-7.4000000953674</ele>
        <time>2021-07-30T09:48:07Z</time>
      </trkpt>
      <trkpt lat="46.96911" lon="-2.00225">
        <ele>-7.1999998092651</ele>
        <time>2021-07-30T09:48:15Z</time>
      </trkpt>
      <trkpt lat="46.96874" lon="-2.00244">
        <ele>-7.1999998092651</ele>
        <time>2021-07-30T09:48:23Z</time>
      </trkpt>
      <trkpt lat="46.96841" lon="-2.00272">
        <ele>-7.1999998092651</ele>
        <time>2021-07-30T09:48:30Z</time>
      </trkpt>
      <trkpt lat="46.96572" lon="-2.00459">
        <ele>-7.4000000953674</ele>
        <time>2021-07-30T09:49:22Z</time>
      </trkpt>
      <trkpt lat="46.96478" lon="-2.0047">
        <ele>-8.1999998092651</ele>
        <time>2021-07-30T09:49:38Z</time>
      </trkpt>
      <trkpt lat="46.96419" lon="-2.0047">
        <ele>-8.6000003814697</ele>
        <time>2021-07-30T09:49:48Z</time>
      </trkpt>
      <trkpt lat="46.963" lon="-2.00544">
        <ele>-9</ele>
        <time>2021-07-30T09:50:13Z</time>
      </trkpt>
      <trkpt lat="46.96041" lon="-2.0076">
        <ele>-8.3999996185303</ele>
        <time>2021-07-30T09:51:08Z</time>
      </trkpt>
      <trkpt lat="46.9596" lon="-2.00856">
        <ele>-8.3999996185303</ele>
        <time>2021-07-30T09:51:28Z</time>
      </trkpt>
      <trkpt lat="46.95941" lon="-2.00883">
        <ele>-8</ele>
        <time>2021-07-30T09:51:33Z</time>
      </trkpt>
      <trkpt lat="46.95876" lon="-2.01054">
        <ele>-6.5999999046326</ele>
        <time>2021-07-30T09:52:01Z</time>
      </trkpt>
      <trkpt lat="46.95756" lon="-2.0142">
        <ele>-7.1999998092651</ele>
        <time>2021-07-30T09:53:01Z</time>
      </trkpt>
      <trkpt lat="46.95646" lon="-2.01507">
        <ele>-8</ele>
        <time>2021-07-30T09:53:26Z</time>
      </trkpt>
      <trkpt lat="46.95441" lon="-2.01592">
        <ele>-9</ele>
        <time>2021-07-30T09:54:05Z</time>
      </trkpt>
      <trkpt lat="46.95336" lon="-2.01716">
        <ele>-7.8000001907349</ele>
        <time>2021-07-30T09:54:29Z</time>
      </trkpt>
      <trkpt lat="46.9519" lon="-2.02018">
        <ele>-8.6000003814697</ele>
        <time>2021-07-30T09:55:17Z</time>
      </trkpt>
      <trkpt lat="46.95185" lon="-2.0203">
        <ele>-8.6000003814697</ele>
        <time>2021-07-30T09:55:19Z</time>
      </trkpt>
      <trkpt lat="46.95116" lon="-2.02177">
        <ele>-8.1999998092651</ele>
        <time>2021-07-30T09:55:42Z</time>
      </trkpt>
      <trkpt lat="46.95039" lon="-2.02268">
        <ele>-8</ele>
        <time>2021-07-30T09:56:00Z</time>
      </trkpt>
      <trkpt lat="46.94474" lon="-2.02707">
        <ele>-8.8000001907349</ele>
        <time>2021-07-30T09:57:58Z</time>
      </trkpt>
      <trkpt lat="46.94468" lon="-2.0272">
        <ele>-10</ele>
        <time>2021-07-30T10:00:51Z</time>
      </trkpt>
      <trkpt lat="46.94459" lon="-2.02729">
        <ele>-10.199999809265</ele>
        <time>2021-07-30T10:00:54Z</time>
      </trkpt>
      <trkpt lat="46.94063" lon="-2.03026">
        <ele>-9.3999996185303</ele>
        <time>2021-07-30T10:02:25Z</time>
      </trkpt>
      <trkpt lat="46.93677" lon="-2.03335">
        <ele>-11</ele>
        <time>2021-07-30T10:03:57Z</time>
      </trkpt>
      <trkpt lat="46.9327" lon="-2.03654">
        <ele>-11.800000190735</ele>
        <time>2021-07-30T10:05:29Z</time>
      </trkpt>
      <trkpt lat="46.93034" lon="-2.03842">
        <ele>-9.3999996185303</ele>
        <time>2021-07-30T10:06:18Z</time>
      </trkpt>
      <trkpt lat="46.9287" lon="-2.03965">
        <ele>-11</ele>
        <time>2021-07-30T10:06:51Z</time>
      </trkpt>
      <trkpt lat="46.9278" lon="-2.04033">
        <ele>-10.39999961853</ele>
        <time>2021-07-30T10:07:10Z</time>
      </trkpt>
      <trkpt lat="46.92761" lon="-2.04051">
        <ele>-10.199999809265</ele>
        <time>2021-07-30T10:07:14Z</time>
      </trkpt>
      <trkpt lat="46.92724" lon="-2.04083">
        <ele>-9.8000001907349</ele>
        <time>2021-07-30T10:07:22Z</time>
      </trkpt>
      <trkpt lat="46.9261" lon="-2.04081">
        <ele>-9</ele>
        <time>2021-07-30T10:07:43Z</time>
      </trkpt>
      <trkpt lat="46.92536" lon="-2.0406">
        <ele>-9.8000001907349</ele>
        <time>2021-07-30T10:07:55Z</time>
      </trkpt>
      <trkpt lat="46.92468" lon="-2.04063">
        <ele>-9.6000003814697</ele>
        <time>2021-07-30T10:08:06Z</time>
      </trkpt>
      <trkpt lat="46.92382" lon="-2.04114">
        <ele>-11.800000190735</ele>
        <time>2021-07-30T10:08:34Z</time>
      </trkpt>
      <trkpt lat="46.92222" lon="-2.04177">
        <ele>-10.60000038147</ele>
        <time>2021-07-30T10:13:38Z</time>
      </trkpt>
      <trkpt lat="46.91877" lon="-2.04405">
        <ele>-10</ele>
        <time>2021-07-30T10:15:29Z</time>
      </trkpt>
      <trkpt lat="46.91861" lon="-2.04433">
        <ele>-10</ele>
        <time>2021-07-30T10:15:37Z</time>
      </trkpt>
      <trkpt lat="46.91836" lon="-2.04461">
        <ele>-9.8000001907349</ele>
        <time>2021-07-30T10:15:44Z</time>
      </trkpt>
      <trkpt lat="46.91747" lon="-2.04562">
        <ele>-10.199999809265</ele>
        <time>2021-07-30T10:16:33Z</time>
      </trkpt>
      <trkpt lat="46.91733" lon="-2.04543">
        <ele>-10</ele>
        <time>2021-07-30T10:16:39Z</time>
      </trkpt>
      <trkpt lat="46.91596" lon="-2.04359">
        <ele>-7</ele>
        <time>2021-07-30T10:17:27Z</time>
      </trkpt>
      <trkpt lat="46.91538" lon="-2.04241">
        <ele>-6.8000001907349</ele>
        <time>2021-07-30T10:17:56Z</time>
      </trkpt>
      <trkpt lat="46.91385" lon="-2.04263">
        <ele>-6</ele>
        <time>2021-07-30T10:18:39Z</time>
      </trkpt>
      <trkpt lat="46.9137" lon="-2.04282">
        <ele>-5.8000001907349</ele>
        <time>2021-07-30T10:18:45Z</time>
      </trkpt>
      <trkpt lat="46.91368" lon="-2.04285">
        <ele>-5.8000001907349</ele>
        <time>2021-07-30T10:18:46Z</time>
      </trkpt>
      <trkpt lat="46.9134" lon="-2.04265">
        <ele>-5.8000001907349</ele>
        <time>2021-07-30T10:18:56Z</time>
      </trkpt>
      <trkpt lat="46.91307" lon="-2.04225">
        <ele>-5.4000000953674</ele>
        <time>2021-07-30T10:19:07Z</time>
      </trkpt>
      <trkpt lat="46.91276" lon="-2.04151">
        <ele>-5</ele>
        <time>2021-07-30T10:19:21Z</time>
      </trkpt>
      <trkpt lat="46.91232" lon="-2.04061">
        <ele>-6.1999998092651</ele>
        <time>2021-07-30T10:19:41Z</time>
      </trkpt>
      <trkpt lat="46.91209" lon="-2.0408">
        <ele>-6.8000001907349</ele>
        <time>2021-07-30T10:19:50Z</time>
      </trkpt>
      <trkpt lat="46.91156" lon="-2.04125">
        <ele>-5.4000000953674</ele>
        <time>2021-07-30T10:20:07Z</time>
      </trkpt>
      <trkpt lat="46.9109" lon="-2.04147">
        <ele>-5.4000000953674</ele>
        <time>2021-07-30T10:20:23Z</time>
      </trkpt>
      <trkpt lat="46.91016" lon="-2.04159">
        <ele>-4.5999999046326</ele>
        <time>2021-07-30T10:20:40Z</time>
      </trkpt>
      <trkpt lat="46.90835" lon="-2.04153">
        <ele>-1.7999999523163</ele>
        <time>2021-07-30T10:21:24Z</time>
      </trkpt>
      <trkpt lat="46.90553" lon="-2.04179">
        <ele>-2.5999999046326</ele>
        <time>2021-07-30T10:22:22Z</time>
      </trkpt>
      <trkpt lat="46.90522" lon="-2.04171">
        <ele>-4</ele>
        <time>2021-07-30T10:22:26Z</time>
      </trkpt>
      <trkpt lat="46.90514" lon="-2.04171">
        <ele>-4.1999998092651</ele>
        <time>2021-07-30T10:22:27Z</time>
      </trkpt>
      <trkpt lat="46.90474" lon="-2.04176">
        <ele>-6.4000000953674</ele>
        <time>2021-07-30T10:22:32Z</time>
      </trkpt>
      <trkpt lat="46.9045" lon="-2.04182">
        <ele>-8</ele>
        <time>2021-07-30T10:22:36Z</time>
      </trkpt>
      <trkpt lat="46.9044" lon="-2.04181">
        <ele>-8.3999996185303</ele>
        <time>2021-07-30T10:22:39Z</time>
      </trkpt>
      <trkpt lat="46.9043" lon="-2.04109">
        <ele>-11.199999809265</ele>
        <time>2021-07-30T10:22:53Z</time>
      </trkpt>
      <trkpt lat="46.90423" lon="-2.03972">
        <ele>-11.199999809265</ele>
        <time>2021-07-30T10:23:11Z</time>
      </trkpt>
      <trkpt lat="46.90383" lon="-2.03605">
        <ele>-11.39999961853</ele>
        <time>2021-07-30T10:23:58Z</time>
      </trkpt>
      <trkpt lat="46.90382" lon="-2.03587">
        <ele>-11.60000038147</ele>
        <time>2021-07-30T10:24:00Z</time>
      </trkpt>
      <trkpt lat="46.90364" lon="-2.03364">
        <ele>-11.39999961853</ele>
        <time>2021-07-30T10:24:28Z</time>
      </trkpt>
      <trkpt lat="46.90349" lon="-2.0334">
        <ele>-11.39999961853</ele>
        <time>2021-07-30T10:24:32Z</time>
      </trkpt>
      <trkpt lat="46.90272" lon="-2.03313">
        <ele>-11.800000190735</ele>
        <time>2021-07-30T10:24:51Z</time>
      </trkpt>
      <trkpt lat="46.90163" lon="-2.03311">
        <ele>-12.39999961853</ele>
        <time>2021-07-30T10:25:15Z</time>
      </trkpt>
      <trkpt lat="46.90055" lon="-2.03381">
        <ele>-12</ele>
        <time>2021-07-30T10:25:37Z</time>
      </trkpt>
      <trkpt lat="46.89985" lon="-2.03406">
        <ele>-11.800000190735</ele>
        <time>2021-07-30T10:25:50Z</time>
      </trkpt>
      <trkpt lat="46.8995" lon="-2.0343">
        <ele>-11.800000190735</ele>
        <time>2021-07-30T10:25:57Z</time>
      </trkpt>
      <trkpt lat="46.89758" lon="-2.03607">
        <ele>-12.199999809265</ele>
        <time>2021-07-30T10:26:42Z</time>
      </trkpt>
      <trkpt lat="46.89696" lon="-2.03634">
        <ele>-13</ele>
        <time>2021-07-30T10:26:55Z</time>
      </trkpt>
      <trkpt lat="46.8953" lon="-2.03684">
        <ele>-12.39999961853</ele>
        <time>2021-07-30T10:27:26Z</time>
      </trkpt>
      <trkpt lat="46.89488" lon="-2.0368">
        <ele>-12.39999961853</ele>
        <time>2021-07-30T10:27:34Z</time>
      </trkpt>
      <trkpt lat="46.89429" lon="-2.03661">
        <ele>-14.199999809265</ele>
        <time>2021-07-30T10:27:45Z</time>
      </trkpt>
      <trkpt lat="46.89287" lon="-2.03617">
        <ele>-11.60000038147</ele>
        <time>2021-07-30T10:28:12Z</time>
      </trkpt>
      <trkpt lat="46.89215" lon="-2.03597">
        <ele>-12.39999961853</ele>
        <time>2021-07-30T10:28:25Z</time>
      </trkpt>
      <trkpt lat="46.89142" lon="-2.03472">
        <ele>-11.39999961853</ele>
        <time>2021-07-30T10:28:46Z</time>
      </trkpt>
      <trkpt lat="46.89005" lon="-2.03187">
        <ele>-11.800000190735</ele>
        <time>2021-07-30T10:29:26Z</time>
      </trkpt>
      <trkpt lat="46.88975" lon="-2.0311">
        <ele>-11.60000038147</ele>
        <time>2021-07-30T10:29:36Z</time>
      </trkpt>
      <trkpt lat="46.88953" lon="-2.03036">
        <ele>-11.60000038147</ele>
        <time>2021-07-30T10:29:46Z</time>
      </trkpt>
      <trkpt lat="46.88963" lon="-2.02963">
        <ele>-11.60000038147</ele>
        <time>2021-07-30T10:29:55Z</time>
      </trkpt>
      <trkpt lat="46.8897" lon="-2.02939">
        <ele>-11.800000190735</ele>
        <time>2021-07-30T10:29:58Z</time>
      </trkpt>
      <trkpt lat="46.88977" lon="-2.02773">
        <ele>-11.39999961853</ele>
        <time>2021-07-30T10:30:19Z</time>
      </trkpt>
      <trkpt lat="46.88974" lon="-2.02691">
        <ele>-11.800000190735</ele>
        <time>2021-07-30T10:30:30Z</time>
      </trkpt>
      <trkpt lat="46.88978" lon="-2.02621">
        <ele>-11.39999961853</ele>
        <time>2021-07-30T10:30:38Z</time>
      </trkpt>
      <trkpt lat="46.89007" lon="-2.0244">
        <ele>-11.60000038147</ele>
        <time>2021-07-30T10:30:59Z</time>
      </trkpt>
      <trkpt lat="46.8893" lon="-2.02385">
        <ele>-11.800000190735</ele>
        <time>2021-07-30T10:31:15Z</time>
      </trkpt>
      <trkpt lat="46.88589" lon="-2.02361">
        <ele>-10.199999809265</ele>
        <time>2021-07-30T10:32:22Z</time>
      </trkpt>
      <trkpt lat="46.88516" lon="-2.02372">
        <ele>-10.39999961853</ele>
        <time>2021-07-30T10:32:35Z</time>
      </trkpt>
      <trkpt lat="46.88476" lon="-2.02387">
        <ele>-10.800000190735</ele>
        <time>2021-07-30T10:32:43Z</time>
      </trkpt>
      <trkpt lat="46.88256" lon="-2.02491">
        <ele>-10.60000038147</ele>
        <time>2021-07-30T10:33:26Z</time>
      </trkpt>
      <trkpt lat="46.88144" lon="-2.02548">
        <ele>-11.60000038147</ele>
        <time>2021-07-30T10:33:46Z</time>
      </trkpt>
      <trkpt lat="46.8805" lon="-2.02555">
        <ele>-12.199999809265</ele>
        <time>2021-07-30T10:34:03Z</time>
      </trkpt>
      <trkpt lat="46.8797" lon="-2.02325">
        <ele>-13.199999809265</ele>
        <time>2021-07-30T10:34:38Z</time>
      </trkpt>
      <trkpt lat="46.87951" lon="-2.02258">
        <ele>-13.199999809265</ele>
        <time>2021-07-30T10:34:47Z</time>
      </trkpt>
      <trkpt lat="46.87944" lon="-2.02196">
        <ele>-12.800000190735</ele>
        <time>2021-07-30T10:34:55Z</time>
      </trkpt>
      <trkpt lat="46.87927" lon="-2.0191">
        <ele>-13.39999961853</ele>
        <time>2021-07-30T10:35:32Z</time>
      </trkpt>
      <trkpt lat="46.87896" lon="-2.01915">
        <ele>-13.60000038147</ele>
        <time>2021-07-30T10:35:41Z</time>
      </trkpt>
      <trkpt lat="46.87856" lon="-2.01946">
        <ele>-13</ele>
        <time>2021-07-30T10:35:49Z</time>
      </trkpt>
      <trkpt lat="46.87824" lon="-2.01959">
        <ele>-12.60000038147</ele>
        <time>2021-07-30T10:35:55Z</time>
      </trkpt>
      <trkpt lat="46.87693" lon="-2.02008">
        <ele>-14.39999961853</ele>
        <time>2021-07-30T10:37:47Z</time>
      </trkpt>
      <trkpt lat="46.87692" lon="-2.02015">
        <ele>-14.39999961853</ele>
        <time>2021-07-30T10:37:49Z</time>
      </trkpt>
      <trkpt lat="46.87673" lon="-2.02106">
        <ele>-11.39999961853</ele>
        <time>2021-07-30T10:38:07Z</time>
      </trkpt>
      <trkpt lat="46.8765" lon="-2.02174">
        <ele>-11.39999961853</ele>
        <time>2021-07-30T10:38:20Z</time>
      </trkpt>
      <trkpt lat="46.87624" lon="-2.02303">
        <ele>-11.60000038147</ele>
        <time>2021-07-30T10:38:40Z</time>
      </trkpt>
      <trkpt lat="46.8759" lon="-2.02567">
        <ele>-11.60000038147</ele>
        <time>2021-07-30T10:39:18Z</time>
      </trkpt>
      <trkpt lat="46.87564" lon="-2.02623">
        <ele>-11.800000190735</ele>
        <time>2021-07-30T10:39:27Z</time>
      </trkpt>
      <trkpt lat="46.87528" lon="-2.02681">
        <ele>-13.199999809265</ele>
        <time>2021-07-30T10:39:37Z</time>
      </trkpt>
      <trkpt lat="46.8749" lon="-2.02746">
        <ele>-13</ele>
        <time>2021-07-30T10:39:49Z</time>
      </trkpt>
      <trkpt lat="46.87472" lon="-2.02844">
        <ele>-11.60000038147</ele>
        <time>2021-07-30T10:40:03Z</time>
      </trkpt>
      <trkpt lat="46.87452" lon="-2.02991">
        <ele>-11.60000038147</ele>
        <time>2021-07-30T10:40:20Z</time>
      </trkpt>
      <trkpt lat="46.87433" lon="-2.03072">
        <ele>-12</ele>
        <time>2021-07-30T10:40:30Z</time>
      </trkpt>
      <trkpt lat="46.87379" lon="-2.03262">
        <ele>-11.800000190735</ele>
        <time>2021-07-30T10:40:55Z</time>
      </trkpt>
      <trkpt lat="46.87319" lon="-2.03375">
        <ele>-12.199999809265</ele>
        <time>2021-07-30T10:41:14Z</time>
      </trkpt>
      <trkpt lat="46.87279" lon="-2.03428">
        <ele>-12.60000038147</ele>
        <time>2021-07-30T10:41:24Z</time>
      </trkpt>
      <trkpt lat="46.87252" lon="-2.03513">
        <ele>-12.39999961853</ele>
        <time>2021-07-30T10:41:37Z</time>
      </trkpt>
      <trkpt lat="46.87255" lon="-2.03574">
        <ele>-11.199999809265</ele>
        <time>2021-07-30T10:41:46Z</time>
      </trkpt>
      <trkpt lat="46.87255" lon="-2.03581">
        <ele>-11.199999809265</ele>
        <time>2021-07-30T10:41:47Z</time>
      </trkpt>
      <trkpt lat="46.87204" lon="-2.03683">
        <ele>-12</ele>
        <time>2021-07-30T10:42:06Z</time>
      </trkpt>
      <trkpt lat="46.87177" lon="-2.03707">
        <ele>-12.199999809265</ele>
        <time>2021-07-30T10:42:12Z</time>
      </trkpt>
      <trkpt lat="46.87151" lon="-2.03735">
        <ele>-12.199999809265</ele>
        <time>2021-07-30T10:42:18Z</time>
      </trkpt>
      <trkpt lat="46.87113" lon="-2.03825">
        <ele>-11.800000190735</ele>
        <time>2021-07-30T10:42:32Z</time>
      </trkpt>
      <trkpt lat="46.87084" lon="-2.0393">
        <ele>-11</ele>
        <time>2021-07-30T10:42:46Z</time>
      </trkpt>
      <trkpt lat="46.87077" lon="-2.03953">
        <ele>-11.199999809265</ele>
        <time>2021-07-30T10:42:49Z</time>
      </trkpt>
      <trkpt lat="46.87058" lon="-2.04017">
        <ele>-11.199999809265</ele>
        <time>2021-07-30T10:42:58Z</time>
      </trkpt>
      <trkpt lat="46.87046" lon="-2.04151">
        <ele>-11.39999961853</ele>
        <time>2021-07-30T10:43:15Z</time>
      </trkpt>
      <trkpt lat="46.87016" lon="-2.04436">
        <ele>-11.199999809265</ele>
        <time>2021-07-30T10:43:53Z</time>
      </trkpt>
      <trkpt lat="46.87001" lon="-2.04505">
        <ele>-11.199999809265</ele>
        <time>2021-07-30T10:44:02Z</time>
      </trkpt>
      <trkpt lat="46.86949" lon="-2.04651">
        <ele>-11.800000190735</ele>
        <time>2021-07-30T10:44:29Z</time>
      </trkpt>
      <trkpt lat="46.86939" lon="-2.04649">
        <ele>-12.199999809265</ele>
        <time>2021-07-30T10:47:06Z</time>
      </trkpt>
      <trkpt lat="46.86887" lon="-2.04765">
        <ele>-12.199999809265</ele>
        <time>2021-07-30T10:47:32Z</time>
      </trkpt>
      <trkpt lat="46.86872" lon="-2.04826">
        <ele>-12.199999809265</ele>
        <time>2021-07-30T10:47:43Z</time>
      </trkpt>
      <trkpt lat="46.86801" lon="-2.0512">
        <ele>-11.60000038147</ele>
        <time>2021-07-30T10:48:33Z</time>
      </trkpt>
      <trkpt lat="46.86767" lon="-2.05382">
        <ele>-12</ele>
        <time>2021-07-30T10:49:18Z</time>
      </trkpt>
      <trkpt lat="46.8674" lon="-2.05424">
        <ele>-13.60000038147</ele>
        <time>2021-07-30T10:49:28Z</time>
      </trkpt>
      <trkpt lat="46.86725" lon="-2.05451">
        <ele>-13.60000038147</ele>
        <time>2021-07-30T10:49:34Z</time>
      </trkpt>
      <trkpt lat="46.8671" lon="-2.05562">
        <ele>-12.39999961853</ele>
        <time>2021-07-30T10:49:53Z</time>
      </trkpt>
      <trkpt lat="46.86709" lon="-2.05641">
        <ele>-12.39999961853</ele>
        <time>2021-07-30T10:50:05Z</time>
      </trkpt>
      <trkpt lat="46.86694" lon="-2.05725">
        <ele>-12.39999961853</ele>
        <time>2021-07-30T10:50:18Z</time>
      </trkpt>
      <trkpt lat="46.86624" lon="-2.05868">
        <ele>-12.800000190735</ele>
        <time>2021-07-30T10:50:43Z</time>
      </trkpt>
      <trkpt lat="46.86589" lon="-2.0591">
        <ele>-13.39999961853</ele>
        <time>2021-07-30T10:50:53Z</time>
      </trkpt>
      <trkpt lat="46.86545" lon="-2.05962">
        <ele>-13.800000190735</ele>
        <time>2021-07-30T10:51:05Z</time>
      </trkpt>
      <trkpt lat="46.8647" lon="-2.06117">
        <ele>-12.800000190735</ele>
        <time>2021-07-30T10:51:38Z</time>
      </trkpt>
      <trkpt lat="46.86399" lon="-2.06496">
        <ele>-11.800000190735</ele>
        <time>2021-07-30T10:52:37Z</time>
      </trkpt>
      <trkpt lat="46.86359" lon="-2.06602">
        <ele>-12.199999809265</ele>
        <time>2021-07-30T10:52:55Z</time>
      </trkpt>
      <trkpt lat="46.86317" lon="-2.06708">
        <ele>-12.800000190735</ele>
        <time>2021-07-30T10:53:13Z</time>
      </trkpt>
      <trkpt lat="46.86314" lon="-2.06727">
        <ele>-12.39999961853</ele>
        <time>2021-07-30T10:53:16Z</time>
      </trkpt>
      <trkpt lat="46.86312" lon="-2.06753">
        <ele>-12.199999809265</ele>
        <time>2021-07-30T10:53:20Z</time>
      </trkpt>
      <trkpt lat="46.8631" lon="-2.06832">
        <ele>-12</ele>
        <time>2021-07-30T10:53:32Z</time>
      </trkpt>
      <trkpt lat="46.86227" lon="-2.07043">
        <ele>-12.800000190735</ele>
        <time>2021-07-30T10:54:08Z</time>
      </trkpt>
      <trkpt lat="46.86153" lon="-2.07317">
        <ele>-12.39999961853</ele>
        <time>2021-07-30T10:54:46Z</time>
      </trkpt>
      <trkpt lat="46.86132" lon="-2.07454">
        <ele>-11</ele>
        <time>2021-07-30T10:55:05Z</time>
      </trkpt>
      <trkpt lat="46.86186" lon="-2.07607">
        <ele>-13</ele>
        <time>2021-07-30T10:55:31Z</time>
      </trkpt>
      <trkpt lat="46.86189" lon="-2.07613">
        <ele>-13</ele>
        <time>2021-07-30T10:55:32Z</time>
      </trkpt>
      <trkpt lat="46.86272" lon="-2.07813">
        <ele>-13.60000038147</ele>
        <time>2021-07-30T10:56:22Z</time>
      </trkpt>
      <trkpt lat="46.86252" lon="-2.07786">
        <ele>-14.800000190735</ele>
        <time>2021-07-30T11:00:08Z</time>
      </trkpt>
      <trkpt lat="46.86211" lon="-2.07852">
        <ele>-13.39999961853</ele>
        <time>2021-07-30T11:00:24Z</time>
      </trkpt>
      <trkpt lat="46.86195" lon="-2.07874">
        <ele>-13.199999809265</ele>
        <time>2021-07-30T11:00:29Z</time>
      </trkpt>
      <trkpt lat="46.86157" lon="-2.07912">
        <ele>-13.60000038147</ele>
        <time>2021-07-30T11:00:39Z</time>
      </trkpt>
      <trkpt lat="46.86117" lon="-2.07933">
        <ele>-14.800000190735</ele>
        <time>2021-07-30T11:00:48Z</time>
      </trkpt>
      <trkpt lat="46.86051" lon="-2.08028">
        <ele>-12.39999961853</ele>
        <time>2021-07-30T11:01:07Z</time>
      </trkpt>
      <trkpt lat="46.86032" lon="-2.08052">
        <ele>-12.199999809265</ele>
        <time>2021-07-30T11:01:12Z</time>
      </trkpt>
      <trkpt lat="46.86029" lon="-2.08058">
        <ele>-12.39999961853</ele>
        <time>2021-07-30T11:01:13Z</time>
      </trkpt>
      <trkpt lat="46.85981" lon="-2.08146">
        <ele>-12.39999961853</ele>
        <time>2021-07-30T11:01:27Z</time>
      </trkpt>
      <trkpt lat="46.85973" lon="-2.08158">
        <ele>-12.39999961853</ele>
        <time>2021-07-30T11:01:29Z</time>
      </trkpt>
      <trkpt lat="46.85864" lon="-2.08302">
        <ele>-13.800000190735</ele>
        <time>2021-07-30T11:01:58Z</time>
      </trkpt>
      <trkpt lat="46.858" lon="-2.08364">
        <ele>-14</ele>
        <time>2021-07-30T11:02:15Z</time>
      </trkpt>
      <trkpt lat="46.85796" lon="-2.08368">
        <ele>-13.800000190735</ele>
        <time>2021-07-30T11:02:16Z</time>
      </trkpt>
      <trkpt lat="46.85764" lon="-2.08432">
        <ele>-13.60000038147</ele>
        <time>2021-07-30T11:02:28Z</time>
      </trkpt>
      <trkpt lat="46.8575" lon="-2.08475">
        <ele>-13</ele>
        <time>2021-07-30T11:02:35Z</time>
      </trkpt>
      <trkpt lat="46.85686" lon="-2.08554">
        <ele>-14.60000038147</ele>
        <time>2021-07-30T11:04:03Z</time>
      </trkpt>
      <trkpt lat="46.8567" lon="-2.08579">
        <ele>-14.60000038147</ele>
        <time>2021-07-30T11:04:10Z</time>
      </trkpt>
      <trkpt lat="46.85644" lon="-2.08597">
        <ele>-14.199999809265</ele>
        <time>2021-07-30T11:04:16Z</time>
      </trkpt>
      <trkpt lat="46.85598" lon="-2.08622">
        <ele>-13.800000190735</ele>
        <time>2021-07-30T11:04:26Z</time>
      </trkpt>
      <trkpt lat="46.85544" lon="-2.08632">
        <ele>-13.60000038147</ele>
        <time>2021-07-30T11:04:37Z</time>
      </trkpt>
      <trkpt lat="46.85521" lon="-2.08642">
        <ele>-13.800000190735</ele>
        <time>2021-07-30T11:04:42Z</time>
      </trkpt>
      <trkpt lat="46.85498" lon="-2.08674">
        <ele>-14</ele>
        <time>2021-07-30T11:04:49Z</time>
      </trkpt>
      <trkpt lat="46.85453" lon="-2.08762">
        <ele>-14.199999809265</ele>
        <time>2021-07-30T11:05:05Z</time>
      </trkpt>
      <trkpt lat="46.85434" lon="-2.08785">
        <ele>-14.800000190735</ele>
        <time>2021-07-30T11:05:10Z</time>
      </trkpt>
      <trkpt lat="46.85408" lon="-2.08805">
        <ele>-15.39999961853</ele>
        <time>2021-07-30T11:05:16Z</time>
      </trkpt>
      <trkpt lat="46.85391" lon="-2.08818">
        <ele>-15.39999961853</ele>
        <time>2021-07-30T11:05:20Z</time>
      </trkpt>
      <trkpt lat="46.85361" lon="-2.08863">
        <ele>-15.199999809265</ele>
        <time>2021-07-30T11:05:29Z</time>
      </trkpt>
      <trkpt lat="46.85345" lon="-2.08897">
        <ele>-13.800000190735</ele>
        <time>2021-07-30T11:05:35Z</time>
      </trkpt>
      <trkpt lat="46.85317" lon="-2.0894">
        <ele>-13</ele>
        <time>2021-07-30T11:05:44Z</time>
      </trkpt>
      <trkpt lat="46.85264" lon="-2.08981">
        <ele>-13.60000038147</ele>
        <time>2021-07-30T11:05:56Z</time>
      </trkpt>
      <trkpt lat="46.85255" lon="-2.08986">
        <ele>-13.800000190735</ele>
        <time>2021-07-30T11:05:58Z</time>
      </trkpt>
      <trkpt lat="46.85212" lon="-2.08999">
        <ele>-14.39999961853</ele>
        <time>2021-07-30T11:06:06Z</time>
      </trkpt>
      <trkpt lat="46.85161" lon="-2.09085">
        <ele>-13.800000190735</ele>
        <time>2021-07-30T11:06:22Z</time>
      </trkpt>
      <trkpt lat="46.8515" lon="-2.09125">
        <ele>-13</ele>
        <time>2021-07-30T11:06:28Z</time>
      </trkpt>
      <trkpt lat="46.85131" lon="-2.09157">
        <ele>-13.199999809265</ele>
        <time>2021-07-30T11:06:34Z</time>
      </trkpt>
      <trkpt lat="46.85092" lon="-2.09194">
        <ele>-13.800000190735</ele>
        <time>2021-07-30T11:06:44Z</time>
      </trkpt>
      <trkpt lat="46.85045" lon="-2.09217">
        <ele>-14.800000190735</ele>
        <time>2021-07-30T11:06:55Z</time>
      </trkpt>
      <trkpt lat="46.85035" lon="-2.09218">
        <ele>-15</ele>
        <time>2021-07-30T11:06:57Z</time>
      </trkpt>
      <trkpt lat="46.85021" lon="-2.09219">
        <ele>-15.199999809265</ele>
        <time>2021-07-30T11:07:00Z</time>
      </trkpt>
      <trkpt lat="46.84943" lon="-2.09205">
        <ele>-16</ele>
        <time>2021-07-30T11:07:14Z</time>
      </trkpt>
      <trkpt lat="46.8492" lon="-2.09198">
        <ele>-16</ele>
        <time>2021-07-30T11:07:18Z</time>
      </trkpt>
      <trkpt lat="46.8488" lon="-2.09206">
        <ele>-15.39999961853</ele>
        <time>2021-07-30T11:07:25Z</time>
      </trkpt>
      <trkpt lat="46.84813" lon="-2.09245">
        <ele>-14.60000038147</ele>
        <time>2021-07-30T11:07:39Z</time>
      </trkpt>
      <trkpt lat="46.84753" lon="-2.09354">
        <ele>-14</ele>
        <time>2021-07-30T11:07:57Z</time>
      </trkpt>
      <trkpt lat="46.84748" lon="-2.09368">
        <ele>-14</ele>
        <time>2021-07-30T11:07:59Z</time>
      </trkpt>
      <trkpt lat="46.84741" lon="-2.0938">
        <ele>-14</ele>
        <time>2021-07-30T11:08:01Z</time>
      </trkpt>
      <trkpt lat="46.84695" lon="-2.09449">
        <ele>-13.800000190735</ele>
        <time>2021-07-30T11:08:14Z</time>
      </trkpt>
      <trkpt lat="46.84655" lon="-2.09505">
        <ele>-13.800000190735</ele>
        <time>2021-07-30T11:08:25Z</time>
      </trkpt>
      <trkpt lat="46.84592" lon="-2.0954">
        <ele>-13.800000190735</ele>
        <time>2021-07-30T11:08:39Z</time>
      </trkpt>
      <trkpt lat="46.84301" lon="-2.09603">
        <ele>-14.60000038147</ele>
        <time>2021-07-30T11:09:35Z</time>
      </trkpt>
      <trkpt lat="46.84045" lon="-2.09745">
        <ele>-13.60000038147</ele>
        <time>2021-07-30T11:10:26Z</time>
      </trkpt>
      <trkpt lat="46.83994" lon="-2.09773">
        <ele>-14</ele>
        <time>2021-07-30T11:10:36Z</time>
      </trkpt>
      <trkpt lat="46.8382" lon="-2.09887">
        <ele>-13.800000190735</ele>
        <time>2021-07-30T11:11:11Z</time>
      </trkpt>
      <trkpt lat="46.83767" lon="-2.09927">
        <ele>-13.800000190735</ele>
        <time>2021-07-30T11:11:26Z</time>
      </trkpt>
      <trkpt lat="46.83757" lon="-2.09973">
        <ele>-15.199999809265</ele>
        <time>2021-07-30T11:13:19Z</time>
      </trkpt>
      <trkpt lat="46.83782" lon="-2.10201">
        <ele>-14</ele>
        <time>2021-07-30T11:14:04Z</time>
      </trkpt>
      <trkpt lat="46.83768" lon="-2.10115">
        <ele>-15.60000038147</ele>
        <time>2021-07-30T11:14:20Z</time>
      </trkpt>
      <trkpt lat="46.83751" lon="-2.09975">
        <ele>-15.800000190735</ele>
        <time>2021-07-30T11:14:40Z</time>
      </trkpt>
      <trkpt lat="46.83674" lon="-2.09863">
        <ele>-15.39999961853</ele>
        <time>2021-07-30T11:15:15Z</time>
      </trkpt>
      <trkpt lat="46.83671" lon="-2.09854">
        <ele>-15.199999809265</ele>
        <time>2021-07-30T11:15:18Z</time>
      </trkpt>
      <trkpt lat="46.83673" lon="-2.09853">
        <ele>-15.199999809265</ele>
        <time>2021-07-30T11:15:21Z</time>
      </trkpt>
      <trkpt lat="46.83675" lon="-2.09858">
        <ele>-15.199999809265</ele>
        <time>2021-07-30T11:15:23Z</time>
      </trkpt>
      <trkpt lat="46.837" lon="-2.09931">
        <ele>-14.39999961853</ele>
        <time>2021-07-30T11:15:37Z</time>
      </trkpt>
      <trkpt lat="46.83617" lon="-2.10061">
        <ele>-14.60000038147</ele>
        <time>2021-07-30T11:16:05Z</time>
      </trkpt>
      <trkpt lat="46.8342" lon="-2.1024">
        <ele>-15.60000038147</ele>
        <time>2021-07-30T11:16:54Z</time>
      </trkpt>
      <trkpt lat="46.83402" lon="-2.10253">
        <ele>-15.60000038147</ele>
        <time>2021-07-30T11:16:58Z</time>
      </trkpt>
      <trkpt lat="46.83303" lon="-2.1032">
        <ele>-15.199999809265</ele>
        <time>2021-07-30T11:17:19Z</time>
      </trkpt>
      <trkpt lat="46.83294" lon="-2.10329">
        <ele>-15</ele>
        <time>2021-07-30T11:17:21Z</time>
      </trkpt>
      <trkpt lat="46.83256" lon="-2.1036">
        <ele>-15.199999809265</ele>
        <time>2021-07-30T11:17:29Z</time>
      </trkpt>
      <trkpt lat="46.83104" lon="-2.10494">
        <ele>-16.200000762939</ele>
        <time>2021-07-30T11:18:02Z</time>
      </trkpt>
      <trkpt lat="46.83056" lon="-2.10512">
        <ele>-16.60000038147</ele>
        <time>2021-07-30T11:18:11Z</time>
      </trkpt>
      <trkpt lat="46.83045" lon="-2.10515">
        <ele>-16.60000038147</ele>
        <time>2021-07-30T11:18:13Z</time>
      </trkpt>
      <trkpt lat="46.82801" lon="-2.10625">
        <ele>-15</ele>
        <time>2021-07-30T11:19:01Z</time>
      </trkpt>
      <trkpt lat="46.82711" lon="-2.10724">
        <ele>-14.800000190735</ele>
        <time>2021-07-30T11:19:21Z</time>
      </trkpt>
      <trkpt lat="46.8268" lon="-2.10758">
        <ele>-15.39999961853</ele>
        <time>2021-07-30T11:19:28Z</time>
      </trkpt>
      <trkpt lat="46.82652" lon="-2.10767">
        <ele>-15.800000190735</ele>
        <time>2021-07-30T11:19:33Z</time>
      </trkpt>
      <trkpt lat="46.82637" lon="-2.10767">
        <ele>-15.800000190735</ele>
        <time>2021-07-30T11:19:36Z</time>
      </trkpt>
      <trkpt lat="46.82513" lon="-2.1084">
        <ele>-14.800000190735</ele>
        <time>2021-07-30T11:20:03Z</time>
      </trkpt>
      <trkpt lat="46.82491" lon="-2.10835">
        <ele>-14.800000190735</ele>
        <time>2021-07-30T11:20:07Z</time>
      </trkpt>
      <trkpt lat="46.82381" lon="-2.10889">
        <ele>-15</ele>
        <time>2021-07-30T11:20:28Z</time>
      </trkpt>
      <trkpt lat="46.82283" lon="-2.10929">
        <ele>-15.60000038147</ele>
        <time>2021-07-30T11:20:46Z</time>
      </trkpt>
      <trkpt lat="46.82109" lon="-2.11056">
        <ele>-17.200000762939</ele>
        <time>2021-07-30T11:21:22Z</time>
      </trkpt>
      <trkpt lat="46.82098" lon="-2.11074">
        <ele>-17.39999961853</ele>
        <time>2021-07-30T11:21:25Z</time>
      </trkpt>
      <trkpt lat="46.82057" lon="-2.11099">
        <ele>-16.799999237061</ele>
        <time>2021-07-30T11:21:35Z</time>
      </trkpt>
      <trkpt lat="46.82021" lon="-2.11111">
        <ele>-16.39999961853</ele>
        <time>2021-07-30T11:21:43Z</time>
      </trkpt>
      <trkpt lat="46.81955" lon="-2.11151">
        <ele>-16.60000038147</ele>
        <time>2021-07-30T11:21:57Z</time>
      </trkpt>
      <trkpt lat="46.8184" lon="-2.11266">
        <ele>-16</ele>
        <time>2021-07-30T11:22:23Z</time>
      </trkpt>
      <trkpt lat="46.81806" lon="-2.11278">
        <ele>-16</ele>
        <time>2021-07-30T11:22:30Z</time>
      </trkpt>
      <trkpt lat="46.81713" lon="-2.112">
        <ele>-17.60000038147</ele>
        <time>2021-07-30T11:22:50Z</time>
      </trkpt>
      <trkpt lat="46.81702" lon="-2.11196">
        <ele>-17.799999237061</ele>
        <time>2021-07-30T11:22:52Z</time>
      </trkpt>
      <trkpt lat="46.81642" lon="-2.11208">
        <ele>-17.799999237061</ele>
        <time>2021-07-30T11:23:03Z</time>
      </trkpt>
      <trkpt lat="46.81523" lon="-2.11274">
        <ele>-15.800000190735</ele>
        <time>2021-07-30T11:23:26Z</time>
      </trkpt>
      <trkpt lat="46.81517" lon="-2.11278">
        <ele>-15.800000190735</ele>
        <time>2021-07-30T11:23:27Z</time>
      </trkpt>
      <trkpt lat="46.81435" lon="-2.11355">
        <ele>-16</ele>
        <time>2021-07-30T11:23:45Z</time>
      </trkpt>
      <trkpt lat="46.81395" lon="-2.11377">
        <ele>-16.200000762939</ele>
        <time>2021-07-30T11:23:53Z</time>
      </trkpt>
      <trkpt lat="46.8139" lon="-2.1138">
        <ele>-16.200000762939</ele>
        <time>2021-07-30T11:23:54Z</time>
      </trkpt>
      <trkpt lat="46.81292" lon="-2.1148">
        <ele>-15.800000190735</ele>
        <time>2021-07-30T11:24:17Z</time>
      </trkpt>
      <trkpt lat="46.81285" lon="-2.11492">
        <ele>-15.800000190735</ele>
        <time>2021-07-30T11:24:19Z</time>
      </trkpt>
      <trkpt lat="46.81209" lon="-2.11612">
        <ele>-16.200000762939</ele>
        <time>2021-07-30T11:24:44Z</time>
      </trkpt>
      <trkpt lat="46.81186" lon="-2.11642">
        <ele>-17</ele>
        <time>2021-07-30T11:24:53Z</time>
      </trkpt>
      <trkpt lat="46.81152" lon="-2.11674">
        <ele>-16.60000038147</ele>
        <time>2021-07-30T11:25:15Z</time>
      </trkpt>
      <trkpt lat="46.81085" lon="-2.11759">
        <ele>-14</ele>
        <time>2021-07-30T11:25:51Z</time>
      </trkpt>
      <trkpt lat="46.81077" lon="-2.11774">
        <ele>-13.39999961853</ele>
        <time>2021-07-30T11:25:58Z</time>
      </trkpt>
      <trkpt lat="46.81059" lon="-2.11804">
        <ele>-12.39999961853</ele>
        <time>2021-07-30T11:39:30Z</time>
      </trkpt>
      <trkpt lat="46.81062" lon="-2.11815">
        <ele>-12</ele>
        <time>2021-07-30T11:39:34Z</time>
      </trkpt>
      <trkpt lat="46.81071" lon="-2.11829">
        <ele>-11.60000038147</ele>
        <time>2021-07-30T11:39:41Z</time>
      </trkpt>
      <trkpt lat="46.81056" lon="-2.11913">
        <ele>-10.800000190735</ele>
        <time>2021-07-30T11:40:03Z</time>
      </trkpt>
      <trkpt lat="46.8104" lon="-2.11961">
        <ele>-11</ele>
        <time>2021-07-30T11:40:15Z</time>
      </trkpt>
      <trkpt lat="46.81023" lon="-2.11983">
        <ele>-11.800000190735</ele>
        <time>2021-07-30T11:40:20Z</time>
      </trkpt>
      <trkpt lat="46.80999" lon="-2.1202">
        <ele>-12.199999809265</ele>
        <time>2021-07-30T11:40:27Z</time>
      </trkpt>
      <trkpt lat="46.80991" lon="-2.1203">
        <ele>-12.199999809265</ele>
        <time>2021-07-30T11:40:29Z</time>
      </trkpt>
      <trkpt lat="46.80947" lon="-2.12085">
        <ele>-13.800000190735</ele>
        <time>2021-07-30T11:40:40Z</time>
      </trkpt>
      <trkpt lat="46.80928" lon="-2.12102">
        <ele>-14</ele>
        <time>2021-07-30T11:40:45Z</time>
      </trkpt>
      <trkpt lat="46.80907" lon="-2.12113">
        <ele>-14</ele>
        <time>2021-07-30T11:40:50Z</time>
      </trkpt>
      <trkpt lat="46.80865" lon="-2.12133">
        <ele>-14</ele>
        <time>2021-07-30T11:41:01Z</time>
      </trkpt>
      <trkpt lat="46.8108" lon="-2.11797">
        <ele>-14</ele>
        <time>2021-07-30T12:55:47Z</time>
      </trkpt>
      <trkpt lat="46.81102" lon="-2.11751">
        <ele>-15</ele>
        <time>2021-07-30T12:55:58Z</time>
      </trkpt>
      <trkpt lat="46.81124" lon="-2.11714">
        <ele>-15.39999961853</ele>
        <time>2021-07-30T12:56:07Z</time>
      </trkpt>
      <trkpt lat="46.81156" lon="-2.1167">
        <ele>-16</ele>
        <time>2021-07-30T12:56:16Z</time>
      </trkpt>
      <trkpt lat="46.81162" lon="-2.11659">
        <ele>-16.200000762939</ele>
        <time>2021-07-30T12:56:18Z</time>
      </trkpt>
      <trkpt lat="46.81112" lon="-2.11487">
        <ele>-17.39999961853</ele>
        <time>2021-07-30T12:56:46Z</time>
      </trkpt>
      <trkpt lat="46.81012" lon="-2.1116">
        <ele>-17.60000038147</ele>
        <time>2021-07-30T12:57:32Z</time>
      </trkpt>
      <trkpt lat="46.80992" lon="-2.11096">
        <ele>-17.799999237061</ele>
        <time>2021-07-30T12:57:41Z</time>
      </trkpt>
      <trkpt lat="46.80885" lon="-2.10747">
        <ele>-18.39999961853</ele>
        <time>2021-07-30T12:58:28Z</time>
      </trkpt>
      <trkpt lat="46.80846" lon="-2.10636">
        <ele>-18.200000762939</ele>
        <time>2021-07-30T12:58:42Z</time>
      </trkpt>
      <trkpt lat="46.80827" lon="-2.10579">
        <ele>-17.799999237061</ele>
        <time>2021-07-30T12:58:49Z</time>
      </trkpt>
      <trkpt lat="46.80818" lon="-2.10544">
        <ele>-17.60000038147</ele>
        <time>2021-07-30T12:58:53Z</time>
      </trkpt>
      <trkpt lat="46.80759" lon="-2.10319">
        <ele>-16.799999237061</ele>
        <time>2021-07-30T12:59:19Z</time>
      </trkpt>
      <trkpt lat="46.80735" lon="-2.10244">
        <ele>-16.39999961853</ele>
        <time>2021-07-30T12:59:28Z</time>
      </trkpt>
      <trkpt lat="46.80669" lon="-2.10028">
        <ele>-17.60000038147</ele>
        <time>2021-07-30T12:59:55Z</time>
      </trkpt>
      <trkpt lat="46.8066" lon="-2.09996">
        <ele>-17.60000038147</ele>
        <time>2021-07-30T12:59:59Z</time>
      </trkpt>
      <trkpt lat="46.80474" lon="-2.09369">
        <ele>-17.799999237061</ele>
        <time>2021-07-30T13:01:18Z</time>
      </trkpt>
      <trkpt lat="46.80428" lon="-2.09218">
        <ele>-17.39999961853</ele>
        <time>2021-07-30T13:01:37Z</time>
      </trkpt>
      <trkpt lat="46.80305" lon="-2.08813">
        <ele>-18.200000762939</ele>
        <time>2021-07-30T13:02:33Z</time>
      </trkpt>
      <trkpt lat="46.80294" lon="-2.0882">
        <ele>-18</ele>
        <time>2021-07-30T13:02:37Z</time>
      </trkpt>
      <trkpt lat="46.80227" lon="-2.08867">
        <ele>-17</ele>
        <time>2021-07-30T13:02:55Z</time>
      </trkpt>
      <trkpt lat="46.80178" lon="-2.08754">
        <ele>-16.39999961853</ele>
        <time>2021-07-30T13:03:21Z</time>
      </trkpt>
      <trkpt lat="46.80144" lon="-2.0867">
        <ele>-16.200000762939</ele>
        <time>2021-07-30T13:03:34Z</time>
      </trkpt>
      <trkpt lat="46.80083" lon="-2.08465">
        <ele>-15.199999809265</ele>
        <time>2021-07-30T13:04:03Z</time>
      </trkpt>
      <trkpt lat="46.80028" lon="-2.08356">
        <ele>-16.60000038147</ele>
        <time>2021-07-30T13:04:21Z</time>
      </trkpt>
      <trkpt lat="46.79905" lon="-2.07951">
        <ele>-15.39999961853</ele>
        <time>2021-07-30T13:05:19Z</time>
      </trkpt>
      <trkpt lat="46.79839" lon="-2.07692">
        <ele>-13</ele>
        <time>2021-07-30T13:06:00Z</time>
      </trkpt>
      <trkpt lat="46.79735" lon="-2.0765">
        <ele>-9.1999998092651</ele>
        <time>2021-07-30T13:06:33Z</time>
      </trkpt>
      <trkpt lat="46.79721" lon="-2.07653">
        <ele>-9.1999998092651</ele>
        <time>2021-07-30T13:06:38Z</time>
      </trkpt>
      <trkpt lat="46.79638" lon="-2.07707">
        <ele>-8.1999998092651</ele>
        <time>2021-07-30T13:07:02Z</time>
      </trkpt>
      <trkpt lat="46.79558" lon="-2.0774">
        <ele>-4.5999999046326</ele>
        <time>2021-07-30T13:07:30Z</time>
      </trkpt>
      <trkpt lat="46.79547" lon="-2.07744">
        <ele>-4.4000000953674</ele>
        <time>2021-07-30T13:07:32Z</time>
      </trkpt>
      <trkpt lat="46.79444" lon="-2.07802">
        <ele>-6.5999999046326</ele>
        <time>2021-07-30T13:07:43Z</time>
      </trkpt>
      <trkpt lat="46.79399" lon="-2.07844">
        <ele>-10</ele>
        <time>2021-07-30T13:07:48Z</time>
      </trkpt>
      <trkpt lat="46.7937" lon="-2.07871">
        <ele>-11.800000190735</ele>
        <time>2021-07-30T13:07:52Z</time>
      </trkpt>
      <trkpt lat="46.79328" lon="-2.07919">
        <ele>-14.39999961853</ele>
        <time>2021-07-30T13:08:02Z</time>
      </trkpt>
      <trkpt lat="46.7918" lon="-2.08111">
        <ele>-15.199999809265</ele>
        <time>2021-07-30T13:08:53Z</time>
      </trkpt>
      <trkpt lat="46.79101" lon="-2.08129">
        <ele>-16.799999237061</ele>
        <time>2021-07-30T13:09:28Z</time>
      </trkpt>
      <trkpt lat="46.79029" lon="-2.08071">
        <ele>-16.799999237061</ele>
        <time>2021-07-30T13:09:44Z</time>
      </trkpt>
      <trkpt lat="46.78892" lon="-2.08044">
        <ele>-15.800000190735</ele>
        <time>2021-07-30T13:10:15Z</time>
      </trkpt>
      <trkpt lat="46.78811" lon="-2.08058">
        <ele>-15.60000038147</ele>
        <time>2021-07-30T13:10:32Z</time>
      </trkpt>
      <trkpt lat="46.78684" lon="-2.07994">
        <ele>-13.60000038147</ele>
        <time>2021-07-30T13:11:05Z</time>
      </trkpt>
      <trkpt lat="46.78639" lon="-2.07908">
        <ele>-12.800000190735</ele>
        <time>2021-07-30T13:11:23Z</time>
      </trkpt>
      <trkpt lat="46.78636" lon="-2.07903">
        <ele>-12.800000190735</ele>
        <time>2021-07-30T13:11:24Z</time>
      </trkpt>
      <trkpt lat="46.78624" lon="-2.07887">
        <ele>-13</ele>
        <time>2021-07-30T13:11:28Z</time>
      </trkpt>
      <trkpt lat="46.7861" lon="-2.0785">
        <ele>-13.39999961853</ele>
        <time>2021-07-30T13:11:35Z</time>
      </trkpt>
      <trkpt lat="46.78489" lon="-2.07571">
        <ele>-14</ele>
        <time>2021-07-30T13:12:26Z</time>
      </trkpt>
      <trkpt lat="46.78467" lon="-2.07502">
        <ele>-15.800000190735</ele>
        <time>2021-07-30T13:12:42Z</time>
      </trkpt>
      <trkpt lat="46.78377" lon="-2.07303">
        <ele>-13</ele>
        <time>2021-07-30T13:13:27Z</time>
      </trkpt>
      <trkpt lat="46.78321" lon="-2.0719">
        <ele>-13.199999809265</ele>
        <time>2021-07-30T13:13:49Z</time>
      </trkpt>
      <trkpt lat="46.78268" lon="-2.0707">
        <ele>-13.199999809265</ele>
        <time>2021-07-30T13:14:14Z</time>
      </trkpt>
      <trkpt lat="46.78208" lon="-2.06972">
        <ele>-12.800000190735</ele>
        <time>2021-07-30T13:14:34Z</time>
      </trkpt>
      <trkpt lat="46.78194" lon="-2.06943">
        <ele>-13</ele>
        <time>2021-07-30T13:14:40Z</time>
      </trkpt>
      <trkpt lat="46.78172" lon="-2.06905">
        <ele>-13</ele>
        <time>2021-07-30T13:14:48Z</time>
      </trkpt>
      <trkpt lat="46.78155" lon="-2.06873">
        <ele>-13</ele>
        <time>2021-07-30T13:14:55Z</time>
      </trkpt>
      <trkpt lat="46.78104" lon="-2.06749">
        <ele>-13.39999961853</ele>
        <time>2021-07-30T13:15:18Z</time>
      </trkpt>
      <trkpt lat="46.78092" lon="-2.06727">
        <ele>-13.199999809265</ele>
        <time>2021-07-30T13:15:22Z</time>
      </trkpt>
      <trkpt lat="46.78068" lon="-2.06714">
        <ele>-13.199999809265</ele>
        <time>2021-07-30T13:15:27Z</time>
      </trkpt>
      <trkpt lat="46.77938" lon="-2.06493">
        <ele>-12.39999961853</ele>
        <time>2021-07-30T13:16:09Z</time>
      </trkpt>
      <trkpt lat="46.77937" lon="-2.06476">
        <ele>-12.39999961853</ele>
        <time>2021-07-30T13:16:11Z</time>
      </trkpt>
      <trkpt lat="46.77938" lon="-2.06437">
        <ele>-12.39999961853</ele>
        <time>2021-07-30T13:16:16Z</time>
      </trkpt>
      <trkpt lat="46.77834" lon="-2.06333">
        <ele>-11.60000038147</ele>
        <time>2021-07-30T13:16:43Z</time>
      </trkpt>
      <trkpt lat="46.77706" lon="-2.06103">
        <ele>-12.199999809265</ele>
        <time>2021-07-30T13:17:22Z</time>
      </trkpt>
      <trkpt lat="46.77699" lon="-2.06092">
        <ele>-12.39999961853</ele>
        <time>2021-07-30T13:17:24Z</time>
      </trkpt>
      <trkpt lat="46.77682" lon="-2.06067">
        <ele>-12.39999961853</ele>
        <time>2021-07-30T13:17:29Z</time>
      </trkpt>
      <trkpt lat="46.77659" lon="-2.06037">
        <ele>-12.199999809265</ele>
        <time>2021-07-30T13:17:36Z</time>
      </trkpt>
      <trkpt lat="46.77371" lon="-2.05628">
        <ele>-11.199999809265</ele>
        <time>2021-07-30T13:18:55Z</time>
      </trkpt>
      <trkpt lat="46.7734" lon="-2.05581">
        <ele>-10.800000190735</ele>
        <time>2021-07-30T13:19:03Z</time>
      </trkpt>
      <trkpt lat="46.77293" lon="-2.05506">
        <ele>-11.199999809265</ele>
        <time>2021-07-30T13:19:16Z</time>
      </trkpt>
      <trkpt lat="46.77232" lon="-2.05435">
        <ele>-11.39999961853</ele>
        <time>2021-07-30T13:19:30Z</time>
      </trkpt>
      <trkpt lat="46.77192" lon="-2.05373">
        <ele>-11.199999809265</ele>
        <time>2021-07-30T13:19:41Z</time>
      </trkpt>
      <trkpt lat="46.77112" lon="-2.05271">
        <ele>-11.199999809265</ele>
        <time>2021-07-30T13:20:03Z</time>
      </trkpt>
      <trkpt lat="46.77106" lon="-2.05261">
        <ele>-11.199999809265</ele>
        <time>2021-07-30T13:20:05Z</time>
      </trkpt>
      <trkpt lat="46.77081" lon="-2.05104">
        <ele>-12</ele>
        <time>2021-07-30T13:20:35Z</time>
      </trkpt>
      <trkpt lat="46.77141" lon="-2.04937">
        <ele>-14.800000190735</ele>
        <time>2021-07-30T13:20:58Z</time>
      </trkpt>
      <trkpt lat="46.77143" lon="-2.04929">
        <ele>-15</ele>
        <time>2021-07-30T13:20:59Z</time>
      </trkpt>
      <trkpt lat="46.77131" lon="-2.04855">
        <ele>-16.200000762939</ele>
        <time>2021-07-30T13:21:09Z</time>
      </trkpt>
      <trkpt lat="46.77055" lon="-2.04688">
        <ele>-16.799999237061</ele>
        <time>2021-07-30T13:21:32Z</time>
      </trkpt>
      <trkpt lat="46.76985" lon="-2.0456">
        <ele>-16.39999961853</ele>
        <time>2021-07-30T13:21:52Z</time>
      </trkpt>
      <trkpt lat="46.76868" lon="-2.044">
        <ele>-16.39999961853</ele>
        <time>2021-07-30T13:22:21Z</time>
      </trkpt>
      <trkpt lat="46.76735" lon="-2.04256">
        <ele>-15.39999961853</ele>
        <time>2021-07-30T13:22:51Z</time>
      </trkpt>
      <trkpt lat="46.76675" lon="-2.04158">
        <ele>-15.800000190735</ele>
        <time>2021-07-30T13:23:10Z</time>
      </trkpt>
      <trkpt lat="46.76666" lon="-2.04136">
        <ele>-16</ele>
        <time>2021-07-30T13:23:14Z</time>
      </trkpt>
      <trkpt lat="46.76631" lon="-2.03888">
        <ele>-14.800000190735</ele>
        <time>2021-07-30T13:23:47Z</time>
      </trkpt>
      <trkpt lat="46.7663" lon="-2.03802">
        <ele>-13.39999961853</ele>
        <time>2021-07-30T13:24:04Z</time>
      </trkpt>
      <trkpt lat="46.76631" lon="-2.03737">
        <ele>-11.60000038147</ele>
        <time>2021-07-30T13:24:18Z</time>
      </trkpt>
      <trkpt lat="46.76631" lon="-2.0373">
        <ele>-11.60000038147</ele>
        <time>2021-07-30T13:24:19Z</time>
      </trkpt>
      <trkpt lat="46.76628" lon="-2.0365">
        <ele>-11.199999809265</ele>
        <time>2021-07-30T13:24:33Z</time>
      </trkpt>
      <trkpt lat="46.76625" lon="-2.03604">
        <ele>-11.39999961853</ele>
        <time>2021-07-30T13:24:39Z</time>
      </trkpt>
      <trkpt lat="46.76604" lon="-2.03549">
        <ele>-11.39999961853</ele>
        <time>2021-07-30T13:24:46Z</time>
      </trkpt>
      <trkpt lat="46.76543" lon="-2.03465">
        <ele>-12.60000038147</ele>
        <time>2021-07-30T13:24:59Z</time>
      </trkpt>
      <trkpt lat="46.76522" lon="-2.03438">
        <ele>-12.800000190735</ele>
        <time>2021-07-30T13:25:04Z</time>
      </trkpt>
      <trkpt lat="46.76505" lon="-2.03384">
        <ele>-13.39999961853</ele>
        <time>2021-07-30T13:25:12Z</time>
      </trkpt>
      <trkpt lat="46.76499" lon="-2.03358">
        <ele>-13.60000038147</ele>
        <time>2021-07-30T13:25:15Z</time>
      </trkpt>
      <trkpt lat="46.76486" lon="-2.03324">
        <ele>-13.800000190735</ele>
        <time>2021-07-30T13:25:20Z</time>
      </trkpt>
      <trkpt lat="46.76407" lon="-2.03176">
        <ele>-13.60000038147</ele>
        <time>2021-07-30T13:25:44Z</time>
      </trkpt>
      <trkpt lat="46.76382" lon="-2.03066">
        <ele>-13.39999961853</ele>
        <time>2021-07-30T13:26:01Z</time>
      </trkpt>
      <trkpt lat="46.76383" lon="-2.03026">
        <ele>-13.800000190735</ele>
        <time>2021-07-30T13:26:06Z</time>
      </trkpt>
      <trkpt lat="46.76332" lon="-2.02913">
        <ele>-14.199999809265</ele>
        <time>2021-07-30T13:26:23Z</time>
      </trkpt>
      <trkpt lat="46.76285" lon="-2.02882">
        <ele>-14</ele>
        <time>2021-07-30T13:26:32Z</time>
      </trkpt>
      <trkpt lat="46.76202" lon="-2.02794">
        <ele>-13.39999961853</ele>
        <time>2021-07-30T13:26:49Z</time>
      </trkpt>
      <trkpt lat="46.76013" lon="-2.02615">
        <ele>-14</ele>
        <time>2021-07-30T13:27:36Z</time>
      </trkpt>
      <trkpt lat="46.75901" lon="-2.02509">
        <ele>-14.39999961853</ele>
        <time>2021-07-30T13:28:06Z</time>
      </trkpt>
      <trkpt lat="46.75852" lon="-2.02493">
        <ele>-15</ele>
        <time>2021-07-30T13:28:15Z</time>
      </trkpt>
      <trkpt lat="46.75724" lon="-2.02465">
        <ele>-15.800000190735</ele>
        <time>2021-07-30T13:28:42Z</time>
      </trkpt>
      <trkpt lat="46.75706" lon="-2.02451">
        <ele>-15.60000038147</ele>
        <time>2021-07-30T13:28:47Z</time>
      </trkpt>
      <trkpt lat="46.75676" lon="-2.02407">
        <ele>-15.39999961853</ele>
        <time>2021-07-30T13:28:57Z</time>
      </trkpt>
      <trkpt lat="46.7564" lon="-2.02359">
        <ele>-15.800000190735</ele>
        <time>2021-07-30T13:29:06Z</time>
      </trkpt>
      <trkpt lat="46.75594" lon="-2.02319">
        <ele>-17.60000038147</ele>
        <time>2021-07-30T13:29:16Z</time>
      </trkpt>
      <trkpt lat="46.75528" lon="-2.02267">
        <ele>-18.39999961853</ele>
        <time>2021-07-30T13:29:30Z</time>
      </trkpt>
      <trkpt lat="46.75491" lon="-2.02201">
        <ele>-17.799999237061</ele>
        <time>2021-07-30T13:29:42Z</time>
      </trkpt>
      <trkpt lat="46.75474" lon="-2.02154">
        <ele>-17.799999237061</ele>
        <time>2021-07-30T13:29:49Z</time>
      </trkpt>
      <trkpt lat="46.75346" lon="-2.01968">
        <ele>-17.799999237061</ele>
        <time>2021-07-30T13:30:24Z</time>
      </trkpt>
      <trkpt lat="46.75343" lon="-2.01963">
        <ele>-17.799999237061</ele>
        <time>2021-07-30T13:30:25Z</time>
      </trkpt>
      <trkpt lat="46.75325" lon="-2.01927">
        <ele>-17.39999961853</ele>
        <time>2021-07-30T13:30:31Z</time>
      </trkpt>
      <trkpt lat="46.75297" lon="-2.01873">
        <ele>-16.60000038147</ele>
        <time>2021-07-30T13:30:40Z</time>
      </trkpt>
      <trkpt lat="46.75272" lon="-2.01835">
        <ele>-16.60000038147</ele>
        <time>2021-07-30T13:30:47Z</time>
      </trkpt>
      <trkpt lat="46.75245" lon="-2.01796">
        <ele>-16.39999961853</ele>
        <time>2021-07-30T13:30:55Z</time>
      </trkpt>
      <trkpt lat="46.75229" lon="-2.01766">
        <ele>-16.60000038147</ele>
        <time>2021-07-30T13:31:01Z</time>
      </trkpt>
      <trkpt lat="46.75202" lon="-2.01733">
        <ele>-16.60000038147</ele>
        <time>2021-07-30T13:31:07Z</time>
      </trkpt>
      <trkpt lat="46.7513" lon="-2.01638">
        <ele>-17</ele>
        <time>2021-07-30T13:31:33Z</time>
      </trkpt>
      <trkpt lat="46.7507" lon="-2.01554">
        <ele>-16.39999961853</ele>
        <time>2021-07-30T13:31:56Z</time>
      </trkpt>
      <trkpt lat="46.74952" lon="-2.01366">
        <ele>-16.60000038147</ele>
        <time>2021-07-30T13:32:29Z</time>
      </trkpt>
      <trkpt lat="46.74912" lon="-2.01341">
        <ele>-16.39999961853</ele>
        <time>2021-07-30T13:32:39Z</time>
      </trkpt>
      <trkpt lat="46.74904" lon="-2.01336">
        <ele>-16.39999961853</ele>
        <time>2021-07-30T13:32:41Z</time>
      </trkpt>
      <trkpt lat="46.74884" lon="-2.01328">
        <ele>-15.39999961853</ele>
        <time>2021-07-30T13:32:46Z</time>
      </trkpt>
      <trkpt lat="46.74704" lon="-2.01222">
        <ele>-14</ele>
        <time>2021-07-30T13:33:27Z</time>
      </trkpt>
      <trkpt lat="46.74647" lon="-2.01165">
        <ele>-14</ele>
        <time>2021-07-30T13:33:42Z</time>
      </trkpt>
      <trkpt lat="46.74524" lon="-2.01025">
        <ele>-15.39999961853</ele>
        <time>2021-07-30T13:34:13Z</time>
      </trkpt>
      <trkpt lat="46.74448" lon="-2.00965">
        <ele>-15.800000190735</ele>
        <time>2021-07-30T13:34:29Z</time>
      </trkpt>
      <trkpt lat="46.74365" lon="-2.00894">
        <ele>-15.800000190735</ele>
        <time>2021-07-30T13:34:45Z</time>
      </trkpt>
      <trkpt lat="46.74286" lon="-2.00801">
        <ele>-17.200000762939</ele>
        <time>2021-07-30T13:35:14Z</time>
      </trkpt>
      <trkpt lat="46.74088" lon="-2.00685">
        <ele>-16.60000038147</ele>
        <time>2021-07-30T13:36:07Z</time>
      </trkpt>
      <trkpt lat="46.7403" lon="-2.00586">
        <ele>-16.60000038147</ele>
        <time>2021-07-30T13:36:37Z</time>
      </trkpt>
      <trkpt lat="46.74059" lon="-2.00452">
        <ele>-16</ele>
        <time>2021-07-30T13:36:56Z</time>
      </trkpt>
      <trkpt lat="46.74073" lon="-2.00305">
        <ele>-17.39999961853</ele>
        <time>2021-07-30T13:37:19Z</time>
      </trkpt>
      <trkpt lat="46.7412" lon="-2.00132">
        <ele>-17.39999961853</ele>
        <time>2021-07-30T13:37:46Z</time>
      </trkpt>
      <trkpt lat="46.74132" lon="-2.00024">
        <ele>-17.60000038147</ele>
        <time>2021-07-30T13:38:03Z</time>
      </trkpt>
      <trkpt lat="46.74158" lon="-1.99685">
        <ele>-16</ele>
        <time>2021-07-30T13:38:51Z</time>
      </trkpt>
      <trkpt lat="46.74194" lon="-1.99522">
        <ele>-16</ele>
        <time>2021-07-30T13:39:12Z</time>
      </trkpt>
      <trkpt lat="46.74217" lon="-1.99391">
        <ele>-15.800000190735</ele>
        <time>2021-07-30T13:39:29Z</time>
      </trkpt>
      <trkpt lat="46.74218" lon="-1.99384">
        <ele>-15.800000190735</ele>
        <time>2021-07-30T13:39:30Z</time>
      </trkpt>
      <trkpt lat="46.74218" lon="-1.99342">
        <ele>-16.39999961853</ele>
        <time>2021-07-30T13:39:39Z</time>
      </trkpt>
      <trkpt lat="46.74186" lon="-1.99316">
        <ele>-16.200000762939</ele>
        <time>2021-07-30T13:40:09Z</time>
      </trkpt>
      <trkpt lat="46.74147" lon="-1.9929">
        <ele>-16.200000762939</ele>
        <time>2021-07-30T13:40:20Z</time>
      </trkpt>
      <trkpt lat="46.73919" lon="-1.99227">
        <ele>-15.800000190735</ele>
        <time>2021-07-30T13:41:20Z</time>
      </trkpt>
      <trkpt lat="46.73912" lon="-1.99219">
        <ele>-16</ele>
        <time>2021-07-30T13:41:22Z</time>
      </trkpt>
      <trkpt lat="46.73854" lon="-1.9916">
        <ele>-16.200000762939</ele>
        <time>2021-07-30T13:44:47Z</time>
      </trkpt>
      <trkpt lat="46.7374" lon="-1.99019">
        <ele>-12.800000190735</ele>
        <time>2021-07-30T13:45:45Z</time>
      </trkpt>
      <trkpt lat="46.73511" lon="-1.9882">
        <ele>-13.39999961853</ele>
        <time>2021-07-30T13:46:35Z</time>
      </trkpt>
      <trkpt lat="46.73401" lon="-1.98707">
        <ele>-12.60000038147</ele>
        <time>2021-07-30T13:47:06Z</time>
      </trkpt>
      <trkpt lat="46.73324" lon="-1.98461">
        <ele>-13</ele>
        <time>2021-07-30T13:47:55Z</time>
      </trkpt>
      <trkpt lat="46.73285" lon="-1.98422">
        <ele>-13</ele>
        <time>2021-07-30T13:48:04Z</time>
      </trkpt>
      <trkpt lat="46.73177" lon="-1.98327">
        <ele>-14</ele>
        <time>2021-07-30T13:48:24Z</time>
      </trkpt>
      <trkpt lat="46.73034" lon="-1.98261">
        <ele>-13.60000038147</ele>
        <time>2021-07-30T13:48:47Z</time>
      </trkpt>
      <trkpt lat="46.72733" lon="-1.98128">
        <ele>-14.800000190735</ele>
        <time>2021-07-30T13:49:40Z</time>
      </trkpt>
      <trkpt lat="46.72696" lon="-1.98102">
        <ele>-14.800000190735</ele>
        <time>2021-07-30T13:49:48Z</time>
      </trkpt>
      <trkpt lat="46.72503" lon="-1.97972">
        <ele>-15</ele>
        <time>2021-07-30T13:50:26Z</time>
      </trkpt>
      <trkpt lat="46.72408" lon="-1.97852">
        <ele>-15.800000190735</ele>
        <time>2021-07-30T13:50:53Z</time>
      </trkpt>
      <trkpt lat="46.72314" lon="-1.97709">
        <ele>-15.199999809265</ele>
        <time>2021-07-30T13:51:31Z</time>
      </trkpt>
      <trkpt lat="46.72184" lon="-1.97452">
        <ele>-14.39999961853</ele>
        <time>2021-07-30T13:52:14Z</time>
      </trkpt>
      <trkpt lat="46.72116" lon="-1.97339">
        <ele>-13.800000190735</ele>
        <time>2021-07-30T13:52:33Z</time>
      </trkpt>
      <trkpt lat="46.72029" lon="-1.9717">
        <ele>-12.800000190735</ele>
        <time>2021-07-30T13:53:05Z</time>
      </trkpt>
      <trkpt lat="46.72016" lon="-1.97121">
        <ele>-12.199999809265</ele>
        <time>2021-07-30T13:53:14Z</time>
      </trkpt>
      <trkpt lat="46.71905" lon="-1.96941">
        <ele>-10</ele>
        <time>2021-07-30T13:53:51Z</time>
      </trkpt>
      <trkpt lat="46.71829" lon="-1.96909">
        <ele>-8.1999998092651</ele>
        <time>2021-07-30T13:55:16Z</time>
      </trkpt>
      <trkpt lat="46.71815" lon="-1.96936">
        <ele>-7.8000001907349</ele>
        <time>2021-07-30T13:55:25Z</time>
      </trkpt>
      <trkpt lat="46.71659" lon="-1.9723">
        <ele>-9</ele>
        <time>2021-07-30T13:56:31Z</time>
      </trkpt>
      <trkpt lat="46.71641" lon="-1.97269">
        <ele>-9.6000003814697</ele>
        <time>2021-07-30T13:56:39Z</time>
      </trkpt>
      <trkpt lat="46.71473" lon="-1.9754">
        <ele>-7.8000001907349</ele>
        <time>2021-07-30T13:57:33Z</time>
      </trkpt>
      <trkpt lat="46.71457" lon="-1.97574">
        <ele>-8.1999998092651</ele>
        <time>2021-07-30T13:57:39Z</time>
      </trkpt>
      <trkpt lat="46.71444" lon="-1.976">
        <ele>-8.1999998092651</ele>
        <time>2021-07-30T13:57:43Z</time>
      </trkpt>
      <trkpt lat="46.71385" lon="-1.97665">
        <ele>-9.1999998092651</ele>
        <time>2021-07-30T13:57:54Z</time>
      </trkpt>
      <trkpt lat="46.71345" lon="-1.97711">
        <ele>-9.8000001907349</ele>
        <time>2021-07-30T13:58:01Z</time>
      </trkpt>
      <trkpt lat="46.7133" lon="-1.97737">
        <ele>-10</ele>
        <time>2021-07-30T13:58:05Z</time>
      </trkpt>
      <trkpt lat="46.71299" lon="-1.97767">
        <ele>-10.39999961853</ele>
        <time>2021-07-30T13:58:12Z</time>
      </trkpt>
      <trkpt lat="46.71281" lon="-1.97785">
        <ele>-10.60000038147</ele>
        <time>2021-07-30T13:58:16Z</time>
      </trkpt>
      <trkpt lat="46.71261" lon="-1.97815">
        <ele>-11.39999961853</ele>
        <time>2021-07-30T13:58:21Z</time>
      </trkpt>
      <trkpt lat="46.71236" lon="-1.97872">
        <ele>-13.39999961853</ele>
        <time>2021-07-30T13:58:30Z</time>
      </trkpt>
      <trkpt lat="46.71205" lon="-1.97925">
        <ele>-13.60000038147</ele>
        <time>2021-07-30T13:58:40Z</time>
      </trkpt>
      <trkpt lat="46.71198" lon="-1.97928">
        <ele>-14.199999809265</ele>
        <time>2021-07-30T13:58:50Z</time>
      </trkpt>
      <trkpt lat="46.7121" lon="-1.97928">
        <ele>-14.199999809265</ele>
        <time>2021-07-30T14:01:12Z</time>
      </trkpt>
      <trkpt lat="46.71169" lon="-1.98">
        <ele>-14.39999961853</ele>
        <time>2021-07-30T14:01:44Z</time>
      </trkpt>
      <trkpt lat="46.71169" lon="-1.98009">
        <ele>-14.199999809265</ele>
        <time>2021-07-30T14:01:47Z</time>
      </trkpt>
      <trkpt lat="46.71129" lon="-1.98034">
        <ele>-14.199999809265</ele>
        <time>2021-07-30T14:02:01Z</time>
      </trkpt>
      <trkpt lat="46.70966" lon="-1.98063">
        <ele>-13</ele>
        <time>2021-07-30T14:03:00Z</time>
      </trkpt>
      <trkpt lat="46.70914" lon="-1.98023">
        <ele>-12.39999961853</ele>
        <time>2021-07-30T14:04:17Z</time>
      </trkpt>
      <trkpt lat="46.70861" lon="-1.97971">
        <ele>-12.800000190735</ele>
        <time>2021-07-30T14:04:38Z</time>
      </trkpt>
      <trkpt lat="46.70846" lon="-1.97959">
        <ele>-12.800000190735</ele>
        <time>2021-07-30T14:04:44Z</time>
      </trkpt>
      <trkpt lat="46.70793" lon="-1.97925">
        <ele>-12.800000190735</ele>
        <time>2021-07-30T14:05:09Z</time>
      </trkpt>
      <trkpt lat="46.70764" lon="-1.97907">
        <ele>-12.60000038147</ele>
        <time>2021-07-30T14:05:24Z</time>
      </trkpt>
      <trkpt lat="46.70682" lon="-1.97897">
        <ele>-12.39999961853</ele>
        <time>2021-07-30T14:05:47Z</time>
      </trkpt>
      <trkpt lat="46.70627" lon="-1.97912">
        <ele>-12</ele>
        <time>2021-07-30T14:05:58Z</time>
      </trkpt>
      <trkpt lat="46.70538" lon="-1.97936">
        <ele>-10.800000190735</ele>
        <time>2021-07-30T14:09:09Z</time>
      </trkpt>
      <trkpt lat="46.70535" lon="-1.97935">
        <ele>-10.800000190735</ele>
        <time>2021-07-30T14:09:10Z</time>
      </trkpt>
      <trkpt lat="46.70438" lon="-1.97883">
        <ele>-8.8000001907349</ele>
        <time>2021-07-30T14:09:39Z</time>
      </trkpt>
      <trkpt lat="46.70377" lon="-1.97812">
        <ele>-8.6000003814697</ele>
        <time>2021-07-30T14:10:01Z</time>
      </trkpt>
      <trkpt lat="46.70306" lon="-1.97748">
        <ele>-7</ele>
        <time>2021-07-30T14:10:23Z</time>
      </trkpt>
      <trkpt lat="46.70303" lon="-1.97745">
        <ele>-7.1999998092651</ele>
        <time>2021-07-30T14:10:24Z</time>
      </trkpt>
      <trkpt lat="46.70266" lon="-1.97705">
        <ele>-6.8000001907349</ele>
        <time>2021-07-30T14:10:35Z</time>
      </trkpt>
      <trkpt lat="46.70132" lon="-1.97547">
        <ele>-7.5999999046326</ele>
        <time>2021-07-30T14:11:13Z</time>
      </trkpt>
      <trkpt lat="46.70107" lon="-1.97517">
        <ele>-8.1999998092651</ele>
        <time>2021-07-30T14:11:20Z</time>
      </trkpt>
      <trkpt lat="46.70102" lon="-1.97512">
        <ele>-8.3999996185303</ele>
        <time>2021-07-30T14:11:21Z</time>
      </trkpt>
      <trkpt lat="46.70076" lon="-1.97476">
        <ele>-8.6000003814697</ele>
        <time>2021-07-30T14:11:28Z</time>
      </trkpt>
      <trkpt lat="46.69998" lon="-1.97361">
        <ele>-8.6000003814697</ele>
        <time>2021-07-30T14:11:53Z</time>
      </trkpt>
      <trkpt lat="46.69964" lon="-1.97326">
        <ele>-8.1999998092651</ele>
        <time>2021-07-30T14:12:02Z</time>
      </trkpt>
      <trkpt lat="46.69924" lon="-1.97292">
        <ele>-9.8000001907349</ele>
        <time>2021-07-30T14:12:12Z</time>
      </trkpt>
      <trkpt lat="46.69791" lon="-1.97189">
        <ele>-8.8000001907349</ele>
        <time>2021-07-30T14:12:49Z</time>
      </trkpt>
      <trkpt lat="46.6976" lon="-1.97162">
        <ele>-7.5999999046326</ele>
        <time>2021-07-30T14:12:59Z</time>
      </trkpt>
      <trkpt lat="46.69523" lon="-1.9692">
        <ele>-9.6000003814697</ele>
        <time>2021-07-30T14:13:54Z</time>
      </trkpt>
      <trkpt lat="46.6952" lon="-1.96915">
        <ele>-9.6000003814697</ele>
        <time>2021-07-30T14:13:55Z</time>
      </trkpt>
      <trkpt lat="46.69377" lon="-1.96762">
        <ele>-7.5999999046326</ele>
        <time>2021-07-30T14:14:36Z</time>
      </trkpt>
      <trkpt lat="46.69325" lon="-1.96628">
        <ele>-7.4000000953674</ele>
        <time>2021-07-30T14:16:17Z</time>
      </trkpt>
      <trkpt lat="46.69323" lon="-1.96377">
        <ele>-7</ele>
        <time>2021-07-30T14:17:09Z</time>
      </trkpt>
      <trkpt lat="46.69323" lon="-1.96329">
        <ele>-6.8000001907349</ele>
        <time>2021-07-30T14:17:19Z</time>
      </trkpt>
      <trkpt lat="46.69318" lon="-1.96238">
        <ele>-6.8000001907349</ele>
        <time>2021-07-30T14:17:32Z</time>
      </trkpt>
      <trkpt lat="46.69322" lon="-1.96155">
        <ele>-8.6000003814697</ele>
        <time>2021-07-30T14:17:45Z</time>
      </trkpt>
      <trkpt lat="46.69423" lon="-1.96039">
        <ele>-11.39999961853</ele>
        <time>2021-07-30T14:18:06Z</time>
      </trkpt>
      <trkpt lat="46.69426" lon="-1.96033">
        <ele>-11.60000038147</ele>
        <time>2021-07-30T14:18:07Z</time>
      </trkpt>
      <trkpt lat="46.6946" lon="-1.95897">
        <ele>-14</ele>
        <time>2021-07-30T14:18:28Z</time>
      </trkpt>
      <trkpt lat="46.69499" lon="-1.95623">
        <ele>-10.800000190735</ele>
        <time>2021-07-30T14:19:15Z</time>
      </trkpt>
      <trkpt lat="46.69548" lon="-1.95414">
        <ele>-12.800000190735</ele>
        <time>2021-07-30T14:19:55Z</time>
      </trkpt>
      <trkpt lat="46.69537" lon="-1.9536">
        <ele>-12.800000190735</ele>
        <time>2021-07-30T14:20:04Z</time>
      </trkpt>
      <trkpt lat="46.6952" lon="-1.95289">
        <ele>-12.199999809265</ele>
        <time>2021-07-30T14:20:19Z</time>
      </trkpt>
      <trkpt lat="46.69592" lon="-1.95199">
        <ele>-11</ele>
        <time>2021-07-30T14:21:03Z</time>
      </trkpt>
      <trkpt lat="46.69637" lon="-1.95098">
        <ele>-11</ele>
        <time>2021-07-30T14:21:20Z</time>
      </trkpt>
      <trkpt lat="46.69684" lon="-1.94987">
        <ele>-11.60000038147</ele>
        <time>2021-07-30T14:21:37Z</time>
      </trkpt>
      <trkpt lat="46.69717" lon="-1.94939">
        <ele>-12</ele>
        <time>2021-07-30T14:21:45Z</time>
      </trkpt>
      <trkpt lat="46.69757" lon="-1.94891">
        <ele>-13.60000038147</ele>
        <time>2021-07-30T14:21:54Z</time>
      </trkpt>
      <trkpt lat="46.69767" lon="-1.94865">
        <ele>-13.800000190735</ele>
        <time>2021-07-30T14:21:57Z</time>
      </trkpt>
      <trkpt lat="46.69792" lon="-1.94792">
        <ele>-15.199999809265</ele>
        <time>2021-07-30T14:22:06Z</time>
      </trkpt>
      <trkpt lat="46.69799" lon="-1.94646">
        <ele>-16.60000038147</ele>
        <time>2021-07-30T14:22:34Z</time>
      </trkpt>
      <trkpt lat="46.69791" lon="-1.94623">
        <ele>-16.39999961853</ele>
        <time>2021-07-30T14:22:46Z</time>
      </trkpt>
      <trkpt lat="46.69773" lon="-1.94579">
        <ele>-16.39999961853</ele>
        <time>2021-07-30T14:22:58Z</time>
      </trkpt>
      <trkpt lat="46.69733" lon="-1.94451">
        <ele>-16.60000038147</ele>
        <time>2021-07-30T14:23:23Z</time>
      </trkpt>
      <trkpt lat="46.69706" lon="-1.94376">
        <ele>-16.799999237061</ele>
        <time>2021-07-30T14:23:35Z</time>
      </trkpt>
      <trkpt lat="46.69697" lon="-1.94347">
        <ele>-16.799999237061</ele>
        <time>2021-07-30T14:23:39Z</time>
      </trkpt>
      <trkpt lat="46.69685" lon="-1.94292">
        <ele>-16.60000038147</ele>
        <time>2021-07-30T14:23:46Z</time>
      </trkpt>
      <trkpt lat="46.69646" lon="-1.94144">
        <ele>-16.39999961853</ele>
        <time>2021-07-30T14:24:10Z</time>
      </trkpt>
      <trkpt lat="46.6958" lon="-1.94068">
        <ele>-16.39999961853</ele>
        <time>2021-07-30T14:24:40Z</time>
      </trkpt>
      <trkpt lat="46.69599" lon="-1.94062">
        <ele>-16.39999961853</ele>
        <time>2021-07-30T14:24:48Z</time>
      </trkpt>
      <trkpt lat="46.69629" lon="-1.94029">
        <ele>-16.39999961853</ele>
        <time>2021-07-30T14:25:00Z</time>
      </trkpt>
      <trkpt lat="46.69613" lon="-1.93959">
        <ele>-16.200000762939</ele>
        <time>2021-07-30T14:25:57Z</time>
      </trkpt>
      <trkpt lat="46.69634" lon="-1.93919">
        <ele>-17.39999961853</ele>
        <time>2021-07-30T14:48:57Z</time>
      </trkpt>
      <trkpt lat="46.69636" lon="-1.93919">
        <ele>-17.60000038147</ele>
        <time>2021-07-30T14:48:58Z</time>
      </trkpt>
      <trkpt lat="46.69687" lon="-1.93835">
        <ele>-18.60000038147</ele>
        <time>2021-07-30T14:49:37Z</time>
      </trkpt>
      <trkpt lat="46.69677" lon="-1.93698">
        <ele>-18.39999961853</ele>
        <time>2021-07-30T14:50:16Z</time>
      </trkpt>
      <trkpt lat="46.69656" lon="-1.93686">
        <ele>-18.39999961853</ele>
        <time>2021-07-30T14:50:23Z</time>
      </trkpt>
      <trkpt lat="46.69617" lon="-1.93695">
        <ele>-18.799999237061</ele>
        <time>2021-07-30T14:50:51Z</time>
      </trkpt>
      <trkpt lat="46.69604" lon="-1.93665">
        <ele>-18.200000762939</ele>
        <time>2021-07-30T14:50:59Z</time>
      </trkpt>
      <trkpt lat="46.69599" lon="-1.93639">
        <ele>-17.60000038147</ele>
        <time>2021-07-30T14:51:12Z</time>
      </trkpt>
      <trkpt lat="46.69588" lon="-1.93629">
        <ele>-17.799999237061</ele>
        <time>2021-07-30T14:51:30Z</time>
      </trkpt>
      <trkpt lat="46.69591" lon="-1.93598">
        <ele>-17.60000038147</ele>
        <time>2021-07-30T14:51:41Z</time>
      </trkpt>
      <trkpt lat="46.69597" lon="-1.93568">
        <ele>-17.200000762939</ele>
        <time>2021-07-30T14:51:48Z</time>
      </trkpt>
      <trkpt lat="46.69616" lon="-1.93535">
        <ele>-16</ele>
        <time>2021-07-30T14:52:04Z</time>
      </trkpt>
      <trkpt lat="46.69628" lon="-1.93501">
        <ele>-14.800000190735</ele>
        <time>2021-07-30T14:53:39Z</time>
      </trkpt>
      <trkpt lat="46.69634" lon="-1.93374">
        <ele>-16.39999961853</ele>
        <time>2021-07-30T14:54:18Z</time>
      </trkpt>
      <trkpt lat="46.69637" lon="-1.933">
        <ele>-13.39999961853</ele>
        <time>2021-07-30T14:54:39Z</time>
      </trkpt>
      <trkpt lat="46.69638" lon="-1.93297">
        <ele>-13.39999961853</ele>
        <time>2021-07-30T14:54:40Z</time>
      </trkpt>
      <trkpt lat="46.69645" lon="-1.93274">
        <ele>-12.800000190735</ele>
        <time>2021-07-30T14:54:47Z</time>
      </trkpt>
      <trkpt lat="46.69655" lon="-1.93209">
        <ele>-10.60000038147</ele>
        <time>2021-07-30T14:55:05Z</time>
      </trkpt>
      <trkpt lat="46.69639" lon="-1.93134">
        <ele>-9.3999996185303</ele>
        <time>2021-07-30T14:55:21Z</time>
      </trkpt>
      <trkpt lat="46.69631" lon="-1.93075">
        <ele>-8.6000003814697</ele>
        <time>2021-07-30T14:55:36Z</time>
      </trkpt>
      <trkpt lat="46.6962" lon="-1.93027">
        <ele>-7.5999999046326</ele>
        <time>2021-07-30T14:55:48Z</time>
      </trkpt>
      <trkpt lat="46.69646" lon="-1.92976">
        <ele>14.800000190735</ele>
        <time>2021-07-31T08:04:32Z</time>
      </trkpt>
      <trkpt lat="46.69652" lon="-1.93007">
        <ele>13.60000038147</ele>
        <time>2021-07-31T08:04:39Z</time>
      </trkpt>
      <trkpt lat="46.6966" lon="-1.93048">
        <ele>13.39999961853</ele>
        <time>2021-07-31T08:04:47Z</time>
      </trkpt>
      <trkpt lat="46.69658" lon="-1.93169">
        <ele>12.39999961853</ele>
        <time>2021-07-31T08:05:07Z</time>
      </trkpt>
      <trkpt lat="46.69658" lon="-1.93229">
        <ele>11</ele>
        <time>2021-07-31T08:05:23Z</time>
      </trkpt>
      <trkpt lat="46.6965" lon="-1.93284">
        <ele>10.39999961853</ele>
        <time>2021-07-31T08:05:31Z</time>
      </trkpt>
      <trkpt lat="46.69635" lon="-1.93407">
        <ele>6.5999999046326</ele>
        <time>2021-07-31T08:05:49Z</time>
      </trkpt>
      <trkpt lat="46.69634" lon="-1.93425">
        <ele>4.1999998092651</ele>
        <time>2021-07-31T08:05:58Z</time>
      </trkpt>
      <trkpt lat="46.69626" lon="-1.93433">
        <ele>4</ele>
        <time>2021-07-31T08:06:02Z</time>
      </trkpt>
      <trkpt lat="46.69506" lon="-1.9337">
        <ele>3</ele>
        <time>2021-07-31T08:06:36Z</time>
      </trkpt>
      <trkpt lat="46.69406" lon="-1.93333">
        <ele>3.2000000476837</ele>
        <time>2021-07-31T08:06:58Z</time>
      </trkpt>
      <trkpt lat="46.69279" lon="-1.93328">
        <ele>3.5999999046326</ele>
        <time>2021-07-31T08:07:31Z</time>
      </trkpt>
      <trkpt lat="46.69205" lon="-1.93323">
        <ele>3.4000000953674</ele>
        <time>2021-07-31T08:07:47Z</time>
      </trkpt>
      <trkpt lat="46.69171" lon="-1.93327">
        <ele>3.4000000953674</ele>
        <time>2021-07-31T08:08:04Z</time>
      </trkpt>
      <trkpt lat="46.6915" lon="-1.93285">
        <ele>3.2000000476837</ele>
        <time>2021-07-31T08:08:20Z</time>
      </trkpt>
      <trkpt lat="46.69119" lon="-1.93219">
        <ele>3</ele>
        <time>2021-07-31T08:08:33Z</time>
      </trkpt>
      <trkpt lat="46.6902" lon="-1.93156">
        <ele>2.4000000953674</ele>
        <time>2021-07-31T08:08:58Z</time>
      </trkpt>
      <trkpt lat="46.68975" lon="-1.9316">
        <ele>2.5999999046326</ele>
        <time>2021-07-31T08:09:07Z</time>
      </trkpt>
      <trkpt lat="46.68758" lon="-1.93249">
        <ele>3</ele>
        <time>2021-07-31T08:09:56Z</time>
      </trkpt>
      <trkpt lat="46.68749" lon="-1.93246">
        <ele>3</ele>
        <time>2021-07-31T08:09:58Z</time>
      </trkpt>
      <trkpt lat="46.68696" lon="-1.93239">
        <ele>3.4000000953674</ele>
        <time>2021-07-31T08:10:08Z</time>
      </trkpt>
      <trkpt lat="46.68608" lon="-1.93182">
        <ele>3.2000000476837</ele>
        <time>2021-07-31T08:10:36Z</time>
      </trkpt>
      <trkpt lat="46.68573" lon="-1.93158">
        <ele>3.4000000953674</ele>
        <time>2021-07-31T08:10:44Z</time>
      </trkpt>
      <trkpt lat="46.68467" lon="-1.93055">
        <ele>3.7999999523163</ele>
        <time>2021-07-31T08:11:10Z</time>
      </trkpt>
      <trkpt lat="46.68439" lon="-1.93025">
        <ele>4</ele>
        <time>2021-07-31T08:11:17Z</time>
      </trkpt>
      <trkpt lat="46.68436" lon="-1.9302">
        <ele>4.1999998092651</ele>
        <time>2021-07-31T08:11:18Z</time>
      </trkpt>
      <trkpt lat="46.68421" lon="-1.92995">
        <ele>4.1999998092651</ele>
        <time>2021-07-31T08:11:23Z</time>
      </trkpt>
      <trkpt lat="46.68358" lon="-1.92885">
        <ele>4.1999998092651</ele>
        <time>2021-07-31T08:11:44Z</time>
      </trkpt>
      <trkpt lat="46.68268" lon="-1.92741">
        <ele>5.8000001907349</ele>
        <time>2021-07-31T08:12:13Z</time>
      </trkpt>
      <trkpt lat="46.68146" lon="-1.92562">
        <ele>5.8000001907349</ele>
        <time>2021-07-31T08:12:49Z</time>
      </trkpt>
      <trkpt lat="46.68085" lon="-1.92435">
        <ele>6</ele>
        <time>2021-07-31T08:13:16Z</time>
      </trkpt>
      <trkpt lat="46.68022" lon="-1.92337">
        <ele>5.5999999046326</ele>
        <time>2021-07-31T08:13:38Z</time>
      </trkpt>
      <trkpt lat="46.67937" lon="-1.92259">
        <ele>4</ele>
        <time>2021-07-31T08:13:59Z</time>
      </trkpt>
      <trkpt lat="46.67857" lon="-1.92205">
        <ele>3.5999999046326</ele>
        <time>2021-07-31T08:14:18Z</time>
      </trkpt>
      <trkpt lat="46.67853" lon="-1.922">
        <ele>3.7999999523163</ele>
        <time>2021-07-31T08:14:19Z</time>
      </trkpt>
      <trkpt lat="46.67819" lon="-1.92129">
        <ele>3</ele>
        <time>2021-07-31T08:14:31Z</time>
      </trkpt>
      <trkpt lat="46.67805" lon="-1.9207">
        <ele>3</ele>
        <time>2021-07-31T08:14:40Z</time>
      </trkpt>
      <trkpt lat="46.67766" lon="-1.91977">
        <ele>2.7999999523163</ele>
        <time>2021-07-31T08:14:55Z</time>
      </trkpt>
      <trkpt lat="46.67568" lon="-1.91592">
        <ele>4.4000000953674</ele>
        <time>2021-07-31T08:16:01Z</time>
      </trkpt>
      <trkpt lat="46.67552" lon="-1.91554">
        <ele>4.1999998092651</ele>
        <time>2021-07-31T08:16:08Z</time>
      </trkpt>
      <trkpt lat="46.67548" lon="-1.91544">
        <ele>4</ele>
        <time>2021-07-31T08:16:12Z</time>
      </trkpt>
      <trkpt lat="46.67467" lon="-1.91398">
        <ele>3.4000000953674</ele>
        <time>2021-07-31T08:16:56Z</time>
      </trkpt>
      <trkpt lat="46.67343" lon="-1.91132">
        <ele>2.4000000953674</ele>
        <time>2021-07-31T08:17:42Z</time>
      </trkpt>
      <trkpt lat="46.6715" lon="-1.90801">
        <ele>3</ele>
        <time>2021-07-31T08:18:44Z</time>
      </trkpt>
      <trkpt lat="46.67161" lon="-1.90786">
        <ele>2.2000000476837</ele>
        <time>2021-07-31T08:21:43Z</time>
      </trkpt>
      <trkpt lat="46.67172" lon="-1.90728">
        <ele>2.5999999046326</ele>
        <time>2021-07-31T08:21:55Z</time>
      </trkpt>
      <trkpt lat="46.67179" lon="-1.90693">
        <ele>3.2000000476837</ele>
        <time>2021-07-31T08:22:02Z</time>
      </trkpt>
      <trkpt lat="46.67109" lon="-1.9051">
        <ele>5.1999998092651</ele>
        <time>2021-07-31T08:22:38Z</time>
      </trkpt>
      <trkpt lat="46.67072" lon="-1.90471">
        <ele>5.5999999046326</ele>
        <time>2021-07-31T08:22:48Z</time>
      </trkpt>
      <trkpt lat="46.67019" lon="-1.90399">
        <ele>6.1999998092651</ele>
        <time>2021-07-31T08:23:05Z</time>
      </trkpt>
      <trkpt lat="46.66964" lon="-1.90343">
        <ele>5.8000001907349</ele>
        <time>2021-07-31T08:23:22Z</time>
      </trkpt>
      <trkpt lat="46.66934" lon="-1.90245">
        <ele>5.5999999046326</ele>
        <time>2021-07-31T08:24:03Z</time>
      </trkpt>
      <trkpt lat="46.66758" lon="-1.90169">
        <ele>5.8000001907349</ele>
        <time>2021-07-31T08:25:08Z</time>
      </trkpt>
      <trkpt lat="46.66707" lon="-1.90145">
        <ele>6.5999999046326</ele>
        <time>2021-07-31T08:27:56Z</time>
      </trkpt>
      <trkpt lat="46.66695" lon="-1.9012">
        <ele>7.1999998092651</ele>
        <time>2021-07-31T08:28:03Z</time>
      </trkpt>
      <trkpt lat="46.66684" lon="-1.90086">
        <ele>8.1999998092651</ele>
        <time>2021-07-31T08:28:11Z</time>
      </trkpt>
      <trkpt lat="46.66657" lon="-1.90009">
        <ele>8.8000001907349</ele>
        <time>2021-07-31T08:28:24Z</time>
      </trkpt>
      <trkpt lat="46.6664" lon="-1.89938">
        <ele>8.3999996185303</ele>
        <time>2021-07-31T08:28:33Z</time>
      </trkpt>
      <trkpt lat="46.66564" lon="-1.89916">
        <ele>5</ele>
        <time>2021-07-31T08:28:51Z</time>
      </trkpt>
      <trkpt lat="46.6656" lon="-1.89904">
        <ele>4.8000001907349</ele>
        <time>2021-07-31T08:28:53Z</time>
      </trkpt>
      <trkpt lat="46.66553" lon="-1.89877">
        <ele>4.8000001907349</ele>
        <time>2021-07-31T08:28:57Z</time>
      </trkpt>
      <trkpt lat="46.66542" lon="-1.89745">
        <ele>3</ele>
        <time>2021-07-31T08:29:16Z</time>
      </trkpt>
      <trkpt lat="46.66557" lon="-1.8968">
        <ele>2.5999999046326</ele>
        <time>2021-07-31T08:29:25Z</time>
      </trkpt>
      <trkpt lat="46.66586" lon="-1.89598">
        <ele>2.4000000953674</ele>
        <time>2021-07-31T08:29:38Z</time>
      </trkpt>
      <trkpt lat="46.66627" lon="-1.89501">
        <ele>4.1999998092651</ele>
        <time>2021-07-31T08:30:00Z</time>
      </trkpt>
      <trkpt lat="46.6662" lon="-1.8947">
        <ele>4.8000001907349</ele>
        <time>2021-07-31T08:30:06Z</time>
      </trkpt>
      <trkpt lat="46.66593" lon="-1.89374">
        <ele>4.5999999046326</ele>
        <time>2021-07-31T08:30:20Z</time>
      </trkpt>
      <trkpt lat="46.66534" lon="-1.89251">
        <ele>2.5999999046326</ele>
        <time>2021-07-31T08:30:50Z</time>
      </trkpt>
      <trkpt lat="46.66546" lon="-1.89215">
        <ele>2.5999999046326</ele>
        <time>2021-07-31T08:30:55Z</time>
      </trkpt>
      <trkpt lat="46.66532" lon="-1.88958">
        <ele>3</ele>
        <time>2021-07-31T08:31:33Z</time>
      </trkpt>
      <trkpt lat="46.66607" lon="-1.88772">
        <ele>2.2000000476837</ele>
        <time>2021-07-31T08:32:06Z</time>
      </trkpt>
      <trkpt lat="46.66638" lon="-1.8874">
        <ele>2.2000000476837</ele>
        <time>2021-07-31T08:32:13Z</time>
      </trkpt>
      <trkpt lat="46.66675" lon="-1.88711">
        <ele>2.4000000953674</ele>
        <time>2021-07-31T08:32:21Z</time>
      </trkpt>
      <trkpt lat="46.66695" lon="-1.88697">
        <ele>2.2000000476837</ele>
        <time>2021-07-31T08:32:26Z</time>
      </trkpt>
      <trkpt lat="46.66769" lon="-1.88618">
        <ele>2.5999999046326</ele>
        <time>2021-07-31T08:33:01Z</time>
      </trkpt>
      <trkpt lat="46.66832" lon="-1.88459">
        <ele>3</ele>
        <time>2021-07-31T08:33:38Z</time>
      </trkpt>
      <trkpt lat="46.66835" lon="-1.88454">
        <ele>3</ele>
        <time>2021-07-31T08:33:39Z</time>
      </trkpt>
      <trkpt lat="46.66873" lon="-1.88394">
        <ele>1.3999999761581</ele>
        <time>2021-07-31T08:33:53Z</time>
      </trkpt>
      <trkpt lat="46.66924" lon="-1.88273">
        <ele>1.6000000238419</ele>
        <time>2021-07-31T08:34:21Z</time>
      </trkpt>
      <trkpt lat="46.66948" lon="-1.8825">
        <ele>2</ele>
        <time>2021-07-31T08:34:29Z</time>
      </trkpt>
      <trkpt lat="46.67008" lon="-1.88194">
        <ele>3.7999999523163</ele>
        <time>2021-07-31T08:34:48Z</time>
      </trkpt>
      <trkpt lat="46.67025" lon="-1.88177">
        <ele>4</ele>
        <time>2021-07-31T08:34:55Z</time>
      </trkpt>
      <trkpt lat="46.67094" lon="-1.88179">
        <ele>3.7999999523163</ele>
        <time>2021-07-31T08:35:11Z</time>
      </trkpt>
      <trkpt lat="46.67114" lon="-1.88199">
        <ele>3.7999999523163</ele>
        <time>2021-07-31T08:35:16Z</time>
      </trkpt>
      <trkpt lat="46.67156" lon="-1.88211">
        <ele>4.8000001907349</ele>
        <time>2021-07-31T08:35:29Z</time>
      </trkpt>
      <trkpt lat="46.67155" lon="-1.88196">
        <ele>5</ele>
        <time>2021-07-31T08:35:35Z</time>
      </trkpt>
      <trkpt lat="46.67163" lon="-1.88183">
        <ele>5</ele>
        <time>2021-07-31T08:35:41Z</time>
      </trkpt>
      <trkpt lat="46.67173" lon="-1.8817">
        <ele>4.8000001907349</ele>
        <time>2021-07-31T08:35:50Z</time>
      </trkpt>
      <trkpt lat="46.67176" lon="-1.88194">
        <ele>5.4000000953674</ele>
        <time>2021-07-31T08:36:01Z</time>
      </trkpt>
      <trkpt lat="46.67173" lon="-1.88229">
        <ele>5.4000000953674</ele>
        <time>2021-07-31T08:36:10Z</time>
      </trkpt>
      <trkpt lat="46.67209" lon="-1.8824">
        <ele>5.5999999046326</ele>
        <time>2021-07-31T08:36:23Z</time>
      </trkpt>
      <trkpt lat="46.67276" lon="-1.88252">
        <ele>7.1999998092651</ele>
        <time>2021-07-31T08:36:41Z</time>
      </trkpt>
      <trkpt lat="46.67305" lon="-1.88245">
        <ele>7.8000001907349</ele>
        <time>2021-07-31T08:36:50Z</time>
      </trkpt>
      <trkpt lat="46.67399" lon="-1.88153">
        <ele>10.800000190735</ele>
        <time>2021-07-31T08:37:26Z</time>
      </trkpt>
      <trkpt lat="46.67497" lon="-1.8807">
        <ele>12.800000190735</ele>
        <time>2021-07-31T08:38:02Z</time>
      </trkpt>
      <trkpt lat="46.67603" lon="-1.88074">
        <ele>14.60000038147</ele>
        <time>2021-07-31T08:38:36Z</time>
      </trkpt>
      <trkpt lat="46.67678" lon="-1.88013">
        <ele>17.60000038147</ele>
        <time>2021-07-31T08:39:05Z</time>
      </trkpt>
      <trkpt lat="46.6776" lon="-1.87955">
        <ele>20.799999237061</ele>
        <time>2021-07-31T08:39:36Z</time>
      </trkpt>
      <trkpt lat="46.67766" lon="-1.87945">
        <ele>21.200000762939</ele>
        <time>2021-07-31T08:40:09Z</time>
      </trkpt>
      <trkpt lat="46.67777" lon="-1.87936">
        <ele>21.200000762939</ele>
        <time>2021-07-31T08:40:51Z</time>
      </trkpt>
      <trkpt lat="46.67793" lon="-1.87928">
        <ele>21.200000762939</ele>
        <time>2021-07-31T08:40:56Z</time>
      </trkpt>
      <trkpt lat="46.6794" lon="-1.87824">
        <ele>24.200000762939</ele>
        <time>2021-07-31T08:41:38Z</time>
      </trkpt>
      <trkpt lat="46.68084" lon="-1.87793">
        <ele>26</ele>
        <time>2021-07-31T08:42:16Z</time>
      </trkpt>
      <trkpt lat="46.68093" lon="-1.87787">
        <ele>26</ele>
        <time>2021-07-31T08:42:18Z</time>
      </trkpt>
      <trkpt lat="46.68131" lon="-1.87767">
        <ele>26</ele>
        <time>2021-07-31T08:42:26Z</time>
      </trkpt>
      <trkpt lat="46.68564" lon="-1.87618">
        <ele>28</ele>
        <time>2021-07-31T08:43:50Z</time>
      </trkpt>
      <trkpt lat="46.68717" lon="-1.8764">
        <ele>27.39999961853</ele>
        <time>2021-07-31T08:44:19Z</time>
      </trkpt>
      <trkpt lat="46.68818" lon="-1.87706">
        <ele>26.60000038147</ele>
        <time>2021-07-31T08:44:39Z</time>
      </trkpt>
      <trkpt lat="46.68873" lon="-1.87745">
        <ele>26.60000038147</ele>
        <time>2021-07-31T08:44:50Z</time>
      </trkpt>
      <trkpt lat="46.68994" lon="-1.87716">
        <ele>26.200000762939</ele>
        <time>2021-07-31T08:45:12Z</time>
      </trkpt>
      <trkpt lat="46.69" lon="-1.87713">
        <ele>26.200000762939</ele>
        <time>2021-07-31T08:45:13Z</time>
      </trkpt>
      <trkpt lat="46.69251" lon="-1.87819">
        <ele>26.200000762939</ele>
        <time>2021-07-31T08:46:03Z</time>
      </trkpt>
      <trkpt lat="46.6926" lon="-1.87738">
        <ele>27.39999961853</ele>
        <time>2021-07-31T08:46:19Z</time>
      </trkpt>
      <trkpt lat="46.69256" lon="-1.87583">
        <ele>27.60000038147</ele>
        <time>2021-07-31T08:46:40Z</time>
      </trkpt>
      <trkpt lat="46.69238" lon="-1.87483">
        <ele>27.39999961853</ele>
        <time>2021-07-31T08:46:52Z</time>
      </trkpt>
      <trkpt lat="46.69277" lon="-1.87446">
        <ele>24.60000038147</ele>
        <time>2021-07-31T08:47:02Z</time>
      </trkpt>
      <trkpt lat="46.69287" lon="-1.87445">
        <ele>24</ele>
        <time>2021-07-31T08:47:04Z</time>
      </trkpt>
      <trkpt lat="46.69302" lon="-1.87371">
        <ele>27</ele>
        <time>2021-07-31T08:47:31Z</time>
      </trkpt>
      <trkpt lat="46.69292" lon="-1.87383">
        <ele>27.200000762939</ele>
        <time>2021-07-31T08:47:36Z</time>
      </trkpt>
      <trkpt lat="46.69267" lon="-1.87338">
        <ele>26.799999237061</ele>
        <time>2021-07-31T08:47:55Z</time>
      </trkpt>
      <trkpt lat="46.69244" lon="-1.86728">
        <ele>26.60000038147</ele>
        <time>2021-07-31T08:49:17Z</time>
      </trkpt>
      <trkpt lat="46.69288" lon="-1.86652">
        <ele>28</ele>
        <time>2021-07-31T08:49:45Z</time>
      </trkpt>
      <trkpt lat="46.69338" lon="-1.86649">
        <ele>28.60000038147</ele>
        <time>2021-07-31T08:50:00Z</time>
      </trkpt>
      <trkpt lat="46.69391" lon="-1.86628">
        <ele>29.60000038147</ele>
        <time>2021-07-31T08:50:15Z</time>
      </trkpt>
      <trkpt lat="46.69377" lon="-1.86556">
        <ele>29.60000038147</ele>
        <time>2021-07-31T08:50:28Z</time>
      </trkpt>
      <trkpt lat="46.69354" lon="-1.86481">
        <ele>30</ele>
        <time>2021-07-31T08:50:40Z</time>
      </trkpt>
      <trkpt lat="46.69357" lon="-1.86335">
        <ele>30.39999961853</ele>
        <time>2021-07-31T08:51:08Z</time>
      </trkpt>
      <trkpt lat="46.69478" lon="-1.86319">
        <ele>30.799999237061</ele>
        <time>2021-07-31T08:54:19Z</time>
      </trkpt>
      <trkpt lat="46.69732" lon="-1.86264">
        <ele>31</ele>
        <time>2021-07-31T08:55:25Z</time>
      </trkpt>
      <trkpt lat="46.69965" lon="-1.86224">
        <ele>29.200000762939</ele>
        <time>2021-07-31T08:56:08Z</time>
      </trkpt>
      <trkpt lat="46.7003" lon="-1.85899">
        <ele>28.39999961853</ele>
        <time>2021-07-31T08:56:56Z</time>
      </trkpt>
      <trkpt lat="46.70068" lon="-1.85672">
        <ele>26</ele>
        <time>2021-07-31T08:57:56Z</time>
      </trkpt>
      <trkpt lat="46.70068" lon="-1.85651">
        <ele>26</ele>
        <time>2021-07-31T08:58:02Z</time>
      </trkpt>
      <trkpt lat="46.70068" lon="-1.85618">
        <ele>25.799999237061</ele>
        <time>2021-07-31T08:58:09Z</time>
      </trkpt>
      <trkpt lat="46.7007" lon="-1.85498">
        <ele>25.39999961853</ele>
        <time>2021-07-31T08:58:26Z</time>
      </trkpt>
      <trkpt lat="46.70073" lon="-1.85406">
        <ele>24.60000038147</ele>
        <time>2021-07-31T08:58:39Z</time>
      </trkpt>
      <trkpt lat="46.70045" lon="-1.85279">
        <ele>24.799999237061</ele>
        <time>2021-07-31T08:58:57Z</time>
      </trkpt>
      <trkpt lat="46.70031" lon="-1.8518">
        <ele>24.200000762939</ele>
        <time>2021-07-31T08:59:11Z</time>
      </trkpt>
      <trkpt lat="46.70048" lon="-1.85074">
        <ele>25</ele>
        <time>2021-07-31T08:59:37Z</time>
      </trkpt>
      <trkpt lat="46.70033" lon="-1.84906">
        <ele>23.799999237061</ele>
        <time>2021-07-31T08:59:59Z</time>
      </trkpt>
      <trkpt lat="46.70009" lon="-1.84773">
        <ele>23.200000762939</ele>
        <time>2021-07-31T09:00:15Z</time>
      </trkpt>
      <trkpt lat="46.69974" lon="-1.84677">
        <ele>21</ele>
        <time>2021-07-31T09:00:26Z</time>
      </trkpt>
      <trkpt lat="46.6997" lon="-1.84667">
        <ele>21</ele>
        <time>2021-07-31T09:00:28Z</time>
      </trkpt>
      <trkpt lat="46.69934" lon="-1.84642">
        <ele>20.39999961853</ele>
        <time>2021-07-31T09:00:46Z</time>
      </trkpt>
      <trkpt lat="46.69913" lon="-1.84579">
        <ele>21.799999237061</ele>
        <time>2021-07-31T09:01:01Z</time>
      </trkpt>
      <trkpt lat="46.69924" lon="-1.8457">
        <ele>22</ele>
        <time>2021-07-31T09:01:07Z</time>
      </trkpt>
      <trkpt lat="46.69948" lon="-1.84555">
        <ele>22</ele>
        <time>2021-07-31T09:01:15Z</time>
      </trkpt>
      <trkpt lat="46.6993" lon="-1.84484">
        <ele>21.60000038147</ele>
        <time>2021-07-31T09:01:30Z</time>
      </trkpt>
      <trkpt lat="46.6992" lon="-1.84437">
        <ele>22.39999961853</ele>
        <time>2021-07-31T09:01:38Z</time>
      </trkpt>
      <trkpt lat="46.69916" lon="-1.84426">
        <ele>22.60000038147</ele>
        <time>2021-07-31T09:01:40Z</time>
      </trkpt>
      <trkpt lat="46.69886" lon="-1.84341">
        <ele>23</ele>
        <time>2021-07-31T09:01:54Z</time>
      </trkpt>
      <trkpt lat="46.69892" lon="-1.84126">
        <ele>23.60000038147</ele>
        <time>2021-07-31T09:02:22Z</time>
      </trkpt>
      <trkpt lat="46.699" lon="-1.84093">
        <ele>23.39999961853</ele>
        <time>2021-07-31T09:02:26Z</time>
      </trkpt>
      <trkpt lat="46.699" lon="-1.84026">
        <ele>23.60000038147</ele>
        <time>2021-07-31T09:02:34Z</time>
      </trkpt>
      <trkpt lat="46.69878" lon="-1.83874">
        <ele>20.60000038147</ele>
        <time>2021-07-31T09:03:00Z</time>
      </trkpt>
      <trkpt lat="46.69873" lon="-1.83854">
        <ele>19.799999237061</ele>
        <time>2021-07-31T09:03:09Z</time>
      </trkpt>
      <trkpt lat="46.69879" lon="-1.83863">
        <ele>19.200000762939</ele>
        <time>2021-07-31T09:03:15Z</time>
      </trkpt>
      <trkpt lat="46.69885" lon="-1.83932">
        <ele>20</ele>
        <time>2021-07-31T09:03:33Z</time>
      </trkpt>
      <trkpt lat="46.6987" lon="-1.83939">
        <ele>20.39999961853</ele>
        <time>2021-07-31T09:03:40Z</time>
      </trkpt>
      <trkpt lat="46.69808" lon="-1.83956">
        <ele>21.799999237061</ele>
        <time>2021-07-31T09:04:02Z</time>
      </trkpt>
      <trkpt lat="46.69769" lon="-1.84043">
        <ele>23.200000762939</ele>
        <time>2021-07-31T09:04:24Z</time>
      </trkpt>
      <trkpt lat="46.69747" lon="-1.84065">
        <ele>23.39999961853</ele>
        <time>2021-07-31T09:04:32Z</time>
      </trkpt>
      <trkpt lat="46.69699" lon="-1.83962">
        <ele>23.200000762939</ele>
        <time>2021-07-31T09:04:58Z</time>
      </trkpt>
      <trkpt lat="46.69689" lon="-1.83917">
        <ele>23</ele>
        <time>2021-07-31T09:05:04Z</time>
      </trkpt>
      <trkpt lat="46.69687" lon="-1.8391">
        <ele>22.799999237061</ele>
        <time>2021-07-31T09:05:05Z</time>
      </trkpt>
      <trkpt lat="46.69672" lon="-1.83863">
        <ele>20.60000038147</ele>
        <time>2021-07-31T09:05:18Z</time>
      </trkpt>
      <trkpt lat="46.69669" lon="-1.83859">
        <ele>20.60000038147</ele>
        <time>2021-07-31T09:05:19Z</time>
      </trkpt>
      <trkpt lat="46.69653" lon="-1.83821">
        <ele>20.39999961853</ele>
        <time>2021-07-31T09:05:25Z</time>
      </trkpt>
      <trkpt lat="46.69626" lon="-1.83756">
        <ele>17.39999961853</ele>
        <time>2021-07-31T09:05:38Z</time>
      </trkpt>
      <trkpt lat="46.69606" lon="-1.83709">
        <ele>15</ele>
        <time>2021-07-31T09:05:47Z</time>
      </trkpt>
      <trkpt lat="46.69579" lon="-1.83672">
        <ele>12.39999961853</ele>
        <time>2021-07-31T09:05:54Z</time>
      </trkpt>
      <trkpt lat="46.69562" lon="-1.83659">
        <ele>10.800000190735</ele>
        <time>2021-07-31T09:05:57Z</time>
      </trkpt>
      <trkpt lat="46.69577" lon="-1.836">
        <ele>8</ele>
        <time>2021-07-31T09:06:11Z</time>
      </trkpt>
      <trkpt lat="46.69602" lon="-1.8357">
        <ele>8</ele>
        <time>2021-07-31T09:06:18Z</time>
      </trkpt>
      <trkpt lat="46.69681" lon="-1.83532">
        <ele>7.1999998092651</ele>
        <time>2021-07-31T09:06:41Z</time>
      </trkpt>
      <trkpt lat="46.69687" lon="-1.83516">
        <ele>7.5999999046326</ele>
        <time>2021-07-31T09:06:44Z</time>
      </trkpt>
      <trkpt lat="46.69719" lon="-1.83402">
        <ele>7.5999999046326</ele>
        <time>2021-07-31T09:07:16Z</time>
      </trkpt>
      <trkpt lat="46.69727" lon="-1.83339">
        <ele>8.3999996185303</ele>
        <time>2021-07-31T09:07:27Z</time>
      </trkpt>
      <trkpt lat="46.69738" lon="-1.83247">
        <ele>9.8000001907349</ele>
        <time>2021-07-31T09:07:44Z</time>
      </trkpt>
      <trkpt lat="46.69772" lon="-1.83157">
        <ele>10.800000190735</ele>
        <time>2021-07-31T09:08:04Z</time>
      </trkpt>
      <trkpt lat="46.69784" lon="-1.83165">
        <ele>11.199999809265</ele>
        <time>2021-07-31T09:08:13Z</time>
      </trkpt>
      <trkpt lat="46.69802" lon="-1.83192">
        <ele>11.39999961853</ele>
        <time>2021-07-31T09:08:21Z</time>
      </trkpt>
      <trkpt lat="46.69845" lon="-1.8313">
        <ele>12.199999809265</ele>
        <time>2021-07-31T09:08:40Z</time>
      </trkpt>
      <trkpt lat="46.69893" lon="-1.83005">
        <ele>13.800000190735</ele>
        <time>2021-07-31T09:09:09Z</time>
      </trkpt>
      <trkpt lat="46.69989" lon="-1.82967">
        <ele>16.799999237061</ele>
        <time>2021-07-31T09:09:44Z</time>
      </trkpt>
      <trkpt lat="46.70211" lon="-1.8281">
        <ele>20.39999961853</ele>
        <time>2021-07-31T09:10:46Z</time>
      </trkpt>
      <trkpt lat="46.70313" lon="-1.82743">
        <ele>23.60000038147</ele>
        <time>2021-07-31T09:11:16Z</time>
      </trkpt>
      <trkpt lat="46.70351" lon="-1.82718">
        <ele>23.799999237061</ele>
        <time>2021-07-31T09:11:26Z</time>
      </trkpt>
      <trkpt lat="46.70378" lon="-1.82703">
        <ele>23.799999237061</ele>
        <time>2021-07-31T09:11:32Z</time>
      </trkpt>
      <trkpt lat="46.70411" lon="-1.82682">
        <ele>23.39999961853</ele>
        <time>2021-07-31T09:11:38Z</time>
      </trkpt>
      <trkpt lat="46.70418" lon="-1.82676">
        <ele>23.200000762939</ele>
        <time>2021-07-31T09:11:39Z</time>
      </trkpt>
      <trkpt lat="46.70514" lon="-1.82601">
        <ele>21.200000762939</ele>
        <time>2021-07-31T09:11:54Z</time>
      </trkpt>
      <trkpt lat="46.70625" lon="-1.82533">
        <ele>23.39999961853</ele>
        <time>2021-07-31T09:12:23Z</time>
      </trkpt>
      <trkpt lat="46.70712" lon="-1.82472">
        <ele>24.200000762939</ele>
        <time>2021-07-31T09:12:46Z</time>
      </trkpt>
      <trkpt lat="46.70741" lon="-1.82448">
        <ele>24.39999961853</ele>
        <time>2021-07-31T09:12:53Z</time>
      </trkpt>
      <trkpt lat="46.70779" lon="-1.82388">
        <ele>25</ele>
        <time>2021-07-31T09:13:05Z</time>
      </trkpt>
      <trkpt lat="46.70819" lon="-1.82318">
        <ele>25.200000762939</ele>
        <time>2021-07-31T09:13:18Z</time>
      </trkpt>
      <trkpt lat="46.70851" lon="-1.82253">
        <ele>25.60000038147</ele>
        <time>2021-07-31T09:13:29Z</time>
      </trkpt>
      <trkpt lat="46.71004" lon="-1.81806">
        <ele>26.39999961853</ele>
        <time>2021-07-31T09:14:39Z</time>
      </trkpt>
      <trkpt lat="46.71065" lon="-1.81713">
        <ele>23.200000762939</ele>
        <time>2021-07-31T09:14:52Z</time>
      </trkpt>
      <trkpt lat="46.71113" lon="-1.81679">
        <ele>22.200000762939</ele>
        <time>2021-07-31T09:14:59Z</time>
      </trkpt>
      <trkpt lat="46.7121" lon="-1.81709">
        <ele>18.799999237061</ele>
        <time>2021-07-31T09:15:11Z</time>
      </trkpt>
      <trkpt lat="46.71257" lon="-1.8175">
        <ele>17.39999961853</ele>
        <time>2021-07-31T09:15:18Z</time>
      </trkpt>
      <trkpt lat="46.71263" lon="-1.81756">
        <ele>17.200000762939</ele>
        <time>2021-07-31T09:15:19Z</time>
      </trkpt>
      <trkpt lat="46.71336" lon="-1.81819">
        <ele>16.60000038147</ele>
        <time>2021-07-31T09:15:34Z</time>
      </trkpt>
      <trkpt lat="46.71374" lon="-1.81845">
        <ele>16.60000038147</ele>
        <time>2021-07-31T09:15:44Z</time>
      </trkpt>
      <trkpt lat="46.71467" lon="-1.81865">
        <ele>19</ele>
        <time>2021-07-31T09:16:12Z</time>
      </trkpt>
      <trkpt lat="46.71495" lon="-1.81868">
        <ele>20.39999961853</ele>
        <time>2021-07-31T09:16:24Z</time>
      </trkpt>
      <trkpt lat="46.71566" lon="-1.81876">
        <ele>23.60000038147</ele>
        <time>2021-07-31T09:16:54Z</time>
      </trkpt>
      <trkpt lat="46.71625" lon="-1.81878">
        <ele>25.799999237061</ele>
        <time>2021-07-31T09:17:16Z</time>
      </trkpt>
      <trkpt lat="46.71666" lon="-1.81879">
        <ele>27.200000762939</ele>
        <time>2021-07-31T09:17:30Z</time>
      </trkpt>
      <trkpt lat="46.71788" lon="-1.81919">
        <ele>29.799999237061</ele>
        <time>2021-07-31T09:22:06Z</time>
      </trkpt>
      <trkpt lat="46.71894" lon="-1.81997">
        <ele>31</ele>
        <time>2021-07-31T09:22:38Z</time>
      </trkpt>
      <trkpt lat="46.72046" lon="-1.82027">
        <ele>32.400001525879</ele>
        <time>2021-07-31T09:23:15Z</time>
      </trkpt>
      <trkpt lat="46.72386" lon="-1.82088">
        <ele>34.799999237061</ele>
        <time>2021-07-31T09:24:33Z</time>
      </trkpt>
      <trkpt lat="46.72469" lon="-1.821">
        <ele>33.799999237061</ele>
        <time>2021-07-31T09:24:46Z</time>
      </trkpt>
      <trkpt lat="46.7266" lon="-1.82145">
        <ele>32.400001525879</ele>
        <time>2021-07-31T09:25:19Z</time>
      </trkpt>
      <trkpt lat="46.72776" lon="-1.82261">
        <ele>32.400001525879</ele>
        <time>2021-07-31T09:25:43Z</time>
      </trkpt>
      <trkpt lat="46.7287" lon="-1.82362">
        <ele>30.799999237061</ele>
        <time>2021-07-31T09:26:02Z</time>
      </trkpt>
      <trkpt lat="46.72913" lon="-1.82391">
        <ele>30.39999961853</ele>
        <time>2021-07-31T09:26:10Z</time>
      </trkpt>
      <trkpt lat="46.72995" lon="-1.82433">
        <ele>29.799999237061</ele>
        <time>2021-07-31T09:26:24Z</time>
      </trkpt>
      <trkpt lat="46.73031" lon="-1.82447">
        <ele>29.60000038147</ele>
        <time>2021-07-31T09:26:30Z</time>
      </trkpt>
      <trkpt lat="46.73069" lon="-1.82465">
        <ele>28.799999237061</ele>
        <time>2021-07-31T09:26:37Z</time>
      </trkpt>
      <trkpt lat="46.7312" lon="-1.82468">
        <ele>28.39999961853</ele>
        <time>2021-07-31T09:26:45Z</time>
      </trkpt>
      <trkpt lat="46.73128" lon="-1.82467">
        <ele>28.200000762939</ele>
        <time>2021-07-31T09:26:46Z</time>
      </trkpt>
      <trkpt lat="46.73141" lon="-1.82466">
        <ele>28</ele>
        <time>2021-07-31T09:26:48Z</time>
      </trkpt>
      <trkpt lat="46.73161" lon="-1.82467">
        <ele>27.60000038147</ele>
        <time>2021-07-31T09:26:52Z</time>
      </trkpt>
      <trkpt lat="46.73245" lon="-1.82451">
        <ele>26.39999961853</ele>
        <time>2021-07-31T09:27:09Z</time>
      </trkpt>
      <trkpt lat="46.73322" lon="-1.82431">
        <ele>26.200000762939</ele>
        <time>2021-07-31T09:27:22Z</time>
      </trkpt>
      <trkpt lat="46.73422" lon="-1.82416">
        <ele>24.60000038147</ele>
        <time>2021-07-31T09:27:39Z</time>
      </trkpt>
      <trkpt lat="46.7348" lon="-1.82421">
        <ele>24.200000762939</ele>
        <time>2021-07-31T09:27:48Z</time>
      </trkpt>
      <trkpt lat="46.73581" lon="-1.82409">
        <ele>21</ele>
        <time>2021-07-31T09:28:00Z</time>
      </trkpt>
      <trkpt lat="46.73623" lon="-1.82405">
        <ele>20.200000762939</ele>
        <time>2021-07-31T09:28:05Z</time>
      </trkpt>
      <trkpt lat="46.7366" lon="-1.82403">
        <ele>18</ele>
        <time>2021-07-31T09:28:10Z</time>
      </trkpt>
      <trkpt lat="46.73683" lon="-1.82393">
        <ele>16.799999237061</ele>
        <time>2021-07-31T09:28:14Z</time>
      </trkpt>
      <trkpt lat="46.73716" lon="-1.82365">
        <ele>14</ele>
        <time>2021-07-31T09:28:20Z</time>
      </trkpt>
      <trkpt lat="46.73774" lon="-1.82317">
        <ele>12.60000038147</ele>
        <time>2021-07-31T09:28:31Z</time>
      </trkpt>
      <trkpt lat="46.73855" lon="-1.82304">
        <ele>15.800000190735</ele>
        <time>2021-07-31T09:28:57Z</time>
      </trkpt>
      <trkpt lat="46.73887" lon="-1.82323">
        <ele>15.800000190735</ele>
        <time>2021-07-31T09:29:04Z</time>
      </trkpt>
      <trkpt lat="46.73909" lon="-1.82337">
        <ele>15.39999961853</ele>
        <time>2021-07-31T09:29:09Z</time>
      </trkpt>
      <trkpt lat="46.7399" lon="-1.82237">
        <ele>15</ele>
        <time>2021-07-31T09:29:36Z</time>
      </trkpt>
      <trkpt lat="46.74011" lon="-1.82154">
        <ele>16.39999961853</ele>
        <time>2021-07-31T09:29:53Z</time>
      </trkpt>
      <trkpt lat="46.7404" lon="-1.82137">
        <ele>17.200000762939</ele>
        <time>2021-07-31T09:30:02Z</time>
      </trkpt>
      <trkpt lat="46.74094" lon="-1.82122">
        <ele>17.39999961853</ele>
        <time>2021-07-31T09:30:18Z</time>
      </trkpt>
      <trkpt lat="46.74105" lon="-1.81998">
        <ele>16</ele>
        <time>2021-07-31T09:30:38Z</time>
      </trkpt>
      <trkpt lat="46.74087" lon="-1.81895">
        <ele>16</ele>
        <time>2021-07-31T09:30:52Z</time>
      </trkpt>
      <trkpt lat="46.74087" lon="-1.81803">
        <ele>16.60000038147</ele>
        <time>2021-07-31T09:31:05Z</time>
      </trkpt>
      <trkpt lat="46.7409" lon="-1.81778">
        <ele>17</ele>
        <time>2021-07-31T09:31:09Z</time>
      </trkpt>
      <trkpt lat="46.7409" lon="-1.81764">
        <ele>16.799999237061</ele>
        <time>2021-07-31T09:31:11Z</time>
      </trkpt>
      <trkpt lat="46.74093" lon="-1.81733">
        <ele>17.200000762939</ele>
        <time>2021-07-31T09:31:16Z</time>
      </trkpt>
      <trkpt lat="46.74089" lon="-1.8159">
        <ele>18</ele>
        <time>2021-07-31T09:31:41Z</time>
      </trkpt>
      <trkpt lat="46.74084" lon="-1.81537">
        <ele>18.60000038147</ele>
        <time>2021-07-31T09:31:49Z</time>
      </trkpt>
      <trkpt lat="46.74083" lon="-1.8151">
        <ele>18.799999237061</ele>
        <time>2021-07-31T09:31:53Z</time>
      </trkpt>
      <trkpt lat="46.74081" lon="-1.81423">
        <ele>20.60000038147</ele>
        <time>2021-07-31T09:32:07Z</time>
      </trkpt>
      <trkpt lat="46.7408" lon="-1.81334">
        <ele>21.39999961853</ele>
        <time>2021-07-31T09:32:22Z</time>
      </trkpt>
      <trkpt lat="46.74092" lon="-1.81265">
        <ele>22.39999961853</ele>
        <time>2021-07-31T09:32:34Z</time>
      </trkpt>
      <trkpt lat="46.74098" lon="-1.81248">
        <ele>22.39999961853</ele>
        <time>2021-07-31T09:32:37Z</time>
      </trkpt>
      <trkpt lat="46.74105" lon="-1.81223">
        <ele>22.39999961853</ele>
        <time>2021-07-31T09:32:41Z</time>
      </trkpt>
      <trkpt lat="46.74117" lon="-1.81173">
        <ele>22.39999961853</ele>
        <time>2021-07-31T09:32:48Z</time>
      </trkpt>
      <trkpt lat="46.74176" lon="-1.80916">
        <ele>22.799999237061</ele>
        <time>2021-07-31T09:33:26Z</time>
      </trkpt>
      <trkpt lat="46.74287" lon="-1.80657">
        <ele>20.799999237061</ele>
        <time>2021-07-31T09:34:03Z</time>
      </trkpt>
      <trkpt lat="46.74386" lon="-1.80519">
        <ele>21.60000038147</ele>
        <time>2021-07-31T09:34:29Z</time>
      </trkpt>
      <trkpt lat="46.74406" lon="-1.80498">
        <ele>21.200000762939</ele>
        <time>2021-07-31T09:34:33Z</time>
      </trkpt>
      <trkpt lat="46.74489" lon="-1.80358">
        <ele>20.39999961853</ele>
        <time>2021-07-31T09:34:56Z</time>
      </trkpt>
      <trkpt lat="46.74563" lon="-1.80252">
        <ele>19.39999961853</ele>
        <time>2021-07-31T09:35:12Z</time>
      </trkpt>
      <trkpt lat="46.74604" lon="-1.80162">
        <ele>18.799999237061</ele>
        <time>2021-07-31T09:35:23Z</time>
      </trkpt>
      <trkpt lat="46.74608" lon="-1.80145">
        <ele>18.60000038147</ele>
        <time>2021-07-31T09:35:25Z</time>
      </trkpt>
      <trkpt lat="46.7461" lon="-1.80102">
        <ele>18.60000038147</ele>
        <time>2021-07-31T09:35:30Z</time>
      </trkpt>
      <trkpt lat="46.74617" lon="-1.80037">
        <ele>18.39999961853</ele>
        <time>2021-07-31T09:35:38Z</time>
      </trkpt>
      <trkpt lat="46.74625" lon="-1.79887">
        <ele>17</ele>
        <time>2021-07-31T09:35:54Z</time>
      </trkpt>
      <trkpt lat="46.74628" lon="-1.7984">
        <ele>15.800000190735</ele>
        <time>2021-07-31T09:35:59Z</time>
      </trkpt>
      <trkpt lat="46.74625" lon="-1.79821">
        <ele>15.60000038147</ele>
        <time>2021-07-31T09:36:01Z</time>
      </trkpt>
      <trkpt lat="46.7461" lon="-1.79759">
        <ele>15.39999961853</ele>
        <time>2021-07-31T09:36:10Z</time>
      </trkpt>
      <trkpt lat="46.74574" lon="-1.79613">
        <ele>16.39999961853</ele>
        <time>2021-07-31T09:36:32Z</time>
      </trkpt>
      <trkpt lat="46.7456" lon="-1.79588">
        <ele>16.39999961853</ele>
        <time>2021-07-31T09:36:37Z</time>
      </trkpt>
      <trkpt lat="46.74548" lon="-1.79568">
        <ele>16.39999961853</ele>
        <time>2021-07-31T09:36:42Z</time>
      </trkpt>
      <trkpt lat="46.74485" lon="-1.79392">
        <ele>16.39999961853</ele>
        <time>2021-07-31T09:37:26Z</time>
      </trkpt>
      <trkpt lat="46.74473" lon="-1.79376">
        <ele>16.799999237061</ele>
        <time>2021-07-31T09:37:30Z</time>
      </trkpt>
      <trkpt lat="46.74432" lon="-1.79333">
        <ele>18.200000762939</ele>
        <time>2021-07-31T09:37:47Z</time>
      </trkpt>
      <trkpt lat="46.74417" lon="-1.7934">
        <ele>17.200000762939</ele>
        <time>2021-07-31T09:38:25Z</time>
      </trkpt>
      <trkpt lat="46.74405" lon="-1.79342">
        <ele>17.60000038147</ele>
        <time>2021-07-31T09:39:36Z</time>
      </trkpt>
      <trkpt lat="46.74394" lon="-1.79349">
        <ele>17.799999237061</ele>
        <time>2021-07-31T09:40:00Z</time>
      </trkpt>
      <trkpt lat="46.74399" lon="-1.79355">
        <ele>17.39999961853</ele>
        <time>2021-07-31T09:40:48Z</time>
      </trkpt>
      <trkpt lat="46.74396" lon="-1.79355">
        <ele>17.39999961853</ele>
        <time>2021-07-31T09:40:54Z</time>
      </trkpt>
      <trkpt lat="46.74414" lon="-1.79323">
        <ele>19.799999237061</ele>
        <time>2021-07-31T09:53:17Z</time>
      </trkpt>
      <trkpt lat="46.74409" lon="-1.79318">
        <ele>19.60000038147</ele>
        <time>2021-07-31T09:53:20Z</time>
      </trkpt>
      <trkpt lat="46.74392" lon="-1.79309">
        <ele>19.799999237061</ele>
        <time>2021-07-31T09:53:26Z</time>
      </trkpt>
      <trkpt lat="46.74282" lon="-1.79279">
        <ele>22.799999237061</ele>
        <time>2021-07-31T09:54:00Z</time>
      </trkpt>
      <trkpt lat="46.74149" lon="-1.79229">
        <ele>26.200000762939</ele>
        <time>2021-07-31T09:54:43Z</time>
      </trkpt>
      <trkpt lat="46.73811" lon="-1.79079">
        <ele>23.200000762939</ele>
        <time>2021-07-31T09:55:53Z</time>
      </trkpt>
      <trkpt lat="46.73677" lon="-1.78995">
        <ele>19.200000762939</ele>
        <time>2021-07-31T09:56:10Z</time>
      </trkpt>
      <trkpt lat="46.73642" lon="-1.78977">
        <ele>18.200000762939</ele>
        <time>2021-07-31T09:56:15Z</time>
      </trkpt>
      <trkpt lat="46.73489" lon="-1.78899">
        <ele>21.39999961853</ele>
        <time>2021-07-31T09:56:57Z</time>
      </trkpt>
      <trkpt lat="46.73426" lon="-1.78858">
        <ele>23</ele>
        <time>2021-07-31T09:57:14Z</time>
      </trkpt>
      <trkpt lat="46.73284" lon="-1.78776">
        <ele>26.200000762939</ele>
        <time>2021-07-31T09:57:52Z</time>
      </trkpt>
      <trkpt lat="46.73196" lon="-1.78686">
        <ele>28.39999961853</ele>
        <time>2021-07-31T09:58:19Z</time>
      </trkpt>
      <trkpt lat="46.73148" lon="-1.78622">
        <ele>29.39999961853</ele>
        <time>2021-07-31T09:58:34Z</time>
      </trkpt>
      <trkpt lat="46.73142" lon="-1.78615">
        <ele>29.39999961853</ele>
        <time>2021-07-31T09:58:36Z</time>
      </trkpt>
      <trkpt lat="46.73114" lon="-1.78585">
        <ele>30.200000762939</ele>
        <time>2021-07-31T09:58:45Z</time>
      </trkpt>
      <trkpt lat="46.73102" lon="-1.78576">
        <ele>30.60000038147</ele>
        <time>2021-07-31T09:58:48Z</time>
      </trkpt>
      <trkpt lat="46.73074" lon="-1.78557">
        <ele>31.39999961853</ele>
        <time>2021-07-31T09:58:55Z</time>
      </trkpt>
      <trkpt lat="46.72886" lon="-1.78459">
        <ele>34.400001525879</ele>
        <time>2021-07-31T09:59:38Z</time>
      </trkpt>
      <trkpt lat="46.72652" lon="-1.78335">
        <ele>37.400001525879</ele>
        <time>2021-07-31T10:00:30Z</time>
      </trkpt>
      <trkpt lat="46.72603" lon="-1.7831">
        <ele>38.200000762939</ele>
        <time>2021-07-31T10:00:42Z</time>
      </trkpt>
      <trkpt lat="46.72433" lon="-1.78218">
        <ele>41.599998474121</ele>
        <time>2021-07-31T10:01:22Z</time>
      </trkpt>
      <trkpt lat="46.72382" lon="-1.78174">
        <ele>42.200000762939</ele>
        <time>2021-07-31T10:01:35Z</time>
      </trkpt>
      <trkpt lat="46.72294" lon="-1.78086">
        <ele>42.200000762939</ele>
        <time>2021-07-31T10:01:56Z</time>
      </trkpt>
      <trkpt lat="46.72147" lon="-1.77994">
        <ele>42.400001525879</ele>
        <time>2021-07-31T10:02:23Z</time>
      </trkpt>
      <trkpt lat="46.71777" lon="-1.77871">
        <ele>44.400001525879</ele>
        <time>2021-07-31T10:03:34Z</time>
      </trkpt>
      <trkpt lat="46.71657" lon="-1.77771">
        <ele>45</ele>
        <time>2021-07-31T10:04:00Z</time>
      </trkpt>
      <trkpt lat="46.71386" lon="-1.77495">
        <ele>47</ele>
        <time>2021-07-31T10:05:01Z</time>
      </trkpt>
      <trkpt lat="46.71283" lon="-1.77317">
        <ele>48.799999237061</ele>
        <time>2021-07-31T10:05:30Z</time>
      </trkpt>
      <trkpt lat="46.71121" lon="-1.77086">
        <ele>52</ele>
        <time>2021-07-31T10:06:18Z</time>
      </trkpt>
      <trkpt lat="46.71118" lon="-1.77082">
        <ele>51.799999237061</ele>
        <time>2021-07-31T10:06:20Z</time>
      </trkpt>
      <trkpt lat="46.71067" lon="-1.76987">
        <ele>51.200000762939</ele>
        <time>2021-07-31T10:06:42Z</time>
      </trkpt>
      <trkpt lat="46.70762" lon="-1.76614">
        <ele>53.599998474121</ele>
        <time>2021-07-31T10:08:00Z</time>
      </trkpt>
      <trkpt lat="46.70846" lon="-1.76514">
        <ele>53.599998474121</ele>
        <time>2021-07-31T10:08:24Z</time>
      </trkpt>
      <trkpt lat="46.70982" lon="-1.76391">
        <ele>52.799999237061</ele>
        <time>2021-07-31T10:08:50Z</time>
      </trkpt>
      <trkpt lat="46.70985" lon="-1.7637">
        <ele>52.400001525879</ele>
        <time>2021-07-31T10:08:54Z</time>
      </trkpt>
      <trkpt lat="46.70982" lon="-1.76351">
        <ele>52</ele>
        <time>2021-07-31T10:08:58Z</time>
      </trkpt>
      <trkpt lat="46.7111" lon="-1.76256">
        <ele>51.400001525879</ele>
        <time>2021-07-31T10:09:27Z</time>
      </trkpt>
      <trkpt lat="46.71276" lon="-1.76181">
        <ele>50.599998474121</ele>
        <time>2021-07-31T10:09:57Z</time>
      </trkpt>
      <trkpt lat="46.7133" lon="-1.76179">
        <ele>50.400001525879</ele>
        <time>2021-07-31T10:10:06Z</time>
      </trkpt>
      <trkpt lat="46.7132" lon="-1.7613">
        <ele>49.599998474121</ele>
        <time>2021-07-31T10:10:23Z</time>
      </trkpt>
      <trkpt lat="46.71088" lon="-1.75918">
        <ele>49.400001525879</ele>
        <time>2021-07-31T10:11:14Z</time>
      </trkpt>
      <trkpt lat="46.71059" lon="-1.75862">
        <ele>48.400001525879</ele>
        <time>2021-07-31T10:11:27Z</time>
      </trkpt>
      <trkpt lat="46.71025" lon="-1.75818">
        <ele>47.599998474121</ele>
        <time>2021-07-31T10:11:36Z</time>
      </trkpt>
      <trkpt lat="46.70976" lon="-1.75769">
        <ele>48.799999237061</ele>
        <time>2021-07-31T10:12:02Z</time>
      </trkpt>
      <trkpt lat="46.70831" lon="-1.75629">
        <ele>50.400001525879</ele>
        <time>2021-07-31T10:12:49Z</time>
      </trkpt>
      <trkpt lat="46.7074" lon="-1.75566">
        <ele>52</ele>
        <time>2021-07-31T10:15:47Z</time>
      </trkpt>
      <trkpt lat="46.70722" lon="-1.75557">
        <ele>52.200000762939</ele>
        <time>2021-07-31T10:15:54Z</time>
      </trkpt>
      <trkpt lat="46.70694" lon="-1.75539">
        <ele>52.599998474121</ele>
        <time>2021-07-31T10:16:12Z</time>
      </trkpt>
      <trkpt lat="46.70469" lon="-1.75327">
        <ele>55.799999237061</ele>
        <time>2021-07-31T10:17:23Z</time>
      </trkpt>
      <trkpt lat="46.70282" lon="-1.7511">
        <ele>57.200000762939</ele>
        <time>2021-07-31T10:18:21Z</time>
      </trkpt>
      <trkpt lat="46.7023" lon="-1.7501">
        <ele>57</ele>
        <time>2021-07-31T10:18:38Z</time>
      </trkpt>
      <trkpt lat="46.70207" lon="-1.74963">
        <ele>56.799999237061</ele>
        <time>2021-07-31T10:18:46Z</time>
      </trkpt>
      <trkpt lat="46.70177" lon="-1.74884">
        <ele>57</ele>
        <time>2021-07-31T10:19:00Z</time>
      </trkpt>
      <trkpt lat="46.70161" lon="-1.74846">
        <ele>57</ele>
        <time>2021-07-31T10:19:08Z</time>
      </trkpt>
      <trkpt lat="46.70131" lon="-1.74692">
        <ele>57.400001525879</ele>
        <time>2021-07-31T10:19:32Z</time>
      </trkpt>
      <trkpt lat="46.7012" lon="-1.74578">
        <ele>57.599998474121</ele>
        <time>2021-07-31T10:19:48Z</time>
      </trkpt>
      <trkpt lat="46.70157" lon="-1.74523">
        <ele>56.799999237061</ele>
        <time>2021-07-31T10:20:05Z</time>
      </trkpt>
      <trkpt lat="46.70189" lon="-1.74514">
        <ele>56.599998474121</ele>
        <time>2021-07-31T10:20:12Z</time>
      </trkpt>
      <trkpt lat="46.70203" lon="-1.74495">
        <ele>56.799999237061</ele>
        <time>2021-07-31T10:20:17Z</time>
      </trkpt>
      <trkpt lat="46.70214" lon="-1.74444">
        <ele>56.200000762939</ele>
        <time>2021-07-31T10:20:24Z</time>
      </trkpt>
      <trkpt lat="46.70225" lon="-1.74384">
        <ele>56</ele>
        <time>2021-07-31T10:20:31Z</time>
      </trkpt>
      <trkpt lat="46.70236" lon="-1.74318">
        <ele>56.200000762939</ele>
        <time>2021-07-31T10:20:39Z</time>
      </trkpt>
      <trkpt lat="46.7028" lon="-1.74068">
        <ele>56.599998474121</ele>
        <time>2021-07-31T10:21:28Z</time>
      </trkpt>
      <trkpt lat="46.70322" lon="-1.73802">
        <ele>57.799999237061</ele>
        <time>2021-07-31T10:22:08Z</time>
      </trkpt>
      <trkpt lat="46.70385" lon="-1.73725">
        <ele>57.599998474121</ele>
        <time>2021-07-31T10:22:23Z</time>
      </trkpt>
      <trkpt lat="46.70497" lon="-1.73588">
        <ele>57.799999237061</ele>
        <time>2021-07-31T10:22:49Z</time>
      </trkpt>
      <trkpt lat="46.70542" lon="-1.73519">
        <ele>57.400001525879</ele>
        <time>2021-07-31T10:23:00Z</time>
      </trkpt>
      <trkpt lat="46.70721" lon="-1.7321">
        <ele>54.400001525879</ele>
        <time>2021-07-31T10:23:41Z</time>
      </trkpt>
      <trkpt lat="46.70725" lon="-1.73203">
        <ele>54.400001525879</ele>
        <time>2021-07-31T10:23:42Z</time>
      </trkpt>
      <trkpt lat="46.70756" lon="-1.73157">
        <ele>54.200000762939</ele>
        <time>2021-07-31T10:23:49Z</time>
      </trkpt>
      <trkpt lat="46.70829" lon="-1.73044">
        <ele>53.200000762939</ele>
        <time>2021-07-31T10:24:09Z</time>
      </trkpt>
      <trkpt lat="46.70944" lon="-1.72911">
        <ele>52.200000762939</ele>
        <time>2021-07-31T10:24:36Z</time>
      </trkpt>
      <trkpt lat="46.70969" lon="-1.72873">
        <ele>51.200000762939</ele>
        <time>2021-07-31T10:24:46Z</time>
      </trkpt>
      <trkpt lat="46.70971" lon="-1.72859">
        <ele>50.400001525879</ele>
        <time>2021-07-31T10:24:54Z</time>
      </trkpt>
      <trkpt lat="46.70929" lon="-1.72845">
        <ele>50.599998474121</ele>
        <time>2021-07-31T10:25:06Z</time>
      </trkpt>
      <trkpt lat="46.70708" lon="-1.72773">
        <ele>49.799999237061</ele>
        <time>2021-07-31T10:25:53Z</time>
      </trkpt>
      <trkpt lat="46.70608" lon="-1.72625">
        <ele>50.200000762939</ele>
        <time>2021-07-31T10:26:19Z</time>
      </trkpt>
      <trkpt lat="46.70586" lon="-1.72568">
        <ele>50.400001525879</ele>
        <time>2021-07-31T10:26:30Z</time>
      </trkpt>
      <trkpt lat="46.70603" lon="-1.72502">
        <ele>51.799999237061</ele>
        <time>2021-07-31T10:26:46Z</time>
      </trkpt>
      <trkpt lat="46.70607" lon="-1.72484">
        <ele>51.799999237061</ele>
        <time>2021-07-31T10:26:49Z</time>
      </trkpt>
      <trkpt lat="46.70624" lon="-1.72427">
        <ele>52.200000762939</ele>
        <time>2021-07-31T10:26:58Z</time>
      </trkpt>
      <trkpt lat="46.70657" lon="-1.72317">
        <ele>52.200000762939</ele>
        <time>2021-07-31T10:27:13Z</time>
      </trkpt>
      <trkpt lat="46.70673" lon="-1.72255">
        <ele>52.400001525879</ele>
        <time>2021-07-31T10:27:21Z</time>
      </trkpt>
      <trkpt lat="46.70722" lon="-1.72092">
        <ele>52.400001525879</ele>
        <time>2021-07-31T10:27:42Z</time>
      </trkpt>
      <trkpt lat="46.70734" lon="-1.72043">
        <ele>52.400001525879</ele>
        <time>2021-07-31T10:27:49Z</time>
      </trkpt>
      <trkpt lat="46.70748" lon="-1.71998">
        <ele>52</ele>
        <time>2021-07-31T10:28:00Z</time>
      </trkpt>
      <trkpt lat="46.70777" lon="-1.7188">
        <ele>52.400001525879</ele>
        <time>2021-07-31T10:28:18Z</time>
      </trkpt>
      <trkpt lat="46.70952" lon="-1.71226">
        <ele>49.400001525879</ele>
        <time>2021-07-31T10:29:43Z</time>
      </trkpt>
      <trkpt lat="46.7115" lon="-1.70507">
        <ele>48.799999237061</ele>
        <time>2021-07-31T10:31:20Z</time>
      </trkpt>
      <trkpt lat="46.71326" lon="-1.69872">
        <ele>50</ele>
        <time>2021-07-31T10:32:40Z</time>
      </trkpt>
      <trkpt lat="46.71344" lon="-1.69792">
        <ele>50.400001525879</ele>
        <time>2021-07-31T10:32:51Z</time>
      </trkpt>
      <trkpt lat="46.7145" lon="-1.69398">
        <ele>52.599998474121</ele>
        <time>2021-07-31T10:33:53Z</time>
      </trkpt>
      <trkpt lat="46.7153" lon="-1.69098">
        <ele>52.599998474121</ele>
        <time>2021-07-31T10:34:33Z</time>
      </trkpt>
      <trkpt lat="46.71543" lon="-1.69051">
        <ele>52</ele>
        <time>2021-07-31T10:34:40Z</time>
      </trkpt>
      <trkpt lat="46.71675" lon="-1.68563">
        <ele>48.799999237061</ele>
        <time>2021-07-31T10:35:46Z</time>
      </trkpt>
      <trkpt lat="46.71685" lon="-1.68532">
        <ele>48.599998474121</ele>
        <time>2021-07-31T10:35:52Z</time>
      </trkpt>
      <trkpt lat="46.71698" lon="-1.68476">
        <ele>48.400001525879</ele>
        <time>2021-07-31T10:36:00Z</time>
      </trkpt>
      <trkpt lat="46.71926" lon="-1.67603">
        <ele>50.400001525879</ele>
        <time>2021-07-31T10:37:46Z</time>
      </trkpt>
      <trkpt lat="46.71935" lon="-1.67311">
        <ele>51.799999237061</ele>
        <time>2021-07-31T10:38:35Z</time>
      </trkpt>
      <trkpt lat="46.71921" lon="-1.67279">
        <ele>51.400001525879</ele>
        <time>2021-07-31T10:38:43Z</time>
      </trkpt>
      <trkpt lat="46.7194" lon="-1.67181">
        <ele>52.400001525879</ele>
        <time>2021-07-31T10:39:04Z</time>
      </trkpt>
      <trkpt lat="46.71948" lon="-1.67163">
        <ele>53.599998474121</ele>
        <time>2021-07-31T10:42:30Z</time>
      </trkpt>
      <trkpt lat="46.71919" lon="-1.66984">
        <ele>54.799999237061</ele>
        <time>2021-07-31T10:43:15Z</time>
      </trkpt>
      <trkpt lat="46.71902" lon="-1.66724">
        <ele>56.799999237061</ele>
        <time>2021-07-31T10:43:58Z</time>
      </trkpt>
      <trkpt lat="46.71902" lon="-1.66658">
        <ele>57</ele>
        <time>2021-07-31T10:44:06Z</time>
      </trkpt>
      <trkpt lat="46.7189" lon="-1.66497">
        <ele>57.200000762939</ele>
        <time>2021-07-31T10:44:27Z</time>
      </trkpt>
      <trkpt lat="46.71887" lon="-1.66418">
        <ele>57</ele>
        <time>2021-07-31T10:44:35Z</time>
      </trkpt>
      <trkpt lat="46.71885" lon="-1.66199">
        <ele>56.200000762939</ele>
        <time>2021-07-31T10:44:59Z</time>
      </trkpt>
      <trkpt lat="46.71869" lon="-1.6601">
        <ele>55.599998474121</ele>
        <time>2021-07-31T10:45:20Z</time>
      </trkpt>
      <trkpt lat="46.71868" lon="-1.66">
        <ele>55.799999237061</ele>
        <time>2021-07-31T10:45:21Z</time>
      </trkpt>
      <trkpt lat="46.71869" lon="-1.65849">
        <ele>55.799999237061</ele>
        <time>2021-07-31T10:45:36Z</time>
      </trkpt>
      <trkpt lat="46.71741" lon="-1.6506">
        <ele>53.599998474121</ele>
        <time>2021-07-31T10:47:04Z</time>
      </trkpt>
      <trkpt lat="46.71708" lon="-1.64975">
        <ele>51.799999237061</ele>
        <time>2021-07-31T10:47:19Z</time>
      </trkpt>
      <trkpt lat="46.71468" lon="-1.64456">
        <ele>50.799999237061</ele>
        <time>2021-07-31T10:48:37Z</time>
      </trkpt>
      <trkpt lat="46.71379" lon="-1.64238">
        <ele>50.799999237061</ele>
        <time>2021-07-31T10:49:07Z</time>
      </trkpt>
      <trkpt lat="46.71356" lon="-1.64109">
        <ele>50.400001525879</ele>
        <time>2021-07-31T10:49:21Z</time>
      </trkpt>
      <trkpt lat="46.71334" lon="-1.63697">
        <ele>49.400001525879</ele>
        <time>2021-07-31T10:50:06Z</time>
      </trkpt>
      <trkpt lat="46.71348" lon="-1.63565">
        <ele>49.599998474121</ele>
        <time>2021-07-31T10:50:20Z</time>
      </trkpt>
      <trkpt lat="46.71376" lon="-1.63386">
        <ele>50</ele>
        <time>2021-07-31T10:50:41Z</time>
      </trkpt>
      <trkpt lat="46.71409" lon="-1.63257">
        <ele>50.599998474121</ele>
        <time>2021-07-31T10:50:58Z</time>
      </trkpt>
      <trkpt lat="46.71459" lon="-1.63123">
        <ele>51.200000762939</ele>
        <time>2021-07-31T10:51:16Z</time>
      </trkpt>
      <trkpt lat="46.71793" lon="-1.62595">
        <ele>52</ele>
        <time>2021-07-31T10:52:45Z</time>
      </trkpt>
      <trkpt lat="46.7206" lon="-1.62243">
        <ele>54</ele>
        <time>2021-07-31T10:53:48Z</time>
      </trkpt>
      <trkpt lat="46.72275" lon="-1.61964">
        <ele>56.799999237061</ele>
        <time>2021-07-31T10:54:42Z</time>
      </trkpt>
      <trkpt lat="46.72352" lon="-1.6182">
        <ele>56.400001525879</ele>
        <time>2021-07-31T10:55:06Z</time>
      </trkpt>
      <trkpt lat="46.72366" lon="-1.61783">
        <ele>56.400001525879</ele>
        <time>2021-07-31T10:55:12Z</time>
      </trkpt>
      <trkpt lat="46.72397" lon="-1.61725">
        <ele>56.599998474121</ele>
        <time>2021-07-31T10:55:23Z</time>
      </trkpt>
      <trkpt lat="46.72472" lon="-1.61559">
        <ele>58.400001525879</ele>
        <time>2021-07-31T10:55:49Z</time>
      </trkpt>
      <trkpt lat="46.72495" lon="-1.61491">
        <ele>59.200000762939</ele>
        <time>2021-07-31T10:56:00Z</time>
      </trkpt>
      <trkpt lat="46.72547" lon="-1.6131">
        <ele>60.400001525879</ele>
        <time>2021-07-31T10:56:39Z</time>
      </trkpt>
      <trkpt lat="46.72593" lon="-1.61142">
        <ele>61.400001525879</ele>
        <time>2021-07-31T10:57:04Z</time>
      </trkpt>
      <trkpt lat="46.72635" lon="-1.61012">
        <ele>61.599998474121</ele>
        <time>2021-07-31T10:57:23Z</time>
      </trkpt>
      <trkpt lat="46.72743" lon="-1.60813">
        <ele>61</ele>
        <time>2021-07-31T10:57:53Z</time>
      </trkpt>
      <trkpt lat="46.72757" lon="-1.60794">
        <ele>60.799999237061</ele>
        <time>2021-07-31T10:57:57Z</time>
      </trkpt>
      <trkpt lat="46.72803" lon="-1.60749">
        <ele>60.799999237061</ele>
        <time>2021-07-31T10:58:05Z</time>
      </trkpt>
      <trkpt lat="46.72849" lon="-1.60706">
        <ele>60.599998474121</ele>
        <time>2021-07-31T10:58:14Z</time>
      </trkpt>
      <trkpt lat="46.72957" lon="-1.60633">
        <ele>58.599998474121</ele>
        <time>2021-07-31T10:58:39Z</time>
      </trkpt>
      <trkpt lat="46.73008" lon="-1.60609">
        <ele>58.599998474121</ele>
        <time>2021-07-31T10:58:52Z</time>
      </trkpt>
      <trkpt lat="46.73086" lon="-1.60587">
        <ele>59</ele>
        <time>2021-07-31T10:59:11Z</time>
      </trkpt>
      <trkpt lat="46.73126" lon="-1.60584">
        <ele>59.400001525879</ele>
        <time>2021-07-31T10:59:19Z</time>
      </trkpt>
      <trkpt lat="46.73313" lon="-1.60565">
        <ele>61.400001525879</ele>
        <time>2021-07-31T11:00:08Z</time>
      </trkpt>
      <trkpt lat="46.73337" lon="-1.60565">
        <ele>61.599998474121</ele>
        <time>2021-07-31T11:00:14Z</time>
      </trkpt>
      <trkpt lat="46.73414" lon="-1.60554">
        <ele>62.599998474121</ele>
        <time>2021-07-31T11:00:33Z</time>
      </trkpt>
      <trkpt lat="46.73488" lon="-1.60538">
        <ele>63.599998474121</ele>
        <time>2021-07-31T11:00:49Z</time>
      </trkpt>
      <trkpt lat="46.73589" lon="-1.60514">
        <ele>64.800003051758</ele>
        <time>2021-07-31T11:01:05Z</time>
      </trkpt>
      <trkpt lat="46.73647" lon="-1.60488">
        <ele>65.800003051758</ele>
        <time>2021-07-31T11:01:17Z</time>
      </trkpt>
      <trkpt lat="46.73681" lon="-1.60474">
        <ele>66.199996948242</ele>
        <time>2021-07-31T11:01:25Z</time>
      </trkpt>
      <trkpt lat="46.7369" lon="-1.60467">
        <ele>66.199996948242</ele>
        <time>2021-07-31T11:01:27Z</time>
      </trkpt>
      <trkpt lat="46.73818" lon="-1.60386">
        <ele>67.199996948242</ele>
        <time>2021-07-31T11:02:08Z</time>
      </trkpt>
      <trkpt lat="46.73825" lon="-1.60366">
        <ele>67.199996948242</ele>
        <time>2021-07-31T11:02:35Z</time>
      </trkpt>
      <trkpt lat="46.73833" lon="-1.60417">
        <ele>67</ele>
        <time>2021-07-31T11:03:11Z</time>
      </trkpt>
      <trkpt lat="46.73848" lon="-1.60462">
        <ele>66.800003051758</ele>
        <time>2021-07-31T11:03:19Z</time>
      </trkpt>
      <trkpt lat="46.73857" lon="-1.60485">
        <ele>66.400001525879</ele>
        <time>2021-07-31T11:03:24Z</time>
      </trkpt>
      <trkpt lat="46.73887" lon="-1.60571">
        <ele>65.400001525879</ele>
        <time>2021-07-31T11:03:38Z</time>
      </trkpt>
      <trkpt lat="46.73901" lon="-1.6061">
        <ele>63.200000762939</ele>
        <time>2021-07-31T11:03:45Z</time>
      </trkpt>
      <trkpt lat="46.73903" lon="-1.60618">
        <ele>63</ele>
        <time>2021-07-31T11:03:46Z</time>
      </trkpt>
      <trkpt lat="46.73918" lon="-1.60667">
        <ele>62.400001525879</ele>
        <time>2021-07-31T11:03:53Z</time>
      </trkpt>
      <trkpt lat="46.73941" lon="-1.60723">
        <ele>60.799999237061</ele>
        <time>2021-07-31T11:04:05Z</time>
      </trkpt>
      <trkpt lat="46.73963" lon="-1.60751">
        <ele>60.599998474121</ele>
        <time>2021-07-31T11:04:11Z</time>
      </trkpt>
      <trkpt lat="46.73989" lon="-1.60775">
        <ele>60.799999237061</ele>
        <time>2021-07-31T11:04:23Z</time>
      </trkpt>
      <trkpt lat="46.74029" lon="-1.60829">
        <ele>63</ele>
        <time>2021-07-31T11:04:42Z</time>
      </trkpt>
      <trkpt lat="46.74033" lon="-1.60843">
        <ele>63.200000762939</ele>
        <time>2021-07-31T11:04:48Z</time>
      </trkpt>
      <trkpt lat="46.73885" lon="-1.60837">
        <ele>60.200000762939</ele>
        <time>2021-07-31T11:34:34Z</time>
      </trkpt>
      <trkpt lat="46.73885" lon="-1.60837">
        <ele>60.400001525879</ele>
        <time>2021-07-31T11:34:35Z</time>
      </trkpt>
      <trkpt lat="46.73884" lon="-1.60842">
        <ele>58.400001525879</ele>
        <time>2021-07-31T11:53:41Z</time>
      </trkpt>
      <trkpt lat="46.73885" lon="-1.6082">
        <ele>59.799999237061</ele>
        <time>2021-07-31T11:55:36Z</time>
      </trkpt>
      <trkpt lat="46.73902" lon="-1.60789">
        <ele>60.200000762939</ele>
        <time>2021-07-31T11:55:47Z</time>
      </trkpt>
      <trkpt lat="46.73926" lon="-1.60721">
        <ele>61.599998474121</ele>
        <time>2021-07-31T11:56:04Z</time>
      </trkpt>
      <trkpt lat="46.73923" lon="-1.60705">
        <ele>61.599998474121</ele>
        <time>2021-07-31T11:56:08Z</time>
      </trkpt>
      <trkpt lat="46.73875" lon="-1.60568">
        <ele>64.599998474121</ele>
        <time>2021-07-31T11:56:47Z</time>
      </trkpt>
      <trkpt lat="46.73828" lon="-1.60418">
        <ele>67.599998474121</ele>
        <time>2021-07-31T11:57:27Z</time>
      </trkpt>
      <trkpt lat="46.73865" lon="-1.60326">
        <ele>69.400001525879</ele>
        <time>2021-07-31T11:58:04Z</time>
      </trkpt>
      <trkpt lat="46.73947" lon="-1.60247">
        <ele>69.199996948242</ele>
        <time>2021-07-31T11:58:44Z</time>
      </trkpt>
      <trkpt lat="46.73998" lon="-1.60195">
        <ele>69</ele>
        <time>2021-07-31T11:59:03Z</time>
      </trkpt>
      <trkpt lat="46.74237" lon="-1.59796">
        <ele>71.599998474121</ele>
        <time>2021-07-31T12:00:32Z</time>
      </trkpt>
      <trkpt lat="46.74254" lon="-1.59759">
        <ele>71.800003051758</ele>
        <time>2021-07-31T12:00:40Z</time>
      </trkpt>
      <trkpt lat="46.74258" lon="-1.59748">
        <ele>71.800003051758</ele>
        <time>2021-07-31T12:00:42Z</time>
      </trkpt>
      <trkpt lat="46.74356" lon="-1.59478">
        <ele>74.599998474121</ele>
        <time>2021-07-31T12:01:30Z</time>
      </trkpt>
      <trkpt lat="46.74371" lon="-1.59414">
        <ele>75</ele>
        <time>2021-07-31T12:01:38Z</time>
      </trkpt>
      <trkpt lat="46.74384" lon="-1.59336">
        <ele>75.400001525879</ele>
        <time>2021-07-31T12:01:50Z</time>
      </trkpt>
      <trkpt lat="46.74239" lon="-1.59315">
        <ele>76.800003051758</ele>
        <time>2021-07-31T12:02:29Z</time>
      </trkpt>
      <trkpt lat="46.74133" lon="-1.59352">
        <ele>77</ele>
        <time>2021-07-31T12:02:54Z</time>
      </trkpt>
      <trkpt lat="46.74091" lon="-1.59276">
        <ele>76</ele>
        <time>2021-07-31T12:03:17Z</time>
      </trkpt>
      <trkpt lat="46.74101" lon="-1.592">
        <ele>76.199996948242</ele>
        <time>2021-07-31T12:03:30Z</time>
      </trkpt>
      <trkpt lat="46.7404" lon="-1.59102">
        <ele>75.400001525879</ele>
        <time>2021-07-31T12:04:04Z</time>
      </trkpt>
      <trkpt lat="46.74015" lon="-1.59015">
        <ele>75.800003051758</ele>
        <time>2021-07-31T12:04:32Z</time>
      </trkpt>
      <trkpt lat="46.74016" lon="-1.59004">
        <ele>75.599998474121</ele>
        <time>2021-07-31T12:04:34Z</time>
      </trkpt>
      <trkpt lat="46.74024" lon="-1.58959">
        <ele>76</ele>
        <time>2021-07-31T12:04:41Z</time>
      </trkpt>
      <trkpt lat="46.74048" lon="-1.58882">
        <ele>76.199996948242</ele>
        <time>2021-07-31T12:04:59Z</time>
      </trkpt>
      <trkpt lat="46.74057" lon="-1.58839">
        <ele>75.800003051758</ele>
        <time>2021-07-31T12:06:37Z</time>
      </trkpt>
      <trkpt lat="46.74153" lon="-1.58679">
        <ele>75.800003051758</ele>
        <time>2021-07-31T12:07:25Z</time>
      </trkpt>
      <trkpt lat="46.74162" lon="-1.58663">
        <ele>75.599998474121</ele>
        <time>2021-07-31T12:07:29Z</time>
      </trkpt>
      <trkpt lat="46.742" lon="-1.58586">
        <ele>75.199996948242</ele>
        <time>2021-07-31T12:07:42Z</time>
      </trkpt>
      <trkpt lat="46.74293" lon="-1.58368">
        <ele>75.400001525879</ele>
        <time>2021-07-31T12:08:18Z</time>
      </trkpt>
      <trkpt lat="46.74338" lon="-1.58222">
        <ele>76.199996948242</ele>
        <time>2021-07-31T12:08:49Z</time>
      </trkpt>
      <trkpt lat="46.74335" lon="-1.58167">
        <ele>76.199996948242</ele>
        <time>2021-07-31T12:08:58Z</time>
      </trkpt>
      <trkpt lat="46.74279" lon="-1.57933">
        <ele>75.599998474121</ele>
        <time>2021-07-31T12:09:43Z</time>
      </trkpt>
      <trkpt lat="46.74277" lon="-1.5792">
        <ele>75.599998474121</ele>
        <time>2021-07-31T12:09:45Z</time>
      </trkpt>
      <trkpt lat="46.74269" lon="-1.57852">
        <ele>75.599998474121</ele>
        <time>2021-07-31T12:09:52Z</time>
      </trkpt>
      <trkpt lat="46.74255" lon="-1.57736">
        <ele>75.400001525879</ele>
        <time>2021-07-31T12:10:03Z</time>
      </trkpt>
      <trkpt lat="46.74237" lon="-1.57641">
        <ele>74.400001525879</ele>
        <time>2021-07-31T12:10:13Z</time>
      </trkpt>
      <trkpt lat="46.74198" lon="-1.57347">
        <ele>72.800003051758</ele>
        <time>2021-07-31T12:10:44Z</time>
      </trkpt>
      <trkpt lat="46.74197" lon="-1.57338">
        <ele>72.599998474121</ele>
        <time>2021-07-31T12:10:45Z</time>
      </trkpt>
      <trkpt lat="46.74185" lon="-1.57273">
        <ele>72.599998474121</ele>
        <time>2021-07-31T12:10:52Z</time>
      </trkpt>
      <trkpt lat="46.74172" lon="-1.57194">
        <ele>71.800003051758</ele>
        <time>2021-07-31T12:11:00Z</time>
      </trkpt>
      <trkpt lat="46.74158" lon="-1.57124">
        <ele>71.400001525879</ele>
        <time>2021-07-31T12:11:07Z</time>
      </trkpt>
      <trkpt lat="46.74139" lon="-1.57039">
        <ele>70.599998474121</ele>
        <time>2021-07-31T12:11:18Z</time>
      </trkpt>
      <trkpt lat="46.74137" lon="-1.57027">
        <ele>70.599998474121</ele>
        <time>2021-07-31T12:11:20Z</time>
      </trkpt>
      <trkpt lat="46.74108" lon="-1.56848">
        <ele>70.800003051758</ele>
        <time>2021-07-31T12:11:43Z</time>
      </trkpt>
      <trkpt lat="46.74095" lon="-1.56795">
        <ele>71</ele>
        <time>2021-07-31T12:11:50Z</time>
      </trkpt>
      <trkpt lat="46.74068" lon="-1.56654">
        <ele>70.599998474121</ele>
        <time>2021-07-31T12:12:11Z</time>
      </trkpt>
      <trkpt lat="46.74021" lon="-1.56436">
        <ele>70.599998474121</ele>
        <time>2021-07-31T12:12:43Z</time>
      </trkpt>
      <trkpt lat="46.74019" lon="-1.56429">
        <ele>70.800003051758</ele>
        <time>2021-07-31T12:12:44Z</time>
      </trkpt>
      <trkpt lat="46.74012" lon="-1.56371">
        <ele>71.199996948242</ele>
        <time>2021-07-31T12:12:50Z</time>
      </trkpt>
      <trkpt lat="46.73975" lon="-1.5616">
        <ele>71.199996948242</ele>
        <time>2021-07-31T12:13:13Z</time>
      </trkpt>
      <trkpt lat="46.73972" lon="-1.56136">
        <ele>71.199996948242</ele>
        <time>2021-07-31T12:13:16Z</time>
      </trkpt>
      <trkpt lat="46.73941" lon="-1.55911">
        <ele>71.199996948242</ele>
        <time>2021-07-31T12:13:41Z</time>
      </trkpt>
      <trkpt lat="46.73894" lon="-1.55619">
        <ele>71.800003051758</ele>
        <time>2021-07-31T12:14:17Z</time>
      </trkpt>
      <trkpt lat="46.73877" lon="-1.55545">
        <ele>72.199996948242</ele>
        <time>2021-07-31T12:14:26Z</time>
      </trkpt>
      <trkpt lat="46.73861" lon="-1.5546">
        <ele>72.400001525879</ele>
        <time>2021-07-31T12:14:36Z</time>
      </trkpt>
      <trkpt lat="46.7383" lon="-1.55293">
        <ele>73</ele>
        <time>2021-07-31T12:14:58Z</time>
      </trkpt>
      <trkpt lat="46.73806" lon="-1.55151">
        <ele>73.800003051758</ele>
        <time>2021-07-31T12:15:17Z</time>
      </trkpt>
      <trkpt lat="46.73776" lon="-1.54969">
        <ele>75.199996948242</ele>
        <time>2021-07-31T12:15:43Z</time>
      </trkpt>
      <trkpt lat="46.73762" lon="-1.54878">
        <ele>76</ele>
        <time>2021-07-31T12:15:56Z</time>
      </trkpt>
      <trkpt lat="46.73757" lon="-1.5485">
        <ele>76.400001525879</ele>
        <time>2021-07-31T12:16:00Z</time>
      </trkpt>
      <trkpt lat="46.73744" lon="-1.548">
        <ele>76.800003051758</ele>
        <time>2021-07-31T12:16:07Z</time>
      </trkpt>
      <trkpt lat="46.73632" lon="-1.54206">
        <ele>76.599998474121</ele>
        <time>2021-07-31T12:17:17Z</time>
      </trkpt>
      <trkpt lat="46.7362" lon="-1.5411">
        <ele>76.599998474121</ele>
        <time>2021-07-31T12:17:29Z</time>
      </trkpt>
      <trkpt lat="46.73596" lon="-1.54015">
        <ele>76.400001525879</ele>
        <time>2021-07-31T12:17:49Z</time>
      </trkpt>
      <trkpt lat="46.73552" lon="-1.53808">
        <ele>76.800003051758</ele>
        <time>2021-07-31T12:18:14Z</time>
      </trkpt>
      <trkpt lat="46.73528" lon="-1.53739">
        <ele>76.800003051758</ele>
        <time>2021-07-31T12:18:23Z</time>
      </trkpt>
      <trkpt lat="46.73492" lon="-1.5366">
        <ele>76.400001525879</ele>
        <time>2021-07-31T12:18:35Z</time>
      </trkpt>
      <trkpt lat="46.73481" lon="-1.5364">
        <ele>76.599998474121</ele>
        <time>2021-07-31T12:18:38Z</time>
      </trkpt>
      <trkpt lat="46.72984" lon="-1.5308">
        <ele>76.400001525879</ele>
        <time>2021-07-31T12:20:19Z</time>
      </trkpt>
      <trkpt lat="46.72575" lon="-1.52678">
        <ele>77.400001525879</ele>
        <time>2021-07-31T12:21:45Z</time>
      </trkpt>
      <trkpt lat="46.72566" lon="-1.52666">
        <ele>77.400001525879</ele>
        <time>2021-07-31T12:21:47Z</time>
      </trkpt>
      <trkpt lat="46.72467" lon="-1.5251">
        <ele>77.400001525879</ele>
        <time>2021-07-31T12:22:19Z</time>
      </trkpt>
      <trkpt lat="46.72453" lon="-1.52455">
        <ele>77.199996948242</ele>
        <time>2021-07-31T12:22:28Z</time>
      </trkpt>
      <trkpt lat="46.72435" lon="-1.52395">
        <ele>77.199996948242</ele>
        <time>2021-07-31T12:22:36Z</time>
      </trkpt>
      <trkpt lat="46.72401" lon="-1.52313">
        <ele>76.800003051758</ele>
        <time>2021-07-31T12:22:47Z</time>
      </trkpt>
      <trkpt lat="46.72382" lon="-1.52276">
        <ele>76.599998474121</ele>
        <time>2021-07-31T12:22:52Z</time>
      </trkpt>
      <trkpt lat="46.72324" lon="-1.52042">
        <ele>75.599998474121</ele>
        <time>2021-07-31T12:23:18Z</time>
      </trkpt>
      <trkpt lat="46.72288" lon="-1.519">
        <ele>76</ele>
        <time>2021-07-31T12:23:34Z</time>
      </trkpt>
      <trkpt lat="46.72227" lon="-1.51664">
        <ele>76.400001525879</ele>
        <time>2021-07-31T12:24:09Z</time>
      </trkpt>
      <trkpt lat="46.72159" lon="-1.51395">
        <ele>77.400001525879</ele>
        <time>2021-07-31T12:24:47Z</time>
      </trkpt>
      <trkpt lat="46.72081" lon="-1.5111">
        <ele>76.800003051758</ele>
        <time>2021-07-31T12:25:36Z</time>
      </trkpt>
      <trkpt lat="46.72041" lon="-1.50926">
        <ele>76.599998474121</ele>
        <time>2021-07-31T12:25:58Z</time>
      </trkpt>
      <trkpt lat="46.72022" lon="-1.50858">
        <ele>76.800003051758</ele>
        <time>2021-07-31T12:26:06Z</time>
      </trkpt>
      <trkpt lat="46.72" lon="-1.50775">
        <ele>76.400001525879</ele>
        <time>2021-07-31T12:26:16Z</time>
      </trkpt>
      <trkpt lat="46.71985" lon="-1.50693">
        <ele>76.199996948242</ele>
        <time>2021-07-31T12:26:25Z</time>
      </trkpt>
      <trkpt lat="46.7197" lon="-1.50612">
        <ele>76</ele>
        <time>2021-07-31T12:26:34Z</time>
      </trkpt>
      <trkpt lat="46.71907" lon="-1.50348">
        <ele>76</ele>
        <time>2021-07-31T12:27:10Z</time>
      </trkpt>
      <trkpt lat="46.71891" lon="-1.50286">
        <ele>76.400001525879</ele>
        <time>2021-07-31T12:27:18Z</time>
      </trkpt>
      <trkpt lat="46.71864" lon="-1.50193">
        <ele>76.800003051758</ele>
        <time>2021-07-31T12:27:33Z</time>
      </trkpt>
      <trkpt lat="46.71851" lon="-1.50131">
        <ele>77.599998474121</ele>
        <time>2021-07-31T12:27:42Z</time>
      </trkpt>
      <trkpt lat="46.71807" lon="-1.49951">
        <ele>79.199996948242</ele>
        <time>2021-07-31T12:28:11Z</time>
      </trkpt>
      <trkpt lat="46.71803" lon="-1.49933">
        <ele>79.400001525879</ele>
        <time>2021-07-31T12:28:14Z</time>
      </trkpt>
      <trkpt lat="46.71795" lon="-1.49895">
        <ele>79.599998474121</ele>
        <time>2021-07-31T12:28:20Z</time>
      </trkpt>
      <trkpt lat="46.71775" lon="-1.49834">
        <ele>80.400001525879</ele>
        <time>2021-07-31T12:28:29Z</time>
      </trkpt>
      <trkpt lat="46.7174" lon="-1.49712">
        <ele>80.800003051758</ele>
        <time>2021-07-31T12:28:52Z</time>
      </trkpt>
      <trkpt lat="46.71732" lon="-1.49679">
        <ele>80.800003051758</ele>
        <time>2021-07-31T12:28:57Z</time>
      </trkpt>
      <trkpt lat="46.71624" lon="-1.49261">
        <ele>81.599998474121</ele>
        <time>2021-07-31T12:29:54Z</time>
      </trkpt>
      <trkpt lat="46.71596" lon="-1.49117">
        <ele>82</ele>
        <time>2021-07-31T12:30:11Z</time>
      </trkpt>
      <trkpt lat="46.71544" lon="-1.48913">
        <ele>82.599998474121</ele>
        <time>2021-07-31T12:30:38Z</time>
      </trkpt>
      <trkpt lat="46.71507" lon="-1.48783">
        <ele>83</ele>
        <time>2021-07-31T12:30:57Z</time>
      </trkpt>
      <trkpt lat="46.71433" lon="-1.48479">
        <ele>83.400001525879</ele>
        <time>2021-07-31T12:31:36Z</time>
      </trkpt>
      <trkpt lat="46.71373" lon="-1.48251">
        <ele>84</ele>
        <time>2021-07-31T12:32:13Z</time>
      </trkpt>
      <trkpt lat="46.71351" lon="-1.48181">
        <ele>83.800003051758</ele>
        <time>2021-07-31T12:32:21Z</time>
      </trkpt>
      <trkpt lat="46.71324" lon="-1.48117">
        <ele>84</ele>
        <time>2021-07-31T12:32:29Z</time>
      </trkpt>
      <trkpt lat="46.71291" lon="-1.48047">
        <ele>84</ele>
        <time>2021-07-31T12:32:36Z</time>
      </trkpt>
      <trkpt lat="46.71245" lon="-1.47968">
        <ele>84</ele>
        <time>2021-07-31T12:32:47Z</time>
      </trkpt>
      <trkpt lat="46.71166" lon="-1.47862">
        <ele>84</ele>
        <time>2021-07-31T12:33:05Z</time>
      </trkpt>
      <trkpt lat="46.71103" lon="-1.478">
        <ele>83.599998474121</ele>
        <time>2021-07-31T12:33:21Z</time>
      </trkpt>
      <trkpt lat="46.71049" lon="-1.47749">
        <ele>83.199996948242</ele>
        <time>2021-07-31T12:33:42Z</time>
      </trkpt>
      <trkpt lat="46.71009" lon="-1.47723">
        <ele>83.400001525879</ele>
        <time>2021-07-31T12:33:51Z</time>
      </trkpt>
      <trkpt lat="46.70509" lon="-1.47357">
        <ele>80.199996948242</ele>
        <time>2021-07-31T12:35:23Z</time>
      </trkpt>
      <trkpt lat="46.70492" lon="-1.47345">
        <ele>80</ele>
        <time>2021-07-31T12:35:26Z</time>
      </trkpt>
      <trkpt lat="46.70219" lon="-1.47155">
        <ele>77</ele>
        <time>2021-07-31T12:36:11Z</time>
      </trkpt>
      <trkpt lat="46.6999" lon="-1.46952">
        <ele>73.599998474121</ele>
        <time>2021-07-31T12:36:53Z</time>
      </trkpt>
      <trkpt lat="46.6989" lon="-1.46802">
        <ele>72</ele>
        <time>2021-07-31T12:37:18Z</time>
      </trkpt>
      <trkpt lat="46.69833" lon="-1.46498">
        <ele>70.400001525879</ele>
        <time>2021-07-31T12:37:48Z</time>
      </trkpt>
      <trkpt lat="46.69833" lon="-1.46307">
        <ele>69.400001525879</ele>
        <time>2021-07-31T12:38:06Z</time>
      </trkpt>
      <trkpt lat="46.6983" lon="-1.4616">
        <ele>66.400001525879</ele>
        <time>2021-07-31T12:38:33Z</time>
      </trkpt>
      <trkpt lat="46.69832" lon="-1.46136">
        <ele>65.800003051758</ele>
        <time>2021-07-31T12:40:07Z</time>
      </trkpt>
      <trkpt lat="46.69833" lon="-1.46053">
        <ele>65.800003051758</ele>
        <time>2021-07-31T12:40:21Z</time>
      </trkpt>
      <trkpt lat="46.69837" lon="-1.45989">
        <ele>66</ele>
        <time>2021-07-31T12:40:30Z</time>
      </trkpt>
      <trkpt lat="46.69785" lon="-1.45641">
        <ele>67.599998474121</ele>
        <time>2021-07-31T12:41:16Z</time>
      </trkpt>
      <trkpt lat="46.69781" lon="-1.45618">
        <ele>67.800003051758</ele>
        <time>2021-07-31T12:41:19Z</time>
      </trkpt>
      <trkpt lat="46.69649" lon="-1.45387">
        <ele>69.800003051758</ele>
        <time>2021-07-31T12:42:00Z</time>
      </trkpt>
      <trkpt lat="46.69592" lon="-1.45317">
        <ele>70.400001525879</ele>
        <time>2021-07-31T12:42:18Z</time>
      </trkpt>
      <trkpt lat="46.69562" lon="-1.45286">
        <ele>71</ele>
        <time>2021-07-31T12:42:26Z</time>
      </trkpt>
      <trkpt lat="46.69435" lon="-1.45147">
        <ele>72.400001525879</ele>
        <time>2021-07-31T12:42:58Z</time>
      </trkpt>
      <trkpt lat="46.694" lon="-1.4511">
        <ele>72.800003051758</ele>
        <time>2021-07-31T12:43:07Z</time>
      </trkpt>
      <trkpt lat="46.69345" lon="-1.45047">
        <ele>73.800003051758</ele>
        <time>2021-07-31T12:43:22Z</time>
      </trkpt>
      <trkpt lat="46.69294" lon="-1.44994">
        <ele>74.400001525879</ele>
        <time>2021-07-31T12:43:35Z</time>
      </trkpt>
      <trkpt lat="46.69238" lon="-1.44929">
        <ele>75</ele>
        <time>2021-07-31T12:43:51Z</time>
      </trkpt>
      <trkpt lat="46.69104" lon="-1.44768">
        <ele>75.199996948242</ele>
        <time>2021-07-31T12:44:27Z</time>
      </trkpt>
      <trkpt lat="46.6906" lon="-1.44716">
        <ele>75.199996948242</ele>
        <time>2021-07-31T12:44:37Z</time>
      </trkpt>
      <trkpt lat="46.69008" lon="-1.44659">
        <ele>75.400001525879</ele>
        <time>2021-07-31T12:44:48Z</time>
      </trkpt>
      <trkpt lat="46.68892" lon="-1.44527">
        <ele>75.199996948242</ele>
        <time>2021-07-31T12:45:15Z</time>
      </trkpt>
      <trkpt lat="46.68805" lon="-1.44445">
        <ele>78.199996948242</ele>
        <time>2021-07-31T12:45:50Z</time>
      </trkpt>
      <trkpt lat="46.688" lon="-1.44424">
        <ele>77.800003051758</ele>
        <time>2021-07-31T12:51:55Z</time>
      </trkpt>
      <trkpt lat="46.68648" lon="-1.44249">
        <ele>80.400001525879</ele>
        <time>2021-07-31T12:52:56Z</time>
      </trkpt>
      <trkpt lat="46.68573" lon="-1.44169">
        <ele>80.199996948242</ele>
        <time>2021-07-31T12:53:13Z</time>
      </trkpt>
      <trkpt lat="46.68551" lon="-1.44142">
        <ele>79.599998474121</ele>
        <time>2021-07-31T12:53:17Z</time>
      </trkpt>
      <trkpt lat="46.68497" lon="-1.44078">
        <ele>78.400001525879</ele>
        <time>2021-07-31T12:53:26Z</time>
      </trkpt>
      <trkpt lat="46.68436" lon="-1.44011">
        <ele>76.599998474121</ele>
        <time>2021-07-31T12:53:36Z</time>
      </trkpt>
      <trkpt lat="46.68413" lon="-1.43986">
        <ele>72.800003051758</ele>
        <time>2021-07-31T12:53:47Z</time>
      </trkpt>
      <trkpt lat="46.68401" lon="-1.43964">
        <ele>72.599998474121</ele>
        <time>2021-07-31T12:53:54Z</time>
      </trkpt>
      <trkpt lat="46.68355" lon="-1.43913">
        <ele>73</ele>
        <time>2021-07-31T12:54:07Z</time>
      </trkpt>
      <trkpt lat="46.68287" lon="-1.43829">
        <ele>73.199996948242</ele>
        <time>2021-07-31T12:54:28Z</time>
      </trkpt>
      <trkpt lat="46.68254" lon="-1.43797">
        <ele>73.199996948242</ele>
        <time>2021-07-31T12:54:36Z</time>
      </trkpt>
      <trkpt lat="46.6816" lon="-1.43723">
        <ele>74</ele>
        <time>2021-07-31T12:54:57Z</time>
      </trkpt>
      <trkpt lat="46.67943" lon="-1.43681">
        <ele>74.199996948242</ele>
        <time>2021-07-31T12:55:58Z</time>
      </trkpt>
      <trkpt lat="46.67906" lon="-1.43675">
        <ele>74.400001525879</ele>
        <time>2021-07-31T12:56:07Z</time>
      </trkpt>
      <trkpt lat="46.67793" lon="-1.43659">
        <ele>74.800003051758</ele>
        <time>2021-07-31T12:56:32Z</time>
      </trkpt>
      <trkpt lat="46.6769" lon="-1.43656">
        <ele>75.599998474121</ele>
        <time>2021-07-31T12:56:52Z</time>
      </trkpt>
      <trkpt lat="46.67625" lon="-1.43682">
        <ele>77</ele>
        <time>2021-07-31T12:57:10Z</time>
      </trkpt>
      <trkpt lat="46.67541" lon="-1.43718">
        <ele>77.800003051758</ele>
        <time>2021-07-31T12:57:34Z</time>
      </trkpt>
      <trkpt lat="46.67527" lon="-1.43724">
        <ele>78</ele>
        <time>2021-07-31T12:57:37Z</time>
      </trkpt>
      <trkpt lat="46.67386" lon="-1.43767">
        <ele>78</ele>
        <time>2021-07-31T12:58:06Z</time>
      </trkpt>
      <trkpt lat="46.67305" lon="-1.4377">
        <ele>77</ele>
        <time>2021-07-31T12:58:19Z</time>
      </trkpt>
      <trkpt lat="46.67102" lon="-1.43749">
        <ele>75.800003051758</ele>
        <time>2021-07-31T12:59:08Z</time>
      </trkpt>
      <trkpt lat="46.6701" lon="-1.43707">
        <ele>76.199996948242</ele>
        <time>2021-07-31T12:59:27Z</time>
      </trkpt>
      <trkpt lat="46.66868" lon="-1.43613">
        <ele>72.800003051758</ele>
        <time>2021-07-31T12:59:51Z</time>
      </trkpt>
      <trkpt lat="46.66862" lon="-1.4361">
        <ele>72.800003051758</ele>
        <time>2021-07-31T12:59:52Z</time>
      </trkpt>
      <trkpt lat="46.66835" lon="-1.43599">
        <ele>70.400001525879</ele>
        <time>2021-07-31T13:00:04Z</time>
      </trkpt>
      <trkpt lat="46.66849" lon="-1.43534">
        <ele>70.199996948242</ele>
        <time>2021-07-31T13:00:15Z</time>
      </trkpt>
      <trkpt lat="46.66914" lon="-1.43299">
        <ele>71.199996948242</ele>
        <time>2021-07-31T13:01:10Z</time>
      </trkpt>
      <trkpt lat="46.66883" lon="-1.43183">
        <ele>71</ele>
        <time>2021-07-31T13:01:29Z</time>
      </trkpt>
      <trkpt lat="46.66891" lon="-1.43152">
        <ele>70.199996948242</ele>
        <time>2021-07-31T13:01:35Z</time>
      </trkpt>
      <trkpt lat="46.66963" lon="-1.43085">
        <ele>70.199996948242</ele>
        <time>2021-07-31T13:02:07Z</time>
      </trkpt>
      <trkpt lat="46.67025" lon="-1.42845">
        <ele>73.199996948242</ele>
        <time>2021-07-31T13:03:07Z</time>
      </trkpt>
      <trkpt lat="46.67034" lon="-1.42803">
        <ele>73.400001525879</ele>
        <time>2021-07-31T13:03:17Z</time>
      </trkpt>
      <trkpt lat="46.67044" lon="-1.42722">
        <ele>74</ele>
        <time>2021-07-31T13:03:42Z</time>
      </trkpt>
      <trkpt lat="46.67052" lon="-1.42669">
        <ele>74.800003051758</ele>
        <time>2021-07-31T13:04:01Z</time>
      </trkpt>
      <trkpt lat="46.67038" lon="-1.42603">
        <ele>74</ele>
        <time>2021-07-31T13:04:44Z</time>
      </trkpt>
      <trkpt lat="46.67051" lon="-1.42572">
        <ele>74.199996948242</ele>
        <time>2021-07-31T13:04:55Z</time>
      </trkpt>
      <trkpt lat="46.6708" lon="-1.42614">
        <ele>74.199996948242</ele>
        <time>2021-07-31T13:06:57Z</time>
      </trkpt>
      <trkpt lat="46.67079" lon="-1.42617">
        <ele>74.199996948242</ele>
        <time>2021-07-31T13:06:58Z</time>
      </trkpt>
      <trkpt lat="46.67074" lon="-1.42628">
        <ele>74.199996948242</ele>
        <time>2021-07-31T13:08:59Z</time>
      </trkpt>
      <trkpt lat="46.67089" lon="-1.42564">
        <ele>73.800003051758</ele>
        <time>2021-07-31T13:09:24Z</time>
      </trkpt>
      <trkpt lat="46.67113" lon="-1.42578">
        <ele>73.400001525879</ele>
        <time>2021-07-31T13:09:34Z</time>
      </trkpt>
      <trkpt lat="46.6713" lon="-1.42586">
        <ele>73.400001525879</ele>
        <time>2021-07-31T13:09:40Z</time>
      </trkpt>
      <trkpt lat="46.67123" lon="-1.42633">
        <ele>73.400001525879</ele>
        <time>2021-07-31T13:09:57Z</time>
      </trkpt>
      <trkpt lat="46.67114" lon="-1.4266">
        <ele>73.599998474121</ele>
        <time>2021-07-31T13:10:14Z</time>
      </trkpt>
      <trkpt lat="46.67129" lon="-1.42699">
        <ele>73.199996948242</ele>
        <time>2021-07-31T13:10:25Z</time>
      </trkpt>
      <trkpt lat="46.67168" lon="-1.42731">
        <ele>72.800003051758</ele>
        <time>2021-07-31T13:10:38Z</time>
      </trkpt>
      <trkpt lat="46.67176" lon="-1.42856">
        <ele>72.199996948242</ele>
        <time>2021-07-31T13:11:15Z</time>
      </trkpt>
      <trkpt lat="46.67084" lon="-1.4298">
        <ele>74</ele>
        <time>2021-07-31T13:12:05Z</time>
      </trkpt>
      <trkpt lat="46.67058" lon="-1.42967">
        <ele>72.800003051758</ele>
        <time>2021-07-31T13:12:17Z</time>
      </trkpt>
      <trkpt lat="46.67019" lon="-1.43121">
        <ele>71.599998474121</ele>
        <time>2021-07-31T13:12:52Z</time>
      </trkpt>
      <trkpt lat="46.67015" lon="-1.43199">
        <ele>70.599998474121</ele>
        <time>2021-07-31T13:13:31Z</time>
      </trkpt>
      <trkpt lat="46.67101" lon="-1.43265">
        <ele>73.800003051758</ele>
        <time>2021-07-31T13:14:09Z</time>
      </trkpt>
      <trkpt lat="46.67107" lon="-1.43268">
        <ele>73.800003051758</ele>
        <time>2021-07-31T13:14:11Z</time>
      </trkpt>
      <trkpt lat="46.67143" lon="-1.4329">
        <ele>74.800003051758</ele>
        <time>2021-07-31T13:14:29Z</time>
      </trkpt>
      <trkpt lat="46.67111" lon="-1.43259">
        <ele>73.400001525879</ele>
        <time>2021-07-31T14:59:15Z</time>
      </trkpt>
      <trkpt lat="46.67026" lon="-1.43227">
        <ele>72.599998474121</ele>
        <time>2021-07-31T14:59:51Z</time>
      </trkpt>
      <trkpt lat="46.6695" lon="-1.43194">
        <ele>72.199996948242</ele>
        <time>2021-07-31T15:00:05Z</time>
      </trkpt>
      <trkpt lat="46.66919" lon="-1.43173">
        <ele>71.400001525879</ele>
        <time>2021-07-31T15:00:12Z</time>
      </trkpt>
      <trkpt lat="46.66904" lon="-1.43112">
        <ele>69</ele>
        <time>2021-07-31T15:00:29Z</time>
      </trkpt>
      <trkpt lat="46.66912" lon="-1.43089">
        <ele>69</ele>
        <time>2021-07-31T15:00:32Z</time>
      </trkpt>
      <trkpt lat="46.6692" lon="-1.43067">
        <ele>69.199996948242</ele>
        <time>2021-07-31T15:00:35Z</time>
      </trkpt>
      <trkpt lat="46.6696" lon="-1.42907">
        <ele>70.800003051758</ele>
        <time>2021-07-31T15:00:59Z</time>
      </trkpt>
      <trkpt lat="46.66972" lon="-1.42862">
        <ele>71.199996948242</ele>
        <time>2021-07-31T15:01:06Z</time>
      </trkpt>
      <trkpt lat="46.66987" lon="-1.42791">
        <ele>72.199996948242</ele>
        <time>2021-07-31T15:01:18Z</time>
      </trkpt>
      <trkpt lat="46.67047" lon="-1.42604">
        <ele>73.800003051758</ele>
        <time>2021-07-31T15:02:11Z</time>
      </trkpt>
      <trkpt lat="46.6706" lon="-1.42493">
        <ele>73.800003051758</ele>
        <time>2021-07-31T15:02:39Z</time>
      </trkpt>
      <trkpt lat="46.67077" lon="-1.42409">
        <ele>73.599998474121</ele>
        <time>2021-07-31T15:02:54Z</time>
      </trkpt>
      <trkpt lat="46.67085" lon="-1.42337">
        <ele>71.599998474121</ele>
        <time>2021-07-31T15:03:51Z</time>
      </trkpt>
      <trkpt lat="46.67092" lon="-1.42309">
        <ele>71.599998474121</ele>
        <time>2021-07-31T15:03:56Z</time>
      </trkpt>
      <trkpt lat="46.67095" lon="-1.42303">
        <ele>71.800003051758</ele>
        <time>2021-07-31T15:03:58Z</time>
      </trkpt>
      <trkpt lat="46.67127" lon="-1.42256">
        <ele>70</ele>
        <time>2021-07-31T15:04:12Z</time>
      </trkpt>
      <trkpt lat="46.6714" lon="-1.42245">
        <ele>69.199996948242</ele>
        <time>2021-07-31T15:04:18Z</time>
      </trkpt>
      <trkpt lat="46.67148" lon="-1.42214">
        <ele>67.400001525879</ele>
        <time>2021-07-31T15:04:29Z</time>
      </trkpt>
      <trkpt lat="46.6715" lon="-1.42214">
        <ele>67.400001525879</ele>
        <time>2021-07-31T15:04:30Z</time>
      </trkpt>
      <trkpt lat="46.67166" lon="-1.42223">
        <ele>66</ele>
        <time>2021-07-31T15:04:37Z</time>
      </trkpt>
      <trkpt lat="46.67173" lon="-1.42231">
        <ele>65.800003051758</ele>
        <time>2021-07-31T15:04:39Z</time>
      </trkpt>
      <trkpt lat="46.67203" lon="-1.42244">
        <ele>65.400001525879</ele>
        <time>2021-07-31T15:04:46Z</time>
      </trkpt>
      <trkpt lat="46.67216" lon="-1.42241">
        <ele>65.199996948242</ele>
        <time>2021-07-31T15:04:48Z</time>
      </trkpt>
      <trkpt lat="46.67241" lon="-1.42194">
        <ele>64.199996948242</ele>
        <time>2021-07-31T15:04:55Z</time>
      </trkpt>
      <trkpt lat="46.67256" lon="-1.4216">
        <ele>61.400001525879</ele>
        <time>2021-07-31T15:05:01Z</time>
      </trkpt>
      <trkpt lat="46.67277" lon="-1.42172">
        <ele>60.799999237061</ele>
        <time>2021-07-31T15:05:06Z</time>
      </trkpt>
      <trkpt lat="46.67324" lon="-1.422">
        <ele>59.200000762939</ele>
        <time>2021-07-31T15:05:15Z</time>
      </trkpt>
      <trkpt lat="46.67387" lon="-1.4224">
        <ele>60</ele>
        <time>2021-07-31T15:05:29Z</time>
      </trkpt>
      <trkpt lat="46.67436" lon="-1.42249">
        <ele>63.200000762939</ele>
        <time>2021-07-31T15:05:42Z</time>
      </trkpt>
      <trkpt lat="46.67441" lon="-1.42243">
        <ele>63.400001525879</ele>
        <time>2021-07-31T15:05:44Z</time>
      </trkpt>
      <trkpt lat="46.67478" lon="-1.42225">
        <ele>65.400001525879</ele>
        <time>2021-07-31T15:05:54Z</time>
      </trkpt>
      <trkpt lat="46.67549" lon="-1.42183">
        <ele>68.599998474121</ele>
        <time>2021-07-31T15:06:16Z</time>
      </trkpt>
      <trkpt lat="46.67592" lon="-1.4216">
        <ele>71.800003051758</ele>
        <time>2021-07-31T15:06:29Z</time>
      </trkpt>
      <trkpt lat="46.67596" lon="-1.42157">
        <ele>71.800003051758</ele>
        <time>2021-07-31T15:06:30Z</time>
      </trkpt>
      <trkpt lat="46.67697" lon="-1.4213">
        <ele>71.599998474121</ele>
        <time>2021-07-31T15:06:49Z</time>
      </trkpt>
      <trkpt lat="46.67887" lon="-1.42158">
        <ele>69.800003051758</ele>
        <time>2021-07-31T15:07:11Z</time>
      </trkpt>
      <trkpt lat="46.67956" lon="-1.4217">
        <ele>68.400001525879</ele>
        <time>2021-07-31T15:07:22Z</time>
      </trkpt>
      <trkpt lat="46.6813" lon="-1.42203">
        <ele>64.800003051758</ele>
        <time>2021-07-31T15:07:45Z</time>
      </trkpt>
      <trkpt lat="46.68187" lon="-1.42204">
        <ele>64.599998474121</ele>
        <time>2021-07-31T15:07:55Z</time>
      </trkpt>
      <trkpt lat="46.68246" lon="-1.42211">
        <ele>66.400001525879</ele>
        <time>2021-07-31T15:08:10Z</time>
      </trkpt>
      <trkpt lat="46.68304" lon="-1.4222">
        <ele>70.599998474121</ele>
        <time>2021-07-31T15:08:25Z</time>
      </trkpt>
      <trkpt lat="46.68378" lon="-1.4226">
        <ele>73.599998474121</ele>
        <time>2021-07-31T15:08:46Z</time>
      </trkpt>
      <trkpt lat="46.68484" lon="-1.42335">
        <ele>75.400001525879</ele>
        <time>2021-07-31T15:09:11Z</time>
      </trkpt>
      <trkpt lat="46.68572" lon="-1.42397">
        <ele>74.599998474121</ele>
        <time>2021-07-31T15:09:25Z</time>
      </trkpt>
      <trkpt lat="46.68611" lon="-1.42411">
        <ele>73.800003051758</ele>
        <time>2021-07-31T15:09:31Z</time>
      </trkpt>
      <trkpt lat="46.68655" lon="-1.42415">
        <ele>73</ele>
        <time>2021-07-31T15:09:37Z</time>
      </trkpt>
      <trkpt lat="46.68838" lon="-1.42417">
        <ele>70</ele>
        <time>2021-07-31T15:09:59Z</time>
      </trkpt>
      <trkpt lat="46.68931" lon="-1.42429">
        <ele>70.800003051758</ele>
        <time>2021-07-31T15:10:14Z</time>
      </trkpt>
      <trkpt lat="46.68958" lon="-1.42425">
        <ele>71</ele>
        <time>2021-07-31T15:10:18Z</time>
      </trkpt>
      <trkpt lat="46.69004" lon="-1.42445">
        <ele>72</ele>
        <time>2021-07-31T15:10:26Z</time>
      </trkpt>
      <trkpt lat="46.69149" lon="-1.42481">
        <ele>76.400001525879</ele>
        <time>2021-07-31T15:10:54Z</time>
      </trkpt>
      <trkpt lat="46.69295" lon="-1.42502">
        <ele>76</ele>
        <time>2021-07-31T15:11:13Z</time>
      </trkpt>
      <trkpt lat="46.69354" lon="-1.42496">
        <ele>74.800003051758</ele>
        <time>2021-07-31T15:11:20Z</time>
      </trkpt>
      <trkpt lat="46.69631" lon="-1.42422">
        <ele>73</ele>
        <time>2021-07-31T15:12:00Z</time>
      </trkpt>
      <trkpt lat="46.69689" lon="-1.42386">
        <ele>72.800003051758</ele>
        <time>2021-07-31T15:12:09Z</time>
      </trkpt>
      <trkpt lat="46.69737" lon="-1.42533">
        <ele>74.199996948242</ele>
        <time>2021-07-31T15:12:29Z</time>
      </trkpt>
      <trkpt lat="46.69786" lon="-1.42611">
        <ele>77.599998474121</ele>
        <time>2021-07-31T15:12:53Z</time>
      </trkpt>
      <trkpt lat="46.6979" lon="-1.42622">
        <ele>78.400001525879</ele>
        <time>2021-07-31T15:12:57Z</time>
      </trkpt>
      <trkpt lat="46.69791" lon="-1.4262">
        <ele>78.800003051758</ele>
        <time>2021-07-31T15:12:59Z</time>
      </trkpt>
      <trkpt lat="46.69781" lon="-1.42549">
        <ele>75.599998474121</ele>
        <time>2021-07-31T17:26:07Z</time>
      </trkpt>
      <trkpt lat="46.69795" lon="-1.42599">
        <ele>74.800003051758</ele>
        <time>2021-07-31T17:26:21Z</time>
      </trkpt>
      <trkpt lat="46.69742" lon="-1.42553">
        <ele>71.400001525879</ele>
        <time>2021-07-31T17:26:51Z</time>
      </trkpt>
      <trkpt lat="46.69722" lon="-1.42517">
        <ele>70.199996948242</ele>
        <time>2021-07-31T17:27:01Z</time>
      </trkpt>
      <trkpt lat="46.69707" lon="-1.42474">
        <ele>70</ele>
        <time>2021-07-31T17:27:07Z</time>
      </trkpt>
      <trkpt lat="46.69694" lon="-1.42451">
        <ele>69.599998474121</ele>
        <time>2021-07-31T17:27:11Z</time>
      </trkpt>
      <trkpt lat="46.69663" lon="-1.42432">
        <ele>68.599998474121</ele>
        <time>2021-07-31T17:27:18Z</time>
      </trkpt>
      <trkpt lat="46.69652" lon="-1.42428">
        <ele>68.400001525879</ele>
        <time>2021-07-31T17:27:20Z</time>
      </trkpt>
      <trkpt lat="46.69631" lon="-1.42432">
        <ele>68</ele>
        <time>2021-07-31T17:27:24Z</time>
      </trkpt>
      <trkpt lat="46.69357" lon="-1.42499">
        <ele>68.199996948242</ele>
        <time>2021-07-31T17:28:15Z</time>
      </trkpt>
      <trkpt lat="46.69306" lon="-1.42509">
        <ele>68</ele>
        <time>2021-07-31T17:28:24Z</time>
      </trkpt>
      <trkpt lat="46.69209" lon="-1.42497">
        <ele>67.400001525879</ele>
        <time>2021-07-31T17:28:42Z</time>
      </trkpt>
      <trkpt lat="46.69118" lon="-1.42474">
        <ele>71</ele>
        <time>2021-07-31T17:29:09Z</time>
      </trkpt>
      <trkpt lat="46.69115" lon="-1.42472">
        <ele>71</ele>
        <time>2021-07-31T17:29:10Z</time>
      </trkpt>
      <trkpt lat="46.68938" lon="-1.42449">
        <ele>67.800003051758</ele>
        <time>2021-07-31T17:29:47Z</time>
      </trkpt>
      <trkpt lat="46.68878" lon="-1.4243">
        <ele>66.599998474121</ele>
        <time>2021-07-31T17:30:02Z</time>
      </trkpt>
      <trkpt lat="46.68873" lon="-1.42429">
        <ele>66.599998474121</ele>
        <time>2021-07-31T17:30:03Z</time>
      </trkpt>
      <trkpt lat="46.68839" lon="-1.42429">
        <ele>65.800003051758</ele>
        <time>2021-07-31T17:30:09Z</time>
      </trkpt>
      <trkpt lat="46.68575" lon="-1.42419">
        <ele>65.400001525879</ele>
        <time>2021-07-31T17:31:01Z</time>
      </trkpt>
      <trkpt lat="46.68523" lon="-1.42388">
        <ele>66.400001525879</ele>
        <time>2021-07-31T17:31:14Z</time>
      </trkpt>
      <trkpt lat="46.68419" lon="-1.42315">
        <ele>68.199996948242</ele>
        <time>2021-07-31T17:31:40Z</time>
      </trkpt>
      <trkpt lat="46.68396" lon="-1.42294">
        <ele>68.599998474121</ele>
        <time>2021-07-31T17:31:46Z</time>
      </trkpt>
      <trkpt lat="46.68331" lon="-1.42235">
        <ele>69.199996948242</ele>
        <time>2021-07-31T17:32:02Z</time>
      </trkpt>
      <trkpt lat="46.68291" lon="-1.4222">
        <ele>68.400001525879</ele>
        <time>2021-07-31T17:32:09Z</time>
      </trkpt>
      <trkpt lat="46.68151" lon="-1.42202">
        <ele>64.599998474121</ele>
        <time>2021-07-31T17:32:27Z</time>
      </trkpt>
      <trkpt lat="46.68115" lon="-1.422">
        <ele>61.799999237061</ele>
        <time>2021-07-31T17:32:32Z</time>
      </trkpt>
      <trkpt lat="46.68019" lon="-1.42183">
        <ele>58.400001525879</ele>
        <time>2021-07-31T17:32:45Z</time>
      </trkpt>
      <trkpt lat="46.68013" lon="-1.42182">
        <ele>58.200000762939</ele>
        <time>2021-07-31T17:32:46Z</time>
      </trkpt>
      <trkpt lat="46.67978" lon="-1.42177">
        <ele>58.200000762939</ele>
        <time>2021-07-31T17:32:52Z</time>
      </trkpt>
      <trkpt lat="46.67862" lon="-1.42167">
        <ele>61.200000762939</ele>
        <time>2021-07-31T17:33:21Z</time>
      </trkpt>
      <trkpt lat="46.67814" lon="-1.42164">
        <ele>61.400001525879</ele>
        <time>2021-07-31T17:33:31Z</time>
      </trkpt>
      <trkpt lat="46.67726" lon="-1.42147">
        <ele>61.799999237061</ele>
        <time>2021-07-31T17:33:50Z</time>
      </trkpt>
      <trkpt lat="46.67701" lon="-1.4214">
        <ele>62</ele>
        <time>2021-07-31T17:33:56Z</time>
      </trkpt>
      <trkpt lat="46.67685" lon="-1.42139">
        <ele>62.400001525879</ele>
        <time>2021-07-31T17:34:00Z</time>
      </trkpt>
      <trkpt lat="46.67597" lon="-1.42165">
        <ele>65.199996948242</ele>
        <time>2021-07-31T17:34:25Z</time>
      </trkpt>
      <trkpt lat="46.67477" lon="-1.42225">
        <ele>65.400001525879</ele>
        <time>2021-07-31T17:34:52Z</time>
      </trkpt>
      <trkpt lat="46.67456" lon="-1.42242">
        <ele>62</ele>
        <time>2021-07-31T17:35:00Z</time>
      </trkpt>
      <trkpt lat="46.67417" lon="-1.4225">
        <ele>59.599998474121</ele>
        <time>2021-07-31T17:35:14Z</time>
      </trkpt>
      <trkpt lat="46.67327" lon="-1.42209">
        <ele>56.599998474121</ele>
        <time>2021-07-31T17:35:28Z</time>
      </trkpt>
      <trkpt lat="46.67259" lon="-1.42168">
        <ele>53.799999237061</ele>
        <time>2021-07-31T17:35:40Z</time>
      </trkpt>
      <trkpt lat="46.6725" lon="-1.42169">
        <ele>53.599998474121</ele>
        <time>2021-07-31T17:35:42Z</time>
      </trkpt>
      <trkpt lat="46.67233" lon="-1.42199">
        <ele>54</ele>
        <time>2021-07-31T17:35:51Z</time>
      </trkpt>
      <trkpt lat="46.67209" lon="-1.42287">
        <ele>57.400001525879</ele>
        <time>2021-07-31T17:36:18Z</time>
      </trkpt>
      <trkpt lat="46.67205" lon="-1.42322">
        <ele>58</ele>
        <time>2021-07-31T17:36:28Z</time>
      </trkpt>
      <trkpt lat="46.67189" lon="-1.42402">
        <ele>61</ele>
        <time>2021-07-31T17:36:52Z</time>
      </trkpt>
      <trkpt lat="46.67188" lon="-1.4241">
        <ele>61.200000762939</ele>
        <time>2021-07-31T17:36:55Z</time>
      </trkpt>
      <trkpt lat="46.67167" lon="-1.42472">
        <ele>62.799999237061</ele>
        <time>2021-07-31T17:37:15Z</time>
      </trkpt>
      <trkpt lat="46.67163" lon="-1.4251">
        <ele>64</ele>
        <time>2021-07-31T17:37:24Z</time>
      </trkpt>
      <trkpt lat="46.67155" lon="-1.4253">
        <ele>65.400001525879</ele>
        <time>2021-07-31T17:37:31Z</time>
      </trkpt>
      <trkpt lat="46.67144" lon="-1.42569">
        <ele>66.800003051758</ele>
        <time>2021-07-31T17:37:43Z</time>
      </trkpt>
      <trkpt lat="46.67083" lon="-1.42815">
        <ele>68.199996948242</ele>
        <time>2021-07-31T17:38:40Z</time>
      </trkpt>
      <trkpt lat="46.67075" lon="-1.4285">
        <ele>68</ele>
        <time>2021-07-31T17:38:50Z</time>
      </trkpt>
      <trkpt lat="46.67071" lon="-1.42888">
        <ele>68</ele>
        <time>2021-07-31T17:38:56Z</time>
      </trkpt>
      <trkpt lat="46.67067" lon="-1.42918">
        <ele>67.599998474121</ele>
        <time>2021-07-31T17:39:01Z</time>
      </trkpt>
      <trkpt lat="46.67053" lon="-1.4298">
        <ele>67.599998474121</ele>
        <time>2021-07-31T17:39:12Z</time>
      </trkpt>
      <trkpt lat="46.67037" lon="-1.43042">
        <ele>67.599998474121</ele>
        <time>2021-07-31T17:39:23Z</time>
      </trkpt>
      <trkpt lat="46.6703" lon="-1.4308">
        <ele>67.199996948242</ele>
        <time>2021-07-31T17:39:29Z</time>
      </trkpt>
      <trkpt lat="46.67022" lon="-1.43145">
        <ele>67.199996948242</ele>
        <time>2021-07-31T17:39:40Z</time>
      </trkpt>
      <trkpt lat="46.67023" lon="-1.43208">
        <ele>65.800003051758</ele>
        <time>2021-07-31T17:40:02Z</time>
      </trkpt>
      <trkpt lat="46.67091" lon="-1.43244">
        <ele>68.199996948242</ele>
        <time>2021-07-31T17:40:24Z</time>
      </trkpt>
      <trkpt lat="46.67142" lon="-1.43274">
        <ele>69.199996948242</ele>
        <time>2021-07-31T17:40:41Z</time>
      </trkpt>
      <trkpt lat="46.67145" lon="-1.43291">
        <ele>69.599998474121</ele>
        <time>2021-07-31T17:40:48Z</time>
      </trkpt>
      <trkpt lat="46.67112" lon="-1.43248">
        <ele>71</ele>
        <time>2021-08-01T07:09:09Z</time>
      </trkpt>
      <trkpt lat="46.67133" lon="-1.43261">
        <ele>75</ele>
        <time>2021-08-01T07:09:17Z</time>
      </trkpt>
      <trkpt lat="46.67144" lon="-1.43269">
        <ele>75.199996948242</ele>
        <time>2021-08-01T07:09:23Z</time>
      </trkpt>
      <trkpt lat="46.67137" lon="-1.43274">
        <ele>75</ele>
        <time>2021-08-01T07:09:28Z</time>
      </trkpt>
      <trkpt lat="46.66985" lon="-1.43198">
        <ele>71.800003051758</ele>
        <time>2021-08-01T07:10:09Z</time>
      </trkpt>
      <trkpt lat="46.66983" lon="-1.43196">
        <ele>71.800003051758</ele>
        <time>2021-08-01T07:10:10Z</time>
      </trkpt>
      <trkpt lat="46.66857" lon="-1.43135">
        <ele>69.400001525879</ele>
        <time>2021-08-01T07:10:47Z</time>
      </trkpt>
      <trkpt lat="46.66852" lon="-1.43133">
        <ele>69.400001525879</ele>
        <time>2021-08-01T07:10:48Z</time>
      </trkpt>
      <trkpt lat="46.66719" lon="-1.43059">
        <ele>66.400001525879</ele>
        <time>2021-08-01T07:11:14Z</time>
      </trkpt>
      <trkpt lat="46.66683" lon="-1.43034">
        <ele>65.199996948242</ele>
        <time>2021-08-01T07:11:20Z</time>
      </trkpt>
      <trkpt lat="46.66643" lon="-1.43015">
        <ele>64.199996948242</ele>
        <time>2021-08-01T07:11:26Z</time>
      </trkpt>
      <trkpt lat="46.66535" lon="-1.42976">
        <ele>62.599998474121</ele>
        <time>2021-08-01T07:11:39Z</time>
      </trkpt>
      <trkpt lat="46.66498" lon="-1.42955">
        <ele>61.599998474121</ele>
        <time>2021-08-01T07:11:44Z</time>
      </trkpt>
      <trkpt lat="46.66456" lon="-1.42933">
        <ele>60.200000762939</ele>
        <time>2021-08-01T07:11:49Z</time>
      </trkpt>
      <trkpt lat="46.6639" lon="-1.42897">
        <ele>55.799999237061</ele>
        <time>2021-08-01T07:12:02Z</time>
      </trkpt>
      <trkpt lat="46.66353" lon="-1.42876">
        <ele>55</ele>
        <time>2021-08-01T07:12:10Z</time>
      </trkpt>
      <trkpt lat="46.66358" lon="-1.42763">
        <ele>54.400001525879</ele>
        <time>2021-08-01T07:12:23Z</time>
      </trkpt>
      <trkpt lat="46.6637" lon="-1.42728">
        <ele>54</ele>
        <time>2021-08-01T07:12:27Z</time>
      </trkpt>
      <trkpt lat="46.66385" lon="-1.42668">
        <ele>53.200000762939</ele>
        <time>2021-08-01T07:12:34Z</time>
      </trkpt>
      <trkpt lat="46.66406" lon="-1.42593">
        <ele>52.400001525879</ele>
        <time>2021-08-01T07:12:44Z</time>
      </trkpt>
      <trkpt lat="46.66425" lon="-1.42516">
        <ele>51.799999237061</ele>
        <time>2021-08-01T07:12:52Z</time>
      </trkpt>
      <trkpt lat="46.66447" lon="-1.42421">
        <ele>49.799999237061</ele>
        <time>2021-08-01T07:13:08Z</time>
      </trkpt>
      <trkpt lat="46.66449" lon="-1.42369">
        <ele>49.400001525879</ele>
        <time>2021-08-01T07:13:15Z</time>
      </trkpt>
      <trkpt lat="46.66418" lon="-1.42342">
        <ele>48.400001525879</ele>
        <time>2021-08-01T07:13:25Z</time>
      </trkpt>
      <trkpt lat="46.66214" lon="-1.42239">
        <ele>51</ele>
        <time>2021-08-01T07:14:13Z</time>
      </trkpt>
      <trkpt lat="46.66201" lon="-1.42231">
        <ele>51.200000762939</ele>
        <time>2021-08-01T07:14:17Z</time>
      </trkpt>
      <trkpt lat="46.66196" lon="-1.4223">
        <ele>51.200000762939</ele>
        <time>2021-08-01T07:14:19Z</time>
      </trkpt>
      <trkpt lat="46.66181" lon="-1.42222">
        <ele>51.400001525879</ele>
        <time>2021-08-01T07:14:22Z</time>
      </trkpt>
      <trkpt lat="46.66033" lon="-1.42151">
        <ele>54.599998474121</ele>
        <time>2021-08-01T07:15:05Z</time>
      </trkpt>
      <trkpt lat="46.65772" lon="-1.4202">
        <ele>53.400001525879</ele>
        <time>2021-08-01T07:15:58Z</time>
      </trkpt>
      <trkpt lat="46.65657" lon="-1.41959">
        <ele>57.400001525879</ele>
        <time>2021-08-01T07:16:34Z</time>
      </trkpt>
      <trkpt lat="46.65637" lon="-1.41947">
        <ele>58.400001525879</ele>
        <time>2021-08-01T07:16:42Z</time>
      </trkpt>
      <trkpt lat="46.65613" lon="-1.41932">
        <ele>59.599998474121</ele>
        <time>2021-08-01T07:16:51Z</time>
      </trkpt>
      <trkpt lat="46.65487" lon="-1.41876">
        <ele>63</ele>
        <time>2021-08-01T07:17:27Z</time>
      </trkpt>
      <trkpt lat="46.65178" lon="-1.41717">
        <ele>58.599998474121</ele>
        <time>2021-08-01T07:18:17Z</time>
      </trkpt>
      <trkpt lat="46.65168" lon="-1.41712">
        <ele>58.400001525879</ele>
        <time>2021-08-01T07:18:18Z</time>
      </trkpt>
      <trkpt lat="46.65068" lon="-1.41658">
        <ele>55.400001525879</ele>
        <time>2021-08-01T07:18:28Z</time>
      </trkpt>
      <trkpt lat="46.64937" lon="-1.41598">
        <ele>52.400001525879</ele>
        <time>2021-08-01T07:18:44Z</time>
      </trkpt>
      <trkpt lat="46.64912" lon="-1.41586">
        <ele>52.599998474121</ele>
        <time>2021-08-01T07:18:50Z</time>
      </trkpt>
      <trkpt lat="46.64835" lon="-1.41543">
        <ele>55.599998474121</ele>
        <time>2021-08-01T07:19:14Z</time>
      </trkpt>
      <trkpt lat="46.64818" lon="-1.41535">
        <ele>56.599998474121</ele>
        <time>2021-08-01T07:19:20Z</time>
      </trkpt>
      <trkpt lat="46.64789" lon="-1.41519">
        <ele>58.400001525879</ele>
        <time>2021-08-01T07:19:31Z</time>
      </trkpt>
      <trkpt lat="46.64725" lon="-1.41488">
        <ele>61.400001525879</ele>
        <time>2021-08-01T07:19:54Z</time>
      </trkpt>
      <trkpt lat="46.64706" lon="-1.41482">
        <ele>63</ele>
        <time>2021-08-01T07:20:08Z</time>
      </trkpt>
      <trkpt lat="46.64624" lon="-1.41435">
        <ele>66.400001525879</ele>
        <time>2021-08-01T07:20:40Z</time>
      </trkpt>
      <trkpt lat="46.6462" lon="-1.41433">
        <ele>66.599998474121</ele>
        <time>2021-08-01T07:20:41Z</time>
      </trkpt>
      <trkpt lat="46.64596" lon="-1.41408">
        <ele>66.800003051758</ele>
        <time>2021-08-01T07:20:49Z</time>
      </trkpt>
      <trkpt lat="46.64567" lon="-1.4137">
        <ele>67.400001525879</ele>
        <time>2021-08-01T07:20:58Z</time>
      </trkpt>
      <trkpt lat="46.64535" lon="-1.41325">
        <ele>67.800003051758</ele>
        <time>2021-08-01T07:21:07Z</time>
      </trkpt>
      <trkpt lat="46.64523" lon="-1.413">
        <ele>67.599998474121</ele>
        <time>2021-08-01T07:21:11Z</time>
      </trkpt>
      <trkpt lat="46.64429" lon="-1.4111">
        <ele>66.599998474121</ele>
        <time>2021-08-01T07:21:40Z</time>
      </trkpt>
      <trkpt lat="46.64369" lon="-1.41001">
        <ele>65.599998474121</ele>
        <time>2021-08-01T07:21:53Z</time>
      </trkpt>
      <trkpt lat="46.64315" lon="-1.40884">
        <ele>64</ele>
        <time>2021-08-01T07:22:05Z</time>
      </trkpt>
      <trkpt lat="46.64065" lon="-1.40397">
        <ele>65.199996948242</ele>
        <time>2021-08-01T07:23:16Z</time>
      </trkpt>
      <trkpt lat="46.63999" lon="-1.40268">
        <ele>67</ele>
        <time>2021-08-01T07:23:39Z</time>
      </trkpt>
      <trkpt lat="46.63926" lon="-1.40127">
        <ele>67.800003051758</ele>
        <time>2021-08-01T07:24:09Z</time>
      </trkpt>
      <trkpt lat="46.63955" lon="-1.4017">
        <ele>67.800003051758</ele>
        <time>2021-08-01T07:24:24Z</time>
      </trkpt>
      <trkpt lat="46.63965" lon="-1.40196">
        <ele>68</ele>
        <time>2021-08-01T07:24:31Z</time>
      </trkpt>
      <trkpt lat="46.6385" lon="-1.40311">
        <ele>68.199996948242</ele>
        <time>2021-08-01T07:25:08Z</time>
      </trkpt>
      <trkpt lat="46.63794" lon="-1.40378">
        <ele>67.800003051758</ele>
        <time>2021-08-01T07:25:26Z</time>
      </trkpt>
      <trkpt lat="46.63674" lon="-1.40456">
        <ele>67.400001525879</ele>
        <time>2021-08-01T07:25:47Z</time>
      </trkpt>
      <trkpt lat="46.63528" lon="-1.40532">
        <ele>65.199996948242</ele>
        <time>2021-08-01T07:26:11Z</time>
      </trkpt>
      <trkpt lat="46.63459" lon="-1.40563">
        <ele>63.200000762939</ele>
        <time>2021-08-01T07:26:21Z</time>
      </trkpt>
      <trkpt lat="46.6341" lon="-1.40571">
        <ele>61.599998474121</ele>
        <time>2021-08-01T07:26:27Z</time>
      </trkpt>
      <trkpt lat="46.63375" lon="-1.40577">
        <ele>61.400001525879</ele>
        <time>2021-08-01T07:26:31Z</time>
      </trkpt>
      <trkpt lat="46.63259" lon="-1.40593">
        <ele>58</ele>
        <time>2021-08-01T07:26:42Z</time>
      </trkpt>
      <trkpt lat="46.63206" lon="-1.40591">
        <ele>55</ele>
        <time>2021-08-01T07:26:47Z</time>
      </trkpt>
      <trkpt lat="46.63096" lon="-1.40583">
        <ele>53.799999237061</ele>
        <time>2021-08-01T07:27:01Z</time>
      </trkpt>
      <trkpt lat="46.62823" lon="-1.40573">
        <ele>50.599998474121</ele>
        <time>2021-08-01T07:27:37Z</time>
      </trkpt>
      <trkpt lat="46.62739" lon="-1.40577">
        <ele>52</ele>
        <time>2021-08-01T07:27:53Z</time>
      </trkpt>
      <trkpt lat="46.62696" lon="-1.40593">
        <ele>52.799999237061</ele>
        <time>2021-08-01T07:28:01Z</time>
      </trkpt>
      <trkpt lat="46.62595" lon="-1.40682">
        <ele>54.799999237061</ele>
        <time>2021-08-01T07:28:24Z</time>
      </trkpt>
      <trkpt lat="46.6253" lon="-1.40751">
        <ele>57.400001525879</ele>
        <time>2021-08-01T07:28:48Z</time>
      </trkpt>
      <trkpt lat="46.62473" lon="-1.40772">
        <ele>60.799999237061</ele>
        <time>2021-08-01T07:29:09Z</time>
      </trkpt>
      <trkpt lat="46.6247" lon="-1.40772">
        <ele>61</ele>
        <time>2021-08-01T07:29:10Z</time>
      </trkpt>
      <trkpt lat="46.62382" lon="-1.4079">
        <ele>63.400001525879</ele>
        <time>2021-08-01T07:29:36Z</time>
      </trkpt>
      <trkpt lat="46.62266" lon="-1.40804">
        <ele>62.799999237061</ele>
        <time>2021-08-01T07:29:56Z</time>
      </trkpt>
      <trkpt lat="46.62258" lon="-1.40803">
        <ele>62.799999237061</ele>
        <time>2021-08-01T07:29:57Z</time>
      </trkpt>
      <trkpt lat="46.6222" lon="-1.40799">
        <ele>61.799999237061</ele>
        <time>2021-08-01T07:30:01Z</time>
      </trkpt>
      <trkpt lat="46.6215" lon="-1.40822">
        <ele>59.400001525879</ele>
        <time>2021-08-01T07:30:08Z</time>
      </trkpt>
      <trkpt lat="46.62069" lon="-1.40875">
        <ele>56.400001525879</ele>
        <time>2021-08-01T07:30:16Z</time>
      </trkpt>
      <trkpt lat="46.62047" lon="-1.40887">
        <ele>54.799999237061</ele>
        <time>2021-08-01T07:30:18Z</time>
      </trkpt>
      <trkpt lat="46.61986" lon="-1.4091">
        <ele>52.400001525879</ele>
        <time>2021-08-01T07:30:23Z</time>
      </trkpt>
      <trkpt lat="46.61948" lon="-1.40932">
        <ele>50.400001525879</ele>
        <time>2021-08-01T07:30:26Z</time>
      </trkpt>
      <trkpt lat="46.61905" lon="-1.40976">
        <ele>47.400001525879</ele>
        <time>2021-08-01T07:30:30Z</time>
      </trkpt>
      <trkpt lat="46.61875" lon="-1.41023">
        <ele>44.400001525879</ele>
        <time>2021-08-01T07:30:34Z</time>
      </trkpt>
      <trkpt lat="46.6186" lon="-1.41044">
        <ele>43.400001525879</ele>
        <time>2021-08-01T07:30:36Z</time>
      </trkpt>
      <trkpt lat="46.61792" lon="-1.41111">
        <ele>39.200000762939</ele>
        <time>2021-08-01T07:30:45Z</time>
      </trkpt>
      <trkpt lat="46.61785" lon="-1.41116">
        <ele>38.599998474121</ele>
        <time>2021-08-01T07:30:46Z</time>
      </trkpt>
      <trkpt lat="46.6171" lon="-1.4117">
        <ele>37.400001525879</ele>
        <time>2021-08-01T07:30:58Z</time>
      </trkpt>
      <trkpt lat="46.61583" lon="-1.41261">
        <ele>37.400001525879</ele>
        <time>2021-08-01T07:31:22Z</time>
      </trkpt>
      <trkpt lat="46.61551" lon="-1.41286">
        <ele>38</ele>
        <time>2021-08-01T07:31:29Z</time>
      </trkpt>
      <trkpt lat="46.615" lon="-1.4132">
        <ele>39.400001525879</ele>
        <time>2021-08-01T07:31:42Z</time>
      </trkpt>
      <trkpt lat="46.61417" lon="-1.41366">
        <ele>42.400001525879</ele>
        <time>2021-08-01T07:32:07Z</time>
      </trkpt>
      <trkpt lat="46.61327" lon="-1.41343">
        <ele>46.400001525879</ele>
        <time>2021-08-01T07:32:38Z</time>
      </trkpt>
      <trkpt lat="46.61323" lon="-1.41342">
        <ele>46.599998474121</ele>
        <time>2021-08-01T07:32:39Z</time>
      </trkpt>
      <trkpt lat="46.61276" lon="-1.41302">
        <ele>48.400001525879</ele>
        <time>2021-08-01T07:32:56Z</time>
      </trkpt>
      <trkpt lat="46.61207" lon="-1.41199">
        <ele>50</ele>
        <time>2021-08-01T07:33:21Z</time>
      </trkpt>
      <trkpt lat="46.61198" lon="-1.41185">
        <ele>50.400001525879</ele>
        <time>2021-08-01T07:33:24Z</time>
      </trkpt>
      <trkpt lat="46.61154" lon="-1.41106">
        <ele>52.400001525879</ele>
        <time>2021-08-01T07:33:42Z</time>
      </trkpt>
      <trkpt lat="46.61023" lon="-1.40846">
        <ele>52.799999237061</ele>
        <time>2021-08-01T07:34:26Z</time>
      </trkpt>
      <trkpt lat="46.60992" lon="-1.40804">
        <ele>52</ele>
        <time>2021-08-01T07:34:33Z</time>
      </trkpt>
      <trkpt lat="46.60968" lon="-1.40774">
        <ele>51.799999237061</ele>
        <time>2021-08-01T07:34:38Z</time>
      </trkpt>
      <trkpt lat="46.60956" lon="-1.40761">
        <ele>51.799999237061</ele>
        <time>2021-08-01T07:34:40Z</time>
      </trkpt>
      <trkpt lat="46.60911" lon="-1.40732">
        <ele>51.200000762939</ele>
        <time>2021-08-01T07:34:46Z</time>
      </trkpt>
      <trkpt lat="46.60855" lon="-1.40704">
        <ele>49.200000762939</ele>
        <time>2021-08-01T07:34:52Z</time>
      </trkpt>
      <trkpt lat="46.60731" lon="-1.40643">
        <ele>46.200000762939</ele>
        <time>2021-08-01T07:35:08Z</time>
      </trkpt>
      <trkpt lat="46.60657" lon="-1.40584">
        <ele>49.599998474121</ele>
        <time>2021-08-01T07:35:38Z</time>
      </trkpt>
      <trkpt lat="46.60546" lon="-1.40533">
        <ele>52.799999237061</ele>
        <time>2021-08-01T07:36:14Z</time>
      </trkpt>
      <trkpt lat="46.60526" lon="-1.40536">
        <ele>53.200000762939</ele>
        <time>2021-08-01T07:36:19Z</time>
      </trkpt>
      <trkpt lat="46.60465" lon="-1.4052">
        <ele>54.400001525879</ele>
        <time>2021-08-01T07:36:34Z</time>
      </trkpt>
      <trkpt lat="46.60462" lon="-1.40518">
        <ele>54.599998474121</ele>
        <time>2021-08-01T07:36:35Z</time>
      </trkpt>
      <trkpt lat="46.60243" lon="-1.40433">
        <ele>57.599998474121</ele>
        <time>2021-08-01T07:37:24Z</time>
      </trkpt>
      <trkpt lat="46.60194" lon="-1.40416">
        <ele>58.599998474121</ele>
        <time>2021-08-01T07:37:35Z</time>
      </trkpt>
      <trkpt lat="46.6009" lon="-1.40362">
        <ele>60.599998474121</ele>
        <time>2021-08-01T07:38:01Z</time>
      </trkpt>
      <trkpt lat="46.60028" lon="-1.40358">
        <ele>61</ele>
        <time>2021-08-01T07:38:15Z</time>
      </trkpt>
      <trkpt lat="46.5975" lon="-1.40424">
        <ele>59.799999237061</ele>
        <time>2021-08-01T07:39:02Z</time>
      </trkpt>
      <trkpt lat="46.59642" lon="-1.40473">
        <ele>53</ele>
        <time>2021-08-01T07:39:14Z</time>
      </trkpt>
      <trkpt lat="46.59634" lon="-1.40476">
        <ele>55.799999237061</ele>
        <time>2021-08-01T07:39:15Z</time>
      </trkpt>
      <trkpt lat="46.59544" lon="-1.40512">
        <ele>53.599998474121</ele>
        <time>2021-08-01T07:39:31Z</time>
      </trkpt>
      <trkpt lat="46.59483" lon="-1.40558">
        <ele>57.599998474121</ele>
        <time>2021-08-01T07:40:00Z</time>
      </trkpt>
      <trkpt lat="46.5944" lon="-1.40586">
        <ele>60.400001525879</ele>
        <time>2021-08-01T07:40:20Z</time>
      </trkpt>
      <trkpt lat="46.59426" lon="-1.40605">
        <ele>61.400001525879</ele>
        <time>2021-08-01T07:40:27Z</time>
      </trkpt>
      <trkpt lat="46.59411" lon="-1.40621">
        <ele>62.200000762939</ele>
        <time>2021-08-01T07:40:34Z</time>
      </trkpt>
      <trkpt lat="46.59374" lon="-1.40652">
        <ele>63.799999237061</ele>
        <time>2021-08-01T07:40:53Z</time>
      </trkpt>
      <trkpt lat="46.5936" lon="-1.40638">
        <ele>64</ele>
        <time>2021-08-01T07:40:58Z</time>
      </trkpt>
      <trkpt lat="46.59356" lon="-1.40635">
        <ele>63.799999237061</ele>
        <time>2021-08-01T07:40:59Z</time>
      </trkpt>
      <trkpt lat="46.59352" lon="-1.4063">
        <ele>64</ele>
        <time>2021-08-01T07:41:00Z</time>
      </trkpt>
      <trkpt lat="46.59248" lon="-1.40494">
        <ele>59.799999237061</ele>
        <time>2021-08-01T07:41:22Z</time>
      </trkpt>
      <trkpt lat="46.59215" lon="-1.40421">
        <ele>58.200000762939</ele>
        <time>2021-08-01T07:41:30Z</time>
      </trkpt>
      <trkpt lat="46.59227" lon="-1.4038">
        <ele>57</ele>
        <time>2021-08-01T07:41:36Z</time>
      </trkpt>
      <trkpt lat="46.59244" lon="-1.40278">
        <ele>59.200000762939</ele>
        <time>2021-08-01T07:41:57Z</time>
      </trkpt>
      <trkpt lat="46.59247" lon="-1.40227">
        <ele>61.200000762939</ele>
        <time>2021-08-01T07:42:10Z</time>
      </trkpt>
      <trkpt lat="46.59236" lon="-1.40206">
        <ele>61.400001525879</ele>
        <time>2021-08-01T07:42:16Z</time>
      </trkpt>
      <trkpt lat="46.59203" lon="-1.40188">
        <ele>62.400001525879</ele>
        <time>2021-08-01T07:42:32Z</time>
      </trkpt>
      <trkpt lat="46.59156" lon="-1.40176">
        <ele>62.799999237061</ele>
        <time>2021-08-01T07:42:45Z</time>
      </trkpt>
      <trkpt lat="46.59086" lon="-1.40176">
        <ele>62.400001525879</ele>
        <time>2021-08-01T07:42:56Z</time>
      </trkpt>
      <trkpt lat="46.59072" lon="-1.40175">
        <ele>62.200000762939</ele>
        <time>2021-08-01T07:42:58Z</time>
      </trkpt>
      <trkpt lat="46.59025" lon="-1.40154">
        <ele>61.799999237061</ele>
        <time>2021-08-01T07:43:05Z</time>
      </trkpt>
      <trkpt lat="46.58928" lon="-1.40048">
        <ele>61</ele>
        <time>2021-08-01T07:43:25Z</time>
      </trkpt>
      <trkpt lat="46.58868" lon="-1.39933">
        <ele>62.200000762939</ele>
        <time>2021-08-01T07:43:45Z</time>
      </trkpt>
      <trkpt lat="46.58855" lon="-1.39906">
        <ele>62.799999237061</ele>
        <time>2021-08-01T07:43:50Z</time>
      </trkpt>
      <trkpt lat="46.58832" lon="-1.39858">
        <ele>63.799999237061</ele>
        <time>2021-08-01T07:43:59Z</time>
      </trkpt>
      <trkpt lat="46.58823" lon="-1.39834">
        <ele>64</ele>
        <time>2021-08-01T07:44:03Z</time>
      </trkpt>
      <trkpt lat="46.58819" lon="-1.39823">
        <ele>64</ele>
        <time>2021-08-01T07:44:05Z</time>
      </trkpt>
      <trkpt lat="46.5881" lon="-1.39793">
        <ele>64.400001525879</ele>
        <time>2021-08-01T07:44:10Z</time>
      </trkpt>
      <trkpt lat="46.58789" lon="-1.39667">
        <ele>65.599998474121</ele>
        <time>2021-08-01T07:44:30Z</time>
      </trkpt>
      <trkpt lat="46.58688" lon="-1.39494">
        <ele>68.599998474121</ele>
        <time>2021-08-01T07:45:08Z</time>
      </trkpt>
      <trkpt lat="46.58617" lon="-1.39385">
        <ele>72.599998474121</ele>
        <time>2021-08-01T07:45:36Z</time>
      </trkpt>
      <trkpt lat="46.58599" lon="-1.39356">
        <ele>73.800003051758</ele>
        <time>2021-08-01T07:45:43Z</time>
      </trkpt>
      <trkpt lat="46.585" lon="-1.39323">
        <ele>75.400001525879</ele>
        <time>2021-08-01T07:46:07Z</time>
      </trkpt>
      <trkpt lat="46.58496" lon="-1.39322">
        <ele>75.599998474121</ele>
        <time>2021-08-01T07:46:08Z</time>
      </trkpt>
      <trkpt lat="46.58376" lon="-1.39232">
        <ele>77</ele>
        <time>2021-08-01T07:46:37Z</time>
      </trkpt>
      <trkpt lat="46.58356" lon="-1.39197">
        <ele>76.800003051758</ele>
        <time>2021-08-01T07:46:42Z</time>
      </trkpt>
      <trkpt lat="46.58345" lon="-1.39129">
        <ele>76.199996948242</ele>
        <time>2021-08-01T07:46:49Z</time>
      </trkpt>
      <trkpt lat="46.58334" lon="-1.3899">
        <ele>73.800003051758</ele>
        <time>2021-08-01T07:46:59Z</time>
      </trkpt>
      <trkpt lat="46.58301" lon="-1.38906">
        <ele>72.199996948242</ele>
        <time>2021-08-01T07:47:05Z</time>
      </trkpt>
      <trkpt lat="46.58248" lon="-1.38848">
        <ele>68.800003051758</ele>
        <time>2021-08-01T07:47:12Z</time>
      </trkpt>
      <trkpt lat="46.58237" lon="-1.38834">
        <ele>68.599998474121</ele>
        <time>2021-08-01T07:47:14Z</time>
      </trkpt>
      <trkpt lat="46.58196" lon="-1.3871">
        <ele>66.599998474121</ele>
        <time>2021-08-01T07:47:28Z</time>
      </trkpt>
      <trkpt lat="46.58183" lon="-1.38622">
        <ele>65.800003051758</ele>
        <time>2021-08-01T07:47:36Z</time>
      </trkpt>
      <trkpt lat="46.58184" lon="-1.38549">
        <ele>64.400001525879</ele>
        <time>2021-08-01T07:47:43Z</time>
      </trkpt>
      <trkpt lat="46.58194" lon="-1.38417">
        <ele>67.199996948242</ele>
        <time>2021-08-01T07:48:14Z</time>
      </trkpt>
      <trkpt lat="46.58181" lon="-1.38336">
        <ele>70.400001525879</ele>
        <time>2021-08-01T07:48:35Z</time>
      </trkpt>
      <trkpt lat="46.5818" lon="-1.38332">
        <ele>70.599998474121</ele>
        <time>2021-08-01T07:48:36Z</time>
      </trkpt>
      <trkpt lat="46.58175" lon="-1.38295">
        <ele>72</ele>
        <time>2021-08-01T07:48:46Z</time>
      </trkpt>
      <trkpt lat="46.58142" lon="-1.38185">
        <ele>74.199996948242</ele>
        <time>2021-08-01T07:49:11Z</time>
      </trkpt>
      <trkpt lat="46.58128" lon="-1.38132">
        <ele>74</ele>
        <time>2021-08-01T07:49:19Z</time>
      </trkpt>
      <trkpt lat="46.58121" lon="-1.3808">
        <ele>74</ele>
        <time>2021-08-01T07:49:25Z</time>
      </trkpt>
      <trkpt lat="46.58128" lon="-1.37983">
        <ele>73</ele>
        <time>2021-08-01T07:49:33Z</time>
      </trkpt>
      <trkpt lat="46.58131" lon="-1.37954">
        <ele>73</ele>
        <time>2021-08-01T07:49:35Z</time>
      </trkpt>
      <trkpt lat="46.58131" lon="-1.37833">
        <ele>70</ele>
        <time>2021-08-01T07:49:43Z</time>
      </trkpt>
      <trkpt lat="46.58144" lon="-1.37778">
        <ele>68</ele>
        <time>2021-08-01T07:49:47Z</time>
      </trkpt>
      <trkpt lat="46.5818" lon="-1.37661">
        <ele>64.599998474121</ele>
        <time>2021-08-01T07:49:57Z</time>
      </trkpt>
      <trkpt lat="46.58183" lon="-1.3765">
        <ele>64.599998474121</ele>
        <time>2021-08-01T07:49:58Z</time>
      </trkpt>
      <trkpt lat="46.58233" lon="-1.37474">
        <ele>62.200000762939</ele>
        <time>2021-08-01T07:50:15Z</time>
      </trkpt>
      <trkpt lat="46.58246" lon="-1.37443">
        <ele>61.200000762939</ele>
        <time>2021-08-01T07:50:18Z</time>
      </trkpt>
      <trkpt lat="46.58271" lon="-1.37381">
        <ele>60.400001525879</ele>
        <time>2021-08-01T07:50:24Z</time>
      </trkpt>
      <trkpt lat="46.58316" lon="-1.37221">
        <ele>58</ele>
        <time>2021-08-01T07:50:40Z</time>
      </trkpt>
      <trkpt lat="46.58318" lon="-1.37102">
        <ele>56.599998474121</ele>
        <time>2021-08-01T07:50:51Z</time>
      </trkpt>
      <trkpt lat="46.58312" lon="-1.37044">
        <ele>55.799999237061</ele>
        <time>2021-08-01T07:50:57Z</time>
      </trkpt>
      <trkpt lat="46.58362" lon="-1.36879">
        <ele>54.400001525879</ele>
        <time>2021-08-01T07:51:17Z</time>
      </trkpt>
      <trkpt lat="46.58372" lon="-1.36842">
        <ele>54.400001525879</ele>
        <time>2021-08-01T07:51:21Z</time>
      </trkpt>
      <trkpt lat="46.58391" lon="-1.36749">
        <ele>51</ele>
        <time>2021-08-01T07:51:31Z</time>
      </trkpt>
      <trkpt lat="46.5839" lon="-1.36667">
        <ele>49.599998474121</ele>
        <time>2021-08-01T07:51:39Z</time>
      </trkpt>
      <trkpt lat="46.58389" lon="-1.3666">
        <ele>49.200000762939</ele>
        <time>2021-08-01T07:51:40Z</time>
      </trkpt>
      <trkpt lat="46.58389" lon="-1.36608">
        <ele>45.400001525879</ele>
        <time>2021-08-01T07:51:49Z</time>
      </trkpt>
      <trkpt lat="46.5839" lon="-1.36602">
        <ele>44.799999237061</ele>
        <time>2021-08-01T07:51:50Z</time>
      </trkpt>
      <trkpt lat="46.58391" lon="-1.36596">
        <ele>44.599998474121</ele>
        <time>2021-08-01T07:51:51Z</time>
      </trkpt>
      <trkpt lat="46.58355" lon="-1.36486">
        <ele>42</ele>
        <time>2021-08-01T07:52:07Z</time>
      </trkpt>
      <trkpt lat="46.5832" lon="-1.36443">
        <ele>40.799999237061</ele>
        <time>2021-08-01T07:52:12Z</time>
      </trkpt>
      <trkpt lat="46.58275" lon="-1.36353">
        <ele>38</ele>
        <time>2021-08-01T07:52:20Z</time>
      </trkpt>
      <trkpt lat="46.58236" lon="-1.36231">
        <ele>34.200000762939</ele>
        <time>2021-08-01T07:52:32Z</time>
      </trkpt>
      <trkpt lat="46.58212" lon="-1.3617">
        <ele>33.200000762939</ele>
        <time>2021-08-01T07:52:43Z</time>
      </trkpt>
      <trkpt lat="46.58211" lon="-1.3616">
        <ele>33.200000762939</ele>
        <time>2021-08-01T07:56:14Z</time>
      </trkpt>
      <trkpt lat="46.58253" lon="-1.36065">
        <ele>35.200000762939</ele>
        <time>2021-08-01T07:56:45Z</time>
      </trkpt>
      <trkpt lat="46.58272" lon="-1.36029">
        <ele>36.200000762939</ele>
        <time>2021-08-01T07:56:56Z</time>
      </trkpt>
      <trkpt lat="46.58295" lon="-1.35961">
        <ele>39</ele>
        <time>2021-08-01T07:57:18Z</time>
      </trkpt>
      <trkpt lat="46.58302" lon="-1.35939">
        <ele>39.799999237061</ele>
        <time>2021-08-01T07:57:26Z</time>
      </trkpt>
      <trkpt lat="46.58312" lon="-1.35922">
        <ele>40.599998474121</ele>
        <time>2021-08-01T07:57:33Z</time>
      </trkpt>
      <trkpt lat="46.58342" lon="-1.35878">
        <ele>43.200000762939</ele>
        <time>2021-08-01T07:57:52Z</time>
      </trkpt>
      <trkpt lat="46.58352" lon="-1.35826">
        <ele>45.400001525879</ele>
        <time>2021-08-01T07:58:07Z</time>
      </trkpt>
      <trkpt lat="46.58386" lon="-1.35743">
        <ele>48.400001525879</ele>
        <time>2021-08-01T07:58:32Z</time>
      </trkpt>
      <trkpt lat="46.58397" lon="-1.35711">
        <ele>49.599998474121</ele>
        <time>2021-08-01T07:58:42Z</time>
      </trkpt>
      <trkpt lat="46.58376" lon="-1.35664">
        <ele>52.599998474121</ele>
        <time>2021-08-01T07:59:02Z</time>
      </trkpt>
      <trkpt lat="46.58374" lon="-1.35663">
        <ele>52.599998474121</ele>
        <time>2021-08-01T07:59:03Z</time>
      </trkpt>
      <trkpt lat="46.58361" lon="-1.35651">
        <ele>54</ele>
        <time>2021-08-01T07:59:10Z</time>
      </trkpt>
      <trkpt lat="46.58347" lon="-1.35631">
        <ele>55</ele>
        <time>2021-08-01T07:59:18Z</time>
      </trkpt>
      <trkpt lat="46.58336" lon="-1.35612">
        <ele>56</ele>
        <time>2021-08-01T07:59:26Z</time>
      </trkpt>
      <trkpt lat="46.58304" lon="-1.35602">
        <ele>57.200000762939</ele>
        <time>2021-08-01T07:59:36Z</time>
      </trkpt>
      <trkpt lat="46.58149" lon="-1.35581">
        <ele>55.599998474121</ele>
        <time>2021-08-01T07:59:57Z</time>
      </trkpt>
      <trkpt lat="46.58032" lon="-1.35536">
        <ele>51.200000762939</ele>
        <time>2021-08-01T08:00:09Z</time>
      </trkpt>
      <trkpt lat="46.57985" lon="-1.35512">
        <ele>48.400001525879</ele>
        <time>2021-08-01T08:00:15Z</time>
      </trkpt>
      <trkpt lat="46.57969" lon="-1.35498">
        <ele>48.400001525879</ele>
        <time>2021-08-01T08:00:18Z</time>
      </trkpt>
      <trkpt lat="46.57872" lon="-1.3538">
        <ele>52</ele>
        <time>2021-08-01T08:00:49Z</time>
      </trkpt>
      <trkpt lat="46.57847" lon="-1.3526">
        <ele>53.400001525879</ele>
        <time>2021-08-01T08:01:09Z</time>
      </trkpt>
      <trkpt lat="46.57841" lon="-1.35145">
        <ele>55.599998474121</ele>
        <time>2021-08-01T08:01:28Z</time>
      </trkpt>
      <trkpt lat="46.57831" lon="-1.35063">
        <ele>58.599998474121</ele>
        <time>2021-08-01T08:01:44Z</time>
      </trkpt>
      <trkpt lat="46.5782" lon="-1.35004">
        <ele>60.200000762939</ele>
        <time>2021-08-01T08:01:55Z</time>
      </trkpt>
      <trkpt lat="46.57772" lon="-1.34902">
        <ele>60.599998474121</ele>
        <time>2021-08-01T08:02:11Z</time>
      </trkpt>
      <trkpt lat="46.57637" lon="-1.34707">
        <ele>57.200000762939</ele>
        <time>2021-08-01T08:02:36Z</time>
      </trkpt>
      <trkpt lat="46.5763" lon="-1.34696">
        <ele>57</ele>
        <time>2021-08-01T08:02:37Z</time>
      </trkpt>
      <trkpt lat="46.57589" lon="-1.34628">
        <ele>54.799999237061</ele>
        <time>2021-08-01T08:02:43Z</time>
      </trkpt>
      <trkpt lat="46.57583" lon="-1.34615">
        <ele>54.799999237061</ele>
        <time>2021-08-01T08:02:44Z</time>
      </trkpt>
      <trkpt lat="46.57572" lon="-1.3456">
        <ele>53</ele>
        <time>2021-08-01T08:02:48Z</time>
      </trkpt>
      <trkpt lat="46.57567" lon="-1.34536">
        <ele>52.200000762939</ele>
        <time>2021-08-01T08:02:50Z</time>
      </trkpt>
      <trkpt lat="46.57552" lon="-1.34491">
        <ele>51</ele>
        <time>2021-08-01T08:02:55Z</time>
      </trkpt>
      <trkpt lat="46.57486" lon="-1.34353">
        <ele>51</ele>
        <time>2021-08-01T08:03:11Z</time>
      </trkpt>
      <trkpt lat="46.57402" lon="-1.34303">
        <ele>48.200000762939</ele>
        <time>2021-08-01T08:03:24Z</time>
      </trkpt>
      <trkpt lat="46.57389" lon="-1.34295">
        <ele>48.200000762939</ele>
        <time>2021-08-01T08:03:27Z</time>
      </trkpt>
      <trkpt lat="46.57364" lon="-1.34276">
        <ele>48.799999237061</ele>
        <time>2021-08-01T08:03:34Z</time>
      </trkpt>
      <trkpt lat="46.57332" lon="-1.34228">
        <ele>49.200000762939</ele>
        <time>2021-08-01T08:03:43Z</time>
      </trkpt>
      <trkpt lat="46.57309" lon="-1.34203">
        <ele>49.200000762939</ele>
        <time>2021-08-01T08:03:48Z</time>
      </trkpt>
      <trkpt lat="46.5729" lon="-1.34174">
        <ele>49.200000762939</ele>
        <time>2021-08-01T08:03:53Z</time>
      </trkpt>
      <trkpt lat="46.57257" lon="-1.34097">
        <ele>49.799999237061</ele>
        <time>2021-08-01T08:04:06Z</time>
      </trkpt>
      <trkpt lat="46.57139" lon="-1.33972">
        <ele>51.599998474121</ele>
        <time>2021-08-01T08:04:40Z</time>
      </trkpt>
      <trkpt lat="46.57111" lon="-1.33954">
        <ele>53</ele>
        <time>2021-08-01T08:04:50Z</time>
      </trkpt>
      <trkpt lat="46.57091" lon="-1.33941">
        <ele>54.400001525879</ele>
        <time>2021-08-01T08:04:58Z</time>
      </trkpt>
      <trkpt lat="46.57054" lon="-1.33928">
        <ele>56.400001525879</ele>
        <time>2021-08-01T08:05:12Z</time>
      </trkpt>
      <trkpt lat="46.56999" lon="-1.33887">
        <ele>59.799999237061</ele>
        <time>2021-08-01T08:05:34Z</time>
      </trkpt>
      <trkpt lat="46.56959" lon="-1.33851">
        <ele>61</ele>
        <time>2021-08-01T08:05:47Z</time>
      </trkpt>
      <trkpt lat="46.56953" lon="-1.33843">
        <ele>61</ele>
        <time>2021-08-01T08:05:49Z</time>
      </trkpt>
      <trkpt lat="46.56929" lon="-1.33807">
        <ele>61</ele>
        <time>2021-08-01T08:05:57Z</time>
      </trkpt>
      <trkpt lat="46.56897" lon="-1.3373">
        <ele>61.200000762939</ele>
        <time>2021-08-01T08:06:10Z</time>
      </trkpt>
      <trkpt lat="46.56857" lon="-1.33474">
        <ele>59.200000762939</ele>
        <time>2021-08-01T08:06:36Z</time>
      </trkpt>
      <trkpt lat="46.56809" lon="-1.33402">
        <ele>58</ele>
        <time>2021-08-01T08:06:45Z</time>
      </trkpt>
      <trkpt lat="46.56737" lon="-1.33318">
        <ele>58</ele>
        <time>2021-08-01T08:07:00Z</time>
      </trkpt>
      <trkpt lat="46.56703" lon="-1.33269">
        <ele>58.200000762939</ele>
        <time>2021-08-01T08:07:08Z</time>
      </trkpt>
      <trkpt lat="46.566" lon="-1.33126">
        <ele>56.599998474121</ele>
        <time>2021-08-01T08:07:27Z</time>
      </trkpt>
      <trkpt lat="46.56523" lon="-1.33059">
        <ele>57.200000762939</ele>
        <time>2021-08-01T08:07:44Z</time>
      </trkpt>
      <trkpt lat="46.56452" lon="-1.33012">
        <ele>60.599998474121</ele>
        <time>2021-08-01T08:08:08Z</time>
      </trkpt>
      <trkpt lat="46.56449" lon="-1.3301">
        <ele>60.799999237061</ele>
        <time>2021-08-01T08:08:09Z</time>
      </trkpt>
      <trkpt lat="46.56385" lon="-1.32965">
        <ele>63.200000762939</ele>
        <time>2021-08-01T08:08:30Z</time>
      </trkpt>
      <trkpt lat="46.56376" lon="-1.3296">
        <ele>63.400001525879</ele>
        <time>2021-08-01T08:08:32Z</time>
      </trkpt>
      <trkpt lat="46.56267" lon="-1.32881">
        <ele>61.799999237061</ele>
        <time>2021-08-01T08:08:50Z</time>
      </trkpt>
      <trkpt lat="46.56185" lon="-1.32755">
        <ele>59.200000762939</ele>
        <time>2021-08-01T08:09:06Z</time>
      </trkpt>
      <trkpt lat="46.56179" lon="-1.32748">
        <ele>59.200000762939</ele>
        <time>2021-08-01T08:09:07Z</time>
      </trkpt>
      <trkpt lat="46.56151" lon="-1.32724">
        <ele>59.200000762939</ele>
        <time>2021-08-01T08:09:11Z</time>
      </trkpt>
      <trkpt lat="46.56137" lon="-1.32713">
        <ele>58.599998474121</ele>
        <time>2021-08-01T08:09:13Z</time>
      </trkpt>
      <trkpt lat="46.56094" lon="-1.32659">
        <ele>57.200000762939</ele>
        <time>2021-08-01T08:09:20Z</time>
      </trkpt>
      <trkpt lat="46.5604" lon="-1.32565">
        <ele>56.200000762939</ele>
        <time>2021-08-01T08:09:31Z</time>
      </trkpt>
      <trkpt lat="46.56" lon="-1.32486">
        <ele>55.400001525879</ele>
        <time>2021-08-01T08:09:40Z</time>
      </trkpt>
      <trkpt lat="46.55989" lon="-1.32452">
        <ele>54.799999237061</ele>
        <time>2021-08-01T08:09:43Z</time>
      </trkpt>
      <trkpt lat="46.55975" lon="-1.32404">
        <ele>54.400001525879</ele>
        <time>2021-08-01T08:09:47Z</time>
      </trkpt>
      <trkpt lat="46.55955" lon="-1.32277">
        <ele>51.799999237061</ele>
        <time>2021-08-01T08:09:57Z</time>
      </trkpt>
      <trkpt lat="46.55947" lon="-1.32255">
        <ele>51.599998474121</ele>
        <time>2021-08-01T08:09:59Z</time>
      </trkpt>
      <trkpt lat="46.55937" lon="-1.32234">
        <ele>51.400001525879</ele>
        <time>2021-08-01T08:10:01Z</time>
      </trkpt>
      <trkpt lat="46.55881" lon="-1.32114">
        <ele>50.400001525879</ele>
        <time>2021-08-01T08:10:15Z</time>
      </trkpt>
      <trkpt lat="46.55708" lon="-1.32029">
        <ele>52.200000762939</ele>
        <time>2021-08-01T08:10:52Z</time>
      </trkpt>
      <trkpt lat="46.55604" lon="-1.32017">
        <ele>52.200000762939</ele>
        <time>2021-08-01T08:11:10Z</time>
      </trkpt>
      <trkpt lat="46.5557" lon="-1.32006">
        <ele>52.400001525879</ele>
        <time>2021-08-01T08:11:17Z</time>
      </trkpt>
      <trkpt lat="46.55487" lon="-1.31976">
        <ele>54.599998474121</ele>
        <time>2021-08-01T08:11:36Z</time>
      </trkpt>
      <trkpt lat="46.55403" lon="-1.31947">
        <ele>55</ele>
        <time>2021-08-01T08:11:52Z</time>
      </trkpt>
      <trkpt lat="46.55266" lon="-1.31973">
        <ele>53.799999237061</ele>
        <time>2021-08-01T08:12:14Z</time>
      </trkpt>
      <trkpt lat="46.55261" lon="-1.31974">
        <ele>53.799999237061</ele>
        <time>2021-08-01T08:12:15Z</time>
      </trkpt>
      <trkpt lat="46.55226" lon="-1.31978">
        <ele>54.200000762939</ele>
        <time>2021-08-01T08:12:22Z</time>
      </trkpt>
      <trkpt lat="46.55171" lon="-1.3196">
        <ele>56.200000762939</ele>
        <time>2021-08-01T08:12:35Z</time>
      </trkpt>
      <trkpt lat="46.55167" lon="-1.31957">
        <ele>56.200000762939</ele>
        <time>2021-08-01T08:12:36Z</time>
      </trkpt>
      <trkpt lat="46.55133" lon="-1.31937">
        <ele>56.599998474121</ele>
        <time>2021-08-01T08:12:43Z</time>
      </trkpt>
      <trkpt lat="46.55064" lon="-1.31899">
        <ele>56.200000762939</ele>
        <time>2021-08-01T08:12:56Z</time>
      </trkpt>
      <trkpt lat="46.55059" lon="-1.31895">
        <ele>56.200000762939</ele>
        <time>2021-08-01T08:12:57Z</time>
      </trkpt>
      <trkpt lat="46.55037" lon="-1.31871">
        <ele>55.799999237061</ele>
        <time>2021-08-01T08:13:02Z</time>
      </trkpt>
      <trkpt lat="46.55037" lon="-1.31734">
        <ele>57</ele>
        <time>2021-08-01T08:13:25Z</time>
      </trkpt>
      <trkpt lat="46.55046" lon="-1.31695">
        <ele>57.400001525879</ele>
        <time>2021-08-01T08:13:31Z</time>
      </trkpt>
      <trkpt lat="46.55052" lon="-1.31587">
        <ele>57.599998474121</ele>
        <time>2021-08-01T08:13:44Z</time>
      </trkpt>
      <trkpt lat="46.55049" lon="-1.31525">
        <ele>57.200000762939</ele>
        <time>2021-08-01T08:13:52Z</time>
      </trkpt>
      <trkpt lat="46.55059" lon="-1.31344">
        <ele>56.400001525879</ele>
        <time>2021-08-01T08:14:16Z</time>
      </trkpt>
      <trkpt lat="46.5501" lon="-1.31278">
        <ele>56.200000762939</ele>
        <time>2021-08-01T08:14:25Z</time>
      </trkpt>
      <trkpt lat="46.54954" lon="-1.31231">
        <ele>55.400001525879</ele>
        <time>2021-08-01T08:14:32Z</time>
      </trkpt>
      <trkpt lat="46.54895" lon="-1.31209">
        <ele>53.799999237061</ele>
        <time>2021-08-01T08:14:39Z</time>
      </trkpt>
      <trkpt lat="46.54825" lon="-1.312">
        <ele>51.799999237061</ele>
        <time>2021-08-01T08:14:46Z</time>
      </trkpt>
      <trkpt lat="46.54767" lon="-1.31226">
        <ele>48.799999237061</ele>
        <time>2021-08-01T08:14:53Z</time>
      </trkpt>
      <trkpt lat="46.54742" lon="-1.31266">
        <ele>47.799999237061</ele>
        <time>2021-08-01T08:14:59Z</time>
      </trkpt>
      <trkpt lat="46.54684" lon="-1.31306">
        <ele>50.400001525879</ele>
        <time>2021-08-01T08:15:17Z</time>
      </trkpt>
      <trkpt lat="46.54681" lon="-1.31307">
        <ele>50.599998474121</ele>
        <time>2021-08-01T08:15:18Z</time>
      </trkpt>
      <trkpt lat="46.54611" lon="-1.31301">
        <ele>53.599998474121</ele>
        <time>2021-08-01T08:15:42Z</time>
      </trkpt>
      <trkpt lat="46.54596" lon="-1.3127">
        <ele>55</ele>
        <time>2021-08-01T08:15:52Z</time>
      </trkpt>
      <trkpt lat="46.54593" lon="-1.31251">
        <ele>55.799999237061</ele>
        <time>2021-08-01T08:15:58Z</time>
      </trkpt>
      <trkpt lat="46.54585" lon="-1.31212">
        <ele>57.799999237061</ele>
        <time>2021-08-01T08:16:12Z</time>
      </trkpt>
      <trkpt lat="46.54575" lon="-1.31186">
        <ele>59.599998474121</ele>
        <time>2021-08-01T08:16:22Z</time>
      </trkpt>
      <trkpt lat="46.54559" lon="-1.31142">
        <ele>61.400001525879</ele>
        <time>2021-08-01T08:16:37Z</time>
      </trkpt>
      <trkpt lat="46.54493" lon="-1.31106">
        <ele>64.800003051758</ele>
        <time>2021-08-01T08:17:01Z</time>
      </trkpt>
      <trkpt lat="46.54468" lon="-1.31085">
        <ele>65</ele>
        <time>2021-08-01T08:17:09Z</time>
      </trkpt>
      <trkpt lat="46.54444" lon="-1.31068">
        <ele>65.599998474121</ele>
        <time>2021-08-01T08:17:16Z</time>
      </trkpt>
      <trkpt lat="46.54329" lon="-1.30982">
        <ele>66.400001525879</ele>
        <time>2021-08-01T08:17:43Z</time>
      </trkpt>
      <trkpt lat="46.54288" lon="-1.30964">
        <ele>66</ele>
        <time>2021-08-01T08:17:51Z</time>
      </trkpt>
      <trkpt lat="46.54272" lon="-1.30953">
        <ele>66.199996948242</ele>
        <time>2021-08-01T08:17:55Z</time>
      </trkpt>
      <trkpt lat="46.54242" lon="-1.30932">
        <ele>65.599998474121</ele>
        <time>2021-08-01T08:18:02Z</time>
      </trkpt>
      <trkpt lat="46.54238" lon="-1.30929">
        <ele>65.800003051758</ele>
        <time>2021-08-01T08:18:03Z</time>
      </trkpt>
      <trkpt lat="46.54126" lon="-1.30844">
        <ele>64.400001525879</ele>
        <time>2021-08-01T08:18:27Z</time>
      </trkpt>
      <trkpt lat="46.5405" lon="-1.30828">
        <ele>64</ele>
        <time>2021-08-01T08:18:43Z</time>
      </trkpt>
      <trkpt lat="46.54033" lon="-1.30769">
        <ele>63.599998474121</ele>
        <time>2021-08-01T08:18:54Z</time>
      </trkpt>
      <trkpt lat="46.54038" lon="-1.30728">
        <ele>63.400001525879</ele>
        <time>2021-08-01T08:18:59Z</time>
      </trkpt>
      <trkpt lat="46.54037" lon="-1.30576">
        <ele>62</ele>
        <time>2021-08-01T08:19:15Z</time>
      </trkpt>
      <trkpt lat="46.54" lon="-1.30374">
        <ele>58.400001525879</ele>
        <time>2021-08-01T08:19:30Z</time>
      </trkpt>
      <trkpt lat="46.53984" lon="-1.30298">
        <ele>56</ele>
        <time>2021-08-01T08:19:35Z</time>
      </trkpt>
      <trkpt lat="46.53983" lon="-1.30255">
        <ele>54.799999237061</ele>
        <time>2021-08-01T08:19:38Z</time>
      </trkpt>
      <trkpt lat="46.54016" lon="-1.30167">
        <ele>51.599998474121</ele>
        <time>2021-08-01T08:19:45Z</time>
      </trkpt>
      <trkpt lat="46.54044" lon="-1.3014">
        <ele>50.599998474121</ele>
        <time>2021-08-01T08:19:48Z</time>
      </trkpt>
      <trkpt lat="46.54118" lon="-1.30073">
        <ele>47</ele>
        <time>2021-08-01T08:19:57Z</time>
      </trkpt>
      <trkpt lat="46.5414" lon="-1.30047">
        <ele>46.799999237061</ele>
        <time>2021-08-01T08:20:00Z</time>
      </trkpt>
      <trkpt lat="46.54151" lon="-1.30016">
        <ele>46.599998474121</ele>
        <time>2021-08-01T08:20:03Z</time>
      </trkpt>
      <trkpt lat="46.54117" lon="-1.29863">
        <ele>49.400001525879</ele>
        <time>2021-08-01T08:20:34Z</time>
      </trkpt>
      <trkpt lat="46.54111" lon="-1.29846">
        <ele>51</ele>
        <time>2021-08-01T08:23:44Z</time>
      </trkpt>
      <trkpt lat="46.54073" lon="-1.29726">
        <ele>53.200000762939</ele>
        <time>2021-08-01T08:24:16Z</time>
      </trkpt>
      <trkpt lat="46.54071" lon="-1.29712">
        <ele>53.599998474121</ele>
        <time>2021-08-01T08:24:19Z</time>
      </trkpt>
      <trkpt lat="46.54047" lon="-1.29638">
        <ele>54.799999237061</ele>
        <time>2021-08-01T08:24:35Z</time>
      </trkpt>
      <trkpt lat="46.54029" lon="-1.29572">
        <ele>55</ele>
        <time>2021-08-01T08:24:46Z</time>
      </trkpt>
      <trkpt lat="46.54027" lon="-1.29556">
        <ele>55</ele>
        <time>2021-08-01T08:24:48Z</time>
      </trkpt>
      <trkpt lat="46.54005" lon="-1.29485">
        <ele>54.400001525879</ele>
        <time>2021-08-01T08:24:56Z</time>
      </trkpt>
      <trkpt lat="46.53998" lon="-1.29465">
        <ele>54</ele>
        <time>2021-08-01T08:24:58Z</time>
      </trkpt>
      <trkpt lat="46.53964" lon="-1.29373">
        <ele>52.200000762939</ele>
        <time>2021-08-01T08:25:07Z</time>
      </trkpt>
      <trkpt lat="46.53959" lon="-1.29363">
        <ele>52</ele>
        <time>2021-08-01T08:25:08Z</time>
      </trkpt>
      <trkpt lat="46.53927" lon="-1.29299">
        <ele>50.799999237061</ele>
        <time>2021-08-01T08:25:14Z</time>
      </trkpt>
      <trkpt lat="46.53899" lon="-1.29235">
        <ele>49</ele>
        <time>2021-08-01T08:25:20Z</time>
      </trkpt>
      <trkpt lat="46.5387" lon="-1.29118">
        <ele>46.799999237061</ele>
        <time>2021-08-01T08:25:32Z</time>
      </trkpt>
      <trkpt lat="46.53853" lon="-1.28877">
        <ele>44</ele>
        <time>2021-08-01T08:25:53Z</time>
      </trkpt>
      <trkpt lat="46.53855" lon="-1.28844">
        <ele>43.200000762939</ele>
        <time>2021-08-01T08:25:57Z</time>
      </trkpt>
      <trkpt lat="46.53856" lon="-1.28838">
        <ele>43.200000762939</ele>
        <time>2021-08-01T08:25:58Z</time>
      </trkpt>
      <trkpt lat="46.53859" lon="-1.28819">
        <ele>43.200000762939</ele>
        <time>2021-08-01T08:26:02Z</time>
      </trkpt>
      <trkpt lat="46.53866" lon="-1.28794">
        <ele>44.200000762939</ele>
        <time>2021-08-01T08:26:09Z</time>
      </trkpt>
      <trkpt lat="46.53868" lon="-1.28736">
        <ele>47.400001525879</ele>
        <time>2021-08-01T08:26:27Z</time>
      </trkpt>
      <trkpt lat="46.53867" lon="-1.28725">
        <ele>47.599998474121</ele>
        <time>2021-08-01T08:26:30Z</time>
      </trkpt>
      <trkpt lat="46.53867" lon="-1.28698">
        <ele>48.799999237061</ele>
        <time>2021-08-01T08:26:39Z</time>
      </trkpt>
      <trkpt lat="46.53849" lon="-1.2863">
        <ele>51.200000762939</ele>
        <time>2021-08-01T08:27:01Z</time>
      </trkpt>
      <trkpt lat="46.53802" lon="-1.28509">
        <ele>54</ele>
        <time>2021-08-01T08:27:34Z</time>
      </trkpt>
      <trkpt lat="46.5377" lon="-1.28471">
        <ele>53.599998474121</ele>
        <time>2021-08-01T08:27:42Z</time>
      </trkpt>
      <trkpt lat="46.53643" lon="-1.28341">
        <ele>51.599998474121</ele>
        <time>2021-08-01T08:28:06Z</time>
      </trkpt>
      <trkpt lat="46.53591" lon="-1.28305">
        <ele>50.200000762939</ele>
        <time>2021-08-01T08:28:14Z</time>
      </trkpt>
      <trkpt lat="46.5349" lon="-1.28239">
        <ele>47.799999237061</ele>
        <time>2021-08-01T08:28:29Z</time>
      </trkpt>
      <trkpt lat="46.53484" lon="-1.28232">
        <ele>47.799999237061</ele>
        <time>2021-08-01T08:28:30Z</time>
      </trkpt>
      <trkpt lat="46.53375" lon="-1.28103">
        <ele>44.799999237061</ele>
        <time>2021-08-01T08:28:47Z</time>
      </trkpt>
      <trkpt lat="46.53348" lon="-1.28074">
        <ele>43.400001525879</ele>
        <time>2021-08-01T08:28:51Z</time>
      </trkpt>
      <trkpt lat="46.53342" lon="-1.28066">
        <ele>43.400001525879</ele>
        <time>2021-08-01T08:28:52Z</time>
      </trkpt>
      <trkpt lat="46.53209" lon="-1.27906">
        <ele>39.599998474121</ele>
        <time>2021-08-01T08:29:12Z</time>
      </trkpt>
      <trkpt lat="46.53126" lon="-1.27809">
        <ele>36.799999237061</ele>
        <time>2021-08-01T08:29:24Z</time>
      </trkpt>
      <trkpt lat="46.53099" lon="-1.27778">
        <ele>35.400001525879</ele>
        <time>2021-08-01T08:29:29Z</time>
      </trkpt>
      <trkpt lat="46.53071" lon="-1.27744">
        <ele>31.39999961853</ele>
        <time>2021-08-01T08:29:39Z</time>
      </trkpt>
      <trkpt lat="46.5307" lon="-1.27728">
        <ele>30.39999961853</ele>
        <time>2021-08-01T08:29:42Z</time>
      </trkpt>
      <trkpt lat="46.5307" lon="-1.27721">
        <ele>30</ele>
        <time>2021-08-01T08:29:43Z</time>
      </trkpt>
      <trkpt lat="46.53094" lon="-1.2737">
        <ele>27</ele>
        <time>2021-08-01T08:30:19Z</time>
      </trkpt>
      <trkpt lat="46.53098" lon="-1.27296">
        <ele>26.39999961853</ele>
        <time>2021-08-01T08:30:26Z</time>
      </trkpt>
      <trkpt lat="46.53107" lon="-1.27225">
        <ele>25.799999237061</ele>
        <time>2021-08-01T08:30:33Z</time>
      </trkpt>
      <trkpt lat="46.53108" lon="-1.2715">
        <ele>25.799999237061</ele>
        <time>2021-08-01T08:30:42Z</time>
      </trkpt>
      <trkpt lat="46.53125" lon="-1.268">
        <ele>26.39999961853</ele>
        <time>2021-08-01T08:31:26Z</time>
      </trkpt>
      <trkpt lat="46.5313" lon="-1.26803">
        <ele>25.39999961853</ele>
        <time>2021-08-01T08:31:31Z</time>
      </trkpt>
      <trkpt lat="46.53115" lon="-1.27013">
        <ele>27</ele>
        <time>2021-08-01T08:32:12Z</time>
      </trkpt>
      <trkpt lat="46.53049" lon="-1.26964">
        <ele>26.200000762939</ele>
        <time>2021-08-01T08:32:25Z</time>
      </trkpt>
      <trkpt lat="46.5303" lon="-1.26945">
        <ele>25.39999961853</ele>
        <time>2021-08-01T08:32:28Z</time>
      </trkpt>
      <trkpt lat="46.52994" lon="-1.26904">
        <ele>24.39999961853</ele>
        <time>2021-08-01T08:32:34Z</time>
      </trkpt>
      <trkpt lat="46.52927" lon="-1.26832">
        <ele>22.200000762939</ele>
        <time>2021-08-01T08:32:45Z</time>
      </trkpt>
      <trkpt lat="46.52799" lon="-1.26707">
        <ele>20.200000762939</ele>
        <time>2021-08-01T08:33:07Z</time>
      </trkpt>
      <trkpt lat="46.52785" lon="-1.26699">
        <ele>20.200000762939</ele>
        <time>2021-08-01T08:33:09Z</time>
      </trkpt>
      <trkpt lat="46.52688" lon="-1.26625">
        <ele>18.799999237061</ele>
        <time>2021-08-01T08:33:25Z</time>
      </trkpt>
      <trkpt lat="46.52676" lon="-1.26619">
        <ele>18.39999961853</ele>
        <time>2021-08-01T08:33:27Z</time>
      </trkpt>
      <trkpt lat="46.52565" lon="-1.26564">
        <ele>18</ele>
        <time>2021-08-01T08:33:45Z</time>
      </trkpt>
      <trkpt lat="46.5251" lon="-1.26552">
        <ele>17.799999237061</ele>
        <time>2021-08-01T08:33:54Z</time>
      </trkpt>
      <trkpt lat="46.52406" lon="-1.26575">
        <ele>18.39999961853</ele>
        <time>2021-08-01T08:34:13Z</time>
      </trkpt>
      <trkpt lat="46.52305" lon="-1.26611">
        <ele>19.60000038147</ele>
        <time>2021-08-01T08:34:38Z</time>
      </trkpt>
      <trkpt lat="46.52233" lon="-1.26485">
        <ele>22.60000038147</ele>
        <time>2021-08-01T08:35:05Z</time>
      </trkpt>
      <trkpt lat="46.52217" lon="-1.26423">
        <ele>23.39999961853</ele>
        <time>2021-08-01T08:35:15Z</time>
      </trkpt>
      <trkpt lat="46.52196" lon="-1.26379">
        <ele>22.60000038147</ele>
        <time>2021-08-01T08:35:28Z</time>
      </trkpt>
      <trkpt lat="46.52197" lon="-1.26405">
        <ele>22.200000762939</ele>
        <time>2021-08-01T08:35:45Z</time>
      </trkpt>
      <trkpt lat="46.52138" lon="-1.2642">
        <ele>22.200000762939</ele>
        <time>2021-08-01T08:36:00Z</time>
      </trkpt>
      <trkpt lat="46.52075" lon="-1.2634">
        <ele>21.200000762939</ele>
        <time>2021-08-01T08:36:16Z</time>
      </trkpt>
      <trkpt lat="46.51995" lon="-1.26316">
        <ele>19.799999237061</ele>
        <time>2021-08-01T08:36:28Z</time>
      </trkpt>
      <trkpt lat="46.51959" lon="-1.26318">
        <ele>18.799999237061</ele>
        <time>2021-08-01T08:36:33Z</time>
      </trkpt>
      <trkpt lat="46.51846" lon="-1.263">
        <ele>17.60000038147</ele>
        <time>2021-08-01T08:36:53Z</time>
      </trkpt>
      <trkpt lat="46.51731" lon="-1.26231">
        <ele>20</ele>
        <time>2021-08-01T08:37:19Z</time>
      </trkpt>
      <trkpt lat="46.51708" lon="-1.26209">
        <ele>20</ele>
        <time>2021-08-01T08:37:25Z</time>
      </trkpt>
      <trkpt lat="46.51705" lon="-1.26204">
        <ele>20</ele>
        <time>2021-08-01T08:37:26Z</time>
      </trkpt>
      <trkpt lat="46.51686" lon="-1.26164">
        <ele>20</ele>
        <time>2021-08-01T08:37:33Z</time>
      </trkpt>
      <trkpt lat="46.51679" lon="-1.26139">
        <ele>19.799999237061</ele>
        <time>2021-08-01T08:37:37Z</time>
      </trkpt>
      <trkpt lat="46.51674" lon="-1.26126">
        <ele>19.799999237061</ele>
        <time>2021-08-01T08:37:39Z</time>
      </trkpt>
      <trkpt lat="46.51605" lon="-1.25957">
        <ele>17.60000038147</ele>
        <time>2021-08-01T08:37:59Z</time>
      </trkpt>
      <trkpt lat="46.51573" lon="-1.25912">
        <ele>16.799999237061</ele>
        <time>2021-08-01T08:38:04Z</time>
      </trkpt>
      <trkpt lat="46.51489" lon="-1.25802">
        <ele>13.60000038147</ele>
        <time>2021-08-01T08:38:16Z</time>
      </trkpt>
      <trkpt lat="46.51264" lon="-1.25538">
        <ele>14.60000038147</ele>
        <time>2021-08-01T08:39:09Z</time>
      </trkpt>
      <trkpt lat="46.51192" lon="-1.25489">
        <ele>14</ele>
        <time>2021-08-01T08:39:21Z</time>
      </trkpt>
      <trkpt lat="46.51108" lon="-1.25425">
        <ele>12.60000038147</ele>
        <time>2021-08-01T08:39:34Z</time>
      </trkpt>
      <trkpt lat="46.5088" lon="-1.25238">
        <ele>9.3999996185303</ele>
        <time>2021-08-01T08:40:09Z</time>
      </trkpt>
      <trkpt lat="46.50837" lon="-1.25202">
        <ele>9</ele>
        <time>2021-08-01T08:40:16Z</time>
      </trkpt>
      <trkpt lat="46.50779" lon="-1.25031">
        <ele>7.4000000953674</ele>
        <time>2021-08-01T08:40:36Z</time>
      </trkpt>
      <trkpt lat="46.5077" lon="-1.24838">
        <ele>8.6000003814697</ele>
        <time>2021-08-01T08:40:59Z</time>
      </trkpt>
      <trkpt lat="46.50769" lon="-1.24739">
        <ele>8.6000003814697</ele>
        <time>2021-08-01T08:41:16Z</time>
      </trkpt>
      <trkpt lat="46.5076" lon="-1.24675">
        <ele>8.3999996185303</ele>
        <time>2021-08-01T08:41:25Z</time>
      </trkpt>
      <trkpt lat="46.50724" lon="-1.2452">
        <ele>8</ele>
        <time>2021-08-01T08:41:44Z</time>
      </trkpt>
      <trkpt lat="46.50699" lon="-1.24406">
        <ele>7.8000001907349</ele>
        <time>2021-08-01T08:41:58Z</time>
      </trkpt>
      <trkpt lat="46.50677" lon="-1.24331">
        <ele>8.1999998092651</ele>
        <time>2021-08-01T08:42:08Z</time>
      </trkpt>
      <trkpt lat="46.50662" lon="-1.24281">
        <ele>8.6000003814697</ele>
        <time>2021-08-01T08:42:15Z</time>
      </trkpt>
      <trkpt lat="46.5066" lon="-1.24245">
        <ele>8.8000001907349</ele>
        <time>2021-08-01T08:42:21Z</time>
      </trkpt>
      <trkpt lat="46.50656" lon="-1.24146">
        <ele>11</ele>
        <time>2021-08-01T08:42:46Z</time>
      </trkpt>
      <trkpt lat="46.50662" lon="-1.24039">
        <ele>15.39999961853</ele>
        <time>2021-08-01T08:43:22Z</time>
      </trkpt>
      <trkpt lat="46.50646" lon="-1.23959">
        <ele>18.39999961853</ele>
        <time>2021-08-01T08:43:50Z</time>
      </trkpt>
      <trkpt lat="46.50618" lon="-1.23876">
        <ele>20.200000762939</ele>
        <time>2021-08-01T08:44:11Z</time>
      </trkpt>
      <trkpt lat="46.5058" lon="-1.23754">
        <ele>18.60000038147</ele>
        <time>2021-08-01T08:44:25Z</time>
      </trkpt>
      <trkpt lat="46.50571" lon="-1.23692">
        <ele>18</ele>
        <time>2021-08-01T08:44:31Z</time>
      </trkpt>
      <trkpt lat="46.50572" lon="-1.23632">
        <ele>17.60000038147</ele>
        <time>2021-08-01T08:44:37Z</time>
      </trkpt>
      <trkpt lat="46.50566" lon="-1.23564">
        <ele>17.39999961853</ele>
        <time>2021-08-01T08:44:46Z</time>
      </trkpt>
      <trkpt lat="46.50552" lon="-1.2345">
        <ele>21.200000762939</ele>
        <time>2021-08-01T08:45:16Z</time>
      </trkpt>
      <trkpt lat="46.50552" lon="-1.23443">
        <ele>21.39999961853</ele>
        <time>2021-08-01T08:45:18Z</time>
      </trkpt>
      <trkpt lat="46.50527" lon="-1.23282">
        <ele>24.799999237061</ele>
        <time>2021-08-01T08:45:55Z</time>
      </trkpt>
      <trkpt lat="46.50441" lon="-1.22704">
        <ele>26.60000038147</ele>
        <time>2021-08-01T08:47:24Z</time>
      </trkpt>
      <trkpt lat="46.50438" lon="-1.22656">
        <ele>26.799999237061</ele>
        <time>2021-08-01T08:47:30Z</time>
      </trkpt>
      <trkpt lat="46.50438" lon="-1.22597">
        <ele>27.200000762939</ele>
        <time>2021-08-01T08:47:37Z</time>
      </trkpt>
      <trkpt lat="46.50332" lon="-1.22328">
        <ele>26.799999237061</ele>
        <time>2021-08-01T08:48:16Z</time>
      </trkpt>
      <trkpt lat="46.50296" lon="-1.22255">
        <ele>27.60000038147</ele>
        <time>2021-08-01T08:48:28Z</time>
      </trkpt>
      <trkpt lat="46.50202" lon="-1.2222">
        <ele>28</ele>
        <time>2021-08-01T08:48:57Z</time>
      </trkpt>
      <trkpt lat="46.50169" lon="-1.2218">
        <ele>28.200000762939</ele>
        <time>2021-08-01T08:49:10Z</time>
      </trkpt>
      <trkpt lat="46.50155" lon="-1.22165">
        <ele>28.60000038147</ele>
        <time>2021-08-01T08:49:16Z</time>
      </trkpt>
      <trkpt lat="46.50128" lon="-1.22026">
        <ele>29.200000762939</ele>
        <time>2021-08-01T08:49:41Z</time>
      </trkpt>
      <trkpt lat="46.50105" lon="-1.21988">
        <ele>29.200000762939</ele>
        <time>2021-08-01T08:49:48Z</time>
      </trkpt>
      <trkpt lat="46.50077" lon="-1.21902">
        <ele>28.799999237061</ele>
        <time>2021-08-01T08:50:01Z</time>
      </trkpt>
      <trkpt lat="46.50019" lon="-1.21691">
        <ele>26.60000038147</ele>
        <time>2021-08-01T08:50:42Z</time>
      </trkpt>
      <trkpt lat="46.4994" lon="-1.21724">
        <ele>28</ele>
        <time>2021-08-01T08:51:05Z</time>
      </trkpt>
      <trkpt lat="46.49899" lon="-1.21733">
        <ele>28.200000762939</ele>
        <time>2021-08-01T08:51:15Z</time>
      </trkpt>
      <trkpt lat="46.49592" lon="-1.21814">
        <ele>31.39999961853</ele>
        <time>2021-08-01T08:52:27Z</time>
      </trkpt>
      <trkpt lat="46.49473" lon="-1.21851">
        <ele>32.599998474121</ele>
        <time>2021-08-01T08:52:53Z</time>
      </trkpt>
      <trkpt lat="46.49433" lon="-1.21857">
        <ele>32.799999237061</ele>
        <time>2021-08-01T08:53:01Z</time>
      </trkpt>
      <trkpt lat="46.49371" lon="-1.21839">
        <ele>33.599998474121</ele>
        <time>2021-08-01T09:08:16Z</time>
      </trkpt>
      <trkpt lat="46.49273" lon="-1.21782">
        <ele>33.400001525879</ele>
        <time>2021-08-01T09:08:47Z</time>
      </trkpt>
      <trkpt lat="46.49146" lon="-1.21784">
        <ele>32</ele>
        <time>2021-08-01T09:09:17Z</time>
      </trkpt>
      <trkpt lat="46.49033" lon="-1.21822">
        <ele>31.60000038147</ele>
        <time>2021-08-01T09:09:40Z</time>
      </trkpt>
      <trkpt lat="46.4887" lon="-1.21835">
        <ele>29.39999961853</ele>
        <time>2021-08-01T09:10:09Z</time>
      </trkpt>
      <trkpt lat="46.48755" lon="-1.21777">
        <ele>27.39999961853</ele>
        <time>2021-08-01T09:10:27Z</time>
      </trkpt>
      <trkpt lat="46.48748" lon="-1.21774">
        <ele>27.200000762939</ele>
        <time>2021-08-01T09:10:28Z</time>
      </trkpt>
      <trkpt lat="46.48685" lon="-1.2176">
        <ele>26.60000038147</ele>
        <time>2021-08-01T09:10:37Z</time>
      </trkpt>
      <trkpt lat="46.48645" lon="-1.21754">
        <ele>26.200000762939</ele>
        <time>2021-08-01T09:10:43Z</time>
      </trkpt>
      <trkpt lat="46.48566" lon="-1.21715">
        <ele>25.200000762939</ele>
        <time>2021-08-01T09:10:57Z</time>
      </trkpt>
      <trkpt lat="46.48336" lon="-1.21709">
        <ele>23.799999237061</ele>
        <time>2021-08-01T09:11:41Z</time>
      </trkpt>
      <trkpt lat="46.48325" lon="-1.21713">
        <ele>23.60000038147</ele>
        <time>2021-08-01T09:11:43Z</time>
      </trkpt>
      <trkpt lat="46.48252" lon="-1.2173">
        <ele>22.60000038147</ele>
        <time>2021-08-01T09:11:56Z</time>
      </trkpt>
      <trkpt lat="46.48235" lon="-1.21743">
        <ele>22.39999961853</ele>
        <time>2021-08-01T09:11:59Z</time>
      </trkpt>
      <trkpt lat="46.4821" lon="-1.21759">
        <ele>21.799999237061</ele>
        <time>2021-08-01T09:12:03Z</time>
      </trkpt>
      <trkpt lat="46.4811" lon="-1.21813">
        <ele>20.60000038147</ele>
        <time>2021-08-01T09:12:19Z</time>
      </trkpt>
      <trkpt lat="46.48048" lon="-1.21852">
        <ele>20</ele>
        <time>2021-08-01T09:12:30Z</time>
      </trkpt>
      <trkpt lat="46.4796" lon="-1.21889">
        <ele>19.200000762939</ele>
        <time>2021-08-01T09:12:45Z</time>
      </trkpt>
      <trkpt lat="46.4791" lon="-1.21776">
        <ele>17.60000038147</ele>
        <time>2021-08-01T09:13:05Z</time>
      </trkpt>
      <trkpt lat="46.47889" lon="-1.21724">
        <ele>18</ele>
        <time>2021-08-01T09:13:13Z</time>
      </trkpt>
      <trkpt lat="46.47887" lon="-1.21718">
        <ele>18</ele>
        <time>2021-08-01T09:13:14Z</time>
      </trkpt>
      <trkpt lat="46.47878" lon="-1.21676">
        <ele>18</ele>
        <time>2021-08-01T09:13:20Z</time>
      </trkpt>
      <trkpt lat="46.47856" lon="-1.21483">
        <ele>18</ele>
        <time>2021-08-01T09:13:43Z</time>
      </trkpt>
      <trkpt lat="46.4784" lon="-1.21422">
        <ele>17.60000038147</ele>
        <time>2021-08-01T09:13:51Z</time>
      </trkpt>
      <trkpt lat="46.47831" lon="-1.21385">
        <ele>17.799999237061</ele>
        <time>2021-08-01T09:13:56Z</time>
      </trkpt>
      <trkpt lat="46.47818" lon="-1.21349">
        <ele>17.60000038147</ele>
        <time>2021-08-01T09:14:01Z</time>
      </trkpt>
      <trkpt lat="46.4781" lon="-1.21318">
        <ele>17.39999961853</ele>
        <time>2021-08-01T09:14:05Z</time>
      </trkpt>
      <trkpt lat="46.47787" lon="-1.2122">
        <ele>16</ele>
        <time>2021-08-01T09:14:16Z</time>
      </trkpt>
      <trkpt lat="46.47772" lon="-1.21166">
        <ele>15.800000190735</ele>
        <time>2021-08-01T09:14:22Z</time>
      </trkpt>
      <trkpt lat="46.47714" lon="-1.2108">
        <ele>14.800000190735</ele>
        <time>2021-08-01T09:14:34Z</time>
      </trkpt>
      <trkpt lat="46.47657" lon="-1.21025">
        <ele>13.60000038147</ele>
        <time>2021-08-01T09:14:43Z</time>
      </trkpt>
      <trkpt lat="46.47465" lon="-1.20817">
        <ele>14.800000190735</ele>
        <time>2021-08-01T09:15:26Z</time>
      </trkpt>
      <trkpt lat="46.4743" lon="-1.20725">
        <ele>15.800000190735</ele>
        <time>2021-08-01T09:15:40Z</time>
      </trkpt>
      <trkpt lat="46.47408" lon="-1.20665">
        <ele>16</ele>
        <time>2021-08-01T09:15:48Z</time>
      </trkpt>
      <trkpt lat="46.47234" lon="-1.20345">
        <ele>16</ele>
        <time>2021-08-01T09:16:35Z</time>
      </trkpt>
      <trkpt lat="46.47171" lon="-1.20257">
        <ele>15.60000038147</ele>
        <time>2021-08-01T09:16:48Z</time>
      </trkpt>
      <trkpt lat="46.47041" lon="-1.20131">
        <ele>12.60000038147</ele>
        <time>2021-08-01T09:17:11Z</time>
      </trkpt>
      <trkpt lat="46.47008" lon="-1.20094">
        <ele>12.39999961853</ele>
        <time>2021-08-01T09:17:17Z</time>
      </trkpt>
      <trkpt lat="46.46962" lon="-1.20037">
        <ele>12.39999961853</ele>
        <time>2021-08-01T09:17:26Z</time>
      </trkpt>
      <trkpt lat="46.46911" lon="-1.19935">
        <ele>11.39999961853</ele>
        <time>2021-08-01T09:17:40Z</time>
      </trkpt>
      <trkpt lat="46.46889" lon="-1.19881">
        <ele>11.800000190735</ele>
        <time>2021-08-01T09:17:48Z</time>
      </trkpt>
      <trkpt lat="46.46786" lon="-1.19761">
        <ele>13.199999809265</ele>
        <time>2021-08-01T09:18:12Z</time>
      </trkpt>
      <trkpt lat="46.46693" lon="-1.19687">
        <ele>12.199999809265</ele>
        <time>2021-08-01T09:18:30Z</time>
      </trkpt>
      <trkpt lat="46.46626" lon="-1.19666">
        <ele>12</ele>
        <time>2021-08-01T09:18:41Z</time>
      </trkpt>
      <trkpt lat="46.46606" lon="-1.19664">
        <ele>11.800000190735</ele>
        <time>2021-08-01T09:18:44Z</time>
      </trkpt>
      <trkpt lat="46.4648" lon="-1.19479">
        <ele>11</ele>
        <time>2021-08-01T09:19:10Z</time>
      </trkpt>
      <trkpt lat="46.46431" lon="-1.1939">
        <ele>10.60000038147</ele>
        <time>2021-08-01T09:19:21Z</time>
      </trkpt>
      <trkpt lat="46.46395" lon="-1.19265">
        <ele>9.6000003814697</ele>
        <time>2021-08-01T09:19:35Z</time>
      </trkpt>
      <trkpt lat="46.46372" lon="-1.19164">
        <ele>9</ele>
        <time>2021-08-01T09:19:46Z</time>
      </trkpt>
      <trkpt lat="46.46232" lon="-1.18909">
        <ele>9.8000001907349</ele>
        <time>2021-08-01T09:20:20Z</time>
      </trkpt>
      <trkpt lat="46.45998" lon="-1.18492">
        <ele>9.1999998092651</ele>
        <time>2021-08-01T09:21:16Z</time>
      </trkpt>
      <trkpt lat="46.45903" lon="-1.1832">
        <ele>6.8000001907349</ele>
        <time>2021-08-01T09:21:36Z</time>
      </trkpt>
      <trkpt lat="46.45864" lon="-1.18275">
        <ele>6.4000000953674</ele>
        <time>2021-08-01T09:21:42Z</time>
      </trkpt>
      <trkpt lat="46.45728" lon="-1.18142">
        <ele>6.5999999046326</ele>
        <time>2021-08-01T09:22:14Z</time>
      </trkpt>
      <trkpt lat="46.45684" lon="-1.17955">
        <ele>7.1999998092651</ele>
        <time>2021-08-01T09:22:51Z</time>
      </trkpt>
      <trkpt lat="46.45677" lon="-1.17945">
        <ele>7</ele>
        <time>2021-08-01T09:22:53Z</time>
      </trkpt>
      <trkpt lat="46.45639" lon="-1.17957">
        <ele>6.5999999046326</ele>
        <time>2021-08-01T09:23:14Z</time>
      </trkpt>
      <trkpt lat="46.45612" lon="-1.17965">
        <ele>6</ele>
        <time>2021-08-01T09:23:21Z</time>
      </trkpt>
      <trkpt lat="46.45582" lon="-1.17916">
        <ele>4.8000001907349</ele>
        <time>2021-08-01T09:24:06Z</time>
      </trkpt>
      <trkpt lat="46.45597" lon="-1.17894">
        <ele>4.1999998092651</ele>
        <time>2021-08-01T09:58:36Z</time>
      </trkpt>
      <trkpt lat="46.45656" lon="-1.17802">
        <ele>6</ele>
        <time>2021-08-01T09:59:21Z</time>
      </trkpt>
      <trkpt lat="46.45555" lon="-1.17256">
        <ele>6.8000001907349</ele>
        <time>2021-08-01T10:00:40Z</time>
      </trkpt>
      <trkpt lat="46.45548" lon="-1.17204">
        <ele>6.5999999046326</ele>
        <time>2021-08-01T10:00:48Z</time>
      </trkpt>
      <trkpt lat="46.45497" lon="-1.16943">
        <ele>8</ele>
        <time>2021-08-01T10:01:33Z</time>
      </trkpt>
      <trkpt lat="46.45478" lon="-1.169">
        <ele>8.3999996185303</ele>
        <time>2021-08-01T10:01:41Z</time>
      </trkpt>
      <trkpt lat="46.45464" lon="-1.16868">
        <ele>8.3999996185303</ele>
        <time>2021-08-01T10:01:48Z</time>
      </trkpt>
      <trkpt lat="46.45463" lon="-1.16838">
        <ele>8.3999996185303</ele>
        <time>2021-08-01T10:01:54Z</time>
      </trkpt>
      <trkpt lat="46.45459" lon="-1.1679">
        <ele>8.3999996185303</ele>
        <time>2021-08-01T10:02:04Z</time>
      </trkpt>
      <trkpt lat="46.45446" lon="-1.16742">
        <ele>6</ele>
        <time>2021-08-01T10:13:00Z</time>
      </trkpt>
      <trkpt lat="46.45502" lon="-1.16606">
        <ele>5.5999999046326</ele>
        <time>2021-08-01T10:13:40Z</time>
      </trkpt>
      <trkpt lat="46.45492" lon="-1.16487">
        <ele>4.1999998092651</ele>
        <time>2021-08-01T10:13:58Z</time>
      </trkpt>
      <trkpt lat="46.45483" lon="-1.16466">
        <ele>4.4000000953674</ele>
        <time>2021-08-01T10:14:04Z</time>
      </trkpt>
      <trkpt lat="46.45503" lon="-1.16293">
        <ele>6.4000000953674</ele>
        <time>2021-08-01T10:14:36Z</time>
      </trkpt>
      <trkpt lat="46.45512" lon="-1.16256">
        <ele>6.4000000953674</ele>
        <time>2021-08-01T10:14:43Z</time>
      </trkpt>
      <trkpt lat="46.45527" lon="-1.16211">
        <ele>6.5999999046326</ele>
        <time>2021-08-01T10:14:53Z</time>
      </trkpt>
      <trkpt lat="46.45534" lon="-1.16095">
        <ele>6.1999998092651</ele>
        <time>2021-08-01T10:15:09Z</time>
      </trkpt>
      <trkpt lat="46.45544" lon="-1.16028">
        <ele>6.1999998092651</ele>
        <time>2021-08-01T10:15:18Z</time>
      </trkpt>
      <trkpt lat="46.45573" lon="-1.1583">
        <ele>6.1999998092651</ele>
        <time>2021-08-01T10:15:46Z</time>
      </trkpt>
      <trkpt lat="46.45581" lon="-1.15789">
        <ele>6.5999999046326</ele>
        <time>2021-08-01T10:15:52Z</time>
      </trkpt>
      <trkpt lat="46.45586" lon="-1.15764">
        <ele>6.8000001907349</ele>
        <time>2021-08-01T10:15:57Z</time>
      </trkpt>
      <trkpt lat="46.45427" lon="-1.15742">
        <ele>6.5999999046326</ele>
        <time>2021-08-01T10:16:29Z</time>
      </trkpt>
      <trkpt lat="46.45372" lon="-1.15739">
        <ele>6.5999999046326</ele>
        <time>2021-08-01T10:16:38Z</time>
      </trkpt>
      <trkpt lat="46.45331" lon="-1.15747">
        <ele>6.1999998092651</ele>
        <time>2021-08-01T10:16:45Z</time>
      </trkpt>
      <trkpt lat="46.45292" lon="-1.15755">
        <ele>5.4000000953674</ele>
        <time>2021-08-01T10:16:52Z</time>
      </trkpt>
      <trkpt lat="46.45244" lon="-1.15727">
        <ele>5.1999998092651</ele>
        <time>2021-08-01T10:17:02Z</time>
      </trkpt>
      <trkpt lat="46.45239" lon="-1.1571">
        <ele>5.1999998092651</ele>
        <time>2021-08-01T10:17:04Z</time>
      </trkpt>
      <trkpt lat="46.45079" lon="-1.15368">
        <ele>4.5999999046326</ele>
        <time>2021-08-01T10:17:53Z</time>
      </trkpt>
      <trkpt lat="46.44978" lon="-1.15227">
        <ele>4.8000001907349</ele>
        <time>2021-08-01T10:18:18Z</time>
      </trkpt>
      <trkpt lat="46.44916" lon="-1.15154">
        <ele>5</ele>
        <time>2021-08-01T10:18:33Z</time>
      </trkpt>
      <trkpt lat="46.44847" lon="-1.15026">
        <ele>5.1999998092651</ele>
        <time>2021-08-01T10:18:53Z</time>
      </trkpt>
      <trkpt lat="46.44795" lon="-1.14918">
        <ele>5</ele>
        <time>2021-08-01T10:19:08Z</time>
      </trkpt>
      <trkpt lat="46.44658" lon="-1.14783">
        <ele>4.1999998092651</ele>
        <time>2021-08-01T10:19:33Z</time>
      </trkpt>
      <trkpt lat="46.4449" lon="-1.14709">
        <ele>3</ele>
        <time>2021-08-01T10:19:58Z</time>
      </trkpt>
      <trkpt lat="46.44347" lon="-1.14724">
        <ele>1.7999999523163</ele>
        <time>2021-08-01T10:20:21Z</time>
      </trkpt>
      <trkpt lat="46.4429" lon="-1.14732">
        <ele>1.7999999523163</ele>
        <time>2021-08-01T10:20:31Z</time>
      </trkpt>
      <trkpt lat="46.44224" lon="-1.14755">
        <ele>1.7999999523163</ele>
        <time>2021-08-01T10:20:42Z</time>
      </trkpt>
      <trkpt lat="46.44098" lon="-1.14692">
        <ele>1.6000000238419</ele>
        <time>2021-08-01T10:21:03Z</time>
      </trkpt>
      <trkpt lat="46.44042" lon="-1.14658">
        <ele>1.3999999761581</ele>
        <time>2021-08-01T10:21:13Z</time>
      </trkpt>
      <trkpt lat="46.43905" lon="-1.14661">
        <ele>1.6000000238419</ele>
        <time>2021-08-01T10:21:36Z</time>
      </trkpt>
      <trkpt lat="46.4386" lon="-1.14675">
        <ele>1.7999999523163</ele>
        <time>2021-08-01T10:21:44Z</time>
      </trkpt>
      <trkpt lat="46.43811" lon="-1.1467">
        <ele>1.7999999523163</ele>
        <time>2021-08-01T10:21:52Z</time>
      </trkpt>
      <trkpt lat="46.43397" lon="-1.14628">
        <ele>1.6000000238419</ele>
        <time>2021-08-01T10:23:06Z</time>
      </trkpt>
      <trkpt lat="46.43132" lon="-1.14587">
        <ele>1.3999999761581</ele>
        <time>2021-08-01T10:23:52Z</time>
      </trkpt>
      <trkpt lat="46.43075" lon="-1.14567">
        <ele>1.3999999761581</ele>
        <time>2021-08-01T10:24:02Z</time>
      </trkpt>
      <trkpt lat="46.42442" lon="-1.14292">
        <ele>1.3999999761581</ele>
        <time>2021-08-01T10:25:55Z</time>
      </trkpt>
      <trkpt lat="46.41761" lon="-1.14141">
        <ele>0.80000001192093</ele>
        <time>2021-08-01T10:27:58Z</time>
      </trkpt>
      <trkpt lat="46.41617" lon="-1.14135">
        <ele>0.40000000596046</ele>
        <time>2021-08-01T10:28:25Z</time>
      </trkpt>
      <trkpt lat="46.41531" lon="-1.14104">
        <ele>0.40000000596046</ele>
        <time>2021-08-01T10:28:42Z</time>
      </trkpt>
      <trkpt lat="46.4148" lon="-1.14068">
        <ele>0.40000000596046</ele>
        <time>2021-08-01T10:28:52Z</time>
      </trkpt>
      <trkpt lat="46.41436" lon="-1.14051">
        <ele>0.60000002384186</ele>
        <time>2021-08-01T10:29:00Z</time>
      </trkpt>
      <trkpt lat="46.40794" lon="-1.13844">
        <ele>0.60000002384186</ele>
        <time>2021-08-01T10:30:57Z</time>
      </trkpt>
      <trkpt lat="46.40381" lon="-1.13707">
        <ele>0.60000002384186</ele>
        <time>2021-08-01T10:32:11Z</time>
      </trkpt>
      <trkpt lat="46.40346" lon="-1.13679">
        <ele>0.80000001192093</ele>
        <time>2021-08-01T10:32:18Z</time>
      </trkpt>
      <trkpt lat="46.403" lon="-1.13637">
        <ele>0.80000001192093</ele>
        <time>2021-08-01T10:32:27Z</time>
      </trkpt>
      <trkpt lat="46.40094" lon="-1.13589">
        <ele>0.80000001192093</ele>
        <time>2021-08-01T10:33:04Z</time>
      </trkpt>
      <trkpt lat="46.40084" lon="-1.13577">
        <ele>0.80000001192093</ele>
        <time>2021-08-01T10:33:06Z</time>
      </trkpt>
      <trkpt lat="46.39962" lon="-1.1353">
        <ele>0.40000000596046</ele>
        <time>2021-08-01T10:33:29Z</time>
      </trkpt>
      <trkpt lat="46.39488" lon="-1.13579">
        <ele>0.60000002384186</ele>
        <time>2021-08-01T10:34:52Z</time>
      </trkpt>
      <trkpt lat="46.39149" lon="-1.13607">
        <ele>1</ele>
        <time>2021-08-01T10:35:56Z</time>
      </trkpt>
      <trkpt lat="46.39087" lon="-1.13615">
        <ele>1</ele>
        <time>2021-08-01T10:36:07Z</time>
      </trkpt>
      <trkpt lat="46.38651" lon="-1.1365">
        <ele>1</ele>
        <time>2021-08-01T10:37:24Z</time>
      </trkpt>
      <trkpt lat="46.38633" lon="-1.1365">
        <ele>0.80000001192093</ele>
        <time>2021-08-01T10:37:27Z</time>
      </trkpt>
      <trkpt lat="46.38441" lon="-1.1366">
        <ele>1.2000000476837</ele>
        <time>2021-08-01T10:38:02Z</time>
      </trkpt>
      <trkpt lat="46.38312" lon="-1.13673">
        <ele>1.3999999761581</ele>
        <time>2021-08-01T10:38:27Z</time>
      </trkpt>
      <trkpt lat="46.38191" lon="-1.13684">
        <ele>0.80000001192093</ele>
        <time>2021-08-01T10:38:50Z</time>
      </trkpt>
      <trkpt lat="46.38134" lon="-1.13666">
        <ele>1.2000000476837</ele>
        <time>2021-08-01T10:39:11Z</time>
      </trkpt>
      <trkpt lat="46.38141" lon="-1.13644">
        <ele>1</ele>
        <time>2021-08-01T10:39:14Z</time>
      </trkpt>
      <trkpt lat="46.38157" lon="-1.13511">
        <ele>1</ele>
        <time>2021-08-01T10:39:32Z</time>
      </trkpt>
      <trkpt lat="46.38206" lon="-1.13238">
        <ele>0.80000001192093</ele>
        <time>2021-08-01T10:43:20Z</time>
      </trkpt>
      <trkpt lat="46.38224" lon="-1.13188">
        <ele>1.3999999761581</ele>
        <time>2021-08-01T10:43:31Z</time>
      </trkpt>
      <trkpt lat="46.38222" lon="-1.12878">
        <ele>2</ele>
        <time>2021-08-01T10:44:18Z</time>
      </trkpt>
      <trkpt lat="46.38121" lon="-1.12594">
        <ele>1.6000000238419</ele>
        <time>2021-08-01T10:45:02Z</time>
      </trkpt>
      <trkpt lat="46.38093" lon="-1.12525">
        <ele>1.6000000238419</ele>
        <time>2021-08-01T10:45:13Z</time>
      </trkpt>
      <trkpt lat="46.38072" lon="-1.1248">
        <ele>1.6000000238419</ele>
        <time>2021-08-01T10:45:21Z</time>
      </trkpt>
      <trkpt lat="46.38029" lon="-1.12393">
        <ele>2</ele>
        <time>2021-08-01T10:45:35Z</time>
      </trkpt>
      <trkpt lat="46.38015" lon="-1.12321">
        <ele>2.2000000476837</ele>
        <time>2021-08-01T10:45:48Z</time>
      </trkpt>
      <trkpt lat="46.38045" lon="-1.12336">
        <ele>2.7999999523163</ele>
        <time>2021-08-01T10:46:05Z</time>
      </trkpt>
      <trkpt lat="46.38065" lon="-1.1239">
        <ele>3</ele>
        <time>2021-08-01T10:46:20Z</time>
      </trkpt>
      <trkpt lat="46.38007" lon="-1.12206">
        <ele>2.4000000953674</ele>
        <time>2021-08-01T11:39:48Z</time>
      </trkpt>
      <trkpt lat="46.38009" lon="-1.122">
        <ele>2.4000000953674</ele>
        <time>2021-08-01T11:39:49Z</time>
      </trkpt>
      <trkpt lat="46.38049" lon="-1.12051">
        <ele>2.4000000953674</ele>
        <time>2021-08-01T11:40:13Z</time>
      </trkpt>
      <trkpt lat="46.3802" lon="-1.11932">
        <ele>2.5999999046326</ele>
        <time>2021-08-01T11:40:30Z</time>
      </trkpt>
      <trkpt lat="46.37944" lon="-1.11761">
        <ele>2.5999999046326</ele>
        <time>2021-08-01T11:40:56Z</time>
      </trkpt>
      <trkpt lat="46.37923" lon="-1.11692">
        <ele>2.4000000953674</ele>
        <time>2021-08-01T11:41:05Z</time>
      </trkpt>
      <trkpt lat="46.37868" lon="-1.11511">
        <ele>2.2000000476837</ele>
        <time>2021-08-01T11:41:29Z</time>
      </trkpt>
      <trkpt lat="46.3786" lon="-1.11322">
        <ele>2.7999999523163</ele>
        <time>2021-08-01T11:41:56Z</time>
      </trkpt>
      <trkpt lat="46.3786" lon="-1.11267">
        <ele>2.5999999046326</ele>
        <time>2021-08-01T11:42:03Z</time>
      </trkpt>
      <trkpt lat="46.3782" lon="-1.11092">
        <ele>2.5999999046326</ele>
        <time>2021-08-01T11:42:26Z</time>
      </trkpt>
      <trkpt lat="46.37719" lon="-1.10849">
        <ele>2</ele>
        <time>2021-08-01T11:42:59Z</time>
      </trkpt>
      <trkpt lat="46.3768" lon="-1.10689">
        <ele>2.5999999046326</ele>
        <time>2021-08-01T11:43:19Z</time>
      </trkpt>
      <trkpt lat="46.37676" lon="-1.10527">
        <ele>2.7999999523163</ele>
        <time>2021-08-01T11:43:38Z</time>
      </trkpt>
      <trkpt lat="46.37679" lon="-1.10458">
        <ele>2.7999999523163</ele>
        <time>2021-08-01T11:43:47Z</time>
      </trkpt>
      <trkpt lat="46.37678" lon="-1.10405">
        <ele>3.2000000476837</ele>
        <time>2021-08-01T11:43:54Z</time>
      </trkpt>
      <trkpt lat="46.37669" lon="-1.10208">
        <ele>2.7999999523163</ele>
        <time>2021-08-01T11:44:17Z</time>
      </trkpt>
      <trkpt lat="46.37503" lon="-1.09525">
        <ele>2.2000000476837</ele>
        <time>2021-08-01T11:45:40Z</time>
      </trkpt>
      <trkpt lat="46.37423" lon="-1.09204">
        <ele>2.4000000953674</ele>
        <time>2021-08-01T11:46:30Z</time>
      </trkpt>
      <trkpt lat="46.37283" lon="-1.09105">
        <ele>2</ele>
        <time>2021-08-01T11:46:57Z</time>
      </trkpt>
      <trkpt lat="46.37164" lon="-1.08979">
        <ele>1</ele>
        <time>2021-08-01T11:47:22Z</time>
      </trkpt>
      <trkpt lat="46.37072" lon="-1.08936">
        <ele>2.7</ele>
        <time>2021-08-01T11:47:38Z</time>
      </trkpt>
      <trkpt lat="46.36465" lon="-1.08814">
        <ele>1</ele>
        <time>2021-08-01T11:49:22Z</time>
      </trkpt>
      <trkpt lat="46.3631" lon="-1.08784">
        <ele>-0.60000002384186</ele>
        <time>2021-08-01T11:49:49Z</time>
      </trkpt>
      <trkpt lat="46.35578" lon="-1.0864">
        <ele>-0.40000000596046</ele>
        <time>2021-08-01T11:51:52Z</time>
      </trkpt>
      <trkpt lat="46.35129" lon="-1.08551">
        <ele>0.60000002384186</ele>
        <time>2021-08-01T11:53:10Z</time>
      </trkpt>
      <trkpt lat="46.34402" lon="-1.08406">
        <ele>2.7</ele>
        <time>2021-08-01T11:55:11Z</time>
      </trkpt>
      <trkpt lat="46.33795" lon="-1.08286">
        <ele>-0.40000000596046</ele>
        <time>2021-08-01T11:56:52Z</time>
      </trkpt>
      <trkpt lat="46.33347" lon="-1.08214">
        <ele>-1.2000000476837</ele>
        <time>2021-08-01T11:58:06Z</time>
      </trkpt>
      <trkpt lat="46.33279" lon="-1.08194">
        <ele>-1</ele>
        <time>2021-08-01T11:58:18Z</time>
      </trkpt>
      <trkpt lat="46.32673" lon="-1.0809">
        <ele>-0.20000000298023</ele>
        <time>2021-08-01T12:00:03Z</time>
      </trkpt>
      <trkpt lat="46.32399" lon="-1.08218">
        <ele>0.40000000596046</ele>
        <time>2021-08-01T12:00:51Z</time>
      </trkpt>
      <trkpt lat="46.3234" lon="-1.08237">
        <ele>0.20000000298023</ele>
        <time>2021-08-01T12:01:01Z</time>
      </trkpt>
      <trkpt lat="46.32282" lon="-1.08245">
        <ele>0.20000000298023</ele>
        <time>2021-08-01T12:01:11Z</time>
      </trkpt>
      <trkpt lat="46.31814" lon="-1.08275">
        <ele>0.40000000596046</ele>
        <time>2021-08-01T12:02:32Z</time>
      </trkpt>
      <trkpt lat="46.31744" lon="-1.08281">
        <ele>1.7999999523163</ele>
        <time>2021-08-01T12:02:48Z</time>
      </trkpt>
      <trkpt lat="46.31311" lon="-1.08313">
        <ele>0.60000002384186</ele>
        <time>2021-08-01T12:04:02Z</time>
      </trkpt>
      <trkpt lat="46.31044" lon="-1.08443">
        <ele>0.60000002384186</ele>
        <time>2021-08-01T12:04:49Z</time>
      </trkpt>
      <trkpt lat="46.3098" lon="-1.08495">
        <ele>0.60000002384186</ele>
        <time>2021-08-01T12:05:02Z</time>
      </trkpt>
      <trkpt lat="46.30846" lon="-1.08613">
        <ele>0.40000000596046</ele>
        <time>2021-08-01T12:05:31Z</time>
      </trkpt>
      <trkpt lat="46.30522" lon="-1.08813">
        <ele>1.6000000238419</ele>
        <time>2021-08-01T12:06:42Z</time>
      </trkpt>
      <trkpt lat="46.30513" lon="-1.08835">
        <ele>2.5999999046326</ele>
        <time>2021-08-01T12:06:50Z</time>
      </trkpt>
      <trkpt lat="46.30511" lon="-1.08944">
        <ele>4.4000000953674</ele>
        <time>2021-08-01T12:07:10Z</time>
      </trkpt>
      <trkpt lat="46.30515" lon="-1.0898">
        <ele>4.4000000953674</ele>
        <time>2021-08-01T12:07:16Z</time>
      </trkpt>
      <trkpt lat="46.30525" lon="-1.09138">
        <ele>5.4000000953674</ele>
        <time>2021-08-01T12:07:41Z</time>
      </trkpt>
      <trkpt lat="46.30521" lon="-1.09189">
        <ele>5.4000000953674</ele>
        <time>2021-08-01T12:07:49Z</time>
      </trkpt>
      <trkpt lat="46.3051" lon="-1.09269">
        <ele>5.5999999046326</ele>
        <time>2021-08-01T12:08:01Z</time>
      </trkpt>
      <trkpt lat="46.3051" lon="-1.09314">
        <ele>5.4000000953674</ele>
        <time>2021-08-01T12:08:07Z</time>
      </trkpt>
      <trkpt lat="46.30511" lon="-1.09412">
        <ele>4.4000000953674</ele>
        <time>2021-08-01T12:08:20Z</time>
      </trkpt>
      <trkpt lat="46.30415" lon="-1.09506">
        <ele>3.4000000953674</ele>
        <time>2021-08-01T12:08:45Z</time>
      </trkpt>
      <trkpt lat="46.30188" lon="-1.09563">
        <ele>4</ele>
        <time>2021-08-01T12:09:28Z</time>
      </trkpt>
      <trkpt lat="46.30131" lon="-1.09589">
        <ele>2.2000000476837</ele>
        <time>2021-08-01T12:11:55Z</time>
      </trkpt>
      <trkpt lat="46.30092" lon="-1.096">
        <ele>1.7999999523163</ele>
        <time>2021-08-01T12:12:09Z</time>
      </trkpt>
      <trkpt lat="46.3005" lon="-1.09619">
        <ele>1.7999999523163</ele>
        <time>2021-08-01T12:12:18Z</time>
      </trkpt>
      <trkpt lat="46.30023" lon="-1.09625">
        <ele>1.6000000238419</ele>
        <time>2021-08-01T12:12:23Z</time>
      </trkpt>
      <trkpt lat="46.2999" lon="-1.09633">
        <ele>1</ele>
        <time>2021-08-01T12:12:30Z</time>
      </trkpt>
      <trkpt lat="46.29834" lon="-1.09825">
        <ele>1</ele>
        <time>2021-08-01T12:13:13Z</time>
      </trkpt>
      <trkpt lat="46.29806" lon="-1.09902">
        <ele>1.3999999761581</ele>
        <time>2021-08-01T12:13:25Z</time>
      </trkpt>
      <trkpt lat="46.2958" lon="-1.10504">
        <ele>1</ele>
        <time>2021-08-01T12:15:00Z</time>
      </trkpt>
      <trkpt lat="46.29574" lon="-1.10515">
        <ele>1</ele>
        <time>2021-08-01T12:15:02Z</time>
      </trkpt>
      <trkpt lat="46.29499" lon="-1.10696">
        <ele>2.7999999523163</ele>
        <time>2021-08-01T12:15:41Z</time>
      </trkpt>
      <trkpt lat="46.29379" lon="-1.10661">
        <ele>0.40000000596046</ele>
        <time>2021-08-01T12:16:09Z</time>
      </trkpt>
      <trkpt lat="46.29292" lon="-1.10608">
        <ele>1.3999999761581</ele>
        <time>2021-08-01T12:16:29Z</time>
      </trkpt>
      <trkpt lat="46.29208" lon="-1.10559">
        <ele>1.2000000476837</ele>
        <time>2021-08-01T12:16:46Z</time>
      </trkpt>
      <trkpt lat="46.29175" lon="-1.10545">
        <ele>1</ele>
        <time>2021-08-01T12:16:53Z</time>
      </trkpt>
      <trkpt lat="46.2907" lon="-1.10501">
        <ele>0.60000002384186</ele>
        <time>2021-08-01T12:17:16Z</time>
      </trkpt>
      <trkpt lat="46.29013" lon="-1.10477">
        <ele>0.80000001192093</ele>
        <time>2021-08-01T12:17:28Z</time>
      </trkpt>
      <trkpt lat="46.28937" lon="-1.10438">
        <ele>0.40000000596046</ele>
        <time>2021-08-01T12:17:43Z</time>
      </trkpt>
      <trkpt lat="46.28814" lon="-1.10472">
        <ele>0.60000002384186</ele>
        <time>2021-08-01T12:18:08Z</time>
      </trkpt>
      <trkpt lat="46.28719" lon="-1.1054">
        <ele>1</ele>
        <time>2021-08-01T12:18:28Z</time>
      </trkpt>
      <trkpt lat="46.28617" lon="-1.10568">
        <ele>1.2000000476837</ele>
        <time>2021-08-01T12:18:47Z</time>
      </trkpt>
      <trkpt lat="46.28117" lon="-1.10691">
        <ele>0.20000000298023</ele>
        <time>2021-08-01T12:20:20Z</time>
      </trkpt>
      <trkpt lat="46.27837" lon="-1.10782">
        <ele>0.60000002384186</ele>
        <time>2021-08-01T12:21:16Z</time>
      </trkpt>
      <trkpt lat="46.27747" lon="-1.10769">
        <ele>3</ele>
        <time>2021-08-01T12:21:33Z</time>
      </trkpt>
      <trkpt lat="46.27179" lon="-1.10644">
        <ele>-0.60000002384186</ele>
        <time>2021-08-01T12:23:23Z</time>
      </trkpt>
      <trkpt lat="46.26531" lon="-1.10503">
        <ele>2.9</ele>
        <time>2021-08-01T12:25:14Z</time>
      </trkpt>
      <trkpt lat="46.26405" lon="-1.10561">
        <ele>0.20000000298023</ele>
        <time>2021-08-01T12:25:38Z</time>
      </trkpt>
      <trkpt lat="46.25698" lon="-1.11091">
        <ele>0.60000002384186</ele>
        <time>2021-08-01T12:27:57Z</time>
      </trkpt>
      <trkpt lat="46.25284" lon="-1.114">
        <ele>0.40000000596046</ele>
        <time>2021-08-01T12:29:20Z</time>
      </trkpt>
      <trkpt lat="46.25213" lon="-1.11452">
        <ele>0.40000000596046</ele>
        <time>2021-08-01T12:29:36Z</time>
      </trkpt>
      <trkpt lat="46.25174" lon="-1.11483">
        <ele>0.20000000298023</ele>
        <time>2021-08-01T12:29:45Z</time>
      </trkpt>
      <trkpt lat="46.2512" lon="-1.11497">
        <ele>0.60000002384186</ele>
        <time>2021-08-01T12:30:03Z</time>
      </trkpt>
      <trkpt lat="46.2506" lon="-1.11334">
        <ele>0.60000002384186</ele>
        <time>2021-08-01T12:30:34Z</time>
      </trkpt>
      <trkpt lat="46.25046" lon="-1.11252">
        <ele>0.60000002384186</ele>
        <time>2021-08-01T12:30:45Z</time>
      </trkpt>
      <trkpt lat="46.24971" lon="-1.10995">
        <ele>0.40000000596046</ele>
        <time>2021-08-01T12:31:28Z</time>
      </trkpt>
      <trkpt lat="46.24919" lon="-1.11005">
        <ele>2.4000000953674</ele>
        <time>2021-08-01T12:31:53Z</time>
      </trkpt>
      <trkpt lat="46.24916" lon="-1.10996">
        <ele>3.2000000476837</ele>
        <time>2021-08-01T12:52:10Z</time>
      </trkpt>
      <trkpt lat="46.24898" lon="-1.11013">
        <ele>3.2000000476837</ele>
        <time>2021-08-01T12:52:25Z</time>
      </trkpt>
      <trkpt lat="46.24831" lon="-1.11062">
        <ele>5.1999998092651</ele>
        <time>2021-08-01T12:52:57Z</time>
      </trkpt>
      <trkpt lat="46.24794" lon="-1.11074">
        <ele>5.1999998092651</ele>
        <time>2021-08-01T12:53:19Z</time>
      </trkpt>
      <trkpt lat="46.24655" lon="-1.11029">
        <ele>4.8000001907349</ele>
        <time>2021-08-01T12:54:10Z</time>
      </trkpt>
      <trkpt lat="46.24601" lon="-1.10998">
        <ele>4.8000001907349</ele>
        <time>2021-08-01T12:54:25Z</time>
      </trkpt>
      <trkpt lat="46.24568" lon="-1.10975">
        <ele>4.8000001907349</ele>
        <time>2021-08-01T12:54:31Z</time>
      </trkpt>
      <trkpt lat="46.24523" lon="-1.10982">
        <ele>4.4000000953674</ele>
        <time>2021-08-01T12:54:38Z</time>
      </trkpt>
      <trkpt lat="46.24461" lon="-1.1101">
        <ele>2.7999999523163</ele>
        <time>2021-08-01T12:54:49Z</time>
      </trkpt>
      <trkpt lat="46.24328" lon="-1.11086">
        <ele>1.6000000238419</ele>
        <time>2021-08-01T12:55:16Z</time>
      </trkpt>
      <trkpt lat="46.2411" lon="-1.10971">
        <ele>0.80000001192093</ele>
        <time>2021-08-01T12:56:03Z</time>
      </trkpt>
      <trkpt lat="46.24006" lon="-1.10905">
        <ele>4.1999998092651</ele>
        <time>2021-08-01T12:56:42Z</time>
      </trkpt>
      <trkpt lat="46.23855" lon="-1.10821">
        <ele>5</ele>
        <time>2021-08-01T12:57:53Z</time>
      </trkpt>
      <trkpt lat="46.23682" lon="-1.10841">
        <ele>7</ele>
        <time>2021-08-01T12:58:40Z</time>
      </trkpt>
      <trkpt lat="46.23551" lon="-1.10822">
        <ele>4.4000000953674</ele>
        <time>2021-08-01T12:59:09Z</time>
      </trkpt>
      <trkpt lat="46.23446" lon="-1.10761">
        <ele>1.7999999523163</ele>
        <time>2021-08-01T12:59:29Z</time>
      </trkpt>
      <trkpt lat="46.23441" lon="-1.10757">
        <ele>1.6000000238419</ele>
        <time>2021-08-01T12:59:30Z</time>
      </trkpt>
      <trkpt lat="46.2311" lon="-1.10444">
        <ele>-0.40000000596046</ele>
        <time>2021-08-01T13:00:32Z</time>
      </trkpt>
      <trkpt lat="46.23026" lon="-1.10442">
        <ele>-0.40000000596046</ele>
        <time>2021-08-01T13:00:48Z</time>
      </trkpt>
      <trkpt lat="46.22956" lon="-1.10483">
        <ele>2.7999999523163</ele>
        <time>2021-08-01T13:01:17Z</time>
      </trkpt>
      <trkpt lat="46.22889" lon="-1.10539">
        <ele>5.8000001907349</ele>
        <time>2021-08-01T13:01:45Z</time>
      </trkpt>
      <trkpt lat="46.22794" lon="-1.10624">
        <ele>8.6000003814697</ele>
        <time>2021-08-01T13:02:18Z</time>
      </trkpt>
      <trkpt lat="46.22666" lon="-1.10724">
        <ele>11.60000038147</ele>
        <time>2021-08-01T13:03:00Z</time>
      </trkpt>
      <trkpt lat="46.22571" lon="-1.10695">
        <ele>13.199999809265</ele>
        <time>2021-08-01T13:03:21Z</time>
      </trkpt>
      <trkpt lat="46.22519" lon="-1.10676">
        <ele>13.199999809265</ele>
        <time>2021-08-01T13:03:32Z</time>
      </trkpt>
      <trkpt lat="46.22461" lon="-1.10655">
        <ele>13.800000190735</ele>
        <time>2021-08-01T13:03:45Z</time>
      </trkpt>
      <trkpt lat="46.22378" lon="-1.10665">
        <ele>14</ele>
        <time>2021-08-01T13:04:05Z</time>
      </trkpt>
      <trkpt lat="46.2236" lon="-1.10675">
        <ele>12</ele>
        <time>2021-08-01T13:06:05Z</time>
      </trkpt>
      <trkpt lat="46.22258" lon="-1.10723">
        <ele>10.800000190735</ele>
        <time>2021-08-01T13:06:31Z</time>
      </trkpt>
      <trkpt lat="46.22222" lon="-1.10717">
        <ele>10.60000038147</ele>
        <time>2021-08-01T13:06:39Z</time>
      </trkpt>
      <trkpt lat="46.2221" lon="-1.1071">
        <ele>10.800000190735</ele>
        <time>2021-08-01T13:06:42Z</time>
      </trkpt>
      <trkpt lat="46.2201" lon="-1.10531">
        <ele>10</ele>
        <time>2021-08-01T13:07:28Z</time>
      </trkpt>
      <trkpt lat="46.21996" lon="-1.1052">
        <ele>10</ele>
        <time>2021-08-01T13:07:31Z</time>
      </trkpt>
      <trkpt lat="46.21922" lon="-1.10462">
        <ele>10.60000038147</ele>
        <time>2021-08-01T13:07:47Z</time>
      </trkpt>
      <trkpt lat="46.21911" lon="-1.10456">
        <ele>10.60000038147</ele>
        <time>2021-08-01T13:07:49Z</time>
      </trkpt>
      <trkpt lat="46.21744" lon="-1.10395">
        <ele>9</ele>
        <time>2021-08-01T13:08:17Z</time>
      </trkpt>
      <trkpt lat="46.21683" lon="-1.10368">
        <ele>8.8000001907349</ele>
        <time>2021-08-01T13:08:27Z</time>
      </trkpt>
      <trkpt lat="46.21388" lon="-1.10293">
        <ele>12</ele>
        <time>2021-08-01T13:09:28Z</time>
      </trkpt>
      <trkpt lat="46.21369" lon="-1.1029">
        <ele>12.199999809265</ele>
        <time>2021-08-01T13:09:32Z</time>
      </trkpt>
      <trkpt lat="46.21355" lon="-1.10285">
        <ele>12.199999809265</ele>
        <time>2021-08-01T13:09:35Z</time>
      </trkpt>
      <trkpt lat="46.21313" lon="-1.10269">
        <ele>11.39999961853</ele>
        <time>2021-08-01T13:09:43Z</time>
      </trkpt>
      <trkpt lat="46.21283" lon="-1.10249">
        <ele>11</ele>
        <time>2021-08-01T13:09:49Z</time>
      </trkpt>
      <trkpt lat="46.21175" lon="-1.10234">
        <ele>15.199999809265</ele>
        <time>2021-08-01T13:10:25Z</time>
      </trkpt>
      <trkpt lat="46.21172" lon="-1.10235">
        <ele>15.39999961853</ele>
        <time>2021-08-01T13:10:26Z</time>
      </trkpt>
      <trkpt lat="46.20778" lon="-1.10336">
        <ele>17</ele>
        <time>2021-08-01T13:11:52Z</time>
      </trkpt>
      <trkpt lat="46.20768" lon="-1.10339">
        <ele>17</ele>
        <time>2021-08-01T13:11:54Z</time>
      </trkpt>
      <trkpt lat="46.20676" lon="-1.10344">
        <ele>17.60000038147</ele>
        <time>2021-08-01T13:12:12Z</time>
      </trkpt>
      <trkpt lat="46.2055" lon="-1.10264">
        <ele>17.39999961853</ele>
        <time>2021-08-01T13:12:55Z</time>
      </trkpt>
      <trkpt lat="46.20501" lon="-1.10215">
        <ele>18.39999961853</ele>
        <time>2021-08-01T13:13:13Z</time>
      </trkpt>
      <trkpt lat="46.20476" lon="-1.10217">
        <ele>18.60000038147</ele>
        <time>2021-08-01T13:13:19Z</time>
      </trkpt>
      <trkpt lat="46.20422" lon="-1.10226">
        <ele>18.799999237061</ele>
        <time>2021-08-01T13:13:31Z</time>
      </trkpt>
      <trkpt lat="46.20375" lon="-1.10234">
        <ele>18.60000038147</ele>
        <time>2021-08-01T13:13:41Z</time>
      </trkpt>
      <trkpt lat="46.20339" lon="-1.10244">
        <ele>18.60000038147</ele>
        <time>2021-08-01T13:13:49Z</time>
      </trkpt>
      <trkpt lat="46.20289" lon="-1.10278">
        <ele>18</ele>
        <time>2021-08-01T13:14:00Z</time>
      </trkpt>
      <trkpt lat="46.20241" lon="-1.10358">
        <ele>18.39999961853</ele>
        <time>2021-08-01T13:14:22Z</time>
      </trkpt>
      <trkpt lat="46.20122" lon="-1.10513">
        <ele>19.799999237061</ele>
        <time>2021-08-01T13:15:07Z</time>
      </trkpt>
      <trkpt lat="46.20107" lon="-1.10522">
        <ele>20.39999961853</ele>
        <time>2021-08-01T13:15:14Z</time>
      </trkpt>
      <trkpt lat="46.20065" lon="-1.10528">
        <ele>22.60000038147</ele>
        <time>2021-08-01T13:15:32Z</time>
      </trkpt>
      <trkpt lat="46.2005" lon="-1.10539">
        <ele>23.39999961853</ele>
        <time>2021-08-01T13:15:39Z</time>
      </trkpt>
      <trkpt lat="46.19986" lon="-1.10596">
        <ele>26.60000038147</ele>
        <time>2021-08-01T13:16:07Z</time>
      </trkpt>
      <trkpt lat="46.19967" lon="-1.10615">
        <ele>26.799999237061</ele>
        <time>2021-08-01T13:16:14Z</time>
      </trkpt>
      <trkpt lat="46.19727" lon="-1.10797">
        <ele>27.60000038147</ele>
        <time>2021-08-01T13:17:11Z</time>
      </trkpt>
      <trkpt lat="46.19723" lon="-1.108">
        <ele>27.60000038147</ele>
        <time>2021-08-01T13:17:12Z</time>
      </trkpt>
      <trkpt lat="46.19599" lon="-1.10879">
        <ele>27.39999961853</ele>
        <time>2021-08-01T13:20:32Z</time>
      </trkpt>
      <trkpt lat="46.19479" lon="-1.10951">
        <ele>28.39999961853</ele>
        <time>2021-08-01T13:21:03Z</time>
      </trkpt>
      <trkpt lat="46.19423" lon="-1.11015">
        <ele>28.799999237061</ele>
        <time>2021-08-01T13:21:19Z</time>
      </trkpt>
      <trkpt lat="46.19313" lon="-1.11154">
        <ele>30.200000762939</ele>
        <time>2021-08-01T13:21:51Z</time>
      </trkpt>
      <trkpt lat="46.19262" lon="-1.11228">
        <ele>29.200000762939</ele>
        <time>2021-08-01T13:22:07Z</time>
      </trkpt>
      <trkpt lat="46.19239" lon="-1.11274">
        <ele>29</ele>
        <time>2021-08-01T13:22:15Z</time>
      </trkpt>
      <trkpt lat="46.19166" lon="-1.11385">
        <ele>27.60000038147</ele>
        <time>2021-08-01T13:22:32Z</time>
      </trkpt>
      <trkpt lat="46.19139" lon="-1.11427">
        <ele>26.200000762939</ele>
        <time>2021-08-01T13:22:37Z</time>
      </trkpt>
      <trkpt lat="46.19112" lon="-1.11469">
        <ele>25.39999961853</ele>
        <time>2021-08-01T13:22:42Z</time>
      </trkpt>
      <trkpt lat="46.19028" lon="-1.11591">
        <ele>22.39999961853</ele>
        <time>2021-08-01T13:23:00Z</time>
      </trkpt>
      <trkpt lat="46.19017" lon="-1.11606">
        <ele>22.200000762939</ele>
        <time>2021-08-01T13:23:03Z</time>
      </trkpt>
      <trkpt lat="46.19008" lon="-1.11619">
        <ele>21.799999237061</ele>
        <time>2021-08-01T13:23:06Z</time>
      </trkpt>
      <trkpt lat="46.18999" lon="-1.11628">
        <ele>21.39999961853</ele>
        <time>2021-08-01T13:23:10Z</time>
      </trkpt>
      <trkpt lat="46.18991" lon="-1.11636">
        <ele>20.200000762939</ele>
        <time>2021-08-01T13:23:15Z</time>
      </trkpt>
      <trkpt lat="46.18942" lon="-1.11703">
        <ele>20.200000762939</ele>
        <time>2021-08-01T13:23:32Z</time>
      </trkpt>
      <trkpt lat="46.18848" lon="-1.11746">
        <ele>20.39999961853</ele>
        <time>2021-08-01T13:23:51Z</time>
      </trkpt>
      <trkpt lat="46.1879" lon="-1.11771">
        <ele>19.799999237061</ele>
        <time>2021-08-01T13:24:02Z</time>
      </trkpt>
      <trkpt lat="46.18779" lon="-1.11806">
        <ele>19.60000038147</ele>
        <time>2021-08-01T13:24:09Z</time>
      </trkpt>
      <trkpt lat="46.18782" lon="-1.11826">
        <ele>19.60000038147</ele>
        <time>2021-08-01T13:24:12Z</time>
      </trkpt>
      <trkpt lat="46.18759" lon="-1.11846">
        <ele>19.200000762939</ele>
        <time>2021-08-01T13:24:19Z</time>
      </trkpt>
      <trkpt lat="46.18677" lon="-1.11863">
        <ele>19.200000762939</ele>
        <time>2021-08-01T13:24:36Z</time>
      </trkpt>
      <trkpt lat="46.18607" lon="-1.11841">
        <ele>19.799999237061</ele>
        <time>2021-08-01T13:24:53Z</time>
      </trkpt>
      <trkpt lat="46.18557" lon="-1.11814">
        <ele>19.200000762939</ele>
        <time>2021-08-01T13:25:04Z</time>
      </trkpt>
      <trkpt lat="46.18495" lon="-1.11812">
        <ele>18.60000038147</ele>
        <time>2021-08-01T13:25:17Z</time>
      </trkpt>
      <trkpt lat="46.18452" lon="-1.11882">
        <ele>18.200000762939</ele>
        <time>2021-08-01T13:25:31Z</time>
      </trkpt>
      <trkpt lat="46.18424" lon="-1.11919">
        <ele>17.799999237061</ele>
        <time>2021-08-01T13:25:38Z</time>
      </trkpt>
      <trkpt lat="46.18318" lon="-1.12059">
        <ele>16.799999237061</ele>
        <time>2021-08-01T13:26:06Z</time>
      </trkpt>
      <trkpt lat="46.1828" lon="-1.12127">
        <ele>16.39999961853</ele>
        <time>2021-08-01T13:26:18Z</time>
      </trkpt>
      <trkpt lat="46.18264" lon="-1.12172">
        <ele>15.39999961853</ele>
        <time>2021-08-01T13:26:26Z</time>
      </trkpt>
      <trkpt lat="46.1824" lon="-1.12187">
        <ele>12.60000038147</ele>
        <time>2021-08-01T13:26:48Z</time>
      </trkpt>
      <trkpt lat="46.18226" lon="-1.12202">
        <ele>12.800000190735</ele>
        <time>2021-08-01T13:26:53Z</time>
      </trkpt>
      <trkpt lat="46.18177" lon="-1.12357">
        <ele>12.199999809265</ele>
        <time>2021-08-01T13:27:20Z</time>
      </trkpt>
      <trkpt lat="46.18165" lon="-1.12394">
        <ele>12.199999809265</ele>
        <time>2021-08-01T13:27:27Z</time>
      </trkpt>
      <trkpt lat="46.18142" lon="-1.12457">
        <ele>12</ele>
        <time>2021-08-01T13:27:41Z</time>
      </trkpt>
      <trkpt lat="46.18143" lon="-1.12462">
        <ele>11.800000190735</ele>
        <time>2021-08-01T13:27:46Z</time>
      </trkpt>
      <trkpt lat="46.18119" lon="-1.12539">
        <ele>12</ele>
        <time>2021-08-01T13:28:24Z</time>
      </trkpt>
      <trkpt lat="46.18092" lon="-1.12662">
        <ele>12</ele>
        <time>2021-08-01T13:28:46Z</time>
      </trkpt>
      <trkpt lat="46.18064" lon="-1.12719">
        <ele>11.60000038147</ele>
        <time>2021-08-01T13:28:56Z</time>
      </trkpt>
      <trkpt lat="46.18023" lon="-1.12781">
        <ele>9.1999998092651</ele>
        <time>2021-08-01T13:29:07Z</time>
      </trkpt>
      <trkpt lat="46.18013" lon="-1.12794">
        <ele>9</ele>
        <time>2021-08-01T13:29:09Z</time>
      </trkpt>
      <trkpt lat="46.17928" lon="-1.12906">
        <ele>6.5999999046326</ele>
        <time>2021-08-01T13:29:27Z</time>
      </trkpt>
      <trkpt lat="46.17866" lon="-1.12979">
        <ele>5.5999999046326</ele>
        <time>2021-08-01T13:29:41Z</time>
      </trkpt>
      <trkpt lat="46.1783" lon="-1.13015">
        <ele>5.1999998092651</ele>
        <time>2021-08-01T13:29:49Z</time>
      </trkpt>
      <trkpt lat="46.17803" lon="-1.13054">
        <ele>4.5999999046326</ele>
        <time>2021-08-01T13:29:56Z</time>
      </trkpt>
      <trkpt lat="46.17744" lon="-1.1315">
        <ele>3.7999999523163</ele>
        <time>2021-08-01T13:30:13Z</time>
      </trkpt>
      <trkpt lat="46.17706" lon="-1.13312">
        <ele>3.4000000953674</ele>
        <time>2021-08-01T13:30:35Z</time>
      </trkpt>
      <trkpt lat="46.17699" lon="-1.13384">
        <ele>2.7999999523163</ele>
        <time>2021-08-01T13:30:45Z</time>
      </trkpt>
      <trkpt lat="46.17671" lon="-1.13434">
        <ele>2.7999999523163</ele>
        <time>2021-08-01T13:30:56Z</time>
      </trkpt>
      <trkpt lat="46.1767" lon="-1.13436">
        <ele>3</ele>
        <time>2021-08-01T13:30:57Z</time>
      </trkpt>
      <trkpt lat="46.17634" lon="-1.13462">
        <ele>1.7999999523163</ele>
        <time>2021-08-01T13:31:27Z</time>
      </trkpt>
      <trkpt lat="46.17616" lon="-1.13452">
        <ele>2.2000000476837</ele>
        <time>2021-08-01T13:31:35Z</time>
      </trkpt>
      <trkpt lat="46.17597" lon="-1.13411">
        <ele>3.5999999046326</ele>
        <time>2021-08-01T13:31:50Z</time>
      </trkpt>
      <trkpt lat="46.17553" lon="-1.1331">
        <ele>7</ele>
        <time>2021-08-01T13:32:22Z</time>
      </trkpt>
      <trkpt lat="46.17536" lon="-1.13243">
        <ele>7</ele>
        <time>2021-08-01T13:32:38Z</time>
      </trkpt>
      <trkpt lat="46.17529" lon="-1.13247">
        <ele>7</ele>
        <time>2021-08-01T13:33:01Z</time>
      </trkpt>
      <trkpt lat="46.17503" lon="-1.13277">
        <ele>7.8000001907349</ele>
        <time>2021-08-01T13:33:12Z</time>
      </trkpt>
      <trkpt lat="46.17459" lon="-1.13314">
        <ele>9.3999996185303</ele>
        <time>2021-08-01T13:33:31Z</time>
      </trkpt>
      <trkpt lat="46.17354" lon="-1.13464">
        <ele>12</ele>
        <time>2021-08-01T13:34:11Z</time>
      </trkpt>
      <trkpt lat="46.17231" lon="-1.13648">
        <ele>12.39999961853</ele>
        <time>2021-08-01T13:35:01Z</time>
      </trkpt>
      <trkpt lat="46.17122" lon="-1.13748">
        <ele>12.800000190735</ele>
        <time>2021-08-01T13:35:27Z</time>
      </trkpt>
      <trkpt lat="46.1706" lon="-1.13803">
        <ele>12.199999809265</ele>
        <time>2021-08-01T13:35:41Z</time>
      </trkpt>
      <trkpt lat="46.16979" lon="-1.13873">
        <ele>10.800000190735</ele>
        <time>2021-08-01T13:36:01Z</time>
      </trkpt>
      <trkpt lat="46.16959" lon="-1.13885">
        <ele>10.800000190735</ele>
        <time>2021-08-01T13:36:05Z</time>
      </trkpt>
      <trkpt lat="46.16799" lon="-1.13951">
        <ele>11</ele>
        <time>2021-08-01T13:36:38Z</time>
      </trkpt>
      <trkpt lat="46.16757" lon="-1.13991">
        <ele>11.39999961853</ele>
        <time>2021-08-01T13:36:52Z</time>
      </trkpt>
      <trkpt lat="46.16713" lon="-1.14058">
        <ele>11.60000038147</ele>
        <time>2021-08-01T13:37:12Z</time>
      </trkpt>
      <trkpt lat="46.16695" lon="-1.14085">
        <ele>11.800000190735</ele>
        <time>2021-08-01T13:37:19Z</time>
      </trkpt>
      <trkpt lat="46.16649" lon="-1.14171">
        <ele>11.60000038147</ele>
        <time>2021-08-01T13:37:36Z</time>
      </trkpt>
      <trkpt lat="46.16603" lon="-1.14248">
        <ele>12.800000190735</ele>
        <time>2021-08-01T13:37:53Z</time>
      </trkpt>
      <trkpt lat="46.16564" lon="-1.14284">
        <ele>12.800000190735</ele>
        <time>2021-08-01T13:38:04Z</time>
      </trkpt>
      <trkpt lat="46.16528" lon="-1.14317">
        <ele>12.60000038147</ele>
        <time>2021-08-01T13:38:12Z</time>
      </trkpt>
      <trkpt lat="46.16521" lon="-1.14326">
        <ele>12.60000038147</ele>
        <time>2021-08-01T13:38:14Z</time>
      </trkpt>
      <trkpt lat="46.16494" lon="-1.14359">
        <ele>12.39999961853</ele>
        <time>2021-08-01T13:38:21Z</time>
      </trkpt>
      <trkpt lat="46.16459" lon="-1.14392">
        <ele>11</ele>
        <time>2021-08-01T13:38:29Z</time>
      </trkpt>
      <trkpt lat="46.16412" lon="-1.14445">
        <ele>10.199999809265</ele>
        <time>2021-08-01T13:38:39Z</time>
      </trkpt>
      <trkpt lat="46.16366" lon="-1.14509">
        <ele>9.1999998092651</ele>
        <time>2021-08-01T13:38:49Z</time>
      </trkpt>
      <trkpt lat="46.16346" lon="-1.14542">
        <ele>8.6000003814697</ele>
        <time>2021-08-01T13:38:54Z</time>
      </trkpt>
      <trkpt lat="46.16315" lon="-1.14565">
        <ele>5.5999999046326</ele>
        <time>2021-08-01T13:39:39Z</time>
      </trkpt>
      <trkpt lat="46.16286" lon="-1.14553">
        <ele>5.5999999046326</ele>
        <time>2021-08-01T13:39:48Z</time>
      </trkpt>
      <trkpt lat="46.16261" lon="-1.1454">
        <ele>5.5999999046326</ele>
        <time>2021-08-01T13:39:56Z</time>
      </trkpt>
      <trkpt lat="46.1623" lon="-1.14543">
        <ele>5.5999999046326</ele>
        <time>2021-08-01T13:40:01Z</time>
      </trkpt>
      <trkpt lat="46.16116" lon="-1.14566">
        <ele>2.4000000953674</ele>
        <time>2021-08-01T13:40:24Z</time>
      </trkpt>
      <trkpt lat="46.16091" lon="-1.14573">
        <ele>2.4000000953674</ele>
        <time>2021-08-01T13:40:29Z</time>
      </trkpt>
      <trkpt lat="46.16013" lon="-1.14596">
        <ele>1</ele>
        <time>2021-08-01T13:40:44Z</time>
      </trkpt>
      <trkpt lat="46.15947" lon="-1.14626">
        <ele>0.40000000596046</ele>
        <time>2021-08-01T13:40:58Z</time>
      </trkpt>
      <trkpt lat="46.15898" lon="-1.14654">
        <ele>0.80000001192093</ele>
        <time>2021-08-01T13:41:09Z</time>
      </trkpt>
      <trkpt lat="46.1588" lon="-1.14669">
        <ele>0.20000000298023</ele>
        <time>2021-08-01T13:41:18Z</time>
      </trkpt>
      <trkpt lat="46.15872" lon="-1.14666">
        <ele>-1</ele>
        <time>2021-08-01T13:41:27Z</time>
      </trkpt>
      <trkpt lat="46.15863" lon="-1.14663">
        <ele>-1.2000000476837</ele>
        <time>2021-08-01T13:42:12Z</time>
      </trkpt>
      <trkpt lat="46.15853" lon="-1.14634">
        <ele>-1</ele>
        <time>2021-08-01T13:42:21Z</time>
      </trkpt>
      <trkpt lat="46.15825" lon="-1.14567">
        <ele>0.40000000596046</ele>
        <time>2021-08-01T13:42:49Z</time>
      </trkpt>
      <trkpt lat="46.15824" lon="-1.1455">
        <ele>1.3999999761581</ele>
        <time>2021-08-01T13:47:18Z</time>
      </trkpt>
      <trkpt lat="46.15825" lon="-1.14553">
        <ele>1.3999999761581</ele>
        <time>2021-08-01T13:47:19Z</time>
      </trkpt>
      <trkpt lat="46.15851" lon="-1.14626">
        <ele>4.5</ele>
        <time>2021-08-01T13:48:37Z</time>
      </trkpt>
      <trkpt lat="46.15886" lon="-1.14646">
        <ele>-0.80000001192093</ele>
        <time>2021-08-01T13:49:04Z</time>
      </trkpt>
      <trkpt lat="46.1589" lon="-1.14666">
        <ele>-0.40000000596046</ele>
        <time>2021-08-01T13:49:09Z</time>
      </trkpt>
      <trkpt lat="46.159" lon="-1.14763">
        <ele>0.40000000596046</ele>
        <time>2021-08-01T13:49:26Z</time>
      </trkpt>
      <trkpt lat="46.15863" lon="-1.14979">
        <ele>-0.20000000298023</ele>
        <time>2021-08-01T13:50:20Z</time>
      </trkpt>
      <trkpt lat="46.1587" lon="-1.14977">
        <ele>-1</ele>
        <time>2021-08-01T13:50:36Z</time>
      </trkpt>
      <trkpt lat="46.15856" lon="-1.15038">
        <ele>3.5</ele>
        <time>2021-08-01T13:50:54Z</time>
      </trkpt>
      <trkpt lat="46.15823" lon="-1.15107">
        <ele>0.20000000298023</ele>
        <time>2021-08-01T13:51:20Z</time>
      </trkpt>
      <trkpt lat="46.1582" lon="-1.15162">
        <ele>-0.80000001192093</ele>
        <time>2021-08-01T13:51:33Z</time>
      </trkpt>
      <trkpt lat="46.15816" lon="-1.15322">
        <ele>-0.40000000596046</ele>
        <time>2021-08-01T13:52:17Z</time>
      </trkpt>
      <trkpt lat="46.15778" lon="-1.15329">
        <ele>-1</ele>
        <time>2021-08-01T13:52:39Z</time>
      </trkpt>
      <trkpt lat="46.15737" lon="-1.15348">
        <ele>2.4000000953674</ele>
        <time>2021-08-01T14:22:22Z</time>
      </trkpt>
      <trkpt lat="46.15713" lon="-1.15371">
        <ele>4.5999999046326</ele>
        <time>2021-08-01T14:22:44Z</time>
      </trkpt>
      <trkpt lat="46.15673" lon="-1.15411">
        <ele>4.5999999046326</ele>
        <time>2021-08-01T14:23:28Z</time>
      </trkpt>
      <trkpt lat="46.15637" lon="-1.15424">
        <ele>4.4000000953674</ele>
        <time>2021-08-01T14:24:09Z</time>
      </trkpt>
      <trkpt lat="46.15594" lon="-1.15527">
        <ele>5.4000000953674</ele>
        <time>2021-08-01T14:25:12Z</time>
      </trkpt>
      <trkpt lat="46.15628" lon="-1.15539">
        <ele>5.1999998092651</ele>
        <time>2021-08-01T14:25:33Z</time>
      </trkpt>
      <trkpt lat="46.15621" lon="-1.15572">
        <ele>5.4000000953674</ele>
        <time>2021-08-01T14:25:49Z</time>
      </trkpt>
      <trkpt lat="46.15624" lon="-1.15643">
        <ele>5.4000000953674</ele>
        <time>2021-08-01T14:26:18Z</time>
      </trkpt>
      <trkpt lat="46.15632" lon="-1.15697">
        <ele>4.4000000953674</ele>
        <time>2021-08-01T14:26:39Z</time>
      </trkpt>
      <trkpt lat="46.15631" lon="-1.15734">
        <ele>4</ele>
        <time>2021-08-01T14:26:55Z</time>
      </trkpt>
      <trkpt lat="46.15585" lon="-1.15757">
        <ele>4.8000001907349</ele>
        <time>2021-08-01T14:27:33Z</time>
      </trkpt>
      <trkpt lat="46.15565" lon="-1.15824">
        <ele>6.4000000953674</ele>
        <time>2021-08-01T14:28:02Z</time>
      </trkpt>
      <trkpt lat="46.15565" lon="-1.15852">
        <ele>6.4000000953674</ele>
        <time>2021-08-01T14:28:26Z</time>
      </trkpt>
      <trkpt lat="46.15531" lon="-1.15884">
        <ele>5.5999999046326</ele>
        <time>2021-08-01T14:29:23Z</time>
      </trkpt>
      <trkpt lat="46.15507" lon="-1.15996">
        <ele>6.5999999046326</ele>
        <time>2021-08-01T14:39:23Z</time>
      </trkpt>
      <trkpt lat="46.15552" lon="-1.16062">
        <ele>5.4000000953674</ele>
        <time>2021-08-01T14:40:05Z</time>
      </trkpt>
      <trkpt lat="46.15581" lon="-1.16175">
        <ele>4.8000001907349</ele>
        <time>2021-08-01T14:40:49Z</time>
      </trkpt>
      <trkpt lat="46.15589" lon="-1.16208">
        <ele>4.5999999046326</ele>
        <time>2021-08-01T14:41:21Z</time>
      </trkpt>
      <trkpt lat="46.15591" lon="-1.16354">
        <ele>4.8000001907349</ele>
        <time>2021-08-01T14:42:08Z</time>
      </trkpt>
      <trkpt lat="46.15594" lon="-1.16619">
        <ele>7.8000001907349</ele>
        <time>2021-08-01T14:43:03Z</time>
      </trkpt>
      <trkpt lat="46.1559" lon="-1.16723">
        <ele>9.1999998092651</ele>
        <time>2021-08-01T14:43:29Z</time>
      </trkpt>
      <trkpt lat="46.15582" lon="-1.16767">
        <ele>10</ele>
        <time>2021-08-01T14:43:41Z</time>
      </trkpt>
      <trkpt lat="46.15579" lon="-1.16916">
        <ele>12</ele>
        <time>2021-08-01T14:44:10Z</time>
      </trkpt>
      <trkpt lat="46.15564" lon="-1.17017">
        <ele>13</ele>
        <time>2021-08-01T14:44:55Z</time>
      </trkpt>
      <trkpt lat="46.15565" lon="-1.17062">
        <ele>13.39999961853</ele>
        <time>2021-08-01T14:45:13Z</time>
      </trkpt>
      <trkpt lat="46.15568" lon="-1.17122">
        <ele>13.800000190735</ele>
        <time>2021-08-01T14:45:41Z</time>
      </trkpt>
      <trkpt lat="46.15578" lon="-1.17113">
        <ele>13.800000190735</ele>
        <time>2021-08-01T14:45:48Z</time>
      </trkpt>
      <trkpt lat="46.1572" lon="-1.17078">
        <ele>17.200000762939</ele>
        <time>2021-08-01T14:46:49Z</time>
      </trkpt>
      <trkpt lat="46.15753" lon="-1.17057">
        <ele>16.799999237061</ele>
        <time>2021-08-01T14:47:00Z</time>
      </trkpt>
      <trkpt lat="46.15687" lon="-1.16969">
        <ele>14.800000190735</ele>
        <time>2021-08-01T14:47:35Z</time>
      </trkpt>
      <trkpt lat="46.15682" lon="-1.16921">
        <ele>13.800000190735</ele>
        <time>2021-08-01T14:48:46Z</time>
      </trkpt>
      <trkpt lat="46.15616" lon="-1.16676">
        <ele>9.8000001907349</ele>
        <time>2021-08-01T14:49:27Z</time>
      </trkpt>
      <trkpt lat="46.15626" lon="-1.16567">
        <ele>7</ele>
        <time>2021-08-01T14:49:49Z</time>
      </trkpt>
      <trkpt lat="46.15628" lon="-1.16447">
        <ele>5.4000000953674</ele>
        <time>2021-08-01T14:50:02Z</time>
      </trkpt>
      <trkpt lat="46.15625" lon="-1.16419">
        <ele>5.1999998092651</ele>
        <time>2021-08-01T14:50:05Z</time>
      </trkpt>
      <trkpt lat="46.15619" lon="-1.16358">
        <ele>4.4000000953674</ele>
        <time>2021-08-01T14:50:15Z</time>
      </trkpt>
      <trkpt lat="46.15736" lon="-1.16322">
        <ele>3.5999999046326</ele>
        <time>2021-08-01T14:50:52Z</time>
      </trkpt>
      <trkpt lat="46.15794" lon="-1.16255">
        <ele>3.5999999046326</ele>
        <time>2021-08-01T14:51:26Z</time>
      </trkpt>
      <trkpt lat="46.15777" lon="-1.16121">
        <ele>2</ele>
        <time>2021-08-01T14:51:56Z</time>
      </trkpt>
      <trkpt lat="46.15856" lon="-1.16004">
        <ele>2.2000000476837</ele>
        <time>2021-08-01T14:52:58Z</time>
      </trkpt>
      <trkpt lat="46.15958" lon="-1.15933">
        <ele>2.5999999046326</ele>
        <time>2021-08-01T14:53:47Z</time>
      </trkpt>
      <trkpt lat="46.15984" lon="-1.15921">
        <ele>2.5999999046326</ele>
        <time>2021-08-01T14:53:53Z</time>
      </trkpt>
      <trkpt lat="46.16062" lon="-1.15806">
        <ele>3.2000000476837</ele>
        <time>2021-08-01T14:54:20Z</time>
      </trkpt>
      <trkpt lat="46.16099" lon="-1.15759">
        <ele>5.1999998092651</ele>
        <time>2021-08-01T14:54:42Z</time>
      </trkpt>
      <trkpt lat="46.16113" lon="-1.15764">
        <ele>5.5999999046326</ele>
        <time>2021-08-01T14:54:47Z</time>
      </trkpt>
      <trkpt lat="46.16163" lon="-1.15785">
        <ele>5.1999998092651</ele>
        <time>2021-08-01T14:55:00Z</time>
      </trkpt>
      <trkpt lat="46.16199" lon="-1.15768">
        <ele>5.1999998092651</ele>
        <time>2021-08-01T14:55:10Z</time>
      </trkpt>
      <trkpt lat="46.16245" lon="-1.15685">
        <ele>5.4000000953674</ele>
        <time>2021-08-01T14:55:39Z</time>
      </trkpt>
      <trkpt lat="46.16247" lon="-1.1569">
        <ele>5.4000000953674</ele>
        <time>2021-08-01T14:55:43Z</time>
      </trkpt>
      <trkpt lat="46.16222" lon="-1.15673">
        <ele>5</ele>
        <time>2021-08-01T14:56:00Z</time>
      </trkpt>
      <trkpt lat="46.16215" lon="-1.15589">
        <ele>5.5999999046326</ele>
        <time>2021-08-01T14:56:18Z</time>
      </trkpt>
      <trkpt lat="46.16201" lon="-1.15438">
        <ele>6.5999999046326</ele>
        <time>2021-08-01T14:56:53Z</time>
      </trkpt>
      <trkpt lat="46.16189" lon="-1.15379">
        <ele>8</ele>
        <time>2021-08-01T14:57:12Z</time>
      </trkpt>
      <trkpt lat="46.16193" lon="-1.15365">
        <ele>8.1999998092651</ele>
        <time>2021-08-01T14:57:16Z</time>
      </trkpt>
      <trkpt lat="46.16196" lon="-1.15349">
        <ele>8.1999998092651</ele>
        <time>2021-08-01T14:57:20Z</time>
      </trkpt>
      <trkpt lat="46.16163" lon="-1.15255">
        <ele>9.3999996185303</ele>
        <time>2021-08-01T14:57:55Z</time>
      </trkpt>
      <trkpt lat="46.16155" lon="-1.15134">
        <ele>7.4000000953674</ele>
        <time>2021-08-01T14:58:22Z</time>
      </trkpt>
      <trkpt lat="46.16145" lon="-1.15104">
        <ele>7</ele>
        <time>2021-08-01T14:58:28Z</time>
      </trkpt>
      <trkpt lat="46.16124" lon="-1.15071">
        <ele>6</ele>
        <time>2021-08-01T14:58:43Z</time>
      </trkpt>
      <trkpt lat="46.16113" lon="-1.15111">
        <ele>6.1999998092651</ele>
        <time>2021-08-01T14:59:00Z</time>
      </trkpt>
      <trkpt lat="46.16027" lon="-1.15168">
        <ele>7.4000000953674</ele>
        <time>2021-08-01T14:59:32Z</time>
      </trkpt>
      <trkpt lat="46.15999" lon="-1.15176">
        <ele>7.4000000953674</ele>
        <time>2021-08-01T14:59:49Z</time>
      </trkpt>
      <trkpt lat="46.15974" lon="-1.15173">
        <ele>7.4000000953674</ele>
        <time>2021-08-01T15:03:58Z</time>
      </trkpt>
      <trkpt lat="46.15908" lon="-1.15186">
        <ele>7</ele>
        <time>2021-08-01T15:04:30Z</time>
      </trkpt>
      <trkpt lat="46.15904" lon="-1.15179">
        <ele>6.5999999046326</ele>
        <time>2021-08-01T15:04:37Z</time>
      </trkpt>
      <trkpt lat="46.15958" lon="-1.15075">
        <ele>6</ele>
        <time>2021-08-01T15:05:29Z</time>
      </trkpt>
      <trkpt lat="46.16033" lon="-1.15037">
        <ele>5.5999999046326</ele>
        <time>2021-08-01T15:06:03Z</time>
      </trkpt>
      <trkpt lat="46.16076" lon="-1.15013">
        <ele>6</ele>
        <time>2021-08-01T15:06:22Z</time>
      </trkpt>
      <trkpt lat="46.16076" lon="-1.14998">
        <ele>6</ele>
        <time>2021-08-01T15:06:26Z</time>
      </trkpt>
      <trkpt lat="46.1607" lon="-1.14933">
        <ele>6.1999998092651</ele>
        <time>2021-08-01T15:06:40Z</time>
      </trkpt>
      <trkpt lat="46.16053" lon="-1.1487">
        <ele>6.4000000953674</ele>
        <time>2021-08-01T15:06:53Z</time>
      </trkpt>
      <trkpt lat="46.16029" lon="-1.14739">
        <ele>4.8000001907349</ele>
        <time>2021-08-01T15:07:20Z</time>
      </trkpt>
      <trkpt lat="46.15993" lon="-1.1461">
        <ele>4.5999999046326</ele>
        <time>2021-08-01T15:08:03Z</time>
      </trkpt>
      <trkpt lat="46.15867" lon="-1.14668">
        <ele>3.7999999523163</ele>
        <time>2021-08-01T15:08:46Z</time>
      </trkpt>
      <trkpt lat="46.15776" lon="-1.14611">
        <ele>5</ele>
        <time>2021-08-01T15:09:23Z</time>
      </trkpt>
      <trkpt lat="46.15717" lon="-1.14643">
        <ele>4.8000001907349</ele>
        <time>2021-08-01T15:09:38Z</time>
      </trkpt>
      <trkpt lat="46.15678" lon="-1.14671">
        <ele>5</ele>
        <time>2021-08-01T15:09:48Z</time>
      </trkpt>
      <trkpt lat="46.15552" lon="-1.14608">
        <ele>4.1999998092651</ele>
        <time>2021-08-01T15:10:20Z</time>
      </trkpt>
      <trkpt lat="46.15453" lon="-1.1449">
        <ele>4.5999999046326</ele>
        <time>2021-08-01T15:10:57Z</time>
      </trkpt>
      <trkpt lat="46.15434" lon="-1.14463">
        <ele>4</ele>
        <time>2021-08-01T15:11:07Z</time>
      </trkpt>
      <trkpt lat="46.15404" lon="-1.14517">
        <ele>3.5999999046326</ele>
        <time>2021-08-01T15:11:22Z</time>
      </trkpt>
      <trkpt lat="46.15316" lon="-1.14658">
        <ele>5</ele>
        <time>2021-08-01T15:12:12Z</time>
      </trkpt>
      <trkpt lat="46.15227" lon="-1.14817">
        <ele>7.5999999046326</ele>
        <time>2021-08-01T15:12:52Z</time>
      </trkpt>
      <trkpt lat="46.15246" lon="-1.14858">
        <ele>9</ele>
        <time>2021-08-01T15:13:04Z</time>
      </trkpt>
      <trkpt lat="46.15357" lon="-1.14912">
        <ele>5.8000001907349</ele>
        <time>2021-08-01T15:13:22Z</time>
      </trkpt>
      <trkpt lat="46.15389" lon="-1.14918">
        <ele>4.8000001907349</ele>
        <time>2021-08-01T15:13:30Z</time>
      </trkpt>
      <trkpt lat="46.15397" lon="-1.15058">
        <ele>4.4000000953674</ele>
        <time>2021-08-01T15:14:11Z</time>
      </trkpt>
      <trkpt lat="46.15355" lon="-1.15119">
        <ele>5.4000000953674</ele>
        <time>2021-08-01T15:14:36Z</time>
      </trkpt>
      <trkpt lat="46.1529" lon="-1.15195">
        <ele>4.4000000953674</ele>
        <time>2021-08-01T15:25:10Z</time>
      </trkpt>
      <trkpt lat="46.15296" lon="-1.15242">
        <ele>3.7999999523163</ele>
        <time>2021-08-01T15:25:51Z</time>
      </trkpt>
      <trkpt lat="46.15324" lon="-1.15245">
        <ele>4</ele>
        <time>2021-08-01T15:26:02Z</time>
      </trkpt>
      <trkpt lat="46.15363" lon="-1.15235">
        <ele>4</ele>
        <time>2021-08-01T15:26:19Z</time>
      </trkpt>
      <trkpt lat="46.15377" lon="-1.15244">
        <ele>4.1999998092651</ele>
        <time>2021-08-01T15:26:26Z</time>
      </trkpt>
      <trkpt lat="46.15394" lon="-1.15256">
        <ele>4.4000000953674</ele>
        <time>2021-08-01T15:26:33Z</time>
      </trkpt>
      <trkpt lat="46.15393" lon="-1.15304">
        <ele>4.8000001907349</ele>
        <time>2021-08-01T15:26:45Z</time>
      </trkpt>
      <trkpt lat="46.15388" lon="-1.15336">
        <ele>4.8000001907349</ele>
        <time>2021-08-01T15:26:53Z</time>
      </trkpt>
      <trkpt lat="46.15394" lon="-1.15343">
        <ele>4.8000001907349</ele>
        <time>2021-08-01T15:26:57Z</time>
      </trkpt>
      <trkpt lat="46.15412" lon="-1.15329">
        <ele>3.4000000953674</ele>
        <time>2021-08-01T15:29:06Z</time>
      </trkpt>
      <trkpt lat="46.15427" lon="-1.15273">
        <ele>4.4000000953674</ele>
        <time>2021-08-01T15:29:42Z</time>
      </trkpt>
      <trkpt lat="46.1552" lon="-1.15283">
        <ele>3.7999999523163</ele>
        <time>2021-08-01T15:30:24Z</time>
      </trkpt>
      <trkpt lat="46.15554" lon="-1.15272">
        <ele>3.4000000953674</ele>
        <time>2021-08-01T15:33:18Z</time>
      </trkpt>
      <trkpt lat="46.15559" lon="-1.15237">
        <ele>3.2000000476837</ele>
        <time>2021-08-01T15:33:30Z</time>
      </trkpt>
      <trkpt lat="46.15572" lon="-1.15192">
        <ele>2</ele>
        <time>2021-08-01T15:34:26Z</time>
      </trkpt>
      <trkpt lat="46.15583" lon="-1.15183">
        <ele>2</ele>
        <time>2021-08-01T15:34:32Z</time>
      </trkpt>
      <trkpt lat="46.15601" lon="-1.15174">
        <ele>2.2000000476837</ele>
        <time>2021-08-01T15:34:41Z</time>
      </trkpt>
      <trkpt lat="46.1562" lon="-1.15224">
        <ele>2.4000000953674</ele>
        <time>2021-08-01T15:35:14Z</time>
      </trkpt>
      <trkpt lat="46.15609" lon="-1.15235">
        <ele>2</ele>
        <time>2021-08-01T15:38:08Z</time>
      </trkpt>
      <trkpt lat="46.15591" lon="-1.15181">
        <ele>2.5999999046326</ele>
        <time>2021-08-01T15:38:39Z</time>
      </trkpt>
      <trkpt lat="46.1557" lon="-1.15181">
        <ele>2.5999999046326</ele>
        <time>2021-08-01T15:38:46Z</time>
      </trkpt>
      <trkpt lat="46.15568" lon="-1.15169">
        <ele>2.5999999046326</ele>
        <time>2021-08-01T15:38:56Z</time>
      </trkpt>
      <trkpt lat="46.15577" lon="-1.15041">
        <ele>2.2000000476837</ele>
        <time>2021-08-01T15:39:58Z</time>
      </trkpt>
      <trkpt lat="46.15583" lon="-1.14982">
        <ele>2.4000000953674</ele>
        <time>2021-08-01T15:40:23Z</time>
      </trkpt>
      <trkpt lat="46.15599" lon="-1.1496">
        <ele>2.2000000476837</ele>
        <time>2021-08-01T15:40:30Z</time>
      </trkpt>
      <trkpt lat="46.15701" lon="-1.15031">
        <ele>3.2000000476837</ele>
        <time>2021-08-01T15:41:12Z</time>
      </trkpt>
      <trkpt lat="46.15813" lon="-1.1504">
        <ele>3.2000000476837</ele>
        <time>2021-08-01T15:41:56Z</time>
      </trkpt>
      <trkpt lat="46.15783" lon="-1.15071">
        <ele>4</ele>
        <time>2021-08-02T06:59:17Z</time>
      </trkpt>
      <trkpt lat="46.15709" lon="-1.15116">
        <ele>4.4000000953674</ele>
        <time>2021-08-02T07:00:04Z</time>
      </trkpt>
      <trkpt lat="46.15677" lon="-1.15172">
        <ele>3.4000000953674</ele>
        <time>2021-08-02T07:08:29Z</time>
      </trkpt>
      <trkpt lat="46.15655" lon="-1.15189">
        <ele>0.40000000596046</ele>
        <time>2021-08-02T07:08:38Z</time>
      </trkpt>
      <trkpt lat="46.15646" lon="-1.15186">
        <ele>0.60000002384186</ele>
        <time>2021-08-02T07:08:43Z</time>
      </trkpt>
      <trkpt lat="46.15506" lon="-1.15185">
        <ele>1</ele>
        <time>2021-08-02T07:10:11Z</time>
      </trkpt>
      <trkpt lat="46.15495" lon="-1.15192">
        <ele>1</ele>
        <time>2021-08-02T07:10:27Z</time>
      </trkpt>
      <trkpt lat="46.15492" lon="-1.15221">
        <ele>1</ele>
        <time>2021-08-02T07:10:34Z</time>
      </trkpt>
      <trkpt lat="46.15488" lon="-1.15268">
        <ele>1.2000000476837</ele>
        <time>2021-08-02T07:10:43Z</time>
      </trkpt>
      <trkpt lat="46.15462" lon="-1.15274">
        <ele>1.6000000238419</ele>
        <time>2021-08-02T07:10:52Z</time>
      </trkpt>
      <trkpt lat="46.15419" lon="-1.15266">
        <ele>2.5999999046326</ele>
        <time>2021-08-02T07:11:05Z</time>
      </trkpt>
      <trkpt lat="46.15393" lon="-1.15314">
        <ele>2.4000000953674</ele>
        <time>2021-08-02T07:11:17Z</time>
      </trkpt>
      <trkpt lat="46.15341" lon="-1.15645">
        <ele>2</ele>
        <time>2021-08-02T07:12:05Z</time>
      </trkpt>
      <trkpt lat="46.15332" lon="-1.15672">
        <ele>2.2000000476837</ele>
        <time>2021-08-02T07:12:09Z</time>
      </trkpt>
      <trkpt lat="46.15297" lon="-1.15759">
        <ele>2</ele>
        <time>2021-08-02T07:12:23Z</time>
      </trkpt>
      <trkpt lat="46.15233" lon="-1.15801">
        <ele>2.5999999046326</ele>
        <time>2021-08-02T07:12:39Z</time>
      </trkpt>
      <trkpt lat="46.14949" lon="-1.15889">
        <ele>1.7999999523163</ele>
        <time>2021-08-02T07:13:34Z</time>
      </trkpt>
      <trkpt lat="46.14868" lon="-1.15877">
        <ele>1.6000000238419</ele>
        <time>2021-08-02T07:13:50Z</time>
      </trkpt>
      <trkpt lat="46.1482" lon="-1.15862">
        <ele>1.7999999523163</ele>
        <time>2021-08-02T07:13:59Z</time>
      </trkpt>
      <trkpt lat="46.14751" lon="-1.15881">
        <ele>1.7999999523163</ele>
        <time>2021-08-02T07:14:13Z</time>
      </trkpt>
      <trkpt lat="46.14669" lon="-1.15914">
        <ele>2</ele>
        <time>2021-08-02T07:14:29Z</time>
      </trkpt>
      <trkpt lat="46.14641" lon="-1.15921">
        <ele>2</ele>
        <time>2021-08-02T07:14:35Z</time>
      </trkpt>
      <trkpt lat="46.14507" lon="-1.15958">
        <ele>2</ele>
        <time>2021-08-02T07:15:03Z</time>
      </trkpt>
      <trkpt lat="46.14428" lon="-1.16061">
        <ele>1.3999999761581</ele>
        <time>2021-08-02T07:15:31Z</time>
      </trkpt>
      <trkpt lat="46.14415" lon="-1.16112">
        <ele>1.3999999761581</ele>
        <time>2021-08-02T07:15:39Z</time>
      </trkpt>
      <trkpt lat="46.14383" lon="-1.16223">
        <ele>1.7999999523163</ele>
        <time>2021-08-02T07:15:57Z</time>
      </trkpt>
      <trkpt lat="46.1431" lon="-1.16326">
        <ele>1.3999999761581</ele>
        <time>2021-08-02T07:16:24Z</time>
      </trkpt>
      <trkpt lat="46.14194" lon="-1.16367">
        <ele>1.7999999523163</ele>
        <time>2021-08-02T07:16:50Z</time>
      </trkpt>
      <trkpt lat="46.14149" lon="-1.16284">
        <ele>1.3999999761581</ele>
        <time>2021-08-02T07:17:20Z</time>
      </trkpt>
      <trkpt lat="46.14046" lon="-1.16266">
        <ele>3.5999999046326</ele>
        <time>2021-08-02T07:18:28Z</time>
      </trkpt>
      <trkpt lat="46.13979" lon="-1.16255">
        <ele>4.8000001907349</ele>
        <time>2021-08-02T07:18:49Z</time>
      </trkpt>
      <trkpt lat="46.13791" lon="-1.16155">
        <ele>6.8000001907349</ele>
        <time>2021-08-02T07:19:38Z</time>
      </trkpt>
      <trkpt lat="46.13762" lon="-1.16126">
        <ele>6.1999998092651</ele>
        <time>2021-08-02T07:19:48Z</time>
      </trkpt>
      <trkpt lat="46.13781" lon="-1.15934">
        <ele>5.5999999046326</ele>
        <time>2021-08-02T07:20:30Z</time>
      </trkpt>
      <trkpt lat="46.13791" lon="-1.15833">
        <ele>5.1999998092651</ele>
        <time>2021-08-02T07:20:46Z</time>
      </trkpt>
      <trkpt lat="46.13751" lon="-1.15418">
        <ele>3.2000000476837</ele>
        <time>2021-08-02T07:21:46Z</time>
      </trkpt>
      <trkpt lat="46.13582" lon="-1.1521">
        <ele>2.2000000476837</ele>
        <time>2021-08-02T07:22:34Z</time>
      </trkpt>
      <trkpt lat="46.13441" lon="-1.151">
        <ele>2.4000000953674</ele>
        <time>2021-08-02T07:23:08Z</time>
      </trkpt>
      <trkpt lat="46.1337" lon="-1.14994">
        <ele>2.4000000953674</ele>
        <time>2021-08-02T07:23:29Z</time>
      </trkpt>
      <trkpt lat="46.13231" lon="-1.14841">
        <ele>1.3999999761581</ele>
        <time>2021-08-02T07:24:21Z</time>
      </trkpt>
      <trkpt lat="46.13084" lon="-1.14819">
        <ele>-0.20000000298023</ele>
        <time>2021-08-02T07:25:06Z</time>
      </trkpt>
      <trkpt lat="46.13064" lon="-1.14753">
        <ele>1.3999999761581</ele>
        <time>2021-08-02T07:25:18Z</time>
      </trkpt>
      <trkpt lat="46.13074" lon="-1.1469">
        <ele>2</ele>
        <time>2021-08-02T07:25:28Z</time>
      </trkpt>
      <trkpt lat="46.13158" lon="-1.14153">
        <ele>1.6000000238419</ele>
        <time>2021-08-02T07:26:40Z</time>
      </trkpt>
      <trkpt lat="46.13157" lon="-1.14093">
        <ele>1.7999999523163</ele>
        <time>2021-08-02T07:26:48Z</time>
      </trkpt>
      <trkpt lat="46.13157" lon="-1.14012">
        <ele>2.4000000953674</ele>
        <time>2021-08-02T07:26:59Z</time>
      </trkpt>
      <trkpt lat="46.13182" lon="-1.13803">
        <ele>5.1999998092651</ele>
        <time>2021-08-02T07:27:37Z</time>
      </trkpt>
      <trkpt lat="46.13185" lon="-1.13787">
        <ele>5.4000000953674</ele>
        <time>2021-08-02T07:27:43Z</time>
      </trkpt>
      <trkpt lat="46.13208" lon="-1.13709">
        <ele>4.8000001907349</ele>
        <time>2021-08-02T07:28:07Z</time>
      </trkpt>
      <trkpt lat="46.13194" lon="-1.13685">
        <ele>5</ele>
        <time>2021-08-02T07:28:14Z</time>
      </trkpt>
      <trkpt lat="46.1318" lon="-1.13582">
        <ele>6.8000001907349</ele>
        <time>2021-08-02T07:28:33Z</time>
      </trkpt>
      <trkpt lat="46.13177" lon="-1.13569">
        <ele>6.8000001907349</ele>
        <time>2021-08-02T07:28:35Z</time>
      </trkpt>
      <trkpt lat="46.13161" lon="-1.13513">
        <ele>7</ele>
        <time>2021-08-02T07:28:43Z</time>
      </trkpt>
      <trkpt lat="46.13154" lon="-1.13461">
        <ele>6.5999999046326</ele>
        <time>2021-08-02T07:28:50Z</time>
      </trkpt>
      <trkpt lat="46.13133" lon="-1.13274">
        <ele>5</ele>
        <time>2021-08-02T07:29:13Z</time>
      </trkpt>
      <trkpt lat="46.13113" lon="-1.13133">
        <ele>2</ele>
        <time>2021-08-02T07:29:29Z</time>
      </trkpt>
      <trkpt lat="46.13093" lon="-1.13133">
        <ele>-0.20000000298023</ele>
        <time>2021-08-02T07:29:42Z</time>
      </trkpt>
      <trkpt lat="46.13106" lon="-1.13131">
        <ele>-0.80000001192093</ele>
        <time>2021-08-02T07:30:08Z</time>
      </trkpt>
      <trkpt lat="46.13019" lon="-1.13127">
        <ele>-0.60000002384186</ele>
        <time>2021-08-02T07:30:49Z</time>
      </trkpt>
      <trkpt lat="46.12998" lon="-1.13105">
        <ele>-0.40000000596046</ele>
        <time>2021-08-02T07:30:56Z</time>
      </trkpt>
      <trkpt lat="46.12946" lon="-1.13004">
        <ele>-0.80000001192093</ele>
        <time>2021-08-02T07:31:31Z</time>
      </trkpt>
      <trkpt lat="46.12952" lon="-1.12877">
        <ele>-0.20000000298023</ele>
        <time>2021-08-02T07:31:57Z</time>
      </trkpt>
      <trkpt lat="46.12955" lon="-1.12872">
        <ele>-0.20000000298023</ele>
        <time>2021-08-02T07:31:58Z</time>
      </trkpt>
      <trkpt lat="46.1288" lon="-1.12761">
        <ele>-0.60000002384186</ele>
        <time>2021-08-02T07:32:34Z</time>
      </trkpt>
      <trkpt lat="46.12852" lon="-1.12802">
        <ele>-0.80000001192093</ele>
        <time>2021-08-02T07:32:49Z</time>
      </trkpt>
      <trkpt lat="46.12804" lon="-1.12837">
        <ele>-0.80000001192093</ele>
        <time>2021-08-02T07:33:00Z</time>
      </trkpt>
      <trkpt lat="46.12769" lon="-1.1282">
        <ele>-0.20000000298023</ele>
        <time>2021-08-02T07:33:41Z</time>
      </trkpt>
      <trkpt lat="46.12661" lon="-1.12731">
        <ele>1.2000000476837</ele>
        <time>2021-08-02T07:34:26Z</time>
      </trkpt>
      <trkpt lat="46.12595" lon="-1.12685">
        <ele>1.7999999523163</ele>
        <time>2021-08-02T07:34:40Z</time>
      </trkpt>
      <trkpt lat="46.12339" lon="-1.12519">
        <ele>0.60000002384186</ele>
        <time>2021-08-02T07:35:41Z</time>
      </trkpt>
      <trkpt lat="46.12297" lon="-1.12502">
        <ele>-0.20000000298023</ele>
        <time>2021-08-02T07:35:54Z</time>
      </trkpt>
      <trkpt lat="46.12276" lon="-1.12489">
        <ele>-0.80000001192093</ele>
        <time>2021-08-02T07:36:00Z</time>
      </trkpt>
      <trkpt lat="46.12108" lon="-1.12391">
        <ele>-0.40000000596046</ele>
        <time>2021-08-02T07:36:34Z</time>
      </trkpt>
      <trkpt lat="46.12047" lon="-1.1237">
        <ele>-0.20000000298023</ele>
        <time>2021-08-02T07:36:44Z</time>
      </trkpt>
      <trkpt lat="46.11851" lon="-1.12301">
        <ele>-0.60000002384186</ele>
        <time>2021-08-02T07:37:22Z</time>
      </trkpt>
      <trkpt lat="46.11805" lon="-1.12344">
        <ele>-1</ele>
        <time>2021-08-02T07:37:43Z</time>
      </trkpt>
      <trkpt lat="46.11764" lon="-1.12335">
        <ele>-0.80000001192093</ele>
        <time>2021-08-02T07:37:51Z</time>
      </trkpt>
      <trkpt lat="46.11693" lon="-1.12327">
        <ele>-1</ele>
        <time>2021-08-02T07:38:06Z</time>
      </trkpt>
      <trkpt lat="46.11661" lon="-1.12324">
        <ele>-1</ele>
        <time>2021-08-02T07:38:12Z</time>
      </trkpt>
      <trkpt lat="46.11618" lon="-1.12332">
        <ele>-1.2000000476837</ele>
        <time>2021-08-02T07:38:19Z</time>
      </trkpt>
      <trkpt lat="46.11605" lon="-1.12342">
        <ele>-1.2000000476837</ele>
        <time>2021-08-02T07:38:24Z</time>
      </trkpt>
      <trkpt lat="46.11542" lon="-1.12352">
        <ele>-1</ele>
        <time>2021-08-02T07:38:38Z</time>
      </trkpt>
      <trkpt lat="46.11528" lon="-1.12358">
        <ele>-0.60000002384186</ele>
        <time>2021-08-02T07:38:41Z</time>
      </trkpt>
      <trkpt lat="46.11479" lon="-1.12353">
        <ele>-1</ele>
        <time>2021-08-02T07:38:56Z</time>
      </trkpt>
      <trkpt lat="46.11432" lon="-1.12364">
        <ele>0.60000002384186</ele>
        <time>2021-08-02T07:39:14Z</time>
      </trkpt>
      <trkpt lat="46.11416" lon="-1.12363">
        <ele>4.9</ele>
        <time>2021-08-02T07:41:36Z</time>
      </trkpt>
      <trkpt lat="46.11376" lon="-1.12378">
        <ele>0.20000000298023</ele>
        <time>2021-08-02T07:41:48Z</time>
      </trkpt>
      <trkpt lat="46.11276" lon="-1.12285">
        <ele>0.20000000298023</ele>
        <time>2021-08-02T07:42:27Z</time>
      </trkpt>
      <trkpt lat="46.11273" lon="-1.12282">
        <ele>0.20000000298023</ele>
        <time>2021-08-02T07:42:28Z</time>
      </trkpt>
      <trkpt lat="46.11264" lon="-1.12254">
        <ele>-1.2000000476837</ele>
        <time>2021-08-02T07:42:52Z</time>
      </trkpt>
      <trkpt lat="46.11134" lon="-1.12097">
        <ele>-0.40000000596046</ele>
        <time>2021-08-02T07:43:33Z</time>
      </trkpt>
      <trkpt lat="46.11109" lon="-1.121">
        <ele>-0.60000002384186</ele>
        <time>2021-08-02T07:43:37Z</time>
      </trkpt>
      <trkpt lat="46.10993" lon="-1.11848">
        <ele>-0.80000001192093</ele>
        <time>2021-08-02T07:44:21Z</time>
      </trkpt>
      <trkpt lat="46.10987" lon="-1.11837">
        <ele>-0.80000001192093</ele>
        <time>2021-08-02T07:44:23Z</time>
      </trkpt>
      <trkpt lat="46.10956" lon="-1.11787">
        <ele>-0.60000002384186</ele>
        <time>2021-08-02T07:44:32Z</time>
      </trkpt>
      <trkpt lat="46.10821" lon="-1.11716">
        <ele>-0.80000001192093</ele>
        <time>2021-08-02T07:45:05Z</time>
      </trkpt>
      <trkpt lat="46.10787" lon="-1.11619">
        <ele>-1.2000000476837</ele>
        <time>2021-08-02T07:45:26Z</time>
      </trkpt>
      <trkpt lat="46.10773" lon="-1.11595">
        <ele>-1.3999999761581</ele>
        <time>2021-08-02T07:45:34Z</time>
      </trkpt>
      <trkpt lat="46.1069" lon="-1.11567">
        <ele>-1.2000000476837</ele>
        <time>2021-08-02T07:45:55Z</time>
      </trkpt>
      <trkpt lat="46.1066" lon="-1.11564">
        <ele>-1.2000000476837</ele>
        <time>2021-08-02T07:46:02Z</time>
      </trkpt>
      <trkpt lat="46.10603" lon="-1.11664">
        <ele>-1</ele>
        <time>2021-08-02T07:46:19Z</time>
      </trkpt>
      <trkpt lat="46.10568" lon="-1.11783">
        <ele>-1</ele>
        <time>2021-08-02T07:46:35Z</time>
      </trkpt>
      <trkpt lat="46.10549" lon="-1.11858">
        <ele>-1</ele>
        <time>2021-08-02T07:46:45Z</time>
      </trkpt>
      <trkpt lat="46.10455" lon="-1.11832">
        <ele>-1.2000000476837</ele>
        <time>2021-08-02T07:47:15Z</time>
      </trkpt>
      <trkpt lat="46.10442" lon="-1.11833">
        <ele>-1</ele>
        <time>2021-08-02T07:47:18Z</time>
      </trkpt>
      <trkpt lat="46.10382" lon="-1.11831">
        <ele>0.20000000298023</ele>
        <time>2021-08-02T07:47:32Z</time>
      </trkpt>
      <trkpt lat="46.1031" lon="-1.11822">
        <ele>1.7999999523163</ele>
        <time>2021-08-02T07:47:50Z</time>
      </trkpt>
      <trkpt lat="46.10361" lon="-1.11557">
        <ele>2.5999999046326</ele>
        <time>2021-08-02T07:48:34Z</time>
      </trkpt>
      <trkpt lat="46.10393" lon="-1.1138">
        <ele>2.4000000953674</ele>
        <time>2021-08-02T07:48:59Z</time>
      </trkpt>
      <trkpt lat="46.10277" lon="-1.11318">
        <ele>2.2000000476837</ele>
        <time>2021-08-02T07:49:29Z</time>
      </trkpt>
      <trkpt lat="46.10217" lon="-1.11279">
        <ele>2.5999999046326</ele>
        <time>2021-08-02T07:49:43Z</time>
      </trkpt>
      <trkpt lat="46.10206" lon="-1.11269">
        <ele>2.5999999046326</ele>
        <time>2021-08-02T07:49:46Z</time>
      </trkpt>
      <trkpt lat="46.10036" lon="-1.11031">
        <ele>4.8000001907349</ele>
        <time>2021-08-02T07:50:52Z</time>
      </trkpt>
      <trkpt lat="46.10023" lon="-1.1101">
        <ele>4.8000001907349</ele>
        <time>2021-08-02T07:50:56Z</time>
      </trkpt>
      <trkpt lat="46.10015" lon="-1.10994">
        <ele>5</ele>
        <time>2021-08-02T07:50:59Z</time>
      </trkpt>
      <trkpt lat="46.10005" lon="-1.10973">
        <ele>5.1999998092651</ele>
        <time>2021-08-02T07:51:03Z</time>
      </trkpt>
      <trkpt lat="46.09951" lon="-1.10891">
        <ele>6</ele>
        <time>2021-08-02T07:51:20Z</time>
      </trkpt>
      <trkpt lat="46.09941" lon="-1.10877">
        <ele>6.1999998092651</ele>
        <time>2021-08-02T07:51:23Z</time>
      </trkpt>
      <trkpt lat="46.0987" lon="-1.10755">
        <ele>7</ele>
        <time>2021-08-02T07:51:51Z</time>
      </trkpt>
      <trkpt lat="46.0983" lon="-1.10669">
        <ele>8</ele>
        <time>2021-08-02T07:52:08Z</time>
      </trkpt>
      <trkpt lat="46.09782" lon="-1.10564">
        <ele>7.8000001907349</ele>
        <time>2021-08-02T07:52:28Z</time>
      </trkpt>
      <trkpt lat="46.09759" lon="-1.10524">
        <ele>7.5999999046326</ele>
        <time>2021-08-02T07:52:36Z</time>
      </trkpt>
      <trkpt lat="46.09696" lon="-1.10399">
        <ele>7</ele>
        <time>2021-08-02T07:52:57Z</time>
      </trkpt>
      <trkpt lat="46.09665" lon="-1.1035">
        <ele>6.5999999046326</ele>
        <time>2021-08-02T07:53:06Z</time>
      </trkpt>
      <trkpt lat="46.09646" lon="-1.10318">
        <ele>6.5999999046326</ele>
        <time>2021-08-02T07:53:12Z</time>
      </trkpt>
      <trkpt lat="46.09556" lon="-1.10243">
        <ele>6</ele>
        <time>2021-08-02T07:53:31Z</time>
      </trkpt>
      <trkpt lat="46.09541" lon="-1.10213">
        <ele>5.8000001907349</ele>
        <time>2021-08-02T07:53:35Z</time>
      </trkpt>
      <trkpt lat="46.09521" lon="-1.10158">
        <ele>5.1999998092651</ele>
        <time>2021-08-02T07:53:41Z</time>
      </trkpt>
      <trkpt lat="46.09473" lon="-1.10045">
        <ele>2.4000000953674</ele>
        <time>2021-08-02T07:54:00Z</time>
      </trkpt>
      <trkpt lat="46.09475" lon="-1.10023">
        <ele>1.2000000476837</ele>
        <time>2021-08-02T07:54:03Z</time>
      </trkpt>
      <trkpt lat="46.09373" lon="-1.09981">
        <ele>0.40000000596046</ele>
        <time>2021-08-02T07:54:29Z</time>
      </trkpt>
      <trkpt lat="46.09329" lon="-1.09963">
        <ele>0.40000000596046</ele>
        <time>2021-08-02T07:54:38Z</time>
      </trkpt>
      <trkpt lat="46.09124" lon="-1.09909">
        <ele>1.6000000238419</ele>
        <time>2021-08-02T07:55:22Z</time>
      </trkpt>
      <trkpt lat="46.09075" lon="-1.09896">
        <ele>1.3999999761581</ele>
        <time>2021-08-02T07:55:32Z</time>
      </trkpt>
      <trkpt lat="46.09029" lon="-1.09883">
        <ele>0.80000001192093</ele>
        <time>2021-08-02T07:55:41Z</time>
      </trkpt>
      <trkpt lat="46.08956" lon="-1.09838">
        <ele>0.80000001192093</ele>
        <time>2021-08-02T07:55:57Z</time>
      </trkpt>
      <trkpt lat="46.08802" lon="-1.09651">
        <ele>1.2000000476837</ele>
        <time>2021-08-02T07:56:36Z</time>
      </trkpt>
      <trkpt lat="46.08793" lon="-1.09643">
        <ele>0.80000001192093</ele>
        <time>2021-08-02T07:56:41Z</time>
      </trkpt>
      <trkpt lat="46.08719" lon="-1.09588">
        <ele>4.6</ele>
        <time>2021-08-02T07:57:01Z</time>
      </trkpt>
      <trkpt lat="46.0868" lon="-1.09554">
        <ele>0.20000000298023</ele>
        <time>2021-08-02T07:57:10Z</time>
      </trkpt>
      <trkpt lat="46.08647" lon="-1.09528">
        <ele>0.40000000596046</ele>
        <time>2021-08-02T07:57:17Z</time>
      </trkpt>
      <trkpt lat="46.08604" lon="-1.0948">
        <ele>0.20000000298023</ele>
        <time>2021-08-02T07:57:27Z</time>
      </trkpt>
      <trkpt lat="46.08461" lon="-1.09342">
        <ele>0.60000002384186</ele>
        <time>2021-08-02T07:57:57Z</time>
      </trkpt>
      <trkpt lat="46.08356" lon="-1.09366">
        <ele>-0.40000000596046</ele>
        <time>2021-08-02T07:58:32Z</time>
      </trkpt>
      <trkpt lat="46.0834" lon="-1.09407">
        <ele>4.9</ele>
        <time>2021-08-02T07:58:40Z</time>
      </trkpt>
      <trkpt lat="46.08315" lon="-1.09597">
        <ele>0.40000000596046</ele>
        <time>2021-08-02T07:59:10Z</time>
      </trkpt>
      <trkpt lat="46.08306" lon="-1.09658">
        <ele>0.20000000298023</ele>
        <time>2021-08-02T07:59:19Z</time>
      </trkpt>
      <trkpt lat="46.08278" lon="-1.09661">
        <ele>0.20000000298023</ele>
        <time>2021-08-02T07:59:26Z</time>
      </trkpt>
      <trkpt lat="46.08063" lon="-1.09544">
        <ele>0.60000002384186</ele>
        <time>2021-08-02T08:00:16Z</time>
      </trkpt>
      <trkpt lat="46.0804" lon="-1.09533">
        <ele>0.60000002384186</ele>
        <time>2021-08-02T08:00:22Z</time>
      </trkpt>
      <trkpt lat="46.07707" lon="-1.09385">
        <ele>1.7999999523163</ele>
        <time>2021-08-02T08:01:41Z</time>
      </trkpt>
      <trkpt lat="46.07667" lon="-1.09375">
        <ele>2.2000000476837</ele>
        <time>2021-08-02T08:01:51Z</time>
      </trkpt>
      <trkpt lat="46.07631" lon="-1.09367">
        <ele>2.2000000476837</ele>
        <time>2021-08-02T08:02:00Z</time>
      </trkpt>
      <trkpt lat="46.07394" lon="-1.09335">
        <ele>1.2000000476837</ele>
        <time>2021-08-02T08:02:46Z</time>
      </trkpt>
      <trkpt lat="46.07271" lon="-1.09321">
        <ele>1.2000000476837</ele>
        <time>2021-08-02T08:03:12Z</time>
      </trkpt>
      <trkpt lat="46.07117" lon="-1.09309">
        <ele>0.80000001192093</ele>
        <time>2021-08-02T08:03:44Z</time>
      </trkpt>
      <trkpt lat="46.06885" lon="-1.09283">
        <ele>0.60000002384186</ele>
        <time>2021-08-02T08:04:42Z</time>
      </trkpt>
      <trkpt lat="46.0681" lon="-1.09288">
        <ele>0.20000000298023</ele>
        <time>2021-08-02T08:05:01Z</time>
      </trkpt>
      <trkpt lat="46.06783" lon="-1.09294">
        <ele>0.20000000298023</ele>
        <time>2021-08-02T08:05:07Z</time>
      </trkpt>
      <trkpt lat="46.06734" lon="-1.09295">
        <ele>0.40000000596046</ele>
        <time>2021-08-02T08:05:17Z</time>
      </trkpt>
      <trkpt lat="46.06492" lon="-1.09294">
        <ele>0.80000001192093</ele>
        <time>2021-08-02T08:06:22Z</time>
      </trkpt>
      <trkpt lat="46.06455" lon="-1.09297">
        <ele>0.80000001192093</ele>
        <time>2021-08-02T08:06:31Z</time>
      </trkpt>
      <trkpt lat="46.06225" lon="-1.09303">
        <ele>4.1</ele>
        <time>2021-08-02T08:07:23Z</time>
      </trkpt>
      <trkpt lat="46.06209" lon="-1.0928">
        <ele>-0.40000000596046</ele>
        <time>2021-08-02T08:07:35Z</time>
      </trkpt>
      <trkpt lat="46.0619" lon="-1.09234">
        <ele>-0.40000000596046</ele>
        <time>2021-08-02T08:07:50Z</time>
      </trkpt>
      <trkpt lat="46.06226" lon="-1.09248">
        <ele>-1</ele>
        <time>2021-08-02T08:08:42Z</time>
      </trkpt>
      <trkpt lat="46.06198" lon="-1.09196">
        <ele>-0.80000001192093</ele>
        <time>2021-08-02T08:13:29Z</time>
      </trkpt>
      <trkpt lat="46.06217" lon="-1.09215">
        <ele>-0.80000001192093</ele>
        <time>2021-08-02T08:13:39Z</time>
      </trkpt>
      <trkpt lat="46.06245" lon="-1.09135">
        <ele>-0.60000002384186</ele>
        <time>2021-08-02T08:14:12Z</time>
      </trkpt>
      <trkpt lat="46.06155" lon="-1.09123">
        <ele>0.60000002384186</ele>
        <time>2021-08-02T08:14:35Z</time>
      </trkpt>
      <trkpt lat="46.0612" lon="-1.09085">
        <ele>1</ele>
        <time>2021-08-02T08:14:50Z</time>
      </trkpt>
      <trkpt lat="46.06092" lon="-1.09046">
        <ele>2.7999999523163</ele>
        <time>2021-08-02T08:15:08Z</time>
      </trkpt>
      <trkpt lat="46.06051" lon="-1.08993">
        <ele>5.8000001907349</ele>
        <time>2021-08-02T08:15:34Z</time>
      </trkpt>
      <trkpt lat="46.06022" lon="-1.08973">
        <ele>7.4000000953674</ele>
        <time>2021-08-02T08:15:49Z</time>
      </trkpt>
      <trkpt lat="46.05941" lon="-1.08932">
        <ele>9.3999996185303</ele>
        <time>2021-08-02T08:16:19Z</time>
      </trkpt>
      <trkpt lat="46.05901" lon="-1.08837">
        <ele>9.6000003814697</ele>
        <time>2021-08-02T08:16:39Z</time>
      </trkpt>
      <trkpt lat="46.05867" lon="-1.08741">
        <ele>11.800000190735</ele>
        <time>2021-08-02T08:17:01Z</time>
      </trkpt>
      <trkpt lat="46.05853" lon="-1.08675">
        <ele>13</ele>
        <time>2021-08-02T08:17:17Z</time>
      </trkpt>
      <trkpt lat="46.05835" lon="-1.08668">
        <ele>13</ele>
        <time>2021-08-02T08:17:26Z</time>
      </trkpt>
      <trkpt lat="46.0565" lon="-1.08703">
        <ele>10</ele>
        <time>2021-08-02T08:17:58Z</time>
      </trkpt>
      <trkpt lat="46.0551" lon="-1.0873">
        <ele>6.5999999046326</ele>
        <time>2021-08-02T08:18:21Z</time>
      </trkpt>
      <trkpt lat="46.05498" lon="-1.08731">
        <ele>6.4000000953674</ele>
        <time>2021-08-02T08:18:23Z</time>
      </trkpt>
      <trkpt lat="46.05453" lon="-1.08738">
        <ele>5.1999998092651</ele>
        <time>2021-08-02T08:18:30Z</time>
      </trkpt>
      <trkpt lat="46.05356" lon="-1.08746">
        <ele>1</ele>
        <time>2021-08-02T08:18:48Z</time>
      </trkpt>
      <trkpt lat="46.05346" lon="-1.08644">
        <ele>-1.6000000238419</ele>
        <time>2021-08-02T08:19:08Z</time>
      </trkpt>
      <trkpt lat="46.05313" lon="-1.08332">
        <ele>-2.4000000953674</ele>
        <time>2021-08-02T08:20:14Z</time>
      </trkpt>
      <trkpt lat="46.05327" lon="-1.0815">
        <ele>-1.6000000238419</ele>
        <time>2021-08-02T08:20:50Z</time>
      </trkpt>
      <trkpt lat="46.05349" lon="-1.07995">
        <ele>-1.2000000476837</ele>
        <time>2021-08-02T08:21:13Z</time>
      </trkpt>
      <trkpt lat="46.05356" lon="-1.07914">
        <ele>-1</ele>
        <time>2021-08-02T08:21:25Z</time>
      </trkpt>
      <trkpt lat="46.05301" lon="-1.07563">
        <ele>-0.40000000596046</ele>
        <time>2021-08-02T08:22:16Z</time>
      </trkpt>
      <trkpt lat="46.05278" lon="-1.07494">
        <ele>-0.80000001192093</ele>
        <time>2021-08-02T08:22:28Z</time>
      </trkpt>
      <trkpt lat="46.05256" lon="-1.07442">
        <ele>-0.80000001192093</ele>
        <time>2021-08-02T08:22:37Z</time>
      </trkpt>
      <trkpt lat="46.05085" lon="-1.06999">
        <ele>-0.80000001192093</ele>
        <time>2021-08-02T08:23:53Z</time>
      </trkpt>
      <trkpt lat="46.05068" lon="-1.06932">
        <ele>-0.80000001192093</ele>
        <time>2021-08-02T08:24:03Z</time>
      </trkpt>
      <trkpt lat="46.05052" lon="-1.06838">
        <ele>-1.2000000476837</ele>
        <time>2021-08-02T08:24:18Z</time>
      </trkpt>
      <trkpt lat="46.05163" lon="-1.06802">
        <ele>-2.5999999046326</ele>
        <time>2021-08-02T08:24:46Z</time>
      </trkpt>
      <trkpt lat="46.05777" lon="-1.06532">
        <ele>-2.4000000953674</ele>
        <time>2021-08-02T08:26:49Z</time>
      </trkpt>
      <trkpt lat="46.05784" lon="-1.0643">
        <ele>-2.4000000953674</ele>
        <time>2021-08-02T08:27:07Z</time>
      </trkpt>
      <trkpt lat="46.05745" lon="-1.06172">
        <ele>-2</ele>
        <time>2021-08-02T08:27:44Z</time>
      </trkpt>
      <trkpt lat="46.05732" lon="-1.06071">
        <ele>-2.4000000953674</ele>
        <time>2021-08-02T08:27:59Z</time>
      </trkpt>
      <trkpt lat="46.05698" lon="-1.05825">
        <ele>-2.2000000476837</ele>
        <time>2021-08-02T08:28:31Z</time>
      </trkpt>
      <trkpt lat="46.0568" lon="-1.05781">
        <ele>-2</ele>
        <time>2021-08-02T08:28:37Z</time>
      </trkpt>
      <trkpt lat="46.05647" lon="-1.05726">
        <ele>-2.2000000476837</ele>
        <time>2021-08-02T08:28:46Z</time>
      </trkpt>
      <trkpt lat="46.05557" lon="-1.05623">
        <ele>-2.4000000953674</ele>
        <time>2021-08-02T08:29:06Z</time>
      </trkpt>
      <trkpt lat="46.05505" lon="-1.0559">
        <ele>-2.2000000476837</ele>
        <time>2021-08-02T08:29:18Z</time>
      </trkpt>
      <trkpt lat="46.05525" lon="-1.05597">
        <ele>-3</ele>
        <time>2021-08-02T08:32:49Z</time>
      </trkpt>
      <trkpt lat="46.05448" lon="-1.05542">
        <ele>-2.4000000953674</ele>
        <time>2021-08-02T08:33:11Z</time>
      </trkpt>
      <trkpt lat="46.04905" lon="-1.05095">
        <ele>-2.5999999046326</ele>
        <time>2021-08-02T08:35:07Z</time>
      </trkpt>
      <trkpt lat="46.04901" lon="-1.05089">
        <ele>-2.5999999046326</ele>
        <time>2021-08-02T08:35:08Z</time>
      </trkpt>
      <trkpt lat="46.0486" lon="-1.05031">
        <ele>-2.5999999046326</ele>
        <time>2021-08-02T08:35:18Z</time>
      </trkpt>
      <trkpt lat="46.04743" lon="-1.04949">
        <ele>-2.4000000953674</ele>
        <time>2021-08-02T08:35:42Z</time>
      </trkpt>
      <trkpt lat="46.04712" lon="-1.04936">
        <ele>-2.4000000953674</ele>
        <time>2021-08-02T08:35:49Z</time>
      </trkpt>
      <trkpt lat="46.04366" lon="-1.04632">
        <ele>-2</ele>
        <time>2021-08-02T08:37:07Z</time>
      </trkpt>
      <trkpt lat="46.04302" lon="-1.04634">
        <ele>-1.7999999523163</ele>
        <time>2021-08-02T08:37:20Z</time>
      </trkpt>
      <trkpt lat="46.04246" lon="-1.04668">
        <ele>-1.6000000238419</ele>
        <time>2021-08-02T08:37:33Z</time>
      </trkpt>
      <trkpt lat="46.0422" lon="-1.04616">
        <ele>-1.6000000238419</ele>
        <time>2021-08-02T08:37:43Z</time>
      </trkpt>
      <trkpt lat="46.04213" lon="-1.04579">
        <ele>-1.6000000238419</ele>
        <time>2021-08-02T08:37:48Z</time>
      </trkpt>
      <trkpt lat="46.04224" lon="-1.04488">
        <ele>-2.2000000476837</ele>
        <time>2021-08-02T08:38:01Z</time>
      </trkpt>
      <trkpt lat="46.04232" lon="-1.04444">
        <ele>-2.5999999046326</ele>
        <time>2021-08-02T08:38:07Z</time>
      </trkpt>
      <trkpt lat="46.04248" lon="-1.04312">
        <ele>-2.5999999046326</ele>
        <time>2021-08-02T08:38:25Z</time>
      </trkpt>
      <trkpt lat="46.04277" lon="-1.04038">
        <ele>-2.4000000953674</ele>
        <time>2021-08-02T08:39:01Z</time>
      </trkpt>
      <trkpt lat="46.04248" lon="-1.03958">
        <ele>-2</ele>
        <time>2021-08-02T08:39:17Z</time>
      </trkpt>
      <trkpt lat="46.04208" lon="-1.03991">
        <ele>-2.2000000476837</ele>
        <time>2021-08-02T08:39:25Z</time>
      </trkpt>
      <trkpt lat="46.04174" lon="-1.04028">
        <ele>-2</ele>
        <time>2021-08-02T08:39:33Z</time>
      </trkpt>
      <trkpt lat="46.03859" lon="-1.04359">
        <ele>-2</ele>
        <time>2021-08-02T08:40:42Z</time>
      </trkpt>
      <trkpt lat="46.03661" lon="-1.04561">
        <ele>-2</ele>
        <time>2021-08-02T08:41:23Z</time>
      </trkpt>
      <trkpt lat="46.03621" lon="-1.04581">
        <ele>-2.4000000953674</ele>
        <time>2021-08-02T08:41:30Z</time>
      </trkpt>
      <trkpt lat="46.02956" lon="-1.04817">
        <ele>-2.4000000953674</ele>
        <time>2021-08-02T08:43:30Z</time>
      </trkpt>
      <trkpt lat="46.02375" lon="-1.04664">
        <ele>-1.7999999523163</ele>
        <time>2021-08-02T08:45:16Z</time>
      </trkpt>
      <trkpt lat="46.02171" lon="-1.04603">
        <ele>-1.7999999523163</ele>
        <time>2021-08-02T08:45:52Z</time>
      </trkpt>
      <trkpt lat="46.02074" lon="-1.0459">
        <ele>-1</ele>
        <time>2021-08-02T08:47:26Z</time>
      </trkpt>
      <trkpt lat="46.02063" lon="-1.04629">
        <ele>-0.80000001192093</ele>
        <time>2021-08-02T08:47:39Z</time>
      </trkpt>
      <trkpt lat="46.02044" lon="-1.04699">
        <ele>1.3999999761581</ele>
        <time>2021-08-02T08:48:02Z</time>
      </trkpt>
      <trkpt lat="46.02048" lon="-1.04747">
        <ele>1.3999999761581</ele>
        <time>2021-08-02T08:48:10Z</time>
      </trkpt>
      <trkpt lat="46.01898" lon="-1.04754">
        <ele>2.5999999046326</ele>
        <time>2021-08-02T08:48:50Z</time>
      </trkpt>
      <trkpt lat="46.01845" lon="-1.04764">
        <ele>3.4000000953674</ele>
        <time>2021-08-02T08:49:05Z</time>
      </trkpt>
      <trkpt lat="46.01534" lon="-1.04879">
        <ele>5</ele>
        <time>2021-08-02T08:50:24Z</time>
      </trkpt>
      <trkpt lat="46.01521" lon="-1.04876">
        <ele>5</ele>
        <time>2021-08-02T08:50:27Z</time>
      </trkpt>
      <trkpt lat="46.01319" lon="-1.04906">
        <ele>4</ele>
        <time>2021-08-02T08:51:05Z</time>
      </trkpt>
      <trkpt lat="46.01171" lon="-1.04834">
        <ele>0.80000001192093</ele>
        <time>2021-08-02T08:51:29Z</time>
      </trkpt>
      <trkpt lat="46.01146" lon="-1.04821">
        <ele>0.20000000298023</ele>
        <time>2021-08-02T08:51:34Z</time>
      </trkpt>
      <trkpt lat="46.01116" lon="-1.04696">
        <ele>-1</ele>
        <time>2021-08-02T08:51:51Z</time>
      </trkpt>
      <trkpt lat="46.0111" lon="-1.04642">
        <ele>-1.3999999761581</ele>
        <time>2021-08-02T08:51:58Z</time>
      </trkpt>
      <trkpt lat="46.00963" lon="-1.04716">
        <ele>-0.60000002384186</ele>
        <time>2021-08-02T08:52:32Z</time>
      </trkpt>
      <trkpt lat="46.00889" lon="-1.04683">
        <ele>-0.60000002384186</ele>
        <time>2021-08-02T08:52:47Z</time>
      </trkpt>
      <trkpt lat="46.00245" lon="-1.04342">
        <ele>0.40000000596046</ele>
        <time>2021-08-02T08:55:05Z</time>
      </trkpt>
      <trkpt lat="45.99903" lon="-1.04155">
        <ele>3.5999999046326</ele>
        <time>2021-08-02T08:56:35Z</time>
      </trkpt>
      <trkpt lat="45.99851" lon="-1.04129">
        <ele>3.5999999046326</ele>
        <time>2021-08-02T08:56:45Z</time>
      </trkpt>
      <trkpt lat="45.99698" lon="-1.04052">
        <ele>2.5999999046326</ele>
        <time>2021-08-02T08:57:17Z</time>
      </trkpt>
      <trkpt lat="45.99597" lon="-1.03927">
        <ele>3.5999999046326</ele>
        <time>2021-08-02T08:57:50Z</time>
      </trkpt>
      <trkpt lat="45.99531" lon="-1.03746">
        <ele>5.4000000953674</ele>
        <time>2021-08-02T08:58:25Z</time>
      </trkpt>
      <trkpt lat="45.99509" lon="-1.03642">
        <ele>5</ele>
        <time>2021-08-02T08:58:41Z</time>
      </trkpt>
      <trkpt lat="45.99496" lon="-1.03572">
        <ele>4.8000001907349</ele>
        <time>2021-08-02T08:58:50Z</time>
      </trkpt>
      <trkpt lat="45.9944" lon="-1.03455">
        <ele>1.6000000238419</ele>
        <time>2021-08-02T08:59:11Z</time>
      </trkpt>
      <trkpt lat="45.99459" lon="-1.03482">
        <ele>-0.20000000298023</ele>
        <time>2021-08-02T08:59:22Z</time>
      </trkpt>
      <trkpt lat="45.99463" lon="-1.0349">
        <ele>-0.40000000596046</ele>
        <time>2021-08-02T08:59:26Z</time>
      </trkpt>
      <trkpt lat="45.99358" lon="-1.03317">
        <ele>5</ele>
        <time>2021-08-02T09:00:11Z</time>
      </trkpt>
      <trkpt lat="45.99352" lon="-1.03295">
        <ele>5</ele>
        <time>2021-08-02T09:00:15Z</time>
      </trkpt>
      <trkpt lat="45.99335" lon="-1.03194">
        <ele>1</ele>
        <time>2021-08-02T09:00:33Z</time>
      </trkpt>
      <trkpt lat="45.99306" lon="-1.02857">
        <ele>0.60000002384186</ele>
        <time>2021-08-02T09:01:19Z</time>
      </trkpt>
      <trkpt lat="45.99244" lon="-1.02738">
        <ele>2</ele>
        <time>2021-08-02T09:01:41Z</time>
      </trkpt>
      <trkpt lat="45.99203" lon="-1.02778">
        <ele>1.3999999761581</ele>
        <time>2021-08-02T09:01:56Z</time>
      </trkpt>
      <trkpt lat="45.99144" lon="-1.02833">
        <ele>2.4000000953674</ele>
        <time>2021-08-02T09:02:14Z</time>
      </trkpt>
      <trkpt lat="45.99082" lon="-1.02862">
        <ele>2</ele>
        <time>2021-08-02T09:02:27Z</time>
      </trkpt>
      <trkpt lat="45.99076" lon="-1.02865">
        <ele>1.7999999523163</ele>
        <time>2021-08-02T09:02:28Z</time>
      </trkpt>
      <trkpt lat="45.99038" lon="-1.0288">
        <ele>1</ele>
        <time>2021-08-02T09:02:35Z</time>
      </trkpt>
      <trkpt lat="45.99014" lon="-1.02888">
        <ele>1</ele>
        <time>2021-08-02T09:02:39Z</time>
      </trkpt>
      <trkpt lat="45.98893" lon="-1.02956">
        <ele>0.40000000596046</ele>
        <time>2021-08-02T09:03:03Z</time>
      </trkpt>
      <trkpt lat="45.98869" lon="-1.02984">
        <ele>0.40000000596046</ele>
        <time>2021-08-02T09:03:09Z</time>
      </trkpt>
      <trkpt lat="45.98722" lon="-1.03145">
        <ele>2</ele>
        <time>2021-08-02T09:03:49Z</time>
      </trkpt>
      <trkpt lat="45.98718" lon="-1.03152">
        <ele>2.2000000476837</ele>
        <time>2021-08-02T09:03:51Z</time>
      </trkpt>
      <trkpt lat="45.98672" lon="-1.03078">
        <ele>4</ele>
        <time>2021-08-02T09:04:18Z</time>
      </trkpt>
      <trkpt lat="45.98632" lon="-1.02931">
        <ele>1.3999999761581</ele>
        <time>2021-08-02T09:04:40Z</time>
      </trkpt>
      <trkpt lat="45.98625" lon="-1.02907">
        <ele>1</ele>
        <time>2021-08-02T09:04:43Z</time>
      </trkpt>
      <trkpt lat="45.98596" lon="-1.02816">
        <ele>-0.40000000596046</ele>
        <time>2021-08-02T09:04:55Z</time>
      </trkpt>
      <trkpt lat="45.98581" lon="-1.0276">
        <ele>-0.80000001192093</ele>
        <time>2021-08-02T09:05:03Z</time>
      </trkpt>
      <trkpt lat="45.98559" lon="-1.02701">
        <ele>-1</ele>
        <time>2021-08-02T09:05:12Z</time>
      </trkpt>
      <trkpt lat="45.98254" lon="-1.01879">
        <ele>-2.2000000476837</ele>
        <time>2021-08-02T09:07:29Z</time>
      </trkpt>
      <trkpt lat="45.98051" lon="-1.01104">
        <ele>-1.7999999523163</ele>
        <time>2021-08-02T09:09:30Z</time>
      </trkpt>
      <trkpt lat="45.98046" lon="-1.00924">
        <ele>-1.6000000238419</ele>
        <time>2021-08-02T09:09:56Z</time>
      </trkpt>
      <trkpt lat="45.98034" lon="-1.00668">
        <ele>-1.3999999761581</ele>
        <time>2021-08-02T09:10:31Z</time>
      </trkpt>
      <trkpt lat="45.98031" lon="-1.00638">
        <ele>-1.3999999761581</ele>
        <time>2021-08-02T09:10:35Z</time>
      </trkpt>
      <trkpt lat="45.98023" lon="-1.00263">
        <ele>-1.2000000476837</ele>
        <time>2021-08-02T09:12:07Z</time>
      </trkpt>
      <trkpt lat="45.98003" lon="-1.00123">
        <ele>-1.2000000476837</ele>
        <time>2021-08-02T09:12:33Z</time>
      </trkpt>
      <trkpt lat="45.97933" lon="-0.9989">
        <ele>-1</ele>
        <time>2021-08-02T09:13:10Z</time>
      </trkpt>
      <trkpt lat="45.97834" lon="-0.99676">
        <ele>-0.80000001192093</ele>
        <time>2021-08-02T09:13:45Z</time>
      </trkpt>
      <trkpt lat="45.9783" lon="-0.99671">
        <ele>-0.60000002384186</ele>
        <time>2021-08-02T09:13:46Z</time>
      </trkpt>
      <trkpt lat="45.97439" lon="-0.99048">
        <ele>-2</ele>
        <time>2021-08-02T09:19:24Z</time>
      </trkpt>
      <trkpt lat="45.97324" lon="-0.98875">
        <ele>-0.40000000596046</ele>
        <time>2021-08-02T09:20:08Z</time>
      </trkpt>
      <trkpt lat="45.97202" lon="-0.98711">
        <ele>1.2000000476837</ele>
        <time>2021-08-02T09:20:50Z</time>
      </trkpt>
      <trkpt lat="45.97157" lon="-0.9866">
        <ele>1.7999999523163</ele>
        <time>2021-08-02T09:21:06Z</time>
      </trkpt>
      <trkpt lat="45.97082" lon="-0.98576">
        <ele>3.2000000476837</ele>
        <time>2021-08-02T09:21:28Z</time>
      </trkpt>
      <trkpt lat="45.97039" lon="-0.98529">
        <ele>4</ele>
        <time>2021-08-02T09:21:41Z</time>
      </trkpt>
      <trkpt lat="45.97032" lon="-0.98522">
        <ele>4.4000000953674</ele>
        <time>2021-08-02T09:21:43Z</time>
      </trkpt>
      <trkpt lat="45.96993" lon="-0.98488">
        <ele>5</ele>
        <time>2021-08-02T09:21:53Z</time>
      </trkpt>
      <trkpt lat="45.9686" lon="-0.98321">
        <ele>8</ele>
        <time>2021-08-02T09:22:39Z</time>
      </trkpt>
      <trkpt lat="45.96849" lon="-0.98305">
        <ele>8.8000001907349</ele>
        <time>2021-08-02T09:22:52Z</time>
      </trkpt>
      <trkpt lat="45.96842" lon="-0.98312">
        <ele>8.1999998092651</ele>
        <time>2021-08-02T09:25:15Z</time>
      </trkpt>
      <trkpt lat="45.96784" lon="-0.98333">
        <ele>9.1999998092651</ele>
        <time>2021-08-02T09:25:34Z</time>
      </trkpt>
      <trkpt lat="45.96688" lon="-0.98374">
        <ele>11.60000038147</ele>
        <time>2021-08-02T09:26:01Z</time>
      </trkpt>
      <trkpt lat="45.96494" lon="-0.98478">
        <ele>12.800000190735</ele>
        <time>2021-08-02T09:26:56Z</time>
      </trkpt>
      <trkpt lat="45.96469" lon="-0.98527">
        <ele>12.60000038147</ele>
        <time>2021-08-02T09:27:05Z</time>
      </trkpt>
      <trkpt lat="45.96376" lon="-0.98587">
        <ele>11.800000190735</ele>
        <time>2021-08-02T09:27:24Z</time>
      </trkpt>
      <trkpt lat="45.9622" lon="-0.98614">
        <ele>8.3999996185303</ele>
        <time>2021-08-02T09:27:47Z</time>
      </trkpt>
      <trkpt lat="45.96151" lon="-0.9863">
        <ele>6.4000000953674</ele>
        <time>2021-08-02T09:27:56Z</time>
      </trkpt>
      <trkpt lat="45.96061" lon="-0.9863">
        <ele>4.1999998092651</ele>
        <time>2021-08-02T09:28:10Z</time>
      </trkpt>
      <trkpt lat="45.96056" lon="-0.98628">
        <ele>4</ele>
        <time>2021-08-02T09:28:11Z</time>
      </trkpt>
      <trkpt lat="45.96036" lon="-0.98616">
        <ele>3.7999999523163</ele>
        <time>2021-08-02T09:28:15Z</time>
      </trkpt>
      <trkpt lat="45.96014" lon="-0.98595">
        <ele>3.2000000476837</ele>
        <time>2021-08-02T09:28:20Z</time>
      </trkpt>
      <trkpt lat="45.95939" lon="-0.98426">
        <ele>1.6000000238419</ele>
        <time>2021-08-02T09:28:50Z</time>
      </trkpt>
      <trkpt lat="45.95916" lon="-0.98337">
        <ele>1</ele>
        <time>2021-08-02T09:29:05Z</time>
      </trkpt>
      <trkpt lat="45.95853" lon="-0.97981">
        <ele>-0.40000000596046</ele>
        <time>2021-08-02T09:29:58Z</time>
      </trkpt>
      <trkpt lat="45.95774" lon="-0.97994">
        <ele>-0.20000000298023</ele>
        <time>2021-08-02T09:30:25Z</time>
      </trkpt>
      <trkpt lat="45.95741" lon="-0.98002">
        <ele>-0.20000000298023</ele>
        <time>2021-08-02T09:30:33Z</time>
      </trkpt>
      <trkpt lat="45.95627" lon="-0.98131">
        <ele>0.80000001192093</ele>
        <time>2021-08-02T09:31:01Z</time>
      </trkpt>
      <trkpt lat="45.95416" lon="-0.98362">
        <ele>0.20000000298023</ele>
        <time>2021-08-02T09:31:56Z</time>
      </trkpt>
      <trkpt lat="45.95346" lon="-0.9855">
        <ele>0.20000000298023</ele>
        <time>2021-08-02T09:32:27Z</time>
      </trkpt>
      <trkpt lat="45.95339" lon="-0.98566">
        <ele>0.20000000298023</ele>
        <time>2021-08-02T09:32:30Z</time>
      </trkpt>
      <trkpt lat="45.95192" lon="-0.98587">
        <ele>-0.20000000298023</ele>
        <time>2021-08-02T09:33:03Z</time>
      </trkpt>
      <trkpt lat="45.95135" lon="-0.98587">
        <ele>-0.40000000596046</ele>
        <time>2021-08-02T09:33:15Z</time>
      </trkpt>
      <trkpt lat="45.95095" lon="-0.98606">
        <ele>-0.40000000596046</ele>
        <time>2021-08-02T09:33:24Z</time>
      </trkpt>
      <trkpt lat="45.9496" lon="-0.98681">
        <ele>0.40000000596046</ele>
        <time>2021-08-02T09:34:02Z</time>
      </trkpt>
      <trkpt lat="45.94942" lon="-0.98696">
        <ele>0.40000000596046</ele>
        <time>2021-08-02T09:34:07Z</time>
      </trkpt>
      <trkpt lat="45.9475" lon="-0.98815">
        <ele>-0.40000000596046</ele>
        <time>2021-08-02T09:34:55Z</time>
      </trkpt>
      <trkpt lat="45.94749" lon="-0.98883">
        <ele>-1</ele>
        <time>2021-08-02T09:35:37Z</time>
      </trkpt>
      <trkpt lat="45.94757" lon="-0.98901">
        <ele>-1</ele>
        <time>2021-08-02T09:38:07Z</time>
      </trkpt>
      <trkpt lat="45.94774" lon="-0.9892">
        <ele>-1</ele>
        <time>2021-08-02T09:38:15Z</time>
      </trkpt>
      <trkpt lat="45.94793" lon="-0.9894">
        <ele>-0.80000001192093</ele>
        <time>2021-08-02T09:38:22Z</time>
      </trkpt>
      <trkpt lat="45.94862" lon="-0.99098">
        <ele>1.6000000238419</ele>
        <time>2021-08-02T09:38:50Z</time>
      </trkpt>
      <trkpt lat="45.94878" lon="-0.99142">
        <ele>1.6000000238419</ele>
        <time>2021-08-02T09:38:58Z</time>
      </trkpt>
      <trkpt lat="45.94904" lon="-0.99228">
        <ele>1.2000000476837</ele>
        <time>2021-08-02T09:39:13Z</time>
      </trkpt>
      <trkpt lat="45.94924" lon="-0.9928">
        <ele>0.80000001192093</ele>
        <time>2021-08-02T09:39:21Z</time>
      </trkpt>
      <trkpt lat="45.94968" lon="-0.99404">
        <ele>-0.40000000596046</ele>
        <time>2021-08-02T09:39:38Z</time>
      </trkpt>
      <trkpt lat="45.94993" lon="-0.99463">
        <ele>-0.20000000298023</ele>
        <time>2021-08-02T09:39:47Z</time>
      </trkpt>
      <trkpt lat="45.95012" lon="-0.99576">
        <ele>-0.20000000298023</ele>
        <time>2021-08-02T09:40:07Z</time>
      </trkpt>
      <trkpt lat="45.95013" lon="-0.99579">
        <ele>-0.20000000298023</ele>
        <time>2021-08-02T09:40:08Z</time>
      </trkpt>
      <trkpt lat="45.94992" lon="-0.99593">
        <ele>-0.20000000298023</ele>
        <time>2021-08-02T09:40:19Z</time>
      </trkpt>
      <trkpt lat="45.94908" lon="-0.99617">
        <ele>-0.20000000298023</ele>
        <time>2021-08-02T09:40:42Z</time>
      </trkpt>
      <trkpt lat="45.94718" lon="-0.99723">
        <ele>3.9</ele>
        <time>2021-08-02T09:41:27Z</time>
      </trkpt>
      <trkpt lat="45.94645" lon="-0.99781">
        <ele>-0.20000000298023</ele>
        <time>2021-08-02T09:41:44Z</time>
      </trkpt>
      <trkpt lat="45.94549" lon="-0.99768">
        <ele>0.20000000298023</ele>
        <time>2021-08-02T09:42:10Z</time>
      </trkpt>
      <trkpt lat="45.94205" lon="-1.00167">
        <ele>-0.20000000298023</ele>
        <time>2021-08-02T09:43:44Z</time>
      </trkpt>
      <trkpt lat="45.9396" lon="-1.0046">
        <ele>3</ele>
        <time>2021-08-02T09:44:54Z</time>
      </trkpt>
      <trkpt lat="45.93887" lon="-1.00521">
        <ele>1</ele>
        <time>2021-08-02T09:45:13Z</time>
      </trkpt>
      <trkpt lat="45.93714" lon="-1.00626">
        <ele>-0.20000000298023</ele>
        <time>2021-08-02T09:45:54Z</time>
      </trkpt>
      <trkpt lat="45.93665" lon="-1.00642">
        <ele>3.8</ele>
        <time>2021-08-02T09:46:05Z</time>
      </trkpt>
      <trkpt lat="45.9361" lon="-1.00657">
        <ele>-0.20000000298023</ele>
        <time>2021-08-02T09:46:17Z</time>
      </trkpt>
      <trkpt lat="45.93562" lon="-1.00656">
        <ele>3</ele>
        <time>2021-08-02T09:46:27Z</time>
      </trkpt>
      <trkpt lat="45.93389" lon="-1.00617">
        <ele>-0.20000000298023</ele>
        <time>2021-08-02T09:47:04Z</time>
      </trkpt>
      <trkpt lat="45.93309" lon="-1.00554">
        <ele>-0.20000000298023</ele>
        <time>2021-08-02T09:47:22Z</time>
      </trkpt>
      <trkpt lat="45.93186" lon="-1.00451">
        <ele>3</ele>
        <time>2021-08-02T09:47:50Z</time>
      </trkpt>
      <trkpt lat="45.93056" lon="-1.00556">
        <ele>-2.5999999046326</ele>
        <time>2021-08-02T09:52:49Z</time>
      </trkpt>
      <trkpt lat="45.93052" lon="-1.00558">
        <ele>-2.7999999523163</ele>
        <time>2021-08-02T09:52:51Z</time>
      </trkpt>
      <trkpt lat="45.93036" lon="-1.00572">
        <ele>-2.7999999523163</ele>
        <time>2021-08-02T09:53:00Z</time>
      </trkpt>
      <trkpt lat="45.92921" lon="-1.00698">
        <ele>-1.2000000476837</ele>
        <time>2021-08-02T09:57:23Z</time>
      </trkpt>
      <trkpt lat="45.92918" lon="-1.00704">
        <ele>-1.2000000476837</ele>
        <time>2021-08-02T09:57:26Z</time>
      </trkpt>
      <trkpt lat="45.92903" lon="-1.00715">
        <ele>-0.80000001192093</ele>
        <time>2021-08-02T09:57:34Z</time>
      </trkpt>
      <trkpt lat="45.92796" lon="-1.00779">
        <ele>1.2000000476837</ele>
        <time>2021-08-02T09:58:39Z</time>
      </trkpt>
      <trkpt lat="45.92776" lon="-1.00776">
        <ele>2.7999999523163</ele>
        <time>2021-08-02T09:58:49Z</time>
      </trkpt>
      <trkpt lat="45.92734" lon="-1.00779">
        <ele>6</ele>
        <time>2021-08-02T09:59:10Z</time>
      </trkpt>
      <trkpt lat="45.92705" lon="-1.00805">
        <ele>7.8000001907349</ele>
        <time>2021-08-02T09:59:27Z</time>
      </trkpt>
      <trkpt lat="45.92695" lon="-1.00848">
        <ele>9.1999998092651</ele>
        <time>2021-08-02T09:59:40Z</time>
      </trkpt>
      <trkpt lat="45.92678" lon="-1.00912">
        <ele>10.800000190735</ele>
        <time>2021-08-02T10:00:00Z</time>
      </trkpt>
      <trkpt lat="45.92648" lon="-1.01039">
        <ele>9.8000001907349</ele>
        <time>2021-08-02T10:01:38Z</time>
      </trkpt>
      <trkpt lat="45.92631" lon="-1.00998">
        <ele>11</ele>
        <time>2021-08-02T10:01:51Z</time>
      </trkpt>
      <trkpt lat="45.92602" lon="-1.00898">
        <ele>11.800000190735</ele>
        <time>2021-08-02T10:02:14Z</time>
      </trkpt>
      <trkpt lat="45.92557" lon="-1.00802">
        <ele>10.800000190735</ele>
        <time>2021-08-02T10:02:35Z</time>
      </trkpt>
      <trkpt lat="45.9246" lon="-1.00759">
        <ele>9.1999998092651</ele>
        <time>2021-08-02T10:02:56Z</time>
      </trkpt>
      <trkpt lat="45.92442" lon="-1.00711">
        <ele>8.3999996185303</ele>
        <time>2021-08-02T10:03:07Z</time>
      </trkpt>
      <trkpt lat="45.92404" lon="-1.00576">
        <ele>8.8000001907349</ele>
        <time>2021-08-02T10:03:30Z</time>
      </trkpt>
      <trkpt lat="45.92359" lon="-1.00496">
        <ele>9.8000001907349</ele>
        <time>2021-08-02T10:03:47Z</time>
      </trkpt>
      <trkpt lat="45.92225" lon="-1.00325">
        <ele>10.60000038147</ele>
        <time>2021-08-02T10:04:41Z</time>
      </trkpt>
      <trkpt lat="45.92226" lon="-1.00276">
        <ele>10</ele>
        <time>2021-08-02T10:08:13Z</time>
      </trkpt>
      <trkpt lat="45.92217" lon="-1.00231">
        <ele>10</ele>
        <time>2021-08-02T10:08:29Z</time>
      </trkpt>
      <trkpt lat="45.92226" lon="-1.00216">
        <ele>9.6000003814697</ele>
        <time>2021-08-02T10:10:54Z</time>
      </trkpt>
      <trkpt lat="45.92213" lon="-1.00246">
        <ele>9.8000001907349</ele>
        <time>2021-08-02T10:11:06Z</time>
      </trkpt>
      <trkpt lat="45.92203" lon="-1.00258">
        <ele>10.199999809265</ele>
        <time>2021-08-02T10:11:11Z</time>
      </trkpt>
      <trkpt lat="45.9222" lon="-1.0032">
        <ele>4</ele>
        <time>2021-08-02T11:04:57Z</time>
      </trkpt>
      <trkpt lat="45.9222" lon="-1.00274">
        <ele>5.1999998092651</ele>
        <time>2021-08-02T11:17:47Z</time>
      </trkpt>
      <trkpt lat="45.92163" lon="-1.00298">
        <ele>5.4000000953674</ele>
        <time>2021-08-02T11:18:13Z</time>
      </trkpt>
      <trkpt lat="45.92185" lon="-1.00321">
        <ele>6</ele>
        <time>2021-08-02T11:18:19Z</time>
      </trkpt>
      <trkpt lat="45.92226" lon="-1.00345">
        <ele>6.4000000953674</ele>
        <time>2021-08-02T11:18:28Z</time>
      </trkpt>
      <trkpt lat="45.92327" lon="-1.00448">
        <ele>7</ele>
        <time>2021-08-02T11:18:53Z</time>
      </trkpt>
      <trkpt lat="45.92386" lon="-1.00535">
        <ele>6.5999999046326</ele>
        <time>2021-08-02T11:19:08Z</time>
      </trkpt>
      <trkpt lat="45.92431" lon="-1.00653">
        <ele>6</ele>
        <time>2021-08-02T11:19:24Z</time>
      </trkpt>
      <trkpt lat="45.92457" lon="-1.00736">
        <ele>5</ele>
        <time>2021-08-02T11:19:34Z</time>
      </trkpt>
      <trkpt lat="45.92505" lon="-1.00789">
        <ele>3.4000000953674</ele>
        <time>2021-08-02T11:19:49Z</time>
      </trkpt>
      <trkpt lat="45.92595" lon="-1.00863">
        <ele>5.8000001907349</ele>
        <time>2021-08-02T11:20:19Z</time>
      </trkpt>
      <trkpt lat="45.92606" lon="-1.009">
        <ele>6.1999998092651</ele>
        <time>2021-08-02T11:20:26Z</time>
      </trkpt>
      <trkpt lat="45.92632" lon="-1.00999">
        <ele>6.5999999046326</ele>
        <time>2021-08-02T11:20:45Z</time>
      </trkpt>
      <trkpt lat="45.92651" lon="-1.01042">
        <ele>6.4000000953674</ele>
        <time>2021-08-02T11:20:52Z</time>
      </trkpt>
      <trkpt lat="45.92607" lon="-1.01183">
        <ele>5</ele>
        <time>2021-08-02T11:21:11Z</time>
      </trkpt>
      <trkpt lat="45.92572" lon="-1.01249">
        <ele>4.8000001907349</ele>
        <time>2021-08-02T11:21:23Z</time>
      </trkpt>
      <trkpt lat="45.9255" lon="-1.01267">
        <ele>4.8000001907349</ele>
        <time>2021-08-02T11:21:30Z</time>
      </trkpt>
      <trkpt lat="45.92527" lon="-1.01292">
        <ele>4.4000000953674</ele>
        <time>2021-08-02T11:21:37Z</time>
      </trkpt>
      <trkpt lat="45.92481" lon="-1.01379">
        <ele>5.5999999046326</ele>
        <time>2021-08-02T11:21:54Z</time>
      </trkpt>
      <trkpt lat="45.92458" lon="-1.01422">
        <ele>5.5999999046326</ele>
        <time>2021-08-02T11:22:02Z</time>
      </trkpt>
      <trkpt lat="45.92382" lon="-1.01505">
        <ele>5.1999998092651</ele>
        <time>2021-08-02T11:22:23Z</time>
      </trkpt>
      <trkpt lat="45.92325" lon="-1.01578">
        <ele>4.5999999046326</ele>
        <time>2021-08-02T11:22:37Z</time>
      </trkpt>
      <trkpt lat="45.92315" lon="-1.01587">
        <ele>4.5999999046326</ele>
        <time>2021-08-02T11:22:39Z</time>
      </trkpt>
      <trkpt lat="45.92243" lon="-1.01662">
        <ele>3.5999999046326</ele>
        <time>2021-08-02T11:22:53Z</time>
      </trkpt>
      <trkpt lat="45.92232" lon="-1.01677">
        <ele>3.4000000953674</ele>
        <time>2021-08-02T11:22:56Z</time>
      </trkpt>
      <trkpt lat="45.92004" lon="-1.01886">
        <ele>5.4000000953674</ele>
        <time>2021-08-02T11:23:53Z</time>
      </trkpt>
      <trkpt lat="45.91919" lon="-1.01961">
        <ele>5.5999999046326</ele>
        <time>2021-08-02T11:24:12Z</time>
      </trkpt>
      <trkpt lat="45.91691" lon="-1.0218">
        <ele>7.5999999046326</ele>
        <time>2021-08-02T11:25:10Z</time>
      </trkpt>
      <trkpt lat="45.91368" lon="-1.02546">
        <ele>6.5999999046326</ele>
        <time>2021-08-02T11:26:24Z</time>
      </trkpt>
      <trkpt lat="45.91359" lon="-1.02556">
        <ele>6.8000001907349</ele>
        <time>2021-08-02T11:26:27Z</time>
      </trkpt>
      <trkpt lat="45.91341" lon="-1.02577">
        <ele>6</ele>
        <time>2021-08-02T11:29:21Z</time>
      </trkpt>
      <trkpt lat="45.91224" lon="-1.02718">
        <ele>4.1999998092651</ele>
        <time>2021-08-02T11:29:46Z</time>
      </trkpt>
      <trkpt lat="45.9115" lon="-1.02807">
        <ele>1</ele>
        <time>2021-08-02T11:29:57Z</time>
      </trkpt>
      <trkpt lat="45.91095" lon="-1.0287">
        <ele>-1.2000000476837</ele>
        <time>2021-08-02T11:30:05Z</time>
      </trkpt>
      <trkpt lat="45.90924" lon="-1.03055">
        <ele>-2.4000000953674</ele>
        <time>2021-08-02T11:30:50Z</time>
      </trkpt>
      <trkpt lat="45.90664" lon="-1.03348">
        <ele>-4.5999999046326</ele>
        <time>2021-08-02T11:31:44Z</time>
      </trkpt>
      <trkpt lat="45.90561" lon="-1.03485">
        <ele>-4.8000001907349</ele>
        <time>2021-08-02T11:32:08Z</time>
      </trkpt>
      <trkpt lat="45.90529" lon="-1.03535">
        <ele>-4</ele>
        <time>2021-08-02T11:32:19Z</time>
      </trkpt>
      <trkpt lat="45.90486" lon="-1.03602">
        <ele>-1.7999999523163</ele>
        <time>2021-08-02T11:32:37Z</time>
      </trkpt>
      <trkpt lat="45.90449" lon="-1.03638">
        <ele>-1.6000000238419</ele>
        <time>2021-08-02T11:32:47Z</time>
      </trkpt>
      <trkpt lat="45.90414" lon="-1.03682">
        <ele>-2.4000000953674</ele>
        <time>2021-08-02T11:32:56Z</time>
      </trkpt>
      <trkpt lat="45.90376" lon="-1.03732">
        <ele>-3.2000000476837</ele>
        <time>2021-08-02T11:33:05Z</time>
      </trkpt>
      <trkpt lat="45.90367" lon="-1.03742">
        <ele>-3.4000000953674</ele>
        <time>2021-08-02T11:33:07Z</time>
      </trkpt>
      <trkpt lat="45.9028" lon="-1.03849">
        <ele>-5</ele>
        <time>2021-08-02T11:33:26Z</time>
      </trkpt>
      <trkpt lat="45.90261" lon="-1.03879">
        <ele>-5</ele>
        <time>2021-08-02T11:33:31Z</time>
      </trkpt>
      <trkpt lat="45.90232" lon="-1.03966">
        <ele>-5.1999998092651</ele>
        <time>2021-08-02T11:33:43Z</time>
      </trkpt>
      <trkpt lat="45.90214" lon="-1.0403">
        <ele>-5.1999998092651</ele>
        <time>2021-08-02T11:33:52Z</time>
      </trkpt>
      <trkpt lat="45.90161" lon="-1.04117">
        <ele>-4.8000001907349</ele>
        <time>2021-08-02T11:34:07Z</time>
      </trkpt>
      <trkpt lat="45.89901" lon="-1.04435">
        <ele>-5.1999998092651</ele>
        <time>2021-08-02T11:35:08Z</time>
      </trkpt>
      <trkpt lat="45.89781" lon="-1.04495">
        <ele>-5.4000000953674</ele>
        <time>2021-08-02T11:35:32Z</time>
      </trkpt>
      <trkpt lat="45.8972" lon="-1.04511">
        <ele>-5.1999998092651</ele>
        <time>2021-08-02T11:35:44Z</time>
      </trkpt>
      <trkpt lat="45.89667" lon="-1.04514">
        <ele>-5.4000000953674</ele>
        <time>2021-08-02T11:35:54Z</time>
      </trkpt>
      <trkpt lat="45.8948" lon="-1.04509">
        <ele>-6.1999998092651</ele>
        <time>2021-08-02T11:36:28Z</time>
      </trkpt>
      <trkpt lat="45.89417" lon="-1.04548">
        <ele>-5.8000001907349</ele>
        <time>2021-08-02T11:36:41Z</time>
      </trkpt>
      <trkpt lat="45.89052" lon="-1.04962">
        <ele>-5.4000000953674</ele>
        <time>2021-08-02T11:38:06Z</time>
      </trkpt>
      <trkpt lat="45.88956" lon="-1.05019">
        <ele>-5.5999999046326</ele>
        <time>2021-08-02T11:38:25Z</time>
      </trkpt>
      <trkpt lat="45.88914" lon="-1.05043">
        <ele>-5.5999999046326</ele>
        <time>2021-08-02T11:38:33Z</time>
      </trkpt>
      <trkpt lat="45.88899" lon="-1.05075">
        <ele>-5.5999999046326</ele>
        <time>2021-08-02T11:38:38Z</time>
      </trkpt>
      <trkpt lat="45.88893" lon="-1.05103">
        <ele>-5.5999999046326</ele>
        <time>2021-08-02T11:38:42Z</time>
      </trkpt>
      <trkpt lat="45.88822" lon="-1.05155">
        <ele>-5.5999999046326</ele>
        <time>2021-08-02T11:38:58Z</time>
      </trkpt>
      <trkpt lat="45.88614" lon="-1.05275">
        <ele>-5.4000000953674</ele>
        <time>2021-08-02T11:39:39Z</time>
      </trkpt>
      <trkpt lat="45.8846" lon="-1.05479">
        <ele>-5.1999998092651</ele>
        <time>2021-08-02T11:40:20Z</time>
      </trkpt>
      <trkpt lat="45.8843" lon="-1.0554">
        <ele>-5.1999998092651</ele>
        <time>2021-08-02T11:40:30Z</time>
      </trkpt>
      <trkpt lat="45.88316" lon="-1.05513">
        <ele>-5.1999998092651</ele>
        <time>2021-08-02T11:40:54Z</time>
      </trkpt>
      <trkpt lat="45.88208" lon="-1.05435">
        <ele>-5.1999998092651</ele>
        <time>2021-08-02T11:41:15Z</time>
      </trkpt>
      <trkpt lat="45.88142" lon="-1.05478">
        <ele>-5.1999998092651</ele>
        <time>2021-08-02T11:41:28Z</time>
      </trkpt>
      <trkpt lat="45.87746" lon="-1.0572">
        <ele>-4.8000001907349</ele>
        <time>2021-08-02T11:42:44Z</time>
      </trkpt>
      <trkpt lat="45.87699" lon="-1.05766">
        <ele>-4.1999998092651</ele>
        <time>2021-08-02T11:42:54Z</time>
      </trkpt>
      <trkpt lat="45.8755" lon="-1.05908">
        <ele>-4.1999998092651</ele>
        <time>2021-08-02T11:43:26Z</time>
      </trkpt>
      <trkpt lat="45.87491" lon="-1.05966">
        <ele>-4.5999999046326</ele>
        <time>2021-08-02T11:43:39Z</time>
      </trkpt>
      <trkpt lat="45.87447" lon="-1.06004">
        <ele>-4.5999999046326</ele>
        <time>2021-08-02T11:43:48Z</time>
      </trkpt>
      <trkpt lat="45.87377" lon="-1.05812">
        <ele>-5.1999998092651</ele>
        <time>2021-08-02T11:44:15Z</time>
      </trkpt>
      <trkpt lat="45.87343" lon="-1.0575">
        <ele>-5</ele>
        <time>2021-08-02T11:44:24Z</time>
      </trkpt>
      <trkpt lat="45.8728" lon="-1.05649">
        <ele>-5</ele>
        <time>2021-08-02T11:44:40Z</time>
      </trkpt>
      <trkpt lat="45.8718" lon="-1.05779">
        <ele>-5.1999998092651</ele>
        <time>2021-08-02T11:45:06Z</time>
      </trkpt>
      <trkpt lat="45.87129" lon="-1.05845">
        <ele>-5.4000000953674</ele>
        <time>2021-08-02T11:45:18Z</time>
      </trkpt>
      <trkpt lat="45.8714" lon="-1.06102">
        <ele>-5.1999998092651</ele>
        <time>2021-08-02T11:45:51Z</time>
      </trkpt>
      <trkpt lat="45.87232" lon="-1.06394">
        <ele>-5.8000001907349</ele>
        <time>2021-08-02T11:46:35Z</time>
      </trkpt>
      <trkpt lat="45.87256" lon="-1.06623">
        <ele>-5.8000001907349</ele>
        <time>2021-08-02T11:47:05Z</time>
      </trkpt>
      <trkpt lat="45.87256" lon="-1.0663">
        <ele>-5.5999999046326</ele>
        <time>2021-08-02T11:47:06Z</time>
      </trkpt>
      <trkpt lat="45.87213" lon="-1.06655">
        <ele>-5.4000000953674</ele>
        <time>2021-08-02T11:47:16Z</time>
      </trkpt>
      <trkpt lat="45.87143" lon="-1.06652">
        <ele>-5.4000000953674</ele>
        <time>2021-08-02T11:47:28Z</time>
      </trkpt>
      <trkpt lat="45.87089" lon="-1.06656">
        <ele>-5.5999999046326</ele>
        <time>2021-08-02T11:47:37Z</time>
      </trkpt>
      <trkpt lat="45.86955" lon="-1.0667">
        <ele>-4.8000001907349</ele>
        <time>2021-08-02T11:53:38Z</time>
      </trkpt>
      <trkpt lat="45.86905" lon="-1.0668">
        <ele>-5</ele>
        <time>2021-08-02T11:53:52Z</time>
      </trkpt>
      <trkpt lat="45.86871" lon="-1.067">
        <ele>-5.1999998092651</ele>
        <time>2021-08-02T11:54:00Z</time>
      </trkpt>
      <trkpt lat="45.86799" lon="-1.06737">
        <ele>-4.8000001907349</ele>
        <time>2021-08-02T11:54:18Z</time>
      </trkpt>
      <trkpt lat="45.86806" lon="-1.06823">
        <ele>-3.5999999046326</ele>
        <time>2021-08-02T11:54:34Z</time>
      </trkpt>
      <trkpt lat="45.86831" lon="-1.06916">
        <ele>-4</ele>
        <time>2021-08-02T11:55:00Z</time>
      </trkpt>
      <trkpt lat="45.86785" lon="-1.06971">
        <ele>-4.4000000953674</ele>
        <time>2021-08-02T11:55:33Z</time>
      </trkpt>
      <trkpt lat="45.86507" lon="-1.07133">
        <ele>-4.1999998092651</ele>
        <time>2021-08-02T11:57:27Z</time>
      </trkpt>
      <trkpt lat="45.86517" lon="-1.07198">
        <ele>-4.1999998092651</ele>
        <time>2021-08-02T11:57:41Z</time>
      </trkpt>
      <trkpt lat="45.86527" lon="-1.07233">
        <ele>-4.1999998092651</ele>
        <time>2021-08-02T11:57:48Z</time>
      </trkpt>
      <trkpt lat="45.86521" lon="-1.07334">
        <ele>-3.7999999523163</ele>
        <time>2021-08-02T11:58:04Z</time>
      </trkpt>
      <trkpt lat="45.86504" lon="-1.07422">
        <ele>-4.4000000953674</ele>
        <time>2021-08-02T11:58:17Z</time>
      </trkpt>
      <trkpt lat="45.86451" lon="-1.0751">
        <ele>-4.1999998092651</ele>
        <time>2021-08-02T11:58:33Z</time>
      </trkpt>
      <trkpt lat="45.86406" lon="-1.07575">
        <ele>-5</ele>
        <time>2021-08-02T11:58:55Z</time>
      </trkpt>
      <trkpt lat="45.86429" lon="-1.07535">
        <ele>-5.1999998092651</ele>
        <time>2021-08-02T11:59:06Z</time>
      </trkpt>
      <trkpt lat="45.86464" lon="-1.07483">
        <ele>-5.1999998092651</ele>
        <time>2021-08-02T11:59:22Z</time>
      </trkpt>
      <trkpt lat="45.86452" lon="-1.07504">
        <ele>-5.1999998092651</ele>
        <time>2021-08-02T12:04:36Z</time>
      </trkpt>
      <trkpt lat="45.86429" lon="-1.07538">
        <ele>-4.5999999046326</ele>
        <time>2021-08-02T12:04:46Z</time>
      </trkpt>
      <trkpt lat="45.86399" lon="-1.07587">
        <ele>-4.4000000953674</ele>
        <time>2021-08-02T12:04:58Z</time>
      </trkpt>
      <trkpt lat="45.86238" lon="-1.0771">
        <ele>-3.5999999046326</ele>
        <time>2021-08-02T12:05:41Z</time>
      </trkpt>
      <trkpt lat="45.85929" lon="-1.07728">
        <ele>-4</ele>
        <time>2021-08-02T12:06:40Z</time>
      </trkpt>
      <trkpt lat="45.85924" lon="-1.0773">
        <ele>-3.7999999523163</ele>
        <time>2021-08-02T12:06:41Z</time>
      </trkpt>
      <trkpt lat="45.85905" lon="-1.07739">
        <ele>-4</ele>
        <time>2021-08-02T12:06:45Z</time>
      </trkpt>
      <trkpt lat="45.85803" lon="-1.07907">
        <ele>-3.5999999046326</ele>
        <time>2021-08-02T12:07:15Z</time>
      </trkpt>
      <trkpt lat="45.85796" lon="-1.07928">
        <ele>-3.5999999046326</ele>
        <time>2021-08-02T12:07:18Z</time>
      </trkpt>
      <trkpt lat="45.85598" lon="-1.07911">
        <ele>-3.2000000476837</ele>
        <time>2021-08-02T12:08:04Z</time>
      </trkpt>
      <trkpt lat="45.85573" lon="-1.07885">
        <ele>-3.2000000476837</ele>
        <time>2021-08-02T12:08:10Z</time>
      </trkpt>
      <trkpt lat="45.85494" lon="-1.07818">
        <ele>-1.7999999523163</ele>
        <time>2021-08-02T12:08:31Z</time>
      </trkpt>
      <trkpt lat="45.85461" lon="-1.07808">
        <ele>-1.6000000238419</ele>
        <time>2021-08-02T12:08:38Z</time>
      </trkpt>
      <trkpt lat="45.85406" lon="-1.07799">
        <ele>-1.6000000238419</ele>
        <time>2021-08-02T12:08:49Z</time>
      </trkpt>
      <trkpt lat="45.85342" lon="-1.07766">
        <ele>-1.6000000238419</ele>
        <time>2021-08-02T12:09:01Z</time>
      </trkpt>
      <trkpt lat="45.85306" lon="-1.07743">
        <ele>-1.7999999523163</ele>
        <time>2021-08-02T12:09:08Z</time>
      </trkpt>
      <trkpt lat="45.85217" lon="-1.07841">
        <ele>-2</ele>
        <time>2021-08-02T12:09:32Z</time>
      </trkpt>
      <trkpt lat="45.85214" lon="-1.07846">
        <ele>-1.7999999523163</ele>
        <time>2021-08-02T12:09:33Z</time>
      </trkpt>
      <trkpt lat="45.85088" lon="-1.07836">
        <ele>-1.3999999761581</ele>
        <time>2021-08-02T12:10:01Z</time>
      </trkpt>
      <trkpt lat="45.84865" lon="-1.07734">
        <ele>-1.6000000238419</ele>
        <time>2021-08-02T12:10:54Z</time>
      </trkpt>
      <trkpt lat="45.84857" lon="-1.0773">
        <ele>-2</ele>
        <time>2021-08-02T12:13:23Z</time>
      </trkpt>
      <trkpt lat="45.84829" lon="-1.078">
        <ele>-2</ele>
        <time>2021-08-02T12:13:38Z</time>
      </trkpt>
      <trkpt lat="45.84679" lon="-1.0815">
        <ele>-3.2000000476837</ele>
        <time>2021-08-02T12:14:33Z</time>
      </trkpt>
      <trkpt lat="45.84528" lon="-1.08315">
        <ele>-4</ele>
        <time>2021-08-02T12:15:08Z</time>
      </trkpt>
      <trkpt lat="45.84351" lon="-1.08426">
        <ele>-3.4000000953674</ele>
        <time>2021-08-02T12:15:45Z</time>
      </trkpt>
      <trkpt lat="45.84284" lon="-1.08492">
        <ele>-3.5999999046326</ele>
        <time>2021-08-02T12:16:00Z</time>
      </trkpt>
      <trkpt lat="45.84192" lon="-1.08593">
        <ele>-4</ele>
        <time>2021-08-02T12:16:23Z</time>
      </trkpt>
      <trkpt lat="45.84153" lon="-1.08626">
        <ele>-4</ele>
        <time>2021-08-02T12:16:31Z</time>
      </trkpt>
      <trkpt lat="45.84116" lon="-1.08654">
        <ele>-4</ele>
        <time>2021-08-02T12:16:38Z</time>
      </trkpt>
      <trkpt lat="45.84092" lon="-1.08684">
        <ele>-4</ele>
        <time>2021-08-02T12:16:44Z</time>
      </trkpt>
      <trkpt lat="45.84019" lon="-1.08779">
        <ele>-3.7999999523163</ele>
        <time>2021-08-02T12:17:02Z</time>
      </trkpt>
      <trkpt lat="45.84021" lon="-1.0902">
        <ele>-3.2000000476837</ele>
        <time>2021-08-02T12:17:36Z</time>
      </trkpt>
      <trkpt lat="45.84017" lon="-1.09024">
        <ele>-3.2000000476837</ele>
        <time>2021-08-02T12:17:37Z</time>
      </trkpt>
      <trkpt lat="45.83976" lon="-1.09056">
        <ele>-3.2000000476837</ele>
        <time>2021-08-02T12:17:46Z</time>
      </trkpt>
      <trkpt lat="45.83846" lon="-1.08998">
        <ele>-0.40000000596046</ele>
        <time>2021-08-02T12:18:25Z</time>
      </trkpt>
      <trkpt lat="45.83797" lon="-1.08935">
        <ele>1.7999999523163</ele>
        <time>2021-08-02T12:18:45Z</time>
      </trkpt>
      <trkpt lat="45.83708" lon="-1.08861">
        <ele>5.4000000953674</ele>
        <time>2021-08-02T12:19:22Z</time>
      </trkpt>
      <trkpt lat="45.83698" lon="-1.08866">
        <ele>5.5999999046326</ele>
        <time>2021-08-02T12:19:29Z</time>
      </trkpt>
      <trkpt lat="45.83587" lon="-1.08991">
        <ele>6.8000001907349</ele>
        <time>2021-08-02T12:20:04Z</time>
      </trkpt>
      <trkpt lat="45.83499" lon="-1.09119">
        <ele>6</ele>
        <time>2021-08-02T12:20:27Z</time>
      </trkpt>
      <trkpt lat="45.83488" lon="-1.09143">
        <ele>5.8000001907349</ele>
        <time>2021-08-02T12:20:32Z</time>
      </trkpt>
      <trkpt lat="45.83479" lon="-1.09182">
        <ele>6.1999998092651</ele>
        <time>2021-08-02T12:20:41Z</time>
      </trkpt>
      <trkpt lat="45.83459" lon="-1.09216">
        <ele>6.8000001907349</ele>
        <time>2021-08-02T12:20:53Z</time>
      </trkpt>
      <trkpt lat="45.83445" lon="-1.09245">
        <ele>8</ele>
        <time>2021-08-02T12:21:02Z</time>
      </trkpt>
      <trkpt lat="45.83376" lon="-1.0937">
        <ele>10</ele>
        <time>2021-08-02T12:21:35Z</time>
      </trkpt>
      <trkpt lat="45.83353" lon="-1.0944">
        <ele>10.39999961853</ele>
        <time>2021-08-02T12:21:47Z</time>
      </trkpt>
      <trkpt lat="45.83351" lon="-1.09456">
        <ele>10.39999961853</ele>
        <time>2021-08-02T12:21:49Z</time>
      </trkpt>
      <trkpt lat="45.83346" lon="-1.09514">
        <ele>10.60000038147</ele>
        <time>2021-08-02T12:21:57Z</time>
      </trkpt>
      <trkpt lat="45.8333" lon="-1.09561">
        <ele>10.800000190735</ele>
        <time>2021-08-02T12:22:05Z</time>
      </trkpt>
      <trkpt lat="45.83313" lon="-1.09589">
        <ele>11</ele>
        <time>2021-08-02T12:22:11Z</time>
      </trkpt>
      <trkpt lat="45.83169" lon="-1.09703">
        <ele>10.60000038147</ele>
        <time>2021-08-02T12:22:45Z</time>
      </trkpt>
      <trkpt lat="45.83138" lon="-1.09715">
        <ele>10.39999961853</ele>
        <time>2021-08-02T12:22:51Z</time>
      </trkpt>
      <trkpt lat="45.8307" lon="-1.09759">
        <ele>10.60000038147</ele>
        <time>2021-08-02T12:23:09Z</time>
      </trkpt>
      <trkpt lat="45.82973" lon="-1.09794">
        <ele>9.8000001907349</ele>
        <time>2021-08-02T12:24:32Z</time>
      </trkpt>
      <trkpt lat="45.82938" lon="-1.09786">
        <ele>9.8000001907349</ele>
        <time>2021-08-02T12:24:43Z</time>
      </trkpt>
      <trkpt lat="45.8292" lon="-1.09747">
        <ele>10</ele>
        <time>2021-08-02T12:24:51Z</time>
      </trkpt>
      <trkpt lat="45.82843" lon="-1.09558">
        <ele>11.39999961853</ele>
        <time>2021-08-02T12:25:21Z</time>
      </trkpt>
      <trkpt lat="45.82802" lon="-1.09484">
        <ele>11.60000038147</ele>
        <time>2021-08-02T12:25:33Z</time>
      </trkpt>
      <trkpt lat="45.82589" lon="-1.09155">
        <ele>8.3999996185303</ele>
        <time>2021-08-02T12:26:23Z</time>
      </trkpt>
      <trkpt lat="45.82493" lon="-1.08996">
        <ele>4.4000000953674</ele>
        <time>2021-08-02T12:26:40Z</time>
      </trkpt>
      <trkpt lat="45.82333" lon="-1.08745">
        <ele>1.3999999761581</ele>
        <time>2021-08-02T12:27:09Z</time>
      </trkpt>
      <trkpt lat="45.81945" lon="-1.08296">
        <ele>1.7999999523163</ele>
        <time>2021-08-02T12:28:33Z</time>
      </trkpt>
      <trkpt lat="45.81847" lon="-1.08215">
        <ele>4.5999999046326</ele>
        <time>2021-08-02T12:28:58Z</time>
      </trkpt>
      <trkpt lat="45.8178" lon="-1.08159">
        <ele>6.4000000953674</ele>
        <time>2021-08-02T12:29:15Z</time>
      </trkpt>
      <trkpt lat="45.8147" lon="-1.07598">
        <ele>7.1999998092651</ele>
        <time>2021-08-02T12:30:52Z</time>
      </trkpt>
      <trkpt lat="45.81439" lon="-1.07515">
        <ele>7.5999999046326</ele>
        <time>2021-08-02T12:31:04Z</time>
      </trkpt>
      <trkpt lat="45.81373" lon="-1.07407">
        <ele>7.4000000953674</ele>
        <time>2021-08-02T12:31:21Z</time>
      </trkpt>
      <trkpt lat="45.81304" lon="-1.07319">
        <ele>6.4000000953674</ele>
        <time>2021-08-02T12:31:35Z</time>
      </trkpt>
      <trkpt lat="45.81248" lon="-1.07209">
        <ele>6.4000000953674</ele>
        <time>2021-08-02T12:31:51Z</time>
      </trkpt>
      <trkpt lat="45.81187" lon="-1.07069">
        <ele>7.4000000953674</ele>
        <time>2021-08-02T12:32:12Z</time>
      </trkpt>
      <trkpt lat="45.81102" lon="-1.06957">
        <ele>7.4000000953674</ele>
        <time>2021-08-02T12:32:32Z</time>
      </trkpt>
      <trkpt lat="45.80959" lon="-1.06803">
        <ele>7.1999998092651</ele>
        <time>2021-08-02T12:33:03Z</time>
      </trkpt>
      <trkpt lat="45.80887" lon="-1.06681">
        <ele>6.4000000953674</ele>
        <time>2021-08-02T12:33:21Z</time>
      </trkpt>
      <trkpt lat="45.80804" lon="-1.06525">
        <ele>5.1999998092651</ele>
        <time>2021-08-02T12:33:40Z</time>
      </trkpt>
      <trkpt lat="45.80748" lon="-1.06426">
        <ele>4.5999999046326</ele>
        <time>2021-08-02T12:33:54Z</time>
      </trkpt>
      <trkpt lat="45.80494" lon="-1.05888">
        <ele>5.4000000953674</ele>
        <time>2021-08-02T12:35:12Z</time>
      </trkpt>
      <trkpt lat="45.80465" lon="-1.05849">
        <ele>5.1999998092651</ele>
        <time>2021-08-02T12:35:18Z</time>
      </trkpt>
      <trkpt lat="45.80302" lon="-1.05626">
        <ele>2.5999999046326</ele>
        <time>2021-08-02T12:35:48Z</time>
      </trkpt>
      <trkpt lat="45.80251" lon="-1.05487">
        <ele>2.2000000476837</ele>
        <time>2021-08-02T12:36:06Z</time>
      </trkpt>
      <trkpt lat="45.80228" lon="-1.05418">
        <ele>2.7999999523163</ele>
        <time>2021-08-02T12:36:16Z</time>
      </trkpt>
      <trkpt lat="45.80175" lon="-1.0529">
        <ele>4.5999999046326</ele>
        <time>2021-08-02T12:36:38Z</time>
      </trkpt>
      <trkpt lat="45.80169" lon="-1.05274">
        <ele>5</ele>
        <time>2021-08-02T12:36:41Z</time>
      </trkpt>
      <trkpt lat="45.80156" lon="-1.0519">
        <ele>6.4000000953674</ele>
        <time>2021-08-02T12:36:55Z</time>
      </trkpt>
      <trkpt lat="45.80143" lon="-1.05134">
        <ele>6.8000001907349</ele>
        <time>2021-08-02T12:37:04Z</time>
      </trkpt>
      <trkpt lat="45.80114" lon="-1.05">
        <ele>7.4000000953674</ele>
        <time>2021-08-02T12:37:24Z</time>
      </trkpt>
      <trkpt lat="45.80044" lon="-1.04853">
        <ele>7.4000000953674</ele>
        <time>2021-08-02T12:37:47Z</time>
      </trkpt>
      <trkpt lat="45.79903" lon="-1.04721">
        <ele>5.1999998092651</ele>
        <time>2021-08-02T12:38:23Z</time>
      </trkpt>
      <trkpt lat="45.79883" lon="-1.04678">
        <ele>5</ele>
        <time>2021-08-02T12:38:33Z</time>
      </trkpt>
      <trkpt lat="45.79798" lon="-1.04546">
        <ele>5.1999998092651</ele>
        <time>2021-08-02T12:45:59Z</time>
      </trkpt>
      <trkpt lat="45.79757" lon="-1.04431">
        <ele>5.8000001907349</ele>
        <time>2021-08-02T12:46:20Z</time>
      </trkpt>
      <trkpt lat="45.79452" lon="-1.0376">
        <ele>3.2000000476837</ele>
        <time>2021-08-02T12:47:57Z</time>
      </trkpt>
      <trkpt lat="45.79234" lon="-1.03249">
        <ele>3</ele>
        <time>2021-08-02T12:49:11Z</time>
      </trkpt>
      <trkpt lat="45.79143" lon="-1.03018">
        <ele>3.7999999523163</ele>
        <time>2021-08-02T12:49:49Z</time>
      </trkpt>
      <trkpt lat="45.79113" lon="-1.02937">
        <ele>3.7999999523163</ele>
        <time>2021-08-02T12:50:00Z</time>
      </trkpt>
      <trkpt lat="45.78963" lon="-1.02685">
        <ele>5.8</ele>
        <time>2021-08-02T12:50:32Z</time>
      </trkpt>
      <trkpt lat="45.78944" lon="-1.02659">
        <ele>-0.20000000298023</ele>
        <time>2021-08-02T12:50:35Z</time>
      </trkpt>
      <trkpt lat="45.78865" lon="-1.02569">
        <ele>-1.3999999761581</ele>
        <time>2021-08-02T12:50:48Z</time>
      </trkpt>
      <trkpt lat="45.78771" lon="-1.02416">
        <ele>-1.3999999761581</ele>
        <time>2021-08-02T12:51:11Z</time>
      </trkpt>
      <trkpt lat="45.78713" lon="-1.02309">
        <ele>0.40000000596046</ele>
        <time>2021-08-02T12:51:30Z</time>
      </trkpt>
      <trkpt lat="45.78685" lon="-1.02242">
        <ele>0.60000002384186</ele>
        <time>2021-08-02T12:51:42Z</time>
      </trkpt>
      <trkpt lat="45.78679" lon="-1.0223">
        <ele>0.80000001192093</ele>
        <time>2021-08-02T12:51:44Z</time>
      </trkpt>
      <trkpt lat="45.78674" lon="-1.02218">
        <ele>0.60000002384186</ele>
        <time>2021-08-02T12:51:46Z</time>
      </trkpt>
      <trkpt lat="45.78651" lon="-1.02148">
        <ele>0.80000001192093</ele>
        <time>2021-08-02T12:51:58Z</time>
      </trkpt>
      <trkpt lat="45.78638" lon="-1.02108">
        <ele>1.2000000476837</ele>
        <time>2021-08-02T12:52:04Z</time>
      </trkpt>
      <trkpt lat="45.78616" lon="-1.02055">
        <ele>1.2000000476837</ele>
        <time>2021-08-02T12:52:12Z</time>
      </trkpt>
      <trkpt lat="45.78557" lon="-1.01924">
        <ele>2.7999999523163</ele>
        <time>2021-08-02T12:52:35Z</time>
      </trkpt>
      <trkpt lat="45.78515" lon="-1.01813">
        <ele>3.7999999523163</ele>
        <time>2021-08-02T12:52:53Z</time>
      </trkpt>
      <trkpt lat="45.78512" lon="-1.01807">
        <ele>4</ele>
        <time>2021-08-02T12:52:54Z</time>
      </trkpt>
      <trkpt lat="45.78253" lon="-1.01202">
        <ele>4.1999998092651</ele>
        <time>2021-08-02T12:54:17Z</time>
      </trkpt>
      <trkpt lat="45.78224" lon="-1.01144">
        <ele>4.4000000953674</ele>
        <time>2021-08-02T12:54:26Z</time>
      </trkpt>
      <trkpt lat="45.78186" lon="-1.01084">
        <ele>4.4000000953674</ele>
        <time>2021-08-02T12:54:36Z</time>
      </trkpt>
      <trkpt lat="45.77914" lon="-1.00607">
        <ele>2.4000000953674</ele>
        <time>2021-08-02T12:55:46Z</time>
      </trkpt>
      <trkpt lat="45.77874" lon="-1.00537">
        <ele>1</ele>
        <time>2021-08-02T12:55:53Z</time>
      </trkpt>
      <trkpt lat="45.77806" lon="-1.00456">
        <ele>-1.3999999761581</ele>
        <time>2021-08-02T12:56:03Z</time>
      </trkpt>
      <trkpt lat="45.77751" lon="-1.0041">
        <ele>-2.4000000953674</ele>
        <time>2021-08-02T12:56:11Z</time>
      </trkpt>
      <trkpt lat="45.77657" lon="-1.00328">
        <ele>-3</ele>
        <time>2021-08-02T12:56:28Z</time>
      </trkpt>
      <trkpt lat="45.7766" lon="-1.00329">
        <ele>-3.2000000476837</ele>
        <time>2021-08-02T12:59:25Z</time>
      </trkpt>
      <trkpt lat="45.77652" lon="-1.00322">
        <ele>-3.2000000476837</ele>
        <time>2021-08-02T12:59:28Z</time>
      </trkpt>
      <trkpt lat="45.77514" lon="-1.00247">
        <ele>-0.40000000596046</ele>
        <time>2021-08-02T13:00:08Z</time>
      </trkpt>
      <trkpt lat="45.77439" lon="-1.00178">
        <ele>6.8</ele>
        <time>2021-08-02T13:00:26Z</time>
      </trkpt>
      <trkpt lat="45.77141" lon="-0.99819">
        <ele>0.40000000596046</ele>
        <time>2021-08-02T13:01:42Z</time>
      </trkpt>
      <trkpt lat="45.76949" lon="-0.99648">
        <ele>7.2</ele>
        <time>2021-08-02T13:02:21Z</time>
      </trkpt>
      <trkpt lat="45.76848" lon="-0.99517">
        <ele>-1.7999999523163</ele>
        <time>2021-08-02T13:02:43Z</time>
      </trkpt>
      <trkpt lat="45.76782" lon="-0.99466">
        <ele>-2.5999999046326</ele>
        <time>2021-08-02T13:02:56Z</time>
      </trkpt>
      <trkpt lat="45.76755" lon="-0.9945">
        <ele>-2.7999999523163</ele>
        <time>2021-08-02T13:03:01Z</time>
      </trkpt>
      <trkpt lat="45.76635" lon="-0.99331">
        <ele>-2.4000000953674</ele>
        <time>2021-08-02T13:03:27Z</time>
      </trkpt>
      <trkpt lat="45.76423" lon="-0.99147">
        <ele>-2</ele>
        <time>2021-08-02T13:04:14Z</time>
      </trkpt>
      <trkpt lat="45.76373" lon="-0.99122">
        <ele>-2</ele>
        <time>2021-08-02T13:04:24Z</time>
      </trkpt>
      <trkpt lat="45.76319" lon="-0.99098">
        <ele>-2</ele>
        <time>2021-08-02T13:04:35Z</time>
      </trkpt>
      <trkpt lat="45.76224" lon="-0.99016">
        <ele>-2</ele>
        <time>2021-08-02T13:04:55Z</time>
      </trkpt>
      <trkpt lat="45.76093" lon="-0.98893">
        <ele>-2.4000000953674</ele>
        <time>2021-08-02T13:05:22Z</time>
      </trkpt>
      <trkpt lat="45.75911" lon="-0.98671">
        <ele>-3.4000000953674</ele>
        <time>2021-08-02T13:06:02Z</time>
      </trkpt>
      <trkpt lat="45.75618" lon="-0.98427">
        <ele>-2.4000000953674</ele>
        <time>2021-08-02T13:07:08Z</time>
      </trkpt>
      <trkpt lat="45.75606" lon="-0.98423">
        <ele>-3</ele>
        <time>2021-08-02T13:10:55Z</time>
      </trkpt>
      <trkpt lat="45.75598" lon="-0.98407">
        <ele>-2.4000000953674</ele>
        <time>2021-08-02T13:11:13Z</time>
      </trkpt>
      <trkpt lat="45.75546" lon="-0.9835">
        <ele>-2.5999999046326</ele>
        <time>2021-08-02T13:11:31Z</time>
      </trkpt>
      <trkpt lat="45.75245" lon="-0.98051">
        <ele>-2.7999999523163</ele>
        <time>2021-08-02T13:12:40Z</time>
      </trkpt>
      <trkpt lat="45.75175" lon="-0.98016">
        <ele>-2.5999999046326</ele>
        <time>2021-08-02T13:12:52Z</time>
      </trkpt>
      <trkpt lat="45.75113" lon="-0.97982">
        <ele>-2.7999999523163</ele>
        <time>2021-08-02T13:13:03Z</time>
      </trkpt>
      <trkpt lat="45.75108" lon="-0.97978">
        <ele>-2.5999999046326</ele>
        <time>2021-08-02T13:13:04Z</time>
      </trkpt>
      <trkpt lat="45.74695" lon="-0.9759">
        <ele>-3.2000000476837</ele>
        <time>2021-08-02T13:14:30Z</time>
      </trkpt>
      <trkpt lat="45.74595" lon="-0.97552">
        <ele>-3.2000000476837</ele>
        <time>2021-08-02T13:14:47Z</time>
      </trkpt>
      <trkpt lat="45.74473" lon="-0.97546">
        <ele>-3.2000000476837</ele>
        <time>2021-08-02T13:15:08Z</time>
      </trkpt>
      <trkpt lat="45.74271" lon="-0.97516">
        <ele>-3.2000000476837</ele>
        <time>2021-08-02T13:15:43Z</time>
      </trkpt>
      <trkpt lat="45.74204" lon="-0.97474">
        <ele>-3</ele>
        <time>2021-08-02T13:15:59Z</time>
      </trkpt>
      <trkpt lat="45.74064" lon="-0.97365">
        <ele>-1</ele>
        <time>2021-08-02T13:16:34Z</time>
      </trkpt>
      <trkpt lat="45.73992" lon="-0.97208">
        <ele>-1</ele>
        <time>2021-08-02T13:16:59Z</time>
      </trkpt>
      <trkpt lat="45.73777" lon="-0.96666">
        <ele>-1.2000000476837</ele>
        <time>2021-08-02T13:18:10Z</time>
      </trkpt>
      <trkpt lat="45.73747" lon="-0.96612">
        <ele>-0.80000001192093</ele>
        <time>2021-08-02T13:18:18Z</time>
      </trkpt>
      <trkpt lat="45.73705" lon="-0.96535">
        <ele>-0.60000002384186</ele>
        <time>2021-08-02T13:18:29Z</time>
      </trkpt>
      <trkpt lat="45.73661" lon="-0.96424">
        <ele>-0.40000000596046</ele>
        <time>2021-08-02T13:18:43Z</time>
      </trkpt>
      <trkpt lat="45.7363" lon="-0.9633">
        <ele>-0.40000000596046</ele>
        <time>2021-08-02T13:18:54Z</time>
      </trkpt>
      <trkpt lat="45.73548" lon="-0.96195">
        <ele>-0.80000001192093</ele>
        <time>2021-08-02T13:19:12Z</time>
      </trkpt>
      <trkpt lat="45.73494" lon="-0.96124">
        <ele>7</ele>
        <time>2021-08-02T13:19:23Z</time>
      </trkpt>
      <trkpt lat="45.73175" lon="-0.95649">
        <ele>1.6000000238419</ele>
        <time>2021-08-02T13:20:46Z</time>
      </trkpt>
      <trkpt lat="45.73144" lon="-0.9566">
        <ele>1.6000000238419</ele>
        <time>2021-08-02T13:20:59Z</time>
      </trkpt>
      <trkpt lat="45.7317" lon="-0.95686">
        <ele>1.6000000238419</ele>
        <time>2021-08-02T13:21:17Z</time>
      </trkpt>
      <trkpt lat="45.73156" lon="-0.95711">
        <ele>3.7999999523163</ele>
        <time>2021-08-02T13:46:44Z</time>
      </trkpt>
      <trkpt lat="45.73155" lon="-0.95707">
        <ele>3.7999999523163</ele>
        <time>2021-08-02T13:46:46Z</time>
      </trkpt>
      <trkpt lat="45.73149" lon="-0.9569">
        <ele>3.5999999046326</ele>
        <time>2021-08-02T13:46:53Z</time>
      </trkpt>
      <trkpt lat="45.73148" lon="-0.95672">
        <ele>3.7999999523163</ele>
        <time>2021-08-02T13:47:03Z</time>
      </trkpt>
      <trkpt lat="45.73123" lon="-0.95698">
        <ele>4.5999999046326</ele>
        <time>2021-08-02T13:47:16Z</time>
      </trkpt>
      <trkpt lat="45.72963" lon="-0.95924">
        <ele>2.4000000953674</ele>
        <time>2021-08-02T13:48:24Z</time>
      </trkpt>
      <trkpt lat="45.72962" lon="-0.95934">
        <ele>2.2000000476837</ele>
        <time>2021-08-02T13:48:30Z</time>
      </trkpt>
      <trkpt lat="45.72953" lon="-0.95929">
        <ele>2</ele>
        <time>2021-08-02T13:49:16Z</time>
      </trkpt>
      <trkpt lat="45.72931" lon="-0.95952">
        <ele>1.7999999523163</ele>
        <time>2021-08-02T13:49:27Z</time>
      </trkpt>
      <trkpt lat="45.72864" lon="-0.9605">
        <ele>2</ele>
        <time>2021-08-02T13:49:48Z</time>
      </trkpt>
      <trkpt lat="45.72749" lon="-0.96185">
        <ele>1</ele>
        <time>2021-08-02T13:50:19Z</time>
      </trkpt>
      <trkpt lat="45.72697" lon="-0.96233">
        <ele>0.60000002384186</ele>
        <time>2021-08-02T13:50:30Z</time>
      </trkpt>
      <trkpt lat="45.72103" lon="-0.96701">
        <ele>-0.60000002384186</ele>
        <time>2021-08-02T13:52:31Z</time>
      </trkpt>
      <trkpt lat="45.7163" lon="-0.97083">
        <ele>4</ele>
        <time>2021-08-02T13:54:07Z</time>
      </trkpt>
      <trkpt lat="45.71588" lon="-0.97136">
        <ele>0.80000001192093</ele>
        <time>2021-08-02T13:54:19Z</time>
      </trkpt>
      <trkpt lat="45.71551" lon="-0.97188">
        <ele>0.60000002384186</ele>
        <time>2021-08-02T13:54:29Z</time>
      </trkpt>
      <trkpt lat="45.71428" lon="-0.97274">
        <ele>4.7</ele>
        <time>2021-08-02T13:54:58Z</time>
      </trkpt>
      <trkpt lat="45.71368" lon="-0.9729">
        <ele>4</ele>
        <time>2021-08-02T13:55:10Z</time>
      </trkpt>
      <trkpt lat="45.70846" lon="-0.97271">
        <ele>0.60000002384186</ele>
        <time>2021-08-02T13:56:56Z</time>
      </trkpt>
      <trkpt lat="45.70735" lon="-0.97282">
        <ele>3.8</ele>
        <time>2021-08-02T13:57:13Z</time>
      </trkpt>
      <trkpt lat="45.70673" lon="-0.97308">
        <ele>-0.60000002384186</ele>
        <time>2021-08-02T13:57:23Z</time>
      </trkpt>
      <trkpt lat="45.70517" lon="-0.97433">
        <ele>-0.60000002384186</ele>
        <time>2021-08-02T13:57:54Z</time>
      </trkpt>
      <trkpt lat="45.7044" lon="-0.97551">
        <ele>-0.40000000596046</ele>
        <time>2021-08-02T13:58:14Z</time>
      </trkpt>
      <trkpt lat="45.70376" lon="-0.97713">
        <ele>0.20000000298023</ele>
        <time>2021-08-02T13:58:41Z</time>
      </trkpt>
      <trkpt lat="45.70324" lon="-0.97877">
        <ele>0.40000000596046</ele>
        <time>2021-08-02T13:59:08Z</time>
      </trkpt>
      <trkpt lat="45.70183" lon="-0.98344">
        <ele>-0.80000001192093</ele>
        <time>2021-08-02T14:00:11Z</time>
      </trkpt>
      <trkpt lat="45.70136" lon="-0.98453">
        <ele>-0.80000001192093</ele>
        <time>2021-08-02T14:00:27Z</time>
      </trkpt>
      <trkpt lat="45.70101" lon="-0.9851">
        <ele>-1.2000000476837</ele>
        <time>2021-08-02T14:00:37Z</time>
      </trkpt>
      <trkpt lat="45.69874" lon="-0.98804">
        <ele>-1.2000000476837</ele>
        <time>2021-08-02T14:01:37Z</time>
      </trkpt>
      <trkpt lat="45.69778" lon="-0.98994">
        <ele>-0.80000001192093</ele>
        <time>2021-08-02T14:02:12Z</time>
      </trkpt>
      <trkpt lat="45.69659" lon="-0.99131">
        <ele>-1.2000000476837</ele>
        <time>2021-08-02T14:02:41Z</time>
      </trkpt>
      <trkpt lat="45.69442" lon="-0.99333">
        <ele>-2.7999999523163</ele>
        <time>2021-08-02T14:07:07Z</time>
      </trkpt>
      <trkpt lat="45.69438" lon="-0.99338">
        <ele>-3</ele>
        <time>2021-08-02T14:07:09Z</time>
      </trkpt>
      <trkpt lat="45.69084" lon="-0.99657">
        <ele>-1.7999999523163</ele>
        <time>2021-08-02T14:08:39Z</time>
      </trkpt>
      <trkpt lat="45.68957" lon="-0.99776">
        <ele>-1.7999999523163</ele>
        <time>2021-08-02T14:09:06Z</time>
      </trkpt>
      <trkpt lat="45.68905" lon="-0.99825">
        <ele>0.20000000298023</ele>
        <time>2021-08-02T14:09:22Z</time>
      </trkpt>
      <trkpt lat="45.68823" lon="-0.99881">
        <ele>3.4000000953674</ele>
        <time>2021-08-02T14:09:50Z</time>
      </trkpt>
      <trkpt lat="45.68779" lon="-0.999">
        <ele>4.1999998092651</ele>
        <time>2021-08-02T14:10:01Z</time>
      </trkpt>
      <trkpt lat="45.68746" lon="-0.99909">
        <ele>5</ele>
        <time>2021-08-02T14:10:10Z</time>
      </trkpt>
      <trkpt lat="45.68527" lon="-0.99869">
        <ele>5.4000000953674</ele>
        <time>2021-08-02T14:10:59Z</time>
      </trkpt>
      <trkpt lat="45.68386" lon="-0.99844">
        <ele>6.1999998092651</ele>
        <time>2021-08-02T14:11:30Z</time>
      </trkpt>
      <trkpt lat="45.68336" lon="-0.99878">
        <ele>6.5999999046326</ele>
        <time>2021-08-02T14:11:44Z</time>
      </trkpt>
      <trkpt lat="45.68324" lon="-0.99866">
        <ele>6.5999999046326</ele>
        <time>2021-08-02T14:11:47Z</time>
      </trkpt>
      <trkpt lat="45.68268" lon="-0.99846">
        <ele>6.8000001907349</ele>
        <time>2021-08-02T14:11:59Z</time>
      </trkpt>
      <trkpt lat="45.67889" lon="-0.99849">
        <ele>6</ele>
        <time>2021-08-02T14:13:08Z</time>
      </trkpt>
      <trkpt lat="45.67459" lon="-0.99909">
        <ele>6.8000001907349</ele>
        <time>2021-08-02T14:14:30Z</time>
      </trkpt>
      <trkpt lat="45.67335" lon="-0.99967">
        <ele>9.3999996185303</ele>
        <time>2021-08-02T14:14:59Z</time>
      </trkpt>
      <trkpt lat="45.67298" lon="-0.99989">
        <ele>10</ele>
        <time>2021-08-02T14:15:08Z</time>
      </trkpt>
      <trkpt lat="45.67259" lon="-1.00022">
        <ele>10.199999809265</ele>
        <time>2021-08-02T14:15:18Z</time>
      </trkpt>
      <trkpt lat="45.67141" lon="-1.0013">
        <ele>9.3999996185303</ele>
        <time>2021-08-02T14:15:46Z</time>
      </trkpt>
      <trkpt lat="45.66895" lon="-1.00472">
        <ele>7.4000000953674</ele>
        <time>2021-08-02T14:16:46Z</time>
      </trkpt>
      <trkpt lat="45.66626" lon="-1.01063">
        <ele>6.8000001907349</ele>
        <time>2021-08-02T14:18:26Z</time>
      </trkpt>
      <trkpt lat="45.66552" lon="-1.01226">
        <ele>7.5999999046326</ele>
        <time>2021-08-02T14:18:56Z</time>
      </trkpt>
      <trkpt lat="45.66502" lon="-1.01316">
        <ele>8.1999998092651</ele>
        <time>2021-08-02T14:19:20Z</time>
      </trkpt>
      <trkpt lat="45.66489" lon="-1.01344">
        <ele>8.8000001907349</ele>
        <time>2021-08-02T14:19:27Z</time>
      </trkpt>
      <trkpt lat="45.66402" lon="-1.01468">
        <ele>11.199999809265</ele>
        <time>2021-08-02T14:20:02Z</time>
      </trkpt>
      <trkpt lat="45.6629" lon="-1.01597">
        <ele>14.39999961853</ele>
        <time>2021-08-02T14:20:44Z</time>
      </trkpt>
      <trkpt lat="45.66232" lon="-1.01665">
        <ele>17.200000762939</ele>
        <time>2021-08-02T14:21:10Z</time>
      </trkpt>
      <trkpt lat="45.6616" lon="-1.01747">
        <ele>20.60000038147</ele>
        <time>2021-08-02T14:21:40Z</time>
      </trkpt>
      <trkpt lat="45.66158" lon="-1.01749">
        <ele>20.799999237061</ele>
        <time>2021-08-02T14:21:41Z</time>
      </trkpt>
      <trkpt lat="45.66138" lon="-1.01796">
        <ele>23.200000762939</ele>
        <time>2021-08-02T14:21:55Z</time>
      </trkpt>
      <trkpt lat="45.66103" lon="-1.01815">
        <ele>24.200000762939</ele>
        <time>2021-08-02T14:22:08Z</time>
      </trkpt>
      <trkpt lat="45.66043" lon="-1.01879">
        <ele>27.200000762939</ele>
        <time>2021-08-02T14:22:28Z</time>
      </trkpt>
      <trkpt lat="45.66002" lon="-1.01923">
        <ele>28.39999961853</ele>
        <time>2021-08-02T14:22:43Z</time>
      </trkpt>
      <trkpt lat="45.65955" lon="-1.01983">
        <ele>28.39999961853</ele>
        <time>2021-08-02T14:22:58Z</time>
      </trkpt>
      <trkpt lat="45.65894" lon="-1.0205">
        <ele>28.39999961853</ele>
        <time>2021-08-02T14:23:14Z</time>
      </trkpt>
      <trkpt lat="45.65883" lon="-1.02066">
        <ele>28.39999961853</ele>
        <time>2021-08-02T14:23:17Z</time>
      </trkpt>
      <trkpt lat="45.65842" lon="-1.02113">
        <ele>28.39999961853</ele>
        <time>2021-08-02T14:23:27Z</time>
      </trkpt>
      <trkpt lat="45.65701" lon="-1.02263">
        <ele>29.39999961853</ele>
        <time>2021-08-02T14:24:00Z</time>
      </trkpt>
      <trkpt lat="45.65603" lon="-1.02298">
        <ele>28.39999961853</ele>
        <time>2021-08-02T14:24:17Z</time>
      </trkpt>
      <trkpt lat="45.65497" lon="-1.02307">
        <ele>26.799999237061</ele>
        <time>2021-08-02T14:24:34Z</time>
      </trkpt>
      <trkpt lat="45.65384" lon="-1.02317">
        <ele>25.799999237061</ele>
        <time>2021-08-02T14:24:56Z</time>
      </trkpt>
      <trkpt lat="45.65341" lon="-1.02335">
        <ele>25.799999237061</ele>
        <time>2021-08-02T14:25:05Z</time>
      </trkpt>
      <trkpt lat="45.65262" lon="-1.0235">
        <ele>25.799999237061</ele>
        <time>2021-08-02T14:25:20Z</time>
      </trkpt>
      <trkpt lat="45.65044" lon="-1.02455">
        <ele>24.200000762939</ele>
        <time>2021-08-02T14:26:01Z</time>
      </trkpt>
      <trkpt lat="45.64936" lon="-1.02475">
        <ele>22.39999961853</ele>
        <time>2021-08-02T14:26:19Z</time>
      </trkpt>
      <trkpt lat="45.64897" lon="-1.02471">
        <ele>22</ele>
        <time>2021-08-02T14:26:25Z</time>
      </trkpt>
      <trkpt lat="45.64813" lon="-1.02452">
        <ele>20</ele>
        <time>2021-08-02T14:26:39Z</time>
      </trkpt>
      <trkpt lat="45.64681" lon="-1.02446">
        <ele>16.39999961853</ele>
        <time>2021-08-02T14:27:10Z</time>
      </trkpt>
      <trkpt lat="45.64658" lon="-1.02448">
        <ele>16.39999961853</ele>
        <time>2021-08-02T14:27:17Z</time>
      </trkpt>
      <trkpt lat="45.64596" lon="-1.02452">
        <ele>16.39999961853</ele>
        <time>2021-08-02T14:27:33Z</time>
      </trkpt>
      <trkpt lat="45.64536" lon="-1.02469">
        <ele>16.39999961853</ele>
        <time>2021-08-02T14:27:49Z</time>
      </trkpt>
      <trkpt lat="45.64434" lon="-1.02477">
        <ele>14.39999961853</ele>
        <time>2021-08-02T14:28:21Z</time>
      </trkpt>
      <trkpt lat="45.64224" lon="-1.0248">
        <ele>17.200000762939</ele>
        <time>2021-08-02T14:29:26Z</time>
      </trkpt>
      <trkpt lat="45.6419" lon="-1.02482">
        <ele>17.60000038147</ele>
        <time>2021-08-02T14:29:35Z</time>
      </trkpt>
      <trkpt lat="45.64138" lon="-1.02485">
        <ele>16.200000762939</ele>
        <time>2021-08-02T14:29:58Z</time>
      </trkpt>
      <trkpt lat="45.64027" lon="-1.02506">
        <ele>12.800000190735</ele>
        <time>2021-08-02T14:30:53Z</time>
      </trkpt>
      <trkpt lat="45.64025" lon="-1.02507">
        <ele>12.60000038147</ele>
        <time>2021-08-02T14:30:55Z</time>
      </trkpt>
      <trkpt lat="45.63978" lon="-1.02513">
        <ele>11.800000190735</ele>
        <time>2021-08-02T14:31:19Z</time>
      </trkpt>
      <trkpt lat="45.6389" lon="-1.02626">
        <ele>11.800000190735</ele>
        <time>2021-08-02T14:31:53Z</time>
      </trkpt>
      <trkpt lat="45.63831" lon="-1.02733">
        <ele>14.60000038147</ele>
        <time>2021-08-02T14:32:19Z</time>
      </trkpt>
      <trkpt lat="45.63757" lon="-1.02811">
        <ele>16.39999961853</ele>
        <time>2021-08-02T14:32:44Z</time>
      </trkpt>
      <trkpt lat="45.6375" lon="-1.02817">
        <ele>16.39999961853</ele>
        <time>2021-08-02T14:32:46Z</time>
      </trkpt>
      <trkpt lat="45.63632" lon="-1.02879">
        <ele>17.200000762939</ele>
        <time>2021-08-02T14:33:19Z</time>
      </trkpt>
      <trkpt lat="45.63592" lon="-1.02878">
        <ele>17</ele>
        <time>2021-08-02T14:33:27Z</time>
      </trkpt>
      <trkpt lat="45.63478" lon="-1.02903">
        <ele>17.799999237061</ele>
        <time>2021-08-02T14:33:50Z</time>
      </trkpt>
      <trkpt lat="45.6344" lon="-1.02916">
        <ele>17.799999237061</ele>
        <time>2021-08-02T14:33:58Z</time>
      </trkpt>
      <trkpt lat="45.63398" lon="-1.02928">
        <ele>18.200000762939</ele>
        <time>2021-08-02T14:34:07Z</time>
      </trkpt>
      <trkpt lat="45.63311" lon="-1.03023">
        <ele>18.799999237061</ele>
        <time>2021-08-02T14:34:30Z</time>
      </trkpt>
      <trkpt lat="45.63214" lon="-1.03159">
        <ele>15.60000038147</ele>
        <time>2021-08-02T14:34:49Z</time>
      </trkpt>
      <trkpt lat="45.63206" lon="-1.03168">
        <ele>12</ele>
        <time>2021-08-02T14:34:55Z</time>
      </trkpt>
      <trkpt lat="45.63202" lon="-1.03176">
        <ele>8.3999996185303</ele>
        <time>2021-08-02T14:35:55Z</time>
      </trkpt>
      <trkpt lat="45.63198" lon="-1.0318">
        <ele>8.3999996185303</ele>
        <time>2021-08-02T14:35:57Z</time>
      </trkpt>
      <trkpt lat="45.63168" lon="-1.03204">
        <ele>8</ele>
        <time>2021-08-02T14:36:09Z</time>
      </trkpt>
      <trkpt lat="45.63116" lon="-1.03232">
        <ele>7.4000000953674</ele>
        <time>2021-08-02T14:36:20Z</time>
      </trkpt>
      <trkpt lat="45.63063" lon="-1.03241">
        <ele>6.5999999046326</ele>
        <time>2021-08-02T14:36:29Z</time>
      </trkpt>
      <trkpt lat="45.63012" lon="-1.03255">
        <ele>6</ele>
        <time>2021-08-02T14:36:38Z</time>
      </trkpt>
      <trkpt lat="45.62964" lon="-1.03259">
        <ele>5.1999998092651</ele>
        <time>2021-08-02T14:36:45Z</time>
      </trkpt>
      <trkpt lat="45.62957" lon="-1.03259">
        <ele>5</ele>
        <time>2021-08-02T14:36:46Z</time>
      </trkpt>
      <trkpt lat="45.629" lon="-1.03255">
        <ele>3.5999999046326</ele>
        <time>2021-08-02T14:36:54Z</time>
      </trkpt>
      <trkpt lat="45.62838" lon="-1.03225">
        <ele>2</ele>
        <time>2021-08-02T14:37:05Z</time>
      </trkpt>
      <trkpt lat="45.6283" lon="-1.03225">
        <ele>1.6000000238419</ele>
        <time>2021-08-02T14:37:07Z</time>
      </trkpt>
      <trkpt lat="45.62781" lon="-1.03213">
        <ele>0.20000000298023</ele>
        <time>2021-08-02T14:37:17Z</time>
      </trkpt>
      <trkpt lat="45.62755" lon="-1.03201">
        <ele>-0.20000000298023</ele>
        <time>2021-08-02T14:37:23Z</time>
      </trkpt>
      <trkpt lat="45.6273" lon="-1.03198">
        <ele>-0.20000000298023</ele>
        <time>2021-08-02T14:37:29Z</time>
      </trkpt>
      <trkpt lat="45.62702" lon="-1.03182">
        <ele>6.8</ele>
        <time>2021-08-02T14:37:36Z</time>
      </trkpt>
      <trkpt lat="45.62681" lon="-1.03171">
        <ele>6.3</ele>
        <time>2021-08-02T14:37:42Z</time>
      </trkpt>
      <trkpt lat="45.62656" lon="-1.03151">
        <ele>0.20000000298023</ele>
        <time>2021-08-02T14:37:48Z</time>
      </trkpt>
      <trkpt lat="45.62535" lon="-1.03057">
        <ele>-1.2000000476837</ele>
        <time>2021-08-02T14:38:26Z</time>
      </trkpt>
      <trkpt lat="45.62475" lon="-1.03004">
        <ele>-1.6000000238419</ele>
        <time>2021-08-02T14:38:41Z</time>
      </trkpt>
      <trkpt lat="45.62396" lon="-1.02948">
        <ele>-2</ele>
        <time>2021-08-02T14:39:55Z</time>
      </trkpt>
      <trkpt lat="45.6232" lon="-1.03081">
        <ele>-0.40000000596046</ele>
        <time>2021-08-02T14:43:04Z</time>
      </trkpt>
      <trkpt lat="45.62204" lon="-1.03116">
        <ele>3</ele>
        <time>2021-08-02T14:43:46Z</time>
      </trkpt>
      <trkpt lat="45.62067" lon="-1.0308">
        <ele>3.4000000953674</ele>
        <time>2021-08-02T14:44:22Z</time>
      </trkpt>
      <trkpt lat="45.62018" lon="-1.03123">
        <ele>3.5999999046326</ele>
        <time>2021-08-02T14:44:35Z</time>
      </trkpt>
      <trkpt lat="45.61953" lon="-1.03197">
        <ele>4.4000000953674</ele>
        <time>2021-08-02T14:44:56Z</time>
      </trkpt>
      <trkpt lat="45.61955" lon="-1.03291">
        <ele>4.8000001907349</ele>
        <time>2021-08-02T14:45:14Z</time>
      </trkpt>
      <trkpt lat="45.61984" lon="-1.0336">
        <ele>5</ele>
        <time>2021-08-02T14:45:29Z</time>
      </trkpt>
      <trkpt lat="45.56741" lon="-1.06433">
        <ele>5</ele>
        <time>2021-08-03T07:34:11Z</time>
      </trkpt>
      <trkpt lat="45.56728" lon="-1.06457">
        <ele>0.60000002384186</ele>
        <time>2021-08-03T07:34:19Z</time>
      </trkpt>
      <trkpt lat="45.56727" lon="-1.06459">
        <ele>0.80000001192093</ele>
        <time>2021-08-03T07:34:20Z</time>
      </trkpt>
      <trkpt lat="45.56728" lon="-1.06465">
        <ele>0.80000001192093</ele>
        <time>2021-08-03T07:34:24Z</time>
      </trkpt>
      <trkpt lat="45.56758" lon="-1.0645">
        <ele>0.80000001192093</ele>
        <time>2021-08-03T07:34:39Z</time>
      </trkpt>
      <trkpt lat="45.56792" lon="-1.06428">
        <ele>1</ele>
        <time>2021-08-03T07:34:51Z</time>
      </trkpt>
      <trkpt lat="45.56821" lon="-1.06367">
        <ele>1</ele>
        <time>2021-08-03T07:35:05Z</time>
      </trkpt>
      <trkpt lat="45.56845" lon="-1.06301">
        <ele>1</ele>
        <time>2021-08-03T07:35:18Z</time>
      </trkpt>
      <trkpt lat="45.56953" lon="-1.06301">
        <ele>0.80000001192093</ele>
        <time>2021-08-03T07:39:56Z</time>
      </trkpt>
      <trkpt lat="45.56786" lon="-1.0646">
        <ele>1</ele>
        <time>2021-08-03T07:40:46Z</time>
      </trkpt>
      <trkpt lat="45.56745" lon="-1.06496">
        <ele>1</ele>
        <time>2021-08-03T07:40:57Z</time>
      </trkpt>
      <trkpt lat="45.56658" lon="-1.06546">
        <ele>0.80000001192093</ele>
        <time>2021-08-03T07:41:16Z</time>
      </trkpt>
      <trkpt lat="45.56295" lon="-1.06805">
        <ele>1</ele>
        <time>2021-08-03T07:42:38Z</time>
      </trkpt>
      <trkpt lat="45.56134" lon="-1.06793">
        <ele>0.80000001192093</ele>
        <time>2021-08-03T07:43:07Z</time>
      </trkpt>
      <trkpt lat="45.56101" lon="-1.06774">
        <ele>1.2000000476837</ele>
        <time>2021-08-03T07:43:13Z</time>
      </trkpt>
      <trkpt lat="45.56045" lon="-1.06758">
        <ele>1.2000000476837</ele>
        <time>2021-08-03T07:43:24Z</time>
      </trkpt>
      <trkpt lat="45.55978" lon="-1.06758">
        <ele>1</ele>
        <time>2021-08-03T07:43:36Z</time>
      </trkpt>
      <trkpt lat="45.55917" lon="-1.06745">
        <ele>0.80000001192093</ele>
        <time>2021-08-03T07:43:47Z</time>
      </trkpt>
      <trkpt lat="45.55896" lon="-1.06742">
        <ele>0.60000002384186</ele>
        <time>2021-08-03T07:43:53Z</time>
      </trkpt>
      <trkpt lat="45.55855" lon="-1.06751">
        <ele>0.60000002384186</ele>
        <time>2021-08-03T07:44:05Z</time>
      </trkpt>
      <trkpt lat="45.55776" lon="-1.06733">
        <ele>0.20000000298023</ele>
        <time>2021-08-03T07:44:33Z</time>
      </trkpt>
      <trkpt lat="45.55881" lon="-1.06743">
        <ele>0.60000002384186</ele>
        <time>2021-08-03T07:45:14Z</time>
      </trkpt>
      <trkpt lat="45.55908" lon="-1.06724">
        <ele>0.40000000596046</ele>
        <time>2021-08-03T07:47:54Z</time>
      </trkpt>
      <trkpt lat="45.5585" lon="-1.067">
        <ele>0.60000002384186</ele>
        <time>2021-08-03T07:48:22Z</time>
      </trkpt>
      <trkpt lat="45.55819" lon="-1.06687">
        <ele>0.80000001192093</ele>
        <time>2021-08-03T07:48:29Z</time>
      </trkpt>
      <trkpt lat="45.55712" lon="-1.06626">
        <ele>0.60000002384186</ele>
        <time>2021-08-03T07:48:50Z</time>
      </trkpt>
      <trkpt lat="45.5558" lon="-1.06551">
        <ele>0.80000001192093</ele>
        <time>2021-08-03T07:49:13Z</time>
      </trkpt>
      <trkpt lat="45.55481" lon="-1.06491">
        <ele>1.2000000476837</ele>
        <time>2021-08-03T07:49:33Z</time>
      </trkpt>
      <trkpt lat="45.55243" lon="-1.06324">
        <ele>1.2000000476837</ele>
        <time>2021-08-03T07:50:20Z</time>
      </trkpt>
      <trkpt lat="45.55211" lon="-1.06314">
        <ele>1.2000000476837</ele>
        <time>2021-08-03T07:50:27Z</time>
      </trkpt>
      <trkpt lat="45.55192" lon="-1.06308">
        <ele>1.2000000476837</ele>
        <time>2021-08-03T07:50:33Z</time>
      </trkpt>
      <trkpt lat="45.55182" lon="-1.06291">
        <ele>1.2000000476837</ele>
        <time>2021-08-03T07:50:39Z</time>
      </trkpt>
      <trkpt lat="45.55178" lon="-1.06266">
        <ele>1</ele>
        <time>2021-08-03T07:50:43Z</time>
      </trkpt>
      <trkpt lat="45.55036" lon="-1.06079">
        <ele>0.80000001192093</ele>
        <time>2021-08-03T07:51:21Z</time>
      </trkpt>
      <trkpt lat="45.55002" lon="-1.06061">
        <ele>0.80000001192093</ele>
        <time>2021-08-03T07:51:28Z</time>
      </trkpt>
      <trkpt lat="45.54963" lon="-1.06053">
        <ele>0.40000000596046</ele>
        <time>2021-08-03T07:51:35Z</time>
      </trkpt>
      <trkpt lat="45.54876" lon="-1.06029">
        <ele>1.7999999523163</ele>
        <time>2021-08-03T07:51:55Z</time>
      </trkpt>
      <trkpt lat="45.54848" lon="-1.06032">
        <ele>2</ele>
        <time>2021-08-03T07:52:01Z</time>
      </trkpt>
      <trkpt lat="45.5483" lon="-1.06048">
        <ele>2</ele>
        <time>2021-08-03T07:52:05Z</time>
      </trkpt>
      <trkpt lat="45.54797" lon="-1.06088">
        <ele>1</ele>
        <time>2021-08-03T07:52:12Z</time>
      </trkpt>
      <trkpt lat="45.54639" lon="-1.06086">
        <ele>0.40000000596046</ele>
        <time>2021-08-03T07:52:44Z</time>
      </trkpt>
      <trkpt lat="45.54624" lon="-1.06124">
        <ele>0.20000000298023</ele>
        <time>2021-08-03T07:52:53Z</time>
      </trkpt>
      <trkpt lat="45.54583" lon="-1.06234">
        <ele>1</ele>
        <time>2021-08-03T07:53:14Z</time>
      </trkpt>
      <trkpt lat="45.54547" lon="-1.063">
        <ele>1</ele>
        <time>2021-08-03T07:53:28Z</time>
      </trkpt>
      <trkpt lat="45.54501" lon="-1.06336">
        <ele>1.6000000238419</ele>
        <time>2021-08-03T07:54:31Z</time>
      </trkpt>
      <trkpt lat="45.54497" lon="-1.0633">
        <ele>1.6000000238419</ele>
        <time>2021-08-03T07:54:33Z</time>
      </trkpt>
      <trkpt lat="45.54463" lon="-1.06272">
        <ele>1.2000000476837</ele>
        <time>2021-08-03T07:54:46Z</time>
      </trkpt>
      <trkpt lat="45.54419" lon="-1.06264">
        <ele>1.2000000476837</ele>
        <time>2021-08-03T07:55:01Z</time>
      </trkpt>
      <trkpt lat="45.54397" lon="-1.06299">
        <ele>1.2000000476837</ele>
        <time>2021-08-03T07:55:08Z</time>
      </trkpt>
      <trkpt lat="45.54385" lon="-1.06324">
        <ele>1.2000000476837</ele>
        <time>2021-08-03T07:55:13Z</time>
      </trkpt>
      <trkpt lat="45.54347" lon="-1.06396">
        <ele>1.2000000476837</ele>
        <time>2021-08-03T07:55:27Z</time>
      </trkpt>
      <trkpt lat="45.54343" lon="-1.06422">
        <ele>1</ele>
        <time>2021-08-03T07:55:33Z</time>
      </trkpt>
      <trkpt lat="45.54324" lon="-1.0653">
        <ele>1.3999999761581</ele>
        <time>2021-08-03T07:55:54Z</time>
      </trkpt>
      <trkpt lat="45.54301" lon="-1.06658">
        <ele>1.3999999761581</ele>
        <time>2021-08-03T07:56:12Z</time>
      </trkpt>
      <trkpt lat="45.54264" lon="-1.06827">
        <ele>1.2000000476837</ele>
        <time>2021-08-03T07:56:35Z</time>
      </trkpt>
      <trkpt lat="45.54225" lon="-1.07115">
        <ele>0.80000001192093</ele>
        <time>2021-08-03T07:57:12Z</time>
      </trkpt>
      <trkpt lat="45.54225" lon="-1.07802">
        <ele>0.20000000298023</ele>
        <time>2021-08-03T07:58:38Z</time>
      </trkpt>
      <trkpt lat="45.54221" lon="-1.08005">
        <ele>-0.20000000298023</ele>
        <time>2021-08-03T07:59:04Z</time>
      </trkpt>
      <trkpt lat="45.54225" lon="-1.08134">
        <ele>1</ele>
        <time>2021-08-03T07:59:21Z</time>
      </trkpt>
      <trkpt lat="45.54215" lon="-1.08477">
        <ele>2.4000000953674</ele>
        <time>2021-08-03T08:00:06Z</time>
      </trkpt>
      <trkpt lat="45.54197" lon="-1.08569">
        <ele>2.7999999523163</ele>
        <time>2021-08-03T08:00:20Z</time>
      </trkpt>
      <trkpt lat="45.54124" lon="-1.08784">
        <ele>2</ele>
        <time>2021-08-03T08:00:48Z</time>
      </trkpt>
      <trkpt lat="45.54121" lon="-1.08793">
        <ele>2</ele>
        <time>2021-08-03T08:00:49Z</time>
      </trkpt>
      <trkpt lat="45.54094" lon="-1.0894">
        <ele>2</ele>
        <time>2021-08-03T08:01:06Z</time>
      </trkpt>
      <trkpt lat="45.54088" lon="-1.09025">
        <ele>2</ele>
        <time>2021-08-03T08:01:16Z</time>
      </trkpt>
      <trkpt lat="45.54056" lon="-1.09643">
        <ele>2.7999999523163</ele>
        <time>2021-08-03T08:02:29Z</time>
      </trkpt>
      <trkpt lat="45.53989" lon="-1.09771">
        <ele>1.2000000476837</ele>
        <time>2021-08-03T08:03:04Z</time>
      </trkpt>
      <trkpt lat="45.53901" lon="-1.09823">
        <ele>1</ele>
        <time>2021-08-03T08:03:18Z</time>
      </trkpt>
      <trkpt lat="45.53785" lon="-1.09856">
        <ele>1.3999999761581</ele>
        <time>2021-08-03T08:03:38Z</time>
      </trkpt>
      <trkpt lat="45.5367" lon="-1.09878">
        <ele>1.2000000476837</ele>
        <time>2021-08-03T08:03:57Z</time>
      </trkpt>
      <trkpt lat="45.53624" lon="-1.09886">
        <ele>1.3999999761581</ele>
        <time>2021-08-03T08:04:04Z</time>
      </trkpt>
      <trkpt lat="45.53513" lon="-1.09923">
        <ele>0.80000001192093</ele>
        <time>2021-08-03T08:04:25Z</time>
      </trkpt>
      <trkpt lat="45.53496" lon="-1.09947">
        <ele>0.80000001192093</ele>
        <time>2021-08-03T08:04:29Z</time>
      </trkpt>
      <trkpt lat="45.53388" lon="-1.10044">
        <ele>0.40000000596046</ele>
        <time>2021-08-03T08:04:50Z</time>
      </trkpt>
      <trkpt lat="45.53276" lon="-1.10163">
        <ele>0.60000002384186</ele>
        <time>2021-08-03T08:05:14Z</time>
      </trkpt>
      <trkpt lat="45.53239" lon="-1.10224">
        <ele>1</ele>
        <time>2021-08-03T08:05:25Z</time>
      </trkpt>
      <trkpt lat="45.52984" lon="-1.10614">
        <ele>2.7999999523163</ele>
        <time>2021-08-03T08:06:32Z</time>
      </trkpt>
      <trkpt lat="45.52768" lon="-1.10718">
        <ele>2.4000000953674</ele>
        <time>2021-08-03T08:07:07Z</time>
      </trkpt>
      <trkpt lat="45.52434" lon="-1.10717">
        <ele>2.5999999046326</ele>
        <time>2021-08-03T08:08:02Z</time>
      </trkpt>
      <trkpt lat="45.52379" lon="-1.1072">
        <ele>2.5999999046326</ele>
        <time>2021-08-03T08:08:11Z</time>
      </trkpt>
      <trkpt lat="45.5214" lon="-1.10736">
        <ele>3.4000000953674</ele>
        <time>2021-08-03T08:08:50Z</time>
      </trkpt>
      <trkpt lat="45.52081" lon="-1.10765">
        <ele>2.2000000476837</ele>
        <time>2021-08-03T08:11:57Z</time>
      </trkpt>
      <trkpt lat="45.52069" lon="-1.10778">
        <ele>2.2000000476837</ele>
        <time>2021-08-03T08:12:03Z</time>
      </trkpt>
      <trkpt lat="45.51986" lon="-1.10825">
        <ele>2.5999999046326</ele>
        <time>2021-08-03T08:12:35Z</time>
      </trkpt>
      <trkpt lat="45.51547" lon="-1.11202">
        <ele>2.2000000476837</ele>
        <time>2021-08-03T08:14:07Z</time>
      </trkpt>
      <trkpt lat="45.51143" lon="-1.11418">
        <ele>0.80000001192093</ele>
        <time>2021-08-03T08:15:19Z</time>
      </trkpt>
      <trkpt lat="45.50895" lon="-1.11151">
        <ele>1.7999999523163</ele>
        <time>2021-08-03T08:16:14Z</time>
      </trkpt>
      <trkpt lat="45.50869" lon="-1.11059">
        <ele>1.3999999761581</ele>
        <time>2021-08-03T08:16:25Z</time>
      </trkpt>
      <trkpt lat="45.50821" lon="-1.1083">
        <ele>0.80000001192093</ele>
        <time>2021-08-03T08:16:53Z</time>
      </trkpt>
      <trkpt lat="45.50648" lon="-1.09984">
        <ele>1</ele>
        <time>2021-08-03T08:18:31Z</time>
      </trkpt>
      <trkpt lat="45.50582" lon="-1.0963">
        <ele>1.2000000476837</ele>
        <time>2021-08-03T08:19:11Z</time>
      </trkpt>
      <trkpt lat="45.50585" lon="-1.09587">
        <ele>1.2000000476837</ele>
        <time>2021-08-03T08:19:16Z</time>
      </trkpt>
      <trkpt lat="45.50614" lon="-1.09329">
        <ele>0.40000000596046</ele>
        <time>2021-08-03T08:19:46Z</time>
      </trkpt>
      <trkpt lat="45.50614" lon="-1.09286">
        <ele>0.20000000298023</ele>
        <time>2021-08-03T08:19:52Z</time>
      </trkpt>
      <trkpt lat="45.50616" lon="-1.09249">
        <ele>2.8</ele>
        <time>2021-08-03T08:19:58Z</time>
      </trkpt>
      <trkpt lat="45.50626" lon="-1.09046">
        <ele>2.5</ele>
        <time>2021-08-03T08:20:24Z</time>
      </trkpt>
      <trkpt lat="45.50624" lon="-1.08965">
        <ele>2.3</ele>
        <time>2021-08-03T08:20:34Z</time>
      </trkpt>
      <trkpt lat="45.50454" lon="-1.0847">
        <ele>0.20000000298023</ele>
        <time>2021-08-03T08:21:50Z</time>
      </trkpt>
      <trkpt lat="45.50389" lon="-1.08429">
        <ele>3</ele>
        <time>2021-08-03T08:22:02Z</time>
      </trkpt>
      <trkpt lat="45.50288" lon="-1.08354">
        <ele>0.40000000596046</ele>
        <time>2021-08-03T08:22:23Z</time>
      </trkpt>
      <trkpt lat="45.50211" lon="-1.08263">
        <ele>-0.20000000298023</ele>
        <time>2021-08-03T08:22:41Z</time>
      </trkpt>
      <trkpt lat="45.49865" lon="-1.07787">
        <ele>-0.40000000596046</ele>
        <time>2021-08-03T08:24:03Z</time>
      </trkpt>
      <trkpt lat="45.49744" lon="-1.07697">
        <ele>-0.60000002384186</ele>
        <time>2021-08-03T08:24:26Z</time>
      </trkpt>
      <trkpt lat="45.49203" lon="-1.07349">
        <ele>-0.40000000596046</ele>
        <time>2021-08-03T08:26:06Z</time>
      </trkpt>
      <trkpt lat="45.48799" lon="-1.07109">
        <ele>3</ele>
        <time>2021-08-03T08:27:18Z</time>
      </trkpt>
      <trkpt lat="45.4875" lon="-1.07094">
        <ele>-0.20000000298023</ele>
        <time>2021-08-03T08:27:26Z</time>
      </trkpt>
      <trkpt lat="45.48607" lon="-1.0704">
        <ele>0.20000000298023</ele>
        <time>2021-08-03T08:27:51Z</time>
      </trkpt>
      <trkpt lat="45.48553" lon="-1.07001">
        <ele>0.20000000298023</ele>
        <time>2021-08-03T08:28:01Z</time>
      </trkpt>
      <trkpt lat="45.48283" lon="-1.06791">
        <ele>-0.40000000596046</ele>
        <time>2021-08-03T08:28:51Z</time>
      </trkpt>
      <trkpt lat="45.48232" lon="-1.06723">
        <ele>-0.20000000298023</ele>
        <time>2021-08-03T08:29:02Z</time>
      </trkpt>
      <trkpt lat="45.48008" lon="-1.06359">
        <ele>-0.40000000596046</ele>
        <time>2021-08-03T08:29:56Z</time>
      </trkpt>
      <trkpt lat="45.47927" lon="-1.06264">
        <ele>-0.60000002384186</ele>
        <time>2021-08-03T08:30:13Z</time>
      </trkpt>
      <trkpt lat="45.47814" lon="-1.06135">
        <ele>-0.60000002384186</ele>
        <time>2021-08-03T08:30:37Z</time>
      </trkpt>
      <trkpt lat="45.4763" lon="-1.06043">
        <ele>-0.60000002384186</ele>
        <time>2021-08-03T08:31:10Z</time>
      </trkpt>
      <trkpt lat="45.47501" lon="-1.05899">
        <ele>-0.60000002384186</ele>
        <time>2021-08-03T08:31:39Z</time>
      </trkpt>
      <trkpt lat="45.47457" lon="-1.05864">
        <ele>-1</ele>
        <time>2021-08-03T08:31:48Z</time>
      </trkpt>
      <trkpt lat="45.47268" lon="-1.05727">
        <ele>0.60000002384186</ele>
        <time>2021-08-03T08:32:28Z</time>
      </trkpt>
      <trkpt lat="45.47165" lon="-1.05621">
        <ele>2.4000000953674</ele>
        <time>2021-08-03T08:32:56Z</time>
      </trkpt>
      <trkpt lat="45.46913" lon="-1.05358">
        <ele>2</ele>
        <time>2021-08-03T08:33:53Z</time>
      </trkpt>
      <trkpt lat="45.46702" lon="-1.05196">
        <ele>1.6000000238419</ele>
        <time>2021-08-03T08:34:29Z</time>
      </trkpt>
      <trkpt lat="45.46315" lon="-1.04696">
        <ele>-0.40000000596046</ele>
        <time>2021-08-03T08:35:50Z</time>
      </trkpt>
      <trkpt lat="45.46217" lon="-1.04609">
        <ele>-0.40000000596046</ele>
        <time>2021-08-03T08:36:09Z</time>
      </trkpt>
      <trkpt lat="45.46007" lon="-1.04462">
        <ele>-0.60000002384186</ele>
        <time>2021-08-03T08:36:47Z</time>
      </trkpt>
      <trkpt lat="45.4596" lon="-1.04437">
        <ele>-0.80000001192093</ele>
        <time>2021-08-03T08:36:55Z</time>
      </trkpt>
      <trkpt lat="45.45775" lon="-1.04349">
        <ele>-0.80000001192093</ele>
        <time>2021-08-03T08:37:27Z</time>
      </trkpt>
      <trkpt lat="45.4567" lon="-1.04343">
        <ele>-1</ele>
        <time>2021-08-03T08:37:44Z</time>
      </trkpt>
      <trkpt lat="45.45112" lon="-1.04373">
        <ele>-0.20000000298023</ele>
        <time>2021-08-03T08:39:27Z</time>
      </trkpt>
      <trkpt lat="45.44923" lon="-1.04416">
        <ele>-0.60000002384186</ele>
        <time>2021-08-03T08:43:35Z</time>
      </trkpt>
      <trkpt lat="45.44591" lon="-1.04564">
        <ele>-0.20000000298023</ele>
        <time>2021-08-03T08:44:38Z</time>
      </trkpt>
      <trkpt lat="45.44441" lon="-1.04543">
        <ele>0.60000002384186</ele>
        <time>2021-08-03T08:45:06Z</time>
      </trkpt>
      <trkpt lat="45.4432" lon="-1.045">
        <ele>0.40000000596046</ele>
        <time>2021-08-03T08:45:28Z</time>
      </trkpt>
      <trkpt lat="45.44268" lon="-1.04499">
        <ele>0.40000000596046</ele>
        <time>2021-08-03T08:45:37Z</time>
      </trkpt>
      <trkpt lat="45.43962" lon="-1.04525">
        <ele>3</ele>
        <time>2021-08-03T08:46:29Z</time>
      </trkpt>
      <trkpt lat="45.43777" lon="-1.04359">
        <ele>-0.60000002384186</ele>
        <time>2021-08-03T08:47:05Z</time>
      </trkpt>
      <trkpt lat="45.43764" lon="-1.04346">
        <ele>-0.60000002384186</ele>
        <time>2021-08-03T08:47:08Z</time>
      </trkpt>
      <trkpt lat="45.43724" lon="-1.04294">
        <ele>-0.20000000298023</ele>
        <time>2021-08-03T08:47:18Z</time>
      </trkpt>
      <trkpt lat="45.43686" lon="-1.04247">
        <ele>4</ele>
        <time>2021-08-03T08:47:27Z</time>
      </trkpt>
      <trkpt lat="45.43432" lon="-1.03835">
        <ele>-0.20000000298023</ele>
        <time>2021-08-03T08:48:32Z</time>
      </trkpt>
      <trkpt lat="45.43382" lon="-1.03783">
        <ele>-0.20000000298023</ele>
        <time>2021-08-03T08:48:42Z</time>
      </trkpt>
      <trkpt lat="45.43332" lon="-1.03737">
        <ele>-0.20000000298023</ele>
        <time>2021-08-03T08:48:52Z</time>
      </trkpt>
      <trkpt lat="45.43281" lon="-1.03668">
        <ele>0.40000000596046</ele>
        <time>2021-08-03T08:49:04Z</time>
      </trkpt>
      <trkpt lat="45.43229" lon="-1.0359">
        <ele>0.40000000596046</ele>
        <time>2021-08-03T08:49:17Z</time>
      </trkpt>
      <trkpt lat="45.4305" lon="-1.03528">
        <ele>1.7999999523163</ele>
        <time>2021-08-03T08:50:17Z</time>
      </trkpt>
      <trkpt lat="45.43057" lon="-1.03505">
        <ele>1.3999999761581</ele>
        <time>2021-08-03T08:51:27Z</time>
      </trkpt>
      <trkpt lat="45.43045" lon="-1.03403">
        <ele>1.2000000476837</ele>
        <time>2021-08-03T08:51:48Z</time>
      </trkpt>
      <trkpt lat="45.43036" lon="-1.03342">
        <ele>1</ele>
        <time>2021-08-03T08:51:57Z</time>
      </trkpt>
      <trkpt lat="45.42891" lon="-1.02728">
        <ele>-0.60000002384186</ele>
        <time>2021-08-03T08:53:18Z</time>
      </trkpt>
      <trkpt lat="45.42872" lon="-1.02632">
        <ele>-0.80000001192093</ele>
        <time>2021-08-03T08:53:30Z</time>
      </trkpt>
      <trkpt lat="45.42863" lon="-1.02478">
        <ele>-0.80000001192093</ele>
        <time>2021-08-03T08:53:48Z</time>
      </trkpt>
      <trkpt lat="45.42786" lon="-1.01494">
        <ele>-1</ele>
        <time>2021-08-03T08:55:45Z</time>
      </trkpt>
      <trkpt lat="45.42727" lon="-1.01056">
        <ele>-1.3999999761581</ele>
        <time>2021-08-03T08:56:38Z</time>
      </trkpt>
      <trkpt lat="45.42706" lon="-1.00975">
        <ele>-1.3999999761581</ele>
        <time>2021-08-03T08:56:48Z</time>
      </trkpt>
      <trkpt lat="45.42304" lon="-0.99723">
        <ele>-1.6000000238419</ele>
        <time>2021-08-03T08:59:24Z</time>
      </trkpt>
      <trkpt lat="45.42232" lon="-0.99501">
        <ele>-1.3999999761581</ele>
        <time>2021-08-03T08:59:52Z</time>
      </trkpt>
      <trkpt lat="45.42219" lon="-0.99361">
        <ele>-1.3999999761581</ele>
        <time>2021-08-03T09:00:08Z</time>
      </trkpt>
      <trkpt lat="45.42198" lon="-0.98109">
        <ele>-0.80000001192093</ele>
        <time>2021-08-03T09:02:33Z</time>
      </trkpt>
      <trkpt lat="45.42194" lon="-0.98064">
        <ele>-1</ele>
        <time>2021-08-03T09:02:40Z</time>
      </trkpt>
      <trkpt lat="45.42186" lon="-0.97996">
        <ele>-1</ele>
        <time>2021-08-03T09:02:50Z</time>
      </trkpt>
      <trkpt lat="45.42094" lon="-0.97813">
        <ele>-1.2000000476837</ele>
        <time>2021-08-03T09:03:17Z</time>
      </trkpt>
      <trkpt lat="45.42026" lon="-0.97712">
        <ele>-1.2000000476837</ele>
        <time>2021-08-03T09:03:33Z</time>
      </trkpt>
      <trkpt lat="45.42016" lon="-0.97703">
        <ele>-1.2000000476837</ele>
        <time>2021-08-03T09:03:35Z</time>
      </trkpt>
      <trkpt lat="45.41983" lon="-0.97674">
        <ele>-1.3999999761581</ele>
        <time>2021-08-03T09:03:42Z</time>
      </trkpt>
      <trkpt lat="45.41891" lon="-0.97552">
        <ele>-0.80000001192093</ele>
        <time>2021-08-03T09:04:05Z</time>
      </trkpt>
      <trkpt lat="45.41748" lon="-0.97408">
        <ele>2.5999999046326</ele>
        <time>2021-08-03T09:04:52Z</time>
      </trkpt>
      <trkpt lat="45.41708" lon="-0.97378">
        <ele>3.5999999046326</ele>
        <time>2021-08-03T09:05:05Z</time>
      </trkpt>
      <trkpt lat="45.4169" lon="-0.97356">
        <ele>3.7999999523163</ele>
        <time>2021-08-03T09:05:12Z</time>
      </trkpt>
      <trkpt lat="45.41667" lon="-0.97317">
        <ele>4.4000000953674</ele>
        <time>2021-08-03T09:05:20Z</time>
      </trkpt>
      <trkpt lat="45.41595" lon="-0.97193">
        <ele>4.4000000953674</ele>
        <time>2021-08-03T09:05:43Z</time>
      </trkpt>
      <trkpt lat="45.41522" lon="-0.97115">
        <ele>4</ele>
        <time>2021-08-03T09:06:00Z</time>
      </trkpt>
      <trkpt lat="45.41301" lon="-0.96914">
        <ele>1</ele>
        <time>2021-08-03T09:06:40Z</time>
      </trkpt>
      <trkpt lat="45.41225" lon="-0.96842">
        <ele>-0.60000002384186</ele>
        <time>2021-08-03T09:06:53Z</time>
      </trkpt>
      <trkpt lat="45.41221" lon="-0.96836">
        <ele>-0.80000001192093</ele>
        <time>2021-08-03T09:06:54Z</time>
      </trkpt>
      <trkpt lat="45.41202" lon="-0.96801">
        <ele>-0.80000001192093</ele>
        <time>2021-08-03T09:06:59Z</time>
      </trkpt>
      <trkpt lat="45.41177" lon="-0.9674">
        <ele>-1</ele>
        <time>2021-08-03T09:07:08Z</time>
      </trkpt>
      <trkpt lat="45.41125" lon="-0.96732">
        <ele>-1</ele>
        <time>2021-08-03T09:07:20Z</time>
      </trkpt>
      <trkpt lat="45.40669" lon="-0.96724">
        <ele>2</ele>
        <time>2021-08-03T09:08:59Z</time>
      </trkpt>
      <trkpt lat="45.40526" lon="-0.96698">
        <ele>4.8000001907349</ele>
        <time>2021-08-03T09:09:35Z</time>
      </trkpt>
      <trkpt lat="45.40525" lon="-0.96701">
        <ele>5</ele>
        <time>2021-08-03T09:09:37Z</time>
      </trkpt>
      <trkpt lat="45.40523" lon="-0.967">
        <ele>4</ele>
        <time>2021-08-03T09:20:35Z</time>
      </trkpt>
      <trkpt lat="45.40388" lon="-0.96707">
        <ele>3.5999999046326</ele>
        <time>2021-08-03T09:21:07Z</time>
      </trkpt>
      <trkpt lat="45.40321" lon="-0.96715">
        <ele>2.2000000476837</ele>
        <time>2021-08-03T09:21:18Z</time>
      </trkpt>
      <trkpt lat="45.40016" lon="-0.96764">
        <ele>0.20000000298023</ele>
        <time>2021-08-03T09:22:14Z</time>
      </trkpt>
      <trkpt lat="45.3987" lon="-0.96757">
        <ele>-1.2000000476837</ele>
        <time>2021-08-03T09:22:40Z</time>
      </trkpt>
      <trkpt lat="45.39839" lon="-0.96767">
        <ele>-1</ele>
        <time>2021-08-03T09:22:47Z</time>
      </trkpt>
      <trkpt lat="45.39757" lon="-0.9666">
        <ele>0.60000002384186</ele>
        <time>2021-08-03T09:23:28Z</time>
      </trkpt>
      <trkpt lat="45.39673" lon="-0.96709">
        <ele>-0.20000000298023</ele>
        <time>2021-08-03T09:23:44Z</time>
      </trkpt>
      <trkpt lat="45.3965" lon="-0.96718">
        <ele>-0.40000000596046</ele>
        <time>2021-08-03T09:23:48Z</time>
      </trkpt>
      <trkpt lat="45.3959" lon="-0.9673">
        <ele>-1.3999999761581</ele>
        <time>2021-08-03T09:23:55Z</time>
      </trkpt>
      <trkpt lat="45.39518" lon="-0.96745">
        <ele>-2.5999999046326</ele>
        <time>2021-08-03T09:24:05Z</time>
      </trkpt>
      <trkpt lat="45.39464" lon="-0.96791">
        <ele>-3.2000000476837</ele>
        <time>2021-08-03T09:24:15Z</time>
      </trkpt>
      <trkpt lat="45.39091" lon="-0.97148">
        <ele>-4.1999998092651</ele>
        <time>2021-08-03T09:25:36Z</time>
      </trkpt>
      <trkpt lat="45.39066" lon="-0.97135">
        <ele>-4.4000000953674</ele>
        <time>2021-08-03T09:25:42Z</time>
      </trkpt>
      <trkpt lat="45.38631" lon="-0.96211">
        <ele>-4.1999998092651</ele>
        <time>2021-08-03T09:27:53Z</time>
      </trkpt>
      <trkpt lat="45.38548" lon="-0.96038">
        <ele>-4.1999998092651</ele>
        <time>2021-08-03T09:28:17Z</time>
      </trkpt>
      <trkpt lat="45.38466" lon="-0.9588">
        <ele>-4.1999998092651</ele>
        <time>2021-08-03T09:28:39Z</time>
      </trkpt>
      <trkpt lat="45.38141" lon="-0.95207">
        <ele>-5</ele>
        <time>2021-08-03T09:30:13Z</time>
      </trkpt>
      <trkpt lat="45.37682" lon="-0.94398">
        <ele>-3.5999999046326</ele>
        <time>2021-08-03T09:32:16Z</time>
      </trkpt>
      <trkpt lat="45.3765" lon="-0.94303">
        <ele>-3.7999999523163</ele>
        <time>2021-08-03T09:32:29Z</time>
      </trkpt>
      <trkpt lat="45.37541" lon="-0.93736">
        <ele>-2.2000000476837</ele>
        <time>2021-08-03T09:33:47Z</time>
      </trkpt>
      <trkpt lat="45.37598" lon="-0.93497">
        <ele>-2</ele>
        <time>2021-08-03T09:34:25Z</time>
      </trkpt>
      <trkpt lat="45.37424" lon="-0.93204">
        <ele>-2.4000000953674</ele>
        <time>2021-08-03T09:35:10Z</time>
      </trkpt>
      <trkpt lat="45.37408" lon="-0.93159">
        <ele>-2.5999999046326</ele>
        <time>2021-08-03T09:35:17Z</time>
      </trkpt>
      <trkpt lat="45.37059" lon="-0.92463">
        <ele>-1</ele>
        <time>2021-08-03T09:37:05Z</time>
      </trkpt>
      <trkpt lat="45.37043" lon="-0.92414">
        <ele>-1</ele>
        <time>2021-08-03T09:37:12Z</time>
      </trkpt>
      <trkpt lat="45.37004" lon="-0.92299">
        <ele>-0.80000001192093</ele>
        <time>2021-08-03T09:37:27Z</time>
      </trkpt>
      <trkpt lat="45.37" lon="-0.92281">
        <ele>-0.80000001192093</ele>
        <time>2021-08-03T09:37:29Z</time>
      </trkpt>
      <trkpt lat="45.36942" lon="-0.92048">
        <ele>-0.60000002384186</ele>
        <time>2021-08-03T09:37:58Z</time>
      </trkpt>
      <trkpt lat="45.36921" lon="-0.91951">
        <ele>-0.20000000298023</ele>
        <time>2021-08-03T09:38:13Z</time>
      </trkpt>
      <trkpt lat="45.36898" lon="-0.91845">
        <ele>0.80000001192093</ele>
        <time>2021-08-03T09:38:30Z</time>
      </trkpt>
      <trkpt lat="45.36881" lon="-0.91785">
        <ele>1.7999999523163</ele>
        <time>2021-08-03T09:38:40Z</time>
      </trkpt>
      <trkpt lat="45.36836" lon="-0.91681">
        <ele>2.7999999523163</ele>
        <time>2021-08-03T09:38:58Z</time>
      </trkpt>
      <trkpt lat="45.36821" lon="-0.91631">
        <ele>2.7999999523163</ele>
        <time>2021-08-03T09:39:05Z</time>
      </trkpt>
      <trkpt lat="45.36802" lon="-0.91568">
        <ele>2.5999999046326</ele>
        <time>2021-08-03T09:39:13Z</time>
      </trkpt>
      <trkpt lat="45.36782" lon="-0.91514">
        <ele>2</ele>
        <time>2021-08-03T09:39:21Z</time>
      </trkpt>
      <trkpt lat="45.36741" lon="-0.91415">
        <ele>1.6000000238419</ele>
        <time>2021-08-03T09:39:37Z</time>
      </trkpt>
      <trkpt lat="45.36708" lon="-0.91374">
        <ele>1.3999999761581</ele>
        <time>2021-08-03T09:39:45Z</time>
      </trkpt>
      <trkpt lat="45.36559" lon="-0.91182">
        <ele>1</ele>
        <time>2021-08-03T09:40:29Z</time>
      </trkpt>
      <trkpt lat="45.36519" lon="-0.91011">
        <ele>1.2000000476837</ele>
        <time>2021-08-03T09:40:55Z</time>
      </trkpt>
      <trkpt lat="45.36494" lon="-0.90917">
        <ele>1.6000000238419</ele>
        <time>2021-08-03T09:41:08Z</time>
      </trkpt>
      <trkpt lat="45.36467" lon="-0.90737">
        <ele>2.2000000476837</ele>
        <time>2021-08-03T09:41:32Z</time>
      </trkpt>
      <trkpt lat="45.3646" lon="-0.90626">
        <ele>1.7999999523163</ele>
        <time>2021-08-03T09:41:45Z</time>
      </trkpt>
      <trkpt lat="45.36448" lon="-0.90559">
        <ele>1.3999999761581</ele>
        <time>2021-08-03T09:41:52Z</time>
      </trkpt>
      <trkpt lat="45.36433" lon="-0.90492">
        <ele>0.60000002384186</ele>
        <time>2021-08-03T09:42:00Z</time>
      </trkpt>
      <trkpt lat="45.36425" lon="-0.90463">
        <ele>0.40000000596046</ele>
        <time>2021-08-03T09:42:03Z</time>
      </trkpt>
      <trkpt lat="45.36412" lon="-0.90425">
        <ele>6</ele>
        <time>2021-08-03T09:42:07Z</time>
      </trkpt>
      <trkpt lat="45.36385" lon="-0.90374">
        <ele>-0.20000000298023</ele>
        <time>2021-08-03T09:42:13Z</time>
      </trkpt>
      <trkpt lat="45.36264" lon="-0.90173">
        <ele>7.6</ele>
        <time>2021-08-03T09:42:44Z</time>
      </trkpt>
      <trkpt lat="45.36261" lon="-0.90166">
        <ele>7.6</ele>
        <time>2021-08-03T09:42:45Z</time>
      </trkpt>
      <trkpt lat="45.36201" lon="-0.9004">
        <ele>0.80000001192093</ele>
        <time>2021-08-03T09:43:03Z</time>
      </trkpt>
      <trkpt lat="45.36105" lon="-0.89917">
        <ele>2</ele>
        <time>2021-08-03T09:43:26Z</time>
      </trkpt>
      <trkpt lat="45.3605" lon="-0.89841">
        <ele>2.7999999523163</ele>
        <time>2021-08-03T09:43:39Z</time>
      </trkpt>
      <trkpt lat="45.36015" lon="-0.89813">
        <ele>3.4000000953674</ele>
        <time>2021-08-03T09:43:46Z</time>
      </trkpt>
      <trkpt lat="45.3588" lon="-0.89728">
        <ele>5.5999999046326</ele>
        <time>2021-08-03T09:44:15Z</time>
      </trkpt>
      <trkpt lat="45.35815" lon="-0.89633">
        <ele>5.1999998092651</ele>
        <time>2021-08-03T09:44:32Z</time>
      </trkpt>
      <trkpt lat="45.35748" lon="-0.89497">
        <ele>3.2000000476837</ele>
        <time>2021-08-03T09:44:51Z</time>
      </trkpt>
      <trkpt lat="45.35658" lon="-0.89351">
        <ele>2.7999999523163</ele>
        <time>2021-08-03T09:45:21Z</time>
      </trkpt>
      <trkpt lat="45.35676" lon="-0.89311">
        <ele>2.5999999046326</ele>
        <time>2021-08-03T09:49:48Z</time>
      </trkpt>
      <trkpt lat="45.35725" lon="-0.89275">
        <ele>2.2000000476837</ele>
        <time>2021-08-03T09:50:03Z</time>
      </trkpt>
      <trkpt lat="45.3577" lon="-0.89249">
        <ele>1.6000000238419</ele>
        <time>2021-08-03T09:50:13Z</time>
      </trkpt>
      <trkpt lat="45.35798" lon="-0.89243">
        <ele>1.3999999761581</ele>
        <time>2021-08-03T09:50:19Z</time>
      </trkpt>
      <trkpt lat="45.35845" lon="-0.89237">
        <ele>1.3999999761581</ele>
        <time>2021-08-03T09:50:29Z</time>
      </trkpt>
      <trkpt lat="45.35892" lon="-0.89228">
        <ele>2.2000000476837</ele>
        <time>2021-08-03T09:50:39Z</time>
      </trkpt>
      <trkpt lat="45.36044" lon="-0.89186">
        <ele>3.7999999523163</ele>
        <time>2021-08-03T09:51:13Z</time>
      </trkpt>
      <trkpt lat="45.36192" lon="-0.89101">
        <ele>4.4000000953674</ele>
        <time>2021-08-03T09:51:50Z</time>
      </trkpt>
      <trkpt lat="45.36357" lon="-0.88975">
        <ele>2.2000000476837</ele>
        <time>2021-08-03T09:52:20Z</time>
      </trkpt>
      <trkpt lat="45.36696" lon="-0.88709">
        <ele>-0.80000001192093</ele>
        <time>2021-08-03T09:53:21Z</time>
      </trkpt>
      <trkpt lat="45.37029" lon="-0.88451">
        <ele>1.2000000476837</ele>
        <time>2021-08-03T09:54:31Z</time>
      </trkpt>
      <trkpt lat="45.37156" lon="-0.88354">
        <ele>0.20000000298023</ele>
        <time>2021-08-03T09:54:55Z</time>
      </trkpt>
      <trkpt lat="45.37219" lon="-0.8827">
        <ele>-0.80000001192093</ele>
        <time>2021-08-03T09:55:08Z</time>
      </trkpt>
      <trkpt lat="45.37364" lon="-0.88023">
        <ele>0.20000000298023</ele>
        <time>2021-08-03T09:55:48Z</time>
      </trkpt>
      <trkpt lat="45.37376" lon="-0.87932">
        <ele>1.3999999761581</ele>
        <time>2021-08-03T09:56:03Z</time>
      </trkpt>
      <trkpt lat="45.37392" lon="-0.87622">
        <ele>-0.20000000298023</ele>
        <time>2021-08-03T09:59:19Z</time>
      </trkpt>
      <trkpt lat="45.37399" lon="-0.87547">
        <ele>6</ele>
        <time>2021-08-03T09:59:35Z</time>
      </trkpt>
      <trkpt lat="45.37402" lon="-0.87487">
        <ele>0.40000000596046</ele>
        <time>2021-08-03T09:59:44Z</time>
      </trkpt>
      <trkpt lat="45.37422" lon="-0.87056">
        <ele>2.5999999046326</ele>
        <time>2021-08-03T10:00:48Z</time>
      </trkpt>
      <trkpt lat="45.37436" lon="-0.86974">
        <ele>2.7999999523163</ele>
        <time>2021-08-03T10:01:00Z</time>
      </trkpt>
      <trkpt lat="45.37471" lon="-0.86796">
        <ele>1</ele>
        <time>2021-08-03T10:01:21Z</time>
      </trkpt>
      <trkpt lat="45.3753" lon="-0.86447">
        <ele>2.4000000953674</ele>
        <time>2021-08-03T10:02:11Z</time>
      </trkpt>
      <trkpt lat="45.37607" lon="-0.85968">
        <ele>0.40000000596046</ele>
        <time>2021-08-03T10:03:08Z</time>
      </trkpt>
      <trkpt lat="45.37607" lon="-0.85904">
        <ele>0.40000000596046</ele>
        <time>2021-08-03T10:03:16Z</time>
      </trkpt>
      <trkpt lat="45.3761" lon="-0.85629">
        <ele>-1.2000000476837</ele>
        <time>2021-08-03T10:03:47Z</time>
      </trkpt>
      <trkpt lat="45.37592" lon="-0.85482">
        <ele>-1.2000000476837</ele>
        <time>2021-08-03T10:04:05Z</time>
      </trkpt>
      <trkpt lat="45.37569" lon="-0.85326">
        <ele>-1</ele>
        <time>2021-08-03T10:04:24Z</time>
      </trkpt>
      <trkpt lat="45.37568" lon="-0.85186">
        <ele>-2</ele>
        <time>2021-08-03T10:04:39Z</time>
      </trkpt>
      <trkpt lat="45.37587" lon="-0.84733">
        <ele>-1.7999999523163</ele>
        <time>2021-08-03T10:05:36Z</time>
      </trkpt>
      <trkpt lat="45.3758" lon="-0.84621">
        <ele>-2.4000000953674</ele>
        <time>2021-08-03T10:05:53Z</time>
      </trkpt>
      <trkpt lat="45.37567" lon="-0.8454">
        <ele>-2.5999999046326</ele>
        <time>2021-08-03T10:06:36Z</time>
      </trkpt>
      <trkpt lat="45.37576" lon="-0.84532">
        <ele>-1.7999999523163</ele>
        <time>2021-08-03T10:21:23Z</time>
      </trkpt>
      <trkpt lat="45.37541" lon="-0.84506">
        <ele>-2.2000000476837</ele>
        <time>2021-08-03T10:21:38Z</time>
      </trkpt>
      <trkpt lat="45.37475" lon="-0.84408">
        <ele>-2.2000000476837</ele>
        <time>2021-08-03T10:22:01Z</time>
      </trkpt>
      <trkpt lat="45.37459" lon="-0.84382">
        <ele>-2.4000000953674</ele>
        <time>2021-08-03T10:22:07Z</time>
      </trkpt>
      <trkpt lat="45.37429" lon="-0.84333">
        <ele>-2.2000000476837</ele>
        <time>2021-08-03T10:22:17Z</time>
      </trkpt>
      <trkpt lat="45.37387" lon="-0.8427">
        <ele>-1.7999999523163</ele>
        <time>2021-08-03T10:22:28Z</time>
      </trkpt>
      <trkpt lat="45.37355" lon="-0.84224">
        <ele>-1.7999999523163</ele>
        <time>2021-08-03T10:22:36Z</time>
      </trkpt>
      <trkpt lat="45.37253" lon="-0.84056">
        <ele>-1.6000000238419</ele>
        <time>2021-08-03T10:23:05Z</time>
      </trkpt>
      <trkpt lat="45.37137" lon="-0.83861">
        <ele>-1.2000000476837</ele>
        <time>2021-08-03T10:23:38Z</time>
      </trkpt>
      <trkpt lat="45.37031" lon="-0.83732">
        <ele>-1.3999999761581</ele>
        <time>2021-08-03T10:24:02Z</time>
      </trkpt>
      <trkpt lat="45.36848" lon="-0.83483">
        <ele>-1.2000000476837</ele>
        <time>2021-08-03T10:24:48Z</time>
      </trkpt>
      <trkpt lat="45.36803" lon="-0.83416">
        <ele>-1.6000000238419</ele>
        <time>2021-08-03T10:24:59Z</time>
      </trkpt>
      <trkpt lat="45.36366" lon="-0.82752">
        <ele>-1.2000000476837</ele>
        <time>2021-08-03T10:26:48Z</time>
      </trkpt>
      <trkpt lat="45.36185" lon="-0.82429">
        <ele>-1.3999999761581</ele>
        <time>2021-08-03T10:27:38Z</time>
      </trkpt>
      <trkpt lat="45.35989" lon="-0.82163">
        <ele>-1.6000000238419</ele>
        <time>2021-08-03T10:28:26Z</time>
      </trkpt>
      <trkpt lat="45.35848" lon="-0.8222">
        <ele>-1.7999999523163</ele>
        <time>2021-08-03T10:29:09Z</time>
      </trkpt>
      <trkpt lat="45.35817" lon="-0.82184">
        <ele>1</ele>
        <time>2021-08-03T11:41:59Z</time>
      </trkpt>
      <trkpt lat="45.35818" lon="-0.82185">
        <ele>1</ele>
        <time>2021-08-03T11:42:01Z</time>
      </trkpt>
      <trkpt lat="45.35832" lon="-0.8218">
        <ele>3.2000000476837</ele>
        <time>2021-08-03T11:49:11Z</time>
      </trkpt>
      <trkpt lat="45.35833" lon="-0.82183">
        <ele>3.4000000953674</ele>
        <time>2021-08-03T11:49:12Z</time>
      </trkpt>
      <trkpt lat="45.35879" lon="-0.82201">
        <ele>4</ele>
        <time>2021-08-03T12:07:48Z</time>
      </trkpt>
      <trkpt lat="45.35826" lon="-0.82267">
        <ele>4</ele>
        <time>2021-08-03T12:08:15Z</time>
      </trkpt>
      <trkpt lat="45.35634" lon="-0.82471">
        <ele>7.1999998092651</ele>
        <time>2021-08-03T12:09:34Z</time>
      </trkpt>
      <trkpt lat="45.35513" lon="-0.82635">
        <ele>10</ele>
        <time>2021-08-03T12:10:33Z</time>
      </trkpt>
      <trkpt lat="45.35475" lon="-0.8268">
        <ele>10.800000190735</ele>
        <time>2021-08-03T12:10:48Z</time>
      </trkpt>
      <trkpt lat="45.35428" lon="-0.82658">
        <ele>11.800000190735</ele>
        <time>2021-08-03T12:11:01Z</time>
      </trkpt>
      <trkpt lat="45.35406" lon="-0.82646">
        <ele>12.60000038147</ele>
        <time>2021-08-03T12:11:09Z</time>
      </trkpt>
      <trkpt lat="45.35372" lon="-0.82661">
        <ele>13.800000190735</ele>
        <time>2021-08-03T12:11:22Z</time>
      </trkpt>
      <trkpt lat="45.35366" lon="-0.82664">
        <ele>14</ele>
        <time>2021-08-03T12:11:24Z</time>
      </trkpt>
      <trkpt lat="45.35298" lon="-0.82679">
        <ele>15.199999809265</ele>
        <time>2021-08-03T12:11:42Z</time>
      </trkpt>
      <trkpt lat="45.35185" lon="-0.82743">
        <ele>15.60000038147</ele>
        <time>2021-08-03T12:12:09Z</time>
      </trkpt>
      <trkpt lat="45.34967" lon="-0.82915">
        <ele>12</ele>
        <time>2021-08-03T12:12:46Z</time>
      </trkpt>
      <trkpt lat="45.34939" lon="-0.82938">
        <ele>11.800000190735</ele>
        <time>2021-08-03T12:12:50Z</time>
      </trkpt>
      <trkpt lat="45.34749" lon="-0.83106">
        <ele>9.1999998092651</ele>
        <time>2021-08-03T12:13:20Z</time>
      </trkpt>
      <trkpt lat="45.34556" lon="-0.83191">
        <ele>8.6000003814697</ele>
        <time>2021-08-03T12:13:52Z</time>
      </trkpt>
      <trkpt lat="45.34195" lon="-0.83412">
        <ele>9.6000003814697</ele>
        <time>2021-08-03T12:15:05Z</time>
      </trkpt>
      <trkpt lat="45.34144" lon="-0.83411">
        <ele>9.6000003814697</ele>
        <time>2021-08-03T12:15:14Z</time>
      </trkpt>
      <trkpt lat="45.33988" lon="-0.83391">
        <ele>8.8000001907349</ele>
        <time>2021-08-03T12:15:41Z</time>
      </trkpt>
      <trkpt lat="45.33791" lon="-0.83457">
        <ele>8.3999996185303</ele>
        <time>2021-08-03T12:16:17Z</time>
      </trkpt>
      <trkpt lat="45.33725" lon="-0.83465">
        <ele>8</ele>
        <time>2021-08-03T12:16:28Z</time>
      </trkpt>
      <trkpt lat="45.33652" lon="-0.83444">
        <ele>7.8000001907349</ele>
        <time>2021-08-03T12:16:42Z</time>
      </trkpt>
      <trkpt lat="45.33643" lon="-0.8344">
        <ele>7.8000001907349</ele>
        <time>2021-08-03T12:16:44Z</time>
      </trkpt>
      <trkpt lat="45.33544" lon="-0.83405">
        <ele>8</ele>
        <time>2021-08-03T12:17:02Z</time>
      </trkpt>
      <trkpt lat="45.33404" lon="-0.83373">
        <ele>6.8000001907349</ele>
        <time>2021-08-03T12:17:30Z</time>
      </trkpt>
      <trkpt lat="45.33374" lon="-0.8331">
        <ele>6.4000000953674</ele>
        <time>2021-08-03T12:17:42Z</time>
      </trkpt>
      <trkpt lat="45.33265" lon="-0.83019">
        <ele>4.1999998092651</ele>
        <time>2021-08-03T12:18:20Z</time>
      </trkpt>
      <trkpt lat="45.33256" lon="-0.83006">
        <ele>4</ele>
        <time>2021-08-03T12:18:22Z</time>
      </trkpt>
      <trkpt lat="45.3325" lon="-0.83001">
        <ele>4</ele>
        <time>2021-08-03T12:18:23Z</time>
      </trkpt>
      <trkpt lat="45.33139" lon="-0.82898">
        <ele>4.8000001907349</ele>
        <time>2021-08-03T12:18:49Z</time>
      </trkpt>
      <trkpt lat="45.33037" lon="-0.82882">
        <ele>6.8000001907349</ele>
        <time>2021-08-03T12:19:12Z</time>
      </trkpt>
      <trkpt lat="45.32953" lon="-0.82915">
        <ele>7.5999999046326</ele>
        <time>2021-08-03T12:19:29Z</time>
      </trkpt>
      <trkpt lat="45.32735" lon="-0.82715">
        <ele>7.8000001907349</ele>
        <time>2021-08-03T12:20:18Z</time>
      </trkpt>
      <trkpt lat="45.32707" lon="-0.82665">
        <ele>7.8000001907349</ele>
        <time>2021-08-03T12:20:26Z</time>
      </trkpt>
      <trkpt lat="45.32669" lon="-0.82623">
        <ele>8</ele>
        <time>2021-08-03T12:20:34Z</time>
      </trkpt>
      <trkpt lat="45.32627" lon="-0.82574">
        <ele>7.8000001907349</ele>
        <time>2021-08-03T12:20:43Z</time>
      </trkpt>
      <trkpt lat="45.32541" lon="-0.82382">
        <ele>8.3999996185303</ele>
        <time>2021-08-03T12:21:15Z</time>
      </trkpt>
      <trkpt lat="45.32523" lon="-0.82327">
        <ele>9.1999998092651</ele>
        <time>2021-08-03T12:21:25Z</time>
      </trkpt>
      <trkpt lat="45.32457" lon="-0.82261">
        <ele>10</ele>
        <time>2021-08-03T12:21:42Z</time>
      </trkpt>
      <trkpt lat="45.32416" lon="-0.82244">
        <ele>10.39999961853</ele>
        <time>2021-08-03T12:21:50Z</time>
      </trkpt>
      <trkpt lat="45.32309" lon="-0.82171">
        <ele>10.39999961853</ele>
        <time>2021-08-03T12:22:14Z</time>
      </trkpt>
      <trkpt lat="45.32268" lon="-0.82149">
        <ele>10.39999961853</ele>
        <time>2021-08-03T12:22:27Z</time>
      </trkpt>
      <trkpt lat="45.32205" lon="-0.82011">
        <ele>10.60000038147</ele>
        <time>2021-08-03T12:22:54Z</time>
      </trkpt>
      <trkpt lat="45.32206" lon="-0.81973">
        <ele>10.199999809265</ele>
        <time>2021-08-03T12:22:59Z</time>
      </trkpt>
      <trkpt lat="45.32185" lon="-0.81901">
        <ele>8.8000001907349</ele>
        <time>2021-08-03T12:23:07Z</time>
      </trkpt>
      <trkpt lat="45.32089" lon="-0.81714">
        <ele>4.8000001907349</ele>
        <time>2021-08-03T12:23:27Z</time>
      </trkpt>
      <trkpt lat="45.32079" lon="-0.81699">
        <ele>4.8000001907349</ele>
        <time>2021-08-03T12:23:29Z</time>
      </trkpt>
      <trkpt lat="45.32049" lon="-0.81653">
        <ele>4.4000000953674</ele>
        <time>2021-08-03T12:23:36Z</time>
      </trkpt>
      <trkpt lat="45.32016" lon="-0.81497">
        <ele>4</ele>
        <time>2021-08-03T12:23:55Z</time>
      </trkpt>
      <trkpt lat="45.3202" lon="-0.8136">
        <ele>2.4000000953674</ele>
        <time>2021-08-03T12:24:13Z</time>
      </trkpt>
      <trkpt lat="45.32018" lon="-0.81284">
        <ele>2.5999999046326</ele>
        <time>2021-08-03T12:24:22Z</time>
      </trkpt>
      <trkpt lat="45.32013" lon="-0.80956">
        <ele>3.2000000476837</ele>
        <time>2021-08-03T12:25:06Z</time>
      </trkpt>
      <trkpt lat="45.31971" lon="-0.80833">
        <ele>2.7999999523163</ele>
        <time>2021-08-03T12:25:24Z</time>
      </trkpt>
      <trkpt lat="45.31878" lon="-0.80609">
        <ele>3.2000000476837</ele>
        <time>2021-08-03T12:26:00Z</time>
      </trkpt>
      <trkpt lat="45.3183" lon="-0.80512">
        <ele>3</ele>
        <time>2021-08-03T12:26:17Z</time>
      </trkpt>
      <trkpt lat="45.31825" lon="-0.80492">
        <ele>1.6000000238419</ele>
        <time>2021-08-03T12:31:47Z</time>
      </trkpt>
      <trkpt lat="45.31823" lon="-0.80489">
        <ele>1.3999999761581</ele>
        <time>2021-08-03T12:31:48Z</time>
      </trkpt>
      <trkpt lat="45.31586" lon="-0.80081">
        <ele>2.2000000476837</ele>
        <time>2021-08-03T12:33:09Z</time>
      </trkpt>
      <trkpt lat="45.31143" lon="-0.79478">
        <ele>3</ele>
        <time>2021-08-03T12:35:08Z</time>
      </trkpt>
      <trkpt lat="45.30993" lon="-0.79303">
        <ele>3.4000000953674</ele>
        <time>2021-08-03T12:35:45Z</time>
      </trkpt>
      <trkpt lat="45.30977" lon="-0.79281">
        <ele>3.4000000953674</ele>
        <time>2021-08-03T12:35:49Z</time>
      </trkpt>
      <trkpt lat="45.30944" lon="-0.79236">
        <ele>3.4000000953674</ele>
        <time>2021-08-03T12:35:57Z</time>
      </trkpt>
      <trkpt lat="45.30937" lon="-0.79155">
        <ele>3.4000000953674</ele>
        <time>2021-08-03T12:36:08Z</time>
      </trkpt>
      <trkpt lat="45.3098" lon="-0.78697">
        <ele>2.7999999523163</ele>
        <time>2021-08-03T12:37:04Z</time>
      </trkpt>
      <trkpt lat="45.30916" lon="-0.7863">
        <ele>3.2000000476837</ele>
        <time>2021-08-03T12:37:20Z</time>
      </trkpt>
      <trkpt lat="45.30799" lon="-0.78568">
        <ele>7</ele>
        <time>2021-08-03T12:37:55Z</time>
      </trkpt>
      <trkpt lat="45.30754" lon="-0.78565">
        <ele>10</ele>
        <time>2021-08-03T12:38:16Z</time>
      </trkpt>
      <trkpt lat="45.30715" lon="-0.7859">
        <ele>12.39999961853</ele>
        <time>2021-08-03T12:38:35Z</time>
      </trkpt>
      <trkpt lat="45.3067" lon="-0.78612">
        <ele>15.199999809265</ele>
        <time>2021-08-03T12:38:56Z</time>
      </trkpt>
      <trkpt lat="45.30602" lon="-0.78637">
        <ele>18.39999961853</ele>
        <time>2021-08-03T12:39:25Z</time>
      </trkpt>
      <trkpt lat="45.30397" lon="-0.78715">
        <ele>19.60000038147</ele>
        <time>2021-08-03T12:40:14Z</time>
      </trkpt>
      <trkpt lat="45.30181" lon="-0.7892">
        <ele>17.799999237061</ele>
        <time>2021-08-03T12:40:59Z</time>
      </trkpt>
      <trkpt lat="45.30114" lon="-0.78937">
        <ele>17.799999237061</ele>
        <time>2021-08-03T12:41:12Z</time>
      </trkpt>
      <trkpt lat="45.30065" lon="-0.78941">
        <ele>17.799999237061</ele>
        <time>2021-08-03T12:41:21Z</time>
      </trkpt>
      <trkpt lat="45.29774" lon="-0.79043">
        <ele>19.60000038147</ele>
        <time>2021-08-03T12:42:20Z</time>
      </trkpt>
      <trkpt lat="45.29737" lon="-0.79053">
        <ele>19.39999961853</ele>
        <time>2021-08-03T12:42:27Z</time>
      </trkpt>
      <trkpt lat="45.29635" lon="-0.7908">
        <ele>18.39999961853</ele>
        <time>2021-08-03T12:42:44Z</time>
      </trkpt>
      <trkpt lat="45.29561" lon="-0.79073">
        <ele>17.799999237061</ele>
        <time>2021-08-03T12:42:58Z</time>
      </trkpt>
      <trkpt lat="45.2952" lon="-0.79059">
        <ele>17.799999237061</ele>
        <time>2021-08-03T12:43:06Z</time>
      </trkpt>
      <trkpt lat="45.29474" lon="-0.79068">
        <ele>17.799999237061</ele>
        <time>2021-08-03T12:43:15Z</time>
      </trkpt>
      <trkpt lat="45.29452" lon="-0.79076">
        <ele>18</ele>
        <time>2021-08-03T12:43:19Z</time>
      </trkpt>
      <trkpt lat="45.29403" lon="-0.79087">
        <ele>18.39999961853</ele>
        <time>2021-08-03T12:43:28Z</time>
      </trkpt>
      <trkpt lat="45.29364" lon="-0.79092">
        <ele>18.200000762939</ele>
        <time>2021-08-03T12:43:35Z</time>
      </trkpt>
      <trkpt lat="45.29305" lon="-0.79102">
        <ele>17.799999237061</ele>
        <time>2021-08-03T12:43:44Z</time>
      </trkpt>
      <trkpt lat="45.29248" lon="-0.79109">
        <ele>17.39999961853</ele>
        <time>2021-08-03T12:43:53Z</time>
      </trkpt>
      <trkpt lat="45.29147" lon="-0.79099">
        <ele>17.200000762939</ele>
        <time>2021-08-03T12:44:13Z</time>
      </trkpt>
      <trkpt lat="45.29134" lon="-0.79096">
        <ele>17</ele>
        <time>2021-08-03T12:44:16Z</time>
      </trkpt>
      <trkpt lat="45.28984" lon="-0.7908">
        <ele>19.39999961853</ele>
        <time>2021-08-03T12:44:49Z</time>
      </trkpt>
      <trkpt lat="45.28957" lon="-0.79087">
        <ele>19.200000762939</ele>
        <time>2021-08-03T12:44:54Z</time>
      </trkpt>
      <trkpt lat="45.28837" lon="-0.79019">
        <ele>17.799999237061</ele>
        <time>2021-08-03T12:45:20Z</time>
      </trkpt>
      <trkpt lat="45.288" lon="-0.78984">
        <ele>17.799999237061</ele>
        <time>2021-08-03T12:45:28Z</time>
      </trkpt>
      <trkpt lat="45.28756" lon="-0.78968">
        <ele>18</ele>
        <time>2021-08-03T12:45:36Z</time>
      </trkpt>
      <trkpt lat="45.28705" lon="-0.78949">
        <ele>18</ele>
        <time>2021-08-03T12:45:46Z</time>
      </trkpt>
      <trkpt lat="45.2864" lon="-0.78938">
        <ele>18.200000762939</ele>
        <time>2021-08-03T12:46:03Z</time>
      </trkpt>
      <trkpt lat="45.28581" lon="-0.78999">
        <ele>17.60000038147</ele>
        <time>2021-08-03T12:46:21Z</time>
      </trkpt>
      <trkpt lat="45.28565" lon="-0.7896">
        <ele>17.200000762939</ele>
        <time>2021-08-03T12:46:31Z</time>
      </trkpt>
      <trkpt lat="45.28557" lon="-0.78921">
        <ele>17.200000762939</ele>
        <time>2021-08-03T12:46:39Z</time>
      </trkpt>
      <trkpt lat="45.28595" lon="-0.78799">
        <ele>18.799999237061</ele>
        <time>2021-08-03T12:47:17Z</time>
      </trkpt>
      <trkpt lat="45.28577" lon="-0.78747">
        <ele>18.799999237061</ele>
        <time>2021-08-03T12:47:27Z</time>
      </trkpt>
      <trkpt lat="45.28571" lon="-0.78661">
        <ele>18.200000762939</ele>
        <time>2021-08-03T12:47:42Z</time>
      </trkpt>
      <trkpt lat="45.28585" lon="-0.78479">
        <ele>18</ele>
        <time>2021-08-03T12:48:06Z</time>
      </trkpt>
      <trkpt lat="45.28605" lon="-0.78154">
        <ele>18.39999961853</ele>
        <time>2021-08-03T12:48:49Z</time>
      </trkpt>
      <trkpt lat="45.28569" lon="-0.77935">
        <ele>19.200000762939</ele>
        <time>2021-08-03T12:49:19Z</time>
      </trkpt>
      <trkpt lat="45.2853" lon="-0.77782">
        <ele>18.200000762939</ele>
        <time>2021-08-03T12:49:38Z</time>
      </trkpt>
      <trkpt lat="45.28482" lon="-0.777">
        <ele>17.799999237061</ele>
        <time>2021-08-03T12:49:50Z</time>
      </trkpt>
      <trkpt lat="45.28413" lon="-0.77583">
        <ele>15.39999961853</ele>
        <time>2021-08-03T12:50:02Z</time>
      </trkpt>
      <trkpt lat="45.28381" lon="-0.77455">
        <ele>11.800000190735</ele>
        <time>2021-08-03T12:50:12Z</time>
      </trkpt>
      <trkpt lat="45.28361" lon="-0.77364">
        <ele>10.199999809265</ele>
        <time>2021-08-03T12:50:19Z</time>
      </trkpt>
      <trkpt lat="45.28277" lon="-0.7723">
        <ele>8</ele>
        <time>2021-08-03T12:50:34Z</time>
      </trkpt>
      <trkpt lat="45.28253" lon="-0.77203">
        <ele>7.1999998092651</ele>
        <time>2021-08-03T12:50:38Z</time>
      </trkpt>
      <trkpt lat="45.28137" lon="-0.77016">
        <ele>5.5999999046326</ele>
        <time>2021-08-03T12:51:04Z</time>
      </trkpt>
      <trkpt lat="45.28065" lon="-0.7694">
        <ele>5.5999999046326</ele>
        <time>2021-08-03T12:51:18Z</time>
      </trkpt>
      <trkpt lat="45.28021" lon="-0.76912">
        <ele>5.8000001907349</ele>
        <time>2021-08-03T12:51:26Z</time>
      </trkpt>
      <trkpt lat="45.27791" lon="-0.7678">
        <ele>4.5999999046326</ele>
        <time>2021-08-03T12:52:08Z</time>
      </trkpt>
      <trkpt lat="45.27691" lon="-0.76697">
        <ele>5.1999998092651</ele>
        <time>2021-08-03T12:52:28Z</time>
      </trkpt>
      <trkpt lat="45.27681" lon="-0.76687">
        <ele>5.1999998092651</ele>
        <time>2021-08-03T12:52:30Z</time>
      </trkpt>
      <trkpt lat="45.27552" lon="-0.76562">
        <ele>4.5999999046326</ele>
        <time>2021-08-03T12:53:02Z</time>
      </trkpt>
      <trkpt lat="45.27515" lon="-0.76565">
        <ele>4.5999999046326</ele>
        <time>2021-08-03T12:53:09Z</time>
      </trkpt>
      <trkpt lat="45.27469" lon="-0.76558">
        <ele>4.8000001907349</ele>
        <time>2021-08-03T12:53:17Z</time>
      </trkpt>
      <trkpt lat="45.27423" lon="-0.76537">
        <ele>4.8000001907349</ele>
        <time>2021-08-03T12:53:25Z</time>
      </trkpt>
      <trkpt lat="45.27369" lon="-0.76509">
        <ele>4.8000001907349</ele>
        <time>2021-08-03T12:53:35Z</time>
      </trkpt>
      <trkpt lat="45.27364" lon="-0.76506">
        <ele>5</ele>
        <time>2021-08-03T12:53:36Z</time>
      </trkpt>
      <trkpt lat="45.27314" lon="-0.76469">
        <ele>4.8000001907349</ele>
        <time>2021-08-03T12:53:45Z</time>
      </trkpt>
      <trkpt lat="45.27275" lon="-0.76452">
        <ele>4.8000001907349</ele>
        <time>2021-08-03T12:53:52Z</time>
      </trkpt>
      <trkpt lat="45.27253" lon="-0.7644">
        <ele>4.5999999046326</ele>
        <time>2021-08-03T12:53:56Z</time>
      </trkpt>
      <trkpt lat="45.27294" lon="-0.76241">
        <ele>4.5999999046326</ele>
        <time>2021-08-03T12:54:22Z</time>
      </trkpt>
      <trkpt lat="45.27266" lon="-0.76162">
        <ele>4.8000001907349</ele>
        <time>2021-08-03T12:54:34Z</time>
      </trkpt>
      <trkpt lat="45.26799" lon="-0.75954">
        <ele>5</ele>
        <time>2021-08-03T12:55:53Z</time>
      </trkpt>
      <trkpt lat="45.26617" lon="-0.76071">
        <ele>5.4000000953674</ele>
        <time>2021-08-03T12:56:33Z</time>
      </trkpt>
      <trkpt lat="45.2659" lon="-0.75889">
        <ele>5.5999999046326</ele>
        <time>2021-08-03T12:57:07Z</time>
      </trkpt>
      <trkpt lat="45.26481" lon="-0.7583">
        <ele>5.5999999046326</ele>
        <time>2021-08-03T12:57:29Z</time>
      </trkpt>
      <trkpt lat="45.25813" lon="-0.75569">
        <ele>6</ele>
        <time>2021-08-03T12:59:36Z</time>
      </trkpt>
      <trkpt lat="45.25522" lon="-0.75455">
        <ele>4.5999999046326</ele>
        <time>2021-08-03T13:01:27Z</time>
      </trkpt>
      <trkpt lat="45.25259" lon="-0.75362">
        <ele>5.4000000953674</ele>
        <time>2021-08-03T13:02:25Z</time>
      </trkpt>
      <trkpt lat="45.2451" lon="-0.75107">
        <ele>5.8000001907349</ele>
        <time>2021-08-03T13:04:44Z</time>
      </trkpt>
      <trkpt lat="45.23969" lon="-0.74947">
        <ele>5</ele>
        <time>2021-08-03T13:09:39Z</time>
      </trkpt>
      <trkpt lat="45.23728" lon="-0.74864">
        <ele>6.4000000953674</ele>
        <time>2021-08-03T13:10:33Z</time>
      </trkpt>
      <trkpt lat="45.23167" lon="-0.74771">
        <ele>6.4000000953674</ele>
        <time>2021-08-03T13:12:14Z</time>
      </trkpt>
      <trkpt lat="45.228" lon="-0.74731">
        <ele>7.5999999046326</ele>
        <time>2021-08-03T13:13:18Z</time>
      </trkpt>
      <trkpt lat="45.22741" lon="-0.74738">
        <ele>7.8000001907349</ele>
        <time>2021-08-03T13:13:29Z</time>
      </trkpt>
      <trkpt lat="45.22702" lon="-0.74749">
        <ele>7.8000001907349</ele>
        <time>2021-08-03T13:13:37Z</time>
      </trkpt>
      <trkpt lat="45.22136" lon="-0.74853">
        <ele>7.5999999046326</ele>
        <time>2021-08-03T13:15:21Z</time>
      </trkpt>
      <trkpt lat="45.21613" lon="-0.7489">
        <ele>8.1999998092651</ele>
        <time>2021-08-03T13:16:52Z</time>
      </trkpt>
      <trkpt lat="45.2126" lon="-0.74893">
        <ele>8</ele>
        <time>2021-08-03T13:17:50Z</time>
      </trkpt>
      <trkpt lat="45.21242" lon="-0.74891">
        <ele>8</ele>
        <time>2021-08-03T13:17:53Z</time>
      </trkpt>
      <trkpt lat="45.20743" lon="-0.74819">
        <ele>7.4000000953674</ele>
        <time>2021-08-03T13:19:22Z</time>
      </trkpt>
      <trkpt lat="45.20555" lon="-0.74918">
        <ele>8.6000003814697</ele>
        <time>2021-08-03T13:20:01Z</time>
      </trkpt>
      <trkpt lat="45.20498" lon="-0.74932">
        <ele>7.1999998092651</ele>
        <time>2021-08-03T13:20:17Z</time>
      </trkpt>
      <trkpt lat="45.20495" lon="-0.74919">
        <ele>7</ele>
        <time>2021-08-03T13:20:25Z</time>
      </trkpt>
      <trkpt lat="45.20358" lon="-0.74722">
        <ele>7.5999999046326</ele>
        <time>2021-08-03T13:21:12Z</time>
      </trkpt>
      <trkpt lat="45.19959" lon="-0.746">
        <ele>7.8000001907349</ele>
        <time>2021-08-03T13:22:34Z</time>
      </trkpt>
      <trkpt lat="45.19923" lon="-0.74593">
        <ele>7.4000000953674</ele>
        <time>2021-08-03T13:22:43Z</time>
      </trkpt>
      <trkpt lat="45.19762" lon="-0.74531">
        <ele>7.4000000953674</ele>
        <time>2021-08-03T13:23:28Z</time>
      </trkpt>
      <trkpt lat="45.1974" lon="-0.74457">
        <ele>6.5999999046326</ele>
        <time>2021-08-03T13:24:17Z</time>
      </trkpt>
      <trkpt lat="45.19785" lon="-0.74488">
        <ele>7</ele>
        <time>2021-08-03T13:24:36Z</time>
      </trkpt>
      <trkpt lat="45.19862" lon="-0.7453">
        <ele>6.5999999046326</ele>
        <time>2021-08-03T13:25:11Z</time>
      </trkpt>
      <trkpt lat="45.19825" lon="-0.74562">
        <ele>6.5999999046326</ele>
        <time>2021-08-03T13:29:26Z</time>
      </trkpt>
      <trkpt lat="45.19776" lon="-0.74546">
        <ele>7.4000000953674</ele>
        <time>2021-08-03T14:06:46Z</time>
      </trkpt>
      <trkpt lat="45.19601" lon="-0.74476">
        <ele>7.5999999046326</ele>
        <time>2021-08-03T14:07:43Z</time>
      </trkpt>
      <trkpt lat="45.19567" lon="-0.74466">
        <ele>7.5999999046326</ele>
        <time>2021-08-03T14:07:52Z</time>
      </trkpt>
      <trkpt lat="45.19536" lon="-0.74453">
        <ele>8</ele>
        <time>2021-08-03T14:08:00Z</time>
      </trkpt>
      <trkpt lat="45.19431" lon="-0.74533">
        <ele>8.6000003814697</ele>
        <time>2021-08-03T14:08:35Z</time>
      </trkpt>
      <trkpt lat="45.19405" lon="-0.74565">
        <ele>8.8000001907349</ele>
        <time>2021-08-03T14:08:44Z</time>
      </trkpt>
      <trkpt lat="45.19299" lon="-0.74774">
        <ele>8.6000003814697</ele>
        <time>2021-08-03T14:09:27Z</time>
      </trkpt>
      <trkpt lat="45.19309" lon="-0.74841">
        <ele>9</ele>
        <time>2021-08-03T14:09:36Z</time>
      </trkpt>
      <trkpt lat="45.19319" lon="-0.74876">
        <ele>9</ele>
        <time>2021-08-03T14:09:41Z</time>
      </trkpt>
      <trkpt lat="45.19196" lon="-0.74905">
        <ele>10.60000038147</ele>
        <time>2021-08-03T14:10:14Z</time>
      </trkpt>
      <trkpt lat="45.19167" lon="-0.74914">
        <ele>12</ele>
        <time>2021-08-03T14:10:24Z</time>
      </trkpt>
      <trkpt lat="45.19159" lon="-0.74917">
        <ele>12</ele>
        <time>2021-08-03T14:10:27Z</time>
      </trkpt>
      <trkpt lat="45.19091" lon="-0.74947">
        <ele>14.60000038147</ele>
        <time>2021-08-03T14:10:52Z</time>
      </trkpt>
      <trkpt lat="45.1905" lon="-0.74974">
        <ele>15.39999961853</ele>
        <time>2021-08-03T14:11:05Z</time>
      </trkpt>
      <trkpt lat="45.19016" lon="-0.74991">
        <ele>16</ele>
        <time>2021-08-03T14:11:13Z</time>
      </trkpt>
      <trkpt lat="45.18927" lon="-0.75025">
        <ele>16.200000762939</ele>
        <time>2021-08-03T14:11:31Z</time>
      </trkpt>
      <trkpt lat="45.18773" lon="-0.75155">
        <ele>15.800000190735</ele>
        <time>2021-08-03T14:12:04Z</time>
      </trkpt>
      <trkpt lat="45.18766" lon="-0.75165">
        <ele>16</ele>
        <time>2021-08-03T14:12:06Z</time>
      </trkpt>
      <trkpt lat="45.18695" lon="-0.75228">
        <ele>16.200000762939</ele>
        <time>2021-08-03T14:12:21Z</time>
      </trkpt>
      <trkpt lat="45.18663" lon="-0.75245">
        <ele>15.39999961853</ele>
        <time>2021-08-03T14:12:26Z</time>
      </trkpt>
      <trkpt lat="45.1859" lon="-0.75252">
        <ele>13.60000038147</ele>
        <time>2021-08-03T14:12:35Z</time>
      </trkpt>
      <trkpt lat="45.18495" lon="-0.75239">
        <ele>12</ele>
        <time>2021-08-03T14:12:47Z</time>
      </trkpt>
      <trkpt lat="45.18407" lon="-0.75257">
        <ele>12.39999961853</ele>
        <time>2021-08-03T14:13:02Z</time>
      </trkpt>
      <trkpt lat="45.18359" lon="-0.75272">
        <ele>12.800000190735</ele>
        <time>2021-08-03T14:13:11Z</time>
      </trkpt>
      <trkpt lat="45.1814" lon="-0.75226">
        <ele>12.199999809265</ele>
        <time>2021-08-03T14:13:49Z</time>
      </trkpt>
      <trkpt lat="45.1807" lon="-0.75198">
        <ele>12.60000038147</ele>
        <time>2021-08-03T14:14:00Z</time>
      </trkpt>
      <trkpt lat="45.17997" lon="-0.75203">
        <ele>12.60000038147</ele>
        <time>2021-08-03T14:14:13Z</time>
      </trkpt>
      <trkpt lat="45.17848" lon="-0.75212">
        <ele>13.39999961853</ele>
        <time>2021-08-03T14:14:42Z</time>
      </trkpt>
      <trkpt lat="45.17799" lon="-0.75205">
        <ele>13.60000038147</ele>
        <time>2021-08-03T14:14:52Z</time>
      </trkpt>
      <trkpt lat="45.17721" lon="-0.75164">
        <ele>14.800000190735</ele>
        <time>2021-08-03T14:15:09Z</time>
      </trkpt>
      <trkpt lat="45.17712" lon="-0.75158">
        <ele>15</ele>
        <time>2021-08-03T14:15:11Z</time>
      </trkpt>
      <trkpt lat="45.17647" lon="-0.75114">
        <ele>16.200000762939</ele>
        <time>2021-08-03T14:15:30Z</time>
      </trkpt>
      <trkpt lat="45.17641" lon="-0.75122">
        <ele>16.60000038147</ele>
        <time>2021-08-03T14:15:38Z</time>
      </trkpt>
      <trkpt lat="45.17666" lon="-0.75138">
        <ele>17</ele>
        <time>2021-08-03T14:16:50Z</time>
      </trkpt>
      <trkpt lat="45.17622" lon="-0.75077">
        <ele>17.39999961853</ele>
        <time>2021-08-03T14:17:20Z</time>
      </trkpt>
      <trkpt lat="45.17505" lon="-0.74995">
        <ele>20.200000762939</ele>
        <time>2021-08-03T14:17:56Z</time>
      </trkpt>
      <trkpt lat="45.17433" lon="-0.7495">
        <ele>19.39999961853</ele>
        <time>2021-08-03T14:18:09Z</time>
      </trkpt>
      <trkpt lat="45.17413" lon="-0.74941">
        <ele>19</ele>
        <time>2021-08-03T14:18:12Z</time>
      </trkpt>
      <trkpt lat="45.1722" lon="-0.74843">
        <ele>15.60000038147</ele>
        <time>2021-08-03T14:18:37Z</time>
      </trkpt>
      <trkpt lat="45.17055" lon="-0.74731">
        <ele>17.799999237061</ele>
        <time>2021-08-03T14:19:21Z</time>
      </trkpt>
      <trkpt lat="45.16934" lon="-0.74668">
        <ele>18.60000038147</ele>
        <time>2021-08-03T14:19:48Z</time>
      </trkpt>
      <trkpt lat="45.16888" lon="-0.74604">
        <ele>18.39999961853</ele>
        <time>2021-08-03T14:20:00Z</time>
      </trkpt>
      <trkpt lat="45.16802" lon="-0.74378">
        <ele>17.39999961853</ele>
        <time>2021-08-03T14:20:29Z</time>
      </trkpt>
      <trkpt lat="45.16655" lon="-0.74247">
        <ele>17.39999961853</ele>
        <time>2021-08-03T14:20:57Z</time>
      </trkpt>
      <trkpt lat="45.16587" lon="-0.74228">
        <ele>16.39999961853</ele>
        <time>2021-08-03T14:21:07Z</time>
      </trkpt>
      <trkpt lat="45.16515" lon="-0.74157">
        <ele>13.60000038147</ele>
        <time>2021-08-03T14:21:21Z</time>
      </trkpt>
      <trkpt lat="45.16502" lon="-0.74136">
        <ele>13</ele>
        <time>2021-08-03T14:21:25Z</time>
      </trkpt>
      <trkpt lat="45.16454" lon="-0.74055">
        <ele>14.800000190735</ele>
        <time>2021-08-03T14:21:48Z</time>
      </trkpt>
      <trkpt lat="45.16432" lon="-0.74049">
        <ele>15.60000038147</ele>
        <time>2021-08-03T14:21:54Z</time>
      </trkpt>
      <trkpt lat="45.16427" lon="-0.7405">
        <ele>15.60000038147</ele>
        <time>2021-08-03T14:21:55Z</time>
      </trkpt>
      <trkpt lat="45.16349" lon="-0.74058">
        <ele>17.39999961853</ele>
        <time>2021-08-03T14:22:14Z</time>
      </trkpt>
      <trkpt lat="45.16326" lon="-0.74056">
        <ele>17.799999237061</ele>
        <time>2021-08-03T14:22:19Z</time>
      </trkpt>
      <trkpt lat="45.16294" lon="-0.74055">
        <ele>17.60000038147</ele>
        <time>2021-08-03T14:22:25Z</time>
      </trkpt>
      <trkpt lat="45.1627" lon="-0.74043">
        <ele>17.39999961853</ele>
        <time>2021-08-03T14:22:31Z</time>
      </trkpt>
      <trkpt lat="45.16089" lon="-0.73958">
        <ele>19.39999961853</ele>
        <time>2021-08-03T14:23:11Z</time>
      </trkpt>
      <trkpt lat="45.15985" lon="-0.73954">
        <ele>19.200000762939</ele>
        <time>2021-08-03T14:23:29Z</time>
      </trkpt>
      <trkpt lat="45.15923" lon="-0.73954">
        <ele>18.799999237061</ele>
        <time>2021-08-03T14:23:39Z</time>
      </trkpt>
      <trkpt lat="45.15911" lon="-0.73952">
        <ele>18.799999237061</ele>
        <time>2021-08-03T14:23:41Z</time>
      </trkpt>
      <trkpt lat="45.15823" lon="-0.73933">
        <ele>17.200000762939</ele>
        <time>2021-08-03T14:23:54Z</time>
      </trkpt>
      <trkpt lat="45.15674" lon="-0.73897">
        <ele>14</ele>
        <time>2021-08-03T14:24:11Z</time>
      </trkpt>
      <trkpt lat="45.15664" lon="-0.73896">
        <ele>13.800000190735</ele>
        <time>2021-08-03T14:24:12Z</time>
      </trkpt>
      <trkpt lat="45.15538" lon="-0.73918">
        <ele>11.199999809265</ele>
        <time>2021-08-03T14:24:29Z</time>
      </trkpt>
      <trkpt lat="45.15424" lon="-0.73932">
        <ele>14.800000190735</ele>
        <time>2021-08-03T14:25:00Z</time>
      </trkpt>
      <trkpt lat="45.15421" lon="-0.73933">
        <ele>15</ele>
        <time>2021-08-03T14:25:01Z</time>
      </trkpt>
      <trkpt lat="45.15285" lon="-0.7395">
        <ele>18.60000038147</ele>
        <time>2021-08-03T14:25:40Z</time>
      </trkpt>
      <trkpt lat="45.15277" lon="-0.73952">
        <ele>18.60000038147</ele>
        <time>2021-08-03T14:25:42Z</time>
      </trkpt>
      <trkpt lat="45.15239" lon="-0.73962">
        <ele>19.39999961853</ele>
        <time>2021-08-03T14:25:52Z</time>
      </trkpt>
      <trkpt lat="45.15207" lon="-0.7398">
        <ele>19.799999237061</ele>
        <time>2021-08-03T14:26:00Z</time>
      </trkpt>
      <trkpt lat="45.14837" lon="-0.74173">
        <ele>20.39999961853</ele>
        <time>2021-08-03T14:27:16Z</time>
      </trkpt>
      <trkpt lat="45.14696" lon="-0.7401">
        <ele>20.200000762939</ele>
        <time>2021-08-03T14:27:52Z</time>
      </trkpt>
      <trkpt lat="45.14691" lon="-0.73946">
        <ele>19.60000038147</ele>
        <time>2021-08-03T14:29:40Z</time>
      </trkpt>
      <trkpt lat="45.14675" lon="-0.73817">
        <ele>19.39999961853</ele>
        <time>2021-08-03T14:30:04Z</time>
      </trkpt>
      <trkpt lat="45.1466" lon="-0.73745">
        <ele>19</ele>
        <time>2021-08-03T14:30:14Z</time>
      </trkpt>
      <trkpt lat="45.14648" lon="-0.73717">
        <ele>19</ele>
        <time>2021-08-03T14:30:18Z</time>
      </trkpt>
      <trkpt lat="45.14545" lon="-0.73623">
        <ele>17.60000038147</ele>
        <time>2021-08-03T14:30:37Z</time>
      </trkpt>
      <trkpt lat="45.1444" lon="-0.73565">
        <ele>15.800000190735</ele>
        <time>2021-08-03T14:30:53Z</time>
      </trkpt>
      <trkpt lat="45.14399" lon="-0.73503">
        <ele>14.39999961853</ele>
        <time>2021-08-03T14:31:01Z</time>
      </trkpt>
      <trkpt lat="45.14346" lon="-0.73381">
        <ele>12</ele>
        <time>2021-08-03T14:31:12Z</time>
      </trkpt>
      <trkpt lat="45.14285" lon="-0.73328">
        <ele>9.8000001907349</ele>
        <time>2021-08-03T14:31:20Z</time>
      </trkpt>
      <trkpt lat="45.14074" lon="-0.73228">
        <ele>7.8000001907349</ele>
        <time>2021-08-03T14:31:50Z</time>
      </trkpt>
      <trkpt lat="45.13873" lon="-0.73207">
        <ele>7</ele>
        <time>2021-08-03T14:32:25Z</time>
      </trkpt>
      <trkpt lat="45.13673" lon="-0.73267">
        <ele>7.1999998092651</ele>
        <time>2021-08-03T14:33:00Z</time>
      </trkpt>
      <trkpt lat="45.13514" lon="-0.73235">
        <ele>7.8000001907349</ele>
        <time>2021-08-03T14:33:27Z</time>
      </trkpt>
      <trkpt lat="45.13" lon="-0.73082">
        <ele>9.3999996185303</ele>
        <time>2021-08-03T14:34:59Z</time>
      </trkpt>
      <trkpt lat="45.12583" lon="-0.73001">
        <ele>12.60000038147</ele>
        <time>2021-08-03T14:36:26Z</time>
      </trkpt>
      <trkpt lat="45.1258" lon="-0.73001">
        <ele>12.800000190735</ele>
        <time>2021-08-03T14:36:27Z</time>
      </trkpt>
      <trkpt lat="45.12504" lon="-0.72985">
        <ele>15.800000190735</ele>
        <time>2021-08-03T14:36:49Z</time>
      </trkpt>
      <trkpt lat="45.12449" lon="-0.72975">
        <ele>17.799999237061</ele>
        <time>2021-08-03T14:37:05Z</time>
      </trkpt>
      <trkpt lat="45.12288" lon="-0.72963">
        <ele>17.39999961853</ele>
        <time>2021-08-03T14:37:40Z</time>
      </trkpt>
      <trkpt lat="45.12259" lon="-0.72976">
        <ele>17.200000762939</ele>
        <time>2021-08-03T14:37:46Z</time>
      </trkpt>
      <trkpt lat="45.12221" lon="-0.73002">
        <ele>17.200000762939</ele>
        <time>2021-08-03T14:37:54Z</time>
      </trkpt>
      <trkpt lat="45.12127" lon="-0.73047">
        <ele>18.200000762939</ele>
        <time>2021-08-03T14:38:13Z</time>
      </trkpt>
      <trkpt lat="45.12025" lon="-0.73064">
        <ele>19.60000038147</ele>
        <time>2021-08-03T14:38:36Z</time>
      </trkpt>
      <trkpt lat="45.11616" lon="-0.7314">
        <ele>21</ele>
        <time>2021-08-03T14:39:52Z</time>
      </trkpt>
      <trkpt lat="45.11523" lon="-0.73124">
        <ele>21</ele>
        <time>2021-08-03T14:40:07Z</time>
      </trkpt>
      <trkpt lat="45.11178" lon="-0.73036">
        <ele>19.60000038147</ele>
        <time>2021-08-03T14:41:07Z</time>
      </trkpt>
      <trkpt lat="45.11182" lon="-0.73031">
        <ele>19.799999237061</ele>
        <time>2021-08-03T14:56:27Z</time>
      </trkpt>
      <trkpt lat="45.11108" lon="-0.73028">
        <ele>20.200000762939</ele>
        <time>2021-08-03T14:56:49Z</time>
      </trkpt>
      <trkpt lat="45.11061" lon="-0.73036">
        <ele>20.200000762939</ele>
        <time>2021-08-03T14:56:58Z</time>
      </trkpt>
      <trkpt lat="45.1092" lon="-0.73025">
        <ele>18.799999237061</ele>
        <time>2021-08-03T14:57:24Z</time>
      </trkpt>
      <trkpt lat="45.10914" lon="-0.73024">
        <ele>18.799999237061</ele>
        <time>2021-08-03T14:57:25Z</time>
      </trkpt>
      <trkpt lat="45.10711" lon="-0.72902">
        <ele>18</ele>
        <time>2021-08-03T14:58:03Z</time>
      </trkpt>
      <trkpt lat="45.10641" lon="-0.72879">
        <ele>19</ele>
        <time>2021-08-03T14:58:21Z</time>
      </trkpt>
      <trkpt lat="45.10558" lon="-0.72858">
        <ele>20.39999961853</ele>
        <time>2021-08-03T14:58:40Z</time>
      </trkpt>
      <trkpt lat="45.10346" lon="-0.72804">
        <ele>18.200000762939</ele>
        <time>2021-08-03T14:59:16Z</time>
      </trkpt>
      <trkpt lat="45.10339" lon="-0.72802">
        <ele>18</ele>
        <time>2021-08-03T14:59:17Z</time>
      </trkpt>
      <trkpt lat="45.10275" lon="-0.72761">
        <ele>17</ele>
        <time>2021-08-03T14:59:27Z</time>
      </trkpt>
      <trkpt lat="45.10148" lon="-0.72672">
        <ele>15.39999961853</ele>
        <time>2021-08-03T14:59:48Z</time>
      </trkpt>
      <trkpt lat="45.10069" lon="-0.72631">
        <ele>15</ele>
        <time>2021-08-03T15:00:02Z</time>
      </trkpt>
      <trkpt lat="45.10017" lon="-0.7259">
        <ele>14.39999961853</ele>
        <time>2021-08-03T15:00:11Z</time>
      </trkpt>
      <trkpt lat="45.09898" lon="-0.72561">
        <ele>12.60000038147</ele>
        <time>2021-08-03T15:00:28Z</time>
      </trkpt>
      <trkpt lat="45.09638" lon="-0.72594">
        <ele>13</ele>
        <time>2021-08-03T15:01:12Z</time>
      </trkpt>
      <trkpt lat="45.09545" lon="-0.72645">
        <ele>13.800000190735</ele>
        <time>2021-08-03T15:01:30Z</time>
      </trkpt>
      <trkpt lat="45.09504" lon="-0.72667">
        <ele>13.800000190735</ele>
        <time>2021-08-03T15:01:38Z</time>
      </trkpt>
      <trkpt lat="45.09469" lon="-0.72675">
        <ele>14</ele>
        <time>2021-08-03T15:01:45Z</time>
      </trkpt>
      <trkpt lat="45.09422" lon="-0.72683">
        <ele>14.39999961853</ele>
        <time>2021-08-03T15:01:54Z</time>
      </trkpt>
      <trkpt lat="45.09236" lon="-0.72662">
        <ele>14.60000038147</ele>
        <time>2021-08-03T15:02:26Z</time>
      </trkpt>
      <trkpt lat="45.08984" lon="-0.72644">
        <ele>15.60000038147</ele>
        <time>2021-08-03T15:03:09Z</time>
      </trkpt>
      <trkpt lat="45.08884" lon="-0.72674">
        <ele>16.60000038147</ele>
        <time>2021-08-03T15:03:28Z</time>
      </trkpt>
      <trkpt lat="45.08509" lon="-0.7269">
        <ele>18.39999961853</ele>
        <time>2021-08-03T15:04:38Z</time>
      </trkpt>
      <trkpt lat="45.08441" lon="-0.72684">
        <ele>19</ele>
        <time>2021-08-03T15:04:50Z</time>
      </trkpt>
      <trkpt lat="45.08379" lon="-0.72684">
        <ele>19.200000762939</ele>
        <time>2021-08-03T15:05:01Z</time>
      </trkpt>
      <trkpt lat="45.08169" lon="-0.72735">
        <ele>20.200000762939</ele>
        <time>2021-08-03T15:05:40Z</time>
      </trkpt>
      <trkpt lat="45.08055" lon="-0.72731">
        <ele>20.799999237061</ele>
        <time>2021-08-03T15:06:00Z</time>
      </trkpt>
      <trkpt lat="45.07507" lon="-0.72644">
        <ele>20.200000762939</ele>
        <time>2021-08-03T15:07:36Z</time>
      </trkpt>
      <trkpt lat="45.07471" lon="-0.72626">
        <ele>19.60000038147</ele>
        <time>2021-08-03T15:07:42Z</time>
      </trkpt>
      <trkpt lat="45.07336" lon="-0.72542">
        <ele>16.799999237061</ele>
        <time>2021-08-03T15:08:06Z</time>
      </trkpt>
      <trkpt lat="45.07226" lon="-0.72401">
        <ele>15</ele>
        <time>2021-08-03T15:08:30Z</time>
      </trkpt>
      <trkpt lat="45.07113" lon="-0.72392">
        <ele>13.39999961853</ele>
        <time>2021-08-03T15:08:47Z</time>
      </trkpt>
      <trkpt lat="45.07101" lon="-0.72393">
        <ele>13.199999809265</ele>
        <time>2021-08-03T15:08:49Z</time>
      </trkpt>
      <trkpt lat="45.0702" lon="-0.72363">
        <ele>12.199999809265</ele>
        <time>2021-08-03T15:09:03Z</time>
      </trkpt>
      <trkpt lat="45.0698" lon="-0.72332">
        <ele>11.39999961853</ele>
        <time>2021-08-03T15:09:11Z</time>
      </trkpt>
      <trkpt lat="45.06881" lon="-0.7226">
        <ele>10.800000190735</ele>
        <time>2021-08-03T15:09:34Z</time>
      </trkpt>
      <trkpt lat="45.06398" lon="-0.71913">
        <ele>9.1999998092651</ele>
        <time>2021-08-03T15:11:04Z</time>
      </trkpt>
      <trkpt lat="45.06231" lon="-0.71806">
        <ele>9.3999996185303</ele>
        <time>2021-08-03T15:11:33Z</time>
      </trkpt>
      <trkpt lat="45.06221" lon="-0.71797">
        <ele>9.1999998092651</ele>
        <time>2021-08-03T15:11:35Z</time>
      </trkpt>
      <trkpt lat="45.06037" lon="-0.71668">
        <ele>10.39999961853</ele>
        <time>2021-08-03T15:12:12Z</time>
      </trkpt>
      <trkpt lat="45.05954" lon="-0.71649">
        <ele>11.800000190735</ele>
        <time>2021-08-03T15:12:31Z</time>
      </trkpt>
      <trkpt lat="45.05919" lon="-0.71651">
        <ele>12.39999961853</ele>
        <time>2021-08-03T15:12:39Z</time>
      </trkpt>
      <trkpt lat="45.05869" lon="-0.71609">
        <ele>13.199999809265</ele>
        <time>2021-08-03T15:12:52Z</time>
      </trkpt>
      <trkpt lat="45.05784" lon="-0.71493">
        <ele>16.200000762939</ele>
        <time>2021-08-03T15:13:21Z</time>
      </trkpt>
      <trkpt lat="45.05774" lon="-0.71475">
        <ele>16.39999961853</ele>
        <time>2021-08-03T15:13:25Z</time>
      </trkpt>
      <trkpt lat="45.0574" lon="-0.7138">
        <ele>17.799999237061</ele>
        <time>2021-08-03T15:13:44Z</time>
      </trkpt>
      <trkpt lat="45.05664" lon="-0.71018">
        <ele>16</ele>
        <time>2021-08-03T15:14:34Z</time>
      </trkpt>
      <trkpt lat="45.05642" lon="-0.70938">
        <ele>15.60000038147</ele>
        <time>2021-08-03T15:14:43Z</time>
      </trkpt>
      <trkpt lat="45.05599" lon="-0.70816">
        <ele>16.200000762939</ele>
        <time>2021-08-03T15:15:00Z</time>
      </trkpt>
      <trkpt lat="45.05591" lon="-0.70769">
        <ele>16.200000762939</ele>
        <time>2021-08-03T15:15:06Z</time>
      </trkpt>
      <trkpt lat="45.05585" lon="-0.70684">
        <ele>14.800000190735</ele>
        <time>2021-08-03T15:15:15Z</time>
      </trkpt>
      <trkpt lat="45.05571" lon="-0.70529">
        <ele>12.199999809265</ele>
        <time>2021-08-03T15:15:31Z</time>
      </trkpt>
      <trkpt lat="45.05566" lon="-0.70231">
        <ele>15.199999809265</ele>
        <time>2021-08-03T15:16:16Z</time>
      </trkpt>
      <trkpt lat="45.05569" lon="-0.70197">
        <ele>15.800000190735</ele>
        <time>2021-08-03T15:16:22Z</time>
      </trkpt>
      <trkpt lat="45.05596" lon="-0.70084">
        <ele>16.799999237061</ele>
        <time>2021-08-03T15:16:40Z</time>
      </trkpt>
      <trkpt lat="45.05618" lon="-0.70001">
        <ele>16.799999237061</ele>
        <time>2021-08-03T15:16:55Z</time>
      </trkpt>
      <trkpt lat="45.0562" lon="-0.69982">
        <ele>17</ele>
        <time>2021-08-03T15:18:01Z</time>
      </trkpt>
      <trkpt lat="45.05583" lon="-0.69885">
        <ele>17.39999961853</ele>
        <time>2021-08-03T15:18:25Z</time>
      </trkpt>
      <trkpt lat="45.05374" lon="-0.69584">
        <ele>20</ele>
        <time>2021-08-03T15:19:26Z</time>
      </trkpt>
      <trkpt lat="45.05311" lon="-0.69528">
        <ele>19.39999961853</ele>
        <time>2021-08-03T15:19:39Z</time>
      </trkpt>
      <trkpt lat="45.05205" lon="-0.6942">
        <ele>19.799999237061</ele>
        <time>2021-08-03T15:20:00Z</time>
      </trkpt>
      <trkpt lat="45.052" lon="-0.69415">
        <ele>19.799999237061</ele>
        <time>2021-08-03T15:20:01Z</time>
      </trkpt>
      <trkpt lat="45.05164" lon="-0.69384">
        <ele>20.200000762939</ele>
        <time>2021-08-03T15:20:08Z</time>
      </trkpt>
      <trkpt lat="45.05065" lon="-0.69347">
        <ele>21</ele>
        <time>2021-08-03T15:20:27Z</time>
      </trkpt>
      <trkpt lat="45.05002" lon="-0.69323">
        <ele>21.799999237061</ele>
        <time>2021-08-03T15:20:40Z</time>
      </trkpt>
      <trkpt lat="45.04942" lon="-0.69261">
        <ele>22.799999237061</ele>
        <time>2021-08-03T15:20:55Z</time>
      </trkpt>
      <trkpt lat="45.04921" lon="-0.69213">
        <ele>23</ele>
        <time>2021-08-03T15:21:02Z</time>
      </trkpt>
      <trkpt lat="45.04836" lon="-0.69086">
        <ele>23.39999961853</ele>
        <time>2021-08-03T15:21:25Z</time>
      </trkpt>
      <trkpt lat="45.04804" lon="-0.69046">
        <ele>23</ele>
        <time>2021-08-03T15:27:39Z</time>
      </trkpt>
      <trkpt lat="45.04786" lon="-0.69025">
        <ele>23</ele>
        <time>2021-08-03T15:27:45Z</time>
      </trkpt>
      <trkpt lat="45.04733" lon="-0.68929">
        <ele>23.60000038147</ele>
        <time>2021-08-03T15:28:04Z</time>
      </trkpt>
      <trkpt lat="45.0464" lon="-0.68741">
        <ele>24.39999961853</ele>
        <time>2021-08-03T15:28:34Z</time>
      </trkpt>
      <trkpt lat="45.04632" lon="-0.68728">
        <ele>24.200000762939</ele>
        <time>2021-08-03T15:28:36Z</time>
      </trkpt>
      <trkpt lat="45.04554" lon="-0.68586">
        <ele>24.200000762939</ele>
        <time>2021-08-03T15:28:57Z</time>
      </trkpt>
      <trkpt lat="45.04533" lon="-0.68519">
        <ele>24</ele>
        <time>2021-08-03T15:29:05Z</time>
      </trkpt>
      <trkpt lat="45.04508" lon="-0.6843">
        <ele>23.799999237061</ele>
        <time>2021-08-03T15:29:16Z</time>
      </trkpt>
      <trkpt lat="45.04507" lon="-0.6825">
        <ele>23.60000038147</ele>
        <time>2021-08-03T15:29:36Z</time>
      </trkpt>
      <trkpt lat="45.04521" lon="-0.68158">
        <ele>23</ele>
        <time>2021-08-03T15:29:46Z</time>
      </trkpt>
      <trkpt lat="45.04394" lon="-0.67811">
        <ele>22</ele>
        <time>2021-08-03T15:30:31Z</time>
      </trkpt>
      <trkpt lat="45.04267" lon="-0.67747">
        <ele>22</ele>
        <time>2021-08-03T15:30:56Z</time>
      </trkpt>
      <trkpt lat="45.04196" lon="-0.677">
        <ele>21</ele>
        <time>2021-08-03T15:31:10Z</time>
      </trkpt>
      <trkpt lat="45.04165" lon="-0.6767">
        <ele>20.39999961853</ele>
        <time>2021-08-03T15:31:17Z</time>
      </trkpt>
      <trkpt lat="45.04103" lon="-0.67598">
        <ele>20</ele>
        <time>2021-08-03T15:31:33Z</time>
      </trkpt>
      <trkpt lat="45.04095" lon="-0.6757">
        <ele>19.799999237061</ele>
        <time>2021-08-03T15:31:37Z</time>
      </trkpt>
      <trkpt lat="45.04087" lon="-0.67523">
        <ele>19.60000038147</ele>
        <time>2021-08-03T15:31:43Z</time>
      </trkpt>
      <trkpt lat="45.04075" lon="-0.67409">
        <ele>19.799999237061</ele>
        <time>2021-08-03T15:32:06Z</time>
      </trkpt>
      <trkpt lat="45.04063" lon="-0.67419">
        <ele>13.60000038147</ele>
        <time>2021-08-04T06:57:39Z</time>
      </trkpt>
      <trkpt lat="45.04042" lon="-0.67415">
        <ele>14</ele>
        <time>2021-08-04T06:57:46Z</time>
      </trkpt>
      <trkpt lat="45.03998" lon="-0.6733">
        <ele>15.39999961853</ele>
        <time>2021-08-04T06:58:21Z</time>
      </trkpt>
      <trkpt lat="45.04059" lon="-0.66988">
        <ele>14</ele>
        <time>2021-08-04T06:59:36Z</time>
      </trkpt>
      <trkpt lat="45.04061" lon="-0.67042">
        <ele>19.200000762939</ele>
        <time>2021-08-04T07:03:51Z</time>
      </trkpt>
      <trkpt lat="45.04057" lon="-0.67058">
        <ele>15</ele>
        <time>2021-08-04T07:03:55Z</time>
      </trkpt>
      <trkpt lat="45.0405" lon="-0.67103">
        <ele>16.39999961853</ele>
        <time>2021-08-04T07:04:06Z</time>
      </trkpt>
      <trkpt lat="45.0399" lon="-0.67395">
        <ele>15.199999809265</ele>
        <time>2021-08-04T07:05:12Z</time>
      </trkpt>
      <trkpt lat="45.03966" lon="-0.67399">
        <ele>15</ele>
        <time>2021-08-04T07:05:23Z</time>
      </trkpt>
      <trkpt lat="45.03909" lon="-0.67355">
        <ele>15.60000038147</ele>
        <time>2021-08-04T07:05:39Z</time>
      </trkpt>
      <trkpt lat="45.03891" lon="-0.67329">
        <ele>16</ele>
        <time>2021-08-04T07:05:45Z</time>
      </trkpt>
      <trkpt lat="45.03782" lon="-0.67155">
        <ele>15.800000190735</ele>
        <time>2021-08-04T07:06:22Z</time>
      </trkpt>
      <trkpt lat="45.03778" lon="-0.6715">
        <ele>16</ele>
        <time>2021-08-04T07:06:23Z</time>
      </trkpt>
      <trkpt lat="45.03657" lon="-0.6699">
        <ele>16.200000762939</ele>
        <time>2021-08-04T07:06:59Z</time>
      </trkpt>
      <trkpt lat="45.03592" lon="-0.66872">
        <ele>15.39999961853</ele>
        <time>2021-08-04T07:07:20Z</time>
      </trkpt>
      <trkpt lat="45.03547" lon="-0.66848">
        <ele>15</ele>
        <time>2021-08-04T07:07:29Z</time>
      </trkpt>
      <trkpt lat="45.03516" lon="-0.66834">
        <ele>15.199999809265</ele>
        <time>2021-08-04T07:07:36Z</time>
      </trkpt>
      <trkpt lat="45.03458" lon="-0.66763">
        <ele>15.800000190735</ele>
        <time>2021-08-04T07:07:53Z</time>
      </trkpt>
      <trkpt lat="45.03279" lon="-0.66539">
        <ele>16.60000038147</ele>
        <time>2021-08-04T07:08:39Z</time>
      </trkpt>
      <trkpt lat="45.03207" lon="-0.66345">
        <ele>14.39999961853</ele>
        <time>2021-08-04T07:09:03Z</time>
      </trkpt>
      <trkpt lat="45.03184" lon="-0.66251">
        <ele>13.60000038147</ele>
        <time>2021-08-04T07:09:13Z</time>
      </trkpt>
      <trkpt lat="45.0315" lon="-0.66123">
        <ele>12.800000190735</ele>
        <time>2021-08-04T07:09:27Z</time>
      </trkpt>
      <trkpt lat="45.03119" lon="-0.66048">
        <ele>11.800000190735</ele>
        <time>2021-08-04T07:09:36Z</time>
      </trkpt>
      <trkpt lat="45.02932" lon="-0.6559">
        <ele>8.3999996185303</ele>
        <time>2021-08-04T07:10:37Z</time>
      </trkpt>
      <trkpt lat="45.02861" lon="-0.65427">
        <ele>5.5999999046326</ele>
        <time>2021-08-04T07:10:58Z</time>
      </trkpt>
      <trkpt lat="45.0285" lon="-0.65383">
        <ele>3.7999999523163</ele>
        <time>2021-08-04T07:11:04Z</time>
      </trkpt>
      <trkpt lat="45.02838" lon="-0.6532">
        <ele>3.5999999046326</ele>
        <time>2021-08-04T07:11:11Z</time>
      </trkpt>
      <trkpt lat="45.02764" lon="-0.64845">
        <ele>2</ele>
        <time>2021-08-04T07:12:06Z</time>
      </trkpt>
      <trkpt lat="45.02644" lon="-0.6462">
        <ele>1.2000000476837</ele>
        <time>2021-08-04T07:12:40Z</time>
      </trkpt>
      <trkpt lat="45.02604" lon="-0.64569">
        <ele>1.2000000476837</ele>
        <time>2021-08-04T07:12:49Z</time>
      </trkpt>
      <trkpt lat="45.02581" lon="-0.64522">
        <ele>1.3999999761581</ele>
        <time>2021-08-04T07:12:56Z</time>
      </trkpt>
      <trkpt lat="45.02369" lon="-0.63961">
        <ele>1</ele>
        <time>2021-08-04T07:14:09Z</time>
      </trkpt>
      <trkpt lat="45.02308" lon="-0.63865">
        <ele>1</ele>
        <time>2021-08-04T07:14:25Z</time>
      </trkpt>
      <trkpt lat="45.02288" lon="-0.6384">
        <ele>1.2000000476837</ele>
        <time>2021-08-04T07:14:30Z</time>
      </trkpt>
      <trkpt lat="45.02179" lon="-0.63857">
        <ele>2</ele>
        <time>2021-08-04T07:14:56Z</time>
      </trkpt>
      <trkpt lat="45.02097" lon="-0.63992">
        <ele>3.2000000476837</ele>
        <time>2021-08-04T07:15:22Z</time>
      </trkpt>
      <trkpt lat="45.02007" lon="-0.64029">
        <ele>3.2000000476837</ele>
        <time>2021-08-04T07:15:41Z</time>
      </trkpt>
      <trkpt lat="45.01821" lon="-0.64069">
        <ele>4.1999998092651</ele>
        <time>2021-08-04T07:16:18Z</time>
      </trkpt>
      <trkpt lat="45.01761" lon="-0.64063">
        <ele>4.5999999046326</ele>
        <time>2021-08-04T07:16:29Z</time>
      </trkpt>
      <trkpt lat="45.01569" lon="-0.64019">
        <ele>3.2000000476837</ele>
        <time>2021-08-04T07:17:01Z</time>
      </trkpt>
      <trkpt lat="45.0153" lon="-0.63982">
        <ele>3.4000000953674</ele>
        <time>2021-08-04T07:17:10Z</time>
      </trkpt>
      <trkpt lat="45.01475" lon="-0.63927">
        <ele>3.5999999046326</ele>
        <time>2021-08-04T07:17:25Z</time>
      </trkpt>
      <trkpt lat="45.01408" lon="-0.63887">
        <ele>4.8000001907349</ele>
        <time>2021-08-04T07:17:42Z</time>
      </trkpt>
      <trkpt lat="45.01351" lon="-0.63863">
        <ele>5.8000001907349</ele>
        <time>2021-08-04T07:17:55Z</time>
      </trkpt>
      <trkpt lat="45.01302" lon="-0.63839">
        <ele>7</ele>
        <time>2021-08-04T07:18:06Z</time>
      </trkpt>
      <trkpt lat="45.01294" lon="-0.63833">
        <ele>7</ele>
        <time>2021-08-04T07:18:08Z</time>
      </trkpt>
      <trkpt lat="45.01077" lon="-0.63677">
        <ele>6</ele>
        <time>2021-08-04T07:18:52Z</time>
      </trkpt>
      <trkpt lat="45.00803" lon="-0.63381">
        <ele>4.8000001907349</ele>
        <time>2021-08-04T07:19:53Z</time>
      </trkpt>
      <trkpt lat="45.00747" lon="-0.63268">
        <ele>4.8000001907349</ele>
        <time>2021-08-04T07:20:08Z</time>
      </trkpt>
      <trkpt lat="45.00716" lon="-0.63174">
        <ele>3.7999999523163</ele>
        <time>2021-08-04T07:20:21Z</time>
      </trkpt>
      <trkpt lat="45.00679" lon="-0.6309">
        <ele>3.7999999523163</ele>
        <time>2021-08-04T07:20:31Z</time>
      </trkpt>
      <trkpt lat="45.00643" lon="-0.62992">
        <ele>4.5999999046326</ele>
        <time>2021-08-04T07:20:44Z</time>
      </trkpt>
      <trkpt lat="45.0063" lon="-0.6293">
        <ele>5</ele>
        <time>2021-08-04T07:20:52Z</time>
      </trkpt>
      <trkpt lat="45.00608" lon="-0.62803">
        <ele>5.1999998092651</ele>
        <time>2021-08-04T07:21:08Z</time>
      </trkpt>
      <trkpt lat="45.00527" lon="-0.62655">
        <ele>5.1999998092651</ele>
        <time>2021-08-04T07:21:31Z</time>
      </trkpt>
      <trkpt lat="45.00365" lon="-0.62478">
        <ele>7.5999999046326</ele>
        <time>2021-08-04T07:22:08Z</time>
      </trkpt>
      <trkpt lat="45.00338" lon="-0.62446">
        <ele>7.5999999046326</ele>
        <time>2021-08-04T07:22:15Z</time>
      </trkpt>
      <trkpt lat="45.00321" lon="-0.62438">
        <ele>7.5999999046326</ele>
        <time>2021-08-04T07:22:19Z</time>
      </trkpt>
      <trkpt lat="45.00308" lon="-0.62436">
        <ele>7.4000000953674</ele>
        <time>2021-08-04T07:22:22Z</time>
      </trkpt>
      <trkpt lat="45.0024" lon="-0.62352">
        <ele>6.5999999046326</ele>
        <time>2021-08-04T07:22:40Z</time>
      </trkpt>
      <trkpt lat="45.00125" lon="-0.6225">
        <ele>4.4000000953674</ele>
        <time>2021-08-04T07:24:59Z</time>
      </trkpt>
      <trkpt lat="45.00106" lon="-0.62234">
        <ele>4.5999999046326</ele>
        <time>2021-08-04T07:25:07Z</time>
      </trkpt>
      <trkpt lat="44.99889" lon="-0.62054">
        <ele>5.8000001907349</ele>
        <time>2021-08-04T07:25:55Z</time>
      </trkpt>
      <trkpt lat="44.99822" lon="-0.62022">
        <ele>6</ele>
        <time>2021-08-04T07:26:08Z</time>
      </trkpt>
      <trkpt lat="44.99555" lon="-0.61904">
        <ele>6</ele>
        <time>2021-08-04T07:26:56Z</time>
      </trkpt>
      <trkpt lat="44.9944" lon="-0.61919">
        <ele>5.8000001907349</ele>
        <time>2021-08-04T07:27:16Z</time>
      </trkpt>
      <trkpt lat="44.99271" lon="-0.61964">
        <ele>5.4000000953674</ele>
        <time>2021-08-04T07:27:45Z</time>
      </trkpt>
      <trkpt lat="44.99151" lon="-0.61998">
        <ele>5</ele>
        <time>2021-08-04T07:28:06Z</time>
      </trkpt>
      <trkpt lat="44.98847" lon="-0.62072">
        <ele>6.8000001907349</ele>
        <time>2021-08-04T07:28:59Z</time>
      </trkpt>
      <trkpt lat="44.98718" lon="-0.62101">
        <ele>6.1999998092651</ele>
        <time>2021-08-04T07:29:23Z</time>
      </trkpt>
      <trkpt lat="44.97955" lon="-0.62294">
        <ele>6.1999998092651</ele>
        <time>2021-08-04T07:31:40Z</time>
      </trkpt>
      <trkpt lat="44.97896" lon="-0.62312">
        <ele>6</ele>
        <time>2021-08-04T07:31:51Z</time>
      </trkpt>
      <trkpt lat="44.97847" lon="-0.6234">
        <ele>6</ele>
        <time>2021-08-04T07:32:02Z</time>
      </trkpt>
      <trkpt lat="44.9782" lon="-0.62337">
        <ele>6.1999998092651</ele>
        <time>2021-08-04T07:32:07Z</time>
      </trkpt>
      <trkpt lat="44.97782" lon="-0.62343">
        <ele>6</ele>
        <time>2021-08-04T07:32:14Z</time>
      </trkpt>
      <trkpt lat="44.97501" lon="-0.62405">
        <ele>7</ele>
        <time>2021-08-04T07:33:06Z</time>
      </trkpt>
      <trkpt lat="44.97378" lon="-0.62438">
        <ele>6.8000001907349</ele>
        <time>2021-08-04T07:33:29Z</time>
      </trkpt>
      <trkpt lat="44.96813" lon="-0.62588">
        <ele>5.5999999046326</ele>
        <time>2021-08-04T07:35:03Z</time>
      </trkpt>
      <trkpt lat="44.96777" lon="-0.62708">
        <ele>5</ele>
        <time>2021-08-04T07:35:23Z</time>
      </trkpt>
      <trkpt lat="44.96769" lon="-0.62736">
        <ele>5.4000000953674</ele>
        <time>2021-08-04T07:39:21Z</time>
      </trkpt>
      <trkpt lat="44.96777" lon="-0.62694">
        <ele>5.5999999046326</ele>
        <time>2021-08-04T07:39:31Z</time>
      </trkpt>
      <trkpt lat="44.96791" lon="-0.62603">
        <ele>5</ele>
        <time>2021-08-04T07:39:47Z</time>
      </trkpt>
      <trkpt lat="44.96751" lon="-0.62602">
        <ele>4.1999998092651</ele>
        <time>2021-08-04T07:40:06Z</time>
      </trkpt>
      <trkpt lat="44.96256" lon="-0.62735">
        <ele>3.5999999046326</ele>
        <time>2021-08-04T07:41:34Z</time>
      </trkpt>
      <trkpt lat="44.96028" lon="-0.62781">
        <ele>5</ele>
        <time>2021-08-04T07:42:20Z</time>
      </trkpt>
      <trkpt lat="44.95964" lon="-0.62799">
        <ele>5.4000000953674</ele>
        <time>2021-08-04T07:42:34Z</time>
      </trkpt>
      <trkpt lat="44.95583" lon="-0.62891">
        <ele>6.5999999046326</ele>
        <time>2021-08-04T07:43:49Z</time>
      </trkpt>
      <trkpt lat="44.95565" lon="-0.62901">
        <ele>6.5999999046326</ele>
        <time>2021-08-04T07:43:53Z</time>
      </trkpt>
      <trkpt lat="44.95551" lon="-0.62909">
        <ele>6.8000001907349</ele>
        <time>2021-08-04T07:43:56Z</time>
      </trkpt>
      <trkpt lat="44.95439" lon="-0.62927">
        <ele>7.1999998092651</ele>
        <time>2021-08-04T07:44:17Z</time>
      </trkpt>
      <trkpt lat="44.9539" lon="-0.62943">
        <ele>7.1999998092651</ele>
        <time>2021-08-04T07:44:26Z</time>
      </trkpt>
      <trkpt lat="44.95355" lon="-0.62957">
        <ele>7</ele>
        <time>2021-08-04T07:44:33Z</time>
      </trkpt>
      <trkpt lat="44.95327" lon="-0.62957">
        <ele>7</ele>
        <time>2021-08-04T07:44:38Z</time>
      </trkpt>
      <trkpt lat="44.95285" lon="-0.62969">
        <ele>7</ele>
        <time>2021-08-04T07:44:46Z</time>
      </trkpt>
      <trkpt lat="44.95061" lon="-0.63024">
        <ele>8.1999998092651</ele>
        <time>2021-08-04T07:45:27Z</time>
      </trkpt>
      <trkpt lat="44.95005" lon="-0.63036">
        <ele>8.8000001907349</ele>
        <time>2021-08-04T07:45:38Z</time>
      </trkpt>
      <trkpt lat="44.94659" lon="-0.63128">
        <ele>10.39999961853</ele>
        <time>2021-08-04T07:46:38Z</time>
      </trkpt>
      <trkpt lat="44.9462" lon="-0.63135">
        <ele>10.60000038147</ele>
        <time>2021-08-04T07:46:45Z</time>
      </trkpt>
      <trkpt lat="44.9423" lon="-0.6322">
        <ele>11.199999809265</ele>
        <time>2021-08-04T07:47:54Z</time>
      </trkpt>
      <trkpt lat="44.94133" lon="-0.63244">
        <ele>12.199999809265</ele>
        <time>2021-08-04T07:48:13Z</time>
      </trkpt>
      <trkpt lat="44.94049" lon="-0.63259">
        <ele>12.60000038147</ele>
        <time>2021-08-04T07:48:30Z</time>
      </trkpt>
      <trkpt lat="44.93668" lon="-0.63387">
        <ele>15</ele>
        <time>2021-08-04T07:49:39Z</time>
      </trkpt>
      <trkpt lat="44.93506" lon="-0.63374">
        <ele>15.199999809265</ele>
        <time>2021-08-04T07:50:07Z</time>
      </trkpt>
      <trkpt lat="44.93477" lon="-0.63367">
        <ele>15.39999961853</ele>
        <time>2021-08-04T07:50:13Z</time>
      </trkpt>
      <trkpt lat="44.93442" lon="-0.63366">
        <ele>16.200000762939</ele>
        <time>2021-08-04T07:50:19Z</time>
      </trkpt>
      <trkpt lat="44.93395" lon="-0.63363">
        <ele>16.39999961853</ele>
        <time>2021-08-04T07:50:27Z</time>
      </trkpt>
      <trkpt lat="44.93339" lon="-0.63377">
        <ele>16.60000038147</ele>
        <time>2021-08-04T07:50:37Z</time>
      </trkpt>
      <trkpt lat="44.9332" lon="-0.63384">
        <ele>16.799999237061</ele>
        <time>2021-08-04T07:50:41Z</time>
      </trkpt>
      <trkpt lat="44.93235" lon="-0.63402">
        <ele>17.799999237061</ele>
        <time>2021-08-04T07:50:57Z</time>
      </trkpt>
      <trkpt lat="44.93098" lon="-0.63417">
        <ele>18</ele>
        <time>2021-08-04T07:51:16Z</time>
      </trkpt>
      <trkpt lat="44.93077" lon="-0.63425">
        <ele>18</ele>
        <time>2021-08-04T07:51:19Z</time>
      </trkpt>
      <trkpt lat="44.92981" lon="-0.63492">
        <ele>15.39999961853</ele>
        <time>2021-08-04T07:51:45Z</time>
      </trkpt>
      <trkpt lat="44.92955" lon="-0.63501">
        <ele>15.199999809265</ele>
        <time>2021-08-04T07:51:50Z</time>
      </trkpt>
      <trkpt lat="44.92943" lon="-0.63503">
        <ele>15</ele>
        <time>2021-08-04T07:51:52Z</time>
      </trkpt>
      <trkpt lat="44.9284" lon="-0.63527">
        <ele>13.800000190735</ele>
        <time>2021-08-04T07:52:11Z</time>
      </trkpt>
      <trkpt lat="44.92794" lon="-0.63527">
        <ele>12.60000038147</ele>
        <time>2021-08-04T07:52:19Z</time>
      </trkpt>
      <trkpt lat="44.92782" lon="-0.63526">
        <ele>12.39999961853</ele>
        <time>2021-08-04T07:52:21Z</time>
      </trkpt>
      <trkpt lat="44.92707" lon="-0.63505">
        <ele>10</ele>
        <time>2021-08-04T07:52:45Z</time>
      </trkpt>
      <trkpt lat="44.92646" lon="-0.63485">
        <ele>11.800000190735</ele>
        <time>2021-08-04T07:53:01Z</time>
      </trkpt>
      <trkpt lat="44.92571" lon="-0.63469">
        <ele>13.199999809265</ele>
        <time>2021-08-04T07:53:17Z</time>
      </trkpt>
      <trkpt lat="44.92529" lon="-0.63472">
        <ele>12.60000038147</ele>
        <time>2021-08-04T07:53:24Z</time>
      </trkpt>
      <trkpt lat="44.92421" lon="-0.63478">
        <ele>9.1999998092651</ele>
        <time>2021-08-04T07:53:48Z</time>
      </trkpt>
      <trkpt lat="44.92392" lon="-0.6348">
        <ele>9.1999998092651</ele>
        <time>2021-08-04T07:53:55Z</time>
      </trkpt>
      <trkpt lat="44.92388" lon="-0.63481">
        <ele>9.1999998092651</ele>
        <time>2021-08-04T07:53:56Z</time>
      </trkpt>
      <trkpt lat="44.92237" lon="-0.63514">
        <ele>12.199999809265</ele>
        <time>2021-08-04T07:54:36Z</time>
      </trkpt>
      <trkpt lat="44.92157" lon="-0.63555">
        <ele>14.39999961853</ele>
        <time>2021-08-04T07:55:00Z</time>
      </trkpt>
      <trkpt lat="44.92141" lon="-0.63564">
        <ele>14.60000038147</ele>
        <time>2021-08-04T07:55:05Z</time>
      </trkpt>
      <trkpt lat="44.92066" lon="-0.63571">
        <ele>16.200000762939</ele>
        <time>2021-08-04T07:55:24Z</time>
      </trkpt>
      <trkpt lat="44.92063" lon="-0.63569">
        <ele>16.200000762939</ele>
        <time>2021-08-04T07:55:25Z</time>
      </trkpt>
      <trkpt lat="44.91943" lon="-0.63492">
        <ele>19.39999961853</ele>
        <time>2021-08-04T07:56:00Z</time>
      </trkpt>
      <trkpt lat="44.91911" lon="-0.63474">
        <ele>19.60000038147</ele>
        <time>2021-08-04T07:56:09Z</time>
      </trkpt>
      <trkpt lat="44.9187" lon="-0.63458">
        <ele>20</ele>
        <time>2021-08-04T07:56:19Z</time>
      </trkpt>
      <trkpt lat="44.9184" lon="-0.63444">
        <ele>20</ele>
        <time>2021-08-04T07:56:26Z</time>
      </trkpt>
      <trkpt lat="44.91767" lon="-0.63407">
        <ele>19</ele>
        <time>2021-08-04T07:56:43Z</time>
      </trkpt>
      <trkpt lat="44.91764" lon="-0.63402">
        <ele>18.60000038147</ele>
        <time>2021-08-04T07:56:44Z</time>
      </trkpt>
      <trkpt lat="44.9177" lon="-0.63261">
        <ele>15.60000038147</ele>
        <time>2021-08-04T07:57:01Z</time>
      </trkpt>
      <trkpt lat="44.91794" lon="-0.63191">
        <ele>12.60000038147</ele>
        <time>2021-08-04T07:57:19Z</time>
      </trkpt>
      <trkpt lat="44.91801" lon="-0.63162">
        <ele>12.60000038147</ele>
        <time>2021-08-04T07:57:26Z</time>
      </trkpt>
      <trkpt lat="44.91795" lon="-0.63127">
        <ele>11.800000190735</ele>
        <time>2021-08-04T07:57:44Z</time>
      </trkpt>
      <trkpt lat="44.91798" lon="-0.63111">
        <ele>11.39999961853</ele>
        <time>2021-08-04T07:57:50Z</time>
      </trkpt>
      <trkpt lat="44.91806" lon="-0.6307">
        <ele>11.199999809265</ele>
        <time>2021-08-04T07:57:58Z</time>
      </trkpt>
      <trkpt lat="44.91807" lon="-0.63014">
        <ele>11.199999809265</ele>
        <time>2021-08-04T07:58:06Z</time>
      </trkpt>
      <trkpt lat="44.91808" lon="-0.6295">
        <ele>11</ele>
        <time>2021-08-04T07:58:15Z</time>
      </trkpt>
      <trkpt lat="44.91825" lon="-0.62872">
        <ele>10.800000190735</ele>
        <time>2021-08-04T07:58:27Z</time>
      </trkpt>
      <trkpt lat="44.91837" lon="-0.62852">
        <ele>10.199999809265</ele>
        <time>2021-08-04T07:58:32Z</time>
      </trkpt>
      <trkpt lat="44.91803" lon="-0.62804">
        <ele>8.3999996185303</ele>
        <time>2021-08-04T07:59:12Z</time>
      </trkpt>
      <trkpt lat="44.91689" lon="-0.62801">
        <ele>10</ele>
        <time>2021-08-04T07:59:51Z</time>
      </trkpt>
      <trkpt lat="44.91585" lon="-0.62754">
        <ele>9.6000003814697</ele>
        <time>2021-08-04T08:00:20Z</time>
      </trkpt>
      <trkpt lat="44.91545" lon="-0.62728">
        <ele>9.6000003814697</ele>
        <time>2021-08-04T08:00:33Z</time>
      </trkpt>
      <trkpt lat="44.91434" lon="-0.62667">
        <ele>12.60000038147</ele>
        <time>2021-08-04T08:01:06Z</time>
      </trkpt>
      <trkpt lat="44.91424" lon="-0.62661">
        <ele>13.800000190735</ele>
        <time>2021-08-04T08:01:16Z</time>
      </trkpt>
      <trkpt lat="44.91426" lon="-0.62649">
        <ele>13.800000190735</ele>
        <time>2021-08-04T08:01:37Z</time>
      </trkpt>
      <trkpt lat="44.91376" lon="-0.62625">
        <ele>15.39999961853</ele>
        <time>2021-08-04T08:01:54Z</time>
      </trkpt>
      <trkpt lat="44.91292" lon="-0.62588">
        <ele>18.200000762939</ele>
        <time>2021-08-04T08:02:17Z</time>
      </trkpt>
      <trkpt lat="44.91282" lon="-0.62578">
        <ele>18.200000762939</ele>
        <time>2021-08-04T08:02:20Z</time>
      </trkpt>
      <trkpt lat="44.91158" lon="-0.62511">
        <ele>18</ele>
        <time>2021-08-04T08:02:51Z</time>
      </trkpt>
      <trkpt lat="44.91085" lon="-0.62475">
        <ele>17.60000038147</ele>
        <time>2021-08-04T08:03:08Z</time>
      </trkpt>
      <trkpt lat="44.91029" lon="-0.62456">
        <ele>14.60000038147</ele>
        <time>2021-08-04T08:03:27Z</time>
      </trkpt>
      <trkpt lat="44.90997" lon="-0.62447">
        <ele>14</ele>
        <time>2021-08-04T08:03:34Z</time>
      </trkpt>
      <trkpt lat="44.90936" lon="-0.62378">
        <ele>12.60000038147</ele>
        <time>2021-08-04T08:03:48Z</time>
      </trkpt>
      <trkpt lat="44.90845" lon="-0.62293">
        <ele>12</ele>
        <time>2021-08-04T08:04:07Z</time>
      </trkpt>
      <trkpt lat="44.90744" lon="-0.62262">
        <ele>12.39999961853</ele>
        <time>2021-08-04T08:04:39Z</time>
      </trkpt>
      <trkpt lat="44.90703" lon="-0.62199">
        <ele>12</ele>
        <time>2021-08-04T08:04:55Z</time>
      </trkpt>
      <trkpt lat="44.90656" lon="-0.6217">
        <ele>11.60000038147</ele>
        <time>2021-08-04T08:05:05Z</time>
      </trkpt>
      <trkpt lat="44.90625" lon="-0.6213">
        <ele>10.800000190735</ele>
        <time>2021-08-04T08:05:39Z</time>
      </trkpt>
      <trkpt lat="44.90635" lon="-0.62121">
        <ele>10.800000190735</ele>
        <time>2021-08-04T08:05:43Z</time>
      </trkpt>
      <trkpt lat="44.90587" lon="-0.62005">
        <ele>9</ele>
        <time>2021-08-04T08:06:04Z</time>
      </trkpt>
      <trkpt lat="44.90508" lon="-0.61975">
        <ele>8.6000003814697</ele>
        <time>2021-08-04T08:06:17Z</time>
      </trkpt>
      <trkpt lat="44.90387" lon="-0.6193">
        <ele>9.1999998092651</ele>
        <time>2021-08-04T08:06:58Z</time>
      </trkpt>
      <trkpt lat="44.90321" lon="-0.61908">
        <ele>9.3999996185303</ele>
        <time>2021-08-04T08:07:11Z</time>
      </trkpt>
      <trkpt lat="44.90257" lon="-0.61871">
        <ele>8.6000003814697</ele>
        <time>2021-08-04T08:07:22Z</time>
      </trkpt>
      <trkpt lat="44.90207" lon="-0.61837">
        <ele>4.8000001907349</ele>
        <time>2021-08-04T08:07:33Z</time>
      </trkpt>
      <trkpt lat="44.90195" lon="-0.6183">
        <ele>4.1999998092651</ele>
        <time>2021-08-04T08:07:35Z</time>
      </trkpt>
      <trkpt lat="44.90185" lon="-0.61823">
        <ele>4</ele>
        <time>2021-08-04T08:07:37Z</time>
      </trkpt>
      <trkpt lat="44.9011" lon="-0.61756">
        <ele>0.20000000298023</ele>
        <time>2021-08-04T08:07:53Z</time>
      </trkpt>
      <trkpt lat="44.90086" lon="-0.61732">
        <ele>0.20000000298023</ele>
        <time>2021-08-04T08:07:58Z</time>
      </trkpt>
      <trkpt lat="44.90058" lon="-0.61707">
        <ele>3.6</ele>
        <time>2021-08-04T08:08:04Z</time>
      </trkpt>
      <trkpt lat="44.89922" lon="-0.61623">
        <ele>-2.5999999046326</ele>
        <time>2021-08-04T08:08:42Z</time>
      </trkpt>
      <trkpt lat="44.8989" lon="-0.61603">
        <ele>-2.7999999523163</ele>
        <time>2021-08-04T08:08:48Z</time>
      </trkpt>
      <trkpt lat="44.89656" lon="-0.61464">
        <ele>-3</ele>
        <time>2021-08-04T08:09:34Z</time>
      </trkpt>
      <trkpt lat="44.89381" lon="-0.61593">
        <ele>-3.2000000476837</ele>
        <time>2021-08-04T08:10:32Z</time>
      </trkpt>
      <trkpt lat="44.89366" lon="-0.61604">
        <ele>-3.7999999523163</ele>
        <time>2021-08-04T08:10:38Z</time>
      </trkpt>
      <trkpt lat="44.89348" lon="-0.61615">
        <ele>-3.2000000476837</ele>
        <time>2021-08-04T08:10:44Z</time>
      </trkpt>
      <trkpt lat="44.89311" lon="-0.61634">
        <ele>-3</ele>
        <time>2021-08-04T08:10:53Z</time>
      </trkpt>
      <trkpt lat="44.89243" lon="-0.61665">
        <ele>-2.7999999523163</ele>
        <time>2021-08-04T08:11:08Z</time>
      </trkpt>
      <trkpt lat="44.89217" lon="-0.61647">
        <ele>-3</ele>
        <time>2021-08-04T08:11:15Z</time>
      </trkpt>
      <trkpt lat="44.89214" lon="-0.61641">
        <ele>-3.2000000476837</ele>
        <time>2021-08-04T08:11:16Z</time>
      </trkpt>
      <trkpt lat="44.89183" lon="-0.61288">
        <ele>-3.4000000953674</ele>
        <time>2021-08-04T08:12:03Z</time>
      </trkpt>
      <trkpt lat="44.89155" lon="-0.61231">
        <ele>-2.7999999523163</ele>
        <time>2021-08-04T08:12:12Z</time>
      </trkpt>
      <trkpt lat="44.8914" lon="-0.61209">
        <ele>-2.5999999046326</ele>
        <time>2021-08-04T08:12:17Z</time>
      </trkpt>
      <trkpt lat="44.89077" lon="-0.6115">
        <ele>-1.2000000476837</ele>
        <time>2021-08-04T08:12:31Z</time>
      </trkpt>
      <trkpt lat="44.89055" lon="-0.61136">
        <ele>-1.2000000476837</ele>
        <time>2021-08-04T08:12:37Z</time>
      </trkpt>
      <trkpt lat="44.89002" lon="-0.61026">
        <ele>-2</ele>
        <time>2021-08-04T08:13:06Z</time>
      </trkpt>
      <trkpt lat="44.89004" lon="-0.60963">
        <ele>-2.4000000953674</ele>
        <time>2021-08-04T08:13:14Z</time>
      </trkpt>
      <trkpt lat="44.89001" lon="-0.60874">
        <ele>-2.2000000476837</ele>
        <time>2021-08-04T08:13:28Z</time>
      </trkpt>
      <trkpt lat="44.89001" lon="-0.60803">
        <ele>-3</ele>
        <time>2021-08-04T08:13:45Z</time>
      </trkpt>
      <trkpt lat="44.88992" lon="-0.60779">
        <ele>-3.2000000476837</ele>
        <time>2021-08-04T08:16:11Z</time>
      </trkpt>
      <trkpt lat="44.88992" lon="-0.60775">
        <ele>-3</ele>
        <time>2021-08-04T08:16:12Z</time>
      </trkpt>
      <trkpt lat="44.88991" lon="-0.60744">
        <ele>-3</ele>
        <time>2021-08-04T08:16:18Z</time>
      </trkpt>
      <trkpt lat="44.88959" lon="-0.60352">
        <ele>-2.7999999523163</ele>
        <time>2021-08-04T08:17:18Z</time>
      </trkpt>
      <trkpt lat="44.88974" lon="-0.6026">
        <ele>-2.2000000476837</ele>
        <time>2021-08-04T08:17:31Z</time>
      </trkpt>
      <trkpt lat="44.89059" lon="-0.60111">
        <ele>-3.7999999523163</ele>
        <time>2021-08-04T08:18:16Z</time>
      </trkpt>
      <trkpt lat="44.89084" lon="-0.59981">
        <ele>-2</ele>
        <time>2021-08-04T08:19:07Z</time>
      </trkpt>
      <trkpt lat="44.89039" lon="-0.59896">
        <ele>-1.6000000238419</ele>
        <time>2021-08-04T08:19:22Z</time>
      </trkpt>
      <trkpt lat="44.88999" lon="-0.5987">
        <ele>-1.2000000476837</ele>
        <time>2021-08-04T08:19:29Z</time>
      </trkpt>
      <trkpt lat="44.88986" lon="-0.59857">
        <ele>-1.2000000476837</ele>
        <time>2021-08-04T08:19:32Z</time>
      </trkpt>
      <trkpt lat="44.88946" lon="-0.59816">
        <ele>-1.6000000238419</ele>
        <time>2021-08-04T08:19:41Z</time>
      </trkpt>
      <trkpt lat="44.88911" lon="-0.59664">
        <ele>-2.5999999046326</ele>
        <time>2021-08-04T08:19:59Z</time>
      </trkpt>
      <trkpt lat="44.88907" lon="-0.59576">
        <ele>-2.7999999523163</ele>
        <time>2021-08-04T08:20:07Z</time>
      </trkpt>
      <trkpt lat="44.88893" lon="-0.59236">
        <ele>-2.5999999046326</ele>
        <time>2021-08-04T08:20:48Z</time>
      </trkpt>
      <trkpt lat="44.88923" lon="-0.59126">
        <ele>-1.6000000238419</ele>
        <time>2021-08-04T08:21:04Z</time>
      </trkpt>
      <trkpt lat="44.89076" lon="-0.59036">
        <ele>-3</ele>
        <time>2021-08-04T08:21:28Z</time>
      </trkpt>
      <trkpt lat="44.89141" lon="-0.59001">
        <ele>-3.2000000476837</ele>
        <time>2021-08-04T08:21:40Z</time>
      </trkpt>
      <trkpt lat="44.8913" lon="-0.58978">
        <ele>-4</ele>
        <time>2021-08-04T08:21:49Z</time>
      </trkpt>
      <trkpt lat="44.89111" lon="-0.58965">
        <ele>-3.7999999523163</ele>
        <time>2021-08-04T08:21:55Z</time>
      </trkpt>
      <trkpt lat="44.89042" lon="-0.58892">
        <ele>-2</ele>
        <time>2021-08-04T08:22:25Z</time>
      </trkpt>
      <trkpt lat="44.88953" lon="-0.5884">
        <ele>-1.6000000238419</ele>
        <time>2021-08-04T08:22:44Z</time>
      </trkpt>
      <trkpt lat="44.88906" lon="-0.5883">
        <ele>-1.2000000476837</ele>
        <time>2021-08-04T08:22:54Z</time>
      </trkpt>
      <trkpt lat="44.88894" lon="-0.58822">
        <ele>-1.2000000476837</ele>
        <time>2021-08-04T08:22:57Z</time>
      </trkpt>
      <trkpt lat="44.88859" lon="-0.58708">
        <ele>-1.6000000238419</ele>
        <time>2021-08-04T08:23:17Z</time>
      </trkpt>
      <trkpt lat="44.88854" lon="-0.58681">
        <ele>-1.6000000238419</ele>
        <time>2021-08-04T08:23:22Z</time>
      </trkpt>
      <trkpt lat="44.88869" lon="-0.58638">
        <ele>-1.3999999761581</ele>
        <time>2021-08-04T08:23:30Z</time>
      </trkpt>
      <trkpt lat="44.88879" lon="-0.58615">
        <ele>-0.60000002384186</ele>
        <time>2021-08-04T08:24:01Z</time>
      </trkpt>
      <trkpt lat="44.88879" lon="-0.58561">
        <ele>0.20000000298023</ele>
        <time>2021-08-04T08:24:17Z</time>
      </trkpt>
      <trkpt lat="44.88878" lon="-0.58523">
        <ele>0.80000001192093</ele>
        <time>2021-08-04T08:24:29Z</time>
      </trkpt>
      <trkpt lat="44.88873" lon="-0.58529">
        <ele>1</ele>
        <time>2021-08-04T08:26:06Z</time>
      </trkpt>
      <trkpt lat="44.88857" lon="-0.58605">
        <ele>-1.2000000476837</ele>
        <time>2021-08-04T08:26:40Z</time>
      </trkpt>
      <trkpt lat="44.88854" lon="-0.58599">
        <ele>-1.3999999761581</ele>
        <time>2021-08-04T08:26:41Z</time>
      </trkpt>
      <trkpt lat="44.8885" lon="-0.58593">
        <ele>-1.3999999761581</ele>
        <time>2021-08-04T08:26:42Z</time>
      </trkpt>
      <trkpt lat="44.88803" lon="-0.58644">
        <ele>-3</ele>
        <time>2021-08-04T08:27:02Z</time>
      </trkpt>
      <trkpt lat="44.88698" lon="-0.58639">
        <ele>-0.80000001192093</ele>
        <time>2021-08-04T08:27:31Z</time>
      </trkpt>
      <trkpt lat="44.88665" lon="-0.5862">
        <ele>-1</ele>
        <time>2021-08-04T08:27:42Z</time>
      </trkpt>
      <trkpt lat="44.8863" lon="-0.58607">
        <ele>-0.80000001192093</ele>
        <time>2021-08-04T08:27:50Z</time>
      </trkpt>
      <trkpt lat="44.8861" lon="-0.586">
        <ele>-0.80000001192093</ele>
        <time>2021-08-04T08:27:54Z</time>
      </trkpt>
      <trkpt lat="44.88451" lon="-0.58551">
        <ele>-1.2000000476837</ele>
        <time>2021-08-04T08:28:26Z</time>
      </trkpt>
      <trkpt lat="44.88441" lon="-0.58547">
        <ele>-1.2000000476837</ele>
        <time>2021-08-04T08:28:29Z</time>
      </trkpt>
      <trkpt lat="44.88399" lon="-0.58528">
        <ele>-1.3999999761581</ele>
        <time>2021-08-04T08:28:36Z</time>
      </trkpt>
      <trkpt lat="44.88355" lon="-0.58498">
        <ele>-1.6000000238419</ele>
        <time>2021-08-04T08:28:45Z</time>
      </trkpt>
      <trkpt lat="44.88331" lon="-0.58478">
        <ele>-1.2000000476837</ele>
        <time>2021-08-04T08:28:51Z</time>
      </trkpt>
      <trkpt lat="44.8828" lon="-0.58456">
        <ele>-0.80000001192093</ele>
        <time>2021-08-04T08:29:01Z</time>
      </trkpt>
      <trkpt lat="44.88178" lon="-0.58419">
        <ele>-1</ele>
        <time>2021-08-04T08:29:20Z</time>
      </trkpt>
      <trkpt lat="44.88015" lon="-0.58325">
        <ele>-1.3999999761581</ele>
        <time>2021-08-04T08:29:51Z</time>
      </trkpt>
      <trkpt lat="44.87905" lon="-0.5823">
        <ele>-3.2000000476837</ele>
        <time>2021-08-04T08:30:19Z</time>
      </trkpt>
      <trkpt lat="44.87899" lon="-0.58222">
        <ele>-3.2000000476837</ele>
        <time>2021-08-04T08:30:20Z</time>
      </trkpt>
      <trkpt lat="44.87858" lon="-0.58167">
        <ele>-2.7999999523163</ele>
        <time>2021-08-04T08:30:33Z</time>
      </trkpt>
      <trkpt lat="44.87772" lon="-0.58035">
        <ele>-2.2000000476837</ele>
        <time>2021-08-04T08:30:56Z</time>
      </trkpt>
      <trkpt lat="44.8775" lon="-0.57973">
        <ele>-2.2000000476837</ele>
        <time>2021-08-04T08:31:06Z</time>
      </trkpt>
      <trkpt lat="44.8774" lon="-0.57899">
        <ele>-2.5999999046326</ele>
        <time>2021-08-04T08:31:23Z</time>
      </trkpt>
      <trkpt lat="44.87729" lon="-0.5773">
        <ele>-2.5999999046326</ele>
        <time>2021-08-04T08:31:51Z</time>
      </trkpt>
      <trkpt lat="44.87769" lon="-0.5762">
        <ele>-2.2000000476837</ele>
        <time>2021-08-04T08:32:09Z</time>
      </trkpt>
      <trkpt lat="44.87775" lon="-0.57592">
        <ele>-2.5999999046326</ele>
        <time>2021-08-04T08:32:18Z</time>
      </trkpt>
      <trkpt lat="44.87788" lon="-0.57564">
        <ele>-3</ele>
        <time>2021-08-04T08:32:32Z</time>
      </trkpt>
      <trkpt lat="44.87767" lon="-0.57616">
        <ele>-2.5999999046326</ele>
        <time>2021-08-04T08:32:58Z</time>
      </trkpt>
      <trkpt lat="44.8778" lon="-0.57586">
        <ele>-3</ele>
        <time>2021-08-04T08:33:17Z</time>
      </trkpt>
      <trkpt lat="44.87767" lon="-0.57597">
        <ele>-3.2000000476837</ele>
        <time>2021-08-04T08:33:45Z</time>
      </trkpt>
      <trkpt lat="44.87758" lon="-0.57596">
        <ele>-3.4000000953674</ele>
        <time>2021-08-04T08:33:51Z</time>
      </trkpt>
      <trkpt lat="44.87729" lon="-0.57621">
        <ele>-2.7999999523163</ele>
        <time>2021-08-04T08:34:02Z</time>
      </trkpt>
      <trkpt lat="44.87639" lon="-0.57654">
        <ele>-1.7999999523163</ele>
        <time>2021-08-04T08:34:23Z</time>
      </trkpt>
      <trkpt lat="44.87499" lon="-0.57652">
        <ele>-1.3999999761581</ele>
        <time>2021-08-04T08:34:55Z</time>
      </trkpt>
      <trkpt lat="44.87381" lon="-0.57615">
        <ele>-2.2000000476837</ele>
        <time>2021-08-04T08:35:25Z</time>
      </trkpt>
      <trkpt lat="44.87085" lon="-0.57594">
        <ele>-3</ele>
        <time>2021-08-04T08:36:22Z</time>
      </trkpt>
      <trkpt lat="44.86781" lon="-0.57562">
        <ele>-3.7999999523163</ele>
        <time>2021-08-04T08:37:30Z</time>
      </trkpt>
      <trkpt lat="44.86757" lon="-0.57559">
        <ele>-3.5999999046326</ele>
        <time>2021-08-04T08:37:36Z</time>
      </trkpt>
      <trkpt lat="44.86706" lon="-0.57561">
        <ele>-3.5999999046326</ele>
        <time>2021-08-04T08:37:48Z</time>
      </trkpt>
      <trkpt lat="44.86692" lon="-0.57562">
        <ele>-3.7999999523163</ele>
        <time>2021-08-04T08:37:51Z</time>
      </trkpt>
      <trkpt lat="44.86635" lon="-0.57566">
        <ele>-3.7999999523163</ele>
        <time>2021-08-04T08:38:29Z</time>
      </trkpt>
      <trkpt lat="44.86557" lon="-0.57547">
        <ele>-2.5999999046326</ele>
        <time>2021-08-04T08:38:58Z</time>
      </trkpt>
      <trkpt lat="44.86538" lon="-0.5752">
        <ele>-2.4000000953674</ele>
        <time>2021-08-04T08:39:03Z</time>
      </trkpt>
      <trkpt lat="44.86469" lon="-0.57455">
        <ele>-1.7999999523163</ele>
        <time>2021-08-04T08:39:21Z</time>
      </trkpt>
      <trkpt lat="44.86442" lon="-0.5742">
        <ele>-2</ele>
        <time>2021-08-04T08:39:30Z</time>
      </trkpt>
      <trkpt lat="44.86151" lon="-0.57073">
        <ele>-1.3999999761581</ele>
        <time>2021-08-04T08:40:49Z</time>
      </trkpt>
      <trkpt lat="44.86001" lon="-0.56905">
        <ele>-2</ele>
        <time>2021-08-04T08:41:26Z</time>
      </trkpt>
      <trkpt lat="44.85974" lon="-0.56871">
        <ele>-2.2000000476837</ele>
        <time>2021-08-04T08:41:39Z</time>
      </trkpt>
      <trkpt lat="44.85921" lon="-0.56801">
        <ele>-2.2000000476837</ele>
        <time>2021-08-04T08:41:57Z</time>
      </trkpt>
      <trkpt lat="44.8586" lon="-0.56744">
        <ele>-2.2000000476837</ele>
        <time>2021-08-04T08:42:11Z</time>
      </trkpt>
      <trkpt lat="44.85832" lon="-0.56713">
        <ele>-2.2000000476837</ele>
        <time>2021-08-04T08:42:19Z</time>
      </trkpt>
      <trkpt lat="44.8583" lon="-0.56694">
        <ele>-2.2000000476837</ele>
        <time>2021-08-04T08:43:12Z</time>
      </trkpt>
      <trkpt lat="44.85803" lon="-0.56657">
        <ele>-1.7999999523163</ele>
        <time>2021-08-04T08:43:23Z</time>
      </trkpt>
      <trkpt lat="44.85569" lon="-0.56377">
        <ele>-1.2000000476837</ele>
        <time>2021-08-04T08:44:35Z</time>
      </trkpt>
      <trkpt lat="44.85565" lon="-0.56374">
        <ele>-1.7999999523163</ele>
        <time>2021-08-04T08:44:49Z</time>
      </trkpt>
      <trkpt lat="44.85563" lon="-0.56372">
        <ele>-1.6000000238419</ele>
        <time>2021-08-04T08:44:50Z</time>
      </trkpt>
      <trkpt lat="44.85522" lon="-0.56342">
        <ele>-0.80000001192093</ele>
        <time>2021-08-04T08:45:12Z</time>
      </trkpt>
      <trkpt lat="44.85516" lon="-0.56324">
        <ele>-1.2000000476837</ele>
        <time>2021-08-04T08:45:22Z</time>
      </trkpt>
      <trkpt lat="44.85506" lon="-0.56339">
        <ele>-1</ele>
        <time>2021-08-04T08:45:28Z</time>
      </trkpt>
      <trkpt lat="44.85465" lon="-0.56402">
        <ele>-0.20000000298023</ele>
        <time>2021-08-04T08:45:51Z</time>
      </trkpt>
      <trkpt lat="44.85467" lon="-0.56397">
        <ele>-0.20000000298023</ele>
        <time>2021-08-04T08:45:54Z</time>
      </trkpt>
      <trkpt lat="44.85478" lon="-0.56378">
        <ele>-1.7999999523163</ele>
        <time>2021-08-04T08:46:05Z</time>
      </trkpt>
      <trkpt lat="44.85472" lon="-0.56383">
        <ele>-1.7999999523163</ele>
        <time>2021-08-04T08:49:17Z</time>
      </trkpt>
      <trkpt lat="44.8547" lon="-0.56388">
        <ele>-2</ele>
        <time>2021-08-04T08:49:19Z</time>
      </trkpt>
      <trkpt lat="44.85422" lon="-0.5647">
        <ele>-1.7999999523163</ele>
        <time>2021-08-04T08:49:43Z</time>
      </trkpt>
      <trkpt lat="44.85321" lon="-0.56608">
        <ele>-1.3999999761581</ele>
        <time>2021-08-04T08:50:20Z</time>
      </trkpt>
      <trkpt lat="44.85254" lon="-0.56683">
        <ele>-2</ele>
        <time>2021-08-04T08:52:19Z</time>
      </trkpt>
      <trkpt lat="44.85242" lon="-0.56702">
        <ele>-1.7999999523163</ele>
        <time>2021-08-04T08:52:29Z</time>
      </trkpt>
      <trkpt lat="44.85152" lon="-0.5681">
        <ele>-0.20000000298023</ele>
        <time>2021-08-04T08:53:01Z</time>
      </trkpt>
      <trkpt lat="44.85135" lon="-0.56835">
        <ele>-0.20000000298023</ele>
        <time>2021-08-04T08:53:07Z</time>
      </trkpt>
      <trkpt lat="44.84892" lon="-0.56974">
        <ele>0.20000000298023</ele>
        <time>2021-08-04T08:54:09Z</time>
      </trkpt>
      <trkpt lat="44.84814" lon="-0.56989">
        <ele>-0.60000002384186</ele>
        <time>2021-08-04T08:54:26Z</time>
      </trkpt>
      <trkpt lat="44.84704" lon="-0.57005">
        <ele>-0.60000002384186</ele>
        <time>2021-08-04T08:54:49Z</time>
      </trkpt>
      <trkpt lat="44.84572" lon="-0.57011">
        <ele>-1.6000000238419</ele>
        <time>2021-08-04T08:55:25Z</time>
      </trkpt>
      <trkpt lat="44.84471" lon="-0.56985">
        <ele>-2.4000000953674</ele>
        <time>2021-08-04T08:58:11Z</time>
      </trkpt>
      <trkpt lat="44.84413" lon="-0.56969">
        <ele>-2.4000000953674</ele>
        <time>2021-08-04T08:58:44Z</time>
      </trkpt>
      <trkpt lat="44.84249" lon="-0.56906">
        <ele>-2.7999999523163</ele>
        <time>2021-08-04T09:00:09Z</time>
      </trkpt>
      <trkpt lat="44.84185" lon="-0.56992">
        <ele>-2.4000000953674</ele>
        <time>2021-08-04T09:01:00Z</time>
      </trkpt>
      <trkpt lat="44.84164" lon="-0.57025">
        <ele>-2.2000000476837</ele>
        <time>2021-08-04T09:01:14Z</time>
      </trkpt>
      <trkpt lat="44.84149" lon="-0.57101">
        <ele>-1.6000000238419</ele>
        <time>2021-08-04T09:01:43Z</time>
      </trkpt>
      <trkpt lat="44.8415" lon="-0.57115">
        <ele>-1.3999999761581</ele>
        <time>2021-08-04T09:01:53Z</time>
      </trkpt>
      <trkpt lat="44.84137" lon="-0.57195">
        <ele>0.20000000298023</ele>
        <time>2021-08-04T09:02:21Z</time>
      </trkpt>
      <trkpt lat="44.84136" lon="-0.57211">
        <ele>0.40000000596046</ele>
        <time>2021-08-04T09:02:27Z</time>
      </trkpt>
      <trkpt lat="44.84131" lon="-0.57273">
        <ele>1.3999999761581</ele>
        <time>2021-08-04T09:02:50Z</time>
      </trkpt>
      <trkpt lat="44.8412" lon="-0.57348">
        <ele>2.5999999046326</ele>
        <time>2021-08-04T09:03:30Z</time>
      </trkpt>
      <trkpt lat="44.84121" lon="-0.57393">
        <ele>3</ele>
        <time>2021-08-04T09:03:46Z</time>
      </trkpt>
      <trkpt lat="44.8412" lon="-0.57422">
        <ele>3</ele>
        <time>2021-08-04T09:04:02Z</time>
      </trkpt>
      <trkpt lat="44.84124" lon="-0.57427">
        <ele>3</ele>
        <time>2021-08-04T09:04:05Z</time>
      </trkpt>
      <trkpt lat="44.84153" lon="-0.57451">
        <ele>4.1999998092651</ele>
        <time>2021-08-04T09:04:23Z</time>
      </trkpt>
      <trkpt lat="44.84175" lon="-0.57453">
        <ele>3.7999999523163</ele>
        <time>2021-08-04T09:04:38Z</time>
      </trkpt>
      <trkpt lat="44.84241" lon="-0.57449">
        <ele>3.2000000476837</ele>
        <time>2021-08-04T09:05:09Z</time>
      </trkpt>
      <trkpt lat="44.8426" lon="-0.57451">
        <ele>3.2000000476837</ele>
        <time>2021-08-04T09:05:17Z</time>
      </trkpt>
      <trkpt lat="44.8428" lon="-0.57459">
        <ele>3</ele>
        <time>2021-08-04T09:05:30Z</time>
      </trkpt>
      <trkpt lat="44.84258" lon="-0.57529">
        <ele>4.5999999046326</ele>
        <time>2021-08-04T09:06:46Z</time>
      </trkpt>
      <trkpt lat="44.84255" lon="-0.57533">
        <ele>4.5999999046326</ele>
        <time>2021-08-04T09:06:48Z</time>
      </trkpt>
      <trkpt lat="44.84252" lon="-0.5755">
        <ele>4.8000001907349</ele>
        <time>2021-08-04T09:06:57Z</time>
      </trkpt>
      <trkpt lat="44.8425" lon="-0.57558">
        <ele>4.8000001907349</ele>
        <time>2021-08-04T09:07:01Z</time>
      </trkpt>
      <trkpt lat="44.84277" lon="-0.57628">
        <ele>4.1999998092651</ele>
        <time>2021-08-04T09:07:29Z</time>
      </trkpt>
      <trkpt lat="44.84285" lon="-0.57632">
        <ele>3.7999999523163</ele>
        <time>2021-08-04T09:07:35Z</time>
      </trkpt>
      <trkpt lat="44.84301" lon="-0.57637">
        <ele>3.7999999523163</ele>
        <time>2021-08-04T09:07:44Z</time>
      </trkpt>
      <trkpt lat="44.84313" lon="-0.57703">
        <ele>5</ele>
        <time>2021-08-04T09:09:16Z</time>
      </trkpt>
      <trkpt lat="44.84282" lon="-0.57738">
        <ele>5</ele>
        <time>2021-08-04T09:09:40Z</time>
      </trkpt>
      <trkpt lat="44.8426" lon="-0.57742">
        <ele>5.5999999046326</ele>
        <time>2021-08-04T09:09:49Z</time>
      </trkpt>
      <trkpt lat="44.84189" lon="-0.57753">
        <ele>5.8000001907349</ele>
        <time>2021-08-04T09:10:27Z</time>
      </trkpt>
      <trkpt lat="44.84187" lon="-0.5788">
        <ele>7.5999999046326</ele>
        <time>2021-08-04T09:11:04Z</time>
      </trkpt>
      <trkpt lat="44.8418" lon="-0.57997">
        <ele>9</ele>
        <time>2021-08-04T09:11:30Z</time>
      </trkpt>
      <trkpt lat="44.84121" lon="-0.58008">
        <ele>9</ele>
        <time>2021-08-04T09:11:47Z</time>
      </trkpt>
      <trkpt lat="44.84066" lon="-0.58004">
        <ele>7.4000000953674</ele>
        <time>2021-08-04T09:12:15Z</time>
      </trkpt>
      <trkpt lat="44.83989" lon="-0.5798">
        <ele>7.8000001907349</ele>
        <time>2021-08-04T09:12:52Z</time>
      </trkpt>
      <trkpt lat="44.83876" lon="-0.57955">
        <ele>5</ele>
        <time>2021-08-04T09:13:31Z</time>
      </trkpt>
      <trkpt lat="44.83869" lon="-0.57957">
        <ele>4.8000001907349</ele>
        <time>2021-08-04T09:13:33Z</time>
      </trkpt>
      <trkpt lat="44.83834" lon="-0.57946">
        <ele>3.4000000953674</ele>
        <time>2021-08-04T09:13:46Z</time>
      </trkpt>
      <trkpt lat="44.83794" lon="-0.57895">
        <ele>1.6000000238419</ele>
        <time>2021-08-04T09:14:15Z</time>
      </trkpt>
      <trkpt lat="44.83792" lon="-0.57889">
        <ele>1.6000000238419</ele>
        <time>2021-08-04T09:14:17Z</time>
      </trkpt>
      <trkpt lat="44.83785" lon="-0.57878">
        <ele>1.7999999523163</ele>
        <time>2021-08-04T09:14:21Z</time>
      </trkpt>
      <trkpt lat="44.83817" lon="-0.57793">
        <ele>0.80000001192093</ele>
        <time>2021-08-04T09:15:02Z</time>
      </trkpt>
      <trkpt lat="44.83861" lon="-0.57735">
        <ele>-1.7999999523163</ele>
        <time>2021-08-04T09:58:09Z</time>
      </trkpt>
      <trkpt lat="44.83839" lon="-0.5773">
        <ele>-1.6000000238419</ele>
        <time>2021-08-04T09:58:13Z</time>
      </trkpt>
      <trkpt lat="44.83837" lon="-0.5773">
        <ele>-2</ele>
        <time>2021-08-04T09:58:15Z</time>
      </trkpt>
      <trkpt lat="44.83897" lon="-0.57767">
        <ele>-2.2000000476837</ele>
        <time>2021-08-04T09:58:21Z</time>
      </trkpt>
      <trkpt lat="44.83948" lon="-0.57717">
        <ele>-1.2000000476837</ele>
        <time>2021-08-04T09:58:42Z</time>
      </trkpt>
      <trkpt lat="44.83951" lon="-0.57715">
        <ele>-1</ele>
        <time>2021-08-04T09:58:44Z</time>
      </trkpt>
      <trkpt lat="44.83996" lon="-0.57595">
        <ele>-0.40000000596046</ele>
        <time>2021-08-04T09:59:33Z</time>
      </trkpt>
      <trkpt lat="44.84032" lon="-0.57491">
        <ele>-0.20000000298023</ele>
        <time>2021-08-04T10:00:02Z</time>
      </trkpt>
      <trkpt lat="44.84042" lon="-0.57437">
        <ele>0.80000001192093</ele>
        <time>2021-08-04T10:00:18Z</time>
      </trkpt>
      <trkpt lat="44.84035" lon="-0.57422">
        <ele>0.80000001192093</ele>
        <time>2021-08-04T10:01:14Z</time>
      </trkpt>
      <trkpt lat="44.84041" lon="-0.57234">
        <ele>-1.7999999523163</ele>
        <time>2021-08-04T10:01:58Z</time>
      </trkpt>
      <trkpt lat="44.84065" lon="-0.57228">
        <ele>-1.6000000238419</ele>
        <time>2021-08-04T10:14:49Z</time>
      </trkpt>
      <trkpt lat="44.84062" lon="-0.57294">
        <ele>-1.7999999523163</ele>
        <time>2021-08-04T10:15:12Z</time>
      </trkpt>
      <trkpt lat="44.8406" lon="-0.57324">
        <ele>-1.7999999523163</ele>
        <time>2021-08-04T10:15:20Z</time>
      </trkpt>
      <trkpt lat="44.84095" lon="-0.57362">
        <ele>0.60000002384186</ele>
        <time>2021-08-04T10:15:54Z</time>
      </trkpt>
      <trkpt lat="44.8412" lon="-0.57388">
        <ele>3.2000000476837</ele>
        <time>2021-08-04T10:16:19Z</time>
      </trkpt>
      <trkpt lat="44.84114" lon="-0.57521">
        <ele>4.1999998092651</ele>
        <time>2021-08-04T10:17:16Z</time>
      </trkpt>
      <trkpt lat="44.84108" lon="-0.57634">
        <ele>4.4000000953674</ele>
        <time>2021-08-04T10:17:51Z</time>
      </trkpt>
      <trkpt lat="44.84106" lon="-0.57697">
        <ele>5</ele>
        <time>2021-08-04T10:18:09Z</time>
      </trkpt>
      <trkpt lat="44.8411" lon="-0.57782">
        <ele>5.5999999046326</ele>
        <time>2021-08-04T10:18:33Z</time>
      </trkpt>
      <trkpt lat="44.84097" lon="-0.57845">
        <ele>6.1999998092651</ele>
        <time>2021-08-04T10:19:07Z</time>
      </trkpt>
      <trkpt lat="44.84161" lon="-0.57857">
        <ele>7.4000000953674</ele>
        <time>2021-08-04T10:19:32Z</time>
      </trkpt>
      <trkpt lat="44.84183" lon="-0.5793">
        <ele>8.6000003814697</ele>
        <time>2021-08-04T10:19:49Z</time>
      </trkpt>
      <trkpt lat="44.8419" lon="-0.57953">
        <ele>8.6000003814697</ele>
        <time>2021-08-04T10:19:56Z</time>
      </trkpt>
      <trkpt lat="44.84188" lon="-0.58006">
        <ele>7.8000001907349</ele>
        <time>2021-08-04T10:20:35Z</time>
      </trkpt>
      <trkpt lat="44.84175" lon="-0.58069">
        <ele>8.1999998092651</ele>
        <time>2021-08-04T10:20:47Z</time>
      </trkpt>
      <trkpt lat="44.84169" lon="-0.58109">
        <ele>8.1999998092651</ele>
        <time>2021-08-04T10:20:55Z</time>
      </trkpt>
      <trkpt lat="44.84158" lon="-0.58315">
        <ele>7.1999998092651</ele>
        <time>2021-08-04T10:21:35Z</time>
      </trkpt>
      <trkpt lat="44.84157" lon="-0.5835">
        <ele>6.4000000953674</ele>
        <time>2021-08-04T10:22:09Z</time>
      </trkpt>
      <trkpt lat="44.84133" lon="-0.58345">
        <ele>6.5999999046326</ele>
        <time>2021-08-04T10:22:14Z</time>
      </trkpt>
      <trkpt lat="44.84045" lon="-0.58318">
        <ele>7</ele>
        <time>2021-08-04T10:22:34Z</time>
      </trkpt>
      <trkpt lat="44.83968" lon="-0.5831">
        <ele>6.8000001907349</ele>
        <time>2021-08-04T10:22:51Z</time>
      </trkpt>
      <trkpt lat="44.83935" lon="-0.58311">
        <ele>6.8000001907349</ele>
        <time>2021-08-04T10:22:57Z</time>
      </trkpt>
      <trkpt lat="44.83883" lon="-0.58303">
        <ele>5.4000000953674</ele>
        <time>2021-08-04T10:23:06Z</time>
      </trkpt>
      <trkpt lat="44.83796" lon="-0.58291">
        <ele>2.2000000476837</ele>
        <time>2021-08-04T10:23:30Z</time>
      </trkpt>
      <trkpt lat="44.83764" lon="-0.58286">
        <ele>2</ele>
        <time>2021-08-04T10:23:36Z</time>
      </trkpt>
      <trkpt lat="44.83669" lon="-0.5826">
        <ele>8.9</ele>
        <time>2021-08-04T10:23:54Z</time>
      </trkpt>
      <trkpt lat="44.836" lon="-0.58261">
        <ele>8</ele>
        <time>2021-08-04T10:24:53Z</time>
      </trkpt>
      <trkpt lat="44.83593" lon="-0.58254">
        <ele>8</ele>
        <time>2021-08-04T10:24:57Z</time>
      </trkpt>
      <trkpt lat="44.83569" lon="-0.5824">
        <ele>0.40000000596046</ele>
        <time>2021-08-04T10:25:09Z</time>
      </trkpt>
      <trkpt lat="44.83396" lon="-0.58199">
        <ele>1.6000000238419</ele>
        <time>2021-08-04T10:26:02Z</time>
      </trkpt>
      <trkpt lat="44.83324" lon="-0.58191">
        <ele>3.2000000476837</ele>
        <time>2021-08-04T10:26:23Z</time>
      </trkpt>
      <trkpt lat="44.833" lon="-0.58188">
        <ele>3.5999999046326</ele>
        <time>2021-08-04T10:26:29Z</time>
      </trkpt>
      <trkpt lat="44.83208" lon="-0.58161">
        <ele>4.4000000953674</ele>
        <time>2021-08-04T10:27:10Z</time>
      </trkpt>
      <trkpt lat="44.83191" lon="-0.58158">
        <ele>4.5999999046326</ele>
        <time>2021-08-04T10:27:14Z</time>
      </trkpt>
      <trkpt lat="44.83131" lon="-0.58152">
        <ele>5</ele>
        <time>2021-08-04T10:27:29Z</time>
      </trkpt>
      <trkpt lat="44.83104" lon="-0.58146">
        <ele>4.8000001907349</ele>
        <time>2021-08-04T10:27:35Z</time>
      </trkpt>
      <trkpt lat="44.82981" lon="-0.58112">
        <ele>4.8000001907349</ele>
        <time>2021-08-04T10:28:44Z</time>
      </trkpt>
      <trkpt lat="44.82927" lon="-0.58035">
        <ele>4.5999999046326</ele>
        <time>2021-08-04T10:29:05Z</time>
      </trkpt>
      <trkpt lat="44.82907" lon="-0.5801">
        <ele>4.4000000953674</ele>
        <time>2021-08-04T10:29:10Z</time>
      </trkpt>
      <trkpt lat="44.82857" lon="-0.57963">
        <ele>5.1999998092651</ele>
        <time>2021-08-04T10:29:26Z</time>
      </trkpt>
      <trkpt lat="44.82835" lon="-0.57968">
        <ele>5.1999998092651</ele>
        <time>2021-08-04T10:29:30Z</time>
      </trkpt>
      <trkpt lat="44.82797" lon="-0.57983">
        <ele>6</ele>
        <time>2021-08-04T10:29:38Z</time>
      </trkpt>
      <trkpt lat="44.82753" lon="-0.58003">
        <ele>6.8000001907349</ele>
        <time>2021-08-04T10:29:50Z</time>
      </trkpt>
      <trkpt lat="44.82695" lon="-0.5804">
        <ele>6.1999998092651</ele>
        <time>2021-08-04T10:30:07Z</time>
      </trkpt>
      <trkpt lat="44.82592" lon="-0.5809">
        <ele>7.4000000953674</ele>
        <time>2021-08-04T10:30:34Z</time>
      </trkpt>
      <trkpt lat="44.82554" lon="-0.58105">
        <ele>7.5999999046326</ele>
        <time>2021-08-04T10:30:42Z</time>
      </trkpt>
      <trkpt lat="44.82537" lon="-0.58115">
        <ele>7.8000001907349</ele>
        <time>2021-08-04T10:30:45Z</time>
      </trkpt>
      <trkpt lat="44.82523" lon="-0.58124">
        <ele>8.1999998092651</ele>
        <time>2021-08-04T10:30:48Z</time>
      </trkpt>
      <trkpt lat="44.82489" lon="-0.58157">
        <ele>8.6000003814697</ele>
        <time>2021-08-04T10:30:56Z</time>
      </trkpt>
      <trkpt lat="44.8244" lon="-0.58194">
        <ele>8.6000003814697</ele>
        <time>2021-08-04T10:31:10Z</time>
      </trkpt>
      <trkpt lat="44.82407" lon="-0.58205">
        <ele>8.3999996185303</ele>
        <time>2021-08-04T10:31:18Z</time>
      </trkpt>
      <trkpt lat="44.82347" lon="-0.58223">
        <ele>8.8000001907349</ele>
        <time>2021-08-04T10:31:32Z</time>
      </trkpt>
      <trkpt lat="44.82313" lon="-0.58226">
        <ele>9.1999998092651</ele>
        <time>2021-08-04T10:31:39Z</time>
      </trkpt>
      <trkpt lat="44.82151" lon="-0.58286">
        <ele>9.8000001907349</ele>
        <time>2021-08-04T10:32:32Z</time>
      </trkpt>
      <trkpt lat="44.82147" lon="-0.58292">
        <ele>10</ele>
        <time>2021-08-04T10:32:34Z</time>
      </trkpt>
      <trkpt lat="44.8214" lon="-0.58303">
        <ele>9.6000003814697</ele>
        <time>2021-08-04T10:32:38Z</time>
      </trkpt>
      <trkpt lat="44.82098" lon="-0.58432">
        <ele>10</ele>
        <time>2021-08-04T10:33:10Z</time>
      </trkpt>
      <trkpt lat="44.82091" lon="-0.58436">
        <ele>10</ele>
        <time>2021-08-04T10:33:13Z</time>
      </trkpt>
      <trkpt lat="44.82078" lon="-0.58419">
        <ele>10</ele>
        <time>2021-08-04T10:33:18Z</time>
      </trkpt>
      <trkpt lat="44.82061" lon="-0.58395">
        <ele>9.6000003814697</ele>
        <time>2021-08-04T10:33:24Z</time>
      </trkpt>
      <trkpt lat="44.81949" lon="-0.58425">
        <ele>10.60000038147</ele>
        <time>2021-08-04T10:33:48Z</time>
      </trkpt>
      <trkpt lat="44.81918" lon="-0.58443">
        <ele>10</ele>
        <time>2021-08-04T10:34:26Z</time>
      </trkpt>
      <trkpt lat="44.81881" lon="-0.58478">
        <ele>10.60000038147</ele>
        <time>2021-08-04T10:34:39Z</time>
      </trkpt>
      <trkpt lat="44.81752" lon="-0.58528">
        <ele>12.800000190735</ele>
        <time>2021-08-04T10:35:15Z</time>
      </trkpt>
      <trkpt lat="44.81721" lon="-0.58555">
        <ele>12.39999961853</ele>
        <time>2021-08-04T10:35:23Z</time>
      </trkpt>
      <trkpt lat="44.81665" lon="-0.586">
        <ele>11.60000038147</ele>
        <time>2021-08-04T10:35:39Z</time>
      </trkpt>
      <trkpt lat="44.81555" lon="-0.58675">
        <ele>11.39999961853</ele>
        <time>2021-08-04T11:03:01Z</time>
      </trkpt>
      <trkpt lat="44.81539" lon="-0.58693">
        <ele>11.60000038147</ele>
        <time>2021-08-04T11:03:06Z</time>
      </trkpt>
      <trkpt lat="44.81498" lon="-0.58762">
        <ele>9.8000001907349</ele>
        <time>2021-08-04T11:04:06Z</time>
      </trkpt>
      <trkpt lat="44.81447" lon="-0.5869">
        <ele>11</ele>
        <time>2021-08-04T11:04:42Z</time>
      </trkpt>
      <trkpt lat="44.81413" lon="-0.58689">
        <ele>10.800000190735</ele>
        <time>2021-08-04T11:04:50Z</time>
      </trkpt>
      <trkpt lat="44.81379" lon="-0.58686">
        <ele>11.39999961853</ele>
        <time>2021-08-04T11:04:58Z</time>
      </trkpt>
      <trkpt lat="44.8137" lon="-0.58686">
        <ele>11.60000038147</ele>
        <time>2021-08-04T11:05:00Z</time>
      </trkpt>
      <trkpt lat="44.81221" lon="-0.58626">
        <ele>12</ele>
        <time>2021-08-04T11:05:35Z</time>
      </trkpt>
      <trkpt lat="44.8114" lon="-0.5862">
        <ele>11.39999961853</ele>
        <time>2021-08-04T11:05:50Z</time>
      </trkpt>
      <trkpt lat="44.81101" lon="-0.58621">
        <ele>11.199999809265</ele>
        <time>2021-08-04T11:05:58Z</time>
      </trkpt>
      <trkpt lat="44.81066" lon="-0.58609">
        <ele>10.60000038147</ele>
        <time>2021-08-04T11:06:13Z</time>
      </trkpt>
      <trkpt lat="44.80976" lon="-0.58619">
        <ele>10.199999809265</ele>
        <time>2021-08-04T11:06:31Z</time>
      </trkpt>
      <trkpt lat="44.80875" lon="-0.58616">
        <ele>6.8000001907349</ele>
        <time>2021-08-04T11:06:49Z</time>
      </trkpt>
      <trkpt lat="44.80861" lon="-0.58616">
        <ele>4</ele>
        <time>2021-08-04T11:06:56Z</time>
      </trkpt>
      <trkpt lat="44.80732" lon="-0.58624">
        <ele>5.4000000953674</ele>
        <time>2021-08-04T11:07:34Z</time>
      </trkpt>
      <trkpt lat="44.80697" lon="-0.58621">
        <ele>6.5999999046326</ele>
        <time>2021-08-04T11:07:45Z</time>
      </trkpt>
      <trkpt lat="44.80659" lon="-0.58625">
        <ele>7</ele>
        <time>2021-08-04T11:07:56Z</time>
      </trkpt>
      <trkpt lat="44.80618" lon="-0.58646">
        <ele>8.1999998092651</ele>
        <time>2021-08-04T11:08:06Z</time>
      </trkpt>
      <trkpt lat="44.80582" lon="-0.5865">
        <ele>8.8000001907349</ele>
        <time>2021-08-04T11:08:14Z</time>
      </trkpt>
      <trkpt lat="44.80418" lon="-0.58678">
        <ele>9</ele>
        <time>2021-08-04T11:08:47Z</time>
      </trkpt>
      <trkpt lat="44.80326" lon="-0.58661">
        <ele>8.8000001907349</ele>
        <time>2021-08-04T11:09:08Z</time>
      </trkpt>
      <trkpt lat="44.80309" lon="-0.58651">
        <ele>9</ele>
        <time>2021-08-04T11:09:12Z</time>
      </trkpt>
      <trkpt lat="44.80251" lon="-0.58585">
        <ele>11.199999809265</ele>
        <time>2021-08-04T11:09:29Z</time>
      </trkpt>
      <trkpt lat="44.80236" lon="-0.58572">
        <ele>11.800000190735</ele>
        <time>2021-08-04T11:09:33Z</time>
      </trkpt>
      <trkpt lat="44.80213" lon="-0.58558">
        <ele>11.60000038147</ele>
        <time>2021-08-04T11:09:39Z</time>
      </trkpt>
      <trkpt lat="44.80205" lon="-0.58555">
        <ele>11.60000038147</ele>
        <time>2021-08-04T11:09:41Z</time>
      </trkpt>
      <trkpt lat="44.80181" lon="-0.58547">
        <ele>11.60000038147</ele>
        <time>2021-08-04T11:09:47Z</time>
      </trkpt>
      <trkpt lat="44.80133" lon="-0.58514">
        <ele>10.800000190735</ele>
        <time>2021-08-04T11:09:57Z</time>
      </trkpt>
      <trkpt lat="44.80102" lon="-0.58506">
        <ele>11.199999809265</ele>
        <time>2021-08-04T11:10:03Z</time>
      </trkpt>
      <trkpt lat="44.80011" lon="-0.58496">
        <ele>13.199999809265</ele>
        <time>2021-08-04T11:10:31Z</time>
      </trkpt>
      <trkpt lat="44.79988" lon="-0.58487">
        <ele>13.60000038147</ele>
        <time>2021-08-04T11:10:38Z</time>
      </trkpt>
      <trkpt lat="44.79979" lon="-0.58468">
        <ele>13.800000190735</ele>
        <time>2021-08-04T11:10:43Z</time>
      </trkpt>
      <trkpt lat="44.79908" lon="-0.58341">
        <ele>13.60000038147</ele>
        <time>2021-08-04T11:11:10Z</time>
      </trkpt>
      <trkpt lat="44.79855" lon="-0.58242">
        <ele>13.39999961853</ele>
        <time>2021-08-04T11:11:31Z</time>
      </trkpt>
      <trkpt lat="44.79778" lon="-0.58128">
        <ele>14</ele>
        <time>2021-08-04T11:11:55Z</time>
      </trkpt>
      <trkpt lat="44.79719" lon="-0.58133">
        <ele>14.199999809265</ele>
        <time>2021-08-04T11:12:17Z</time>
      </trkpt>
      <trkpt lat="44.7958" lon="-0.58193">
        <ele>16.39999961853</ele>
        <time>2021-08-04T11:12:52Z</time>
      </trkpt>
      <trkpt lat="44.79553" lon="-0.58217">
        <ele>16.200000762939</ele>
        <time>2021-08-04T11:12:58Z</time>
      </trkpt>
      <trkpt lat="44.7931" lon="-0.58471">
        <ele>13.39999961853</ele>
        <time>2021-08-04T11:13:57Z</time>
      </trkpt>
      <trkpt lat="44.79253" lon="-0.58547">
        <ele>13.199999809265</ele>
        <time>2021-08-04T11:14:14Z</time>
      </trkpt>
      <trkpt lat="44.79228" lon="-0.58578">
        <ele>13.39999961853</ele>
        <time>2021-08-04T11:14:22Z</time>
      </trkpt>
      <trkpt lat="44.7919" lon="-0.58607">
        <ele>14.199999809265</ele>
        <time>2021-08-04T11:14:34Z</time>
      </trkpt>
      <trkpt lat="44.79163" lon="-0.58652">
        <ele>14.199999809265</ele>
        <time>2021-08-04T11:14:45Z</time>
      </trkpt>
      <trkpt lat="44.79154" lon="-0.58698">
        <ele>14</ele>
        <time>2021-08-04T11:14:53Z</time>
      </trkpt>
      <trkpt lat="44.79149" lon="-0.58722">
        <ele>13.800000190735</ele>
        <time>2021-08-04T11:14:58Z</time>
      </trkpt>
      <trkpt lat="44.79111" lon="-0.58745">
        <ele>13.800000190735</ele>
        <time>2021-08-04T11:15:12Z</time>
      </trkpt>
      <trkpt lat="44.79105" lon="-0.58754">
        <ele>13.800000190735</ele>
        <time>2021-08-04T11:15:14Z</time>
      </trkpt>
      <trkpt lat="44.79047" lon="-0.5877">
        <ele>13</ele>
        <time>2021-08-04T11:15:29Z</time>
      </trkpt>
      <trkpt lat="44.78987" lon="-0.58715">
        <ele>12.800000190735</ele>
        <time>2021-08-04T11:15:42Z</time>
      </trkpt>
      <trkpt lat="44.78963" lon="-0.5871">
        <ele>12.199999809265</ele>
        <time>2021-08-04T11:15:47Z</time>
      </trkpt>
      <trkpt lat="44.78951" lon="-0.5871">
        <ele>10.39999961853</ele>
        <time>2021-08-04T11:15:49Z</time>
      </trkpt>
      <trkpt lat="44.7891" lon="-0.58702">
        <ele>9.1999998092651</ele>
        <time>2021-08-04T11:15:56Z</time>
      </trkpt>
      <trkpt lat="44.78849" lon="-0.58689">
        <ele>7.4000000953674</ele>
        <time>2021-08-04T11:16:11Z</time>
      </trkpt>
      <trkpt lat="44.78566" lon="-0.58628">
        <ele>7.1999998092651</ele>
        <time>2021-08-04T11:17:06Z</time>
      </trkpt>
      <trkpt lat="44.78472" lon="-0.58571">
        <ele>4</ele>
        <time>2021-08-04T11:17:35Z</time>
      </trkpt>
      <trkpt lat="44.78465" lon="-0.58573">
        <ele>4</ele>
        <time>2021-08-04T11:17:37Z</time>
      </trkpt>
      <trkpt lat="44.7836" lon="-0.58435">
        <ele>4</ele>
        <time>2021-08-04T11:18:29Z</time>
      </trkpt>
      <trkpt lat="44.78355" lon="-0.58418">
        <ele>3.2000000476837</ele>
        <time>2021-08-04T11:18:39Z</time>
      </trkpt>
      <trkpt lat="44.78366" lon="-0.58435">
        <ele>3</ele>
        <time>2021-08-04T11:18:48Z</time>
      </trkpt>
      <trkpt lat="44.78383" lon="-0.58477">
        <ele>3.7999999523163</ele>
        <time>2021-08-04T11:19:01Z</time>
      </trkpt>
      <trkpt lat="44.78385" lon="-0.58503">
        <ele>4.8000001907349</ele>
        <time>2021-08-04T11:19:08Z</time>
      </trkpt>
      <trkpt lat="44.78436" lon="-0.58598">
        <ele>4.5999999046326</ele>
        <time>2021-08-04T11:19:53Z</time>
      </trkpt>
      <trkpt lat="44.784" lon="-0.58592">
        <ele>5.1999998092651</ele>
        <time>2021-08-04T11:20:03Z</time>
      </trkpt>
      <trkpt lat="44.78216" lon="-0.58555">
        <ele>8.1999998092651</ele>
        <time>2021-08-04T11:20:51Z</time>
      </trkpt>
      <trkpt lat="44.78118" lon="-0.58567">
        <ele>6</ele>
        <time>2021-08-04T11:21:39Z</time>
      </trkpt>
      <trkpt lat="44.78064" lon="-0.58603">
        <ele>6.4000000953674</ele>
        <time>2021-08-04T11:21:50Z</time>
      </trkpt>
      <trkpt lat="44.77999" lon="-0.58688">
        <ele>5</ele>
        <time>2021-08-04T11:22:04Z</time>
      </trkpt>
      <trkpt lat="44.77951" lon="-0.58774">
        <ele>3</ele>
        <time>2021-08-04T11:22:21Z</time>
      </trkpt>
      <trkpt lat="44.77908" lon="-0.58859">
        <ele>1.3999999761581</ele>
        <time>2021-08-04T11:22:50Z</time>
      </trkpt>
      <trkpt lat="44.7787" lon="-0.58921">
        <ele>0.80000001192093</ele>
        <time>2021-08-04T11:24:31Z</time>
      </trkpt>
      <trkpt lat="44.7782" lon="-0.59032">
        <ele>2</ele>
        <time>2021-08-04T11:24:52Z</time>
      </trkpt>
      <trkpt lat="44.77797" lon="-0.59083">
        <ele>2.2000000476837</ele>
        <time>2021-08-04T11:25:01Z</time>
      </trkpt>
      <trkpt lat="44.77776" lon="-0.59144">
        <ele>3</ele>
        <time>2021-08-04T11:25:11Z</time>
      </trkpt>
      <trkpt lat="44.77727" lon="-0.59265">
        <ele>3.4000000953674</ele>
        <time>2021-08-04T11:25:32Z</time>
      </trkpt>
      <trkpt lat="44.77721" lon="-0.59294">
        <ele>3.5999999046326</ele>
        <time>2021-08-04T11:25:37Z</time>
      </trkpt>
      <trkpt lat="44.77719" lon="-0.59313">
        <ele>3.5999999046326</ele>
        <time>2021-08-04T11:25:40Z</time>
      </trkpt>
      <trkpt lat="44.77682" lon="-0.59394">
        <ele>4.5999999046326</ele>
        <time>2021-08-04T11:25:56Z</time>
      </trkpt>
      <trkpt lat="44.77665" lon="-0.59433">
        <ele>4.8000001907349</ele>
        <time>2021-08-04T11:26:03Z</time>
      </trkpt>
      <trkpt lat="44.77656" lon="-0.59449">
        <ele>5</ele>
        <time>2021-08-04T11:26:06Z</time>
      </trkpt>
      <trkpt lat="44.77653" lon="-0.59453">
        <ele>4.8000001907349</ele>
        <time>2021-08-04T11:26:07Z</time>
      </trkpt>
      <trkpt lat="44.77602" lon="-0.59524">
        <ele>5.5999999046326</ele>
        <time>2021-08-04T11:26:23Z</time>
      </trkpt>
      <trkpt lat="44.77563" lon="-0.59557">
        <ele>5.5999999046326</ele>
        <time>2021-08-04T11:26:33Z</time>
      </trkpt>
      <trkpt lat="44.77513" lon="-0.59603">
        <ele>5.4000000953674</ele>
        <time>2021-08-04T11:26:46Z</time>
      </trkpt>
      <trkpt lat="44.7747" lon="-0.59731">
        <ele>5.8000001907349</ele>
        <time>2021-08-04T11:27:20Z</time>
      </trkpt>
      <trkpt lat="44.77378" lon="-0.59971">
        <ele>6</ele>
        <time>2021-08-04T11:28:01Z</time>
      </trkpt>
      <trkpt lat="44.77285" lon="-0.60117">
        <ele>7.8000001907349</ele>
        <time>2021-08-04T11:28:53Z</time>
      </trkpt>
      <trkpt lat="44.77205" lon="-0.6024">
        <ele>8.3999996185303</ele>
        <time>2021-08-04T11:29:19Z</time>
      </trkpt>
      <trkpt lat="44.77123" lon="-0.6033">
        <ele>8.3999996185303</ele>
        <time>2021-08-04T11:29:41Z</time>
      </trkpt>
      <trkpt lat="44.77088" lon="-0.60703">
        <ele>10.39999961853</ele>
        <time>2021-08-04T11:30:40Z</time>
      </trkpt>
      <trkpt lat="44.77098" lon="-0.609">
        <ele>10.39999961853</ele>
        <time>2021-08-04T11:31:06Z</time>
      </trkpt>
      <trkpt lat="44.77099" lon="-0.60922">
        <ele>10.800000190735</ele>
        <time>2021-08-04T11:31:09Z</time>
      </trkpt>
      <trkpt lat="44.77054" lon="-0.61024">
        <ele>10.800000190735</ele>
        <time>2021-08-04T11:31:32Z</time>
      </trkpt>
      <trkpt lat="44.77043" lon="-0.61042">
        <ele>10.800000190735</ele>
        <time>2021-08-04T11:31:35Z</time>
      </trkpt>
      <trkpt lat="44.76889" lon="-0.61117">
        <ele>8.1999998092651</ele>
        <time>2021-08-04T11:32:03Z</time>
      </trkpt>
      <trkpt lat="44.76811" lon="-0.61162">
        <ele>8.1999998092651</ele>
        <time>2021-08-04T11:32:18Z</time>
      </trkpt>
      <trkpt lat="44.76766" lon="-0.61185">
        <ele>9.1999998092651</ele>
        <time>2021-08-04T11:32:33Z</time>
      </trkpt>
      <trkpt lat="44.76773" lon="-0.61203">
        <ele>8</ele>
        <time>2021-08-04T11:32:51Z</time>
      </trkpt>
      <trkpt lat="44.76745" lon="-0.61329">
        <ele>11.39999961853</ele>
        <time>2021-08-04T11:33:15Z</time>
      </trkpt>
      <trkpt lat="44.76744" lon="-0.61335">
        <ele>11.39999961853</ele>
        <time>2021-08-04T11:33:16Z</time>
      </trkpt>
      <trkpt lat="44.76668" lon="-0.61579">
        <ele>10.800000190735</ele>
        <time>2021-08-04T11:33:56Z</time>
      </trkpt>
      <trkpt lat="44.76663" lon="-0.6159">
        <ele>10.60000038147</ele>
        <time>2021-08-04T11:33:58Z</time>
      </trkpt>
      <trkpt lat="44.76648" lon="-0.61627">
        <ele>10.39999961853</ele>
        <time>2021-08-04T11:34:05Z</time>
      </trkpt>
      <trkpt lat="44.76602" lon="-0.61773">
        <ele>10</ele>
        <time>2021-08-04T11:34:26Z</time>
      </trkpt>
      <trkpt lat="44.76585" lon="-0.61836">
        <ele>10</ele>
        <time>2021-08-04T11:34:34Z</time>
      </trkpt>
      <trkpt lat="44.76517" lon="-0.61835">
        <ele>9</ele>
        <time>2021-08-04T11:34:56Z</time>
      </trkpt>
      <trkpt lat="44.76493" lon="-0.6182">
        <ele>9.6000003814697</ele>
        <time>2021-08-04T11:35:13Z</time>
      </trkpt>
      <trkpt lat="44.76495" lon="-0.61797">
        <ele>10.39999961853</ele>
        <time>2021-08-04T11:35:18Z</time>
      </trkpt>
      <trkpt lat="44.76481" lon="-0.61742">
        <ele>10.800000190735</ele>
        <time>2021-08-04T11:35:31Z</time>
      </trkpt>
      <trkpt lat="44.76451" lon="-0.61684">
        <ele>11.60000038147</ele>
        <time>2021-08-04T11:35:45Z</time>
      </trkpt>
      <trkpt lat="44.76448" lon="-0.61681">
        <ele>11.800000190735</ele>
        <time>2021-08-04T11:35:46Z</time>
      </trkpt>
      <trkpt lat="44.76348" lon="-0.61601">
        <ele>13.60000038147</ele>
        <time>2021-08-04T11:36:14Z</time>
      </trkpt>
      <trkpt lat="44.76336" lon="-0.61582">
        <ele>14</ele>
        <time>2021-08-04T11:38:01Z</time>
      </trkpt>
      <trkpt lat="44.76249" lon="-0.6152">
        <ele>16.200000762939</ele>
        <time>2021-08-04T11:38:33Z</time>
      </trkpt>
      <trkpt lat="44.76125" lon="-0.61436">
        <ele>17.39999961853</ele>
        <time>2021-08-04T11:39:07Z</time>
      </trkpt>
      <trkpt lat="44.76095" lon="-0.61439">
        <ele>18</ele>
        <time>2021-08-04T11:39:16Z</time>
      </trkpt>
      <trkpt lat="44.76017" lon="-0.61464">
        <ele>19.60000038147</ele>
        <time>2021-08-04T11:39:35Z</time>
      </trkpt>
      <trkpt lat="44.7599" lon="-0.61475">
        <ele>20.39999961853</ele>
        <time>2021-08-04T11:39:42Z</time>
      </trkpt>
      <trkpt lat="44.75902" lon="-0.61463">
        <ele>23</ele>
        <time>2021-08-04T11:40:06Z</time>
      </trkpt>
      <trkpt lat="44.7585" lon="-0.61433">
        <ele>24.39999961853</ele>
        <time>2021-08-04T11:40:20Z</time>
      </trkpt>
      <trkpt lat="44.75819" lon="-0.61411">
        <ele>24.799999237061</ele>
        <time>2021-08-04T11:40:28Z</time>
      </trkpt>
      <trkpt lat="44.75771" lon="-0.61362">
        <ele>25.39999961853</ele>
        <time>2021-08-04T11:40:43Z</time>
      </trkpt>
      <trkpt lat="44.75755" lon="-0.61362">
        <ele>25.799999237061</ele>
        <time>2021-08-04T11:40:49Z</time>
      </trkpt>
      <trkpt lat="44.75651" lon="-0.61394">
        <ele>27.60000038147</ele>
        <time>2021-08-04T11:49:42Z</time>
      </trkpt>
      <trkpt lat="44.75656" lon="-0.61393">
        <ele>27.60000038147</ele>
        <time>2021-08-04T11:49:44Z</time>
      </trkpt>
      <trkpt lat="44.75785" lon="-0.61349">
        <ele>25.60000038147</ele>
        <time>2021-08-04T11:50:23Z</time>
      </trkpt>
      <trkpt lat="44.75876" lon="-0.61181">
        <ele>23.200000762939</ele>
        <time>2021-08-04T11:50:55Z</time>
      </trkpt>
      <trkpt lat="44.75986" lon="-0.61221">
        <ele>22.60000038147</ele>
        <time>2021-08-04T11:51:26Z</time>
      </trkpt>
      <trkpt lat="44.7603" lon="-0.61228">
        <ele>22.200000762939</ele>
        <time>2021-08-04T11:51:35Z</time>
      </trkpt>
      <trkpt lat="44.76075" lon="-0.61241">
        <ele>22</ele>
        <time>2021-08-04T11:51:43Z</time>
      </trkpt>
      <trkpt lat="44.76127" lon="-0.61255">
        <ele>21.39999961853</ele>
        <time>2021-08-04T11:51:53Z</time>
      </trkpt>
      <trkpt lat="44.76148" lon="-0.61248">
        <ele>20.60000038147</ele>
        <time>2021-08-04T11:51:57Z</time>
      </trkpt>
      <trkpt lat="44.76184" lon="-0.61231">
        <ele>19.200000762939</ele>
        <time>2021-08-04T11:52:03Z</time>
      </trkpt>
      <trkpt lat="44.76217" lon="-0.61225">
        <ele>19</ele>
        <time>2021-08-04T11:52:08Z</time>
      </trkpt>
      <trkpt lat="44.76282" lon="-0.61213">
        <ele>17.799999237061</ele>
        <time>2021-08-04T11:52:19Z</time>
      </trkpt>
      <trkpt lat="44.76317" lon="-0.61215">
        <ele>17.60000038147</ele>
        <time>2021-08-04T11:52:26Z</time>
      </trkpt>
      <trkpt lat="44.76529" lon="-0.61225">
        <ele>15</ele>
        <time>2021-08-04T11:53:03Z</time>
      </trkpt>
      <trkpt lat="44.76691" lon="-0.61173">
        <ele>13.800000190735</ele>
        <time>2021-08-04T11:53:27Z</time>
      </trkpt>
      <trkpt lat="44.76722" lon="-0.61171">
        <ele>13.800000190735</ele>
        <time>2021-08-04T11:53:32Z</time>
      </trkpt>
      <trkpt lat="44.76756" lon="-0.61171">
        <ele>13.39999961853</ele>
        <time>2021-08-04T11:53:38Z</time>
      </trkpt>
      <trkpt lat="44.76833" lon="-0.6114">
        <ele>10.39999961853</ele>
        <time>2021-08-04T11:53:51Z</time>
      </trkpt>
      <trkpt lat="44.76879" lon="-0.61121">
        <ele>9</ele>
        <time>2021-08-04T11:53:59Z</time>
      </trkpt>
      <trkpt lat="44.76916" lon="-0.61092">
        <ele>8.1999998092651</ele>
        <time>2021-08-04T11:56:11Z</time>
      </trkpt>
      <trkpt lat="44.76995" lon="-0.61051">
        <ele>7.4000000953674</ele>
        <time>2021-08-04T11:57:27Z</time>
      </trkpt>
      <trkpt lat="44.77033" lon="-0.61039">
        <ele>8</ele>
        <time>2021-08-04T11:57:42Z</time>
      </trkpt>
      <trkpt lat="44.77035" lon="-0.61068">
        <ele>9.1999998092651</ele>
        <time>2021-08-04T11:57:52Z</time>
      </trkpt>
      <trkpt lat="44.77037" lon="-0.611">
        <ele>10</ele>
        <time>2021-08-04T11:58:00Z</time>
      </trkpt>
      <trkpt lat="44.77057" lon="-0.61126">
        <ele>10.800000190735</ele>
        <time>2021-08-04T11:58:09Z</time>
      </trkpt>
      <trkpt lat="44.77121" lon="-0.61153">
        <ele>12.39999961853</ele>
        <time>2021-08-04T11:58:30Z</time>
      </trkpt>
      <trkpt lat="44.77224" lon="-0.61176">
        <ele>13.199999809265</ele>
        <time>2021-08-04T11:59:02Z</time>
      </trkpt>
      <trkpt lat="44.77249" lon="-0.61287">
        <ele>14.800000190735</ele>
        <time>2021-08-04T11:59:24Z</time>
      </trkpt>
      <trkpt lat="44.77277" lon="-0.6141">
        <ele>17.60000038147</ele>
        <time>2021-08-04T11:59:53Z</time>
      </trkpt>
      <trkpt lat="44.77301" lon="-0.61425">
        <ele>18</ele>
        <time>2021-08-04T12:00:05Z</time>
      </trkpt>
      <trkpt lat="44.77336" lon="-0.61417">
        <ele>18</ele>
        <time>2021-08-04T12:00:19Z</time>
      </trkpt>
      <trkpt lat="44.77474" lon="-0.61232">
        <ele>17</ele>
        <time>2021-08-04T12:00:56Z</time>
      </trkpt>
      <trkpt lat="44.77519" lon="-0.61186">
        <ele>17</ele>
        <time>2021-08-04T12:01:06Z</time>
      </trkpt>
      <trkpt lat="44.77607" lon="-0.61127">
        <ele>18.39999961853</ele>
        <time>2021-08-04T12:01:24Z</time>
      </trkpt>
      <trkpt lat="44.77684" lon="-0.61089">
        <ele>18.39999961853</ele>
        <time>2021-08-04T12:01:39Z</time>
      </trkpt>
      <trkpt lat="44.77739" lon="-0.61053">
        <ele>17.39999961853</ele>
        <time>2021-08-04T12:01:49Z</time>
      </trkpt>
      <trkpt lat="44.77824" lon="-0.61">
        <ele>15.39999961853</ele>
        <time>2021-08-04T12:02:06Z</time>
      </trkpt>
      <trkpt lat="44.77851" lon="-0.60981">
        <ele>15.199999809265</ele>
        <time>2021-08-04T12:02:13Z</time>
      </trkpt>
      <trkpt lat="44.77886" lon="-0.6096">
        <ele>15</ele>
        <time>2021-08-04T12:02:20Z</time>
      </trkpt>
      <trkpt lat="44.77934" lon="-0.60935">
        <ele>15</ele>
        <time>2021-08-04T12:02:29Z</time>
      </trkpt>
      <trkpt lat="44.77969" lon="-0.60911">
        <ele>15</ele>
        <time>2021-08-04T12:02:36Z</time>
      </trkpt>
      <trkpt lat="44.78091" lon="-0.60834">
        <ele>18.60000038147</ele>
        <time>2021-08-04T12:03:06Z</time>
      </trkpt>
      <trkpt lat="44.78124" lon="-0.60816">
        <ele>19.39999961853</ele>
        <time>2021-08-04T12:03:15Z</time>
      </trkpt>
      <trkpt lat="44.78155" lon="-0.60799">
        <ele>20.39999961853</ele>
        <time>2021-08-04T12:03:24Z</time>
      </trkpt>
      <trkpt lat="44.78183" lon="-0.60786">
        <ele>21.39999961853</ele>
        <time>2021-08-04T12:03:32Z</time>
      </trkpt>
      <trkpt lat="44.78208" lon="-0.60773">
        <ele>22.200000762939</ele>
        <time>2021-08-04T12:03:39Z</time>
      </trkpt>
      <trkpt lat="44.78289" lon="-0.60715">
        <ele>22.799999237061</ele>
        <time>2021-08-04T12:03:59Z</time>
      </trkpt>
      <trkpt lat="44.7838" lon="-0.60662">
        <ele>23.799999237061</ele>
        <time>2021-08-04T12:04:19Z</time>
      </trkpt>
      <trkpt lat="44.78439" lon="-0.60627">
        <ele>24.39999961853</ele>
        <time>2021-08-04T12:04:33Z</time>
      </trkpt>
      <trkpt lat="44.78551" lon="-0.60555">
        <ele>23.799999237061</ele>
        <time>2021-08-04T12:05:06Z</time>
      </trkpt>
      <trkpt lat="44.78542" lon="-0.60553">
        <ele>22.39999961853</ele>
        <time>2021-08-04T12:28:56Z</time>
      </trkpt>
      <trkpt lat="44.78546" lon="-0.6056">
        <ele>22.200000762939</ele>
        <time>2021-08-04T12:34:48Z</time>
      </trkpt>
      <trkpt lat="44.78589" lon="-0.60527">
        <ele>22.39999961853</ele>
        <time>2021-08-04T12:35:06Z</time>
      </trkpt>
      <trkpt lat="44.78612" lon="-0.60514">
        <ele>22.39999961853</ele>
        <time>2021-08-04T12:35:13Z</time>
      </trkpt>
      <trkpt lat="44.78635" lon="-0.60465">
        <ele>22.39999961853</ele>
        <time>2021-08-04T12:35:23Z</time>
      </trkpt>
      <trkpt lat="44.78641" lon="-0.60455">
        <ele>22.200000762939</ele>
        <time>2021-08-04T12:35:25Z</time>
      </trkpt>
      <trkpt lat="44.78595" lon="-0.60378">
        <ele>21.200000762939</ele>
        <time>2021-08-04T12:35:41Z</time>
      </trkpt>
      <trkpt lat="44.78527" lon="-0.60282">
        <ele>21</ele>
        <time>2021-08-04T12:36:01Z</time>
      </trkpt>
      <trkpt lat="44.78501" lon="-0.60245">
        <ele>21</ele>
        <time>2021-08-04T12:36:10Z</time>
      </trkpt>
      <trkpt lat="44.78458" lon="-0.60179">
        <ele>21</ele>
        <time>2021-08-04T12:36:26Z</time>
      </trkpt>
      <trkpt lat="44.78242" lon="-0.60096">
        <ele>19.60000038147</ele>
        <time>2021-08-04T12:37:18Z</time>
      </trkpt>
      <trkpt lat="44.78238" lon="-0.60076">
        <ele>19.60000038147</ele>
        <time>2021-08-04T12:37:21Z</time>
      </trkpt>
      <trkpt lat="44.78228" lon="-0.60023">
        <ele>19.39999961853</ele>
        <time>2021-08-04T12:37:28Z</time>
      </trkpt>
      <trkpt lat="44.78223" lon="-0.60007">
        <ele>19.200000762939</ele>
        <time>2021-08-04T12:37:30Z</time>
      </trkpt>
      <trkpt lat="44.78211" lon="-0.59969">
        <ele>19.200000762939</ele>
        <time>2021-08-04T12:37:35Z</time>
      </trkpt>
      <trkpt lat="44.78199" lon="-0.59942">
        <ele>18.799999237061</ele>
        <time>2021-08-04T12:37:39Z</time>
      </trkpt>
      <trkpt lat="44.78148" lon="-0.59827">
        <ele>18.39999961853</ele>
        <time>2021-08-04T12:37:56Z</time>
      </trkpt>
      <trkpt lat="44.78124" lon="-0.59768">
        <ele>17.39999961853</ele>
        <time>2021-08-04T12:38:04Z</time>
      </trkpt>
      <trkpt lat="44.78074" lon="-0.59643">
        <ele>14.39999961853</ele>
        <time>2021-08-04T12:38:18Z</time>
      </trkpt>
      <trkpt lat="44.7799" lon="-0.59516">
        <ele>11.800000190735</ele>
        <time>2021-08-04T12:38:33Z</time>
      </trkpt>
      <trkpt lat="44.7794" lon="-0.5947">
        <ele>10.800000190735</ele>
        <time>2021-08-04T12:38:42Z</time>
      </trkpt>
      <trkpt lat="44.77875" lon="-0.59475">
        <ele>8</ele>
        <time>2021-08-04T12:38:55Z</time>
      </trkpt>
      <trkpt lat="44.77784" lon="-0.5952">
        <ele>5</ele>
        <time>2021-08-04T12:39:19Z</time>
      </trkpt>
      <trkpt lat="44.77781" lon="-0.59516">
        <ele>4.1999998092651</ele>
        <time>2021-08-04T12:39:44Z</time>
      </trkpt>
      <trkpt lat="44.7778" lon="-0.59513">
        <ele>4.1999998092651</ele>
        <time>2021-08-04T12:39:45Z</time>
      </trkpt>
      <trkpt lat="44.77761" lon="-0.59444">
        <ele>3.5999999046326</ele>
        <time>2021-08-04T12:39:58Z</time>
      </trkpt>
      <trkpt lat="44.77715" lon="-0.59333">
        <ele>2</ele>
        <time>2021-08-04T12:40:16Z</time>
      </trkpt>
      <trkpt lat="44.77696" lon="-0.59314">
        <ele>1.7999999523163</ele>
        <time>2021-08-04T12:40:21Z</time>
      </trkpt>
      <trkpt lat="44.77703" lon="-0.59274">
        <ele>1.6000000238419</ele>
        <time>2021-08-04T12:40:29Z</time>
      </trkpt>
      <trkpt lat="44.7772" lon="-0.59254">
        <ele>1.3999999761581</ele>
        <time>2021-08-04T12:40:34Z</time>
      </trkpt>
      <trkpt lat="44.77762" lon="-0.59155">
        <ele>0.40000000596046</ele>
        <time>2021-08-04T12:40:52Z</time>
      </trkpt>
      <trkpt lat="44.77883" lon="-0.58878">
        <ele>-0.40000000596046</ele>
        <time>2021-08-04T12:41:33Z</time>
      </trkpt>
      <trkpt lat="44.77891" lon="-0.58867">
        <ele>-0.40000000596046</ele>
        <time>2021-08-04T12:41:35Z</time>
      </trkpt>
      <trkpt lat="44.77925" lon="-0.58818">
        <ele>-1.2000000476837</ele>
        <time>2021-08-04T12:41:44Z</time>
      </trkpt>
      <trkpt lat="44.77945" lon="-0.58775">
        <ele>-2</ele>
        <time>2021-08-04T12:41:52Z</time>
      </trkpt>
      <trkpt lat="44.77958" lon="-0.5876">
        <ele>-2.2000000476837</ele>
        <time>2021-08-04T12:41:56Z</time>
      </trkpt>
      <trkpt lat="44.77973" lon="-0.58745">
        <ele>-2.4000000953674</ele>
        <time>2021-08-04T12:42:01Z</time>
      </trkpt>
      <trkpt lat="44.78067" lon="-0.586">
        <ele>1.7999999523163</ele>
        <time>2021-08-04T12:42:34Z</time>
      </trkpt>
      <trkpt lat="44.78174" lon="-0.58547">
        <ele>5</ele>
        <time>2021-08-04T12:43:40Z</time>
      </trkpt>
      <trkpt lat="44.7821" lon="-0.58545">
        <ele>5.8000001907349</ele>
        <time>2021-08-04T12:43:49Z</time>
      </trkpt>
      <trkpt lat="44.78226" lon="-0.58548">
        <ele>6.1999998092651</ele>
        <time>2021-08-04T12:43:53Z</time>
      </trkpt>
      <trkpt lat="44.7846" lon="-0.58599">
        <ele>5</ele>
        <time>2021-08-04T12:44:47Z</time>
      </trkpt>
      <trkpt lat="44.7852" lon="-0.58518">
        <ele>3.4000000953674</ele>
        <time>2021-08-04T12:45:12Z</time>
      </trkpt>
      <trkpt lat="44.7857" lon="-0.58417">
        <ele>4</ele>
        <time>2021-08-04T12:45:31Z</time>
      </trkpt>
      <trkpt lat="44.78597" lon="-0.58253">
        <ele>5.1999998092651</ele>
        <time>2021-08-04T12:46:10Z</time>
      </trkpt>
      <trkpt lat="44.78586" lon="-0.58135">
        <ele>7.5999999046326</ele>
        <time>2021-08-04T12:46:34Z</time>
      </trkpt>
      <trkpt lat="44.78572" lon="-0.5804">
        <ele>8</ele>
        <time>2021-08-04T12:46:49Z</time>
      </trkpt>
      <trkpt lat="44.7854" lon="-0.57887">
        <ele>4.5999999046326</ele>
        <time>2021-08-04T12:47:14Z</time>
      </trkpt>
      <trkpt lat="44.78524" lon="-0.57852">
        <ele>1.6000000238419</ele>
        <time>2021-08-04T12:47:29Z</time>
      </trkpt>
      <trkpt lat="44.78543" lon="-0.57807">
        <ele>0.40000000596046</ele>
        <time>2021-08-04T12:47:43Z</time>
      </trkpt>
      <trkpt lat="44.78535" lon="-0.57781">
        <ele>0.20000000298023</ele>
        <time>2021-08-04T12:47:49Z</time>
      </trkpt>
      <trkpt lat="44.78563" lon="-0.57609">
        <ele>-1.3999999761581</ele>
        <time>2021-08-04T12:48:13Z</time>
      </trkpt>
      <trkpt lat="44.786" lon="-0.57395">
        <ele>-2.5999999046326</ele>
        <time>2021-08-04T12:48:45Z</time>
      </trkpt>
      <trkpt lat="44.78607" lon="-0.57353">
        <ele>-2.5999999046326</ele>
        <time>2021-08-04T12:48:51Z</time>
      </trkpt>
      <trkpt lat="44.78616" lon="-0.57297">
        <ele>-2.5999999046326</ele>
        <time>2021-08-04T12:48:59Z</time>
      </trkpt>
      <trkpt lat="44.78662" lon="-0.57128">
        <ele>-2</ele>
        <time>2021-08-04T12:49:25Z</time>
      </trkpt>
      <trkpt lat="44.78685" lon="-0.56925">
        <ele>-4.5999999046326</ele>
        <time>2021-08-04T12:49:57Z</time>
      </trkpt>
      <trkpt lat="44.78707" lon="-0.56848">
        <ele>-4.8000001907349</ele>
        <time>2021-08-04T12:50:11Z</time>
      </trkpt>
      <trkpt lat="44.78723" lon="-0.56807">
        <ele>-4.4000000953674</ele>
        <time>2021-08-04T12:50:18Z</time>
      </trkpt>
      <trkpt lat="44.78745" lon="-0.56737">
        <ele>-4.5999999046326</ele>
        <time>2021-08-04T12:50:28Z</time>
      </trkpt>
      <trkpt lat="44.78745" lon="-0.56657">
        <ele>-4.4000000953674</ele>
        <time>2021-08-04T12:50:51Z</time>
      </trkpt>
      <trkpt lat="44.7867" lon="-0.56653">
        <ele>-3.4000000953674</ele>
        <time>2021-08-04T12:51:09Z</time>
      </trkpt>
      <trkpt lat="44.78315" lon="-0.56617">
        <ele>-4.4000000953674</ele>
        <time>2021-08-04T12:52:26Z</time>
      </trkpt>
      <trkpt lat="44.78284" lon="-0.56616">
        <ele>-4.1999998092651</ele>
        <time>2021-08-04T12:52:33Z</time>
      </trkpt>
      <trkpt lat="44.78269" lon="-0.56614">
        <ele>-3.4000000953674</ele>
        <time>2021-08-04T12:52:37Z</time>
      </trkpt>
      <trkpt lat="44.78215" lon="-0.56615">
        <ele>-4.1999998092651</ele>
        <time>2021-08-04T12:52:51Z</time>
      </trkpt>
      <trkpt lat="44.78164" lon="-0.56614">
        <ele>-4.8000001907349</ele>
        <time>2021-08-04T12:53:47Z</time>
      </trkpt>
      <trkpt lat="44.78066" lon="-0.56632">
        <ele>-3</ele>
        <time>2021-08-04T12:54:25Z</time>
      </trkpt>
      <trkpt lat="44.78026" lon="-0.56637">
        <ele>-1.3999999761581</ele>
        <time>2021-08-04T12:54:39Z</time>
      </trkpt>
      <trkpt lat="44.7794" lon="-0.56644">
        <ele>3</ele>
        <time>2021-08-04T12:55:09Z</time>
      </trkpt>
      <trkpt lat="44.77935" lon="-0.56644">
        <ele>3.2000000476837</ele>
        <time>2021-08-04T12:55:11Z</time>
      </trkpt>
      <trkpt lat="44.77827" lon="-0.56639">
        <ele>6.1999998092651</ele>
        <time>2021-08-04T12:55:54Z</time>
      </trkpt>
      <trkpt lat="44.77649" lon="-0.56609">
        <ele>6.1999998092651</ele>
        <time>2021-08-04T12:56:40Z</time>
      </trkpt>
      <trkpt lat="44.77627" lon="-0.56593">
        <ele>5.1999998092651</ele>
        <time>2021-08-04T12:56:48Z</time>
      </trkpt>
      <trkpt lat="44.77606" lon="-0.56584">
        <ele>5.4000000953674</ele>
        <time>2021-08-04T12:56:53Z</time>
      </trkpt>
      <trkpt lat="44.77562" lon="-0.56557">
        <ele>5.4000000953674</ele>
        <time>2021-08-04T12:57:04Z</time>
      </trkpt>
      <trkpt lat="44.77449" lon="-0.56504">
        <ele>4.8000001907349</ele>
        <time>2021-08-04T12:57:31Z</time>
      </trkpt>
      <trkpt lat="44.7745" lon="-0.56489">
        <ele>5</ele>
        <time>2021-08-04T12:57:37Z</time>
      </trkpt>
      <trkpt lat="44.77453" lon="-0.56458">
        <ele>5.1999998092651</ele>
        <time>2021-08-04T12:57:48Z</time>
      </trkpt>
      <trkpt lat="44.7743" lon="-0.56454">
        <ele>5.4000000953674</ele>
        <time>2021-08-04T12:58:01Z</time>
      </trkpt>
      <trkpt lat="44.77384" lon="-0.56451">
        <ele>6.4000000953674</ele>
        <time>2021-08-04T12:58:18Z</time>
      </trkpt>
      <trkpt lat="44.77392" lon="-0.56352">
        <ele>6.5999999046326</ele>
        <time>2021-08-04T12:58:45Z</time>
      </trkpt>
      <trkpt lat="44.77401" lon="-0.56306">
        <ele>6</ele>
        <time>2021-08-04T12:58:54Z</time>
      </trkpt>
      <trkpt lat="44.77466" lon="-0.5632">
        <ele>5.8000001907349</ele>
        <time>2021-08-04T12:59:12Z</time>
      </trkpt>
      <trkpt lat="44.77485" lon="-0.56327">
        <ele>5.1999998092651</ele>
        <time>2021-08-04T12:59:17Z</time>
      </trkpt>
      <trkpt lat="44.77497" lon="-0.56228">
        <ele>4</ele>
        <time>2021-08-04T12:59:40Z</time>
      </trkpt>
      <trkpt lat="44.77499" lon="-0.56213">
        <ele>4.4000000953674</ele>
        <time>2021-08-04T12:59:49Z</time>
      </trkpt>
      <trkpt lat="44.68073" lon="-0.50536">
        <ele>12.39999961853</ele>
        <time>2021-08-04T14:29:26Z</time>
      </trkpt>
      <trkpt lat="44.68082" lon="-0.50521">
        <ele>11.800000190735</ele>
        <time>2021-08-04T14:29:34Z</time>
      </trkpt>
      <trkpt lat="44.68094" lon="-0.50501">
        <ele>11.39999961853</ele>
        <time>2021-08-04T14:30:14Z</time>
      </trkpt>
      <trkpt lat="44.68092" lon="-0.50368">
        <ele>10.39999961853</ele>
        <time>2021-08-04T14:30:34Z</time>
      </trkpt>
      <trkpt lat="44.68085" lon="-0.5031">
        <ele>10.39999961853</ele>
        <time>2021-08-04T14:30:40Z</time>
      </trkpt>
      <trkpt lat="44.68069" lon="-0.50234">
        <ele>10.39999961853</ele>
        <time>2021-08-04T14:30:48Z</time>
      </trkpt>
      <trkpt lat="44.68051" lon="-0.50157">
        <ele>10</ele>
        <time>2021-08-04T14:30:56Z</time>
      </trkpt>
      <trkpt lat="44.68006" lon="-0.50082">
        <ele>9.1999998092651</ele>
        <time>2021-08-04T14:31:06Z</time>
      </trkpt>
      <trkpt lat="44.67854" lon="-0.49798">
        <ele>5.8000001907349</ele>
        <time>2021-08-04T14:31:42Z</time>
      </trkpt>
      <trkpt lat="44.67738" lon="-0.4974">
        <ele>4.1999998092651</ele>
        <time>2021-08-04T14:31:57Z</time>
      </trkpt>
      <trkpt lat="44.67713" lon="-0.49733">
        <ele>4</ele>
        <time>2021-08-04T14:32:00Z</time>
      </trkpt>
      <trkpt lat="44.67621" lon="-0.49674">
        <ele>1.7999999523163</ele>
        <time>2021-08-04T14:32:13Z</time>
      </trkpt>
      <trkpt lat="44.67563" lon="-0.49599">
        <ele>-0.80000001192093</ele>
        <time>2021-08-04T14:32:23Z</time>
      </trkpt>
      <trkpt lat="44.67557" lon="-0.49592">
        <ele>-0.80000001192093</ele>
        <time>2021-08-04T14:32:24Z</time>
      </trkpt>
      <trkpt lat="44.67523" lon="-0.49562">
        <ele>-2</ele>
        <time>2021-08-04T14:32:29Z</time>
      </trkpt>
      <trkpt lat="44.67412" lon="-0.49459">
        <ele>-3</ele>
        <time>2021-08-04T14:32:47Z</time>
      </trkpt>
      <trkpt lat="44.67357" lon="-0.49386">
        <ele>-2.7999999523163</ele>
        <time>2021-08-04T14:33:00Z</time>
      </trkpt>
      <trkpt lat="44.6735" lon="-0.49332">
        <ele>-2.7999999523163</ele>
        <time>2021-08-04T14:33:06Z</time>
      </trkpt>
      <trkpt lat="44.67352" lon="-0.49267">
        <ele>-4.4000000953674</ele>
        <time>2021-08-04T14:33:13Z</time>
      </trkpt>
      <trkpt lat="44.67349" lon="-0.49179">
        <ele>-6.8000001907349</ele>
        <time>2021-08-04T14:33:22Z</time>
      </trkpt>
      <trkpt lat="44.67337" lon="-0.49008">
        <ele>-7.1999998092651</ele>
        <time>2021-08-04T14:33:40Z</time>
      </trkpt>
      <trkpt lat="44.67322" lon="-0.4894">
        <ele>-8.3999996185303</ele>
        <time>2021-08-04T14:33:47Z</time>
      </trkpt>
      <trkpt lat="44.67296" lon="-0.48915">
        <ele>-8.6000003814697</ele>
        <time>2021-08-04T14:33:51Z</time>
      </trkpt>
      <trkpt lat="44.67276" lon="-0.48899">
        <ele>-8.8000001907349</ele>
        <time>2021-08-04T14:33:54Z</time>
      </trkpt>
      <trkpt lat="44.6718" lon="-0.48839">
        <ele>-8.8000001907349</ele>
        <time>2021-08-04T14:34:08Z</time>
      </trkpt>
      <trkpt lat="44.67101" lon="-0.48626">
        <ele>-9.6000003814697</ele>
        <time>2021-08-04T14:34:36Z</time>
      </trkpt>
      <trkpt lat="44.6709" lon="-0.48567">
        <ele>-9.8000001907349</ele>
        <time>2021-08-04T14:34:43Z</time>
      </trkpt>
      <trkpt lat="44.67101" lon="-0.48276">
        <ele>-9.3999996185303</ele>
        <time>2021-08-04T14:35:17Z</time>
      </trkpt>
      <trkpt lat="44.67079" lon="-0.48174">
        <ele>-8.1999998092651</ele>
        <time>2021-08-04T14:35:30Z</time>
      </trkpt>
      <trkpt lat="44.67043" lon="-0.48114">
        <ele>-8.1999998092651</ele>
        <time>2021-08-04T14:35:41Z</time>
      </trkpt>
      <trkpt lat="44.67031" lon="-0.48102">
        <ele>-8</ele>
        <time>2021-08-04T14:35:44Z</time>
      </trkpt>
      <trkpt lat="44.66999" lon="-0.48056">
        <ele>-8</ele>
        <time>2021-08-04T14:35:54Z</time>
      </trkpt>
      <trkpt lat="44.66971" lon="-0.48031">
        <ele>-7.8000001907349</ele>
        <time>2021-08-04T14:36:02Z</time>
      </trkpt>
      <trkpt lat="44.66852" lon="-0.47989">
        <ele>-6.1999998092651</ele>
        <time>2021-08-04T14:36:36Z</time>
      </trkpt>
      <trkpt lat="44.66706" lon="-0.47879">
        <ele>-2.2000000476837</ele>
        <time>2021-08-04T14:37:28Z</time>
      </trkpt>
      <trkpt lat="44.6662" lon="-0.47762">
        <ele>1.2000000476837</ele>
        <time>2021-08-04T14:38:05Z</time>
      </trkpt>
      <trkpt lat="44.66588" lon="-0.47703">
        <ele>3.5999999046326</ele>
        <time>2021-08-04T14:38:22Z</time>
      </trkpt>
      <trkpt lat="44.66558" lon="-0.47664">
        <ele>5.4000000953674</ele>
        <time>2021-08-04T14:38:38Z</time>
      </trkpt>
      <trkpt lat="44.66475" lon="-0.47583">
        <ele>9</ele>
        <time>2021-08-04T14:39:17Z</time>
      </trkpt>
      <trkpt lat="44.66465" lon="-0.47579">
        <ele>9.1999998092651</ele>
        <time>2021-08-04T14:39:21Z</time>
      </trkpt>
      <trkpt lat="44.66376" lon="-0.4758">
        <ele>12.39999961853</ele>
        <time>2021-08-04T14:39:53Z</time>
      </trkpt>
      <trkpt lat="44.66313" lon="-0.47567">
        <ele>15.39999961853</ele>
        <time>2021-08-04T14:40:25Z</time>
      </trkpt>
      <trkpt lat="44.66286" lon="-0.47574">
        <ele>17.39999961853</ele>
        <time>2021-08-04T14:40:37Z</time>
      </trkpt>
      <trkpt lat="44.66267" lon="-0.47573">
        <ele>18.799999237061</ele>
        <time>2021-08-04T14:40:46Z</time>
      </trkpt>
      <trkpt lat="44.66246" lon="-0.47569">
        <ele>19.39999961853</ele>
        <time>2021-08-04T14:40:54Z</time>
      </trkpt>
      <trkpt lat="44.6621" lon="-0.47568">
        <ele>21</ele>
        <time>2021-08-04T14:41:07Z</time>
      </trkpt>
      <trkpt lat="44.66172" lon="-0.4758">
        <ele>22.799999237061</ele>
        <time>2021-08-04T14:41:28Z</time>
      </trkpt>
      <trkpt lat="44.66131" lon="-0.47587">
        <ele>26.39999961853</ele>
        <time>2021-08-04T14:41:47Z</time>
      </trkpt>
      <trkpt lat="44.66129" lon="-0.47588">
        <ele>26.200000762939</ele>
        <time>2021-08-04T14:41:48Z</time>
      </trkpt>
      <trkpt lat="44.66038" lon="-0.47605">
        <ele>27.60000038147</ele>
        <time>2021-08-04T14:42:21Z</time>
      </trkpt>
      <trkpt lat="44.65923" lon="-0.47567">
        <ele>29.39999961853</ele>
        <time>2021-08-04T14:42:51Z</time>
      </trkpt>
      <trkpt lat="44.65888" lon="-0.47557">
        <ele>29.799999237061</ele>
        <time>2021-08-04T14:43:00Z</time>
      </trkpt>
      <trkpt lat="44.65702" lon="-0.47493">
        <ele>29.799999237061</ele>
        <time>2021-08-04T14:43:44Z</time>
      </trkpt>
      <trkpt lat="44.65675" lon="-0.47495">
        <ele>29.39999961853</ele>
        <time>2021-08-04T14:43:49Z</time>
      </trkpt>
      <trkpt lat="44.65569" lon="-0.47446">
        <ele>27.60000038147</ele>
        <time>2021-08-04T14:44:07Z</time>
      </trkpt>
      <trkpt lat="44.65546" lon="-0.47436">
        <ele>27.39999961853</ele>
        <time>2021-08-04T14:44:11Z</time>
      </trkpt>
      <trkpt lat="44.65482" lon="-0.47385">
        <ele>26.39999961853</ele>
        <time>2021-08-04T14:44:25Z</time>
      </trkpt>
      <trkpt lat="44.65404" lon="-0.473">
        <ele>28.200000762939</ele>
        <time>2021-08-04T14:44:46Z</time>
      </trkpt>
      <trkpt lat="44.65273" lon="-0.47159">
        <ele>28.39999961853</ele>
        <time>2021-08-04T14:45:18Z</time>
      </trkpt>
      <trkpt lat="44.65243" lon="-0.47103">
        <ele>27.799999237061</ele>
        <time>2021-08-04T14:45:25Z</time>
      </trkpt>
      <trkpt lat="44.65216" lon="-0.46914">
        <ele>25.200000762939</ele>
        <time>2021-08-04T14:45:46Z</time>
      </trkpt>
      <trkpt lat="44.65218" lon="-0.46869">
        <ele>25.200000762939</ele>
        <time>2021-08-04T14:45:52Z</time>
      </trkpt>
      <trkpt lat="44.65265" lon="-0.46552">
        <ele>22.60000038147</ele>
        <time>2021-08-04T14:46:34Z</time>
      </trkpt>
      <trkpt lat="44.65228" lon="-0.46465">
        <ele>21.39999961853</ele>
        <time>2021-08-04T14:46:46Z</time>
      </trkpt>
      <trkpt lat="44.65194" lon="-0.46417">
        <ele>20.799999237061</ele>
        <time>2021-08-04T14:46:54Z</time>
      </trkpt>
      <trkpt lat="44.6512" lon="-0.46265">
        <ele>18.60000038147</ele>
        <time>2021-08-04T14:47:12Z</time>
      </trkpt>
      <trkpt lat="44.64971" lon="-0.46171">
        <ele>15.60000038147</ele>
        <time>2021-08-04T14:47:32Z</time>
      </trkpt>
      <trkpt lat="44.64934" lon="-0.4615">
        <ele>14.800000190735</ele>
        <time>2021-08-04T14:47:37Z</time>
      </trkpt>
      <trkpt lat="44.64846" lon="-0.46092">
        <ele>13</ele>
        <time>2021-08-04T14:47:51Z</time>
      </trkpt>
      <trkpt lat="44.64657" lon="-0.45933">
        <ele>12.199999809265</ele>
        <time>2021-08-04T14:48:27Z</time>
      </trkpt>
      <trkpt lat="44.64648" lon="-0.45917">
        <ele>11.800000190735</ele>
        <time>2021-08-04T14:48:29Z</time>
      </trkpt>
      <trkpt lat="44.64628" lon="-0.45873">
        <ele>11</ele>
        <time>2021-08-04T14:48:34Z</time>
      </trkpt>
      <trkpt lat="44.64603" lon="-0.45804">
        <ele>9.8000001907349</ele>
        <time>2021-08-04T14:48:41Z</time>
      </trkpt>
      <trkpt lat="44.64599" lon="-0.45794">
        <ele>9.8000001907349</ele>
        <time>2021-08-04T14:48:42Z</time>
      </trkpt>
      <trkpt lat="44.64494" lon="-0.45697">
        <ele>9.3999996185303</ele>
        <time>2021-08-04T14:48:59Z</time>
      </trkpt>
      <trkpt lat="44.64256" lon="-0.45591">
        <ele>11.199999809265</ele>
        <time>2021-08-04T14:49:40Z</time>
      </trkpt>
      <trkpt lat="44.64081" lon="-0.45484">
        <ele>8.1999998092651</ele>
        <time>2021-08-04T14:50:06Z</time>
      </trkpt>
      <trkpt lat="44.64057" lon="-0.45472">
        <ele>8.1999998092651</ele>
        <time>2021-08-04T14:50:10Z</time>
      </trkpt>
      <trkpt lat="44.63937" lon="-0.45413">
        <ele>9.8000001907349</ele>
        <time>2021-08-04T14:50:37Z</time>
      </trkpt>
      <trkpt lat="44.63863" lon="-0.45367">
        <ele>10.39999961853</ele>
        <time>2021-08-04T14:50:53Z</time>
      </trkpt>
      <trkpt lat="44.63795" lon="-0.45298">
        <ele>11</ele>
        <time>2021-08-04T14:51:16Z</time>
      </trkpt>
      <trkpt lat="44.63777" lon="-0.45266">
        <ele>10.800000190735</ele>
        <time>2021-08-04T14:51:22Z</time>
      </trkpt>
      <trkpt lat="44.63662" lon="-0.45077">
        <ele>10.39999961853</ele>
        <time>2021-08-04T14:51:52Z</time>
      </trkpt>
      <trkpt lat="44.63629" lon="-0.45035">
        <ele>11</ele>
        <time>2021-08-04T14:52:01Z</time>
      </trkpt>
      <trkpt lat="44.63569" lon="-0.44935">
        <ele>11</ele>
        <time>2021-08-04T14:52:17Z</time>
      </trkpt>
      <trkpt lat="44.63518" lon="-0.44846">
        <ele>11</ele>
        <time>2021-08-04T14:52:30Z</time>
      </trkpt>
      <trkpt lat="44.63487" lon="-0.44809">
        <ele>11.199999809265</ele>
        <time>2021-08-04T14:52:37Z</time>
      </trkpt>
      <trkpt lat="44.63429" lon="-0.44734">
        <ele>12.60000038147</ele>
        <time>2021-08-04T14:52:52Z</time>
      </trkpt>
      <trkpt lat="44.63386" lon="-0.44674">
        <ele>13.199999809265</ele>
        <time>2021-08-04T14:53:03Z</time>
      </trkpt>
      <trkpt lat="44.63306" lon="-0.44575">
        <ele>13</ele>
        <time>2021-08-04T14:53:21Z</time>
      </trkpt>
      <trkpt lat="44.63261" lon="-0.44525">
        <ele>12.60000038147</ele>
        <time>2021-08-04T14:53:30Z</time>
      </trkpt>
      <trkpt lat="44.62967" lon="-0.4417">
        <ele>13.199999809265</ele>
        <time>2021-08-04T14:54:36Z</time>
      </trkpt>
      <trkpt lat="44.62899" lon="-0.44082">
        <ele>13.39999961853</ele>
        <time>2021-08-04T14:54:53Z</time>
      </trkpt>
      <trkpt lat="44.62873" lon="-0.44038">
        <ele>13.60000038147</ele>
        <time>2021-08-04T14:55:00Z</time>
      </trkpt>
      <trkpt lat="44.62677" lon="-0.43882">
        <ele>11.60000038147</ele>
        <time>2021-08-04T15:19:48Z</time>
      </trkpt>
      <trkpt lat="44.62675" lon="-0.43881">
        <ele>11.800000190735</ele>
        <time>2021-08-04T15:19:49Z</time>
      </trkpt>
      <trkpt lat="44.62664" lon="-0.43875">
        <ele>11.800000190735</ele>
        <time>2021-08-04T15:19:55Z</time>
      </trkpt>
      <trkpt lat="44.6256" lon="-0.43812">
        <ele>11.800000190735</ele>
        <time>2021-08-04T15:20:32Z</time>
      </trkpt>
      <trkpt lat="44.6253" lon="-0.4379">
        <ele>11.60000038147</ele>
        <time>2021-08-04T15:20:40Z</time>
      </trkpt>
      <trkpt lat="44.62402" lon="-0.43629">
        <ele>11.60000038147</ele>
        <time>2021-08-04T15:21:16Z</time>
      </trkpt>
      <trkpt lat="44.62339" lon="-0.43528">
        <ele>10.800000190735</ele>
        <time>2021-08-04T15:21:33Z</time>
      </trkpt>
      <trkpt lat="44.62315" lon="-0.4348">
        <ele>10.60000038147</ele>
        <time>2021-08-04T15:21:41Z</time>
      </trkpt>
      <trkpt lat="44.62287" lon="-0.43436">
        <ele>10.800000190735</ele>
        <time>2021-08-04T15:21:49Z</time>
      </trkpt>
      <trkpt lat="44.62264" lon="-0.43397">
        <ele>11.60000038147</ele>
        <time>2021-08-04T15:21:56Z</time>
      </trkpt>
      <trkpt lat="44.62179" lon="-0.4331">
        <ele>11.39999961853</ele>
        <time>2021-08-04T15:22:19Z</time>
      </trkpt>
      <trkpt lat="44.62178" lon="-0.43304">
        <ele>11.199999809265</ele>
        <time>2021-08-04T15:22:20Z</time>
      </trkpt>
      <trkpt lat="44.62175" lon="-0.43278">
        <ele>11.199999809265</ele>
        <time>2021-08-04T15:22:25Z</time>
      </trkpt>
      <trkpt lat="44.62165" lon="-0.43232">
        <ele>11</ele>
        <time>2021-08-04T15:22:33Z</time>
      </trkpt>
      <trkpt lat="44.62161" lon="-0.43205">
        <ele>10.800000190735</ele>
        <time>2021-08-04T15:22:37Z</time>
      </trkpt>
      <trkpt lat="44.62149" lon="-0.43083">
        <ele>10</ele>
        <time>2021-08-04T15:22:52Z</time>
      </trkpt>
      <trkpt lat="44.62127" lon="-0.42917">
        <ele>10</ele>
        <time>2021-08-04T15:23:20Z</time>
      </trkpt>
      <trkpt lat="44.62111" lon="-0.42872">
        <ele>9.8000001907349</ele>
        <time>2021-08-04T15:23:26Z</time>
      </trkpt>
      <trkpt lat="44.62038" lon="-0.42685">
        <ele>10.60000038147</ele>
        <time>2021-08-04T15:23:52Z</time>
      </trkpt>
      <trkpt lat="44.62001" lon="-0.42576">
        <ele>10.39999961853</ele>
        <time>2021-08-04T15:24:08Z</time>
      </trkpt>
      <trkpt lat="44.62001" lon="-0.42551">
        <ele>10.60000038147</ele>
        <time>2021-08-04T15:26:05Z</time>
      </trkpt>
      <trkpt lat="44.61998" lon="-0.42545">
        <ele>10.60000038147</ele>
        <time>2021-08-04T15:26:07Z</time>
      </trkpt>
      <trkpt lat="44.61977" lon="-0.42499">
        <ele>10.39999961853</ele>
        <time>2021-08-04T15:26:19Z</time>
      </trkpt>
      <trkpt lat="44.61936" lon="-0.42363">
        <ele>10.800000190735</ele>
        <time>2021-08-04T15:26:41Z</time>
      </trkpt>
      <trkpt lat="44.61924" lon="-0.42312">
        <ele>10.800000190735</ele>
        <time>2021-08-04T15:26:48Z</time>
      </trkpt>
      <trkpt lat="44.6191" lon="-0.4227">
        <ele>10.60000038147</ele>
        <time>2021-08-04T15:26:54Z</time>
      </trkpt>
      <trkpt lat="44.61896" lon="-0.42198">
        <ele>11.199999809265</ele>
        <time>2021-08-04T15:27:03Z</time>
      </trkpt>
      <trkpt lat="44.61892" lon="-0.42182">
        <ele>11.39999961853</ele>
        <time>2021-08-04T15:27:05Z</time>
      </trkpt>
      <trkpt lat="44.61684" lon="-0.41454">
        <ele>10.39999961853</ele>
        <time>2021-08-04T15:28:35Z</time>
      </trkpt>
      <trkpt lat="44.61474" lon="-0.4099">
        <ele>8.8000001907349</ele>
        <time>2021-08-04T15:29:37Z</time>
      </trkpt>
      <trkpt lat="44.61471" lon="-0.40982">
        <ele>8.8000001907349</ele>
        <time>2021-08-04T15:29:38Z</time>
      </trkpt>
      <trkpt lat="44.61456" lon="-0.40937">
        <ele>8.6000003814697</ele>
        <time>2021-08-04T15:29:44Z</time>
      </trkpt>
      <trkpt lat="44.61435" lon="-0.40893">
        <ele>8.8000001907349</ele>
        <time>2021-08-04T15:29:50Z</time>
      </trkpt>
      <trkpt lat="44.61396" lon="-0.40863">
        <ele>9</ele>
        <time>2021-08-04T15:29:57Z</time>
      </trkpt>
      <trkpt lat="44.61345" lon="-0.40831">
        <ele>9</ele>
        <time>2021-08-04T15:30:06Z</time>
      </trkpt>
      <trkpt lat="44.61314" lon="-0.40769">
        <ele>8.8000001907349</ele>
        <time>2021-08-04T15:30:15Z</time>
      </trkpt>
      <trkpt lat="44.61228" lon="-0.40507">
        <ele>7.1999998092651</ele>
        <time>2021-08-04T15:30:47Z</time>
      </trkpt>
      <trkpt lat="44.612" lon="-0.40407">
        <ele>6.8000001907349</ele>
        <time>2021-08-04T15:30:59Z</time>
      </trkpt>
      <trkpt lat="44.61157" lon="-0.40284">
        <ele>7</ele>
        <time>2021-08-04T15:31:16Z</time>
      </trkpt>
      <trkpt lat="44.61144" lon="-0.40259">
        <ele>7</ele>
        <time>2021-08-04T15:31:20Z</time>
      </trkpt>
      <trkpt lat="44.60984" lon="-0.40002">
        <ele>9.1999998092651</ele>
        <time>2021-08-04T15:32:05Z</time>
      </trkpt>
      <trkpt lat="44.60907" lon="-0.39848">
        <ele>9.8000001907349</ele>
        <time>2021-08-04T15:32:28Z</time>
      </trkpt>
      <trkpt lat="44.60882" lon="-0.398">
        <ele>10.39999961853</ele>
        <time>2021-08-04T15:32:35Z</time>
      </trkpt>
      <trkpt lat="44.60743" lon="-0.39488">
        <ele>12.199999809265</ele>
        <time>2021-08-04T15:33:20Z</time>
      </trkpt>
      <trkpt lat="44.60715" lon="-0.39436">
        <ele>11.800000190735</ele>
        <time>2021-08-04T15:33:28Z</time>
      </trkpt>
      <trkpt lat="44.60688" lon="-0.39391">
        <ele>11.39999961853</ele>
        <time>2021-08-04T15:33:35Z</time>
      </trkpt>
      <trkpt lat="44.60542" lon="-0.39279">
        <ele>12.199999809265</ele>
        <time>2021-08-04T15:34:03Z</time>
      </trkpt>
      <trkpt lat="44.60328" lon="-0.39143">
        <ele>12.60000038147</ele>
        <time>2021-08-04T15:34:45Z</time>
      </trkpt>
      <trkpt lat="44.60291" lon="-0.39092">
        <ele>12.60000038147</ele>
        <time>2021-08-04T15:34:55Z</time>
      </trkpt>
      <trkpt lat="44.60288" lon="-0.39085">
        <ele>12.800000190735</ele>
        <time>2021-08-04T15:34:56Z</time>
      </trkpt>
      <trkpt lat="44.60248" lon="-0.38844">
        <ele>13.199999809265</ele>
        <time>2021-08-04T15:35:27Z</time>
      </trkpt>
      <trkpt lat="44.60217" lon="-0.38685">
        <ele>12.60000038147</ele>
        <time>2021-08-04T15:35:44Z</time>
      </trkpt>
      <trkpt lat="44.60183" lon="-0.38608">
        <ele>11.60000038147</ele>
        <time>2021-08-04T15:35:53Z</time>
      </trkpt>
      <trkpt lat="44.59974" lon="-0.38183">
        <ele>11.60000038147</ele>
        <time>2021-08-04T15:36:51Z</time>
      </trkpt>
      <trkpt lat="44.59957" lon="-0.38142">
        <ele>11.39999961853</ele>
        <time>2021-08-04T15:36:56Z</time>
      </trkpt>
      <trkpt lat="44.59941" lon="-0.38101">
        <ele>11.199999809265</ele>
        <time>2021-08-04T15:37:01Z</time>
      </trkpt>
      <trkpt lat="44.59868" lon="-0.38057">
        <ele>10</ele>
        <time>2021-08-04T15:37:14Z</time>
      </trkpt>
      <trkpt lat="44.59846" lon="-0.38059">
        <ele>10</ele>
        <time>2021-08-04T15:37:18Z</time>
      </trkpt>
      <trkpt lat="44.59804" lon="-0.38006">
        <ele>10.39999961853</ele>
        <time>2021-08-04T15:37:30Z</time>
      </trkpt>
      <trkpt lat="44.59732" lon="-0.37578">
        <ele>7.1999998092651</ele>
        <time>2021-08-04T15:38:21Z</time>
      </trkpt>
      <trkpt lat="44.59725" lon="-0.37537">
        <ele>6.8000001907349</ele>
        <time>2021-08-04T15:38:26Z</time>
      </trkpt>
      <trkpt lat="44.59699" lon="-0.37448">
        <ele>5.5999999046326</ele>
        <time>2021-08-04T15:38:37Z</time>
      </trkpt>
      <trkpt lat="44.59684" lon="-0.37392">
        <ele>5.1999998092651</ele>
        <time>2021-08-04T15:38:44Z</time>
      </trkpt>
      <trkpt lat="44.59679" lon="-0.37378">
        <ele>4.4000000953674</ele>
        <time>2021-08-04T15:38:52Z</time>
      </trkpt>
      <trkpt lat="44.59659" lon="-0.37394">
        <ele>3.5999999046326</ele>
        <time>2021-08-04T15:38:59Z</time>
      </trkpt>
      <trkpt lat="44.59625" lon="-0.37434">
        <ele>4</ele>
        <time>2021-08-04T15:39:43Z</time>
      </trkpt>
      <trkpt lat="44.59602" lon="-0.37419">
        <ele>4</ele>
        <time>2021-08-04T15:39:54Z</time>
      </trkpt>
      <trkpt lat="44.59461" lon="-0.37402">
        <ele>0.80000001192093</ele>
        <time>2021-08-04T15:40:18Z</time>
      </trkpt>
      <trkpt lat="44.59456" lon="-0.37402">
        <ele>0.80000001192093</ele>
        <time>2021-08-04T15:40:19Z</time>
      </trkpt>
      <trkpt lat="44.59396" lon="-0.37416">
        <ele>0.60000002384186</ele>
        <time>2021-08-04T15:40:30Z</time>
      </trkpt>
      <trkpt lat="44.59316" lon="-0.3746">
        <ele>1</ele>
        <time>2021-08-04T15:40:46Z</time>
      </trkpt>
      <trkpt lat="44.59245" lon="-0.37507">
        <ele>2</ele>
        <time>2021-08-04T15:41:03Z</time>
      </trkpt>
      <trkpt lat="44.59201" lon="-0.37533">
        <ele>-0.40000000596046</ele>
        <time>2021-08-04T15:41:21Z</time>
      </trkpt>
      <trkpt lat="44.59229" lon="-0.37511">
        <ele>-0.60000002384186</ele>
        <time>2021-08-04T15:41:41Z</time>
      </trkpt>
      <trkpt lat="44.59257" lon="-0.37497">
        <ele>-0.40000000596046</ele>
        <time>2021-08-04T15:41:51Z</time>
      </trkpt>
      <trkpt lat="44.59189" lon="-0.37313">
        <ele>-1.3999999761581</ele>
        <time>2021-08-04T15:42:24Z</time>
      </trkpt>
      <trkpt lat="44.59127" lon="-0.37078">
        <ele>-3</ele>
        <time>2021-08-04T15:42:54Z</time>
      </trkpt>
      <trkpt lat="44.59126" lon="-0.37069">
        <ele>-3.4000000953674</ele>
        <time>2021-08-04T15:42:55Z</time>
      </trkpt>
      <trkpt lat="44.59119" lon="-0.3699">
        <ele>-3.7999999523163</ele>
        <time>2021-08-04T15:43:04Z</time>
      </trkpt>
      <trkpt lat="44.591" lon="-0.36905">
        <ele>-4.8000001907349</ele>
        <time>2021-08-04T15:43:15Z</time>
      </trkpt>
      <trkpt lat="44.59039" lon="-0.36576">
        <ele>-7.8000001907349</ele>
        <time>2021-08-04T15:43:59Z</time>
      </trkpt>
      <trkpt lat="44.59026" lon="-0.36519">
        <ele>-8.3999996185303</ele>
        <time>2021-08-04T15:44:06Z</time>
      </trkpt>
      <trkpt lat="44.58929" lon="-0.36273">
        <ele>-10.199999809265</ele>
        <time>2021-08-04T15:44:35Z</time>
      </trkpt>
      <trkpt lat="44.58786" lon="-0.36022">
        <ele>-9</ele>
        <time>2021-08-04T15:45:14Z</time>
      </trkpt>
      <trkpt lat="44.58727" lon="-0.35921">
        <ele>-7.5999999046326</ele>
        <time>2021-08-04T15:45:35Z</time>
      </trkpt>
      <trkpt lat="44.58572" lon="-0.35761">
        <ele>-6.8000001907349</ele>
        <time>2021-08-04T15:46:09Z</time>
      </trkpt>
      <trkpt lat="44.58546" lon="-0.35722">
        <ele>-6.5999999046326</ele>
        <time>2021-08-04T15:46:16Z</time>
      </trkpt>
      <trkpt lat="44.58523" lon="-0.35701">
        <ele>-6.1999998092651</ele>
        <time>2021-08-04T15:46:22Z</time>
      </trkpt>
      <trkpt lat="44.58168" lon="-0.35631">
        <ele>-5.8000001907349</ele>
        <time>2021-08-04T15:47:25Z</time>
      </trkpt>
      <trkpt lat="44.58051" lon="-0.35581">
        <ele>-6.1999998092651</ele>
        <time>2021-08-04T15:47:44Z</time>
      </trkpt>
      <trkpt lat="44.57994" lon="-0.35567">
        <ele>-6.4000000953674</ele>
        <time>2021-08-04T15:47:54Z</time>
      </trkpt>
      <trkpt lat="44.57989" lon="-0.35565">
        <ele>-6.4000000953674</ele>
        <time>2021-08-04T15:47:55Z</time>
      </trkpt>
      <trkpt lat="44.57866" lon="-0.35521">
        <ele>-6.5999999046326</ele>
        <time>2021-08-04T15:48:20Z</time>
      </trkpt>
      <trkpt lat="44.57853" lon="-0.35514">
        <ele>-6.5999999046326</ele>
        <time>2021-08-04T15:48:23Z</time>
      </trkpt>
      <trkpt lat="44.57829" lon="-0.35502">
        <ele>-6.4000000953674</ele>
        <time>2021-08-04T15:48:30Z</time>
      </trkpt>
      <trkpt lat="44.57764" lon="-0.35487">
        <ele>-5.5999999046326</ele>
        <time>2021-08-04T15:48:43Z</time>
      </trkpt>
      <trkpt lat="44.57644" lon="-0.35514">
        <ele>-5.1999998092651</ele>
        <time>2021-08-04T15:49:07Z</time>
      </trkpt>
      <trkpt lat="44.57605" lon="-0.35529">
        <ele>-5.1999998092651</ele>
        <time>2021-08-04T15:49:15Z</time>
      </trkpt>
      <trkpt lat="44.57545" lon="-0.35502">
        <ele>-5.4000000953674</ele>
        <time>2021-08-04T15:49:27Z</time>
      </trkpt>
      <trkpt lat="44.57522" lon="-0.35479">
        <ele>-5.5999999046326</ele>
        <time>2021-08-04T15:49:32Z</time>
      </trkpt>
      <trkpt lat="44.57406" lon="-0.3553">
        <ele>-5.8000001907349</ele>
        <time>2021-08-04T15:49:55Z</time>
      </trkpt>
      <trkpt lat="44.57264" lon="-0.35629">
        <ele>-6.5999999046326</ele>
        <time>2021-08-04T15:50:27Z</time>
      </trkpt>
      <trkpt lat="44.57136" lon="-0.35624">
        <ele>-6.8000001907349</ele>
        <time>2021-08-04T15:50:52Z</time>
      </trkpt>
      <trkpt lat="44.56992" lon="-0.3556">
        <ele>-5.5999999046326</ele>
        <time>2021-08-04T15:51:21Z</time>
      </trkpt>
      <trkpt lat="44.56892" lon="-0.35554">
        <ele>-5.1999998092651</ele>
        <time>2021-08-04T15:51:39Z</time>
      </trkpt>
      <trkpt lat="44.56798" lon="-0.35551">
        <ele>-5.1999998092651</ele>
        <time>2021-08-04T15:51:57Z</time>
      </trkpt>
      <trkpt lat="44.56778" lon="-0.35566">
        <ele>-5.5999999046326</ele>
        <time>2021-08-04T15:52:02Z</time>
      </trkpt>
      <trkpt lat="44.56634" lon="-0.35677">
        <ele>-6.1999998092651</ele>
        <time>2021-08-04T15:52:32Z</time>
      </trkpt>
      <trkpt lat="44.56575" lon="-0.35689">
        <ele>-7</ele>
        <time>2021-08-04T15:52:42Z</time>
      </trkpt>
      <trkpt lat="44.56556" lon="-0.35683">
        <ele>-7</ele>
        <time>2021-08-04T15:52:45Z</time>
      </trkpt>
      <trkpt lat="44.56549" lon="-0.35679">
        <ele>-7.1999998092651</ele>
        <time>2021-08-04T15:52:46Z</time>
      </trkpt>
      <trkpt lat="44.56487" lon="-0.3563">
        <ele>-8.3999996185303</ele>
        <time>2021-08-04T15:52:55Z</time>
      </trkpt>
      <trkpt lat="44.56461" lon="-0.3561">
        <ele>-8.8000001907349</ele>
        <time>2021-08-04T15:52:59Z</time>
      </trkpt>
      <trkpt lat="44.56435" lon="-0.35615">
        <ele>-9.1999998092651</ele>
        <time>2021-08-04T15:53:04Z</time>
      </trkpt>
      <trkpt lat="44.56298" lon="-0.35731">
        <ele>-6.5999999046326</ele>
        <time>2021-08-04T15:53:54Z</time>
      </trkpt>
      <trkpt lat="44.56235" lon="-0.35772">
        <ele>-5</ele>
        <time>2021-08-04T15:54:14Z</time>
      </trkpt>
      <trkpt lat="44.56206" lon="-0.35773">
        <ele>-5</ele>
        <time>2021-08-04T15:54:21Z</time>
      </trkpt>
      <trkpt lat="44.56097" lon="-0.35797">
        <ele>-5.1999998092651</ele>
        <time>2021-08-04T15:54:43Z</time>
      </trkpt>
      <trkpt lat="44.55955" lon="-0.35902">
        <ele>-6.5999999046326</ele>
        <time>2021-08-04T15:55:34Z</time>
      </trkpt>
      <trkpt lat="44.55954" lon="-0.35898">
        <ele>-6.5999999046326</ele>
        <time>2021-08-04T15:55:35Z</time>
      </trkpt>
      <trkpt lat="44.55839" lon="-0.35525">
        <ele>-9.8000001907349</ele>
        <time>2021-08-04T15:56:21Z</time>
      </trkpt>
      <trkpt lat="44.55805" lon="-0.35437">
        <ele>-10.800000190735</ele>
        <time>2021-08-04T15:56:32Z</time>
      </trkpt>
      <trkpt lat="44.55791" lon="-0.35401">
        <ele>-11</ele>
        <time>2021-08-04T15:56:37Z</time>
      </trkpt>
      <trkpt lat="44.55752" lon="-0.35348">
        <ele>-9.3999996185303</ele>
        <time>2021-08-04T15:56:51Z</time>
      </trkpt>
      <trkpt lat="44.55727" lon="-0.35323">
        <ele>-8.6000003814697</ele>
        <time>2021-08-04T15:57:01Z</time>
      </trkpt>
      <trkpt lat="44.55675" lon="-0.35243">
        <ele>-6.5999999046326</ele>
        <time>2021-08-04T15:57:24Z</time>
      </trkpt>
      <trkpt lat="44.55655" lon="-0.35195">
        <ele>-6.4000000953674</ele>
        <time>2021-08-04T15:57:34Z</time>
      </trkpt>
      <trkpt lat="44.5563" lon="-0.35103">
        <ele>-4.5999999046326</ele>
        <time>2021-08-04T15:57:50Z</time>
      </trkpt>
      <trkpt lat="44.55627" lon="-0.35092">
        <ele>-4.4000000953674</ele>
        <time>2021-08-04T15:57:52Z</time>
      </trkpt>
      <trkpt lat="44.55547" lon="-0.34789">
        <ele>-2.2000000476837</ele>
        <time>2021-08-04T15:58:45Z</time>
      </trkpt>
      <trkpt lat="44.55532" lon="-0.34702">
        <ele>-0.60000002384186</ele>
        <time>2021-08-04T15:58:59Z</time>
      </trkpt>
      <trkpt lat="44.55534" lon="-0.34689">
        <ele>-0.40000000596046</ele>
        <time>2021-08-04T15:59:01Z</time>
      </trkpt>
      <trkpt lat="44.55545" lon="-0.3462">
        <ele>0.20000000298023</ele>
        <time>2021-08-04T15:59:12Z</time>
      </trkpt>
      <trkpt lat="44.55511" lon="-0.34459">
        <ele>1.3999999761581</ele>
        <time>2021-08-04T15:59:38Z</time>
      </trkpt>
      <trkpt lat="44.55496" lon="-0.34421">
        <ele>1.6000000238419</ele>
        <time>2021-08-04T15:59:45Z</time>
      </trkpt>
      <trkpt lat="44.55477" lon="-0.34383">
        <ele>2.5999999046326</ele>
        <time>2021-08-04T15:59:52Z</time>
      </trkpt>
      <trkpt lat="44.55459" lon="-0.34349">
        <ele>3.2000000476837</ele>
        <time>2021-08-04T15:59:59Z</time>
      </trkpt>
      <trkpt lat="44.55417" lon="-0.34295">
        <ele>4.4000000953674</ele>
        <time>2021-08-04T16:00:14Z</time>
      </trkpt>
      <trkpt lat="44.5525" lon="-0.34186">
        <ele>8.8000001907349</ele>
        <time>2021-08-04T16:01:00Z</time>
      </trkpt>
      <trkpt lat="44.55054" lon="-0.34056">
        <ele>12.800000190735</ele>
        <time>2021-08-04T16:01:53Z</time>
      </trkpt>
      <trkpt lat="44.5505" lon="-0.34053">
        <ele>12.800000190735</ele>
        <time>2021-08-04T16:01:54Z</time>
      </trkpt>
      <trkpt lat="44.5498" lon="-0.33986">
        <ele>14.199999809265</ele>
        <time>2021-08-04T16:02:14Z</time>
      </trkpt>
      <trkpt lat="44.54966" lon="-0.33943">
        <ele>14.60000038147</ele>
        <time>2021-08-04T16:02:22Z</time>
      </trkpt>
      <trkpt lat="44.54946" lon="-0.33819">
        <ele>17.799999237061</ele>
        <time>2021-08-04T16:02:49Z</time>
      </trkpt>
      <trkpt lat="44.54922" lon="-0.33709">
        <ele>19</ele>
        <time>2021-08-04T16:03:15Z</time>
      </trkpt>
      <trkpt lat="44.54915" lon="-0.33667">
        <ele>19</ele>
        <time>2021-08-04T16:03:22Z</time>
      </trkpt>
      <trkpt lat="44.54838" lon="-0.33626">
        <ele>18.39999961853</ele>
        <time>2021-08-04T16:03:46Z</time>
      </trkpt>
      <trkpt lat="44.54753" lon="-0.33659">
        <ele>20.200000762939</ele>
        <time>2021-08-04T16:04:11Z</time>
      </trkpt>
      <trkpt lat="44.54723" lon="-0.33728">
        <ele>21.799999237061</ele>
        <time>2021-08-04T16:04:34Z</time>
      </trkpt>
      <trkpt lat="44.54702" lon="-0.33774">
        <ele>24.799999237061</ele>
        <time>2021-08-04T16:04:51Z</time>
      </trkpt>
      <trkpt lat="44.54666" lon="-0.33823">
        <ele>27.799999237061</ele>
        <time>2021-08-04T16:05:18Z</time>
      </trkpt>
      <trkpt lat="44.54617" lon="-0.33865">
        <ele>31</ele>
        <time>2021-08-04T16:05:45Z</time>
      </trkpt>
      <trkpt lat="44.54577" lon="-0.33932">
        <ele>34</ele>
        <time>2021-08-04T16:06:10Z</time>
      </trkpt>
      <trkpt lat="44.54542" lon="-0.34032">
        <ele>37.200000762939</ele>
        <time>2021-08-04T16:06:38Z</time>
      </trkpt>
      <trkpt lat="44.54538" lon="-0.34039">
        <ele>37.200000762939</ele>
        <time>2021-08-04T16:06:40Z</time>
      </trkpt>
      <trkpt lat="44.5442" lon="-0.34169">
        <ele>38.400001525879</ele>
        <time>2021-08-04T16:07:24Z</time>
      </trkpt>
      <trkpt lat="44.5436" lon="-0.34204">
        <ele>36.599998474121</ele>
        <time>2021-08-04T16:07:36Z</time>
      </trkpt>
      <trkpt lat="44.54354" lon="-0.34207">
        <ele>36.599998474121</ele>
        <time>2021-08-04T16:07:37Z</time>
      </trkpt>
      <trkpt lat="44.54317" lon="-0.34227">
        <ele>36.200000762939</ele>
        <time>2021-08-04T16:07:44Z</time>
      </trkpt>
      <trkpt lat="44.54272" lon="-0.34241">
        <ele>38</ele>
        <time>2021-08-04T16:08:00Z</time>
      </trkpt>
      <trkpt lat="44.5422" lon="-0.34245">
        <ele>39.599998474121</ele>
        <time>2021-08-04T16:08:16Z</time>
      </trkpt>
      <trkpt lat="44.54069" lon="-0.34323">
        <ele>37.799999237061</ele>
        <time>2021-08-04T16:08:50Z</time>
      </trkpt>
      <trkpt lat="44.54039" lon="-0.34324">
        <ele>37.200000762939</ele>
        <time>2021-08-04T16:08:55Z</time>
      </trkpt>
      <trkpt lat="44.53904" lon="-0.34214">
        <ele>38</ele>
        <time>2021-08-04T16:09:28Z</time>
      </trkpt>
      <trkpt lat="44.53817" lon="-0.34251">
        <ele>41.200000762939</ele>
        <time>2021-08-04T16:09:56Z</time>
      </trkpt>
      <trkpt lat="44.53754" lon="-0.3431">
        <ele>43.200000762939</ele>
        <time>2021-08-04T16:10:35Z</time>
      </trkpt>
      <trkpt lat="44.53758" lon="-0.34327">
        <ele>43</ele>
        <time>2021-08-04T16:10:39Z</time>
      </trkpt>
      <trkpt lat="44.53761" lon="-0.34355">
        <ele>41.400001525879</ele>
        <time>2021-08-04T16:11:38Z</time>
      </trkpt>
      <trkpt lat="44.53758" lon="-0.34335">
        <ele>41.599998474121</ele>
        <time>2021-08-04T16:11:44Z</time>
      </trkpt>
      <trkpt lat="44.53757" lon="-0.3433">
        <ele>41.599998474121</ele>
        <time>2021-08-04T16:11:45Z</time>
      </trkpt>
      <trkpt lat="44.53739" lon="-0.34282">
        <ele>42.200000762939</ele>
        <time>2021-08-04T16:11:59Z</time>
      </trkpt>
      <trkpt lat="44.5368" lon="-0.34296">
        <ele>41.599998474121</ele>
        <time>2021-08-04T16:12:12Z</time>
      </trkpt>
      <trkpt lat="44.53673" lon="-0.34295">
        <ele>41.599998474121</ele>
        <time>2021-08-04T16:12:13Z</time>
      </trkpt>
      <trkpt lat="44.53622" lon="-0.34284">
        <ele>38.400001525879</ele>
        <time>2021-08-04T16:12:20Z</time>
      </trkpt>
      <trkpt lat="44.53575" lon="-0.34291">
        <ele>35.400001525879</ele>
        <time>2021-08-04T16:12:26Z</time>
      </trkpt>
      <trkpt lat="44.53568" lon="-0.34292">
        <ele>35</ele>
        <time>2021-08-04T16:12:27Z</time>
      </trkpt>
      <trkpt lat="44.53504" lon="-0.34293">
        <ele>28.60000038147</ele>
        <time>2021-08-04T16:12:37Z</time>
      </trkpt>
      <trkpt lat="44.53466" lon="-0.34317">
        <ele>26.39999961853</ele>
        <time>2021-08-04T16:12:43Z</time>
      </trkpt>
      <trkpt lat="44.53407" lon="-0.34364">
        <ele>25.200000762939</ele>
        <time>2021-08-04T16:12:56Z</time>
      </trkpt>
      <trkpt lat="44.53358" lon="-0.34263">
        <ele>53.799999237061</ele>
        <time>2021-08-05T07:24:30Z</time>
      </trkpt>
      <trkpt lat="44.53376" lon="-0.34247">
        <ele>59.200000762939</ele>
        <time>2021-08-05T07:24:37Z</time>
      </trkpt>
      <trkpt lat="44.53379" lon="-0.34244">
        <ele>59</ele>
        <time>2021-08-05T07:24:38Z</time>
      </trkpt>
      <trkpt lat="44.53384" lon="-0.34238">
        <ele>58.200000762939</ele>
        <time>2021-08-05T07:24:40Z</time>
      </trkpt>
      <trkpt lat="44.53435" lon="-0.34291">
        <ele>56.599998474121</ele>
        <time>2021-08-05T07:25:03Z</time>
      </trkpt>
      <trkpt lat="44.53438" lon="-0.34302">
        <ele>56.400001525879</ele>
        <time>2021-08-05T07:25:06Z</time>
      </trkpt>
      <trkpt lat="44.53528" lon="-0.34281">
        <ele>58</ele>
        <time>2021-08-05T07:25:44Z</time>
      </trkpt>
      <trkpt lat="44.53585" lon="-0.34283">
        <ele>61.599998474121</ele>
        <time>2021-08-05T07:26:12Z</time>
      </trkpt>
      <trkpt lat="44.536" lon="-0.34277">
        <ele>62.400001525879</ele>
        <time>2021-08-05T07:26:21Z</time>
      </trkpt>
      <trkpt lat="44.53638" lon="-0.34276">
        <ele>65.400001525879</ele>
        <time>2021-08-05T07:26:44Z</time>
      </trkpt>
      <trkpt lat="44.53642" lon="-0.34276">
        <ele>65.599998474121</ele>
        <time>2021-08-05T07:26:47Z</time>
      </trkpt>
      <trkpt lat="44.53662" lon="-0.34285">
        <ele>67</ele>
        <time>2021-08-05T07:26:59Z</time>
      </trkpt>
      <trkpt lat="44.53705" lon="-0.34286">
        <ele>70.199996948242</ele>
        <time>2021-08-05T07:27:25Z</time>
      </trkpt>
      <trkpt lat="44.5374" lon="-0.34272">
        <ele>73.400001525879</ele>
        <time>2021-08-05T07:27:47Z</time>
      </trkpt>
      <trkpt lat="44.53804" lon="-0.34251">
        <ele>75</ele>
        <time>2021-08-05T07:28:14Z</time>
      </trkpt>
      <trkpt lat="44.53883" lon="-0.3422">
        <ele>73.400001525879</ele>
        <time>2021-08-05T07:28:35Z</time>
      </trkpt>
      <trkpt lat="44.53882" lon="-0.34186">
        <ele>71.800003051758</ele>
        <time>2021-08-05T07:28:44Z</time>
      </trkpt>
      <trkpt lat="44.53818" lon="-0.34023">
        <ele>75</ele>
        <time>2021-08-05T07:29:25Z</time>
      </trkpt>
      <trkpt lat="44.53816" lon="-0.34019">
        <ele>75</ele>
        <time>2021-08-05T07:29:26Z</time>
      </trkpt>
      <trkpt lat="44.538" lon="-0.33974">
        <ele>75.800003051758</ele>
        <time>2021-08-05T07:29:37Z</time>
      </trkpt>
      <trkpt lat="44.53797" lon="-0.33928">
        <ele>76.199996948242</ele>
        <time>2021-08-05T07:29:47Z</time>
      </trkpt>
      <trkpt lat="44.53788" lon="-0.33765">
        <ele>76.400001525879</ele>
        <time>2021-08-05T07:30:16Z</time>
      </trkpt>
      <trkpt lat="44.53847" lon="-0.33506">
        <ele>78.400001525879</ele>
        <time>2021-08-05T07:31:02Z</time>
      </trkpt>
      <trkpt lat="44.53869" lon="-0.33405">
        <ele>79.199996948242</ele>
        <time>2021-08-05T07:31:21Z</time>
      </trkpt>
      <trkpt lat="44.53885" lon="-0.33358">
        <ele>79.599998474121</ele>
        <time>2021-08-05T07:31:30Z</time>
      </trkpt>
      <trkpt lat="44.53959" lon="-0.33169">
        <ele>80</ele>
        <time>2021-08-05T07:32:07Z</time>
      </trkpt>
      <trkpt lat="44.54043" lon="-0.33141">
        <ele>80</ele>
        <time>2021-08-05T07:32:34Z</time>
      </trkpt>
      <trkpt lat="44.54148" lon="-0.3311">
        <ele>78.400001525879</ele>
        <time>2021-08-05T07:32:53Z</time>
      </trkpt>
      <trkpt lat="44.54224" lon="-0.33118">
        <ele>75.400001525879</ele>
        <time>2021-08-05T07:33:05Z</time>
      </trkpt>
      <trkpt lat="44.54266" lon="-0.33139">
        <ele>73</ele>
        <time>2021-08-05T07:33:13Z</time>
      </trkpt>
      <trkpt lat="44.54294" lon="-0.33152">
        <ele>71.599998474121</ele>
        <time>2021-08-05T07:33:21Z</time>
      </trkpt>
      <trkpt lat="44.54302" lon="-0.33156">
        <ele>70.199996948242</ele>
        <time>2021-08-05T07:33:27Z</time>
      </trkpt>
      <trkpt lat="44.54293" lon="-0.33156">
        <ele>69.400001525879</ele>
        <time>2021-08-05T07:34:25Z</time>
      </trkpt>
      <trkpt lat="44.5427" lon="-0.33144">
        <ele>69.400001525879</ele>
        <time>2021-08-05T07:34:35Z</time>
      </trkpt>
      <trkpt lat="44.54235" lon="-0.33126">
        <ele>71</ele>
        <time>2021-08-05T07:34:49Z</time>
      </trkpt>
      <trkpt lat="44.54155" lon="-0.33108">
        <ele>74.199996948242</ele>
        <time>2021-08-05T07:35:19Z</time>
      </trkpt>
      <trkpt lat="44.54153" lon="-0.33108">
        <ele>74.199996948242</ele>
        <time>2021-08-05T07:35:20Z</time>
      </trkpt>
      <trkpt lat="44.54091" lon="-0.33126">
        <ele>77.199996948242</ele>
        <time>2021-08-05T07:35:45Z</time>
      </trkpt>
      <trkpt lat="44.54051" lon="-0.33137">
        <ele>78.800003051758</ele>
        <time>2021-08-05T07:35:59Z</time>
      </trkpt>
      <trkpt lat="44.53965" lon="-0.33155">
        <ele>80.400001525879</ele>
        <time>2021-08-05T07:36:26Z</time>
      </trkpt>
      <trkpt lat="44.5394" lon="-0.33049">
        <ele>80.599998474121</ele>
        <time>2021-08-05T07:36:45Z</time>
      </trkpt>
      <trkpt lat="44.53931" lon="-0.33014">
        <ele>80.599998474121</ele>
        <time>2021-08-05T07:36:51Z</time>
      </trkpt>
      <trkpt lat="44.53925" lon="-0.32998">
        <ele>81</ele>
        <time>2021-08-05T07:36:54Z</time>
      </trkpt>
      <trkpt lat="44.53904" lon="-0.32934">
        <ele>81.199996948242</ele>
        <time>2021-08-05T07:37:07Z</time>
      </trkpt>
      <trkpt lat="44.53968" lon="-0.32924">
        <ele>80.800003051758</ele>
        <time>2021-08-05T07:37:28Z</time>
      </trkpt>
      <trkpt lat="44.53997" lon="-0.32927">
        <ele>80.599998474121</ele>
        <time>2021-08-05T07:37:35Z</time>
      </trkpt>
      <trkpt lat="44.54009" lon="-0.32926">
        <ele>80.400001525879</ele>
        <time>2021-08-05T07:37:38Z</time>
      </trkpt>
      <trkpt lat="44.54164" lon="-0.32928">
        <ele>78.400001525879</ele>
        <time>2021-08-05T07:38:11Z</time>
      </trkpt>
      <trkpt lat="44.54246" lon="-0.32886">
        <ele>78.599998474121</ele>
        <time>2021-08-05T07:38:31Z</time>
      </trkpt>
      <trkpt lat="44.54362" lon="-0.32801">
        <ele>77.199996948242</ele>
        <time>2021-08-05T07:39:18Z</time>
      </trkpt>
      <trkpt lat="44.54358" lon="-0.32814">
        <ele>77.199996948242</ele>
        <time>2021-08-05T07:39:27Z</time>
      </trkpt>
      <trkpt lat="44.54345" lon="-0.32813">
        <ele>76.400001525879</ele>
        <time>2021-08-05T07:43:03Z</time>
      </trkpt>
      <trkpt lat="44.54246" lon="-0.32883">
        <ele>77.800003051758</ele>
        <time>2021-08-05T07:45:42Z</time>
      </trkpt>
      <trkpt lat="44.54203" lon="-0.32915">
        <ele>78.400001525879</ele>
        <time>2021-08-05T07:45:56Z</time>
      </trkpt>
      <trkpt lat="44.54134" lon="-0.32926">
        <ele>78</ele>
        <time>2021-08-05T07:46:12Z</time>
      </trkpt>
      <trkpt lat="44.53914" lon="-0.3293">
        <ele>80.199996948242</ele>
        <time>2021-08-05T07:47:10Z</time>
      </trkpt>
      <trkpt lat="44.53904" lon="-0.32903">
        <ele>78.400001525879</ele>
        <time>2021-08-05T07:48:55Z</time>
      </trkpt>
      <trkpt lat="44.539" lon="-0.32894">
        <ele>78.400001525879</ele>
        <time>2021-08-05T07:48:58Z</time>
      </trkpt>
      <trkpt lat="44.53845" lon="-0.3269">
        <ele>79.800003051758</ele>
        <time>2021-08-05T07:49:35Z</time>
      </trkpt>
      <trkpt lat="44.53826" lon="-0.32625">
        <ele>80</ele>
        <time>2021-08-05T07:49:45Z</time>
      </trkpt>
      <trkpt lat="44.53805" lon="-0.3255">
        <ele>80.400001525879</ele>
        <time>2021-08-05T07:49:56Z</time>
      </trkpt>
      <trkpt lat="44.53772" lon="-0.32408">
        <ele>80</ele>
        <time>2021-08-05T07:50:15Z</time>
      </trkpt>
      <trkpt lat="44.53768" lon="-0.32385">
        <ele>80</ele>
        <time>2021-08-05T07:50:18Z</time>
      </trkpt>
      <trkpt lat="44.53758" lon="-0.32317">
        <ele>79.400001525879</ele>
        <time>2021-08-05T07:50:27Z</time>
      </trkpt>
      <trkpt lat="44.53742" lon="-0.32203">
        <ele>79</ele>
        <time>2021-08-05T07:50:47Z</time>
      </trkpt>
      <trkpt lat="44.53736" lon="-0.32147">
        <ele>79.199996948242</ele>
        <time>2021-08-05T07:50:55Z</time>
      </trkpt>
      <trkpt lat="44.53734" lon="-0.32082">
        <ele>79.400001525879</ele>
        <time>2021-08-05T07:51:03Z</time>
      </trkpt>
      <trkpt lat="44.53737" lon="-0.3195">
        <ele>79</ele>
        <time>2021-08-05T07:51:19Z</time>
      </trkpt>
      <trkpt lat="44.53729" lon="-0.31823">
        <ele>79.199996948242</ele>
        <time>2021-08-05T07:51:34Z</time>
      </trkpt>
      <trkpt lat="44.53726" lon="-0.31801">
        <ele>79.199996948242</ele>
        <time>2021-08-05T07:51:37Z</time>
      </trkpt>
      <trkpt lat="44.53718" lon="-0.31736">
        <ele>79.400001525879</ele>
        <time>2021-08-05T07:51:45Z</time>
      </trkpt>
      <trkpt lat="44.53711" lon="-0.31672">
        <ele>80</ele>
        <time>2021-08-05T07:51:54Z</time>
      </trkpt>
      <trkpt lat="44.53731" lon="-0.31566">
        <ele>79.800003051758</ele>
        <time>2021-08-05T07:52:10Z</time>
      </trkpt>
      <trkpt lat="44.53816" lon="-0.31229">
        <ele>77.400001525879</ele>
        <time>2021-08-05T07:52:52Z</time>
      </trkpt>
      <trkpt lat="44.53803" lon="-0.31082">
        <ele>75.800003051758</ele>
        <time>2021-08-05T07:53:05Z</time>
      </trkpt>
      <trkpt lat="44.53785" lon="-0.30997">
        <ele>74.800003051758</ele>
        <time>2021-08-05T07:53:13Z</time>
      </trkpt>
      <trkpt lat="44.53903" lon="-0.30793">
        <ele>74.199996948242</ele>
        <time>2021-08-05T07:53:47Z</time>
      </trkpt>
      <trkpt lat="44.5394" lon="-0.30774">
        <ele>73.400001525879</ele>
        <time>2021-08-05T07:53:51Z</time>
      </trkpt>
      <trkpt lat="44.53973" lon="-0.30738">
        <ele>72.400001525879</ele>
        <time>2021-08-05T07:53:55Z</time>
      </trkpt>
      <trkpt lat="44.54039" lon="-0.30656">
        <ele>69.199996948242</ele>
        <time>2021-08-05T07:54:02Z</time>
      </trkpt>
      <trkpt lat="44.54098" lon="-0.30599">
        <ele>65.599998474121</ele>
        <time>2021-08-05T07:54:07Z</time>
      </trkpt>
      <trkpt lat="44.54144" lon="-0.30553">
        <ele>62.200000762939</ele>
        <time>2021-08-05T07:54:11Z</time>
      </trkpt>
      <trkpt lat="44.54164" lon="-0.30529">
        <ele>60.599998474121</ele>
        <time>2021-08-05T07:54:13Z</time>
      </trkpt>
      <trkpt lat="44.54211" lon="-0.30423">
        <ele>56.599998474121</ele>
        <time>2021-08-05T07:54:20Z</time>
      </trkpt>
      <trkpt lat="44.54215" lon="-0.30406">
        <ele>56</ele>
        <time>2021-08-05T07:54:21Z</time>
      </trkpt>
      <trkpt lat="44.5425" lon="-0.30217">
        <ele>52.599998474121</ele>
        <time>2021-08-05T07:54:33Z</time>
      </trkpt>
      <trkpt lat="44.5427" lon="-0.30093">
        <ele>49.599998474121</ele>
        <time>2021-08-05T07:54:41Z</time>
      </trkpt>
      <trkpt lat="44.54271" lon="-0.30077">
        <ele>49.599998474121</ele>
        <time>2021-08-05T07:54:42Z</time>
      </trkpt>
      <trkpt lat="44.54258" lon="-0.29956">
        <ele>46.599998474121</ele>
        <time>2021-08-05T07:54:50Z</time>
      </trkpt>
      <trkpt lat="44.5424" lon="-0.29826">
        <ele>42.599998474121</ele>
        <time>2021-08-05T07:55:00Z</time>
      </trkpt>
      <trkpt lat="44.54238" lon="-0.29813">
        <ele>42.400001525879</ele>
        <time>2021-08-05T07:55:01Z</time>
      </trkpt>
      <trkpt lat="44.54214" lon="-0.296">
        <ele>41.799999237061</ele>
        <time>2021-08-05T07:55:24Z</time>
      </trkpt>
      <trkpt lat="44.54212" lon="-0.29557">
        <ele>42.200000762939</ele>
        <time>2021-08-05T07:55:31Z</time>
      </trkpt>
      <trkpt lat="44.54207" lon="-0.29513">
        <ele>42.799999237061</ele>
        <time>2021-08-05T07:55:38Z</time>
      </trkpt>
      <trkpt lat="44.54098" lon="-0.29156">
        <ele>42.799999237061</ele>
        <time>2021-08-05T07:56:27Z</time>
      </trkpt>
      <trkpt lat="44.54074" lon="-0.29105">
        <ele>42.799999237061</ele>
        <time>2021-08-05T07:56:34Z</time>
      </trkpt>
      <trkpt lat="44.53958" lon="-0.2884">
        <ele>42.799999237061</ele>
        <time>2021-08-05T07:57:10Z</time>
      </trkpt>
      <trkpt lat="44.53995" lon="-0.28651">
        <ele>42</ele>
        <time>2021-08-05T07:57:32Z</time>
      </trkpt>
      <trkpt lat="44.54194" lon="-0.28361">
        <ele>40.799999237061</ele>
        <time>2021-08-05T07:58:10Z</time>
      </trkpt>
      <trkpt lat="44.54211" lon="-0.28316">
        <ele>40.799999237061</ele>
        <time>2021-08-05T07:58:15Z</time>
      </trkpt>
      <trkpt lat="44.54225" lon="-0.28276">
        <ele>40.799999237061</ele>
        <time>2021-08-05T07:58:20Z</time>
      </trkpt>
      <trkpt lat="44.54255" lon="-0.28193">
        <ele>40.599998474121</ele>
        <time>2021-08-05T07:58:30Z</time>
      </trkpt>
      <trkpt lat="44.54277" lon="-0.28125">
        <ele>40.400001525879</ele>
        <time>2021-08-05T07:58:38Z</time>
      </trkpt>
      <trkpt lat="44.54282" lon="-0.28115">
        <ele>40</ele>
        <time>2021-08-05T07:58:39Z</time>
      </trkpt>
      <trkpt lat="44.54303" lon="-0.28072">
        <ele>39.799999237061</ele>
        <time>2021-08-05T07:58:44Z</time>
      </trkpt>
      <trkpt lat="44.54333" lon="-0.28023">
        <ele>39</ele>
        <time>2021-08-05T07:58:50Z</time>
      </trkpt>
      <trkpt lat="44.54394" lon="-0.27926">
        <ele>37.400001525879</ele>
        <time>2021-08-05T07:59:02Z</time>
      </trkpt>
      <trkpt lat="44.54402" lon="-0.27909">
        <ele>37.400001525879</ele>
        <time>2021-08-05T07:59:04Z</time>
      </trkpt>
      <trkpt lat="44.54415" lon="-0.27882">
        <ele>37</ele>
        <time>2021-08-05T07:59:07Z</time>
      </trkpt>
      <trkpt lat="44.5444" lon="-0.27838">
        <ele>37</ele>
        <time>2021-08-05T07:59:12Z</time>
      </trkpt>
      <trkpt lat="44.54463" lon="-0.27801">
        <ele>36.799999237061</ele>
        <time>2021-08-05T07:59:17Z</time>
      </trkpt>
      <trkpt lat="44.54531" lon="-0.27729">
        <ele>36.200000762939</ele>
        <time>2021-08-05T07:59:30Z</time>
      </trkpt>
      <trkpt lat="44.54646" lon="-0.27618">
        <ele>35</ele>
        <time>2021-08-05T07:59:49Z</time>
      </trkpt>
      <trkpt lat="44.54679" lon="-0.27578">
        <ele>34.799999237061</ele>
        <time>2021-08-05T07:59:55Z</time>
      </trkpt>
      <trkpt lat="44.54716" lon="-0.27489">
        <ele>35</ele>
        <time>2021-08-05T08:00:05Z</time>
      </trkpt>
      <trkpt lat="44.54794" lon="-0.27247">
        <ele>38</ele>
        <time>2021-08-05T08:00:39Z</time>
      </trkpt>
      <trkpt lat="44.54797" lon="-0.27236">
        <ele>38.400001525879</ele>
        <time>2021-08-05T08:00:41Z</time>
      </trkpt>
      <trkpt lat="44.54818" lon="-0.27171">
        <ele>39.400001525879</ele>
        <time>2021-08-05T08:00:53Z</time>
      </trkpt>
      <trkpt lat="44.54837" lon="-0.2709">
        <ele>39.799999237061</ele>
        <time>2021-08-05T08:01:05Z</time>
      </trkpt>
      <trkpt lat="44.54853" lon="-0.27037">
        <ele>39.599998474121</ele>
        <time>2021-08-05T08:01:11Z</time>
      </trkpt>
      <trkpt lat="44.54892" lon="-0.26909">
        <ele>37.799999237061</ele>
        <time>2021-08-05T08:01:24Z</time>
      </trkpt>
      <trkpt lat="44.54937" lon="-0.26803">
        <ele>35.200000762939</ele>
        <time>2021-08-05T08:01:40Z</time>
      </trkpt>
      <trkpt lat="44.54997" lon="-0.26727">
        <ele>34.400001525879</ele>
        <time>2021-08-05T08:07:25Z</time>
      </trkpt>
      <trkpt lat="44.5517" lon="-0.26539">
        <ele>33.799999237061</ele>
        <time>2021-08-05T08:08:14Z</time>
      </trkpt>
      <trkpt lat="44.55198" lon="-0.2651">
        <ele>33.599998474121</ele>
        <time>2021-08-05T08:08:20Z</time>
      </trkpt>
      <trkpt lat="44.55224" lon="-0.26437">
        <ele>33</ele>
        <time>2021-08-05T08:08:29Z</time>
      </trkpt>
      <trkpt lat="44.55232" lon="-0.26411">
        <ele>32.599998474121</ele>
        <time>2021-08-05T08:08:33Z</time>
      </trkpt>
      <trkpt lat="44.55259" lon="-0.26326">
        <ele>31.799999237061</ele>
        <time>2021-08-05T08:08:43Z</time>
      </trkpt>
      <trkpt lat="44.55335" lon="-0.26005">
        <ele>29.200000762939</ele>
        <time>2021-08-05T08:09:19Z</time>
      </trkpt>
      <trkpt lat="44.55345" lon="-0.25967">
        <ele>28.60000038147</ele>
        <time>2021-08-05T08:09:23Z</time>
      </trkpt>
      <trkpt lat="44.55397" lon="-0.25714">
        <ele>26.799999237061</ele>
        <time>2021-08-05T08:09:49Z</time>
      </trkpt>
      <trkpt lat="44.55419" lon="-0.25661">
        <ele>25.39999961853</ele>
        <time>2021-08-05T08:09:55Z</time>
      </trkpt>
      <trkpt lat="44.55451" lon="-0.25572">
        <ele>24.60000038147</ele>
        <time>2021-08-05T08:10:05Z</time>
      </trkpt>
      <trkpt lat="44.55458" lon="-0.25536">
        <ele>24.39999961853</ele>
        <time>2021-08-05T08:10:09Z</time>
      </trkpt>
      <trkpt lat="44.55472" lon="-0.25408">
        <ele>23</ele>
        <time>2021-08-05T08:10:33Z</time>
      </trkpt>
      <trkpt lat="44.55502" lon="-0.25394">
        <ele>22</ele>
        <time>2021-08-05T08:10:46Z</time>
      </trkpt>
      <trkpt lat="44.5552" lon="-0.25372">
        <ele>21.60000038147</ele>
        <time>2021-08-05T08:10:52Z</time>
      </trkpt>
      <trkpt lat="44.55583" lon="-0.25309">
        <ele>20.60000038147</ele>
        <time>2021-08-05T08:11:07Z</time>
      </trkpt>
      <trkpt lat="44.55628" lon="-0.2526">
        <ele>19.200000762939</ele>
        <time>2021-08-05T08:11:20Z</time>
      </trkpt>
      <trkpt lat="44.55638" lon="-0.25251">
        <ele>19</ele>
        <time>2021-08-05T08:11:26Z</time>
      </trkpt>
      <trkpt lat="44.55669" lon="-0.2522">
        <ele>18.60000038147</ele>
        <time>2021-08-05T08:11:43Z</time>
      </trkpt>
      <trkpt lat="44.55672" lon="-0.25222">
        <ele>18.60000038147</ele>
        <time>2021-08-05T08:11:47Z</time>
      </trkpt>
      <trkpt lat="44.55784" lon="-0.2519">
        <ele>21</ele>
        <time>2021-08-05T08:12:21Z</time>
      </trkpt>
      <trkpt lat="44.55808" lon="-0.25166">
        <ele>21.799999237061</ele>
        <time>2021-08-05T08:12:29Z</time>
      </trkpt>
      <trkpt lat="44.55837" lon="-0.25133">
        <ele>22.60000038147</ele>
        <time>2021-08-05T08:12:40Z</time>
      </trkpt>
      <trkpt lat="44.56154" lon="-0.24753">
        <ele>19.60000038147</ele>
        <time>2021-08-05T08:13:52Z</time>
      </trkpt>
      <trkpt lat="44.56259" lon="-0.24578">
        <ele>16</ele>
        <time>2021-08-05T08:14:12Z</time>
      </trkpt>
      <trkpt lat="44.5628" lon="-0.24537">
        <ele>15.800000190735</ele>
        <time>2021-08-05T08:14:17Z</time>
      </trkpt>
      <trkpt lat="44.56344" lon="-0.24397">
        <ele>14.800000190735</ele>
        <time>2021-08-05T08:14:36Z</time>
      </trkpt>
      <trkpt lat="44.56369" lon="-0.2425">
        <ele>13.800000190735</ele>
        <time>2021-08-05T08:17:39Z</time>
      </trkpt>
      <trkpt lat="44.56329" lon="-0.2402">
        <ele>14.800000190735</ele>
        <time>2021-08-05T08:18:19Z</time>
      </trkpt>
      <trkpt lat="44.56323" lon="-0.24">
        <ele>14.800000190735</ele>
        <time>2021-08-05T08:18:22Z</time>
      </trkpt>
      <trkpt lat="44.56316" lon="-0.2395">
        <ele>14.800000190735</ele>
        <time>2021-08-05T08:18:29Z</time>
      </trkpt>
      <trkpt lat="44.56274" lon="-0.23726">
        <ele>15</ele>
        <time>2021-08-05T08:18:59Z</time>
      </trkpt>
      <trkpt lat="44.56267" lon="-0.23684">
        <ele>15.199999809265</ele>
        <time>2021-08-05T08:19:06Z</time>
      </trkpt>
      <trkpt lat="44.56245" lon="-0.23597">
        <ele>14.60000038147</ele>
        <time>2021-08-05T08:19:19Z</time>
      </trkpt>
      <trkpt lat="44.56227" lon="-0.23515">
        <ele>14.39999961853</ele>
        <time>2021-08-05T08:19:30Z</time>
      </trkpt>
      <trkpt lat="44.5619" lon="-0.23338">
        <ele>14.60000038147</ele>
        <time>2021-08-05T08:19:54Z</time>
      </trkpt>
      <trkpt lat="44.56186" lon="-0.23235">
        <ele>15.199999809265</ele>
        <time>2021-08-05T08:20:08Z</time>
      </trkpt>
      <trkpt lat="44.56185" lon="-0.23201">
        <ele>15.39999961853</ele>
        <time>2021-08-05T08:20:12Z</time>
      </trkpt>
      <trkpt lat="44.5618" lon="-0.23168">
        <ele>15.39999961853</ele>
        <time>2021-08-05T08:20:16Z</time>
      </trkpt>
      <trkpt lat="44.56189" lon="-0.23099">
        <ele>15.39999961853</ele>
        <time>2021-08-05T08:20:24Z</time>
      </trkpt>
      <trkpt lat="44.56227" lon="-0.22909">
        <ele>14.199999809265</ele>
        <time>2021-08-05T08:20:47Z</time>
      </trkpt>
      <trkpt lat="44.56238" lon="-0.22693">
        <ele>13.199999809265</ele>
        <time>2021-08-05T08:21:15Z</time>
      </trkpt>
      <trkpt lat="44.56238" lon="-0.22677">
        <ele>13.199999809265</ele>
        <time>2021-08-05T08:21:17Z</time>
      </trkpt>
      <trkpt lat="44.56245" lon="-0.22583">
        <ele>13.60000038147</ele>
        <time>2021-08-05T08:21:30Z</time>
      </trkpt>
      <trkpt lat="44.56256" lon="-0.22466">
        <ele>13.39999961853</ele>
        <time>2021-08-05T08:21:48Z</time>
      </trkpt>
      <trkpt lat="44.56324" lon="-0.22238">
        <ele>14</ele>
        <time>2021-08-05T08:22:26Z</time>
      </trkpt>
      <trkpt lat="44.56335" lon="-0.22161">
        <ele>14</ele>
        <time>2021-08-05T08:22:41Z</time>
      </trkpt>
      <trkpt lat="44.56348" lon="-0.22119">
        <ele>14</ele>
        <time>2021-08-05T08:22:48Z</time>
      </trkpt>
      <trkpt lat="44.56385" lon="-0.2209">
        <ele>14.60000038147</ele>
        <time>2021-08-05T08:22:58Z</time>
      </trkpt>
      <trkpt lat="44.56491" lon="-0.22077">
        <ele>15.199999809265</ele>
        <time>2021-08-05T08:23:21Z</time>
      </trkpt>
      <trkpt lat="44.5652" lon="-0.22087">
        <ele>15.199999809265</ele>
        <time>2021-08-05T08:23:27Z</time>
      </trkpt>
      <trkpt lat="44.56537" lon="-0.221">
        <ele>15</ele>
        <time>2021-08-05T08:23:31Z</time>
      </trkpt>
      <trkpt lat="44.56561" lon="-0.22122">
        <ele>15</ele>
        <time>2021-08-05T08:23:37Z</time>
      </trkpt>
      <trkpt lat="44.56594" lon="-0.22155">
        <ele>15</ele>
        <time>2021-08-05T08:23:45Z</time>
      </trkpt>
      <trkpt lat="44.56629" lon="-0.22183">
        <ele>15</ele>
        <time>2021-08-05T08:23:53Z</time>
      </trkpt>
      <trkpt lat="44.5664" lon="-0.22184">
        <ele>15</ele>
        <time>2021-08-05T08:23:55Z</time>
      </trkpt>
      <trkpt lat="44.56695" lon="-0.22206">
        <ele>17</ele>
        <time>2021-08-05T08:24:14Z</time>
      </trkpt>
      <trkpt lat="44.56736" lon="-0.22133">
        <ele>18.60000038147</ele>
        <time>2021-08-05T08:24:37Z</time>
      </trkpt>
      <trkpt lat="44.56786" lon="-0.22029">
        <ele>19.200000762939</ele>
        <time>2021-08-05T08:25:04Z</time>
      </trkpt>
      <trkpt lat="44.56798" lon="-0.21997">
        <ele>19.200000762939</ele>
        <time>2021-08-05T08:25:10Z</time>
      </trkpt>
      <trkpt lat="44.56958" lon="-0.21664">
        <ele>21</ele>
        <time>2021-08-05T08:26:13Z</time>
      </trkpt>
      <trkpt lat="44.56971" lon="-0.21626">
        <ele>21.200000762939</ele>
        <time>2021-08-05T08:26:19Z</time>
      </trkpt>
      <trkpt lat="44.5698" lon="-0.21593">
        <ele>21.39999961853</ele>
        <time>2021-08-05T08:26:25Z</time>
      </trkpt>
      <trkpt lat="44.56996" lon="-0.21468">
        <ele>21.39999961853</ele>
        <time>2021-08-05T08:26:40Z</time>
      </trkpt>
      <trkpt lat="44.56999" lon="-0.2145">
        <ele>21.200000762939</ele>
        <time>2021-08-05T08:26:42Z</time>
      </trkpt>
      <trkpt lat="44.57034" lon="-0.2136">
        <ele>20.799999237061</ele>
        <time>2021-08-05T08:26:56Z</time>
      </trkpt>
      <trkpt lat="44.57041" lon="-0.21342">
        <ele>21</ele>
        <time>2021-08-05T08:26:59Z</time>
      </trkpt>
      <trkpt lat="44.57016" lon="-0.21217">
        <ele>21</ele>
        <time>2021-08-05T08:27:15Z</time>
      </trkpt>
      <trkpt lat="44.57004" lon="-0.21176">
        <ele>20.799999237061</ele>
        <time>2021-08-05T08:27:20Z</time>
      </trkpt>
      <trkpt lat="44.57035" lon="-0.20918">
        <ele>20.200000762939</ele>
        <time>2021-08-05T08:27:51Z</time>
      </trkpt>
      <trkpt lat="44.57078" lon="-0.20786">
        <ele>24</ele>
        <time>2021-08-05T08:28:18Z</time>
      </trkpt>
      <trkpt lat="44.57124" lon="-0.20454">
        <ele>25.799999237061</ele>
        <time>2021-08-05T08:29:07Z</time>
      </trkpt>
      <trkpt lat="44.57144" lon="-0.2037">
        <ele>25.39999961853</ele>
        <time>2021-08-05T08:29:15Z</time>
      </trkpt>
      <trkpt lat="44.57187" lon="-0.20224">
        <ele>25.200000762939</ele>
        <time>2021-08-05T08:29:33Z</time>
      </trkpt>
      <trkpt lat="44.57198" lon="-0.20114">
        <ele>26</ele>
        <time>2021-08-05T08:29:46Z</time>
      </trkpt>
      <trkpt lat="44.57198" lon="-0.20098">
        <ele>26</ele>
        <time>2021-08-05T08:29:48Z</time>
      </trkpt>
      <trkpt lat="44.57206" lon="-0.1994">
        <ele>25.799999237061</ele>
        <time>2021-08-05T08:30:05Z</time>
      </trkpt>
      <trkpt lat="44.57207" lon="-0.19913">
        <ele>25.60000038147</ele>
        <time>2021-08-05T08:30:08Z</time>
      </trkpt>
      <trkpt lat="44.57183" lon="-0.19642">
        <ele>22</ele>
        <time>2021-08-05T08:30:33Z</time>
      </trkpt>
      <trkpt lat="44.57151" lon="-0.19287">
        <ele>19.200000762939</ele>
        <time>2021-08-05T08:31:09Z</time>
      </trkpt>
      <trkpt lat="44.57159" lon="-0.19242">
        <ele>19.200000762939</ele>
        <time>2021-08-05T08:31:14Z</time>
      </trkpt>
      <trkpt lat="44.57171" lon="-0.19187">
        <ele>19.200000762939</ele>
        <time>2021-08-05T08:31:21Z</time>
      </trkpt>
      <trkpt lat="44.57176" lon="-0.19006">
        <ele>22.39999961853</ele>
        <time>2021-08-05T08:31:52Z</time>
      </trkpt>
      <trkpt lat="44.57177" lon="-0.19">
        <ele>22.60000038147</ele>
        <time>2021-08-05T08:31:53Z</time>
      </trkpt>
      <trkpt lat="44.57181" lon="-0.18968">
        <ele>22.60000038147</ele>
        <time>2021-08-05T08:31:58Z</time>
      </trkpt>
      <trkpt lat="44.57182" lon="-0.18883">
        <ele>22.799999237061</ele>
        <time>2021-08-05T08:32:11Z</time>
      </trkpt>
      <trkpt lat="44.57182" lon="-0.18772">
        <ele>25.799999237061</ele>
        <time>2021-08-05T08:32:38Z</time>
      </trkpt>
      <trkpt lat="44.57179" lon="-0.18681">
        <ele>29.200000762939</ele>
        <time>2021-08-05T08:33:03Z</time>
      </trkpt>
      <trkpt lat="44.57177" lon="-0.18595">
        <ele>32.799999237061</ele>
        <time>2021-08-05T08:33:30Z</time>
      </trkpt>
      <trkpt lat="44.57178" lon="-0.18588">
        <ele>33</ele>
        <time>2021-08-05T08:33:33Z</time>
      </trkpt>
      <trkpt lat="44.57268" lon="-0.18067">
        <ele>36</ele>
        <time>2021-08-05T08:34:53Z</time>
      </trkpt>
      <trkpt lat="44.57352" lon="-0.17606">
        <ele>35</ele>
        <time>2021-08-05T08:35:47Z</time>
      </trkpt>
      <trkpt lat="44.57437" lon="-0.17136">
        <ele>35.200000762939</ele>
        <time>2021-08-05T08:36:41Z</time>
      </trkpt>
      <trkpt lat="44.57503" lon="-0.16646">
        <ele>32.200000762939</ele>
        <time>2021-08-05T08:37:32Z</time>
      </trkpt>
      <trkpt lat="44.57524" lon="-0.16428">
        <ele>27.799999237061</ele>
        <time>2021-08-05T08:37:48Z</time>
      </trkpt>
      <trkpt lat="44.57526" lon="-0.16403">
        <ele>27.60000038147</ele>
        <time>2021-08-05T08:37:50Z</time>
      </trkpt>
      <trkpt lat="44.57556" lon="-0.16152">
        <ele>26</ele>
        <time>2021-08-05T08:38:40Z</time>
      </trkpt>
      <trkpt lat="44.57567" lon="-0.16063">
        <ele>26.200000762939</ele>
        <time>2021-08-05T08:38:53Z</time>
      </trkpt>
      <trkpt lat="44.57589" lon="-0.15893">
        <ele>26</ele>
        <time>2021-08-05T08:39:12Z</time>
      </trkpt>
      <trkpt lat="44.57593" lon="-0.15817">
        <ele>24.799999237061</ele>
        <time>2021-08-05T08:39:19Z</time>
      </trkpt>
      <trkpt lat="44.57608" lon="-0.15642">
        <ele>21.200000762939</ele>
        <time>2021-08-05T08:39:36Z</time>
      </trkpt>
      <trkpt lat="44.57609" lon="-0.15631">
        <ele>21.200000762939</ele>
        <time>2021-08-05T08:39:37Z</time>
      </trkpt>
      <trkpt lat="44.5768" lon="-0.14896">
        <ele>19.799999237061</ele>
        <time>2021-08-05T08:40:54Z</time>
      </trkpt>
      <trkpt lat="44.5769" lon="-0.1481">
        <ele>19.60000038147</ele>
        <time>2021-08-05T08:41:04Z</time>
      </trkpt>
      <trkpt lat="44.5773" lon="-0.14442">
        <ele>22.799999237061</ele>
        <time>2021-08-05T08:41:56Z</time>
      </trkpt>
      <trkpt lat="44.57747" lon="-0.14296">
        <ele>22.799999237061</ele>
        <time>2021-08-05T08:42:19Z</time>
      </trkpt>
      <trkpt lat="44.57784" lon="-0.14236">
        <ele>23.200000762939</ele>
        <time>2021-08-05T08:42:31Z</time>
      </trkpt>
      <trkpt lat="44.58177" lon="-0.13733">
        <ele>23.200000762939</ele>
        <time>2021-08-05T08:44:00Z</time>
      </trkpt>
      <trkpt lat="44.58224" lon="-0.13653">
        <ele>21.60000038147</ele>
        <time>2021-08-05T08:44:09Z</time>
      </trkpt>
      <trkpt lat="44.58347" lon="-0.13295">
        <ele>20.60000038147</ele>
        <time>2021-08-05T08:44:49Z</time>
      </trkpt>
      <trkpt lat="44.5836" lon="-0.13192">
        <ele>21.39999961853</ele>
        <time>2021-08-05T08:45:02Z</time>
      </trkpt>
      <trkpt lat="44.58362" lon="-0.13111">
        <ele>21.200000762939</ele>
        <time>2021-08-05T08:45:11Z</time>
      </trkpt>
      <trkpt lat="44.58375" lon="-0.12735">
        <ele>20.39999961853</ele>
        <time>2021-08-05T08:45:53Z</time>
      </trkpt>
      <trkpt lat="44.58377" lon="-0.12663">
        <ele>21.200000762939</ele>
        <time>2021-08-05T08:46:02Z</time>
      </trkpt>
      <trkpt lat="44.5839" lon="-0.1241">
        <ele>22.799999237061</ele>
        <time>2021-08-05T08:46:38Z</time>
      </trkpt>
      <trkpt lat="44.58398" lon="-0.12316">
        <ele>23.200000762939</ele>
        <time>2021-08-05T08:46:51Z</time>
      </trkpt>
      <trkpt lat="44.58401" lon="-0.12293">
        <ele>23.200000762939</ele>
        <time>2021-08-05T08:46:54Z</time>
      </trkpt>
      <trkpt lat="44.58493" lon="-0.11758">
        <ele>25.39999961853</ele>
        <time>2021-08-05T08:48:05Z</time>
      </trkpt>
      <trkpt lat="44.58494" lon="-0.11751">
        <ele>25.60000038147</ele>
        <time>2021-08-05T08:48:06Z</time>
      </trkpt>
      <trkpt lat="44.58522" lon="-0.11638">
        <ele>26.39999961853</ele>
        <time>2021-08-05T08:48:21Z</time>
      </trkpt>
      <trkpt lat="44.58533" lon="-0.11592">
        <ele>27.200000762939</ele>
        <time>2021-08-05T08:48:28Z</time>
      </trkpt>
      <trkpt lat="44.58551" lon="-0.11482">
        <ele>29</ele>
        <time>2021-08-05T08:48:46Z</time>
      </trkpt>
      <trkpt lat="44.58579" lon="-0.11418">
        <ele>29.799999237061</ele>
        <time>2021-08-05T08:48:57Z</time>
      </trkpt>
      <trkpt lat="44.58597" lon="-0.11327">
        <ele>30</ele>
        <time>2021-08-05T08:49:08Z</time>
      </trkpt>
      <trkpt lat="44.58624" lon="-0.1119">
        <ele>28.60000038147</ele>
        <time>2021-08-05T08:49:24Z</time>
      </trkpt>
      <trkpt lat="44.58676" lon="-0.10919">
        <ele>26.39999961853</ele>
        <time>2021-08-05T08:49:50Z</time>
      </trkpt>
      <trkpt lat="44.58687" lon="-0.10834">
        <ele>24.39999961853</ele>
        <time>2021-08-05T08:49:57Z</time>
      </trkpt>
      <trkpt lat="44.58675" lon="-0.1074">
        <ele>23.799999237061</ele>
        <time>2021-08-05T08:50:07Z</time>
      </trkpt>
      <trkpt lat="44.58544" lon="-0.09784">
        <ele>24</ele>
        <time>2021-08-05T08:51:54Z</time>
      </trkpt>
      <trkpt lat="44.58534" lon="-0.09733">
        <ele>23.39999961853</ele>
        <time>2021-08-05T08:51:59Z</time>
      </trkpt>
      <trkpt lat="44.58504" lon="-0.09657">
        <ele>22.39999961853</ele>
        <time>2021-08-05T08:52:07Z</time>
      </trkpt>
      <trkpt lat="44.58449" lon="-0.09514">
        <ele>20.60000038147</ele>
        <time>2021-08-05T08:52:23Z</time>
      </trkpt>
      <trkpt lat="44.58395" lon="-0.09198">
        <ele>22.39999961853</ele>
        <time>2021-08-05T08:53:15Z</time>
      </trkpt>
      <trkpt lat="44.584" lon="-0.09124">
        <ele>25.799999237061</ele>
        <time>2021-08-05T08:53:38Z</time>
      </trkpt>
      <trkpt lat="44.58404" lon="-0.09117">
        <ele>25.799999237061</ele>
        <time>2021-08-05T08:53:40Z</time>
      </trkpt>
      <trkpt lat="44.58402" lon="-0.09081">
        <ele>26.799999237061</ele>
        <time>2021-08-05T08:53:50Z</time>
      </trkpt>
      <trkpt lat="44.58399" lon="-0.08976">
        <ele>28.200000762939</ele>
        <time>2021-08-05T08:54:10Z</time>
      </trkpt>
      <trkpt lat="44.5844" lon="-0.08853">
        <ele>28.200000762939</ele>
        <time>2021-08-05T08:54:29Z</time>
      </trkpt>
      <trkpt lat="44.58455" lon="-0.08803">
        <ele>28.200000762939</ele>
        <time>2021-08-05T08:54:36Z</time>
      </trkpt>
      <trkpt lat="44.58478" lon="-0.08662">
        <ele>27.799999237061</ele>
        <time>2021-08-05T08:54:54Z</time>
      </trkpt>
      <trkpt lat="44.58516" lon="-0.08204">
        <ele>30.799999237061</ele>
        <time>2021-08-05T08:55:53Z</time>
      </trkpt>
      <trkpt lat="44.58497" lon="-0.08006">
        <ele>31.60000038147</ele>
        <time>2021-08-05T08:56:19Z</time>
      </trkpt>
      <trkpt lat="44.58497" lon="-0.07983">
        <ele>32</ele>
        <time>2021-08-05T08:56:22Z</time>
      </trkpt>
      <trkpt lat="44.58493" lon="-0.07928">
        <ele>32.400001525879</ele>
        <time>2021-08-05T08:56:29Z</time>
      </trkpt>
      <trkpt lat="44.58488" lon="-0.07902">
        <ele>32.599998474121</ele>
        <time>2021-08-05T08:56:33Z</time>
      </trkpt>
      <trkpt lat="44.58478" lon="-0.07828">
        <ele>34</ele>
        <time>2021-08-05T08:56:47Z</time>
      </trkpt>
      <trkpt lat="44.58467" lon="-0.07753">
        <ele>36</ele>
        <time>2021-08-05T08:57:05Z</time>
      </trkpt>
      <trkpt lat="44.58463" lon="-0.07738">
        <ele>36.400001525879</ele>
        <time>2021-08-05T08:57:09Z</time>
      </trkpt>
      <trkpt lat="44.58457" lon="-0.07656">
        <ele>39.400001525879</ele>
        <time>2021-08-05T08:57:30Z</time>
      </trkpt>
      <trkpt lat="44.58457" lon="-0.07648">
        <ele>39.400001525879</ele>
        <time>2021-08-05T08:57:32Z</time>
      </trkpt>
      <trkpt lat="44.58455" lon="-0.0757">
        <ele>42.400001525879</ele>
        <time>2021-08-05T08:57:57Z</time>
      </trkpt>
      <trkpt lat="44.58448" lon="-0.07488">
        <ele>45.599998474121</ele>
        <time>2021-08-05T08:58:24Z</time>
      </trkpt>
      <trkpt lat="44.58442" lon="-0.07424">
        <ele>48.200000762939</ele>
        <time>2021-08-05T08:58:45Z</time>
      </trkpt>
      <trkpt lat="44.58431" lon="-0.07331">
        <ele>51.599998474121</ele>
        <time>2021-08-05T08:59:15Z</time>
      </trkpt>
      <trkpt lat="44.5843" lon="-0.07328">
        <ele>51.799999237061</ele>
        <time>2021-08-05T08:59:16Z</time>
      </trkpt>
      <trkpt lat="44.58421" lon="-0.07195">
        <ele>55.799999237061</ele>
        <time>2021-08-05T08:59:54Z</time>
      </trkpt>
      <trkpt lat="44.58421" lon="-0.07191">
        <ele>56</ele>
        <time>2021-08-05T08:59:55Z</time>
      </trkpt>
      <trkpt lat="44.58411" lon="-0.07081">
        <ele>59</ele>
        <time>2021-08-05T09:00:24Z</time>
      </trkpt>
      <trkpt lat="44.58399" lon="-0.06971">
        <ele>62</ele>
        <time>2021-08-05T09:00:50Z</time>
      </trkpt>
      <trkpt lat="44.58359" lon="-0.06687">
        <ele>65.400001525879</ele>
        <time>2021-08-05T09:01:46Z</time>
      </trkpt>
      <trkpt lat="44.58355" lon="-0.06676">
        <ele>65.400001525879</ele>
        <time>2021-08-05T09:01:48Z</time>
      </trkpt>
      <trkpt lat="44.58365" lon="-0.06614">
        <ele>66.599998474121</ele>
        <time>2021-08-05T09:01:59Z</time>
      </trkpt>
      <trkpt lat="44.58341" lon="-0.06339">
        <ele>69.599998474121</ele>
        <time>2021-08-05T09:02:40Z</time>
      </trkpt>
      <trkpt lat="44.58322" lon="-0.06128">
        <ele>71</ele>
        <time>2021-08-05T09:03:17Z</time>
      </trkpt>
      <trkpt lat="44.58292" lon="-0.05798">
        <ele>74</ele>
        <time>2021-08-05T09:04:07Z</time>
      </trkpt>
      <trkpt lat="44.58284" lon="-0.0572">
        <ele>75.400001525879</ele>
        <time>2021-08-05T09:04:19Z</time>
      </trkpt>
      <trkpt lat="44.58283" lon="-0.05708">
        <ele>75.400001525879</ele>
        <time>2021-08-05T09:04:21Z</time>
      </trkpt>
      <trkpt lat="44.58279" lon="-0.05671">
        <ele>75.599998474121</ele>
        <time>2021-08-05T09:04:27Z</time>
      </trkpt>
      <trkpt lat="44.58273" lon="-0.05615">
        <ele>76</ele>
        <time>2021-08-05T09:04:36Z</time>
      </trkpt>
      <trkpt lat="44.58266" lon="-0.05525">
        <ele>77</ele>
        <time>2021-08-05T09:04:50Z</time>
      </trkpt>
      <trkpt lat="44.58263" lon="-0.05483">
        <ele>77.800003051758</ele>
        <time>2021-08-05T09:04:57Z</time>
      </trkpt>
      <trkpt lat="44.58257" lon="-0.054">
        <ele>78.400001525879</ele>
        <time>2021-08-05T09:05:11Z</time>
      </trkpt>
      <trkpt lat="44.58239" lon="-0.05096">
        <ele>74.599998474121</ele>
        <time>2021-08-05T09:05:43Z</time>
      </trkpt>
      <trkpt lat="44.58237" lon="-0.04993">
        <ele>71.199996948242</ele>
        <time>2021-08-05T09:05:51Z</time>
      </trkpt>
      <trkpt lat="44.58238" lon="-0.0498">
        <ele>71</ele>
        <time>2021-08-05T09:05:52Z</time>
      </trkpt>
      <trkpt lat="44.58238" lon="-0.04901">
        <ele>68</ele>
        <time>2021-08-05T09:05:58Z</time>
      </trkpt>
      <trkpt lat="44.58238" lon="-0.04784">
        <ele>65</ele>
        <time>2021-08-05T09:06:06Z</time>
      </trkpt>
      <trkpt lat="44.58236" lon="-0.0469">
        <ele>62</ele>
        <time>2021-08-05T09:06:12Z</time>
      </trkpt>
      <trkpt lat="44.58232" lon="-0.04542">
        <ele>58.200000762939</ele>
        <time>2021-08-05T09:06:22Z</time>
      </trkpt>
      <trkpt lat="44.58233" lon="-0.04485">
        <ele>55</ele>
        <time>2021-08-05T09:06:26Z</time>
      </trkpt>
      <trkpt lat="44.58245" lon="-0.04434">
        <ele>52.599998474121</ele>
        <time>2021-08-05T09:06:30Z</time>
      </trkpt>
      <trkpt lat="44.5826" lon="-0.04389">
        <ele>50.400001525879</ele>
        <time>2021-08-05T09:06:34Z</time>
      </trkpt>
      <trkpt lat="44.58297" lon="-0.04279">
        <ele>46.200000762939</ele>
        <time>2021-08-05T09:06:44Z</time>
      </trkpt>
      <trkpt lat="44.58317" lon="-0.04227">
        <ele>45.400001525879</ele>
        <time>2021-08-05T09:06:49Z</time>
      </trkpt>
      <trkpt lat="44.58322" lon="-0.04218">
        <ele>45.200000762939</ele>
        <time>2021-08-05T09:06:50Z</time>
      </trkpt>
      <trkpt lat="44.58334" lon="-0.04202">
        <ele>44.599998474121</ele>
        <time>2021-08-05T09:06:52Z</time>
      </trkpt>
      <trkpt lat="44.58364" lon="-0.04164">
        <ele>43.599998474121</ele>
        <time>2021-08-05T09:06:57Z</time>
      </trkpt>
      <trkpt lat="44.58369" lon="-0.04155">
        <ele>43.599998474121</ele>
        <time>2021-08-05T09:06:58Z</time>
      </trkpt>
      <trkpt lat="44.58374" lon="-0.04097">
        <ele>42.400001525879</ele>
        <time>2021-08-05T09:07:04Z</time>
      </trkpt>
      <trkpt lat="44.58366" lon="-0.03982">
        <ele>40.599998474121</ele>
        <time>2021-08-05T09:07:16Z</time>
      </trkpt>
      <trkpt lat="44.58322" lon="-0.0395">
        <ele>41.799999237061</ele>
        <time>2021-08-05T09:07:36Z</time>
      </trkpt>
      <trkpt lat="44.5832" lon="-0.03949">
        <ele>41.799999237061</ele>
        <time>2021-08-05T09:07:37Z</time>
      </trkpt>
      <trkpt lat="44.58284" lon="-0.03938">
        <ele>44.799999237061</ele>
        <time>2021-08-05T09:09:52Z</time>
      </trkpt>
      <trkpt lat="44.58283" lon="-0.03938">
        <ele>44.799999237061</ele>
        <time>2021-08-05T09:09:55Z</time>
      </trkpt>
      <trkpt lat="44.58289" lon="-0.03935">
        <ele>44.400001525879</ele>
        <time>2021-08-05T09:13:20Z</time>
      </trkpt>
      <trkpt lat="44.58334" lon="-0.03938">
        <ele>43.799999237061</ele>
        <time>2021-08-05T09:16:28Z</time>
      </trkpt>
      <trkpt lat="44.58329" lon="-0.03931">
        <ele>45.200000762939</ele>
        <time>2021-08-05T09:22:07Z</time>
      </trkpt>
      <trkpt lat="44.5833" lon="-0.03931">
        <ele>45.200000762939</ele>
        <time>2021-08-05T09:22:13Z</time>
      </trkpt>
      <trkpt lat="44.58308" lon="-0.03923">
        <ele>45.400001525879</ele>
        <time>2021-08-05T09:45:57Z</time>
      </trkpt>
      <trkpt lat="44.58301" lon="-0.03897">
        <ele>45.400001525879</ele>
        <time>2021-08-05T09:46:04Z</time>
      </trkpt>
      <trkpt lat="44.58291" lon="-0.03858">
        <ele>44.799999237061</ele>
        <time>2021-08-05T09:46:11Z</time>
      </trkpt>
      <trkpt lat="44.58288" lon="-0.03852">
        <ele>44.400001525879</ele>
        <time>2021-08-05T09:46:12Z</time>
      </trkpt>
      <trkpt lat="44.58277" lon="-0.03828">
        <ele>44</ele>
        <time>2021-08-05T09:46:16Z</time>
      </trkpt>
      <trkpt lat="44.58276" lon="-0.03821">
        <ele>43.799999237061</ele>
        <time>2021-08-05T09:46:17Z</time>
      </trkpt>
      <trkpt lat="44.5827" lon="-0.03749">
        <ele>42</ele>
        <time>2021-08-05T09:46:27Z</time>
      </trkpt>
      <trkpt lat="44.58266" lon="-0.03728">
        <ele>41.799999237061</ele>
        <time>2021-08-05T09:46:30Z</time>
      </trkpt>
      <trkpt lat="44.58248" lon="-0.03672">
        <ele>38</ele>
        <time>2021-08-05T09:46:41Z</time>
      </trkpt>
      <trkpt lat="44.58171" lon="-0.03661">
        <ele>35</ele>
        <time>2021-08-05T09:47:07Z</time>
      </trkpt>
      <trkpt lat="44.58114" lon="-0.03706">
        <ele>37.599998474121</ele>
        <time>2021-08-05T09:47:36Z</time>
      </trkpt>
      <trkpt lat="44.58093" lon="-0.03714">
        <ele>38.599998474121</ele>
        <time>2021-08-05T09:47:43Z</time>
      </trkpt>
      <trkpt lat="44.58061" lon="-0.03722">
        <ele>39.200000762939</ele>
        <time>2021-08-05T09:47:54Z</time>
      </trkpt>
      <trkpt lat="44.58024" lon="-0.03628">
        <ele>39.599998474121</ele>
        <time>2021-08-05T09:48:18Z</time>
      </trkpt>
      <trkpt lat="44.58018" lon="-0.03566">
        <ele>38.799999237061</ele>
        <time>2021-08-05T09:48:25Z</time>
      </trkpt>
      <trkpt lat="44.57966" lon="-0.03513">
        <ele>36.799999237061</ele>
        <time>2021-08-05T09:48:36Z</time>
      </trkpt>
      <trkpt lat="44.57965" lon="-0.035">
        <ele>36.200000762939</ele>
        <time>2021-08-05T09:48:38Z</time>
      </trkpt>
      <trkpt lat="44.57961" lon="-0.03433">
        <ele>34</ele>
        <time>2021-08-05T09:48:46Z</time>
      </trkpt>
      <trkpt lat="44.57967" lon="-0.03386">
        <ele>32</ele>
        <time>2021-08-05T09:48:51Z</time>
      </trkpt>
      <trkpt lat="44.57963" lon="-0.03354">
        <ele>30.200000762939</ele>
        <time>2021-08-05T09:48:58Z</time>
      </trkpt>
      <trkpt lat="44.57963" lon="-0.03366">
        <ele>30.200000762939</ele>
        <time>2021-08-05T09:49:01Z</time>
      </trkpt>
      <trkpt lat="44.57963" lon="-0.03402">
        <ele>30.200000762939</ele>
        <time>2021-08-05T09:49:07Z</time>
      </trkpt>
      <trkpt lat="44.57955" lon="-0.03409">
        <ele>30</ele>
        <time>2021-08-05T09:49:10Z</time>
      </trkpt>
      <trkpt lat="44.57781" lon="-0.03427">
        <ele>29</ele>
        <time>2021-08-05T09:49:52Z</time>
      </trkpt>
      <trkpt lat="44.57755" lon="-0.03429">
        <ele>28.799999237061</ele>
        <time>2021-08-05T09:49:56Z</time>
      </trkpt>
      <trkpt lat="44.57703" lon="-0.03351">
        <ele>25.200000762939</ele>
        <time>2021-08-05T09:50:13Z</time>
      </trkpt>
      <trkpt lat="44.57668" lon="-0.03237">
        <ele>24</ele>
        <time>2021-08-05T09:50:28Z</time>
      </trkpt>
      <trkpt lat="44.57645" lon="-0.03148">
        <ele>24.39999961853</ele>
        <time>2021-08-05T09:50:43Z</time>
      </trkpt>
      <trkpt lat="44.57632" lon="-0.03081">
        <ele>24.39999961853</ele>
        <time>2021-08-05T09:50:51Z</time>
      </trkpt>
      <trkpt lat="44.57597" lon="-0.03025">
        <ele>23.200000762939</ele>
        <time>2021-08-05T09:51:01Z</time>
      </trkpt>
      <trkpt lat="44.57525" lon="-0.0296">
        <ele>23.200000762939</ele>
        <time>2021-08-05T09:51:16Z</time>
      </trkpt>
      <trkpt lat="44.5751" lon="-0.0294">
        <ele>23.200000762939</ele>
        <time>2021-08-05T09:51:21Z</time>
      </trkpt>
      <trkpt lat="44.575" lon="-0.0292">
        <ele>23</ele>
        <time>2021-08-05T09:53:32Z</time>
      </trkpt>
      <trkpt lat="44.5745" lon="-0.02725">
        <ele>23.39999961853</ele>
        <time>2021-08-05T09:54:12Z</time>
      </trkpt>
      <trkpt lat="44.57434" lon="-0.02687">
        <ele>23.39999961853</ele>
        <time>2021-08-05T09:54:18Z</time>
      </trkpt>
      <trkpt lat="44.5735" lon="-0.02572">
        <ele>23</ele>
        <time>2021-08-05T09:54:40Z</time>
      </trkpt>
      <trkpt lat="44.57317" lon="-0.02538">
        <ele>22.799999237061</ele>
        <time>2021-08-05T09:54:48Z</time>
      </trkpt>
      <trkpt lat="44.57314" lon="-0.02534">
        <ele>22.799999237061</ele>
        <time>2021-08-05T09:54:49Z</time>
      </trkpt>
      <trkpt lat="44.57293" lon="-0.02505">
        <ele>22.799999237061</ele>
        <time>2021-08-05T09:54:56Z</time>
      </trkpt>
      <trkpt lat="44.57245" lon="-0.025">
        <ele>22.799999237061</ele>
        <time>2021-08-05T09:55:08Z</time>
      </trkpt>
      <trkpt lat="44.57196" lon="-0.02505">
        <ele>23.39999961853</ele>
        <time>2021-08-05T09:55:21Z</time>
      </trkpt>
      <trkpt lat="44.5717" lon="-0.02407">
        <ele>23.200000762939</ele>
        <time>2021-08-05T09:55:41Z</time>
      </trkpt>
      <trkpt lat="44.57161" lon="-0.02341">
        <ele>24.799999237061</ele>
        <time>2021-08-05T09:55:58Z</time>
      </trkpt>
      <trkpt lat="44.57021" lon="-0.02317">
        <ele>24.39999961853</ele>
        <time>2021-08-05T09:56:31Z</time>
      </trkpt>
      <trkpt lat="44.56883" lon="-0.02317">
        <ele>23.60000038147</ele>
        <time>2021-08-05T09:56:57Z</time>
      </trkpt>
      <trkpt lat="44.56804" lon="-0.02291">
        <ele>23.60000038147</ele>
        <time>2021-08-05T09:57:12Z</time>
      </trkpt>
      <trkpt lat="44.56604" lon="-0.02112">
        <ele>23.60000038147</ele>
        <time>2021-08-05T09:57:56Z</time>
      </trkpt>
      <trkpt lat="44.56498" lon="-0.02005">
        <ele>23.39999961853</ele>
        <time>2021-08-05T09:58:19Z</time>
      </trkpt>
      <trkpt lat="44.56371" lon="-0.01836">
        <ele>23.60000038147</ele>
        <time>2021-08-05T09:58:53Z</time>
      </trkpt>
      <trkpt lat="44.56338" lon="-0.01844">
        <ele>24.799999237061</ele>
        <time>2021-08-05T09:59:04Z</time>
      </trkpt>
      <trkpt lat="44.56319" lon="-0.01889">
        <ele>26.799999237061</ele>
        <time>2021-08-05T09:59:17Z</time>
      </trkpt>
      <trkpt lat="44.56317" lon="-0.01896">
        <ele>26.799999237061</ele>
        <time>2021-08-05T09:59:19Z</time>
      </trkpt>
      <trkpt lat="44.5634" lon="-0.02112">
        <ele>31</ele>
        <time>2021-08-05T10:00:05Z</time>
      </trkpt>
      <trkpt lat="44.5634" lon="-0.02156">
        <ele>31.200000762939</ele>
        <time>2021-08-05T10:00:13Z</time>
      </trkpt>
      <trkpt lat="44.56341" lon="-0.02232">
        <ele>29.200000762939</ele>
        <time>2021-08-05T10:03:01Z</time>
      </trkpt>
      <trkpt lat="44.56341" lon="-0.0224">
        <ele>29.200000762939</ele>
        <time>2021-08-05T10:03:03Z</time>
      </trkpt>
      <trkpt lat="44.5634" lon="-0.0228">
        <ele>29.200000762939</ele>
        <time>2021-08-05T10:03:10Z</time>
      </trkpt>
      <trkpt lat="44.56341" lon="-0.02325">
        <ele>29.200000762939</ele>
        <time>2021-08-05T10:03:17Z</time>
      </trkpt>
      <trkpt lat="44.56334" lon="-0.02409">
        <ele>29.39999961853</ele>
        <time>2021-08-05T10:03:29Z</time>
      </trkpt>
      <trkpt lat="44.56339" lon="-0.02437">
        <ele>29.39999961853</ele>
        <time>2021-08-05T10:03:33Z</time>
      </trkpt>
      <trkpt lat="44.56344" lon="-0.02459">
        <ele>29.39999961853</ele>
        <time>2021-08-05T10:03:37Z</time>
      </trkpt>
      <trkpt lat="44.56318" lon="-0.02477">
        <ele>29</ele>
        <time>2021-08-05T10:04:32Z</time>
      </trkpt>
      <trkpt lat="44.56308" lon="-0.02475">
        <ele>29.200000762939</ele>
        <time>2021-08-05T10:04:37Z</time>
      </trkpt>
      <trkpt lat="44.56304" lon="-0.02455">
        <ele>29</ele>
        <time>2021-08-05T10:04:41Z</time>
      </trkpt>
      <trkpt lat="44.56292" lon="-0.02383">
        <ele>28</ele>
        <time>2021-08-05T10:04:52Z</time>
      </trkpt>
      <trkpt lat="44.56236" lon="-0.02247">
        <ele>27.39999961853</ele>
        <time>2021-08-05T10:05:20Z</time>
      </trkpt>
      <trkpt lat="44.56171" lon="-0.02301">
        <ele>27.39999961853</ele>
        <time>2021-08-05T10:05:45Z</time>
      </trkpt>
      <trkpt lat="44.56142" lon="-0.02278">
        <ele>27.60000038147</ele>
        <time>2021-08-05T10:05:52Z</time>
      </trkpt>
      <trkpt lat="44.56103" lon="-0.02235">
        <ele>28.200000762939</ele>
        <time>2021-08-05T10:06:05Z</time>
      </trkpt>
      <trkpt lat="44.56091" lon="-0.02223">
        <ele>28.60000038147</ele>
        <time>2021-08-05T10:06:09Z</time>
      </trkpt>
      <trkpt lat="44.56099" lon="-0.02099">
        <ele>28.39999961853</ele>
        <time>2021-08-05T10:06:31Z</time>
      </trkpt>
      <trkpt lat="44.56117" lon="-0.02077">
        <ele>28.39999961853</ele>
        <time>2021-08-05T10:06:42Z</time>
      </trkpt>
      <trkpt lat="44.56107" lon="-0.01944">
        <ele>27.60000038147</ele>
        <time>2021-08-05T10:07:21Z</time>
      </trkpt>
      <trkpt lat="44.56084" lon="-0.01904">
        <ele>28</ele>
        <time>2021-08-05T10:07:28Z</time>
      </trkpt>
      <trkpt lat="44.56059" lon="-0.01872">
        <ele>28</ele>
        <time>2021-08-05T10:07:35Z</time>
      </trkpt>
      <trkpt lat="44.55733" lon="-0.01547">
        <ele>28</ele>
        <time>2021-08-05T10:08:49Z</time>
      </trkpt>
      <trkpt lat="44.55693" lon="-0.0148">
        <ele>29</ele>
        <time>2021-08-05T10:09:18Z</time>
      </trkpt>
      <trkpt lat="44.5567" lon="-0.01472">
        <ele>29</ele>
        <time>2021-08-05T10:09:22Z</time>
      </trkpt>
      <trkpt lat="44.55665" lon="-0.01469">
        <ele>28.799999237061</ele>
        <time>2021-08-05T10:09:23Z</time>
      </trkpt>
      <trkpt lat="44.55452" lon="-0.01327">
        <ele>27.799999237061</ele>
        <time>2021-08-05T10:10:06Z</time>
      </trkpt>
      <trkpt lat="44.5533" lon="-0.01235">
        <ele>28</ele>
        <time>2021-08-05T10:10:37Z</time>
      </trkpt>
      <trkpt lat="44.55319" lon="-0.01242">
        <ele>28</ele>
        <time>2021-08-05T10:10:40Z</time>
      </trkpt>
      <trkpt lat="44.55258" lon="-0.01203">
        <ele>28.799999237061</ele>
        <time>2021-08-05T10:10:55Z</time>
      </trkpt>
      <trkpt lat="44.54925" lon="-0.00961">
        <ele>29</ele>
        <time>2021-08-05T10:12:10Z</time>
      </trkpt>
      <trkpt lat="44.54866" lon="-0.00879">
        <ele>28.799999237061</ele>
        <time>2021-08-05T10:12:30Z</time>
      </trkpt>
      <trkpt lat="44.54856" lon="-0.00864">
        <ele>28.60000038147</ele>
        <time>2021-08-05T10:12:37Z</time>
      </trkpt>
      <trkpt lat="44.5483" lon="-0.00833">
        <ele>28.200000762939</ele>
        <time>2021-08-05T10:12:45Z</time>
      </trkpt>
      <trkpt lat="44.54803" lon="-0.00796">
        <ele>28.39999961853</ele>
        <time>2021-08-05T10:13:27Z</time>
      </trkpt>
      <trkpt lat="44.54782" lon="-0.00747">
        <ele>28.60000038147</ele>
        <time>2021-08-05T10:13:38Z</time>
      </trkpt>
      <trkpt lat="44.54745" lon="-0.00634">
        <ele>30</ele>
        <time>2021-08-05T10:13:59Z</time>
      </trkpt>
      <trkpt lat="44.54737" lon="-0.00587">
        <ele>29.799999237061</ele>
        <time>2021-08-05T10:14:06Z</time>
      </trkpt>
      <trkpt lat="44.54729" lon="-0.00533">
        <ele>30</ele>
        <time>2021-08-05T10:14:13Z</time>
      </trkpt>
      <trkpt lat="44.54726" lon="-0.00524">
        <ele>29.799999237061</ele>
        <time>2021-08-05T10:14:14Z</time>
      </trkpt>
      <trkpt lat="44.54712" lon="-0.00479">
        <ele>30</ele>
        <time>2021-08-05T10:14:20Z</time>
      </trkpt>
      <trkpt lat="44.54698" lon="-0.00419">
        <ele>30</ele>
        <time>2021-08-05T10:14:28Z</time>
      </trkpt>
      <trkpt lat="44.5468" lon="-0.0031">
        <ele>30</ele>
        <time>2021-08-05T10:14:44Z</time>
      </trkpt>
      <trkpt lat="44.54661" lon="-0.00129">
        <ele>30</ele>
        <time>2021-08-05T10:15:08Z</time>
      </trkpt>
      <trkpt lat="44.54653" lon="-0.00063">
        <ele>30</ele>
        <time>2021-08-05T10:15:16Z</time>
      </trkpt>
      <trkpt lat="44.54647" lon="0.00123">
        <ele>30</ele>
        <time>2021-08-05T10:15:39Z</time>
      </trkpt>
      <trkpt lat="44.54635" lon="0.00156">
        <ele>30.200000762939</ele>
        <time>2021-08-05T10:15:44Z</time>
      </trkpt>
      <trkpt lat="44.54602" lon="0.00218">
        <ele>30.60000038147</ele>
        <time>2021-08-05T10:15:55Z</time>
      </trkpt>
      <trkpt lat="44.54485" lon="0.00315">
        <ele>30.200000762939</ele>
        <time>2021-08-05T10:16:19Z</time>
      </trkpt>
      <trkpt lat="44.54403" lon="0.00344">
        <ele>30</ele>
        <time>2021-08-05T10:16:33Z</time>
      </trkpt>
      <trkpt lat="44.54375" lon="0.00359">
        <ele>30.200000762939</ele>
        <time>2021-08-05T10:16:39Z</time>
      </trkpt>
      <trkpt lat="44.54101" lon="0.00476">
        <ele>30</ele>
        <time>2021-08-05T10:17:34Z</time>
      </trkpt>
      <trkpt lat="44.54032" lon="0.00508">
        <ele>30.200000762939</ele>
        <time>2021-08-05T10:17:48Z</time>
      </trkpt>
      <trkpt lat="44.53897" lon="0.00559">
        <ele>30</ele>
        <time>2021-08-05T10:18:13Z</time>
      </trkpt>
      <trkpt lat="44.53862" lon="0.00568">
        <ele>30</ele>
        <time>2021-08-05T10:18:20Z</time>
      </trkpt>
      <trkpt lat="44.53692" lon="0.00675">
        <ele>30</ele>
        <time>2021-08-05T10:18:54Z</time>
      </trkpt>
      <trkpt lat="44.53672" lon="0.00692">
        <ele>30</ele>
        <time>2021-08-05T10:18:59Z</time>
      </trkpt>
      <trkpt lat="44.53657" lon="0.0071">
        <ele>29.799999237061</ele>
        <time>2021-08-05T10:19:03Z</time>
      </trkpt>
      <trkpt lat="44.53525" lon="0.00888">
        <ele>30</ele>
        <time>2021-08-05T10:19:35Z</time>
      </trkpt>
      <trkpt lat="44.53505" lon="0.00926">
        <ele>30</ele>
        <time>2021-08-05T10:19:41Z</time>
      </trkpt>
      <trkpt lat="44.53485" lon="0.00963">
        <ele>30</ele>
        <time>2021-08-05T10:19:47Z</time>
      </trkpt>
      <trkpt lat="44.53384" lon="0.01189">
        <ele>29.60000038147</ele>
        <time>2021-08-05T10:20:31Z</time>
      </trkpt>
      <trkpt lat="44.5337" lon="0.01237">
        <ele>29.39999961853</ele>
        <time>2021-08-05T10:20:39Z</time>
      </trkpt>
      <trkpt lat="44.53342" lon="0.01308">
        <ele>29.200000762939</ele>
        <time>2021-08-05T10:20:50Z</time>
      </trkpt>
      <trkpt lat="44.53313" lon="0.0137">
        <ele>29.200000762939</ele>
        <time>2021-08-05T10:21:00Z</time>
      </trkpt>
      <trkpt lat="44.533" lon="0.01404">
        <ele>29.200000762939</ele>
        <time>2021-08-05T10:21:06Z</time>
      </trkpt>
      <trkpt lat="44.53285" lon="0.01449">
        <ele>29.200000762939</ele>
        <time>2021-08-05T10:21:14Z</time>
      </trkpt>
      <trkpt lat="44.53242" lon="0.01561">
        <ele>29.60000038147</ele>
        <time>2021-08-05T10:21:33Z</time>
      </trkpt>
      <trkpt lat="44.53224" lon="0.01598">
        <ele>29.60000038147</ele>
        <time>2021-08-05T10:21:39Z</time>
      </trkpt>
      <trkpt lat="44.5322" lon="0.01604">
        <ele>29.60000038147</ele>
        <time>2021-08-05T10:21:40Z</time>
      </trkpt>
      <trkpt lat="44.53181" lon="0.0167">
        <ele>29.39999961853</ele>
        <time>2021-08-05T10:21:50Z</time>
      </trkpt>
      <trkpt lat="44.53141" lon="0.01729">
        <ele>29.39999961853</ele>
        <time>2021-08-05T10:21:58Z</time>
      </trkpt>
      <trkpt lat="44.53113" lon="0.01803">
        <ele>28.60000038147</ele>
        <time>2021-08-05T10:22:08Z</time>
      </trkpt>
      <trkpt lat="44.53084" lon="0.01987">
        <ele>28.60000038147</ele>
        <time>2021-08-05T10:22:35Z</time>
      </trkpt>
      <trkpt lat="44.53072" lon="0.02095">
        <ele>28.60000038147</ele>
        <time>2021-08-05T10:22:48Z</time>
      </trkpt>
      <trkpt lat="44.53067" lon="0.02155">
        <ele>28.39999961853</ele>
        <time>2021-08-05T10:22:55Z</time>
      </trkpt>
      <trkpt lat="44.53055" lon="0.0222">
        <ele>28.39999961853</ele>
        <time>2021-08-05T10:23:04Z</time>
      </trkpt>
      <trkpt lat="44.52978" lon="0.02433">
        <ele>29</ele>
        <time>2021-08-05T10:23:48Z</time>
      </trkpt>
      <trkpt lat="44.52969" lon="0.0243">
        <ele>31.39999961853</ele>
        <time>2021-08-05T10:24:01Z</time>
      </trkpt>
      <trkpt lat="44.52952" lon="0.02433">
        <ele>31.799999237061</ele>
        <time>2021-08-05T10:25:29Z</time>
      </trkpt>
      <trkpt lat="44.52949" lon="0.02444">
        <ele>31.60000038147</ele>
        <time>2021-08-05T10:25:31Z</time>
      </trkpt>
      <trkpt lat="44.52922" lon="0.02525">
        <ele>29.60000038147</ele>
        <time>2021-08-05T10:25:46Z</time>
      </trkpt>
      <trkpt lat="44.52901" lon="0.02555">
        <ele>29.60000038147</ele>
        <time>2021-08-05T10:25:51Z</time>
      </trkpt>
      <trkpt lat="44.52871" lon="0.02597">
        <ele>29.60000038147</ele>
        <time>2021-08-05T10:25:57Z</time>
      </trkpt>
      <trkpt lat="44.52856" lon="0.02626">
        <ele>29.60000038147</ele>
        <time>2021-08-05T10:26:02Z</time>
      </trkpt>
      <trkpt lat="44.52826" lon="0.02684">
        <ele>29.60000038147</ele>
        <time>2021-08-05T10:26:13Z</time>
      </trkpt>
      <trkpt lat="44.52805" lon="0.02715">
        <ele>29.60000038147</ele>
        <time>2021-08-05T10:26:19Z</time>
      </trkpt>
      <trkpt lat="44.52787" lon="0.02745">
        <ele>29.60000038147</ele>
        <time>2021-08-05T10:26:25Z</time>
      </trkpt>
      <trkpt lat="44.52719" lon="0.02905">
        <ele>29.39999961853</ele>
        <time>2021-08-05T10:26:53Z</time>
      </trkpt>
      <trkpt lat="44.52683" lon="0.02973">
        <ele>29.39999961853</ele>
        <time>2021-08-05T10:27:03Z</time>
      </trkpt>
      <trkpt lat="44.52615" lon="0.03059">
        <ele>29.200000762939</ele>
        <time>2021-08-05T10:27:17Z</time>
      </trkpt>
      <trkpt lat="44.52602" lon="0.03081">
        <ele>29.39999961853</ele>
        <time>2021-08-05T10:27:21Z</time>
      </trkpt>
      <trkpt lat="44.52545" lon="0.03171">
        <ele>29.39999961853</ele>
        <time>2021-08-05T10:27:38Z</time>
      </trkpt>
      <trkpt lat="44.52465" lon="0.03308">
        <ele>29.39999961853</ele>
        <time>2021-08-05T10:28:00Z</time>
      </trkpt>
      <trkpt lat="44.52426" lon="0.03387">
        <ele>29.60000038147</ele>
        <time>2021-08-05T10:28:14Z</time>
      </trkpt>
      <trkpt lat="44.52383" lon="0.03467">
        <ele>29.39999961853</ele>
        <time>2021-08-05T10:28:27Z</time>
      </trkpt>
      <trkpt lat="44.52323" lon="0.03545">
        <ele>29.200000762939</ele>
        <time>2021-08-05T10:28:40Z</time>
      </trkpt>
      <trkpt lat="44.52303" lon="0.03577">
        <ele>29.200000762939</ele>
        <time>2021-08-05T10:28:46Z</time>
      </trkpt>
      <trkpt lat="44.52229" lon="0.03711">
        <ele>29.39999961853</ele>
        <time>2021-08-05T10:29:09Z</time>
      </trkpt>
      <trkpt lat="44.52214" lon="0.03729">
        <ele>30.200000762939</ele>
        <time>2021-08-05T10:29:17Z</time>
      </trkpt>
      <trkpt lat="44.522" lon="0.03738">
        <ele>31</ele>
        <time>2021-08-05T10:29:25Z</time>
      </trkpt>
      <trkpt lat="44.52204" lon="0.03738">
        <ele>31</ele>
        <time>2021-08-05T10:29:28Z</time>
      </trkpt>
      <trkpt lat="44.52212" lon="0.0373">
        <ele>31.39999961853</ele>
        <time>2021-08-05T10:29:33Z</time>
      </trkpt>
      <trkpt lat="44.52233" lon="0.03739">
        <ele>32.400001525879</ele>
        <time>2021-08-05T10:30:19Z</time>
      </trkpt>
      <trkpt lat="44.52185" lon="0.03829">
        <ele>30.60000038147</ele>
        <time>2021-08-05T10:30:37Z</time>
      </trkpt>
      <trkpt lat="44.52175" lon="0.0384">
        <ele>30.60000038147</ele>
        <time>2021-08-05T10:30:39Z</time>
      </trkpt>
      <trkpt lat="44.52149" lon="0.03871">
        <ele>29.799999237061</ele>
        <time>2021-08-05T10:30:45Z</time>
      </trkpt>
      <trkpt lat="44.52056" lon="0.03922">
        <ele>28.39999961853</ele>
        <time>2021-08-05T10:31:06Z</time>
      </trkpt>
      <trkpt lat="44.51834" lon="0.04026">
        <ele>28.200000762939</ele>
        <time>2021-08-05T10:31:53Z</time>
      </trkpt>
      <trkpt lat="44.51825" lon="0.04033">
        <ele>28.39999961853</ele>
        <time>2021-08-05T10:31:55Z</time>
      </trkpt>
      <trkpt lat="44.517" lon="0.04121">
        <ele>28.39999961853</ele>
        <time>2021-08-05T10:32:26Z</time>
      </trkpt>
      <trkpt lat="44.51667" lon="0.04146">
        <ele>28.60000038147</ele>
        <time>2021-08-05T10:32:33Z</time>
      </trkpt>
      <trkpt lat="44.51584" lon="0.04222">
        <ele>28.60000038147</ele>
        <time>2021-08-05T10:32:54Z</time>
      </trkpt>
      <trkpt lat="44.51558" lon="0.0424">
        <ele>28.60000038147</ele>
        <time>2021-08-05T10:33:00Z</time>
      </trkpt>
      <trkpt lat="44.51399" lon="0.04269">
        <ele>28.39999961853</ele>
        <time>2021-08-05T10:33:35Z</time>
      </trkpt>
      <trkpt lat="44.51373" lon="0.04274">
        <ele>28.39999961853</ele>
        <time>2021-08-05T10:33:41Z</time>
      </trkpt>
      <trkpt lat="44.51326" lon="0.04294">
        <ele>28.799999237061</ele>
        <time>2021-08-05T10:33:50Z</time>
      </trkpt>
      <trkpt lat="44.51294" lon="0.04309">
        <ele>29</ele>
        <time>2021-08-05T10:34:00Z</time>
      </trkpt>
      <trkpt lat="44.51176" lon="0.04391">
        <ele>29</ele>
        <time>2021-08-05T10:34:15Z</time>
      </trkpt>
      <trkpt lat="44.50961" lon="0.04575">
        <ele>29.200000762939</ele>
        <time>2021-08-05T10:35:00Z</time>
      </trkpt>
      <trkpt lat="44.50901" lon="0.0462">
        <ele>29.799999237061</ele>
        <time>2021-08-05T10:35:13Z</time>
      </trkpt>
      <trkpt lat="44.50838" lon="0.04676">
        <ele>29.39999961853</ele>
        <time>2021-08-05T10:35:26Z</time>
      </trkpt>
      <trkpt lat="44.5082" lon="0.04703">
        <ele>29</ele>
        <time>2021-08-05T10:35:32Z</time>
      </trkpt>
      <trkpt lat="44.50808" lon="0.04722">
        <ele>28.799999237061</ele>
        <time>2021-08-05T10:35:42Z</time>
      </trkpt>
      <trkpt lat="44.50805" lon="0.04724">
        <ele>29.200000762939</ele>
        <time>2021-08-05T10:35:44Z</time>
      </trkpt>
      <trkpt lat="44.50634" lon="0.04874">
        <ele>31.39999961853</ele>
        <time>2021-08-05T10:36:35Z</time>
      </trkpt>
      <trkpt lat="44.5063" lon="0.04879">
        <ele>31.200000762939</ele>
        <time>2021-08-05T10:36:36Z</time>
      </trkpt>
      <trkpt lat="44.50312" lon="0.05276">
        <ele>31.200000762939</ele>
        <time>2021-08-05T10:37:59Z</time>
      </trkpt>
      <trkpt lat="44.50294" lon="0.053">
        <ele>31.60000038147</ele>
        <time>2021-08-05T10:38:04Z</time>
      </trkpt>
      <trkpt lat="44.50102" lon="0.0557">
        <ele>31.60000038147</ele>
        <time>2021-08-05T10:38:57Z</time>
      </trkpt>
      <trkpt lat="44.4999" lon="0.05707">
        <ele>31.60000038147</ele>
        <time>2021-08-05T10:39:25Z</time>
      </trkpt>
      <trkpt lat="44.49908" lon="0.05825">
        <ele>32</ele>
        <time>2021-08-05T10:39:48Z</time>
      </trkpt>
      <trkpt lat="44.4988" lon="0.05855">
        <ele>32</ele>
        <time>2021-08-05T10:39:52Z</time>
      </trkpt>
      <trkpt lat="44.49787" lon="0.05963">
        <ele>32.400001525879</ele>
        <time>2021-08-05T10:40:12Z</time>
      </trkpt>
      <trkpt lat="44.49747" lon="0.06032">
        <ele>31.799999237061</ele>
        <time>2021-08-05T10:40:25Z</time>
      </trkpt>
      <trkpt lat="44.4971" lon="0.06095">
        <ele>31.200000762939</ele>
        <time>2021-08-05T10:40:36Z</time>
      </trkpt>
      <trkpt lat="44.49701" lon="0.06109">
        <ele>31.200000762939</ele>
        <time>2021-08-05T10:40:39Z</time>
      </trkpt>
      <trkpt lat="44.49627" lon="0.06246">
        <ele>31.39999961853</ele>
        <time>2021-08-05T10:41:02Z</time>
      </trkpt>
      <trkpt lat="44.49608" lon="0.0629">
        <ele>31.39999961853</ele>
        <time>2021-08-05T10:41:09Z</time>
      </trkpt>
      <trkpt lat="44.49528" lon="0.06456">
        <ele>31.39999961853</ele>
        <time>2021-08-05T10:41:34Z</time>
      </trkpt>
      <trkpt lat="44.49514" lon="0.06492">
        <ele>31.39999961853</ele>
        <time>2021-08-05T10:41:40Z</time>
      </trkpt>
      <trkpt lat="44.49503" lon="0.06526">
        <ele>31.39999961853</ele>
        <time>2021-08-05T10:41:46Z</time>
      </trkpt>
      <trkpt lat="44.49488" lon="0.06575">
        <ele>31.60000038147</ele>
        <time>2021-08-05T10:41:54Z</time>
      </trkpt>
      <trkpt lat="44.49436" lon="0.06716">
        <ele>31.799999237061</ele>
        <time>2021-08-05T10:42:15Z</time>
      </trkpt>
      <trkpt lat="44.49417" lon="0.06756">
        <ele>31.60000038147</ele>
        <time>2021-08-05T10:42:21Z</time>
      </trkpt>
      <trkpt lat="44.49399" lon="0.06806">
        <ele>31.60000038147</ele>
        <time>2021-08-05T10:42:29Z</time>
      </trkpt>
      <trkpt lat="44.49389" lon="0.06836">
        <ele>31.39999961853</ele>
        <time>2021-08-05T10:42:34Z</time>
      </trkpt>
      <trkpt lat="44.49388" lon="0.06842">
        <ele>31.39999961853</ele>
        <time>2021-08-05T10:42:35Z</time>
      </trkpt>
      <trkpt lat="44.49377" lon="0.06925">
        <ele>31.200000762939</ele>
        <time>2021-08-05T10:42:47Z</time>
      </trkpt>
      <trkpt lat="44.49375" lon="0.06931">
        <ele>31.200000762939</ele>
        <time>2021-08-05T10:42:48Z</time>
      </trkpt>
      <trkpt lat="44.49363" lon="0.06985">
        <ele>31.39999961853</ele>
        <time>2021-08-05T10:42:56Z</time>
      </trkpt>
      <trkpt lat="44.49349" lon="0.0701">
        <ele>31.799999237061</ele>
        <time>2021-08-05T10:43:01Z</time>
      </trkpt>
      <trkpt lat="44.49332" lon="0.0703">
        <ele>32.200000762939</ele>
        <time>2021-08-05T10:43:10Z</time>
      </trkpt>
      <trkpt lat="44.4932" lon="0.0703">
        <ele>33</ele>
        <time>2021-08-05T10:43:18Z</time>
      </trkpt>
      <trkpt lat="44.49279" lon="0.07173">
        <ele>33.200000762939</ele>
        <time>2021-08-05T10:43:56Z</time>
      </trkpt>
      <trkpt lat="44.49179" lon="0.07501">
        <ele>33.400001525879</ele>
        <time>2021-08-05T10:44:48Z</time>
      </trkpt>
      <trkpt lat="44.49176" lon="0.07507">
        <ele>33.599998474121</ele>
        <time>2021-08-05T10:44:49Z</time>
      </trkpt>
      <trkpt lat="44.49116" lon="0.07634">
        <ele>32.200000762939</ele>
        <time>2021-08-05T10:48:46Z</time>
      </trkpt>
      <trkpt lat="44.49091" lon="0.07738">
        <ele>33</ele>
        <time>2021-08-05T10:49:09Z</time>
      </trkpt>
      <trkpt lat="44.49016" lon="0.07981">
        <ele>33.599998474121</ele>
        <time>2021-08-05T10:49:48Z</time>
      </trkpt>
      <trkpt lat="44.48969" lon="0.08109">
        <ele>34</ele>
        <time>2021-08-05T10:50:08Z</time>
      </trkpt>
      <trkpt lat="44.48929" lon="0.08194">
        <ele>33.599998474121</ele>
        <time>2021-08-05T10:50:22Z</time>
      </trkpt>
      <trkpt lat="44.48893" lon="0.08257">
        <ele>33.400001525879</ele>
        <time>2021-08-05T10:50:33Z</time>
      </trkpt>
      <trkpt lat="44.48874" lon="0.08301">
        <ele>33.400001525879</ele>
        <time>2021-08-05T10:50:40Z</time>
      </trkpt>
      <trkpt lat="44.48737" lon="0.08516">
        <ele>33.599998474121</ele>
        <time>2021-08-05T10:51:14Z</time>
      </trkpt>
      <trkpt lat="44.48696" lon="0.08586">
        <ele>33.400001525879</ele>
        <time>2021-08-05T10:51:26Z</time>
      </trkpt>
      <trkpt lat="44.48496" lon="0.0889">
        <ele>32.799999237061</ele>
        <time>2021-08-05T10:52:22Z</time>
      </trkpt>
      <trkpt lat="44.48456" lon="0.08975">
        <ele>33.400001525879</ele>
        <time>2021-08-05T10:52:40Z</time>
      </trkpt>
      <trkpt lat="44.48446" lon="0.08987">
        <ele>33.200000762939</ele>
        <time>2021-08-05T10:52:43Z</time>
      </trkpt>
      <trkpt lat="44.48432" lon="0.09006">
        <ele>33.200000762939</ele>
        <time>2021-08-05T10:52:47Z</time>
      </trkpt>
      <trkpt lat="44.48342" lon="0.09122">
        <ele>32.599998474121</ele>
        <time>2021-08-05T10:53:11Z</time>
      </trkpt>
      <trkpt lat="44.48285" lon="0.09232">
        <ele>32.599998474121</ele>
        <time>2021-08-05T10:53:28Z</time>
      </trkpt>
      <trkpt lat="44.48141" lon="0.09495">
        <ele>32.799999237061</ele>
        <time>2021-08-05T10:54:13Z</time>
      </trkpt>
      <trkpt lat="44.48069" lon="0.09585">
        <ele>33.400001525879</ele>
        <time>2021-08-05T10:54:34Z</time>
      </trkpt>
      <trkpt lat="44.48044" lon="0.09626">
        <ele>33.400001525879</ele>
        <time>2021-08-05T10:54:43Z</time>
      </trkpt>
      <trkpt lat="44.4803" lon="0.09646">
        <ele>33.400001525879</ele>
        <time>2021-08-05T10:54:47Z</time>
      </trkpt>
      <trkpt lat="44.47976" lon="0.09729">
        <ele>33.400001525879</ele>
        <time>2021-08-05T10:55:03Z</time>
      </trkpt>
      <trkpt lat="44.47949" lon="0.09769">
        <ele>33.599998474121</ele>
        <time>2021-08-05T10:55:10Z</time>
      </trkpt>
      <trkpt lat="44.47928" lon="0.09802">
        <ele>33.599998474121</ele>
        <time>2021-08-05T10:55:16Z</time>
      </trkpt>
      <trkpt lat="44.47904" lon="0.09839">
        <ele>33.599998474121</ele>
        <time>2021-08-05T10:55:23Z</time>
      </trkpt>
      <trkpt lat="44.47868" lon="0.09891">
        <ele>34</ele>
        <time>2021-08-05T10:55:34Z</time>
      </trkpt>
      <trkpt lat="44.47763" lon="0.1007">
        <ele>34.400001525879</ele>
        <time>2021-08-05T10:56:02Z</time>
      </trkpt>
      <trkpt lat="44.47645" lon="0.10309">
        <ele>32</ele>
        <time>2021-08-05T10:56:40Z</time>
      </trkpt>
      <trkpt lat="44.476" lon="0.10371">
        <ele>32.599998474121</ele>
        <time>2021-08-05T10:56:52Z</time>
      </trkpt>
      <trkpt lat="44.4752" lon="0.10481">
        <ele>33</ele>
        <time>2021-08-05T10:57:20Z</time>
      </trkpt>
      <trkpt lat="44.47436" lon="0.10606">
        <ele>33.400001525879</ele>
        <time>2021-08-05T10:57:46Z</time>
      </trkpt>
      <trkpt lat="44.4741" lon="0.1066">
        <ele>33.599998474121</ele>
        <time>2021-08-05T10:57:56Z</time>
      </trkpt>
      <trkpt lat="44.47392" lon="0.10692">
        <ele>34</ele>
        <time>2021-08-05T10:58:02Z</time>
      </trkpt>
      <trkpt lat="44.47298" lon="0.10855">
        <ele>33.400001525879</ele>
        <time>2021-08-05T10:58:30Z</time>
      </trkpt>
      <trkpt lat="44.4725" lon="0.10956">
        <ele>33.799999237061</ele>
        <time>2021-08-05T10:58:45Z</time>
      </trkpt>
      <trkpt lat="44.47203" lon="0.11036">
        <ele>33.799999237061</ele>
        <time>2021-08-05T10:58:58Z</time>
      </trkpt>
      <trkpt lat="44.47165" lon="0.11129">
        <ele>33.599998474121</ele>
        <time>2021-08-05T10:59:14Z</time>
      </trkpt>
      <trkpt lat="44.47147" lon="0.1119">
        <ele>33.599998474121</ele>
        <time>2021-08-05T10:59:24Z</time>
      </trkpt>
      <trkpt lat="44.47056" lon="0.11367">
        <ele>33.599998474121</ele>
        <time>2021-08-05T10:59:49Z</time>
      </trkpt>
      <trkpt lat="44.46969" lon="0.11582">
        <ele>34.200000762939</ele>
        <time>2021-08-05T11:00:19Z</time>
      </trkpt>
      <trkpt lat="44.46958" lon="0.11623">
        <ele>34.200000762939</ele>
        <time>2021-08-05T11:00:25Z</time>
      </trkpt>
      <trkpt lat="44.4695" lon="0.11644">
        <ele>34.400001525879</ele>
        <time>2021-08-05T11:00:28Z</time>
      </trkpt>
      <trkpt lat="44.46836" lon="0.11961">
        <ele>33.599998474121</ele>
        <time>2021-08-05T11:01:14Z</time>
      </trkpt>
      <trkpt lat="44.46823" lon="0.1199">
        <ele>33.400001525879</ele>
        <time>2021-08-05T11:01:19Z</time>
      </trkpt>
      <trkpt lat="44.46789" lon="0.12105">
        <ele>33.599998474121</ele>
        <time>2021-08-05T11:01:35Z</time>
      </trkpt>
      <trkpt lat="44.4672" lon="0.12323">
        <ele>34.200000762939</ele>
        <time>2021-08-05T11:02:16Z</time>
      </trkpt>
      <trkpt lat="44.46712" lon="0.12323">
        <ele>35</ele>
        <time>2021-08-05T11:02:20Z</time>
      </trkpt>
      <trkpt lat="44.46689" lon="0.12317">
        <ele>36.400001525879</ele>
        <time>2021-08-05T11:02:31Z</time>
      </trkpt>
      <trkpt lat="44.46667" lon="0.12353">
        <ele>38.400001525879</ele>
        <time>2021-08-05T11:38:31Z</time>
      </trkpt>
      <trkpt lat="44.46665" lon="0.12356">
        <ele>38.200000762939</ele>
        <time>2021-08-05T11:38:33Z</time>
      </trkpt>
      <trkpt lat="44.46627" lon="0.12507">
        <ele>39.200000762939</ele>
        <time>2021-08-05T11:39:09Z</time>
      </trkpt>
      <trkpt lat="44.46503" lon="0.12799">
        <ele>39.200000762939</ele>
        <time>2021-08-05T11:40:13Z</time>
      </trkpt>
      <trkpt lat="44.46483" lon="0.12861">
        <ele>39.200000762939</ele>
        <time>2021-08-05T11:40:24Z</time>
      </trkpt>
      <trkpt lat="44.4646" lon="0.12933">
        <ele>39.400001525879</ele>
        <time>2021-08-05T11:40:37Z</time>
      </trkpt>
      <trkpt lat="44.46451" lon="0.12969">
        <ele>39.200000762939</ele>
        <time>2021-08-05T11:40:43Z</time>
      </trkpt>
      <trkpt lat="44.46424" lon="0.13051">
        <ele>39.200000762939</ele>
        <time>2021-08-05T11:40:57Z</time>
      </trkpt>
      <trkpt lat="44.4638" lon="0.13213">
        <ele>39</ele>
        <time>2021-08-05T11:41:20Z</time>
      </trkpt>
      <trkpt lat="44.46366" lon="0.13255">
        <ele>39.400001525879</ele>
        <time>2021-08-05T11:41:26Z</time>
      </trkpt>
      <trkpt lat="44.46331" lon="0.13348">
        <ele>39.599998474121</ele>
        <time>2021-08-05T11:41:41Z</time>
      </trkpt>
      <trkpt lat="44.46323" lon="0.1338">
        <ele>39.599998474121</ele>
        <time>2021-08-05T11:41:45Z</time>
      </trkpt>
      <trkpt lat="44.46298" lon="0.13462">
        <ele>39.599998474121</ele>
        <time>2021-08-05T11:41:57Z</time>
      </trkpt>
      <trkpt lat="44.46246" lon="0.13601">
        <ele>39.599998474121</ele>
        <time>2021-08-05T11:42:21Z</time>
      </trkpt>
      <trkpt lat="44.46223" lon="0.13662">
        <ele>39.799999237061</ele>
        <time>2021-08-05T11:42:33Z</time>
      </trkpt>
      <trkpt lat="44.46208" lon="0.13727">
        <ele>39.799999237061</ele>
        <time>2021-08-05T11:42:42Z</time>
      </trkpt>
      <trkpt lat="44.46141" lon="0.13899">
        <ele>39.599998474121</ele>
        <time>2021-08-05T11:43:11Z</time>
      </trkpt>
      <trkpt lat="44.46075" lon="0.14067">
        <ele>40</ele>
        <time>2021-08-05T11:44:00Z</time>
      </trkpt>
      <trkpt lat="44.46063" lon="0.14094">
        <ele>40</ele>
        <time>2021-08-05T11:44:08Z</time>
      </trkpt>
      <trkpt lat="44.46006" lon="0.14212">
        <ele>40.200000762939</ele>
        <time>2021-08-05T11:44:35Z</time>
      </trkpt>
      <trkpt lat="44.45941" lon="0.14348">
        <ele>40.400001525879</ele>
        <time>2021-08-05T11:44:59Z</time>
      </trkpt>
      <trkpt lat="44.45881" lon="0.14479">
        <ele>40.400001525879</ele>
        <time>2021-08-05T11:45:22Z</time>
      </trkpt>
      <trkpt lat="44.45838" lon="0.14548">
        <ele>40.400001525879</ele>
        <time>2021-08-05T11:45:36Z</time>
      </trkpt>
      <trkpt lat="44.45746" lon="0.14722">
        <ele>40.599998474121</ele>
        <time>2021-08-05T11:46:07Z</time>
      </trkpt>
      <trkpt lat="44.45712" lon="0.14701">
        <ele>40.599998474121</ele>
        <time>2021-08-05T11:46:25Z</time>
      </trkpt>
      <trkpt lat="44.45713" lon="0.14714">
        <ele>41.200000762939</ele>
        <time>2021-08-05T11:46:32Z</time>
      </trkpt>
      <trkpt lat="44.4572" lon="0.14729">
        <ele>41.799999237061</ele>
        <time>2021-08-05T11:46:39Z</time>
      </trkpt>
      <trkpt lat="44.45737" lon="0.14755">
        <ele>43.400001525879</ele>
        <time>2021-08-05T11:46:52Z</time>
      </trkpt>
      <trkpt lat="44.45739" lon="0.14767">
        <ele>43.599998474121</ele>
        <time>2021-08-05T11:46:56Z</time>
      </trkpt>
      <trkpt lat="44.45725" lon="0.14781">
        <ele>43.799999237061</ele>
        <time>2021-08-05T11:47:00Z</time>
      </trkpt>
      <trkpt lat="44.45703" lon="0.14799">
        <ele>43.599998474121</ele>
        <time>2021-08-05T11:47:04Z</time>
      </trkpt>
      <trkpt lat="44.4567" lon="0.14828">
        <ele>42.799999237061</ele>
        <time>2021-08-05T11:47:10Z</time>
      </trkpt>
      <trkpt lat="44.45285" lon="0.15132">
        <ele>41.799999237061</ele>
        <time>2021-08-05T11:48:34Z</time>
      </trkpt>
      <trkpt lat="44.45184" lon="0.15219">
        <ele>41.400001525879</ele>
        <time>2021-08-05T11:48:56Z</time>
      </trkpt>
      <trkpt lat="44.45149" lon="0.15264">
        <ele>41.599998474121</ele>
        <time>2021-08-05T11:49:05Z</time>
      </trkpt>
      <trkpt lat="44.45089" lon="0.15353">
        <ele>41.400001525879</ele>
        <time>2021-08-05T11:49:21Z</time>
      </trkpt>
      <trkpt lat="44.45079" lon="0.15373">
        <ele>41.400001525879</ele>
        <time>2021-08-05T11:49:24Z</time>
      </trkpt>
      <trkpt lat="44.45024" lon="0.15501">
        <ele>41.599998474121</ele>
        <time>2021-08-05T11:49:44Z</time>
      </trkpt>
      <trkpt lat="44.44994" lon="0.15648">
        <ele>41</ele>
        <time>2021-08-05T11:50:05Z</time>
      </trkpt>
      <trkpt lat="44.4499" lon="0.15683">
        <ele>41</ele>
        <time>2021-08-05T11:50:10Z</time>
      </trkpt>
      <trkpt lat="44.44989" lon="0.1569">
        <ele>41</ele>
        <time>2021-08-05T11:50:11Z</time>
      </trkpt>
      <trkpt lat="44.44973" lon="0.15854">
        <ele>41.599998474121</ele>
        <time>2021-08-05T11:50:31Z</time>
      </trkpt>
      <trkpt lat="44.44897" lon="0.16173">
        <ele>41.599998474121</ele>
        <time>2021-08-05T11:51:16Z</time>
      </trkpt>
      <trkpt lat="44.44889" lon="0.16194">
        <ele>41.400001525879</ele>
        <time>2021-08-05T11:51:19Z</time>
      </trkpt>
      <trkpt lat="44.44844" lon="0.16317">
        <ele>41.400001525879</ele>
        <time>2021-08-05T11:51:37Z</time>
      </trkpt>
      <trkpt lat="44.44823" lon="0.16356">
        <ele>41.599998474121</ele>
        <time>2021-08-05T11:51:44Z</time>
      </trkpt>
      <trkpt lat="44.44794" lon="0.16411">
        <ele>42</ele>
        <time>2021-08-05T11:51:53Z</time>
      </trkpt>
      <trkpt lat="44.44772" lon="0.16454">
        <ele>41.799999237061</ele>
        <time>2021-08-05T11:52:00Z</time>
      </trkpt>
      <trkpt lat="44.44757" lon="0.16485">
        <ele>41.599998474121</ele>
        <time>2021-08-05T11:52:05Z</time>
      </trkpt>
      <trkpt lat="44.44747" lon="0.16512">
        <ele>41.400001525879</ele>
        <time>2021-08-05T11:52:09Z</time>
      </trkpt>
      <trkpt lat="44.44727" lon="0.16576">
        <ele>41.400001525879</ele>
        <time>2021-08-05T11:52:18Z</time>
      </trkpt>
      <trkpt lat="44.44673" lon="0.16681">
        <ele>41.599998474121</ele>
        <time>2021-08-05T11:52:35Z</time>
      </trkpt>
      <trkpt lat="44.44656" lon="0.16713">
        <ele>42</ele>
        <time>2021-08-05T11:52:40Z</time>
      </trkpt>
      <trkpt lat="44.44587" lon="0.16835">
        <ele>42.200000762939</ele>
        <time>2021-08-05T11:53:01Z</time>
      </trkpt>
      <trkpt lat="44.44568" lon="0.16874">
        <ele>42.200000762939</ele>
        <time>2021-08-05T11:53:07Z</time>
      </trkpt>
      <trkpt lat="44.44545" lon="0.16942">
        <ele>42.200000762939</ele>
        <time>2021-08-05T11:53:16Z</time>
      </trkpt>
      <trkpt lat="44.44528" lon="0.16991">
        <ele>42</ele>
        <time>2021-08-05T11:53:23Z</time>
      </trkpt>
      <trkpt lat="44.44491" lon="0.17064">
        <ele>42</ele>
        <time>2021-08-05T11:53:35Z</time>
      </trkpt>
      <trkpt lat="44.44449" lon="0.17152">
        <ele>41.599998474121</ele>
        <time>2021-08-05T11:53:49Z</time>
      </trkpt>
      <trkpt lat="44.44416" lon="0.17213">
        <ele>41.599998474121</ele>
        <time>2021-08-05T11:53:59Z</time>
      </trkpt>
      <trkpt lat="44.44388" lon="0.17289">
        <ele>41.799999237061</ele>
        <time>2021-08-05T11:54:10Z</time>
      </trkpt>
      <trkpt lat="44.44371" lon="0.17329">
        <ele>41.599998474121</ele>
        <time>2021-08-05T11:54:16Z</time>
      </trkpt>
      <trkpt lat="44.44345" lon="0.17373">
        <ele>42</ele>
        <time>2021-08-05T11:54:24Z</time>
      </trkpt>
      <trkpt lat="44.44289" lon="0.17475">
        <ele>42</ele>
        <time>2021-08-05T11:54:41Z</time>
      </trkpt>
      <trkpt lat="44.44285" lon="0.17483">
        <ele>41.799999237061</ele>
        <time>2021-08-05T11:54:42Z</time>
      </trkpt>
      <trkpt lat="44.4425" lon="0.17565">
        <ele>41.799999237061</ele>
        <time>2021-08-05T11:54:55Z</time>
      </trkpt>
      <trkpt lat="44.44226" lon="0.17658">
        <ele>42</ele>
        <time>2021-08-05T11:55:09Z</time>
      </trkpt>
      <trkpt lat="44.44213" lon="0.17788">
        <ele>42</ele>
        <time>2021-08-05T11:55:26Z</time>
      </trkpt>
      <trkpt lat="44.44243" lon="0.1798">
        <ele>41.599998474121</ele>
        <time>2021-08-05T11:55:57Z</time>
      </trkpt>
      <trkpt lat="44.44234" lon="0.18001">
        <ele>42.799999237061</ele>
        <time>2021-08-05T11:56:17Z</time>
      </trkpt>
      <trkpt lat="44.44218" lon="0.18046">
        <ele>43</ele>
        <time>2021-08-05T11:56:29Z</time>
      </trkpt>
      <trkpt lat="44.44173" lon="0.18222">
        <ele>41.599998474121</ele>
        <time>2021-08-05T11:56:51Z</time>
      </trkpt>
      <trkpt lat="44.44171" lon="0.18229">
        <ele>41.599998474121</ele>
        <time>2021-08-05T11:56:52Z</time>
      </trkpt>
      <trkpt lat="44.44048" lon="0.18567">
        <ele>42</ele>
        <time>2021-08-05T11:57:40Z</time>
      </trkpt>
      <trkpt lat="44.44014" lon="0.18636">
        <ele>42</ele>
        <time>2021-08-05T11:57:50Z</time>
      </trkpt>
      <trkpt lat="44.43916" lon="0.18782">
        <ele>42.200000762939</ele>
        <time>2021-08-05T11:58:14Z</time>
      </trkpt>
      <trkpt lat="44.43725" lon="0.18879">
        <ele>42.400001525879</ele>
        <time>2021-08-05T11:58:47Z</time>
      </trkpt>
      <trkpt lat="44.43496" lon="0.18983">
        <ele>42</ele>
        <time>2021-08-05T11:59:30Z</time>
      </trkpt>
      <trkpt lat="44.43442" lon="0.19021">
        <ele>42.200000762939</ele>
        <time>2021-08-05T11:59:42Z</time>
      </trkpt>
      <trkpt lat="44.43177" lon="0.1924">
        <ele>42.400001525879</ele>
        <time>2021-08-05T12:00:35Z</time>
      </trkpt>
      <trkpt lat="44.43135" lon="0.19289">
        <ele>42.400001525879</ele>
        <time>2021-08-05T12:00:48Z</time>
      </trkpt>
      <trkpt lat="44.43132" lon="0.19292">
        <ele>42.599998474121</ele>
        <time>2021-08-05T12:00:50Z</time>
      </trkpt>
      <trkpt lat="44.431" lon="0.19313">
        <ele>43.400001525879</ele>
        <time>2021-08-05T12:01:01Z</time>
      </trkpt>
      <trkpt lat="44.43092" lon="0.19327">
        <ele>43.400001525879</ele>
        <time>2021-08-05T12:01:03Z</time>
      </trkpt>
      <trkpt lat="44.43052" lon="0.19359">
        <ele>42.799999237061</ele>
        <time>2021-08-05T12:01:10Z</time>
      </trkpt>
      <trkpt lat="44.42949" lon="0.19457">
        <ele>39.799999237061</ele>
        <time>2021-08-05T12:01:29Z</time>
      </trkpt>
      <trkpt lat="44.42944" lon="0.19461">
        <ele>40</ele>
        <time>2021-08-05T12:01:30Z</time>
      </trkpt>
      <trkpt lat="44.42845" lon="0.19568">
        <ele>39.400001525879</ele>
        <time>2021-08-05T12:01:52Z</time>
      </trkpt>
      <trkpt lat="44.42771" lon="0.19641">
        <ele>39.599998474121</ele>
        <time>2021-08-05T12:02:11Z</time>
      </trkpt>
      <trkpt lat="44.42739" lon="0.19669">
        <ele>39.799999237061</ele>
        <time>2021-08-05T12:02:19Z</time>
      </trkpt>
      <trkpt lat="44.42705" lon="0.19692">
        <ele>39.799999237061</ele>
        <time>2021-08-05T12:02:25Z</time>
      </trkpt>
      <trkpt lat="44.42606" lon="0.19751">
        <ele>40.599998474121</ele>
        <time>2021-08-05T12:05:38Z</time>
      </trkpt>
      <trkpt lat="44.42592" lon="0.19766">
        <ele>41.200000762939</ele>
        <time>2021-08-05T12:05:45Z</time>
      </trkpt>
      <trkpt lat="44.42577" lon="0.19785">
        <ele>41</ele>
        <time>2021-08-05T12:05:56Z</time>
      </trkpt>
      <trkpt lat="44.42536" lon="0.19828">
        <ele>41</ele>
        <time>2021-08-05T12:06:11Z</time>
      </trkpt>
      <trkpt lat="44.42445" lon="0.1993">
        <ele>41.400001525879</ele>
        <time>2021-08-05T12:06:38Z</time>
      </trkpt>
      <trkpt lat="44.42363" lon="0.20039">
        <ele>41.799999237061</ele>
        <time>2021-08-05T12:07:02Z</time>
      </trkpt>
      <trkpt lat="44.42335" lon="0.2008">
        <ele>41.599998474121</ele>
        <time>2021-08-05T12:07:10Z</time>
      </trkpt>
      <trkpt lat="44.42271" lon="0.20196">
        <ele>41.599998474121</ele>
        <time>2021-08-05T12:07:32Z</time>
      </trkpt>
      <trkpt lat="44.4219" lon="0.20367">
        <ele>41.599998474121</ele>
        <time>2021-08-05T12:08:01Z</time>
      </trkpt>
      <trkpt lat="44.42176" lon="0.20403">
        <ele>41.599998474121</ele>
        <time>2021-08-05T12:08:07Z</time>
      </trkpt>
      <trkpt lat="44.42138" lon="0.20487">
        <ele>41.799999237061</ele>
        <time>2021-08-05T12:08:21Z</time>
      </trkpt>
      <trkpt lat="44.42058" lon="0.20617">
        <ele>41.599998474121</ele>
        <time>2021-08-05T12:08:44Z</time>
      </trkpt>
      <trkpt lat="44.42005" lon="0.20736">
        <ele>41.599998474121</ele>
        <time>2021-08-05T12:09:05Z</time>
      </trkpt>
      <trkpt lat="44.41963" lon="0.20829">
        <ele>41.599998474121</ele>
        <time>2021-08-05T12:09:19Z</time>
      </trkpt>
      <trkpt lat="44.41961" lon="0.20835">
        <ele>41.799999237061</ele>
        <time>2021-08-05T12:09:20Z</time>
      </trkpt>
      <trkpt lat="44.41941" lon="0.20874">
        <ele>41.799999237061</ele>
        <time>2021-08-05T12:09:26Z</time>
      </trkpt>
      <trkpt lat="44.41877" lon="0.21004">
        <ele>41.599998474121</ele>
        <time>2021-08-05T12:09:47Z</time>
      </trkpt>
      <trkpt lat="44.41866" lon="0.21037">
        <ele>41.599998474121</ele>
        <time>2021-08-05T12:09:52Z</time>
      </trkpt>
      <trkpt lat="44.41844" lon="0.2109">
        <ele>42</ele>
        <time>2021-08-05T12:10:00Z</time>
      </trkpt>
      <trkpt lat="44.41743" lon="0.21256">
        <ele>42.200000762939</ele>
        <time>2021-08-05T12:10:29Z</time>
      </trkpt>
      <trkpt lat="44.41721" lon="0.21281">
        <ele>42</ele>
        <time>2021-08-05T12:10:35Z</time>
      </trkpt>
      <trkpt lat="44.41694" lon="0.21308">
        <ele>41.799999237061</ele>
        <time>2021-08-05T12:10:42Z</time>
      </trkpt>
      <trkpt lat="44.4166" lon="0.21346">
        <ele>41.799999237061</ele>
        <time>2021-08-05T12:10:51Z</time>
      </trkpt>
      <trkpt lat="44.41635" lon="0.21383">
        <ele>41.799999237061</ele>
        <time>2021-08-05T12:10:59Z</time>
      </trkpt>
      <trkpt lat="44.41618" lon="0.2141">
        <ele>41.799999237061</ele>
        <time>2021-08-05T12:11:05Z</time>
      </trkpt>
      <trkpt lat="44.416" lon="0.21433">
        <ele>41.599998474121</ele>
        <time>2021-08-05T12:11:11Z</time>
      </trkpt>
      <trkpt lat="44.41552" lon="0.21488">
        <ele>41.799999237061</ele>
        <time>2021-08-05T12:11:24Z</time>
      </trkpt>
      <trkpt lat="44.4151" lon="0.21554">
        <ele>41.799999237061</ele>
        <time>2021-08-05T12:11:38Z</time>
      </trkpt>
      <trkpt lat="44.41415" lon="0.21671">
        <ele>42.200000762939</ele>
        <time>2021-08-05T12:12:01Z</time>
      </trkpt>
      <trkpt lat="44.41385" lon="0.21726">
        <ele>41.599998474121</ele>
        <time>2021-08-05T12:12:17Z</time>
      </trkpt>
      <trkpt lat="44.41361" lon="0.21749">
        <ele>42.400001525879</ele>
        <time>2021-08-05T12:12:31Z</time>
      </trkpt>
      <trkpt lat="44.41352" lon="0.21801">
        <ele>43.400001525879</ele>
        <time>2021-08-05T12:12:42Z</time>
      </trkpt>
      <trkpt lat="44.41319" lon="0.21833">
        <ele>42.599998474121</ele>
        <time>2021-08-05T12:12:52Z</time>
      </trkpt>
      <trkpt lat="44.4129" lon="0.21868">
        <ele>42.599998474121</ele>
        <time>2021-08-05T12:13:01Z</time>
      </trkpt>
      <trkpt lat="44.41182" lon="0.2201">
        <ele>42.400001525879</ele>
        <time>2021-08-05T12:13:35Z</time>
      </trkpt>
      <trkpt lat="44.41143" lon="0.22056">
        <ele>42.599998474121</ele>
        <time>2021-08-05T12:13:45Z</time>
      </trkpt>
      <trkpt lat="44.41118" lon="0.22085">
        <ele>42.599998474121</ele>
        <time>2021-08-05T12:13:52Z</time>
      </trkpt>
      <trkpt lat="44.41076" lon="0.22151">
        <ele>42.599998474121</ele>
        <time>2021-08-05T12:14:06Z</time>
      </trkpt>
      <trkpt lat="44.41003" lon="0.22276">
        <ele>42.799999237061</ele>
        <time>2021-08-05T12:14:31Z</time>
      </trkpt>
      <trkpt lat="44.40989" lon="0.22296">
        <ele>42.599998474121</ele>
        <time>2021-08-05T12:14:35Z</time>
      </trkpt>
      <trkpt lat="44.40965" lon="0.22333">
        <ele>42.599998474121</ele>
        <time>2021-08-05T12:14:42Z</time>
      </trkpt>
      <trkpt lat="44.40905" lon="0.22405">
        <ele>42.599998474121</ele>
        <time>2021-08-05T12:14:58Z</time>
      </trkpt>
      <trkpt lat="44.40821" lon="0.22512">
        <ele>43</ele>
        <time>2021-08-05T12:15:20Z</time>
      </trkpt>
      <trkpt lat="44.40736" lon="0.22634">
        <ele>43</ele>
        <time>2021-08-05T12:15:43Z</time>
      </trkpt>
      <trkpt lat="44.40638" lon="0.22813">
        <ele>43.200000762939</ele>
        <time>2021-08-05T12:16:13Z</time>
      </trkpt>
      <trkpt lat="44.4062" lon="0.22855">
        <ele>43.400001525879</ele>
        <time>2021-08-05T12:16:20Z</time>
      </trkpt>
      <trkpt lat="44.40595" lon="0.22908">
        <ele>43.400001525879</ele>
        <time>2021-08-05T12:16:29Z</time>
      </trkpt>
      <trkpt lat="44.4048" lon="0.23131">
        <ele>43.599998474121</ele>
        <time>2021-08-05T12:17:05Z</time>
      </trkpt>
      <trkpt lat="44.40365" lon="0.23372">
        <ele>43.799999237061</ele>
        <time>2021-08-05T12:17:42Z</time>
      </trkpt>
      <trkpt lat="44.40342" lon="0.23433">
        <ele>43.799999237061</ele>
        <time>2021-08-05T12:17:52Z</time>
      </trkpt>
      <trkpt lat="44.40312" lon="0.23511">
        <ele>43.599998474121</ele>
        <time>2021-08-05T12:18:05Z</time>
      </trkpt>
      <trkpt lat="44.40303" lon="0.23545">
        <ele>43.599998474121</ele>
        <time>2021-08-05T12:18:10Z</time>
      </trkpt>
      <trkpt lat="44.40291" lon="0.23589">
        <ele>43.599998474121</ele>
        <time>2021-08-05T12:18:16Z</time>
      </trkpt>
      <trkpt lat="44.40273" lon="0.23756">
        <ele>43.799999237061</ele>
        <time>2021-08-05T12:18:37Z</time>
      </trkpt>
      <trkpt lat="44.40263" lon="0.238">
        <ele>43.599998474121</ele>
        <time>2021-08-05T12:18:43Z</time>
      </trkpt>
      <trkpt lat="44.40253" lon="0.23868">
        <ele>43.799999237061</ele>
        <time>2021-08-05T12:18:53Z</time>
      </trkpt>
      <trkpt lat="44.40244" lon="0.23912">
        <ele>43.200000762939</ele>
        <time>2021-08-05T12:19:00Z</time>
      </trkpt>
      <trkpt lat="44.40232" lon="0.23967">
        <ele>43.200000762939</ele>
        <time>2021-08-05T12:19:08Z</time>
      </trkpt>
      <trkpt lat="44.40223" lon="0.24018">
        <ele>43</ele>
        <time>2021-08-05T12:19:15Z</time>
      </trkpt>
      <trkpt lat="44.40218" lon="0.24084">
        <ele>43.400001525879</ele>
        <time>2021-08-05T12:19:24Z</time>
      </trkpt>
      <trkpt lat="44.40215" lon="0.24118">
        <ele>43.599998474121</ele>
        <time>2021-08-05T12:19:28Z</time>
      </trkpt>
      <trkpt lat="44.4021" lon="0.24142">
        <ele>43.599998474121</ele>
        <time>2021-08-05T12:19:31Z</time>
      </trkpt>
      <trkpt lat="44.40199" lon="0.24184">
        <ele>43.599998474121</ele>
        <time>2021-08-05T12:19:36Z</time>
      </trkpt>
      <trkpt lat="44.40171" lon="0.24338">
        <ele>43.599998474121</ele>
        <time>2021-08-05T12:20:08Z</time>
      </trkpt>
      <trkpt lat="44.40168" lon="0.24354">
        <ele>44</ele>
        <time>2021-08-05T12:20:11Z</time>
      </trkpt>
      <trkpt lat="44.40129" lon="0.24429">
        <ele>44.200000762939</ele>
        <time>2021-08-05T12:20:21Z</time>
      </trkpt>
      <trkpt lat="44.40108" lon="0.24473">
        <ele>43.599998474121</ele>
        <time>2021-08-05T12:20:28Z</time>
      </trkpt>
      <trkpt lat="44.40018" lon="0.24618">
        <ele>43.200000762939</ele>
        <time>2021-08-05T12:20:53Z</time>
      </trkpt>
      <trkpt lat="44.39979" lon="0.24671">
        <ele>43.799999237061</ele>
        <time>2021-08-05T12:21:03Z</time>
      </trkpt>
      <trkpt lat="44.39939" lon="0.24711">
        <ele>43.599998474121</ele>
        <time>2021-08-05T12:21:12Z</time>
      </trkpt>
      <trkpt lat="44.39861" lon="0.24781">
        <ele>43.400001525879</ele>
        <time>2021-08-05T12:21:28Z</time>
      </trkpt>
      <trkpt lat="44.39794" lon="0.24861">
        <ele>43.799999237061</ele>
        <time>2021-08-05T12:21:45Z</time>
      </trkpt>
      <trkpt lat="44.39789" lon="0.24865">
        <ele>44</ele>
        <time>2021-08-05T12:21:46Z</time>
      </trkpt>
      <trkpt lat="44.39778" lon="0.24873">
        <ele>44</ele>
        <time>2021-08-05T12:21:48Z</time>
      </trkpt>
      <trkpt lat="44.39756" lon="0.24888">
        <ele>43.799999237061</ele>
        <time>2021-08-05T12:21:52Z</time>
      </trkpt>
      <trkpt lat="44.39701" lon="0.24933">
        <ele>44</ele>
        <time>2021-08-05T12:22:03Z</time>
      </trkpt>
      <trkpt lat="44.39649" lon="0.24974">
        <ele>43.799999237061</ele>
        <time>2021-08-05T12:22:14Z</time>
      </trkpt>
      <trkpt lat="44.39617" lon="0.24995">
        <ele>43.799999237061</ele>
        <time>2021-08-05T12:22:21Z</time>
      </trkpt>
      <trkpt lat="44.39393" lon="0.25108">
        <ele>44</ele>
        <time>2021-08-05T12:23:03Z</time>
      </trkpt>
      <trkpt lat="44.39359" lon="0.25156">
        <ele>44.599998474121</ele>
        <time>2021-08-05T12:23:17Z</time>
      </trkpt>
      <trkpt lat="44.3933" lon="0.25173">
        <ele>44.400001525879</ele>
        <time>2021-08-05T12:23:22Z</time>
      </trkpt>
      <trkpt lat="44.39304" lon="0.25177">
        <ele>43</ele>
        <time>2021-08-05T12:23:54Z</time>
      </trkpt>
      <trkpt lat="44.393" lon="0.25177">
        <ele>43.200000762939</ele>
        <time>2021-08-05T12:24:01Z</time>
      </trkpt>
      <trkpt lat="44.39283" lon="0.25188">
        <ele>43.400001525879</ele>
        <time>2021-08-05T12:24:29Z</time>
      </trkpt>
      <trkpt lat="44.39132" lon="0.25261">
        <ele>44.799999237061</ele>
        <time>2021-08-05T12:25:11Z</time>
      </trkpt>
      <trkpt lat="44.38847" lon="0.25407">
        <ele>45.400001525879</ele>
        <time>2021-08-05T12:26:10Z</time>
      </trkpt>
      <trkpt lat="44.38757" lon="0.25473">
        <ele>45.400001525879</ele>
        <time>2021-08-05T12:26:29Z</time>
      </trkpt>
      <trkpt lat="44.38696" lon="0.25518">
        <ele>45</ele>
        <time>2021-08-05T12:26:41Z</time>
      </trkpt>
      <trkpt lat="44.38656" lon="0.25545">
        <ele>45.200000762939</ele>
        <time>2021-08-05T12:26:49Z</time>
      </trkpt>
      <trkpt lat="44.38585" lon="0.25589">
        <ele>45.400001525879</ele>
        <time>2021-08-05T12:27:03Z</time>
      </trkpt>
      <trkpt lat="44.38481" lon="0.25672">
        <ele>45.599998474121</ele>
        <time>2021-08-05T12:27:26Z</time>
      </trkpt>
      <trkpt lat="44.38471" lon="0.25681">
        <ele>45.799999237061</ele>
        <time>2021-08-05T12:27:28Z</time>
      </trkpt>
      <trkpt lat="44.3836" lon="0.25748">
        <ele>45.200000762939</ele>
        <time>2021-08-05T12:28:00Z</time>
      </trkpt>
      <trkpt lat="44.38273" lon="0.25819">
        <ele>45.799999237061</ele>
        <time>2021-08-05T12:28:21Z</time>
      </trkpt>
      <trkpt lat="44.38203" lon="0.2587">
        <ele>45.799999237061</ele>
        <time>2021-08-05T12:28:35Z</time>
      </trkpt>
      <trkpt lat="44.38188" lon="0.25883">
        <ele>45.799999237061</ele>
        <time>2021-08-05T12:28:39Z</time>
      </trkpt>
      <trkpt lat="44.38157" lon="0.25903">
        <ele>45.599998474121</ele>
        <time>2021-08-05T12:28:46Z</time>
      </trkpt>
      <trkpt lat="44.38135" lon="0.25923">
        <ele>45.400001525879</ele>
        <time>2021-08-05T12:28:51Z</time>
      </trkpt>
      <trkpt lat="44.38108" lon="0.25942">
        <ele>45.599998474121</ele>
        <time>2021-08-05T12:28:57Z</time>
      </trkpt>
      <trkpt lat="44.38031" lon="0.25993">
        <ele>45.599998474121</ele>
        <time>2021-08-05T12:29:12Z</time>
      </trkpt>
      <trkpt lat="44.38026" lon="0.25997">
        <ele>45.599998474121</ele>
        <time>2021-08-05T12:29:13Z</time>
      </trkpt>
      <trkpt lat="44.37823" lon="0.26146">
        <ele>45.400001525879</ele>
        <time>2021-08-05T12:29:55Z</time>
      </trkpt>
      <trkpt lat="44.37763" lon="0.26182">
        <ele>45.400001525879</ele>
        <time>2021-08-05T12:30:12Z</time>
      </trkpt>
      <trkpt lat="44.37691" lon="0.26231">
        <ele>46.200000762939</ele>
        <time>2021-08-05T12:30:35Z</time>
      </trkpt>
      <trkpt lat="44.3761" lon="0.26289">
        <ele>46</ele>
        <time>2021-08-05T12:30:55Z</time>
      </trkpt>
      <trkpt lat="44.37575" lon="0.26307">
        <ele>46.200000762939</ele>
        <time>2021-08-05T12:31:02Z</time>
      </trkpt>
      <trkpt lat="44.37346" lon="0.26473">
        <ele>46.400001525879</ele>
        <time>2021-08-05T12:31:50Z</time>
      </trkpt>
      <trkpt lat="44.37296" lon="0.26508">
        <ele>46.599998474121</ele>
        <time>2021-08-05T12:32:00Z</time>
      </trkpt>
      <trkpt lat="44.37238" lon="0.26556">
        <ele>46.599998474121</ele>
        <time>2021-08-05T12:32:13Z</time>
      </trkpt>
      <trkpt lat="44.37212" lon="0.26573">
        <ele>46.400001525879</ele>
        <time>2021-08-05T12:32:19Z</time>
      </trkpt>
      <trkpt lat="44.37203" lon="0.2658">
        <ele>46.599998474121</ele>
        <time>2021-08-05T12:32:21Z</time>
      </trkpt>
      <trkpt lat="44.37182" lon="0.26596">
        <ele>46.599998474121</ele>
        <time>2021-08-05T12:32:26Z</time>
      </trkpt>
      <trkpt lat="44.37156" lon="0.26611">
        <ele>46.599998474121</ele>
        <time>2021-08-05T12:32:31Z</time>
      </trkpt>
      <trkpt lat="44.3712" lon="0.26633">
        <ele>46.799999237061</ele>
        <time>2021-08-05T12:32:38Z</time>
      </trkpt>
      <trkpt lat="44.36989" lon="0.2673">
        <ele>47</ele>
        <time>2021-08-05T12:33:03Z</time>
      </trkpt>
      <trkpt lat="44.36954" lon="0.26757">
        <ele>47</ele>
        <time>2021-08-05T12:33:10Z</time>
      </trkpt>
      <trkpt lat="44.36735" lon="0.26925">
        <ele>47.400001525879</ele>
        <time>2021-08-05T12:33:53Z</time>
      </trkpt>
      <trkpt lat="44.36463" lon="0.27124">
        <ele>47.799999237061</ele>
        <time>2021-08-05T12:34:49Z</time>
      </trkpt>
      <trkpt lat="44.36421" lon="0.27167">
        <ele>47.799999237061</ele>
        <time>2021-08-05T12:35:00Z</time>
      </trkpt>
      <trkpt lat="44.36401" lon="0.27209">
        <ele>47.400001525879</ele>
        <time>2021-08-05T12:35:08Z</time>
      </trkpt>
      <trkpt lat="44.36361" lon="0.27237">
        <ele>47.200000762939</ele>
        <time>2021-08-05T12:35:17Z</time>
      </trkpt>
      <trkpt lat="44.36311" lon="0.27274">
        <ele>46</ele>
        <time>2021-08-05T12:36:09Z</time>
      </trkpt>
      <trkpt lat="44.36333" lon="0.2731">
        <ele>45.400001525879</ele>
        <time>2021-08-05T12:36:27Z</time>
      </trkpt>
      <trkpt lat="44.36332" lon="0.27289">
        <ele>45.200000762939</ele>
        <time>2021-08-05T12:36:43Z</time>
      </trkpt>
      <trkpt lat="44.36339" lon="0.27285">
        <ele>46</ele>
        <time>2021-08-05T12:39:35Z</time>
      </trkpt>
      <trkpt lat="44.36336" lon="0.27288">
        <ele>46</ele>
        <time>2021-08-05T12:39:37Z</time>
      </trkpt>
      <trkpt lat="44.36331" lon="0.27292">
        <ele>46</ele>
        <time>2021-08-05T12:39:43Z</time>
      </trkpt>
      <trkpt lat="44.36315" lon="0.27276">
        <ele>46</ele>
        <time>2021-08-05T12:39:52Z</time>
      </trkpt>
      <trkpt lat="44.36282" lon="0.27277">
        <ele>50.599998474121</ele>
        <time>2021-08-05T13:03:58Z</time>
      </trkpt>
      <trkpt lat="44.36279" lon="0.27275">
        <ele>50.799999237061</ele>
        <time>2021-08-05T13:04:01Z</time>
      </trkpt>
      <trkpt lat="44.36271" lon="0.27276">
        <ele>52.200000762939</ele>
        <time>2021-08-05T13:04:25Z</time>
      </trkpt>
      <trkpt lat="44.36246" lon="0.27293">
        <ele>52.200000762939</ele>
        <time>2021-08-05T13:04:34Z</time>
      </trkpt>
      <trkpt lat="44.36211" lon="0.27313">
        <ele>50</ele>
        <time>2021-08-05T13:05:36Z</time>
      </trkpt>
      <trkpt lat="44.36134" lon="0.27371">
        <ele>50.599998474121</ele>
        <time>2021-08-05T13:07:26Z</time>
      </trkpt>
      <trkpt lat="44.36074" lon="0.27411">
        <ele>50.400001525879</ele>
        <time>2021-08-05T13:07:42Z</time>
      </trkpt>
      <trkpt lat="44.36041" lon="0.27438">
        <ele>50.200000762939</ele>
        <time>2021-08-05T13:07:50Z</time>
      </trkpt>
      <trkpt lat="44.35732" lon="0.27666">
        <ele>50.400001525879</ele>
        <time>2021-08-05T13:08:58Z</time>
      </trkpt>
      <trkpt lat="44.35699" lon="0.27687">
        <ele>50.400001525879</ele>
        <time>2021-08-05T13:09:05Z</time>
      </trkpt>
      <trkpt lat="44.35594" lon="0.27756">
        <ele>52.400001525879</ele>
        <time>2021-08-05T13:09:40Z</time>
      </trkpt>
      <trkpt lat="44.35572" lon="0.27772">
        <ele>52.599998474121</ele>
        <time>2021-08-05T13:09:46Z</time>
      </trkpt>
      <trkpt lat="44.35417" lon="0.27895">
        <ele>52.200000762939</ele>
        <time>2021-08-05T13:10:33Z</time>
      </trkpt>
      <trkpt lat="44.35375" lon="0.27922">
        <ele>52</ele>
        <time>2021-08-05T13:10:42Z</time>
      </trkpt>
      <trkpt lat="44.35227" lon="0.28035">
        <ele>51.799999237061</ele>
        <time>2021-08-05T13:11:13Z</time>
      </trkpt>
      <trkpt lat="44.35186" lon="0.28074">
        <ele>51.799999237061</ele>
        <time>2021-08-05T13:11:22Z</time>
      </trkpt>
      <trkpt lat="44.34941" lon="0.28406">
        <ele>52</ele>
        <time>2021-08-05T13:12:34Z</time>
      </trkpt>
      <trkpt lat="44.34893" lon="0.28474">
        <ele>52.400001525879</ele>
        <time>2021-08-05T13:12:47Z</time>
      </trkpt>
      <trkpt lat="44.34792" lon="0.28573">
        <ele>52.200000762939</ele>
        <time>2021-08-05T13:13:09Z</time>
      </trkpt>
      <trkpt lat="44.34441" lon="0.28754">
        <ele>52.200000762939</ele>
        <time>2021-08-05T13:14:24Z</time>
      </trkpt>
      <trkpt lat="44.34103" lon="0.28873">
        <ele>52.400001525879</ele>
        <time>2021-08-05T13:15:31Z</time>
      </trkpt>
      <trkpt lat="44.33999" lon="0.28915">
        <ele>52.599998474121</ele>
        <time>2021-08-05T13:15:51Z</time>
      </trkpt>
      <trkpt lat="44.33789" lon="0.28969">
        <ele>52.200000762939</ele>
        <time>2021-08-05T13:16:35Z</time>
      </trkpt>
      <trkpt lat="44.33711" lon="0.28978">
        <ele>52.200000762939</ele>
        <time>2021-08-05T13:16:51Z</time>
      </trkpt>
      <trkpt lat="44.3368" lon="0.28976">
        <ele>52.200000762939</ele>
        <time>2021-08-05T13:16:57Z</time>
      </trkpt>
      <trkpt lat="44.33648" lon="0.2898">
        <ele>52.599998474121</ele>
        <time>2021-08-05T13:17:04Z</time>
      </trkpt>
      <trkpt lat="44.3362" lon="0.28982">
        <ele>52.400001525879</ele>
        <time>2021-08-05T13:17:12Z</time>
      </trkpt>
      <trkpt lat="44.33455" lon="0.28942">
        <ele>52.799999237061</ele>
        <time>2021-08-05T13:17:45Z</time>
      </trkpt>
      <trkpt lat="44.33359" lon="0.28903">
        <ele>52.599998474121</ele>
        <time>2021-08-05T13:18:08Z</time>
      </trkpt>
      <trkpt lat="44.33249" lon="0.28851">
        <ele>52.400001525879</ele>
        <time>2021-08-05T13:18:35Z</time>
      </trkpt>
      <trkpt lat="44.33222" lon="0.28837">
        <ele>52.599998474121</ele>
        <time>2021-08-05T13:18:41Z</time>
      </trkpt>
      <trkpt lat="44.33191" lon="0.28827">
        <ele>53</ele>
        <time>2021-08-05T13:18:47Z</time>
      </trkpt>
      <trkpt lat="44.33126" lon="0.28811">
        <ele>53.200000762939</ele>
        <time>2021-08-05T13:19:00Z</time>
      </trkpt>
      <trkpt lat="44.3309" lon="0.28796">
        <ele>53.400001525879</ele>
        <time>2021-08-05T13:19:07Z</time>
      </trkpt>
      <trkpt lat="44.33079" lon="0.28793">
        <ele>53.200000762939</ele>
        <time>2021-08-05T13:19:09Z</time>
      </trkpt>
      <trkpt lat="44.33056" lon="0.28784">
        <ele>53.400001525879</ele>
        <time>2021-08-05T13:19:13Z</time>
      </trkpt>
      <trkpt lat="44.32985" lon="0.28754">
        <ele>53.400001525879</ele>
        <time>2021-08-05T13:19:25Z</time>
      </trkpt>
      <trkpt lat="44.32887" lon="0.28699">
        <ele>53.599998474121</ele>
        <time>2021-08-05T13:19:50Z</time>
      </trkpt>
      <trkpt lat="44.32816" lon="0.2866">
        <ele>53</ele>
        <time>2021-08-05T13:20:04Z</time>
      </trkpt>
      <trkpt lat="44.3278" lon="0.28649">
        <ele>52.799999237061</ele>
        <time>2021-08-05T13:20:11Z</time>
      </trkpt>
      <trkpt lat="44.32637" lon="0.28598">
        <ele>53.400001525879</ele>
        <time>2021-08-05T13:20:33Z</time>
      </trkpt>
      <trkpt lat="44.3256" lon="0.28558">
        <ele>53.400001525879</ele>
        <time>2021-08-05T13:20:47Z</time>
      </trkpt>
      <trkpt lat="44.324" lon="0.28496">
        <ele>53</ele>
        <time>2021-08-05T13:21:19Z</time>
      </trkpt>
      <trkpt lat="44.32348" lon="0.28479">
        <ele>52.200000762939</ele>
        <time>2021-08-05T13:21:34Z</time>
      </trkpt>
      <trkpt lat="44.32138" lon="0.28413">
        <ele>53.400001525879</ele>
        <time>2021-08-05T13:22:20Z</time>
      </trkpt>
      <trkpt lat="44.32104" lon="0.28401">
        <ele>53.599998474121</ele>
        <time>2021-08-05T13:22:27Z</time>
      </trkpt>
      <trkpt lat="44.3176" lon="0.28302">
        <ele>53.799999237061</ele>
        <time>2021-08-05T13:23:32Z</time>
      </trkpt>
      <trkpt lat="44.31714" lon="0.28276">
        <ele>53.799999237061</ele>
        <time>2021-08-05T13:23:42Z</time>
      </trkpt>
      <trkpt lat="44.31691" lon="0.28266">
        <ele>53.400001525879</ele>
        <time>2021-08-05T13:23:47Z</time>
      </trkpt>
      <trkpt lat="44.31686" lon="0.28265">
        <ele>53.599998474121</ele>
        <time>2021-08-05T13:23:48Z</time>
      </trkpt>
      <trkpt lat="44.31666" lon="0.28258">
        <ele>53.599998474121</ele>
        <time>2021-08-05T13:23:55Z</time>
      </trkpt>
      <trkpt lat="44.3157" lon="0.28226">
        <ele>53.599998474121</ele>
        <time>2021-08-05T13:24:24Z</time>
      </trkpt>
      <trkpt lat="44.31285" lon="0.28138">
        <ele>53.799999237061</ele>
        <time>2021-08-05T13:25:35Z</time>
      </trkpt>
      <trkpt lat="44.30842" lon="0.28012">
        <ele>54.200000762939</ele>
        <time>2021-08-05T13:27:02Z</time>
      </trkpt>
      <trkpt lat="44.30661" lon="0.27947">
        <ele>54.599998474121</ele>
        <time>2021-08-05T13:27:44Z</time>
      </trkpt>
      <trkpt lat="44.30353" lon="0.27862">
        <ele>55</ele>
        <time>2021-08-05T13:28:44Z</time>
      </trkpt>
      <trkpt lat="44.3024" lon="0.27827">
        <ele>55.200000762939</ele>
        <time>2021-08-05T13:29:06Z</time>
      </trkpt>
      <trkpt lat="44.29881" lon="0.2774">
        <ele>55.400001525879</ele>
        <time>2021-08-05T13:30:15Z</time>
      </trkpt>
      <trkpt lat="44.29876" lon="0.2774">
        <ele>55.200000762939</ele>
        <time>2021-08-05T13:30:16Z</time>
      </trkpt>
      <trkpt lat="44.29732" lon="0.27756">
        <ele>55.200000762939</ele>
        <time>2021-08-05T13:30:44Z</time>
      </trkpt>
      <trkpt lat="44.29644" lon="0.27763">
        <ele>55</ele>
        <time>2021-08-05T13:30:59Z</time>
      </trkpt>
      <trkpt lat="44.29216" lon="0.27872">
        <ele>54.599998474121</ele>
        <time>2021-08-05T13:32:21Z</time>
      </trkpt>
      <trkpt lat="44.29192" lon="0.27886">
        <ele>54.799999237061</ele>
        <time>2021-08-05T13:32:26Z</time>
      </trkpt>
      <trkpt lat="44.29113" lon="0.27931">
        <ele>54.200000762939</ele>
        <time>2021-08-05T13:32:50Z</time>
      </trkpt>
      <trkpt lat="44.29088" lon="0.27942">
        <ele>55</ele>
        <time>2021-08-05T13:33:04Z</time>
      </trkpt>
      <trkpt lat="44.29049" lon="0.27945">
        <ele>56.599998474121</ele>
        <time>2021-08-05T13:33:20Z</time>
      </trkpt>
      <trkpt lat="44.28951" lon="0.27934">
        <ele>58.200000762939</ele>
        <time>2021-08-05T13:33:46Z</time>
      </trkpt>
      <trkpt lat="44.28934" lon="0.27937">
        <ele>58</ele>
        <time>2021-08-05T13:33:48Z</time>
      </trkpt>
      <trkpt lat="44.28838" lon="0.27966">
        <ele>55</ele>
        <time>2021-08-05T13:34:02Z</time>
      </trkpt>
      <trkpt lat="44.288" lon="0.27969">
        <ele>54.400001525879</ele>
        <time>2021-08-05T13:34:09Z</time>
      </trkpt>
      <trkpt lat="44.28722" lon="0.27986">
        <ele>54.599998474121</ele>
        <time>2021-08-05T13:34:23Z</time>
      </trkpt>
      <trkpt lat="44.28693" lon="0.27997">
        <ele>54.599998474121</ele>
        <time>2021-08-05T13:34:29Z</time>
      </trkpt>
      <trkpt lat="44.28584" lon="0.2803">
        <ele>54.799999237061</ele>
        <time>2021-08-05T13:34:56Z</time>
      </trkpt>
      <trkpt lat="44.28548" lon="0.28044">
        <ele>54.799999237061</ele>
        <time>2021-08-05T13:35:03Z</time>
      </trkpt>
      <trkpt lat="44.284" lon="0.28112">
        <ele>55.599998474121</ele>
        <time>2021-08-05T13:35:32Z</time>
      </trkpt>
      <trkpt lat="44.28264" lon="0.28183">
        <ele>55.599998474121</ele>
        <time>2021-08-05T13:35:59Z</time>
      </trkpt>
      <trkpt lat="44.28257" lon="0.28185">
        <ele>55.400001525879</ele>
        <time>2021-08-05T13:36:00Z</time>
      </trkpt>
      <trkpt lat="44.28153" lon="0.28241">
        <ele>55.599998474121</ele>
        <time>2021-08-05T13:36:19Z</time>
      </trkpt>
      <trkpt lat="44.28096" lon="0.28275">
        <ele>55.799999237061</ele>
        <time>2021-08-05T13:36:30Z</time>
      </trkpt>
      <trkpt lat="44.28022" lon="0.28311">
        <ele>55.799999237061</ele>
        <time>2021-08-05T13:36:44Z</time>
      </trkpt>
      <trkpt lat="44.27956" lon="0.28355">
        <ele>56</ele>
        <time>2021-08-05T13:36:59Z</time>
      </trkpt>
      <trkpt lat="44.27785" lon="0.28449">
        <ele>56.200000762939</ele>
        <time>2021-08-05T13:37:36Z</time>
      </trkpt>
      <trkpt lat="44.27769" lon="0.28451">
        <ele>57.200000762939</ele>
        <time>2021-08-05T13:43:35Z</time>
      </trkpt>
      <trkpt lat="44.27753" lon="0.28462">
        <ele>57</ele>
        <time>2021-08-05T13:43:41Z</time>
      </trkpt>
      <trkpt lat="44.27734" lon="0.28473">
        <ele>56.400001525879</ele>
        <time>2021-08-05T13:43:47Z</time>
      </trkpt>
      <trkpt lat="44.27672" lon="0.28504">
        <ele>56.400001525879</ele>
        <time>2021-08-05T13:44:00Z</time>
      </trkpt>
      <trkpt lat="44.27415" lon="0.28639">
        <ele>57</ele>
        <time>2021-08-05T13:44:53Z</time>
      </trkpt>
      <trkpt lat="44.27366" lon="0.28667">
        <ele>57</ele>
        <time>2021-08-05T13:45:03Z</time>
      </trkpt>
      <trkpt lat="44.27317" lon="0.28688">
        <ele>56.799999237061</ele>
        <time>2021-08-05T13:45:11Z</time>
      </trkpt>
      <trkpt lat="44.27145" lon="0.28783">
        <ele>56.799999237061</ele>
        <time>2021-08-05T13:45:48Z</time>
      </trkpt>
      <trkpt lat="44.27053" lon="0.28822">
        <ele>58.400001525879</ele>
        <time>2021-08-05T13:46:15Z</time>
      </trkpt>
      <trkpt lat="44.26949" lon="0.28889">
        <ele>56.799999237061</ele>
        <time>2021-08-05T13:46:32Z</time>
      </trkpt>
      <trkpt lat="44.26872" lon="0.28952">
        <ele>56.599998474121</ele>
        <time>2021-08-05T13:46:48Z</time>
      </trkpt>
      <trkpt lat="44.2684" lon="0.28979">
        <ele>56.799999237061</ele>
        <time>2021-08-05T13:46:55Z</time>
      </trkpt>
      <trkpt lat="44.26769" lon="0.2907">
        <ele>56.400001525879</ele>
        <time>2021-08-05T13:47:14Z</time>
      </trkpt>
      <trkpt lat="44.26672" lon="0.29236">
        <ele>56</ele>
        <time>2021-08-05T13:47:43Z</time>
      </trkpt>
      <trkpt lat="44.26619" lon="0.29308">
        <ele>56</ele>
        <time>2021-08-05T13:47:55Z</time>
      </trkpt>
      <trkpt lat="44.26543" lon="0.29449">
        <ele>55.799999237061</ele>
        <time>2021-08-05T13:48:18Z</time>
      </trkpt>
      <trkpt lat="44.26482" lon="0.29529">
        <ele>55.799999237061</ele>
        <time>2021-08-05T13:48:31Z</time>
      </trkpt>
      <trkpt lat="44.26448" lon="0.29571">
        <ele>56</ele>
        <time>2021-08-05T13:48:38Z</time>
      </trkpt>
      <trkpt lat="44.26416" lon="0.29626">
        <ele>56</ele>
        <time>2021-08-05T13:48:47Z</time>
      </trkpt>
      <trkpt lat="44.26262" lon="0.29887">
        <ele>55.400001525879</ele>
        <time>2021-08-05T13:49:31Z</time>
      </trkpt>
      <trkpt lat="44.26147" lon="0.30081">
        <ele>55.799999237061</ele>
        <time>2021-08-05T13:50:12Z</time>
      </trkpt>
      <trkpt lat="44.26142" lon="0.30092">
        <ele>56</ele>
        <time>2021-08-05T13:50:14Z</time>
      </trkpt>
      <trkpt lat="44.26101" lon="0.30129">
        <ele>55.799999237061</ele>
        <time>2021-08-05T13:50:28Z</time>
      </trkpt>
      <trkpt lat="44.26072" lon="0.30145">
        <ele>56</ele>
        <time>2021-08-05T13:50:41Z</time>
      </trkpt>
      <trkpt lat="44.26063" lon="0.30149">
        <ele>56.599998474121</ele>
        <time>2021-08-05T13:51:23Z</time>
      </trkpt>
      <trkpt lat="44.26048" lon="0.30171">
        <ele>56.599998474121</ele>
        <time>2021-08-05T13:51:31Z</time>
      </trkpt>
      <trkpt lat="44.26026" lon="0.30203">
        <ele>57.200000762939</ele>
        <time>2021-08-05T13:51:39Z</time>
      </trkpt>
      <trkpt lat="44.25963" lon="0.3027">
        <ele>57</ele>
        <time>2021-08-05T13:51:55Z</time>
      </trkpt>
      <trkpt lat="44.25851" lon="0.30383">
        <ele>58.200000762939</ele>
        <time>2021-08-05T13:52:28Z</time>
      </trkpt>
      <trkpt lat="44.25829" lon="0.30402">
        <ele>58.200000762939</ele>
        <time>2021-08-05T13:52:34Z</time>
      </trkpt>
      <trkpt lat="44.25753" lon="0.30478">
        <ele>56</ele>
        <time>2021-08-05T13:53:48Z</time>
      </trkpt>
      <trkpt lat="44.2578" lon="0.30552">
        <ele>55.200000762939</ele>
        <time>2021-08-05T13:54:04Z</time>
      </trkpt>
      <trkpt lat="44.2577" lon="0.30576">
        <ele>55.200000762939</ele>
        <time>2021-08-05T13:54:09Z</time>
      </trkpt>
      <trkpt lat="44.25759" lon="0.30604">
        <ele>55.400001525879</ele>
        <time>2021-08-05T13:54:13Z</time>
      </trkpt>
      <trkpt lat="44.25624" lon="0.30731">
        <ele>57</ele>
        <time>2021-08-05T13:55:03Z</time>
      </trkpt>
      <trkpt lat="44.25618" lon="0.30811">
        <ele>37</ele>
        <time>2021-08-06T07:04:18Z</time>
      </trkpt>
      <trkpt lat="44.25593" lon="0.30828">
        <ele>35.200000762939</ele>
        <time>2021-08-06T07:04:27Z</time>
      </trkpt>
      <trkpt lat="44.25576" lon="0.30837">
        <ele>35.200000762939</ele>
        <time>2021-08-06T07:04:32Z</time>
      </trkpt>
      <trkpt lat="44.25558" lon="0.30854">
        <ele>35.200000762939</ele>
        <time>2021-08-06T07:04:38Z</time>
      </trkpt>
      <trkpt lat="44.25468" lon="0.31036">
        <ele>35.200000762939</ele>
        <time>2021-08-06T07:05:13Z</time>
      </trkpt>
      <trkpt lat="44.25448" lon="0.31072">
        <ele>35.200000762939</ele>
        <time>2021-08-06T07:05:20Z</time>
      </trkpt>
      <trkpt lat="44.25406" lon="0.31157">
        <ele>35.400001525879</ele>
        <time>2021-08-06T07:05:37Z</time>
      </trkpt>
      <trkpt lat="44.2537" lon="0.31237">
        <ele>35.400001525879</ele>
        <time>2021-08-06T07:05:51Z</time>
      </trkpt>
      <trkpt lat="44.25358" lon="0.31286">
        <ele>35.599998474121</ele>
        <time>2021-08-06T07:05:58Z</time>
      </trkpt>
      <trkpt lat="44.25344" lon="0.31337">
        <ele>35.799999237061</ele>
        <time>2021-08-06T07:06:06Z</time>
      </trkpt>
      <trkpt lat="44.25259" lon="0.3161">
        <ele>35.599998474121</ele>
        <time>2021-08-06T07:06:45Z</time>
      </trkpt>
      <trkpt lat="44.25041" lon="0.32167">
        <ele>36</ele>
        <time>2021-08-06T07:08:09Z</time>
      </trkpt>
      <trkpt lat="44.25009" lon="0.3221">
        <ele>36</ele>
        <time>2021-08-06T07:08:17Z</time>
      </trkpt>
      <trkpt lat="44.24978" lon="0.32252">
        <ele>36</ele>
        <time>2021-08-06T07:08:25Z</time>
      </trkpt>
      <trkpt lat="44.24964" lon="0.32266">
        <ele>36</ele>
        <time>2021-08-06T07:08:28Z</time>
      </trkpt>
      <trkpt lat="44.24904" lon="0.32319">
        <ele>36.400001525879</ele>
        <time>2021-08-06T07:08:41Z</time>
      </trkpt>
      <trkpt lat="44.24815" lon="0.32373">
        <ele>36.200000762939</ele>
        <time>2021-08-06T07:08:58Z</time>
      </trkpt>
      <trkpt lat="44.24698" lon="0.32422">
        <ele>35.400001525879</ele>
        <time>2021-08-06T07:09:21Z</time>
      </trkpt>
      <trkpt lat="44.24559" lon="0.32451">
        <ele>35.400001525879</ele>
        <time>2021-08-06T07:09:50Z</time>
      </trkpt>
      <trkpt lat="44.24553" lon="0.32452">
        <ele>35.400001525879</ele>
        <time>2021-08-06T07:09:51Z</time>
      </trkpt>
      <trkpt lat="44.24324" lon="0.32478">
        <ele>35.200000762939</ele>
        <time>2021-08-06T07:10:27Z</time>
      </trkpt>
      <trkpt lat="44.24262" lon="0.32485">
        <ele>35</ele>
        <time>2021-08-06T07:10:38Z</time>
      </trkpt>
      <trkpt lat="44.24236" lon="0.32489">
        <ele>35</ele>
        <time>2021-08-06T07:10:43Z</time>
      </trkpt>
      <trkpt lat="44.24231" lon="0.32488">
        <ele>35</ele>
        <time>2021-08-06T07:10:44Z</time>
      </trkpt>
      <trkpt lat="44.24183" lon="0.3249">
        <ele>35</ele>
        <time>2021-08-06T07:10:53Z</time>
      </trkpt>
      <trkpt lat="44.24056" lon="0.32517">
        <ele>35.200000762939</ele>
        <time>2021-08-06T07:11:17Z</time>
      </trkpt>
      <trkpt lat="44.23813" lon="0.32556">
        <ele>35.400001525879</ele>
        <time>2021-08-06T07:12:02Z</time>
      </trkpt>
      <trkpt lat="44.23726" lon="0.32613">
        <ele>35.799999237061</ele>
        <time>2021-08-06T07:12:25Z</time>
      </trkpt>
      <trkpt lat="44.23684" lon="0.3261">
        <ele>35.599998474121</ele>
        <time>2021-08-06T07:12:50Z</time>
      </trkpt>
      <trkpt lat="44.23665" lon="0.32631">
        <ele>35.599998474121</ele>
        <time>2021-08-06T07:12:56Z</time>
      </trkpt>
      <trkpt lat="44.23606" lon="0.32718">
        <ele>35.200000762939</ele>
        <time>2021-08-06T07:13:15Z</time>
      </trkpt>
      <trkpt lat="44.23486" lon="0.32891">
        <ele>36.799999237061</ele>
        <time>2021-08-06T07:13:53Z</time>
      </trkpt>
      <trkpt lat="44.23441" lon="0.3297">
        <ele>36.400001525879</ele>
        <time>2021-08-06T07:14:46Z</time>
      </trkpt>
      <trkpt lat="44.23409" lon="0.33004">
        <ele>36.599998474121</ele>
        <time>2021-08-06T07:15:02Z</time>
      </trkpt>
      <trkpt lat="44.23283" lon="0.3318">
        <ele>37</ele>
        <time>2021-08-06T07:15:42Z</time>
      </trkpt>
      <trkpt lat="44.23253" lon="0.33216">
        <ele>37</ele>
        <time>2021-08-06T07:15:50Z</time>
      </trkpt>
      <trkpt lat="44.22996" lon="0.33597">
        <ele>37.200000762939</ele>
        <time>2021-08-06T07:17:04Z</time>
      </trkpt>
      <trkpt lat="44.22924" lon="0.33874">
        <ele>37</ele>
        <time>2021-08-06T07:17:41Z</time>
      </trkpt>
      <trkpt lat="44.22917" lon="0.33966">
        <ele>37</ele>
        <time>2021-08-06T07:17:53Z</time>
      </trkpt>
      <trkpt lat="44.22951" lon="0.34201">
        <ele>37</ele>
        <time>2021-08-06T07:18:23Z</time>
      </trkpt>
      <trkpt lat="44.2299" lon="0.34343">
        <ele>36.799999237061</ele>
        <time>2021-08-06T07:18:46Z</time>
      </trkpt>
      <trkpt lat="44.23" lon="0.34419">
        <ele>36.200000762939</ele>
        <time>2021-08-06T07:19:04Z</time>
      </trkpt>
      <trkpt lat="44.23032" lon="0.34579">
        <ele>37.400001525879</ele>
        <time>2021-08-06T07:19:29Z</time>
      </trkpt>
      <trkpt lat="44.2305" lon="0.34649">
        <ele>37</ele>
        <time>2021-08-06T07:19:38Z</time>
      </trkpt>
      <trkpt lat="44.23058" lon="0.34711">
        <ele>37</ele>
        <time>2021-08-06T07:19:46Z</time>
      </trkpt>
      <trkpt lat="44.23056" lon="0.34729">
        <ele>36.799999237061</ele>
        <time>2021-08-06T07:19:48Z</time>
      </trkpt>
      <trkpt lat="44.2304" lon="0.34853">
        <ele>37.400001525879</ele>
        <time>2021-08-06T07:20:05Z</time>
      </trkpt>
      <trkpt lat="44.23023" lon="0.34925">
        <ele>37.599998474121</ele>
        <time>2021-08-06T07:20:15Z</time>
      </trkpt>
      <trkpt lat="44.23006" lon="0.35">
        <ele>37.400001525879</ele>
        <time>2021-08-06T07:20:25Z</time>
      </trkpt>
      <trkpt lat="44.22986" lon="0.35057">
        <ele>37.200000762939</ele>
        <time>2021-08-06T07:20:33Z</time>
      </trkpt>
      <trkpt lat="44.22778" lon="0.35491">
        <ele>37.200000762939</ele>
        <time>2021-08-06T07:21:43Z</time>
      </trkpt>
      <trkpt lat="44.22763" lon="0.35536">
        <ele>36.599998474121</ele>
        <time>2021-08-06T07:21:58Z</time>
      </trkpt>
      <trkpt lat="44.22716" lon="0.35629">
        <ele>36.200000762939</ele>
        <time>2021-08-06T07:22:22Z</time>
      </trkpt>
      <trkpt lat="44.22669" lon="0.35717">
        <ele>37</ele>
        <time>2021-08-06T07:22:38Z</time>
      </trkpt>
      <trkpt lat="44.22632" lon="0.35788">
        <ele>37.200000762939</ele>
        <time>2021-08-06T07:22:50Z</time>
      </trkpt>
      <trkpt lat="44.22622" lon="0.35814">
        <ele>37.200000762939</ele>
        <time>2021-08-06T07:22:54Z</time>
      </trkpt>
      <trkpt lat="44.22578" lon="0.35924">
        <ele>37.400001525879</ele>
        <time>2021-08-06T07:23:09Z</time>
      </trkpt>
      <trkpt lat="44.22547" lon="0.35983">
        <ele>37.200000762939</ele>
        <time>2021-08-06T07:23:18Z</time>
      </trkpt>
      <trkpt lat="44.22229" lon="0.36773">
        <ele>36.599998474121</ele>
        <time>2021-08-06T07:25:15Z</time>
      </trkpt>
      <trkpt lat="44.22213" lon="0.36828">
        <ele>36.599998474121</ele>
        <time>2021-08-06T07:25:23Z</time>
      </trkpt>
      <trkpt lat="44.22199" lon="0.369">
        <ele>36.599998474121</ele>
        <time>2021-08-06T07:25:33Z</time>
      </trkpt>
      <trkpt lat="44.2219" lon="0.36934">
        <ele>36.400001525879</ele>
        <time>2021-08-06T07:25:38Z</time>
      </trkpt>
      <trkpt lat="44.22123" lon="0.37155">
        <ele>36</ele>
        <time>2021-08-06T07:26:12Z</time>
      </trkpt>
      <trkpt lat="44.22094" lon="0.37256">
        <ele>35.400001525879</ele>
        <time>2021-08-06T07:29:27Z</time>
      </trkpt>
      <trkpt lat="44.22046" lon="0.37502">
        <ele>36</ele>
        <time>2021-08-06T07:30:14Z</time>
      </trkpt>
      <trkpt lat="44.22029" lon="0.37607">
        <ele>36.400001525879</ele>
        <time>2021-08-06T07:30:29Z</time>
      </trkpt>
      <trkpt lat="44.21989" lon="0.37807">
        <ele>36.599998474121</ele>
        <time>2021-08-06T07:30:59Z</time>
      </trkpt>
      <trkpt lat="44.21988" lon="0.37815">
        <ele>36.599998474121</ele>
        <time>2021-08-06T07:31:00Z</time>
      </trkpt>
      <trkpt lat="44.21977" lon="0.37901">
        <ele>38.400001525879</ele>
        <time>2021-08-06T07:31:21Z</time>
      </trkpt>
      <trkpt lat="44.2198" lon="0.37986">
        <ele>39</ele>
        <time>2021-08-06T07:31:31Z</time>
      </trkpt>
      <trkpt lat="44.21976" lon="0.38023">
        <ele>38</ele>
        <time>2021-08-06T07:31:35Z</time>
      </trkpt>
      <trkpt lat="44.21957" lon="0.38404">
        <ele>37</ele>
        <time>2021-08-06T07:32:21Z</time>
      </trkpt>
      <trkpt lat="44.21949" lon="0.38575">
        <ele>37</ele>
        <time>2021-08-06T07:32:42Z</time>
      </trkpt>
      <trkpt lat="44.21948" lon="0.3872">
        <ele>37</ele>
        <time>2021-08-06T07:33:00Z</time>
      </trkpt>
      <trkpt lat="44.21929" lon="0.38938">
        <ele>36.400001525879</ele>
        <time>2021-08-06T07:33:26Z</time>
      </trkpt>
      <trkpt lat="44.21934" lon="0.39092">
        <ele>36.400001525879</ele>
        <time>2021-08-06T07:33:45Z</time>
      </trkpt>
      <trkpt lat="44.21936" lon="0.3913">
        <ele>36.200000762939</ele>
        <time>2021-08-06T07:33:50Z</time>
      </trkpt>
      <trkpt lat="44.21918" lon="0.39288">
        <ele>36.200000762939</ele>
        <time>2021-08-06T07:34:11Z</time>
      </trkpt>
      <trkpt lat="44.21889" lon="0.40041">
        <ele>35.799999237061</ele>
        <time>2021-08-06T07:35:49Z</time>
      </trkpt>
      <trkpt lat="44.2187" lon="0.40604">
        <ele>35.799999237061</ele>
        <time>2021-08-06T07:37:05Z</time>
      </trkpt>
      <trkpt lat="44.21861" lon="0.4076">
        <ele>35.799999237061</ele>
        <time>2021-08-06T07:37:26Z</time>
      </trkpt>
      <trkpt lat="44.21851" lon="0.40961">
        <ele>38</ele>
        <time>2021-08-06T07:38:14Z</time>
      </trkpt>
      <trkpt lat="44.2185" lon="0.41001">
        <ele>38</ele>
        <time>2021-08-06T07:38:19Z</time>
      </trkpt>
      <trkpt lat="44.21847" lon="0.41163">
        <ele>37.200000762939</ele>
        <time>2021-08-06T07:38:39Z</time>
      </trkpt>
      <trkpt lat="44.21835" lon="0.41415">
        <ele>37</ele>
        <time>2021-08-06T07:39:17Z</time>
      </trkpt>
      <trkpt lat="44.21818" lon="0.41961">
        <ele>37.599998474121</ele>
        <time>2021-08-06T07:40:30Z</time>
      </trkpt>
      <trkpt lat="44.21806" lon="0.42283">
        <ele>38</ele>
        <time>2021-08-06T07:41:13Z</time>
      </trkpt>
      <trkpt lat="44.21798" lon="0.42589">
        <ele>37.799999237061</ele>
        <time>2021-08-06T07:41:53Z</time>
      </trkpt>
      <trkpt lat="44.21787" lon="0.42717">
        <ele>38</ele>
        <time>2021-08-06T07:42:10Z</time>
      </trkpt>
      <trkpt lat="44.21775" lon="0.43684">
        <ele>38.200000762939</ele>
        <time>2021-08-06T07:44:12Z</time>
      </trkpt>
      <trkpt lat="44.21771" lon="0.43754">
        <ele>38.599998474121</ele>
        <time>2021-08-06T07:44:21Z</time>
      </trkpt>
      <trkpt lat="44.21764" lon="0.44017">
        <ele>38.599998474121</ele>
        <time>2021-08-06T07:44:54Z</time>
      </trkpt>
      <trkpt lat="44.21761" lon="0.44034">
        <ele>38.799999237061</ele>
        <time>2021-08-06T07:44:56Z</time>
      </trkpt>
      <trkpt lat="44.2174" lon="0.44311">
        <ele>39</ele>
        <time>2021-08-06T07:45:32Z</time>
      </trkpt>
      <trkpt lat="44.21737" lon="0.44325">
        <ele>39.799999237061</ele>
        <time>2021-08-06T07:45:43Z</time>
      </trkpt>
      <trkpt lat="44.21755" lon="0.44323">
        <ele>40.799999237061</ele>
        <time>2021-08-06T07:45:54Z</time>
      </trkpt>
      <trkpt lat="44.21758" lon="0.44353">
        <ele>40.599998474121</ele>
        <time>2021-08-06T07:45:59Z</time>
      </trkpt>
      <trkpt lat="44.21767" lon="0.44513">
        <ele>37.400001525879</ele>
        <time>2021-08-06T07:46:20Z</time>
      </trkpt>
      <trkpt lat="44.21771" lon="0.44592">
        <ele>37.599998474121</ele>
        <time>2021-08-06T07:46:30Z</time>
      </trkpt>
      <trkpt lat="44.21767" lon="0.44669">
        <ele>37.799999237061</ele>
        <time>2021-08-06T07:46:40Z</time>
      </trkpt>
      <trkpt lat="44.21756" lon="0.45067">
        <ele>37.200000762939</ele>
        <time>2021-08-06T07:47:29Z</time>
      </trkpt>
      <trkpt lat="44.21759" lon="0.45398">
        <ele>38.400001525879</ele>
        <time>2021-08-06T07:48:12Z</time>
      </trkpt>
      <trkpt lat="44.21757" lon="0.45431">
        <ele>38.599998474121</ele>
        <time>2021-08-06T07:48:16Z</time>
      </trkpt>
      <trkpt lat="44.21761" lon="0.45568">
        <ele>38.599998474121</ele>
        <time>2021-08-06T07:48:33Z</time>
      </trkpt>
      <trkpt lat="44.21766" lon="0.45782">
        <ele>39</ele>
        <time>2021-08-06T07:49:00Z</time>
      </trkpt>
      <trkpt lat="44.21771" lon="0.45854">
        <ele>38.799999237061</ele>
        <time>2021-08-06T07:49:09Z</time>
      </trkpt>
      <trkpt lat="44.21793" lon="0.46235">
        <ele>39.400001525879</ele>
        <time>2021-08-06T07:50:02Z</time>
      </trkpt>
      <trkpt lat="44.218" lon="0.46364">
        <ele>39</ele>
        <time>2021-08-06T07:50:18Z</time>
      </trkpt>
      <trkpt lat="44.21821" lon="0.4683">
        <ele>37.799999237061</ele>
        <time>2021-08-06T07:51:16Z</time>
      </trkpt>
      <trkpt lat="44.21823" lon="0.4684">
        <ele>37.599998474121</ele>
        <time>2021-08-06T07:51:17Z</time>
      </trkpt>
      <trkpt lat="44.21831" lon="0.469">
        <ele>36.799999237061</ele>
        <time>2021-08-06T07:51:23Z</time>
      </trkpt>
      <trkpt lat="44.2184" lon="0.46947">
        <ele>36</ele>
        <time>2021-08-06T07:51:29Z</time>
      </trkpt>
      <trkpt lat="44.21847" lon="0.4701">
        <ele>35.799999237061</ele>
        <time>2021-08-06T07:51:38Z</time>
      </trkpt>
      <trkpt lat="44.21871" lon="0.47453">
        <ele>35.599998474121</ele>
        <time>2021-08-06T07:52:31Z</time>
      </trkpt>
      <trkpt lat="44.21868" lon="0.4753">
        <ele>35.200000762939</ele>
        <time>2021-08-06T07:52:39Z</time>
      </trkpt>
      <trkpt lat="44.21864" lon="0.47816">
        <ele>38</ele>
        <time>2021-08-06T07:53:22Z</time>
      </trkpt>
      <trkpt lat="44.21867" lon="0.47856">
        <ele>38</ele>
        <time>2021-08-06T07:53:27Z</time>
      </trkpt>
      <trkpt lat="44.21871" lon="0.48009">
        <ele>36.599998474121</ele>
        <time>2021-08-06T07:53:46Z</time>
      </trkpt>
      <trkpt lat="44.21857" lon="0.48228">
        <ele>37.400001525879</ele>
        <time>2021-08-06T07:54:15Z</time>
      </trkpt>
      <trkpt lat="44.21874" lon="0.48425">
        <ele>38.200000762939</ele>
        <time>2021-08-06T07:54:42Z</time>
      </trkpt>
      <trkpt lat="44.21868" lon="0.48465">
        <ele>37.799999237061</ele>
        <time>2021-08-06T07:54:47Z</time>
      </trkpt>
      <trkpt lat="44.21841" lon="0.48512">
        <ele>37.599998474121</ele>
        <time>2021-08-06T07:54:55Z</time>
      </trkpt>
      <trkpt lat="44.21826" lon="0.48529">
        <ele>37.799999237061</ele>
        <time>2021-08-06T07:55:01Z</time>
      </trkpt>
      <trkpt lat="44.21816" lon="0.48564">
        <ele>39.200000762939</ele>
        <time>2021-08-06T07:55:11Z</time>
      </trkpt>
      <trkpt lat="44.21818" lon="0.48576">
        <ele>38.599998474121</ele>
        <time>2021-08-06T07:59:59Z</time>
      </trkpt>
      <trkpt lat="44.21815" lon="0.4869">
        <ele>39.200000762939</ele>
        <time>2021-08-06T08:00:22Z</time>
      </trkpt>
      <trkpt lat="44.21792" lon="0.48846">
        <ele>39.400001525879</ele>
        <time>2021-08-06T08:01:07Z</time>
      </trkpt>
      <trkpt lat="44.21783" lon="0.48875">
        <ele>39.400001525879</ele>
        <time>2021-08-06T08:01:18Z</time>
      </trkpt>
      <trkpt lat="44.21769" lon="0.49012">
        <ele>39.799999237061</ele>
        <time>2021-08-06T08:01:40Z</time>
      </trkpt>
      <trkpt lat="44.21767" lon="0.49041">
        <ele>40</ele>
        <time>2021-08-06T08:01:44Z</time>
      </trkpt>
      <trkpt lat="44.21765" lon="0.49104">
        <ele>40.200000762939</ele>
        <time>2021-08-06T08:01:52Z</time>
      </trkpt>
      <trkpt lat="44.21757" lon="0.49172">
        <ele>40.599998474121</ele>
        <time>2021-08-06T08:02:01Z</time>
      </trkpt>
      <trkpt lat="44.21731" lon="0.49368">
        <ele>40.200000762939</ele>
        <time>2021-08-06T08:02:30Z</time>
      </trkpt>
      <trkpt lat="44.21693" lon="0.49496">
        <ele>40</ele>
        <time>2021-08-06T08:02:49Z</time>
      </trkpt>
      <trkpt lat="44.21678" lon="0.49553">
        <ele>40</ele>
        <time>2021-08-06T08:02:57Z</time>
      </trkpt>
      <trkpt lat="44.21655" lon="0.49631">
        <ele>40.200000762939</ele>
        <time>2021-08-06T08:03:10Z</time>
      </trkpt>
      <trkpt lat="44.21646" lon="0.49664">
        <ele>40.200000762939</ele>
        <time>2021-08-06T08:03:16Z</time>
      </trkpt>
      <trkpt lat="44.21577" lon="0.50065">
        <ele>40.799999237061</ele>
        <time>2021-08-06T08:04:10Z</time>
      </trkpt>
      <trkpt lat="44.21519" lon="0.50386">
        <ele>41.200000762939</ele>
        <time>2021-08-06T08:04:52Z</time>
      </trkpt>
      <trkpt lat="44.21502" lon="0.50454">
        <ele>41.200000762939</ele>
        <time>2021-08-06T08:05:01Z</time>
      </trkpt>
      <trkpt lat="44.21487" lon="0.5051">
        <ele>41</ele>
        <time>2021-08-06T08:05:09Z</time>
      </trkpt>
      <trkpt lat="44.21477" lon="0.50574">
        <ele>41.200000762939</ele>
        <time>2021-08-06T08:05:17Z</time>
      </trkpt>
      <trkpt lat="44.21411" lon="0.51013">
        <ele>40.599998474121</ele>
        <time>2021-08-06T08:06:13Z</time>
      </trkpt>
      <trkpt lat="44.21393" lon="0.51088">
        <ele>40.599998474121</ele>
        <time>2021-08-06T08:06:26Z</time>
      </trkpt>
      <trkpt lat="44.21391" lon="0.51094">
        <ele>40.799999237061</ele>
        <time>2021-08-06T08:06:27Z</time>
      </trkpt>
      <trkpt lat="44.21352" lon="0.51302">
        <ele>40.799999237061</ele>
        <time>2021-08-06T08:06:56Z</time>
      </trkpt>
      <trkpt lat="44.21344" lon="0.51336">
        <ele>40.599998474121</ele>
        <time>2021-08-06T08:07:02Z</time>
      </trkpt>
      <trkpt lat="44.21337" lon="0.51391">
        <ele>40.599998474121</ele>
        <time>2021-08-06T08:07:10Z</time>
      </trkpt>
      <trkpt lat="44.21271" lon="0.51814">
        <ele>40.799999237061</ele>
        <time>2021-08-06T08:08:05Z</time>
      </trkpt>
      <trkpt lat="44.21255" lon="0.5187">
        <ele>40.799999237061</ele>
        <time>2021-08-06T08:08:12Z</time>
      </trkpt>
      <trkpt lat="44.21244" lon="0.5191">
        <ele>41</ele>
        <time>2021-08-06T08:08:17Z</time>
      </trkpt>
      <trkpt lat="44.21213" lon="0.52081">
        <ele>41</ele>
        <time>2021-08-06T08:08:38Z</time>
      </trkpt>
      <trkpt lat="44.21199" lon="0.52151">
        <ele>41</ele>
        <time>2021-08-06T08:08:47Z</time>
      </trkpt>
      <trkpt lat="44.21192" lon="0.52201">
        <ele>40.400001525879</ele>
        <time>2021-08-06T08:08:54Z</time>
      </trkpt>
      <trkpt lat="44.21143" lon="0.52463">
        <ele>40.799999237061</ele>
        <time>2021-08-06T08:09:28Z</time>
      </trkpt>
      <trkpt lat="44.21108" lon="0.52605">
        <ele>40.599998474121</ele>
        <time>2021-08-06T08:09:47Z</time>
      </trkpt>
      <trkpt lat="44.21081" lon="0.52731">
        <ele>40.200000762939</ele>
        <time>2021-08-06T08:10:13Z</time>
      </trkpt>
      <trkpt lat="44.21076" lon="0.52852">
        <ele>40.599998474121</ele>
        <time>2021-08-06T08:10:40Z</time>
      </trkpt>
      <trkpt lat="44.21086" lon="0.52882">
        <ele>40.200000762939</ele>
        <time>2021-08-06T08:10:47Z</time>
      </trkpt>
      <trkpt lat="44.21094" lon="0.52938">
        <ele>40.200000762939</ele>
        <time>2021-08-06T08:10:56Z</time>
      </trkpt>
      <trkpt lat="44.21098" lon="0.52968">
        <ele>40.400001525879</ele>
        <time>2021-08-06T08:11:01Z</time>
      </trkpt>
      <trkpt lat="44.21108" lon="0.53229">
        <ele>41.400001525879</ele>
        <time>2021-08-06T08:11:42Z</time>
      </trkpt>
      <trkpt lat="44.21104" lon="0.53238">
        <ele>41.200000762939</ele>
        <time>2021-08-06T08:11:46Z</time>
      </trkpt>
      <trkpt lat="44.21132" lon="0.5341">
        <ele>41.200000762939</ele>
        <time>2021-08-06T08:12:20Z</time>
      </trkpt>
      <trkpt lat="44.21163" lon="0.53592">
        <ele>42</ele>
        <time>2021-08-06T08:12:48Z</time>
      </trkpt>
      <trkpt lat="44.21184" lon="0.53676">
        <ele>42</ele>
        <time>2021-08-06T08:13:00Z</time>
      </trkpt>
      <trkpt lat="44.21211" lon="0.53817">
        <ele>42.400001525879</ele>
        <time>2021-08-06T08:13:19Z</time>
      </trkpt>
      <trkpt lat="44.21236" lon="0.53967">
        <ele>42.400001525879</ele>
        <time>2021-08-06T08:13:38Z</time>
      </trkpt>
      <trkpt lat="44.21298" lon="0.54237">
        <ele>42.599998474121</ele>
        <time>2021-08-06T08:14:14Z</time>
      </trkpt>
      <trkpt lat="44.21397" lon="0.54624">
        <ele>42.599998474121</ele>
        <time>2021-08-06T08:15:04Z</time>
      </trkpt>
      <trkpt lat="44.21506" lon="0.55159">
        <ele>42.400001525879</ele>
        <time>2021-08-06T08:16:13Z</time>
      </trkpt>
      <trkpt lat="44.21507" lon="0.5521">
        <ele>42.400001525879</ele>
        <time>2021-08-06T08:16:20Z</time>
      </trkpt>
      <trkpt lat="44.215" lon="0.55423">
        <ele>42.400001525879</ele>
        <time>2021-08-06T08:16:48Z</time>
      </trkpt>
      <trkpt lat="44.2145" lon="0.55648">
        <ele>42.400001525879</ele>
        <time>2021-08-06T08:17:22Z</time>
      </trkpt>
      <trkpt lat="44.21418" lon="0.55861">
        <ele>42.599998474121</ele>
        <time>2021-08-06T08:17:51Z</time>
      </trkpt>
      <trkpt lat="44.21388" lon="0.55982">
        <ele>42.599998474121</ele>
        <time>2021-08-06T08:18:07Z</time>
      </trkpt>
      <trkpt lat="44.2136" lon="0.56116">
        <ele>42.599998474121</ele>
        <time>2021-08-06T08:18:25Z</time>
      </trkpt>
      <trkpt lat="44.21292" lon="0.56367">
        <ele>43</ele>
        <time>2021-08-06T08:18:59Z</time>
      </trkpt>
      <trkpt lat="44.21273" lon="0.56432">
        <ele>43</ele>
        <time>2021-08-06T08:19:08Z</time>
      </trkpt>
      <trkpt lat="44.21243" lon="0.56532">
        <ele>42.799999237061</ele>
        <time>2021-08-06T08:19:23Z</time>
      </trkpt>
      <trkpt lat="44.21184" lon="0.56719">
        <ele>43.200000762939</ele>
        <time>2021-08-06T08:19:49Z</time>
      </trkpt>
      <trkpt lat="44.21162" lon="0.56776">
        <ele>43.400001525879</ele>
        <time>2021-08-06T08:19:57Z</time>
      </trkpt>
      <trkpt lat="44.20841" lon="0.5748">
        <ele>44.200000762939</ele>
        <time>2021-08-06T08:21:42Z</time>
      </trkpt>
      <trkpt lat="44.20535" lon="0.58121">
        <ele>44.400001525879</ele>
        <time>2021-08-06T08:23:22Z</time>
      </trkpt>
      <trkpt lat="44.20511" lon="0.58175">
        <ele>44.599998474121</ele>
        <time>2021-08-06T08:23:30Z</time>
      </trkpt>
      <trkpt lat="44.205" lon="0.58202">
        <ele>44.799999237061</ele>
        <time>2021-08-06T08:23:34Z</time>
      </trkpt>
      <trkpt lat="44.20459" lon="0.5827">
        <ele>44.799999237061</ele>
        <time>2021-08-06T08:23:46Z</time>
      </trkpt>
      <trkpt lat="44.20422" lon="0.58334">
        <ele>44.799999237061</ele>
        <time>2021-08-06T08:23:58Z</time>
      </trkpt>
      <trkpt lat="44.20418" lon="0.58346">
        <ele>44.799999237061</ele>
        <time>2021-08-06T08:24:00Z</time>
      </trkpt>
      <trkpt lat="44.20378" lon="0.58448">
        <ele>45</ele>
        <time>2021-08-06T08:24:17Z</time>
      </trkpt>
      <trkpt lat="44.20388" lon="0.5877">
        <ele>45.200000762939</ele>
        <time>2021-08-06T08:25:08Z</time>
      </trkpt>
      <trkpt lat="44.20447" lon="0.59019">
        <ele>45</ele>
        <time>2021-08-06T08:25:43Z</time>
      </trkpt>
      <trkpt lat="44.2047" lon="0.59135">
        <ele>45.200000762939</ele>
        <time>2021-08-06T08:25:58Z</time>
      </trkpt>
      <trkpt lat="44.20479" lon="0.59168">
        <ele>45.400001525879</ele>
        <time>2021-08-06T08:26:02Z</time>
      </trkpt>
      <trkpt lat="44.20508" lon="0.59296">
        <ele>45.400001525879</ele>
        <time>2021-08-06T08:26:21Z</time>
      </trkpt>
      <trkpt lat="44.20531" lon="0.59405">
        <ele>45.599998474121</ele>
        <time>2021-08-06T08:26:36Z</time>
      </trkpt>
      <trkpt lat="44.20544" lon="0.59452">
        <ele>45.799999237061</ele>
        <time>2021-08-06T08:26:42Z</time>
      </trkpt>
      <trkpt lat="44.206" lon="0.59705">
        <ele>46</ele>
        <time>2021-08-06T08:27:22Z</time>
      </trkpt>
      <trkpt lat="44.20611" lon="0.59749">
        <ele>46.200000762939</ele>
        <time>2021-08-06T08:27:30Z</time>
      </trkpt>
      <trkpt lat="44.20688" lon="0.60038">
        <ele>46.400001525879</ele>
        <time>2021-08-06T08:28:31Z</time>
      </trkpt>
      <trkpt lat="44.20668" lon="0.60058">
        <ele>48.799999237061</ele>
        <time>2021-08-06T08:28:46Z</time>
      </trkpt>
      <trkpt lat="44.20648" lon="0.60079">
        <ele>49.400001525879</ele>
        <time>2021-08-06T08:29:07Z</time>
      </trkpt>
      <trkpt lat="44.20649" lon="0.60077">
        <ele>49.400001525879</ele>
        <time>2021-08-06T08:29:08Z</time>
      </trkpt>
      <trkpt lat="44.20671" lon="0.6006">
        <ele>49.799999237061</ele>
        <time>2021-08-06T08:29:23Z</time>
      </trkpt>
      <trkpt lat="44.20676" lon="0.60073">
        <ele>49.799999237061</ele>
        <time>2021-08-06T08:29:29Z</time>
      </trkpt>
      <trkpt lat="44.2073" lon="0.60318">
        <ele>49.799999237061</ele>
        <time>2021-08-06T08:30:28Z</time>
      </trkpt>
      <trkpt lat="44.20752" lon="0.60402">
        <ele>49.400001525879</ele>
        <time>2021-08-06T08:31:31Z</time>
      </trkpt>
      <trkpt lat="44.20822" lon="0.60704">
        <ele>49.599998474121</ele>
        <time>2021-08-06T08:32:52Z</time>
      </trkpt>
      <trkpt lat="44.20898" lon="0.60999">
        <ele>50</ele>
        <time>2021-08-06T08:34:33Z</time>
      </trkpt>
      <trkpt lat="44.20881" lon="0.60943">
        <ele>50.200000762939</ele>
        <time>2021-08-06T08:34:50Z</time>
      </trkpt>
      <trkpt lat="44.20872" lon="0.60915">
        <ele>50</ele>
        <time>2021-08-06T08:34:59Z</time>
      </trkpt>
      <trkpt lat="44.20875" lon="0.60932">
        <ele>49.200000762939</ele>
        <time>2021-08-06T08:43:28Z</time>
      </trkpt>
      <trkpt lat="44.20914" lon="0.61063">
        <ele>49.599998474121</ele>
        <time>2021-08-06T08:44:09Z</time>
      </trkpt>
      <trkpt lat="44.2092" lon="0.61126">
        <ele>49.599998474121</ele>
        <time>2021-08-06T08:44:32Z</time>
      </trkpt>
      <trkpt lat="44.20932" lon="0.61161">
        <ele>49.400001525879</ele>
        <time>2021-08-06T08:44:44Z</time>
      </trkpt>
      <trkpt lat="44.20943" lon="0.61217">
        <ele>50.400001525879</ele>
        <time>2021-08-06T08:44:59Z</time>
      </trkpt>
      <trkpt lat="44.20937" lon="0.61242">
        <ele>50.799999237061</ele>
        <time>2021-08-06T08:45:05Z</time>
      </trkpt>
      <trkpt lat="44.20904" lon="0.61363">
        <ele>50.799999237061</ele>
        <time>2021-08-06T08:45:27Z</time>
      </trkpt>
      <trkpt lat="44.20908" lon="0.61649">
        <ele>51</ele>
        <time>2021-08-06T08:46:09Z</time>
      </trkpt>
      <trkpt lat="44.20915" lon="0.61689">
        <ele>51</ele>
        <time>2021-08-06T08:46:15Z</time>
      </trkpt>
      <trkpt lat="44.20916" lon="0.61696">
        <ele>51</ele>
        <time>2021-08-06T08:46:16Z</time>
      </trkpt>
      <trkpt lat="44.20921" lon="0.61754">
        <ele>51.200000762939</ele>
        <time>2021-08-06T08:46:24Z</time>
      </trkpt>
      <trkpt lat="44.20932" lon="0.61818">
        <ele>51.200000762939</ele>
        <time>2021-08-06T08:46:33Z</time>
      </trkpt>
      <trkpt lat="44.20964" lon="0.62043">
        <ele>51</ele>
        <time>2021-08-06T08:47:04Z</time>
      </trkpt>
      <trkpt lat="44.20952" lon="0.62128">
        <ele>51.799999237061</ele>
        <time>2021-08-06T08:47:18Z</time>
      </trkpt>
      <trkpt lat="44.20934" lon="0.62206">
        <ele>54.200000762939</ele>
        <time>2021-08-06T08:47:40Z</time>
      </trkpt>
      <trkpt lat="44.20921" lon="0.62481">
        <ele>51</ele>
        <time>2021-08-06T08:48:10Z</time>
      </trkpt>
      <trkpt lat="44.20983" lon="0.62614">
        <ele>51</ele>
        <time>2021-08-06T08:48:31Z</time>
      </trkpt>
      <trkpt lat="44.20991" lon="0.62632">
        <ele>50.799999237061</ele>
        <time>2021-08-06T08:48:35Z</time>
      </trkpt>
      <trkpt lat="44.21001" lon="0.62721">
        <ele>50.200000762939</ele>
        <time>2021-08-06T08:48:49Z</time>
      </trkpt>
      <trkpt lat="44.21008" lon="0.6277">
        <ele>50</ele>
        <time>2021-08-06T08:48:57Z</time>
      </trkpt>
      <trkpt lat="44.20989" lon="0.62857">
        <ele>50.200000762939</ele>
        <time>2021-08-06T08:49:11Z</time>
      </trkpt>
      <trkpt lat="44.20983" lon="0.62903">
        <ele>53.799999237061</ele>
        <time>2021-08-06T08:49:48Z</time>
      </trkpt>
      <trkpt lat="44.20984" lon="0.62906">
        <ele>53.799999237061</ele>
        <time>2021-08-06T08:49:49Z</time>
      </trkpt>
      <trkpt lat="44.20984" lon="0.62909">
        <ele>53.799999237061</ele>
        <time>2021-08-06T08:49:50Z</time>
      </trkpt>
      <trkpt lat="44.20987" lon="0.62939">
        <ele>53.400001525879</ele>
        <time>2021-08-06T08:49:58Z</time>
      </trkpt>
      <trkpt lat="44.20994" lon="0.62986">
        <ele>50</ele>
        <time>2021-08-06T08:50:11Z</time>
      </trkpt>
      <trkpt lat="44.21003" lon="0.63029">
        <ele>50</ele>
        <time>2021-08-06T08:50:19Z</time>
      </trkpt>
      <trkpt lat="44.21009" lon="0.63082">
        <ele>50.200000762939</ele>
        <time>2021-08-06T08:50:27Z</time>
      </trkpt>
      <trkpt lat="44.21063" lon="0.63475">
        <ele>50.400001525879</ele>
        <time>2021-08-06T08:51:24Z</time>
      </trkpt>
      <trkpt lat="44.21024" lon="0.63803">
        <ele>50.599998474121</ele>
        <time>2021-08-06T08:52:09Z</time>
      </trkpt>
      <trkpt lat="44.21007" lon="0.63854">
        <ele>50.599998474121</ele>
        <time>2021-08-06T08:52:17Z</time>
      </trkpt>
      <trkpt lat="44.20989" lon="0.63889">
        <ele>50.599998474121</ele>
        <time>2021-08-06T08:52:24Z</time>
      </trkpt>
      <trkpt lat="44.20941" lon="0.63973">
        <ele>50.400001525879</ele>
        <time>2021-08-06T08:52:40Z</time>
      </trkpt>
      <trkpt lat="44.20901" lon="0.64022">
        <ele>50.400001525879</ele>
        <time>2021-08-06T08:52:49Z</time>
      </trkpt>
      <trkpt lat="44.20747" lon="0.642">
        <ele>50.799999237061</ele>
        <time>2021-08-06T08:53:27Z</time>
      </trkpt>
      <trkpt lat="44.20695" lon="0.64244">
        <ele>50.599998474121</ele>
        <time>2021-08-06T08:53:38Z</time>
      </trkpt>
      <trkpt lat="44.20641" lon="0.64275">
        <ele>50.599998474121</ele>
        <time>2021-08-06T08:53:49Z</time>
      </trkpt>
      <trkpt lat="44.20631" lon="0.64279">
        <ele>50.599998474121</ele>
        <time>2021-08-06T08:53:51Z</time>
      </trkpt>
      <trkpt lat="44.20576" lon="0.64299">
        <ele>50.599998474121</ele>
        <time>2021-08-06T08:54:02Z</time>
      </trkpt>
      <trkpt lat="44.20531" lon="0.64307">
        <ele>50.400001525879</ele>
        <time>2021-08-06T08:54:10Z</time>
      </trkpt>
      <trkpt lat="44.20427" lon="0.64306">
        <ele>50.599998474121</ele>
        <time>2021-08-06T08:54:29Z</time>
      </trkpt>
      <trkpt lat="44.20221" lon="0.64298">
        <ele>50.599998474121</ele>
        <time>2021-08-06T08:55:05Z</time>
      </trkpt>
      <trkpt lat="44.20128" lon="0.64315">
        <ele>50.200000762939</ele>
        <time>2021-08-06T08:55:23Z</time>
      </trkpt>
      <trkpt lat="44.20085" lon="0.6433">
        <ele>50</ele>
        <time>2021-08-06T08:55:32Z</time>
      </trkpt>
      <trkpt lat="44.20034" lon="0.64358">
        <ele>50</ele>
        <time>2021-08-06T08:55:42Z</time>
      </trkpt>
      <trkpt lat="44.19825" lon="0.64477">
        <ele>50.400001525879</ele>
        <time>2021-08-06T08:56:24Z</time>
      </trkpt>
      <trkpt lat="44.1978" lon="0.64505">
        <ele>50.400001525879</ele>
        <time>2021-08-06T08:56:33Z</time>
      </trkpt>
      <trkpt lat="44.1961" lon="0.64632">
        <ele>50.400001525879</ele>
        <time>2021-08-06T08:57:08Z</time>
      </trkpt>
      <trkpt lat="44.19573" lon="0.64678">
        <ele>50.400001525879</ele>
        <time>2021-08-06T08:57:17Z</time>
      </trkpt>
      <trkpt lat="44.19445" lon="0.64892">
        <ele>50</ele>
        <time>2021-08-06T08:57:53Z</time>
      </trkpt>
      <trkpt lat="44.19356" lon="0.6505">
        <ele>50.599998474121</ele>
        <time>2021-08-06T08:58:20Z</time>
      </trkpt>
      <trkpt lat="44.19232" lon="0.65262">
        <ele>50.599998474121</ele>
        <time>2021-08-06T08:58:56Z</time>
      </trkpt>
      <trkpt lat="44.19114" lon="0.65351">
        <ele>50</ele>
        <time>2021-08-06T08:59:29Z</time>
      </trkpt>
      <trkpt lat="44.19105" lon="0.65352">
        <ele>50.200000762939</ele>
        <time>2021-08-06T08:59:32Z</time>
      </trkpt>
      <trkpt lat="44.19048" lon="0.65315">
        <ele>51.799999237061</ele>
        <time>2021-08-06T08:59:54Z</time>
      </trkpt>
      <trkpt lat="44.19025" lon="0.65292">
        <ele>51.599998474121</ele>
        <time>2021-08-06T08:59:59Z</time>
      </trkpt>
      <trkpt lat="44.18996" lon="0.65259">
        <ele>51</ele>
        <time>2021-08-06T09:00:06Z</time>
      </trkpt>
      <trkpt lat="44.18982" lon="0.6525">
        <ele>50.799999237061</ele>
        <time>2021-08-06T09:00:09Z</time>
      </trkpt>
      <trkpt lat="44.18964" lon="0.65251">
        <ele>50.799999237061</ele>
        <time>2021-08-06T09:00:13Z</time>
      </trkpt>
      <trkpt lat="44.18957" lon="0.65257">
        <ele>50.599998474121</ele>
        <time>2021-08-06T09:00:15Z</time>
      </trkpt>
      <trkpt lat="44.18937" lon="0.65241">
        <ele>50.599998474121</ele>
        <time>2021-08-06T09:00:21Z</time>
      </trkpt>
      <trkpt lat="44.18934" lon="0.65229">
        <ele>50.799999237061</ele>
        <time>2021-08-06T09:00:23Z</time>
      </trkpt>
      <trkpt lat="44.1875" lon="0.65233">
        <ele>51.200000762939</ele>
        <time>2021-08-06T09:01:02Z</time>
      </trkpt>
      <trkpt lat="44.18661" lon="0.65291">
        <ele>50.799999237061</ele>
        <time>2021-08-06T09:01:21Z</time>
      </trkpt>
      <trkpt lat="44.18612" lon="0.65367">
        <ele>50.599998474121</ele>
        <time>2021-08-06T09:01:34Z</time>
      </trkpt>
      <trkpt lat="44.18203" lon="0.6595">
        <ele>50</ele>
        <time>2021-08-06T09:03:14Z</time>
      </trkpt>
      <trkpt lat="44.17737" lon="0.66392">
        <ele>49.400001525879</ele>
        <time>2021-08-06T09:04:52Z</time>
      </trkpt>
      <trkpt lat="44.17632" lon="0.66491">
        <ele>49</ele>
        <time>2021-08-06T09:05:34Z</time>
      </trkpt>
      <trkpt lat="44.17646" lon="0.66485">
        <ele>48</ele>
        <time>2021-08-06T09:14:41Z</time>
      </trkpt>
      <trkpt lat="44.17704" lon="0.66445">
        <ele>48.799999237061</ele>
        <time>2021-08-06T09:15:06Z</time>
      </trkpt>
      <trkpt lat="44.17712" lon="0.66427">
        <ele>49</ele>
        <time>2021-08-06T09:15:11Z</time>
      </trkpt>
      <trkpt lat="44.17784" lon="0.66501">
        <ele>48.799999237061</ele>
        <time>2021-08-06T09:15:46Z</time>
      </trkpt>
      <trkpt lat="44.17803" lon="0.66597">
        <ele>48.799999237061</ele>
        <time>2021-08-06T09:16:02Z</time>
      </trkpt>
      <trkpt lat="44.17812" lon="0.66644">
        <ele>48.599998474121</ele>
        <time>2021-08-06T09:16:09Z</time>
      </trkpt>
      <trkpt lat="44.17897" lon="0.66781">
        <ele>48.799999237061</ele>
        <time>2021-08-06T09:16:35Z</time>
      </trkpt>
      <trkpt lat="44.17932" lon="0.66807">
        <ele>49.200000762939</ele>
        <time>2021-08-06T09:16:43Z</time>
      </trkpt>
      <trkpt lat="44.18071" lon="0.66908">
        <ele>49.200000762939</ele>
        <time>2021-08-06T09:17:15Z</time>
      </trkpt>
      <trkpt lat="44.18115" lon="0.66928">
        <ele>49.400001525879</ele>
        <time>2021-08-06T09:17:24Z</time>
      </trkpt>
      <trkpt lat="44.18213" lon="0.66992">
        <ele>49.799999237061</ele>
        <time>2021-08-06T09:17:52Z</time>
      </trkpt>
      <trkpt lat="44.18248" lon="0.67031">
        <ele>50</ele>
        <time>2021-08-06T09:18:04Z</time>
      </trkpt>
      <trkpt lat="44.18225" lon="0.67071">
        <ele>50.599998474121</ele>
        <time>2021-08-06T09:18:16Z</time>
      </trkpt>
      <trkpt lat="44.18208" lon="0.67096">
        <ele>51</ele>
        <time>2021-08-06T09:18:21Z</time>
      </trkpt>
      <trkpt lat="44.18126" lon="0.67204">
        <ele>50.799999237061</ele>
        <time>2021-08-06T09:19:01Z</time>
      </trkpt>
      <trkpt lat="44.18093" lon="0.67184">
        <ele>51.200000762939</ele>
        <time>2021-08-06T09:19:14Z</time>
      </trkpt>
      <trkpt lat="44.18081" lon="0.67128">
        <ele>51.599998474121</ele>
        <time>2021-08-06T10:03:27Z</time>
      </trkpt>
      <trkpt lat="44.18095" lon="0.67193">
        <ele>52.200000762939</ele>
        <time>2021-08-06T10:03:59Z</time>
      </trkpt>
      <trkpt lat="44.18134" lon="0.67231">
        <ele>52.200000762939</ele>
        <time>2021-08-06T10:04:14Z</time>
      </trkpt>
      <trkpt lat="44.18175" lon="0.6719">
        <ele>52.799999237061</ele>
        <time>2021-08-06T10:04:39Z</time>
      </trkpt>
      <trkpt lat="44.18125" lon="0.6727">
        <ele>53.400001525879</ele>
        <time>2021-08-06T10:05:04Z</time>
      </trkpt>
      <trkpt lat="44.18102" lon="0.67298">
        <ele>53.599998474121</ele>
        <time>2021-08-06T10:05:13Z</time>
      </trkpt>
      <trkpt lat="44.18057" lon="0.67459">
        <ele>54</ele>
        <time>2021-08-06T10:05:48Z</time>
      </trkpt>
      <trkpt lat="44.17894" lon="0.67797">
        <ele>54.400001525879</ele>
        <time>2021-08-06T10:07:04Z</time>
      </trkpt>
      <trkpt lat="44.17851" lon="0.67773">
        <ele>54.200000762939</ele>
        <time>2021-08-06T10:07:27Z</time>
      </trkpt>
      <trkpt lat="44.17777" lon="0.67512">
        <ele>54.200000762939</ele>
        <time>2021-08-06T10:08:04Z</time>
      </trkpt>
      <trkpt lat="44.17729" lon="0.67422">
        <ele>53.400001525879</ele>
        <time>2021-08-06T10:08:18Z</time>
      </trkpt>
      <trkpt lat="44.17649" lon="0.67329">
        <ele>52.200000762939</ele>
        <time>2021-08-06T10:08:42Z</time>
      </trkpt>
      <trkpt lat="44.17505" lon="0.67191">
        <ele>51</ele>
        <time>2021-08-06T10:10:02Z</time>
      </trkpt>
      <trkpt lat="44.17499" lon="0.67183">
        <ele>51.200000762939</ele>
        <time>2021-08-06T10:10:04Z</time>
      </trkpt>
      <trkpt lat="44.17407" lon="0.67119">
        <ele>46.599998474121</ele>
        <time>2021-08-06T10:11:38Z</time>
      </trkpt>
      <trkpt lat="44.17404" lon="0.67128">
        <ele>46.599998474121</ele>
        <time>2021-08-06T10:11:40Z</time>
      </trkpt>
      <trkpt lat="44.17328" lon="0.67031">
        <ele>47.200000762939</ele>
        <time>2021-08-06T10:12:21Z</time>
      </trkpt>
      <trkpt lat="44.17315" lon="0.67012">
        <ele>49.599998474121</ele>
        <time>2021-08-06T10:13:13Z</time>
      </trkpt>
      <trkpt lat="44.1728" lon="0.67206">
        <ele>50</ele>
        <time>2021-08-06T10:13:52Z</time>
      </trkpt>
      <trkpt lat="44.17162" lon="0.67997">
        <ele>50.799999237061</ele>
        <time>2021-08-06T10:15:40Z</time>
      </trkpt>
      <trkpt lat="44.17154" lon="0.68059">
        <ele>50.599998474121</ele>
        <time>2021-08-06T10:15:49Z</time>
      </trkpt>
      <trkpt lat="44.17138" lon="0.68204">
        <ele>50.599998474121</ele>
        <time>2021-08-06T10:16:08Z</time>
      </trkpt>
      <trkpt lat="44.17133" lon="0.68266">
        <ele>50.599998474121</ele>
        <time>2021-08-06T10:16:16Z</time>
      </trkpt>
      <trkpt lat="44.17119" lon="0.68333">
        <ele>50.799999237061</ele>
        <time>2021-08-06T10:16:25Z</time>
      </trkpt>
      <trkpt lat="44.17103" lon="0.68411">
        <ele>51</ele>
        <time>2021-08-06T10:16:35Z</time>
      </trkpt>
      <trkpt lat="44.17096" lon="0.68499">
        <ele>51.200000762939</ele>
        <time>2021-08-06T10:16:48Z</time>
      </trkpt>
      <trkpt lat="44.1709" lon="0.68552">
        <ele>53.799999237061</ele>
        <time>2021-08-06T10:17:20Z</time>
      </trkpt>
      <trkpt lat="44.17046" lon="0.68772">
        <ele>50.799999237061</ele>
        <time>2021-08-06T10:17:45Z</time>
      </trkpt>
      <trkpt lat="44.17024" lon="0.68842">
        <ele>50.599998474121</ele>
        <time>2021-08-06T10:17:54Z</time>
      </trkpt>
      <trkpt lat="44.17" lon="0.68907">
        <ele>50.599998474121</ele>
        <time>2021-08-06T10:18:03Z</time>
      </trkpt>
      <trkpt lat="44.16978" lon="0.68962">
        <ele>50.799999237061</ele>
        <time>2021-08-06T10:18:11Z</time>
      </trkpt>
      <trkpt lat="44.16894" lon="0.6914">
        <ele>50.200000762939</ele>
        <time>2021-08-06T10:18:47Z</time>
      </trkpt>
      <trkpt lat="44.16658" lon="0.69655">
        <ele>52.400001525879</ele>
        <time>2021-08-06T10:20:19Z</time>
      </trkpt>
      <trkpt lat="44.16521" lon="0.69939">
        <ele>50.400001525879</ele>
        <time>2021-08-06T10:21:05Z</time>
      </trkpt>
      <trkpt lat="44.16498" lon="0.70066">
        <ele>50.799999237061</ele>
        <time>2021-08-06T10:21:22Z</time>
      </trkpt>
      <trkpt lat="44.16407" lon="0.70158">
        <ele>50.400001525879</ele>
        <time>2021-08-06T10:21:50Z</time>
      </trkpt>
      <trkpt lat="44.16157" lon="0.7066">
        <ele>50.200000762939</ele>
        <time>2021-08-06T10:23:17Z</time>
      </trkpt>
      <trkpt lat="44.16122" lon="0.70735">
        <ele>50.200000762939</ele>
        <time>2021-08-06T10:23:29Z</time>
      </trkpt>
      <trkpt lat="44.16015" lon="0.70987">
        <ele>52.400001525879</ele>
        <time>2021-08-06T10:24:20Z</time>
      </trkpt>
      <trkpt lat="44.1594" lon="0.7117">
        <ele>51.200000762939</ele>
        <time>2021-08-06T10:24:45Z</time>
      </trkpt>
      <trkpt lat="44.15877" lon="0.71357">
        <ele>49.799999237061</ele>
        <time>2021-08-06T10:29:02Z</time>
      </trkpt>
      <trkpt lat="44.15869" lon="0.71372">
        <ele>49.799999237061</ele>
        <time>2021-08-06T10:29:07Z</time>
      </trkpt>
      <trkpt lat="44.15828" lon="0.71467">
        <ele>50.599998474121</ele>
        <time>2021-08-06T10:29:25Z</time>
      </trkpt>
      <trkpt lat="44.15813" lon="0.71517">
        <ele>50.799999237061</ele>
        <time>2021-08-06T10:29:33Z</time>
      </trkpt>
      <trkpt lat="44.15777" lon="0.71662">
        <ele>50.799999237061</ele>
        <time>2021-08-06T10:29:56Z</time>
      </trkpt>
      <trkpt lat="44.15732" lon="0.71936">
        <ele>53.599998474121</ele>
        <time>2021-08-06T10:30:46Z</time>
      </trkpt>
      <trkpt lat="44.15731" lon="0.71943">
        <ele>53.799999237061</ele>
        <time>2021-08-06T10:30:47Z</time>
      </trkpt>
      <trkpt lat="44.15723" lon="0.71974">
        <ele>53.599998474121</ele>
        <time>2021-08-06T10:30:51Z</time>
      </trkpt>
      <trkpt lat="44.15711" lon="0.72045">
        <ele>52.799999237061</ele>
        <time>2021-08-06T10:31:00Z</time>
      </trkpt>
      <trkpt lat="44.15697" lon="0.72136">
        <ele>52.599998474121</ele>
        <time>2021-08-06T10:31:12Z</time>
      </trkpt>
      <trkpt lat="44.15679" lon="0.72212">
        <ele>52.799999237061</ele>
        <time>2021-08-06T10:31:22Z</time>
      </trkpt>
      <trkpt lat="44.15606" lon="0.725">
        <ele>53.200000762939</ele>
        <time>2021-08-06T10:31:59Z</time>
      </trkpt>
      <trkpt lat="44.15589" lon="0.72655">
        <ele>53.200000762939</ele>
        <time>2021-08-06T10:32:18Z</time>
      </trkpt>
      <trkpt lat="44.15569" lon="0.73149">
        <ele>52.799999237061</ele>
        <time>2021-08-06T10:33:18Z</time>
      </trkpt>
      <trkpt lat="44.15554" lon="0.73237">
        <ele>53.400001525879</ele>
        <time>2021-08-06T10:33:29Z</time>
      </trkpt>
      <trkpt lat="44.1554" lon="0.73299">
        <ele>53.200000762939</ele>
        <time>2021-08-06T10:33:37Z</time>
      </trkpt>
      <trkpt lat="44.15504" lon="0.73417">
        <ele>52.799999237061</ele>
        <time>2021-08-06T10:33:53Z</time>
      </trkpt>
      <trkpt lat="44.15456" lon="0.73567">
        <ele>52.599998474121</ele>
        <time>2021-08-06T10:34:13Z</time>
      </trkpt>
      <trkpt lat="44.15453" lon="0.73574">
        <ele>52.400001525879</ele>
        <time>2021-08-06T10:34:14Z</time>
      </trkpt>
      <trkpt lat="44.15425" lon="0.73646">
        <ele>52.599998474121</ele>
        <time>2021-08-06T10:34:24Z</time>
      </trkpt>
      <trkpt lat="44.154" lon="0.73728">
        <ele>52.599998474121</ele>
        <time>2021-08-06T10:34:36Z</time>
      </trkpt>
      <trkpt lat="44.15238" lon="0.74395">
        <ele>54.599998474121</ele>
        <time>2021-08-06T10:36:12Z</time>
      </trkpt>
      <trkpt lat="44.1505" lon="0.75013">
        <ele>52.799999237061</ele>
        <time>2021-08-06T10:37:28Z</time>
      </trkpt>
      <trkpt lat="44.14945" lon="0.75553">
        <ele>52.400001525879</ele>
        <time>2021-08-06T10:38:38Z</time>
      </trkpt>
      <trkpt lat="44.14925" lon="0.75619">
        <ele>52.799999237061</ele>
        <time>2021-08-06T10:38:50Z</time>
      </trkpt>
      <trkpt lat="44.14914" lon="0.75661">
        <ele>54.400001525879</ele>
        <time>2021-08-06T10:39:10Z</time>
      </trkpt>
      <trkpt lat="44.14887" lon="0.7567">
        <ele>55.400001525879</ele>
        <time>2021-08-06T10:39:26Z</time>
      </trkpt>
      <trkpt lat="44.14699" lon="0.7639">
        <ele>54.799999237061</ele>
        <time>2021-08-06T10:41:03Z</time>
      </trkpt>
      <trkpt lat="44.14463" lon="0.77313">
        <ele>54.599998474121</ele>
        <time>2021-08-06T10:43:00Z</time>
      </trkpt>
      <trkpt lat="44.14375" lon="0.77674">
        <ele>55</ele>
        <time>2021-08-06T10:43:46Z</time>
      </trkpt>
      <trkpt lat="44.1437" lon="0.7771">
        <ele>55.400001525879</ele>
        <time>2021-08-06T10:43:53Z</time>
      </trkpt>
      <trkpt lat="44.14401" lon="0.7773">
        <ele>58.200000762939</ele>
        <time>2021-08-06T10:44:07Z</time>
      </trkpt>
      <trkpt lat="44.14398" lon="0.77774">
        <ele>58</ele>
        <time>2021-08-06T10:44:13Z</time>
      </trkpt>
      <trkpt lat="44.14389" lon="0.77841">
        <ele>56.799999237061</ele>
        <time>2021-08-06T10:44:20Z</time>
      </trkpt>
      <trkpt lat="44.1439" lon="0.78002">
        <ele>55.599998474121</ele>
        <time>2021-08-06T10:44:38Z</time>
      </trkpt>
      <trkpt lat="44.1442" lon="0.78488">
        <ele>56</ele>
        <time>2021-08-06T10:45:35Z</time>
      </trkpt>
      <trkpt lat="44.14425" lon="0.78553">
        <ele>55.799999237061</ele>
        <time>2021-08-06T10:45:43Z</time>
      </trkpt>
      <trkpt lat="44.14454" lon="0.78921">
        <ele>55.599998474121</ele>
        <time>2021-08-06T10:46:26Z</time>
      </trkpt>
      <trkpt lat="44.14456" lon="0.78929">
        <ele>55.599998474121</ele>
        <time>2021-08-06T10:46:27Z</time>
      </trkpt>
      <trkpt lat="44.14469" lon="0.79019">
        <ele>55.599998474121</ele>
        <time>2021-08-06T10:46:38Z</time>
      </trkpt>
      <trkpt lat="44.14485" lon="0.79085">
        <ele>55.799999237061</ele>
        <time>2021-08-06T10:46:46Z</time>
      </trkpt>
      <trkpt lat="44.14515" lon="0.79218">
        <ele>55.799999237061</ele>
        <time>2021-08-06T10:47:02Z</time>
      </trkpt>
      <trkpt lat="44.14545" lon="0.79369">
        <ele>56</ele>
        <time>2021-08-06T10:47:20Z</time>
      </trkpt>
      <trkpt lat="44.14569" lon="0.79509">
        <ele>55.799999237061</ele>
        <time>2021-08-06T10:47:37Z</time>
      </trkpt>
      <trkpt lat="44.14559" lon="0.79729">
        <ele>55.400001525879</ele>
        <time>2021-08-06T10:48:22Z</time>
      </trkpt>
      <trkpt lat="44.14483" lon="0.79904">
        <ele>55.799999237061</ele>
        <time>2021-08-06T10:48:50Z</time>
      </trkpt>
      <trkpt lat="44.14363" lon="0.8021">
        <ele>56.200000762939</ele>
        <time>2021-08-06T10:49:34Z</time>
      </trkpt>
      <trkpt lat="44.14297" lon="0.804">
        <ele>55.599998474121</ele>
        <time>2021-08-06T10:50:01Z</time>
      </trkpt>
      <trkpt lat="44.14022" lon="0.81124">
        <ele>56.400001525879</ele>
        <time>2021-08-06T10:51:41Z</time>
      </trkpt>
      <trkpt lat="44.1391" lon="0.81397">
        <ele>55.799999237061</ele>
        <time>2021-08-06T10:52:19Z</time>
      </trkpt>
      <trkpt lat="44.13846" lon="0.81498">
        <ele>56</ele>
        <time>2021-08-06T10:52:35Z</time>
      </trkpt>
      <trkpt lat="44.13803" lon="0.81553">
        <ele>55.799999237061</ele>
        <time>2021-08-06T10:52:48Z</time>
      </trkpt>
      <trkpt lat="44.13788" lon="0.81587">
        <ele>55.200000762939</ele>
        <time>2021-08-06T10:52:59Z</time>
      </trkpt>
      <trkpt lat="44.13762" lon="0.81607">
        <ele>56.200000762939</ele>
        <time>2021-08-06T10:53:15Z</time>
      </trkpt>
      <trkpt lat="44.13747" lon="0.816">
        <ele>57</ele>
        <time>2021-08-06T10:53:22Z</time>
      </trkpt>
      <trkpt lat="44.13723" lon="0.81564">
        <ele>58.799999237061</ele>
        <time>2021-08-06T10:53:38Z</time>
      </trkpt>
      <trkpt lat="44.13712" lon="0.81556">
        <ele>58.599998474121</ele>
        <time>2021-08-06T10:53:44Z</time>
      </trkpt>
      <trkpt lat="44.13708" lon="0.81572">
        <ele>57.200000762939</ele>
        <time>2021-08-06T10:53:50Z</time>
      </trkpt>
      <trkpt lat="44.13701" lon="0.81585">
        <ele>56.599998474121</ele>
        <time>2021-08-06T10:53:53Z</time>
      </trkpt>
      <trkpt lat="44.13664" lon="0.81632">
        <ele>55.400001525879</ele>
        <time>2021-08-06T10:55:09Z</time>
      </trkpt>
      <trkpt lat="44.13539" lon="0.81791">
        <ele>56.200000762939</ele>
        <time>2021-08-06T10:56:01Z</time>
      </trkpt>
      <trkpt lat="44.13494" lon="0.81839">
        <ele>56.200000762939</ele>
        <time>2021-08-06T10:57:43Z</time>
      </trkpt>
      <trkpt lat="44.13335" lon="0.82105">
        <ele>57</ele>
        <time>2021-08-06T10:58:29Z</time>
      </trkpt>
      <trkpt lat="44.1329" lon="0.82201">
        <ele>57</ele>
        <time>2021-08-06T10:58:44Z</time>
      </trkpt>
      <trkpt lat="44.13205" lon="0.82381">
        <ele>57</ele>
        <time>2021-08-06T10:59:27Z</time>
      </trkpt>
      <trkpt lat="44.13187" lon="0.82423">
        <ele>57.400001525879</ele>
        <time>2021-08-06T10:59:35Z</time>
      </trkpt>
      <trkpt lat="44.13132" lon="0.8256">
        <ele>57.599998474121</ele>
        <time>2021-08-06T10:59:57Z</time>
      </trkpt>
      <trkpt lat="44.13114" lon="0.82634">
        <ele>57.599998474121</ele>
        <time>2021-08-06T11:00:07Z</time>
      </trkpt>
      <trkpt lat="44.12822" lon="0.83343">
        <ele>57.799999237061</ele>
        <time>2021-08-06T11:02:00Z</time>
      </trkpt>
      <trkpt lat="44.12794" lon="0.83406">
        <ele>60.200000762939</ele>
        <time>2021-08-06T11:57:08Z</time>
      </trkpt>
      <trkpt lat="44.12792" lon="0.8341">
        <ele>60.200000762939</ele>
        <time>2021-08-06T11:57:10Z</time>
      </trkpt>
      <trkpt lat="44.12781" lon="0.83436">
        <ele>60.200000762939</ele>
        <time>2021-08-06T11:57:18Z</time>
      </trkpt>
      <trkpt lat="44.12735" lon="0.83541">
        <ele>60.799999237061</ele>
        <time>2021-08-06T11:57:42Z</time>
      </trkpt>
      <trkpt lat="44.12714" lon="0.836">
        <ele>61.200000762939</ele>
        <time>2021-08-06T11:57:52Z</time>
      </trkpt>
      <trkpt lat="44.1269" lon="0.83666">
        <ele>61.200000762939</ele>
        <time>2021-08-06T11:58:03Z</time>
      </trkpt>
      <trkpt lat="44.12669" lon="0.83713">
        <ele>61.400001525879</ele>
        <time>2021-08-06T11:58:11Z</time>
      </trkpt>
      <trkpt lat="44.1251" lon="0.84108">
        <ele>61.599998474121</ele>
        <time>2021-08-06T11:59:14Z</time>
      </trkpt>
      <trkpt lat="44.1243" lon="0.84247">
        <ele>62</ele>
        <time>2021-08-06T11:59:38Z</time>
      </trkpt>
      <trkpt lat="44.12315" lon="0.844">
        <ele>62.200000762939</ele>
        <time>2021-08-06T12:00:07Z</time>
      </trkpt>
      <trkpt lat="44.12307" lon="0.84407">
        <ele>62.200000762939</ele>
        <time>2021-08-06T12:00:09Z</time>
      </trkpt>
      <trkpt lat="44.12274" lon="0.8444">
        <ele>62</ele>
        <time>2021-08-06T12:00:16Z</time>
      </trkpt>
      <trkpt lat="44.12208" lon="0.84524">
        <ele>61.799999237061</ele>
        <time>2021-08-06T12:00:32Z</time>
      </trkpt>
      <trkpt lat="44.1211" lon="0.84645">
        <ele>61.599998474121</ele>
        <time>2021-08-06T12:01:01Z</time>
      </trkpt>
      <trkpt lat="44.11992" lon="0.8478">
        <ele>62</ele>
        <time>2021-08-06T12:01:35Z</time>
      </trkpt>
      <trkpt lat="44.11884" lon="0.84912">
        <ele>62</ele>
        <time>2021-08-06T12:02:03Z</time>
      </trkpt>
      <trkpt lat="44.11779" lon="0.85063">
        <ele>62.200000762939</ele>
        <time>2021-08-06T12:02:31Z</time>
      </trkpt>
      <trkpt lat="44.11752" lon="0.85125">
        <ele>62.200000762939</ele>
        <time>2021-08-06T12:02:41Z</time>
      </trkpt>
      <trkpt lat="44.11741" lon="0.85169">
        <ele>62.400001525879</ele>
        <time>2021-08-06T12:02:47Z</time>
      </trkpt>
      <trkpt lat="44.11726" lon="0.85234">
        <ele>62.400001525879</ele>
        <time>2021-08-06T12:02:56Z</time>
      </trkpt>
      <trkpt lat="44.11721" lon="0.85284">
        <ele>62.200000762939</ele>
        <time>2021-08-06T12:03:03Z</time>
      </trkpt>
      <trkpt lat="44.11713" lon="0.85368">
        <ele>62.200000762939</ele>
        <time>2021-08-06T12:03:14Z</time>
      </trkpt>
      <trkpt lat="44.1169" lon="0.85495">
        <ele>61.799999237061</ele>
        <time>2021-08-06T12:03:32Z</time>
      </trkpt>
      <trkpt lat="44.11623" lon="0.86075">
        <ele>62.799999237061</ele>
        <time>2021-08-06T12:04:51Z</time>
      </trkpt>
      <trkpt lat="44.11611" lon="0.8618">
        <ele>63</ele>
        <time>2021-08-06T12:05:05Z</time>
      </trkpt>
      <trkpt lat="44.11577" lon="0.86446">
        <ele>62.599998474121</ele>
        <time>2021-08-06T12:05:41Z</time>
      </trkpt>
      <trkpt lat="44.11574" lon="0.86484">
        <ele>62.599998474121</ele>
        <time>2021-08-06T12:05:46Z</time>
      </trkpt>
      <trkpt lat="44.11565" lon="0.8653">
        <ele>62.599998474121</ele>
        <time>2021-08-06T12:05:53Z</time>
      </trkpt>
      <trkpt lat="44.11563" lon="0.86566">
        <ele>62.799999237061</ele>
        <time>2021-08-06T12:05:59Z</time>
      </trkpt>
      <trkpt lat="44.11557" lon="0.86616">
        <ele>63.200000762939</ele>
        <time>2021-08-06T12:06:07Z</time>
      </trkpt>
      <trkpt lat="44.11541" lon="0.86725">
        <ele>63.799999237061</ele>
        <time>2021-08-06T12:06:22Z</time>
      </trkpt>
      <trkpt lat="44.11531" lon="0.86903">
        <ele>63.400001525879</ele>
        <time>2021-08-06T12:06:46Z</time>
      </trkpt>
      <trkpt lat="44.11515" lon="0.86968">
        <ele>63.400001525879</ele>
        <time>2021-08-06T12:06:55Z</time>
      </trkpt>
      <trkpt lat="44.1148" lon="0.87074">
        <ele>63.599998474121</ele>
        <time>2021-08-06T12:07:11Z</time>
      </trkpt>
      <trkpt lat="44.11434" lon="0.87129">
        <ele>61.599998474121</ele>
        <time>2021-08-06T12:07:30Z</time>
      </trkpt>
      <trkpt lat="44.11405" lon="0.87151">
        <ele>62</ele>
        <time>2021-08-06T12:07:40Z</time>
      </trkpt>
      <trkpt lat="44.11326" lon="0.87172">
        <ele>63</ele>
        <time>2021-08-06T12:07:58Z</time>
      </trkpt>
      <trkpt lat="44.11295" lon="0.87182">
        <ele>62.200000762939</ele>
        <time>2021-08-06T12:08:09Z</time>
      </trkpt>
      <trkpt lat="44.11122" lon="0.87297">
        <ele>63</ele>
        <time>2021-08-06T12:08:57Z</time>
      </trkpt>
      <trkpt lat="44.11095" lon="0.87356">
        <ele>62.400001525879</ele>
        <time>2021-08-06T12:11:24Z</time>
      </trkpt>
      <trkpt lat="44.11071" lon="0.87447">
        <ele>62.799999237061</ele>
        <time>2021-08-06T12:11:45Z</time>
      </trkpt>
      <trkpt lat="44.10965" lon="0.87634">
        <ele>63</ele>
        <time>2021-08-06T12:12:19Z</time>
      </trkpt>
      <trkpt lat="44.10834" lon="0.8797">
        <ele>63.799999237061</ele>
        <time>2021-08-06T12:13:08Z</time>
      </trkpt>
      <trkpt lat="44.10769" lon="0.88144">
        <ele>63.799999237061</ele>
        <time>2021-08-06T12:13:33Z</time>
      </trkpt>
      <trkpt lat="44.10745" lon="0.88197">
        <ele>63.799999237061</ele>
        <time>2021-08-06T12:13:41Z</time>
      </trkpt>
      <trkpt lat="44.10725" lon="0.8826">
        <ele>63.599998474121</ele>
        <time>2021-08-06T12:13:49Z</time>
      </trkpt>
      <trkpt lat="44.10601" lon="0.88572">
        <ele>63.599998474121</ele>
        <time>2021-08-06T12:14:36Z</time>
      </trkpt>
      <trkpt lat="44.10596" lon="0.88583">
        <ele>63.599998474121</ele>
        <time>2021-08-06T12:14:38Z</time>
      </trkpt>
      <trkpt lat="44.10543" lon="0.886">
        <ele>62.400001525879</ele>
        <time>2021-08-06T12:15:02Z</time>
      </trkpt>
      <trkpt lat="44.10563" lon="0.88617">
        <ele>63.799999237061</ele>
        <time>2021-08-06T12:15:13Z</time>
      </trkpt>
      <trkpt lat="44.10501" lon="0.88806">
        <ele>63.599998474121</ele>
        <time>2021-08-06T12:15:49Z</time>
      </trkpt>
      <trkpt lat="44.10419" lon="0.89025">
        <ele>64.199996948242</ele>
        <time>2021-08-06T12:16:25Z</time>
      </trkpt>
      <trkpt lat="44.10418" lon="0.89031">
        <ele>64.199996948242</ele>
        <time>2021-08-06T12:16:26Z</time>
      </trkpt>
      <trkpt lat="44.10415" lon="0.89076">
        <ele>64</ele>
        <time>2021-08-06T12:16:33Z</time>
      </trkpt>
      <trkpt lat="44.10418" lon="0.89228">
        <ele>64.199996948242</ele>
        <time>2021-08-06T12:16:51Z</time>
      </trkpt>
      <trkpt lat="44.10422" lon="0.89268">
        <ele>64.199996948242</ele>
        <time>2021-08-06T12:16:59Z</time>
      </trkpt>
      <trkpt lat="44.10413" lon="0.89311">
        <ele>65.400001525879</ele>
        <time>2021-08-06T12:17:12Z</time>
      </trkpt>
      <trkpt lat="44.1041" lon="0.89335">
        <ele>65.400001525879</ele>
        <time>2021-08-06T12:17:16Z</time>
      </trkpt>
      <trkpt lat="44.10416" lon="0.89478">
        <ele>64.800003051758</ele>
        <time>2021-08-06T12:17:36Z</time>
      </trkpt>
      <trkpt lat="44.10417" lon="0.89798">
        <ele>65</ele>
        <time>2021-08-06T12:18:18Z</time>
      </trkpt>
      <trkpt lat="44.10416" lon="0.89805">
        <ele>65</ele>
        <time>2021-08-06T12:18:19Z</time>
      </trkpt>
      <trkpt lat="44.10392" lon="0.89995">
        <ele>65.199996948242</ele>
        <time>2021-08-06T12:18:45Z</time>
      </trkpt>
      <trkpt lat="44.10357" lon="0.90102">
        <ele>65.400001525879</ele>
        <time>2021-08-06T12:19:01Z</time>
      </trkpt>
      <trkpt lat="44.103" lon="0.90396">
        <ele>66.199996948242</ele>
        <time>2021-08-06T12:19:41Z</time>
      </trkpt>
      <trkpt lat="44.10284" lon="0.90457">
        <ele>66.400001525879</ele>
        <time>2021-08-06T12:19:49Z</time>
      </trkpt>
      <trkpt lat="44.10203" lon="0.90775">
        <ele>66.199996948242</ele>
        <time>2021-08-06T12:20:32Z</time>
      </trkpt>
      <trkpt lat="44.10173" lon="0.90896">
        <ele>66.400001525879</ele>
        <time>2021-08-06T12:20:49Z</time>
      </trkpt>
      <trkpt lat="44.10127" lon="0.9111">
        <ele>66.599998474121</ele>
        <time>2021-08-06T12:21:17Z</time>
      </trkpt>
      <trkpt lat="44.10092" lon="0.91228">
        <ele>66.599998474121</ele>
        <time>2021-08-06T12:21:33Z</time>
      </trkpt>
      <trkpt lat="44.10033" lon="0.91499">
        <ele>66.599998474121</ele>
        <time>2021-08-06T12:22:08Z</time>
      </trkpt>
      <trkpt lat="44.10022" lon="0.91552">
        <ele>66.800003051758</ele>
        <time>2021-08-06T12:22:15Z</time>
      </trkpt>
      <trkpt lat="44.10002" lon="0.91681">
        <ele>67.599998474121</ele>
        <time>2021-08-06T12:22:37Z</time>
      </trkpt>
      <trkpt lat="44.09985" lon="0.91831">
        <ele>67.199996948242</ele>
        <time>2021-08-06T12:22:55Z</time>
      </trkpt>
      <trkpt lat="44.09888" lon="0.92529">
        <ele>67.800003051758</ele>
        <time>2021-08-06T12:24:29Z</time>
      </trkpt>
      <trkpt lat="44.09843" lon="0.92708">
        <ele>68</ele>
        <time>2021-08-06T12:24:55Z</time>
      </trkpt>
      <trkpt lat="44.09838" lon="0.92737">
        <ele>68</ele>
        <time>2021-08-06T12:24:58Z</time>
      </trkpt>
      <trkpt lat="44.09798" lon="0.92939">
        <ele>67.599998474121</ele>
        <time>2021-08-06T12:25:34Z</time>
      </trkpt>
      <trkpt lat="44.0979" lon="0.92983">
        <ele>67.800003051758</ele>
        <time>2021-08-06T12:25:40Z</time>
      </trkpt>
      <trkpt lat="44.09781" lon="0.93057">
        <ele>68</ele>
        <time>2021-08-06T12:25:50Z</time>
      </trkpt>
      <trkpt lat="44.09748" lon="0.93187">
        <ele>68</ele>
        <time>2021-08-06T12:26:08Z</time>
      </trkpt>
      <trkpt lat="44.09686" lon="0.9345">
        <ele>68</ele>
        <time>2021-08-06T12:26:43Z</time>
      </trkpt>
      <trkpt lat="44.09657" lon="0.93566">
        <ele>68</ele>
        <time>2021-08-06T12:27:00Z</time>
      </trkpt>
      <trkpt lat="44.09644" lon="0.93631">
        <ele>68.199996948242</ele>
        <time>2021-08-06T12:27:09Z</time>
      </trkpt>
      <trkpt lat="44.09585" lon="0.93951">
        <ele>68.199996948242</ele>
        <time>2021-08-06T12:27:52Z</time>
      </trkpt>
      <trkpt lat="44.09572" lon="0.94005">
        <ele>68.199996948242</ele>
        <time>2021-08-06T12:28:00Z</time>
      </trkpt>
      <trkpt lat="44.09534" lon="0.94221">
        <ele>68.400001525879</ele>
        <time>2021-08-06T12:28:26Z</time>
      </trkpt>
      <trkpt lat="44.09531" lon="0.94239">
        <ele>68.800003051758</ele>
        <time>2021-08-06T12:28:29Z</time>
      </trkpt>
      <trkpt lat="44.09497" lon="0.94361">
        <ele>70</ele>
        <time>2021-08-06T12:28:51Z</time>
      </trkpt>
      <trkpt lat="44.09488" lon="0.94407">
        <ele>70.199996948242</ele>
        <time>2021-08-06T12:28:58Z</time>
      </trkpt>
      <trkpt lat="44.09476" lon="0.94463">
        <ele>70.599998474121</ele>
        <time>2021-08-06T12:29:06Z</time>
      </trkpt>
      <trkpt lat="44.09421" lon="0.94681">
        <ele>71</ele>
        <time>2021-08-06T12:29:35Z</time>
      </trkpt>
      <trkpt lat="44.09382" lon="0.94908">
        <ele>70.599998474121</ele>
        <time>2021-08-06T12:30:06Z</time>
      </trkpt>
      <trkpt lat="44.09345" lon="0.95047">
        <ele>72.599998474121</ele>
        <time>2021-08-06T12:31:45Z</time>
      </trkpt>
      <trkpt lat="44.09295" lon="0.9524">
        <ele>71.400001525879</ele>
        <time>2021-08-06T12:32:21Z</time>
      </trkpt>
      <trkpt lat="44.09225" lon="0.95484">
        <ele>71.599998474121</ele>
        <time>2021-08-06T12:32:55Z</time>
      </trkpt>
      <trkpt lat="44.09198" lon="0.95581">
        <ele>72</ele>
        <time>2021-08-06T12:33:14Z</time>
      </trkpt>
      <trkpt lat="44.09197" lon="0.95589">
        <ele>72</ele>
        <time>2021-08-06T12:33:15Z</time>
      </trkpt>
      <trkpt lat="44.09184" lon="0.95705">
        <ele>72</ele>
        <time>2021-08-06T12:33:28Z</time>
      </trkpt>
      <trkpt lat="44.09153" lon="0.95799">
        <ele>72.199996948242</ele>
        <time>2021-08-06T12:33:43Z</time>
      </trkpt>
      <trkpt lat="44.09089" lon="0.95966">
        <ele>72.199996948242</ele>
        <time>2021-08-06T12:34:09Z</time>
      </trkpt>
      <trkpt lat="44.09077" lon="0.96006">
        <ele>72.199996948242</ele>
        <time>2021-08-06T12:34:16Z</time>
      </trkpt>
      <trkpt lat="44.0901" lon="0.96218">
        <ele>71.199996948242</ele>
        <time>2021-08-06T12:34:52Z</time>
      </trkpt>
      <trkpt lat="44.08999" lon="0.9628">
        <ele>71.199996948242</ele>
        <time>2021-08-06T12:35:00Z</time>
      </trkpt>
      <trkpt lat="44.08982" lon="0.96364">
        <ele>71.400001525879</ele>
        <time>2021-08-06T12:35:10Z</time>
      </trkpt>
      <trkpt lat="44.08965" lon="0.96416">
        <ele>71.400001525879</ele>
        <time>2021-08-06T12:35:17Z</time>
      </trkpt>
      <trkpt lat="44.08965" lon="0.96437">
        <ele>71.400001525879</ele>
        <time>2021-08-06T12:35:20Z</time>
      </trkpt>
      <trkpt lat="44.0891" lon="0.96639">
        <ele>71</ele>
        <time>2021-08-06T12:35:48Z</time>
      </trkpt>
      <trkpt lat="44.08883" lon="0.96762">
        <ele>71</ele>
        <time>2021-08-06T12:36:05Z</time>
      </trkpt>
      <trkpt lat="44.08841" lon="0.96888">
        <ele>71</ele>
        <time>2021-08-06T12:36:25Z</time>
      </trkpt>
      <trkpt lat="44.0883" lon="0.9693">
        <ele>71.199996948242</ele>
        <time>2021-08-06T12:36:32Z</time>
      </trkpt>
      <trkpt lat="44.08757" lon="0.97123">
        <ele>70.800003051758</ele>
        <time>2021-08-06T12:37:03Z</time>
      </trkpt>
      <trkpt lat="44.08755" lon="0.9713">
        <ele>70.800003051758</ele>
        <time>2021-08-06T12:37:04Z</time>
      </trkpt>
      <trkpt lat="44.08736" lon="0.9718">
        <ele>71</ele>
        <time>2021-08-06T12:37:12Z</time>
      </trkpt>
      <trkpt lat="44.08712" lon="0.97245">
        <ele>71.199996948242</ele>
        <time>2021-08-06T12:37:28Z</time>
      </trkpt>
      <trkpt lat="44.08659" lon="0.97332">
        <ele>72</ele>
        <time>2021-08-06T12:37:47Z</time>
      </trkpt>
      <trkpt lat="44.08472" lon="0.97609">
        <ele>71.400001525879</ele>
        <time>2021-08-06T12:38:41Z</time>
      </trkpt>
      <trkpt lat="44.08384" lon="0.97837">
        <ele>69.199996948242</ele>
        <time>2021-08-06T12:39:12Z</time>
      </trkpt>
      <trkpt lat="44.0837" lon="0.97928">
        <ele>72</ele>
        <time>2021-08-06T12:39:38Z</time>
      </trkpt>
      <trkpt lat="44.08363" lon="0.97964">
        <ele>73.400001525879</ele>
        <time>2021-08-06T12:39:49Z</time>
      </trkpt>
      <trkpt lat="44.0836" lon="0.98001">
        <ele>73.400001525879</ele>
        <time>2021-08-06T12:39:55Z</time>
      </trkpt>
      <trkpt lat="44.08354" lon="0.98056">
        <ele>73.199996948242</ele>
        <time>2021-08-06T12:40:01Z</time>
      </trkpt>
      <trkpt lat="44.0839" lon="0.98377">
        <ele>72.599998474121</ele>
        <time>2021-08-06T12:40:42Z</time>
      </trkpt>
      <trkpt lat="44.08409" lon="0.9844">
        <ele>72.400001525879</ele>
        <time>2021-08-06T12:40:51Z</time>
      </trkpt>
      <trkpt lat="44.08462" lon="0.98529">
        <ele>72.599998474121</ele>
        <time>2021-08-06T12:41:07Z</time>
      </trkpt>
      <trkpt lat="44.08822" lon="0.9901">
        <ele>73</ele>
        <time>2021-08-06T12:42:41Z</time>
      </trkpt>
      <trkpt lat="44.08953" lon="0.99186">
        <ele>73.199996948242</ele>
        <time>2021-08-06T12:43:16Z</time>
      </trkpt>
      <trkpt lat="44.08977" lon="0.99237">
        <ele>73.400001525879</ele>
        <time>2021-08-06T12:43:24Z</time>
      </trkpt>
      <trkpt lat="44.09007" lon="0.99301">
        <ele>73.400001525879</ele>
        <time>2021-08-06T12:43:33Z</time>
      </trkpt>
      <trkpt lat="44.0901" lon="0.99309">
        <ele>73.599998474121</ele>
        <time>2021-08-06T12:43:34Z</time>
      </trkpt>
      <trkpt lat="44.0905" lon="0.99445">
        <ele>73.599998474121</ele>
        <time>2021-08-06T12:43:51Z</time>
      </trkpt>
      <trkpt lat="44.09066" lon="0.99582">
        <ele>73.400001525879</ele>
        <time>2021-08-06T12:44:08Z</time>
      </trkpt>
      <trkpt lat="44.09175" lon="1.00484">
        <ele>74</ele>
        <time>2021-08-06T12:46:04Z</time>
      </trkpt>
      <trkpt lat="44.09121" lon="1.00791">
        <ele>75</ele>
        <time>2021-08-06T12:46:58Z</time>
      </trkpt>
      <trkpt lat="44.09119" lon="1.0093">
        <ele>75.400001525879</ele>
        <time>2021-08-06T12:47:15Z</time>
      </trkpt>
      <trkpt lat="44.09129" lon="1.01103">
        <ele>75.199996948242</ele>
        <time>2021-08-06T12:47:36Z</time>
      </trkpt>
      <trkpt lat="44.09128" lon="1.01174">
        <ele>75.400001525879</ele>
        <time>2021-08-06T12:47:44Z</time>
      </trkpt>
      <trkpt lat="44.09145" lon="1.01507">
        <ele>74</ele>
        <time>2021-08-06T12:49:11Z</time>
      </trkpt>
      <trkpt lat="44.09185" lon="1.01686">
        <ele>74.599998474121</ele>
        <time>2021-08-06T12:49:45Z</time>
      </trkpt>
      <trkpt lat="44.0921" lon="1.01765">
        <ele>74.599998474121</ele>
        <time>2021-08-06T12:49:58Z</time>
      </trkpt>
      <trkpt lat="44.09352" lon="1.02121">
        <ele>75.400001525879</ele>
        <time>2021-08-06T12:50:51Z</time>
      </trkpt>
      <trkpt lat="44.09391" lon="1.0228">
        <ele>75.400001525879</ele>
        <time>2021-08-06T12:51:14Z</time>
      </trkpt>
      <trkpt lat="44.09399" lon="1.02388">
        <ele>75</ele>
        <time>2021-08-06T12:51:29Z</time>
      </trkpt>
      <trkpt lat="44.09396" lon="1.02513">
        <ele>75</ele>
        <time>2021-08-06T12:51:46Z</time>
      </trkpt>
      <trkpt lat="44.09383" lon="1.02628">
        <ele>75</ele>
        <time>2021-08-06T12:52:02Z</time>
      </trkpt>
      <trkpt lat="44.09376" lon="1.02683">
        <ele>75</ele>
        <time>2021-08-06T12:52:09Z</time>
      </trkpt>
      <trkpt lat="44.09343" lon="1.02804">
        <ele>75</ele>
        <time>2021-08-06T12:52:25Z</time>
      </trkpt>
      <trkpt lat="44.09286" lon="1.0298">
        <ele>75.199996948242</ele>
        <time>2021-08-06T12:52:52Z</time>
      </trkpt>
      <trkpt lat="44.09274" lon="1.03037">
        <ele>75.400001525879</ele>
        <time>2021-08-06T12:53:00Z</time>
      </trkpt>
      <trkpt lat="44.09225" lon="1.03274">
        <ele>75.800003051758</ele>
        <time>2021-08-06T12:53:33Z</time>
      </trkpt>
      <trkpt lat="44.0922" lon="1.03323">
        <ele>75.599998474121</ele>
        <time>2021-08-06T12:53:41Z</time>
      </trkpt>
      <trkpt lat="44.09205" lon="1.03536">
        <ele>76</ele>
        <time>2021-08-06T12:54:07Z</time>
      </trkpt>
      <trkpt lat="44.09174" lon="1.03687">
        <ele>75.800003051758</ele>
        <time>2021-08-06T12:54:27Z</time>
      </trkpt>
      <trkpt lat="44.09162" lon="1.03724">
        <ele>75.599998474121</ele>
        <time>2021-08-06T12:54:32Z</time>
      </trkpt>
      <trkpt lat="44.09126" lon="1.038">
        <ele>75.599998474121</ele>
        <time>2021-08-06T12:54:43Z</time>
      </trkpt>
      <trkpt lat="44.09111" lon="1.03826">
        <ele>75.599998474121</ele>
        <time>2021-08-06T12:54:47Z</time>
      </trkpt>
      <trkpt lat="44.09088" lon="1.03879">
        <ele>76</ele>
        <time>2021-08-06T12:54:56Z</time>
      </trkpt>
      <trkpt lat="44.09036" lon="1.04029">
        <ele>76.199996948242</ele>
        <time>2021-08-06T12:55:19Z</time>
      </trkpt>
      <trkpt lat="44.08999" lon="1.04231">
        <ele>76.400001525879</ele>
        <time>2021-08-06T12:55:44Z</time>
      </trkpt>
      <trkpt lat="44.09053" lon="1.04591">
        <ele>76.599998474121</ele>
        <time>2021-08-06T12:56:32Z</time>
      </trkpt>
      <trkpt lat="44.09128" lon="1.04768">
        <ele>76.400001525879</ele>
        <time>2021-08-06T12:56:59Z</time>
      </trkpt>
      <trkpt lat="44.09234" lon="1.04971">
        <ele>76.599998474121</ele>
        <time>2021-08-06T12:57:31Z</time>
      </trkpt>
      <trkpt lat="44.09369" lon="1.05221">
        <ele>76.599998474121</ele>
        <time>2021-08-06T12:58:25Z</time>
      </trkpt>
      <trkpt lat="44.09386" lon="1.05259">
        <ele>76.599998474121</ele>
        <time>2021-08-06T12:58:32Z</time>
      </trkpt>
      <trkpt lat="44.09492" lon="1.05551">
        <ele>76.800003051758</ele>
        <time>2021-08-06T12:59:17Z</time>
      </trkpt>
      <trkpt lat="44.09501" lon="1.05595">
        <ele>76.800003051758</ele>
        <time>2021-08-06T12:59:24Z</time>
      </trkpt>
      <trkpt lat="44.09522" lon="1.05708">
        <ele>76.800003051758</ele>
        <time>2021-08-06T12:59:40Z</time>
      </trkpt>
      <trkpt lat="44.09523" lon="1.05722">
        <ele>76.800003051758</ele>
        <time>2021-08-06T12:59:42Z</time>
      </trkpt>
      <trkpt lat="44.09532" lon="1.0589">
        <ele>77.199996948242</ele>
        <time>2021-08-06T13:00:07Z</time>
      </trkpt>
      <trkpt lat="44.09537" lon="1.05957">
        <ele>77</ele>
        <time>2021-08-06T13:00:17Z</time>
      </trkpt>
      <trkpt lat="44.09546" lon="1.06071">
        <ele>77.199996948242</ele>
        <time>2021-08-06T13:00:33Z</time>
      </trkpt>
      <trkpt lat="44.09691" lon="1.0646">
        <ele>77.800003051758</ele>
        <time>2021-08-06T13:01:30Z</time>
      </trkpt>
      <trkpt lat="44.09861" lon="1.06708">
        <ele>77.599998474121</ele>
        <time>2021-08-06T13:02:14Z</time>
      </trkpt>
      <trkpt lat="44.09884" lon="1.06752">
        <ele>77.800003051758</ele>
        <time>2021-08-06T13:02:21Z</time>
      </trkpt>
      <trkpt lat="44.10035" lon="1.07119">
        <ele>77.800003051758</ele>
        <time>2021-08-06T13:03:23Z</time>
      </trkpt>
      <trkpt lat="44.10038" lon="1.07115">
        <ele>78.599998474121</ele>
        <time>2021-08-06T13:10:05Z</time>
      </trkpt>
      <trkpt lat="44.10046" lon="1.07149">
        <ele>78.599998474121</ele>
        <time>2021-08-06T13:10:14Z</time>
      </trkpt>
      <trkpt lat="44.10079" lon="1.07466">
        <ele>79.800003051758</ele>
        <time>2021-08-06T13:11:16Z</time>
      </trkpt>
      <trkpt lat="44.10085" lon="1.07696">
        <ele>80.400001525879</ele>
        <time>2021-08-06T13:11:49Z</time>
      </trkpt>
      <trkpt lat="44.10076" lon="1.07811">
        <ele>80.400001525879</ele>
        <time>2021-08-06T13:12:11Z</time>
      </trkpt>
      <trkpt lat="44.10073" lon="1.07818">
        <ele>80.199996948242</ele>
        <time>2021-08-06T13:12:12Z</time>
      </trkpt>
      <trkpt lat="44.10056" lon="1.07875">
        <ele>79.800003051758</ele>
        <time>2021-08-06T13:12:20Z</time>
      </trkpt>
      <trkpt lat="44.10051" lon="1.079">
        <ele>79</ele>
        <time>2021-08-06T13:12:24Z</time>
      </trkpt>
      <trkpt lat="44.10134" lon="1.07876">
        <ele>79</ele>
        <time>2021-08-06T13:12:50Z</time>
      </trkpt>
      <trkpt lat="44.1016" lon="1.07958">
        <ele>79.400001525879</ele>
        <time>2021-08-06T13:13:05Z</time>
      </trkpt>
      <trkpt lat="44.10241" lon="1.08253">
        <ele>79.599998474121</ele>
        <time>2021-08-06T13:13:53Z</time>
      </trkpt>
      <trkpt lat="44.10221" lon="1.08261">
        <ele>79.800003051758</ele>
        <time>2021-08-06T13:14:01Z</time>
      </trkpt>
      <trkpt lat="44.10206" lon="1.08264">
        <ele>79.599998474121</ele>
        <time>2021-08-06T13:14:09Z</time>
      </trkpt>
      <trkpt lat="44.10252" lon="1.08264">
        <ele>82</ele>
        <time>2021-08-06T13:14:36Z</time>
      </trkpt>
      <trkpt lat="44.10284" lon="1.08252">
        <ele>82</ele>
        <time>2021-08-06T13:14:58Z</time>
      </trkpt>
      <trkpt lat="44.10312" lon="1.08227">
        <ele>81.800003051758</ele>
        <time>2021-08-06T13:15:06Z</time>
      </trkpt>
      <trkpt lat="44.10361" lon="1.08187">
        <ele>81.800003051758</ele>
        <time>2021-08-06T13:15:20Z</time>
      </trkpt>
      <trkpt lat="44.10407" lon="1.0825">
        <ele>82.800003051758</ele>
        <time>2021-08-06T13:15:37Z</time>
      </trkpt>
      <trkpt lat="44.10461" lon="1.08357">
        <ele>85</ele>
        <time>2021-08-06T13:16:08Z</time>
      </trkpt>
      <trkpt lat="44.10498" lon="1.08357">
        <ele>87.800003051758</ele>
        <time>2021-08-06T13:16:30Z</time>
      </trkpt>
      <trkpt lat="44.10516" lon="1.08353">
        <ele>88.400001525879</ele>
        <time>2021-08-06T13:16:39Z</time>
      </trkpt>
      <trkpt lat="44.10558" lon="1.0835">
        <ele>90.400001525879</ele>
        <time>2021-08-06T13:16:58Z</time>
      </trkpt>
      <trkpt lat="44.10615" lon="1.08356">
        <ele>91.199996948242</ele>
        <time>2021-08-06T13:17:19Z</time>
      </trkpt>
      <trkpt lat="44.10626" lon="1.08519">
        <ele>90.800003051758</ele>
        <time>2021-08-06T13:18:02Z</time>
      </trkpt>
      <trkpt lat="44.10616" lon="1.0856">
        <ele>90.199996948242</ele>
        <time>2021-08-06T13:18:11Z</time>
      </trkpt>
      <trkpt lat="44.10616" lon="1.0859">
        <ele>90</ele>
        <time>2021-08-06T13:18:16Z</time>
      </trkpt>
      <trkpt lat="44.10621" lon="1.08647">
        <ele>89</ele>
        <time>2021-08-06T13:18:23Z</time>
      </trkpt>
      <trkpt lat="44.106" lon="1.08691">
        <ele>86.199996948242</ele>
        <time>2021-08-06T13:18:40Z</time>
      </trkpt>
      <trkpt lat="44.10596" lon="1.08694">
        <ele>86</ele>
        <time>2021-08-06T13:18:43Z</time>
      </trkpt>
      <trkpt lat="44.10578" lon="1.08715">
        <ele>84.400001525879</ele>
        <time>2021-08-06T13:18:51Z</time>
      </trkpt>
      <trkpt lat="44.10561" lon="1.08661">
        <ele>82.800003051758</ele>
        <time>2021-08-06T13:19:17Z</time>
      </trkpt>
      <trkpt lat="44.1055" lon="1.08581">
        <ele>83.599998474121</ele>
        <time>2021-08-06T13:19:46Z</time>
      </trkpt>
      <trkpt lat="44.10553" lon="1.08567">
        <ele>84</ele>
        <time>2021-08-06T13:19:56Z</time>
      </trkpt>
      <trkpt lat="44.10519" lon="1.08469">
        <ele>84.800003051758</ele>
        <time>2021-08-06T13:20:29Z</time>
      </trkpt>
      <trkpt lat="44.10499" lon="1.08457">
        <ele>85</ele>
        <time>2021-08-06T13:27:56Z</time>
      </trkpt>
      <trkpt lat="44.10392" lon="1.08463">
        <ele>84.599998474121</ele>
        <time>2021-08-06T13:28:36Z</time>
      </trkpt>
      <trkpt lat="44.10351" lon="1.08523">
        <ele>83.800003051758</ele>
        <time>2021-08-06T13:29:14Z</time>
      </trkpt>
      <trkpt lat="44.10338" lon="1.08535">
        <ele>83.599998474121</ele>
        <time>2021-08-06T13:29:22Z</time>
      </trkpt>
      <trkpt lat="44.10299" lon="1.08545">
        <ele>71.199996948242</ele>
        <time>2021-08-07T07:57:11Z</time>
      </trkpt>
      <trkpt lat="44.10267" lon="1.08549">
        <ele>76.800003051758</ele>
        <time>2021-08-07T07:57:20Z</time>
      </trkpt>
      <trkpt lat="44.10229" lon="1.08575">
        <ele>76.800003051758</ele>
        <time>2021-08-07T07:57:34Z</time>
      </trkpt>
      <trkpt lat="44.10214" lon="1.08634">
        <ele>76.800003051758</ele>
        <time>2021-08-07T07:57:47Z</time>
      </trkpt>
      <trkpt lat="44.10203" lon="1.08657">
        <ele>76.800003051758</ele>
        <time>2021-08-07T07:57:53Z</time>
      </trkpt>
      <trkpt lat="44.10188" lon="1.08693">
        <ele>76.599998474121</ele>
        <time>2021-08-07T07:58:00Z</time>
      </trkpt>
      <trkpt lat="44.10165" lon="1.0876">
        <ele>76.400001525879</ele>
        <time>2021-08-07T07:58:12Z</time>
      </trkpt>
      <trkpt lat="44.10105" lon="1.08725">
        <ele>78</ele>
        <time>2021-08-07T07:58:40Z</time>
      </trkpt>
      <trkpt lat="44.10073" lon="1.08705">
        <ele>78</ele>
        <time>2021-08-07T07:58:46Z</time>
      </trkpt>
      <trkpt lat="44.10031" lon="1.08707">
        <ele>74.800003051758</ele>
        <time>2021-08-07T07:58:59Z</time>
      </trkpt>
      <trkpt lat="44.09998" lon="1.08956">
        <ele>73.599998474121</ele>
        <time>2021-08-07T07:59:46Z</time>
      </trkpt>
      <trkpt lat="44.09966" lon="1.09026">
        <ele>75.599998474121</ele>
        <time>2021-08-07T08:00:08Z</time>
      </trkpt>
      <trkpt lat="44.09978" lon="1.09065">
        <ele>76</ele>
        <time>2021-08-07T08:00:20Z</time>
      </trkpt>
      <trkpt lat="44.0999" lon="1.09098">
        <ele>76</ele>
        <time>2021-08-07T08:00:27Z</time>
      </trkpt>
      <trkpt lat="44.09989" lon="1.09234">
        <ele>76.800003051758</ele>
        <time>2021-08-07T08:00:51Z</time>
      </trkpt>
      <trkpt lat="44.09917" lon="1.09483">
        <ele>76.599998474121</ele>
        <time>2021-08-07T08:01:33Z</time>
      </trkpt>
      <trkpt lat="44.09907" lon="1.09532">
        <ele>76.800003051758</ele>
        <time>2021-08-07T08:01:41Z</time>
      </trkpt>
      <trkpt lat="44.09856" lon="1.09736">
        <ele>76.599998474121</ele>
        <time>2021-08-07T08:02:12Z</time>
      </trkpt>
      <trkpt lat="44.09813" lon="1.09858">
        <ele>76.599998474121</ele>
        <time>2021-08-07T08:02:30Z</time>
      </trkpt>
      <trkpt lat="44.09799" lon="1.09919">
        <ele>77.400001525879</ele>
        <time>2021-08-07T08:02:43Z</time>
      </trkpt>
      <trkpt lat="44.09754" lon="1.10051">
        <ele>78.199996948242</ele>
        <time>2021-08-07T08:03:11Z</time>
      </trkpt>
      <trkpt lat="44.0974" lon="1.10087">
        <ele>78</ele>
        <time>2021-08-07T08:03:17Z</time>
      </trkpt>
      <trkpt lat="44.09717" lon="1.1014">
        <ele>78.199996948242</ele>
        <time>2021-08-07T08:03:25Z</time>
      </trkpt>
      <trkpt lat="44.09682" lon="1.10228">
        <ele>78.599998474121</ele>
        <time>2021-08-07T08:03:39Z</time>
      </trkpt>
      <trkpt lat="44.09583" lon="1.10317">
        <ele>78.400001525879</ele>
        <time>2021-08-07T08:04:00Z</time>
      </trkpt>
      <trkpt lat="44.09577" lon="1.1032">
        <ele>78.400001525879</ele>
        <time>2021-08-07T08:04:01Z</time>
      </trkpt>
      <trkpt lat="44.09468" lon="1.10313">
        <ele>78.599998474121</ele>
        <time>2021-08-07T08:04:26Z</time>
      </trkpt>
      <trkpt lat="44.09351" lon="1.1028">
        <ele>80</ele>
        <time>2021-08-07T08:05:05Z</time>
      </trkpt>
      <trkpt lat="44.09197" lon="1.1025">
        <ele>80.199996948242</ele>
        <time>2021-08-07T08:06:03Z</time>
      </trkpt>
      <trkpt lat="44.08948" lon="1.1017">
        <ele>80.400001525879</ele>
        <time>2021-08-07T08:07:27Z</time>
      </trkpt>
      <trkpt lat="44.08942" lon="1.10169">
        <ele>80.400001525879</ele>
        <time>2021-08-07T08:07:28Z</time>
      </trkpt>
      <trkpt lat="44.0884" lon="1.10151">
        <ele>80.800003051758</ele>
        <time>2021-08-07T08:07:46Z</time>
      </trkpt>
      <trkpt lat="44.08738" lon="1.10124">
        <ele>81.199996948242</ele>
        <time>2021-08-07T08:08:06Z</time>
      </trkpt>
      <trkpt lat="44.08673" lon="1.10104">
        <ele>81.199996948242</ele>
        <time>2021-08-07T08:08:20Z</time>
      </trkpt>
      <trkpt lat="44.08625" lon="1.10089">
        <ele>81.199996948242</ele>
        <time>2021-08-07T08:08:29Z</time>
      </trkpt>
      <trkpt lat="44.08568" lon="1.10079">
        <ele>81.400001525879</ele>
        <time>2021-08-07T08:08:37Z</time>
      </trkpt>
      <trkpt lat="44.08526" lon="1.10069">
        <ele>81.400001525879</ele>
        <time>2021-08-07T08:08:46Z</time>
      </trkpt>
      <trkpt lat="44.08457" lon="1.10046">
        <ele>81.400001525879</ele>
        <time>2021-08-07T08:09:01Z</time>
      </trkpt>
      <trkpt lat="44.08419" lon="1.10036">
        <ele>81.599998474121</ele>
        <time>2021-08-07T08:09:07Z</time>
      </trkpt>
      <trkpt lat="44.08372" lon="1.1003">
        <ele>81.599998474121</ele>
        <time>2021-08-07T08:09:14Z</time>
      </trkpt>
      <trkpt lat="44.08121" lon="1.09973">
        <ele>82</ele>
        <time>2021-08-07T08:09:56Z</time>
      </trkpt>
      <trkpt lat="44.08076" lon="1.09959">
        <ele>82.199996948242</ele>
        <time>2021-08-07T08:10:05Z</time>
      </trkpt>
      <trkpt lat="44.07814" lon="1.09898">
        <ele>81.599998474121</ele>
        <time>2021-08-07T08:10:50Z</time>
      </trkpt>
      <trkpt lat="44.07653" lon="1.09861">
        <ele>81.400001525879</ele>
        <time>2021-08-07T08:11:21Z</time>
      </trkpt>
      <trkpt lat="44.07625" lon="1.09856">
        <ele>81.400001525879</ele>
        <time>2021-08-07T08:11:25Z</time>
      </trkpt>
      <trkpt lat="44.07551" lon="1.09843">
        <ele>81.400001525879</ele>
        <time>2021-08-07T08:11:38Z</time>
      </trkpt>
      <trkpt lat="44.07487" lon="1.09851">
        <ele>81.400001525879</ele>
        <time>2021-08-07T08:11:50Z</time>
      </trkpt>
      <trkpt lat="44.0703" lon="1.10008">
        <ele>82.800003051758</ele>
        <time>2021-08-07T08:13:21Z</time>
      </trkpt>
      <trkpt lat="44.06683" lon="1.1012">
        <ele>86.199996948242</ele>
        <time>2021-08-07T08:14:37Z</time>
      </trkpt>
      <trkpt lat="44.06392" lon="1.10219">
        <ele>87</ele>
        <time>2021-08-07T08:15:38Z</time>
      </trkpt>
      <trkpt lat="44.06315" lon="1.10245">
        <ele>87.199996948242</ele>
        <time>2021-08-07T08:15:53Z</time>
      </trkpt>
      <trkpt lat="44.05947" lon="1.10369">
        <ele>88.599998474121</ele>
        <time>2021-08-07T08:17:03Z</time>
      </trkpt>
      <trkpt lat="44.05592" lon="1.10485">
        <ele>87.599998474121</ele>
        <time>2021-08-07T08:18:10Z</time>
      </trkpt>
      <trkpt lat="44.055" lon="1.10515">
        <ele>87.800003051758</ele>
        <time>2021-08-07T08:18:27Z</time>
      </trkpt>
      <trkpt lat="44.05022" lon="1.10674">
        <ele>89.199996948242</ele>
        <time>2021-08-07T08:19:58Z</time>
      </trkpt>
      <trkpt lat="44.05018" lon="1.10676">
        <ele>89.400001525879</ele>
        <time>2021-08-07T08:19:59Z</time>
      </trkpt>
      <trkpt lat="44.04979" lon="1.1069">
        <ele>89.800003051758</ele>
        <time>2021-08-07T08:20:08Z</time>
      </trkpt>
      <trkpt lat="44.04364" lon="1.10902">
        <ele>90</ele>
        <time>2021-08-07T08:22:02Z</time>
      </trkpt>
      <trkpt lat="44.04312" lon="1.10923">
        <ele>90.199996948242</ele>
        <time>2021-08-07T08:22:13Z</time>
      </trkpt>
      <trkpt lat="44.04109" lon="1.11051">
        <ele>89.599998474121</ele>
        <time>2021-08-07T08:23:10Z</time>
      </trkpt>
      <trkpt lat="44.04071" lon="1.11095">
        <ele>89.800003051758</ele>
        <time>2021-08-07T08:23:25Z</time>
      </trkpt>
      <trkpt lat="44.04008" lon="1.11169">
        <ele>90</ele>
        <time>2021-08-07T08:23:43Z</time>
      </trkpt>
      <trkpt lat="44.03966" lon="1.11216">
        <ele>90.199996948242</ele>
        <time>2021-08-07T08:23:56Z</time>
      </trkpt>
      <trkpt lat="44.03941" lon="1.11251">
        <ele>90.199996948242</ele>
        <time>2021-08-07T08:24:05Z</time>
      </trkpt>
      <trkpt lat="44.039" lon="1.11359">
        <ele>89.199996948242</ele>
        <time>2021-08-07T08:24:37Z</time>
      </trkpt>
      <trkpt lat="44.03784" lon="1.11522">
        <ele>90.400001525879</ele>
        <time>2021-08-07T08:25:17Z</time>
      </trkpt>
      <trkpt lat="44.03806" lon="1.11552">
        <ele>93</ele>
        <time>2021-08-07T08:25:37Z</time>
      </trkpt>
      <trkpt lat="44.03817" lon="1.11554">
        <ele>92.800003051758</ele>
        <time>2021-08-07T08:26:15Z</time>
      </trkpt>
      <trkpt lat="44.038" lon="1.11542">
        <ele>90.400001525879</ele>
        <time>2021-08-07T08:26:39Z</time>
      </trkpt>
      <trkpt lat="44.03737" lon="1.11711">
        <ele>90</ele>
        <time>2021-08-07T08:27:07Z</time>
      </trkpt>
      <trkpt lat="44.03533" lon="1.1238">
        <ele>92.199996948242</ele>
        <time>2021-08-07T08:28:44Z</time>
      </trkpt>
      <trkpt lat="44.03511" lon="1.12455">
        <ele>92.400001525879</ele>
        <time>2021-08-07T08:28:55Z</time>
      </trkpt>
      <trkpt lat="44.03221" lon="1.13389">
        <ele>93.599998474121</ele>
        <time>2021-08-07T08:31:01Z</time>
      </trkpt>
      <trkpt lat="44.02985" lon="1.14163">
        <ele>93.599998474121</ele>
        <time>2021-08-07T08:32:44Z</time>
      </trkpt>
      <trkpt lat="44.02948" lon="1.14272">
        <ele>92.800003051758</ele>
        <time>2021-08-07T08:33:10Z</time>
      </trkpt>
      <trkpt lat="44.02938" lon="1.14303">
        <ele>92.800003051758</ele>
        <time>2021-08-07T08:36:04Z</time>
      </trkpt>
      <trkpt lat="44.02888" lon="1.14446">
        <ele>93.599998474121</ele>
        <time>2021-08-07T08:36:31Z</time>
      </trkpt>
      <trkpt lat="44.02861" lon="1.14552">
        <ele>94.800003051758</ele>
        <time>2021-08-07T08:36:47Z</time>
      </trkpt>
      <trkpt lat="44.02599" lon="1.15415">
        <ele>94.599998474121</ele>
        <time>2021-08-07T08:38:42Z</time>
      </trkpt>
      <trkpt lat="44.0259" lon="1.15457">
        <ele>94.800003051758</ele>
        <time>2021-08-07T08:38:52Z</time>
      </trkpt>
      <trkpt lat="44.02557" lon="1.15542">
        <ele>95.400001525879</ele>
        <time>2021-08-07T08:39:03Z</time>
      </trkpt>
      <trkpt lat="44.02364" lon="1.162">
        <ele>94.199996948242</ele>
        <time>2021-08-07T08:40:28Z</time>
      </trkpt>
      <trkpt lat="44.02342" lon="1.1623">
        <ele>95.599998474121</ele>
        <time>2021-08-07T08:40:40Z</time>
      </trkpt>
      <trkpt lat="44.02225" lon="1.16471">
        <ele>96.400001525879</ele>
        <time>2021-08-07T08:41:20Z</time>
      </trkpt>
      <trkpt lat="44.01648" lon="1.1716">
        <ele>95.599998474121</ele>
        <time>2021-08-07T08:43:30Z</time>
      </trkpt>
      <trkpt lat="44.01496" lon="1.17334">
        <ele>94.800003051758</ele>
        <time>2021-08-07T08:44:09Z</time>
      </trkpt>
      <trkpt lat="44.01473" lon="1.17373">
        <ele>94.199996948242</ele>
        <time>2021-08-07T08:44:21Z</time>
      </trkpt>
      <trkpt lat="44.01067" lon="1.17857">
        <ele>95.599998474121</ele>
        <time>2021-08-07T08:46:04Z</time>
      </trkpt>
      <trkpt lat="44.00737" lon="1.1825">
        <ele>95.400001525879</ele>
        <time>2021-08-07T08:47:28Z</time>
      </trkpt>
      <trkpt lat="44.00514" lon="1.18519">
        <ele>94.199996948242</ele>
        <time>2021-08-07T08:48:47Z</time>
      </trkpt>
      <trkpt lat="44.00023" lon="1.19104">
        <ele>95</ele>
        <time>2021-08-07T08:51:39Z</time>
      </trkpt>
      <trkpt lat="43.99599" lon="1.19599">
        <ele>95.199996948242</ele>
        <time>2021-08-07T08:53:47Z</time>
      </trkpt>
      <trkpt lat="43.99566" lon="1.1964">
        <ele>95.599998474121</ele>
        <time>2021-08-07T08:53:57Z</time>
      </trkpt>
      <trkpt lat="43.99315" lon="1.19945">
        <ele>98</ele>
        <time>2021-08-07T08:55:21Z</time>
      </trkpt>
      <trkpt lat="43.99001" lon="1.20317">
        <ele>97.800003051758</ele>
        <time>2021-08-07T08:57:00Z</time>
      </trkpt>
      <trkpt lat="43.98973" lon="1.2035">
        <ele>97.599998474121</ele>
        <time>2021-08-07T08:57:08Z</time>
      </trkpt>
      <trkpt lat="43.98463" lon="1.2096">
        <ele>96.800003051758</ele>
        <time>2021-08-07T08:59:38Z</time>
      </trkpt>
      <trkpt lat="43.98167" lon="1.21315">
        <ele>97</ele>
        <time>2021-08-07T09:01:01Z</time>
      </trkpt>
      <trkpt lat="43.98104" lon="1.21391">
        <ele>96.800003051758</ele>
        <time>2021-08-07T09:01:16Z</time>
      </trkpt>
      <trkpt lat="43.97961" lon="1.2155">
        <ele>96.199996948242</ele>
        <time>2021-08-07T09:01:52Z</time>
      </trkpt>
      <trkpt lat="43.97908" lon="1.21651">
        <ele>96</ele>
        <time>2021-08-07T09:02:08Z</time>
      </trkpt>
      <trkpt lat="43.9783" lon="1.21812">
        <ele>95.800003051758</ele>
        <time>2021-08-07T09:02:33Z</time>
      </trkpt>
      <trkpt lat="43.97822" lon="1.21823">
        <ele>96</ele>
        <time>2021-08-07T09:02:35Z</time>
      </trkpt>
      <trkpt lat="43.97319" lon="1.22473">
        <ele>97.599998474121</ele>
        <time>2021-08-07T09:04:49Z</time>
      </trkpt>
      <trkpt lat="43.97291" lon="1.22506">
        <ele>98.599998474121</ele>
        <time>2021-08-07T09:04:58Z</time>
      </trkpt>
      <trkpt lat="43.9726" lon="1.22487">
        <ele>98.199996948242</ele>
        <time>2021-08-07T09:08:10Z</time>
      </trkpt>
      <trkpt lat="43.97217" lon="1.2246">
        <ele>100.19999694824</ele>
        <time>2021-08-07T09:12:56Z</time>
      </trkpt>
      <trkpt lat="43.97215" lon="1.22461">
        <ele>100.19999694824</ele>
        <time>2021-08-07T09:12:57Z</time>
      </trkpt>
      <trkpt lat="43.9713" lon="1.22541">
        <ele>101.80000305176</ele>
        <time>2021-08-07T09:13:31Z</time>
      </trkpt>
      <trkpt lat="43.97118" lon="1.22557">
        <ele>102.80000305176</ele>
        <time>2021-08-07T09:13:39Z</time>
      </trkpt>
      <trkpt lat="43.97098" lon="1.22585">
        <ele>103</ele>
        <time>2021-08-07T09:13:48Z</time>
      </trkpt>
      <trkpt lat="43.96893" lon="1.22836">
        <ele>104.19999694824</ele>
        <time>2021-08-07T09:15:07Z</time>
      </trkpt>
      <trkpt lat="43.96882" lon="1.22852">
        <ele>105.19999694824</ele>
        <time>2021-08-07T09:15:15Z</time>
      </trkpt>
      <trkpt lat="43.96879" lon="1.22855">
        <ele>105.59999847412</ele>
        <time>2021-08-07T09:15:18Z</time>
      </trkpt>
      <trkpt lat="43.96837" lon="1.22859">
        <ele>107.80000305176</ele>
        <time>2021-08-07T09:15:39Z</time>
      </trkpt>
      <trkpt lat="43.9681" lon="1.22898">
        <ele>107.19999694824</ele>
        <time>2021-08-07T09:15:49Z</time>
      </trkpt>
      <trkpt lat="43.96799" lon="1.2291">
        <ele>107</ele>
        <time>2021-08-07T09:15:52Z</time>
      </trkpt>
      <trkpt lat="43.96712" lon="1.23002">
        <ele>108.19999694824</ele>
        <time>2021-08-07T09:16:14Z</time>
      </trkpt>
      <trkpt lat="43.96644" lon="1.23091">
        <ele>108.40000152588</ele>
        <time>2021-08-07T09:16:33Z</time>
      </trkpt>
      <trkpt lat="43.96551" lon="1.23208">
        <ele>108.19999694824</ele>
        <time>2021-08-07T09:16:56Z</time>
      </trkpt>
      <trkpt lat="43.96503" lon="1.23261">
        <ele>107.59999847412</ele>
        <time>2021-08-07T09:17:06Z</time>
      </trkpt>
      <trkpt lat="43.96403" lon="1.2337">
        <ele>108</ele>
        <time>2021-08-07T09:17:35Z</time>
      </trkpt>
      <trkpt lat="43.964" lon="1.23376">
        <ele>108.19999694824</ele>
        <time>2021-08-07T09:17:36Z</time>
      </trkpt>
      <trkpt lat="43.96358" lon="1.23437">
        <ele>108.19999694824</ele>
        <time>2021-08-07T09:17:47Z</time>
      </trkpt>
      <trkpt lat="43.96323" lon="1.23477">
        <ele>108</ele>
        <time>2021-08-07T09:17:57Z</time>
      </trkpt>
      <trkpt lat="43.96297" lon="1.23513">
        <ele>108.80000305176</ele>
        <time>2021-08-07T09:18:05Z</time>
      </trkpt>
      <trkpt lat="43.96191" lon="1.23588">
        <ele>108.80000305176</ele>
        <time>2021-08-07T09:18:31Z</time>
      </trkpt>
      <trkpt lat="43.96136" lon="1.23624">
        <ele>109.19999694824</ele>
        <time>2021-08-07T09:18:43Z</time>
      </trkpt>
      <trkpt lat="43.96102" lon="1.23623">
        <ele>109.19999694824</ele>
        <time>2021-08-07T09:18:50Z</time>
      </trkpt>
      <trkpt lat="43.96091" lon="1.23614">
        <ele>109.40000152588</ele>
        <time>2021-08-07T09:18:53Z</time>
      </trkpt>
      <trkpt lat="43.95984" lon="1.23707">
        <ele>108.80000305176</ele>
        <time>2021-08-07T09:19:30Z</time>
      </trkpt>
      <trkpt lat="43.95984" lon="1.2372">
        <ele>108.19999694824</ele>
        <time>2021-08-07T09:19:33Z</time>
      </trkpt>
      <trkpt lat="43.95943" lon="1.23735">
        <ele>108</ele>
        <time>2021-08-07T09:19:45Z</time>
      </trkpt>
      <trkpt lat="43.95939" lon="1.23733">
        <ele>108.19999694824</ele>
        <time>2021-08-07T09:19:46Z</time>
      </trkpt>
      <trkpt lat="43.95895" lon="1.23753">
        <ele>108.19999694824</ele>
        <time>2021-08-07T09:19:56Z</time>
      </trkpt>
      <trkpt lat="43.9586" lon="1.2378">
        <ele>108.40000152588</ele>
        <time>2021-08-07T09:20:05Z</time>
      </trkpt>
      <trkpt lat="43.95786" lon="1.2389">
        <ele>108.80000305176</ele>
        <time>2021-08-07T09:20:28Z</time>
      </trkpt>
      <trkpt lat="43.95751" lon="1.23952">
        <ele>109.19999694824</ele>
        <time>2021-08-07T09:20:40Z</time>
      </trkpt>
      <trkpt lat="43.95692" lon="1.24072">
        <ele>109.59999847412</ele>
        <time>2021-08-07T09:21:12Z</time>
      </trkpt>
      <trkpt lat="43.95687" lon="1.24083">
        <ele>110.40000152588</ele>
        <time>2021-08-07T09:21:19Z</time>
      </trkpt>
      <trkpt lat="43.95711" lon="1.24116">
        <ele>110.80000305176</ele>
        <time>2021-08-07T09:21:47Z</time>
      </trkpt>
      <trkpt lat="43.95701" lon="1.24134">
        <ele>110.40000152588</ele>
        <time>2021-08-07T09:21:55Z</time>
      </trkpt>
      <trkpt lat="43.95686" lon="1.2416">
        <ele>110.40000152588</ele>
        <time>2021-08-07T09:22:01Z</time>
      </trkpt>
      <trkpt lat="43.95681" lon="1.24166">
        <ele>110.19999694824</ele>
        <time>2021-08-07T09:22:02Z</time>
      </trkpt>
      <trkpt lat="43.95652" lon="1.24204">
        <ele>109.59999847412</ele>
        <time>2021-08-07T09:22:09Z</time>
      </trkpt>
      <trkpt lat="43.95623" lon="1.24258">
        <ele>109.19999694824</ele>
        <time>2021-08-07T09:22:17Z</time>
      </trkpt>
      <trkpt lat="43.95355" lon="1.24759">
        <ele>107.80000305176</ele>
        <time>2021-08-07T09:23:34Z</time>
      </trkpt>
      <trkpt lat="43.95284" lon="1.24832">
        <ele>108</ele>
        <time>2021-08-07T09:23:49Z</time>
      </trkpt>
      <trkpt lat="43.94983" lon="1.25085">
        <ele>108.80000305176</ele>
        <time>2021-08-07T09:24:55Z</time>
      </trkpt>
      <trkpt lat="43.94945" lon="1.25071">
        <ele>110.59999847412</ele>
        <time>2021-08-07T09:25:13Z</time>
      </trkpt>
      <trkpt lat="43.94659" lon="1.25304">
        <ele>110.80000305176</ele>
        <time>2021-08-07T09:26:15Z</time>
      </trkpt>
      <trkpt lat="43.946" lon="1.25341">
        <ele>111</ele>
        <time>2021-08-07T09:26:26Z</time>
      </trkpt>
      <trkpt lat="43.94554" lon="1.25358">
        <ele>111.19999694824</ele>
        <time>2021-08-07T09:26:34Z</time>
      </trkpt>
      <trkpt lat="43.94368" lon="1.25359">
        <ele>111.80000305176</ele>
        <time>2021-08-07T09:27:09Z</time>
      </trkpt>
      <trkpt lat="43.93982" lon="1.25286">
        <ele>111.19999694824</ele>
        <time>2021-08-07T09:28:15Z</time>
      </trkpt>
      <trkpt lat="43.93927" lon="1.25286">
        <ele>111</ele>
        <time>2021-08-07T09:28:24Z</time>
      </trkpt>
      <trkpt lat="43.93819" lon="1.25292">
        <ele>110.80000305176</ele>
        <time>2021-08-07T09:28:42Z</time>
      </trkpt>
      <trkpt lat="43.93772" lon="1.25301">
        <ele>110.80000305176</ele>
        <time>2021-08-07T09:28:50Z</time>
      </trkpt>
      <trkpt lat="43.93177" lon="1.25522">
        <ele>110.19999694824</ele>
        <time>2021-08-07T09:30:37Z</time>
      </trkpt>
      <trkpt lat="43.92682" lon="1.25754">
        <ele>110.80000305176</ele>
        <time>2021-08-07T09:32:11Z</time>
      </trkpt>
      <trkpt lat="43.9256" lon="1.25821">
        <ele>110.80000305176</ele>
        <time>2021-08-07T09:32:34Z</time>
      </trkpt>
      <trkpt lat="43.9253" lon="1.25834">
        <ele>110.59999847412</ele>
        <time>2021-08-07T09:32:40Z</time>
      </trkpt>
      <trkpt lat="43.92498" lon="1.25847">
        <ele>110.40000152588</ele>
        <time>2021-08-07T09:32:46Z</time>
      </trkpt>
      <trkpt lat="43.92426" lon="1.25876">
        <ele>110.19999694824</ele>
        <time>2021-08-07T09:33:01Z</time>
      </trkpt>
      <trkpt lat="43.92288" lon="1.2588">
        <ele>110.19999694824</ele>
        <time>2021-08-07T09:33:26Z</time>
      </trkpt>
      <trkpt lat="43.91669" lon="1.25767">
        <ele>109.80000305176</ele>
        <time>2021-08-07T09:35:16Z</time>
      </trkpt>
      <trkpt lat="43.91597" lon="1.2577">
        <ele>109.80000305176</ele>
        <time>2021-08-07T09:35:27Z</time>
      </trkpt>
      <trkpt lat="43.91561" lon="1.25777">
        <ele>109.59999847412</ele>
        <time>2021-08-07T09:35:33Z</time>
      </trkpt>
      <trkpt lat="43.91461" lon="1.25821">
        <ele>109</ele>
        <time>2021-08-07T09:35:50Z</time>
      </trkpt>
      <trkpt lat="43.91179" lon="1.25968">
        <ele>109.40000152588</ele>
        <time>2021-08-07T09:36:40Z</time>
      </trkpt>
      <trkpt lat="43.91128" lon="1.25996">
        <ele>109</ele>
        <time>2021-08-07T09:36:53Z</time>
      </trkpt>
      <trkpt lat="43.90744" lon="1.26195">
        <ele>110</ele>
        <time>2021-08-07T09:38:12Z</time>
      </trkpt>
      <trkpt lat="43.90689" lon="1.26228">
        <ele>110.19999694824</ele>
        <time>2021-08-07T09:38:24Z</time>
      </trkpt>
      <trkpt lat="43.9066" lon="1.26239">
        <ele>110.19999694824</ele>
        <time>2021-08-07T09:38:30Z</time>
      </trkpt>
      <trkpt lat="43.9061" lon="1.26263">
        <ele>109.40000152588</ele>
        <time>2021-08-07T09:41:57Z</time>
      </trkpt>
      <trkpt lat="43.90531" lon="1.26299">
        <ele>110.19999694824</ele>
        <time>2021-08-07T09:42:22Z</time>
      </trkpt>
      <trkpt lat="43.90457" lon="1.26331">
        <ele>110.59999847412</ele>
        <time>2021-08-07T09:42:36Z</time>
      </trkpt>
      <trkpt lat="43.89878" lon="1.26629">
        <ele>109.80000305176</ele>
        <time>2021-08-07T09:44:20Z</time>
      </trkpt>
      <trkpt lat="43.89243" lon="1.26911">
        <ele>109.80000305176</ele>
        <time>2021-08-07T09:46:08Z</time>
      </trkpt>
      <trkpt lat="43.89195" lon="1.26908">
        <ele>110</ele>
        <time>2021-08-07T09:46:16Z</time>
      </trkpt>
      <trkpt lat="43.89016" lon="1.26904">
        <ele>109.59999847412</ele>
        <time>2021-08-07T09:46:45Z</time>
      </trkpt>
      <trkpt lat="43.88957" lon="1.26907">
        <ele>109.80000305176</ele>
        <time>2021-08-07T09:46:55Z</time>
      </trkpt>
      <trkpt lat="43.88393" lon="1.26929">
        <ele>108.59999847412</ele>
        <time>2021-08-07T09:48:26Z</time>
      </trkpt>
      <trkpt lat="43.88311" lon="1.26955">
        <ele>108.59999847412</ele>
        <time>2021-08-07T09:48:40Z</time>
      </trkpt>
      <trkpt lat="43.88199" lon="1.27024">
        <ele>108</ele>
        <time>2021-08-07T09:49:01Z</time>
      </trkpt>
      <trkpt lat="43.88016" lon="1.2703">
        <ele>108</ele>
        <time>2021-08-07T09:49:31Z</time>
      </trkpt>
      <trkpt lat="43.8776" lon="1.26949">
        <ele>108</ele>
        <time>2021-08-07T09:50:13Z</time>
      </trkpt>
      <trkpt lat="43.87663" lon="1.26943">
        <ele>107.80000305176</ele>
        <time>2021-08-07T09:50:29Z</time>
      </trkpt>
      <trkpt lat="43.87495" lon="1.2695">
        <ele>107.59999847412</ele>
        <time>2021-08-07T09:50:57Z</time>
      </trkpt>
      <trkpt lat="43.87436" lon="1.26961">
        <ele>107.59999847412</ele>
        <time>2021-08-07T09:51:08Z</time>
      </trkpt>
      <trkpt lat="43.87285" lon="1.26996">
        <ele>107</ele>
        <time>2021-08-07T09:51:39Z</time>
      </trkpt>
      <trkpt lat="43.87113" lon="1.27087">
        <ele>106.80000305176</ele>
        <time>2021-08-07T09:52:12Z</time>
      </trkpt>
      <trkpt lat="43.86673" lon="1.27434">
        <ele>107</ele>
        <time>2021-08-07T09:53:38Z</time>
      </trkpt>
      <trkpt lat="43.86596" lon="1.27485">
        <ele>106.80000305176</ele>
        <time>2021-08-07T09:53:52Z</time>
      </trkpt>
      <trkpt lat="43.86501" lon="1.27562">
        <ele>106.80000305176</ele>
        <time>2021-08-07T09:54:12Z</time>
      </trkpt>
      <trkpt lat="43.864" lon="1.27649">
        <ele>106.40000152588</ele>
        <time>2021-08-07T09:54:41Z</time>
      </trkpt>
      <trkpt lat="43.85992" lon="1.27955">
        <ele>106.59999847412</ele>
        <time>2021-08-07T09:56:11Z</time>
      </trkpt>
      <trkpt lat="43.85589" lon="1.28219">
        <ele>105.80000305176</ele>
        <time>2021-08-07T09:57:36Z</time>
      </trkpt>
      <trkpt lat="43.85149" lon="1.28512">
        <ele>106</ele>
        <time>2021-08-07T09:59:05Z</time>
      </trkpt>
      <trkpt lat="43.85059" lon="1.28567">
        <ele>106</ele>
        <time>2021-08-07T09:59:22Z</time>
      </trkpt>
      <trkpt lat="43.85024" lon="1.28594">
        <ele>106.40000152588</ele>
        <time>2021-08-07T09:59:30Z</time>
      </trkpt>
      <trkpt lat="43.84618" lon="1.28869">
        <ele>107.80000305176</ele>
        <time>2021-08-07T10:00:52Z</time>
      </trkpt>
      <trkpt lat="43.84528" lon="1.28927">
        <ele>107.80000305176</ele>
        <time>2021-08-07T10:01:10Z</time>
      </trkpt>
      <trkpt lat="43.84484" lon="1.28953">
        <ele>107.80000305176</ele>
        <time>2021-08-07T10:01:18Z</time>
      </trkpt>
      <trkpt lat="43.84179" lon="1.2915">
        <ele>107.59999847412</ele>
        <time>2021-08-07T10:02:14Z</time>
      </trkpt>
      <trkpt lat="43.84127" lon="1.29183">
        <ele>107.59999847412</ele>
        <time>2021-08-07T10:02:23Z</time>
      </trkpt>
      <trkpt lat="43.83905" lon="1.29327">
        <ele>107.40000152588</ele>
        <time>2021-08-07T10:03:03Z</time>
      </trkpt>
      <trkpt lat="43.83818" lon="1.29382">
        <ele>106.40000152588</ele>
        <time>2021-08-07T10:03:27Z</time>
      </trkpt>
      <trkpt lat="43.83651" lon="1.29491">
        <ele>107.40000152588</ele>
        <time>2021-08-07T10:04:05Z</time>
      </trkpt>
      <trkpt lat="43.83625" lon="1.29511">
        <ele>107.40000152588</ele>
        <time>2021-08-07T10:04:11Z</time>
      </trkpt>
      <trkpt lat="43.83591" lon="1.29533">
        <ele>107</ele>
        <time>2021-08-07T10:04:22Z</time>
      </trkpt>
      <trkpt lat="43.83557" lon="1.29555">
        <ele>107</ele>
        <time>2021-08-07T10:04:31Z</time>
      </trkpt>
      <trkpt lat="43.8311" lon="1.29856">
        <ele>106.80000305176</ele>
        <time>2021-08-07T10:05:59Z</time>
      </trkpt>
      <trkpt lat="43.83056" lon="1.29888">
        <ele>106</ele>
        <time>2021-08-07T10:06:17Z</time>
      </trkpt>
      <trkpt lat="43.8303" lon="1.29909">
        <ele>106.19999694824</ele>
        <time>2021-08-07T10:35:10Z</time>
      </trkpt>
      <trkpt lat="43.82876" lon="1.3001">
        <ele>107</ele>
        <time>2021-08-07T10:35:50Z</time>
      </trkpt>
      <trkpt lat="43.82621" lon="1.30156">
        <ele>107.40000152588</ele>
        <time>2021-08-07T10:36:50Z</time>
      </trkpt>
      <trkpt lat="43.82585" lon="1.30177">
        <ele>107.40000152588</ele>
        <time>2021-08-07T10:36:58Z</time>
      </trkpt>
      <trkpt lat="43.82534" lon="1.30239">
        <ele>107.40000152588</ele>
        <time>2021-08-07T10:37:12Z</time>
      </trkpt>
      <trkpt lat="43.82243" lon="1.30413">
        <ele>106.80000305176</ele>
        <time>2021-08-07T10:38:14Z</time>
      </trkpt>
      <trkpt lat="43.82189" lon="1.30439">
        <ele>106.59999847412</ele>
        <time>2021-08-07T10:38:26Z</time>
      </trkpt>
      <trkpt lat="43.82048" lon="1.30514">
        <ele>106.59999847412</ele>
        <time>2021-08-07T10:38:53Z</time>
      </trkpt>
      <trkpt lat="43.81939" lon="1.30668">
        <ele>106.40000152588</ele>
        <time>2021-08-07T10:39:20Z</time>
      </trkpt>
      <trkpt lat="43.8185" lon="1.30814">
        <ele>106.19999694824</ele>
        <time>2021-08-07T10:39:45Z</time>
      </trkpt>
      <trkpt lat="43.81811" lon="1.3087">
        <ele>106.40000152588</ele>
        <time>2021-08-07T10:39:55Z</time>
      </trkpt>
      <trkpt lat="43.81298" lon="1.31441">
        <ele>106.19999694824</ele>
        <time>2021-08-07T10:41:51Z</time>
      </trkpt>
      <trkpt lat="43.80732" lon="1.32032">
        <ele>106.40000152588</ele>
        <time>2021-08-07T10:43:49Z</time>
      </trkpt>
      <trkpt lat="43.80349" lon="1.32427">
        <ele>106</ele>
        <time>2021-08-07T10:45:12Z</time>
      </trkpt>
      <trkpt lat="43.80338" lon="1.32436">
        <ele>106</ele>
        <time>2021-08-07T10:45:14Z</time>
      </trkpt>
      <trkpt lat="43.80224" lon="1.3254">
        <ele>105.80000305176</ele>
        <time>2021-08-07T10:45:38Z</time>
      </trkpt>
      <trkpt lat="43.80203" lon="1.32564">
        <ele>105.59999847412</ele>
        <time>2021-08-07T10:45:44Z</time>
      </trkpt>
      <trkpt lat="43.8014" lon="1.32633">
        <ele>105.59999847412</ele>
        <time>2021-08-07T10:46:02Z</time>
      </trkpt>
      <trkpt lat="43.80124" lon="1.32655">
        <ele>105.59999847412</ele>
        <time>2021-08-07T10:46:06Z</time>
      </trkpt>
      <trkpt lat="43.80089" lon="1.32696">
        <ele>105.59999847412</ele>
        <time>2021-08-07T10:46:14Z</time>
      </trkpt>
      <trkpt lat="43.80017" lon="1.32761">
        <ele>105.80000305176</ele>
        <time>2021-08-07T10:46:29Z</time>
      </trkpt>
      <trkpt lat="43.79976" lon="1.32806">
        <ele>105.59999847412</ele>
        <time>2021-08-07T10:46:38Z</time>
      </trkpt>
      <trkpt lat="43.79778" lon="1.32978">
        <ele>107.59999847412</ele>
        <time>2021-08-07T10:47:32Z</time>
      </trkpt>
      <trkpt lat="43.79735" lon="1.33021">
        <ele>107.59999847412</ele>
        <time>2021-08-07T10:47:45Z</time>
      </trkpt>
      <trkpt lat="43.79679" lon="1.33082">
        <ele>107.80000305176</ele>
        <time>2021-08-07T10:47:59Z</time>
      </trkpt>
      <trkpt lat="43.79636" lon="1.33117">
        <ele>107.80000305176</ele>
        <time>2021-08-07T10:48:07Z</time>
      </trkpt>
      <trkpt lat="43.79223" lon="1.33509">
        <ele>108</ele>
        <time>2021-08-07T10:49:36Z</time>
      </trkpt>
      <trkpt lat="43.79222" lon="1.3352">
        <ele>105.59999847412</ele>
        <time>2021-08-07T10:53:31Z</time>
      </trkpt>
      <trkpt lat="43.7922" lon="1.33521">
        <ele>105.59999847412</ele>
        <time>2021-08-07T10:53:32Z</time>
      </trkpt>
      <trkpt lat="43.7893" lon="1.33812">
        <ele>106.19999694824</ele>
        <time>2021-08-07T10:54:57Z</time>
      </trkpt>
      <trkpt lat="43.78761" lon="1.33973">
        <ele>106.40000152588</ele>
        <time>2021-08-07T10:55:35Z</time>
      </trkpt>
      <trkpt lat="43.7829" lon="1.34401">
        <ele>106.40000152588</ele>
        <time>2021-08-07T10:57:17Z</time>
      </trkpt>
      <trkpt lat="43.77917" lon="1.34739">
        <ele>106.59999847412</ele>
        <time>2021-08-07T10:58:35Z</time>
      </trkpt>
      <trkpt lat="43.77626" lon="1.34996">
        <ele>107</ele>
        <time>2021-08-07T10:59:36Z</time>
      </trkpt>
      <trkpt lat="43.77543" lon="1.35077">
        <ele>107</ele>
        <time>2021-08-07T10:59:56Z</time>
      </trkpt>
      <trkpt lat="43.77416" lon="1.35167">
        <ele>108.59999847412</ele>
        <time>2021-08-07T11:00:32Z</time>
      </trkpt>
      <trkpt lat="43.77104" lon="1.35447">
        <ele>109</ele>
        <time>2021-08-07T11:01:38Z</time>
      </trkpt>
      <trkpt lat="43.77067" lon="1.35486">
        <ele>109</ele>
        <time>2021-08-07T11:01:46Z</time>
      </trkpt>
      <trkpt lat="43.77033" lon="1.35519">
        <ele>108.80000305176</ele>
        <time>2021-08-07T11:01:53Z</time>
      </trkpt>
      <trkpt lat="43.76919" lon="1.35606">
        <ele>108.80000305176</ele>
        <time>2021-08-07T11:02:14Z</time>
      </trkpt>
      <trkpt lat="43.76893" lon="1.35628">
        <ele>108.59999847412</ele>
        <time>2021-08-07T11:02:20Z</time>
      </trkpt>
      <trkpt lat="43.76722" lon="1.35646">
        <ele>110</ele>
        <time>2021-08-07T11:03:09Z</time>
      </trkpt>
      <trkpt lat="43.76627" lon="1.35586">
        <ele>110.40000152588</ele>
        <time>2021-08-07T11:03:47Z</time>
      </trkpt>
      <trkpt lat="43.76532" lon="1.35601">
        <ele>111</ele>
        <time>2021-08-07T11:04:09Z</time>
      </trkpt>
      <trkpt lat="43.75902" lon="1.3588">
        <ele>111.19999694824</ele>
        <time>2021-08-07T11:06:10Z</time>
      </trkpt>
      <trkpt lat="43.75557" lon="1.36047">
        <ele>110.40000152588</ele>
        <time>2021-08-07T11:07:18Z</time>
      </trkpt>
      <trkpt lat="43.753" lon="1.36164">
        <ele>110.59999847412</ele>
        <time>2021-08-07T11:08:13Z</time>
      </trkpt>
      <trkpt lat="43.75016" lon="1.36289">
        <ele>110.59999847412</ele>
        <time>2021-08-07T11:09:15Z</time>
      </trkpt>
      <trkpt lat="43.74975" lon="1.36305">
        <ele>110.59999847412</ele>
        <time>2021-08-07T11:09:23Z</time>
      </trkpt>
      <trkpt lat="43.74506" lon="1.36527">
        <ele>110.59999847412</ele>
        <time>2021-08-07T11:10:53Z</time>
      </trkpt>
      <trkpt lat="43.74284" lon="1.36634">
        <ele>110.19999694824</ele>
        <time>2021-08-07T11:11:34Z</time>
      </trkpt>
      <trkpt lat="43.74071" lon="1.36817">
        <ele>110</ele>
        <time>2021-08-07T11:12:20Z</time>
      </trkpt>
      <trkpt lat="43.73998" lon="1.36878">
        <ele>110</ele>
        <time>2021-08-07T11:12:40Z</time>
      </trkpt>
      <trkpt lat="43.73968" lon="1.36918">
        <ele>111.59999847412</ele>
        <time>2021-08-07T11:12:56Z</time>
      </trkpt>
      <trkpt lat="43.73943" lon="1.36939">
        <ele>111.80000305176</ele>
        <time>2021-08-07T11:13:03Z</time>
      </trkpt>
      <trkpt lat="43.73936" lon="1.36946">
        <ele>111.80000305176</ele>
        <time>2021-08-07T11:13:05Z</time>
      </trkpt>
      <trkpt lat="43.73557" lon="1.37331">
        <ele>112.80000305176</ele>
        <time>2021-08-07T11:14:28Z</time>
      </trkpt>
      <trkpt lat="43.73511" lon="1.3737">
        <ele>112.59999847412</ele>
        <time>2021-08-07T11:14:37Z</time>
      </trkpt>
      <trkpt lat="43.73375" lon="1.37462">
        <ele>112.59999847412</ele>
        <time>2021-08-07T11:15:02Z</time>
      </trkpt>
      <trkpt lat="43.73329" lon="1.37485">
        <ele>112.80000305176</ele>
        <time>2021-08-07T11:15:10Z</time>
      </trkpt>
      <trkpt lat="43.72722" lon="1.37776">
        <ele>112.80000305176</ele>
        <time>2021-08-07T11:17:01Z</time>
      </trkpt>
      <trkpt lat="43.72489" lon="1.37893">
        <ele>113.19999694824</ele>
        <time>2021-08-07T11:17:45Z</time>
      </trkpt>
      <trkpt lat="43.72287" lon="1.3799">
        <ele>115.59999847412</ele>
        <time>2021-08-07T11:18:30Z</time>
      </trkpt>
      <trkpt lat="43.71769" lon="1.3826">
        <ele>115.59999847412</ele>
        <time>2021-08-07T11:20:10Z</time>
      </trkpt>
      <trkpt lat="43.71239" lon="1.38515">
        <ele>115.40000152588</ele>
        <time>2021-08-07T11:21:44Z</time>
      </trkpt>
      <trkpt lat="43.7084" lon="1.387">
        <ele>116</ele>
        <time>2021-08-07T11:23:08Z</time>
      </trkpt>
      <trkpt lat="43.70803" lon="1.38722">
        <ele>116.80000305176</ele>
        <time>2021-08-07T11:23:21Z</time>
      </trkpt>
      <trkpt lat="43.70328" lon="1.3899">
        <ele>117.80000305176</ele>
        <time>2021-08-07T11:25:03Z</time>
      </trkpt>
      <trkpt lat="43.70049" lon="1.39132">
        <ele>118</ele>
        <time>2021-08-07T11:25:53Z</time>
      </trkpt>
      <trkpt lat="43.69992" lon="1.39165">
        <ele>118</ele>
        <time>2021-08-07T11:26:04Z</time>
      </trkpt>
      <trkpt lat="43.69447" lon="1.39467">
        <ele>118</ele>
        <time>2021-08-07T11:27:45Z</time>
      </trkpt>
      <trkpt lat="43.68835" lon="1.39808">
        <ele>117.80000305176</ele>
        <time>2021-08-07T11:29:40Z</time>
      </trkpt>
      <trkpt lat="43.68398" lon="1.40052">
        <ele>117.40000152588</ele>
        <time>2021-08-07T11:31:03Z</time>
      </trkpt>
      <trkpt lat="43.67775" lon="1.40425">
        <ele>118</ele>
        <time>2021-08-07T11:33:00Z</time>
      </trkpt>
      <trkpt lat="43.67625" lon="1.40512">
        <ele>119.59999847412</ele>
        <time>2021-08-07T11:33:44Z</time>
      </trkpt>
      <trkpt lat="43.67147" lon="1.40801">
        <ele>120.19999694824</ele>
        <time>2021-08-07T11:35:21Z</time>
      </trkpt>
      <trkpt lat="43.66738" lon="1.41031">
        <ele>122.59999847412</ele>
        <time>2021-08-07T11:36:46Z</time>
      </trkpt>
      <trkpt lat="43.66693" lon="1.41062">
        <ele>121.80000305176</ele>
        <time>2021-08-07T11:37:34Z</time>
      </trkpt>
      <trkpt lat="43.66667" lon="1.41082">
        <ele>122.19999694824</ele>
        <time>2021-08-07T11:49:02Z</time>
      </trkpt>
      <trkpt lat="43.66605" lon="1.41153">
        <ele>122.40000152588</ele>
        <time>2021-08-07T11:49:26Z</time>
      </trkpt>
      <trkpt lat="43.66568" lon="1.41183">
        <ele>122.59999847412</ele>
        <time>2021-08-07T11:49:35Z</time>
      </trkpt>
      <trkpt lat="43.66512" lon="1.41224">
        <ele>122.80000305176</ele>
        <time>2021-08-07T11:49:47Z</time>
      </trkpt>
      <trkpt lat="43.6644" lon="1.41288">
        <ele>122.80000305176</ele>
        <time>2021-08-07T11:50:04Z</time>
      </trkpt>
      <trkpt lat="43.66359" lon="1.41351">
        <ele>123</ele>
        <time>2021-08-07T11:50:20Z</time>
      </trkpt>
      <trkpt lat="43.65753" lon="1.41881">
        <ele>123.19999694824</ele>
        <time>2021-08-07T11:52:29Z</time>
      </trkpt>
      <trkpt lat="43.65713" lon="1.41917">
        <ele>123</ele>
        <time>2021-08-07T11:52:38Z</time>
      </trkpt>
      <trkpt lat="43.6569" lon="1.41929">
        <ele>123</ele>
        <time>2021-08-07T11:52:43Z</time>
      </trkpt>
      <trkpt lat="43.65664" lon="1.41942">
        <ele>123.40000152588</ele>
        <time>2021-08-07T11:52:56Z</time>
      </trkpt>
      <trkpt lat="43.65668" lon="1.41955">
        <ele>124.40000152588</ele>
        <time>2021-08-07T11:53:02Z</time>
      </trkpt>
      <trkpt lat="43.65694" lon="1.42015">
        <ele>125.40000152588</ele>
        <time>2021-08-07T11:53:20Z</time>
      </trkpt>
      <trkpt lat="43.65689" lon="1.42041">
        <ele>125.19999694824</ele>
        <time>2021-08-07T11:53:25Z</time>
      </trkpt>
      <trkpt lat="43.65645" lon="1.42099">
        <ele>122</ele>
        <time>2021-08-07T11:53:39Z</time>
      </trkpt>
      <trkpt lat="43.6561" lon="1.42128">
        <ele>121.59999847412</ele>
        <time>2021-08-07T11:53:48Z</time>
      </trkpt>
      <trkpt lat="43.65575" lon="1.42163">
        <ele>121.59999847412</ele>
        <time>2021-08-07T11:53:56Z</time>
      </trkpt>
      <trkpt lat="43.65308" lon="1.42392">
        <ele>123.19999694824</ele>
        <time>2021-08-07T11:54:57Z</time>
      </trkpt>
      <trkpt lat="43.65209" lon="1.42532">
        <ele>123</ele>
        <time>2021-08-07T11:55:33Z</time>
      </trkpt>
      <trkpt lat="43.65113" lon="1.42664">
        <ele>122.80000305176</ele>
        <time>2021-08-07T11:56:01Z</time>
      </trkpt>
      <trkpt lat="43.65036" lon="1.42808">
        <ele>122.19999694824</ele>
        <time>2021-08-07T11:58:10Z</time>
      </trkpt>
      <trkpt lat="43.64964" lon="1.43021">
        <ele>123.59999847412</ele>
        <time>2021-08-07T11:58:55Z</time>
      </trkpt>
      <trkpt lat="43.64961" lon="1.43037">
        <ele>123.80000305176</ele>
        <time>2021-08-07T11:58:58Z</time>
      </trkpt>
      <trkpt lat="43.64952" lon="1.43069">
        <ele>124.40000152588</ele>
        <time>2021-08-07T11:59:04Z</time>
      </trkpt>
      <trkpt lat="43.64944" lon="1.43106">
        <ele>125</ele>
        <time>2021-08-07T11:59:11Z</time>
      </trkpt>
      <trkpt lat="43.64912" lon="1.43218">
        <ele>126</ele>
        <time>2021-08-07T11:59:31Z</time>
      </trkpt>
      <trkpt lat="43.64898" lon="1.43254">
        <ele>126.19999694824</ele>
        <time>2021-08-07T11:59:37Z</time>
      </trkpt>
      <trkpt lat="43.64861" lon="1.43282">
        <ele>126.40000152588</ele>
        <time>2021-08-07T11:59:47Z</time>
      </trkpt>
      <trkpt lat="43.6464" lon="1.43315">
        <ele>126.40000152588</ele>
        <time>2021-08-07T12:00:41Z</time>
      </trkpt>
      <trkpt lat="43.64467" lon="1.43327">
        <ele>126.80000305176</ele>
        <time>2021-08-07T12:01:20Z</time>
      </trkpt>
      <trkpt lat="43.64487" lon="1.4331">
        <ele>126.59999847412</ele>
        <time>2021-08-07T12:01:31Z</time>
      </trkpt>
      <trkpt lat="43.64519" lon="1.43305">
        <ele>126.59999847412</ele>
        <time>2021-08-07T12:01:50Z</time>
      </trkpt>
      <trkpt lat="43.64531" lon="1.43317">
        <ele>127</ele>
        <time>2021-08-07T12:20:14Z</time>
      </trkpt>
      <trkpt lat="43.64419" lon="1.43343">
        <ele>127.19999694824</ele>
        <time>2021-08-07T12:20:48Z</time>
      </trkpt>
      <trkpt lat="43.6433" lon="1.43348">
        <ele>127</ele>
        <time>2021-08-07T12:22:20Z</time>
      </trkpt>
      <trkpt lat="43.64206" lon="1.43342">
        <ele>127.59999847412</ele>
        <time>2021-08-07T12:23:00Z</time>
      </trkpt>
      <trkpt lat="43.64194" lon="1.43368">
        <ele>127.40000152588</ele>
        <time>2021-08-07T12:23:33Z</time>
      </trkpt>
      <trkpt lat="43.64207" lon="1.43351">
        <ele>125</ele>
        <time>2021-08-07T12:45:38Z</time>
      </trkpt>
      <trkpt lat="43.64202" lon="1.43349">
        <ele>125</ele>
        <time>2021-08-07T12:45:40Z</time>
      </trkpt>
      <trkpt lat="43.64172" lon="1.43341">
        <ele>124.80000305176</ele>
        <time>2021-08-07T12:46:08Z</time>
      </trkpt>
      <trkpt lat="43.64169" lon="1.43338">
        <ele>124.59999847412</ele>
        <time>2021-08-07T12:46:10Z</time>
      </trkpt>
      <trkpt lat="43.64103" lon="1.43337">
        <ele>125.19999694824</ele>
        <time>2021-08-07T12:46:32Z</time>
      </trkpt>
      <trkpt lat="43.64071" lon="1.43338">
        <ele>125.19999694824</ele>
        <time>2021-08-07T12:46:41Z</time>
      </trkpt>
      <trkpt lat="43.64018" lon="1.43466">
        <ele>124.40000152588</ele>
        <time>2021-08-07T12:47:07Z</time>
      </trkpt>
      <trkpt lat="43.63948" lon="1.43886">
        <ele>125.19999694824</ele>
        <time>2021-08-07T12:48:16Z</time>
      </trkpt>
      <trkpt lat="43.63877" lon="1.43918">
        <ele>125</ele>
        <time>2021-08-07T12:48:33Z</time>
      </trkpt>
      <trkpt lat="43.63824" lon="1.43921">
        <ele>125.19999694824</ele>
        <time>2021-08-07T12:48:44Z</time>
      </trkpt>
      <trkpt lat="43.63774" lon="1.43915">
        <ele>125.40000152588</ele>
        <time>2021-08-07T12:48:54Z</time>
      </trkpt>
      <trkpt lat="43.63721" lon="1.43912">
        <ele>125.40000152588</ele>
        <time>2021-08-07T12:49:04Z</time>
      </trkpt>
      <trkpt lat="43.63587" lon="1.43846">
        <ele>125.40000152588</ele>
        <time>2021-08-07T12:49:34Z</time>
      </trkpt>
      <trkpt lat="43.63499" lon="1.43804">
        <ele>123.19999694824</ele>
        <time>2021-08-07T12:49:48Z</time>
      </trkpt>
      <trkpt lat="43.63494" lon="1.43801">
        <ele>123.19999694824</ele>
        <time>2021-08-07T12:49:49Z</time>
      </trkpt>
      <trkpt lat="43.63424" lon="1.43815">
        <ele>124.80000305176</ele>
        <time>2021-08-07T12:50:10Z</time>
      </trkpt>
      <trkpt lat="43.63217" lon="1.43827">
        <ele>124.59999847412</ele>
        <time>2021-08-07T12:50:57Z</time>
      </trkpt>
      <trkpt lat="43.63142" lon="1.43804">
        <ele>125</ele>
        <time>2021-08-07T12:51:12Z</time>
      </trkpt>
      <trkpt lat="43.62951" lon="1.43766">
        <ele>125.40000152588</ele>
        <time>2021-08-07T12:51:50Z</time>
      </trkpt>
      <trkpt lat="43.62623" lon="1.43698">
        <ele>126.59999847412</ele>
        <time>2021-08-07T12:53:18Z</time>
      </trkpt>
      <trkpt lat="43.62569" lon="1.43699">
        <ele>126.40000152588</ele>
        <time>2021-08-07T12:53:32Z</time>
      </trkpt>
      <trkpt lat="43.62484" lon="1.43684">
        <ele>126.40000152588</ele>
        <time>2021-08-07T12:53:48Z</time>
      </trkpt>
      <trkpt lat="43.62449" lon="1.43783">
        <ele>126</ele>
        <time>2021-08-07T12:54:07Z</time>
      </trkpt>
      <trkpt lat="43.62372" lon="1.43951">
        <ele>126.19999694824</ele>
        <time>2021-08-07T12:54:41Z</time>
      </trkpt>
      <trkpt lat="43.62348" lon="1.44042">
        <ele>126.40000152588</ele>
        <time>2021-08-07T12:54:55Z</time>
      </trkpt>
      <trkpt lat="43.62319" lon="1.44156">
        <ele>126.19999694824</ele>
        <time>2021-08-07T12:55:12Z</time>
      </trkpt>
      <trkpt lat="43.62175" lon="1.44177">
        <ele>126</ele>
        <time>2021-08-07T12:55:44Z</time>
      </trkpt>
      <trkpt lat="43.61929" lon="1.44098">
        <ele>126.80000305176</ele>
        <time>2021-08-07T12:56:46Z</time>
      </trkpt>
      <trkpt lat="43.61893" lon="1.44092">
        <ele>127</ele>
        <time>2021-08-07T12:56:54Z</time>
      </trkpt>
      <trkpt lat="43.61803" lon="1.44085">
        <ele>127</ele>
        <time>2021-08-07T12:57:13Z</time>
      </trkpt>
      <trkpt lat="43.61764" lon="1.44078">
        <ele>126.80000305176</ele>
        <time>2021-08-07T12:57:21Z</time>
      </trkpt>
      <trkpt lat="43.61615" lon="1.44052">
        <ele>128</ele>
        <time>2021-08-07T12:57:54Z</time>
      </trkpt>
      <trkpt lat="43.61614" lon="1.44036">
        <ele>128.80000305176</ele>
        <time>2021-08-07T12:58:06Z</time>
      </trkpt>
      <trkpt lat="43.61606" lon="1.44029">
        <ele>129</ele>
        <time>2021-08-07T12:58:19Z</time>
      </trkpt>
      <trkpt lat="43.61589" lon="1.44079">
        <ele>129.19999694824</ele>
        <time>2021-08-07T12:58:32Z</time>
      </trkpt>
      <trkpt lat="43.61566" lon="1.44184">
        <ele>128.80000305176</ele>
        <time>2021-08-07T12:58:53Z</time>
      </trkpt>
      <trkpt lat="43.61554" lon="1.4422">
        <ele>128.80000305176</ele>
        <time>2021-08-07T12:58:58Z</time>
      </trkpt>
      <trkpt lat="43.61523" lon="1.44323">
        <ele>129</ele>
        <time>2021-08-07T12:59:13Z</time>
      </trkpt>
      <trkpt lat="43.61533" lon="1.44486">
        <ele>129.39999389648</ele>
        <time>2021-08-07T12:59:36Z</time>
      </trkpt>
      <trkpt lat="43.61538" lon="1.44515">
        <ele>129.39999389648</ele>
        <time>2021-08-07T12:59:40Z</time>
      </trkpt>
      <trkpt lat="43.61545" lon="1.44541">
        <ele>129.60000610352</ele>
        <time>2021-08-07T12:59:44Z</time>
      </trkpt>
      <trkpt lat="43.61553" lon="1.4457">
        <ele>129.80000305176</ele>
        <time>2021-08-07T12:59:50Z</time>
      </trkpt>
      <trkpt lat="43.61523" lon="1.44799">
        <ele>129</ele>
        <time>2021-08-07T13:00:31Z</time>
      </trkpt>
      <trkpt lat="43.615" lon="1.44858">
        <ele>128.80000305176</ele>
        <time>2021-08-07T13:00:43Z</time>
      </trkpt>
      <trkpt lat="43.61486" lon="1.44911">
        <ele>129</ele>
        <time>2021-08-07T13:00:52Z</time>
      </trkpt>
      <trkpt lat="43.61475" lon="1.44952">
        <ele>129</ele>
        <time>2021-08-07T13:00:58Z</time>
      </trkpt>
      <trkpt lat="43.61469" lon="1.44965">
        <ele>129</ele>
        <time>2021-08-07T13:01:00Z</time>
      </trkpt>
      <trkpt lat="43.61446" lon="1.45022">
        <ele>129.80000305176</ele>
        <time>2021-08-07T13:01:10Z</time>
      </trkpt>
      <trkpt lat="43.61439" lon="1.45034">
        <ele>129.80000305176</ele>
        <time>2021-08-07T13:01:12Z</time>
      </trkpt>
      <trkpt lat="43.61423" lon="1.45061">
        <ele>130.19999694824</ele>
        <time>2021-08-07T13:01:18Z</time>
      </trkpt>
      <trkpt lat="43.61396" lon="1.45045">
        <ele>132.19999694824</ele>
        <time>2021-08-07T13:01:35Z</time>
      </trkpt>
      <trkpt lat="43.61383" lon="1.45062">
        <ele>132</ele>
        <time>2021-08-07T13:02:09Z</time>
      </trkpt>
      <trkpt lat="43.61254" lon="1.45176">
        <ele>131.39999389648</ele>
        <time>2021-08-07T13:02:41Z</time>
      </trkpt>
      <trkpt lat="43.61176" lon="1.45219">
        <ele>133</ele>
        <time>2021-08-07T13:03:05Z</time>
      </trkpt>
      <trkpt lat="43.61145" lon="1.45237">
        <ele>133.60000610352</ele>
        <time>2021-08-07T13:03:14Z</time>
      </trkpt>
      <trkpt lat="43.61106" lon="1.45255">
        <ele>133.80000305176</ele>
        <time>2021-08-07T13:03:23Z</time>
      </trkpt>
      <trkpt lat="43.61043" lon="1.45287">
        <ele>134</ele>
        <time>2021-08-07T13:03:43Z</time>
      </trkpt>
      <trkpt lat="43.61013" lon="1.45311">
        <ele>134.39999389648</ele>
        <time>2021-08-07T13:03:52Z</time>
      </trkpt>
      <trkpt lat="43.6099" lon="1.45334">
        <ele>134.80000305176</ele>
        <time>2021-08-07T13:03:59Z</time>
      </trkpt>
      <trkpt lat="43.60968" lon="1.4538">
        <ele>136.19999694824</ele>
        <time>2021-08-07T13:04:12Z</time>
      </trkpt>
      <trkpt lat="43.60859" lon="1.45482">
        <ele>136</ele>
        <time>2021-08-07T13:04:56Z</time>
      </trkpt>
      <trkpt lat="43.60801" lon="1.45511">
        <ele>135.39999389648</ele>
        <time>2021-08-07T13:05:11Z</time>
      </trkpt>
      <trkpt lat="43.60774" lon="1.45531">
        <ele>135.60000610352</ele>
        <time>2021-08-07T13:05:18Z</time>
      </trkpt>
      <trkpt lat="43.60752" lon="1.45542">
        <ele>135.39999389648</ele>
        <time>2021-08-07T13:05:23Z</time>
      </trkpt>
      <trkpt lat="43.60697" lon="1.45573">
        <ele>135.39999389648</ele>
        <time>2021-08-07T13:05:32Z</time>
      </trkpt>
      <trkpt lat="43.60635" lon="1.45612">
        <ele>135.39999389648</ele>
        <time>2021-08-07T13:05:46Z</time>
      </trkpt>
      <trkpt lat="43.60514" lon="1.45706">
        <ele>137.39999389648</ele>
        <time>2021-08-07T13:06:49Z</time>
      </trkpt>
      <trkpt lat="43.60495" lon="1.45713">
        <ele>137.60000610352</ele>
        <time>2021-08-07T13:06:58Z</time>
      </trkpt>
      <trkpt lat="43.60368" lon="1.45716">
        <ele>138</ele>
        <time>2021-08-07T13:08:42Z</time>
      </trkpt>
      <trkpt lat="43.60284" lon="1.4572">
        <ele>137.60000610352</ele>
        <time>2021-08-07T13:09:09Z</time>
      </trkpt>
      <trkpt lat="43.60224" lon="1.45705">
        <ele>138.80000305176</ele>
        <time>2021-08-07T13:09:23Z</time>
      </trkpt>
      <trkpt lat="43.60108" lon="1.45616">
        <ele>166.19999694824</ele>
        <time>2021-08-07T14:33:54Z</time>
      </trkpt>
      <trkpt lat="43.60115" lon="1.45598">
        <ele>158</ele>
        <time>2021-08-07T14:33:58Z</time>
      </trkpt>
      <trkpt lat="43.60126" lon="1.45545">
        <ele>156.19999694824</ele>
        <time>2021-08-07T14:34:07Z</time>
      </trkpt>
      <trkpt lat="43.60116" lon="1.45396">
        <ele>153.80000305176</ele>
        <time>2021-08-07T14:34:47Z</time>
      </trkpt>
      <trkpt lat="43.60034" lon="1.453">
        <ele>154.19999694824</ele>
        <time>2021-08-07T14:35:33Z</time>
      </trkpt>
      <trkpt lat="43.60053" lon="1.45254">
        <ele>153.80000305176</ele>
        <time>2021-08-07T14:35:45Z</time>
      </trkpt>
      <trkpt lat="43.60015" lon="1.45221">
        <ele>153.19999694824</ele>
        <time>2021-08-07T14:36:04Z</time>
      </trkpt>
      <trkpt lat="43.60002" lon="1.45222">
        <ele>152.80000305176</ele>
        <time>2021-08-07T14:36:08Z</time>
      </trkpt>
      <trkpt lat="43.60015" lon="1.45169">
        <ele>152</ele>
        <time>2021-08-07T14:36:33Z</time>
      </trkpt>
      <trkpt lat="43.59882" lon="1.45167">
        <ele>151</ele>
        <time>2021-08-07T14:37:13Z</time>
      </trkpt>
      <trkpt lat="43.59876" lon="1.45164">
        <ele>151</ele>
        <time>2021-08-07T14:37:14Z</time>
      </trkpt>
      <trkpt lat="43.59844" lon="1.45156">
        <ele>151</ele>
        <time>2021-08-07T14:37:20Z</time>
      </trkpt>
      <trkpt lat="43.59788" lon="1.45142">
        <ele>151</ele>
        <time>2021-08-07T14:37:34Z</time>
      </trkpt>
      <trkpt lat="43.59804" lon="1.45055">
        <ele>150</ele>
        <time>2021-08-07T14:37:52Z</time>
      </trkpt>
      <trkpt lat="43.59837" lon="1.44891">
        <ele>150.39999389648</ele>
        <time>2021-08-07T14:38:22Z</time>
      </trkpt>
      <trkpt lat="43.59953" lon="1.44916">
        <ele>151</ele>
        <time>2021-08-07T14:38:59Z</time>
      </trkpt>
      <trkpt lat="43.59981" lon="1.44882">
        <ele>149.80000305176</ele>
        <time>2021-08-07T14:40:49Z</time>
      </trkpt>
      <trkpt lat="43.60068" lon="1.44805">
        <ele>151.19999694824</ele>
        <time>2021-08-07T14:42:06Z</time>
      </trkpt>
      <trkpt lat="43.60098" lon="1.448">
        <ele>150.19999694824</ele>
        <time>2021-08-07T14:42:17Z</time>
      </trkpt>
      <trkpt lat="43.60216" lon="1.44732">
        <ele>149.39999389648</ele>
        <time>2021-08-07T14:43:10Z</time>
      </trkpt>
      <trkpt lat="43.60221" lon="1.44731">
        <ele>149.39999389648</ele>
        <time>2021-08-07T14:43:15Z</time>
      </trkpt>
      <trkpt lat="43.60237" lon="1.44733">
        <ele>149.60000610352</ele>
        <time>2021-08-07T14:43:23Z</time>
      </trkpt>
      <trkpt lat="43.60308" lon="1.44725">
        <ele>148.80000305176</ele>
        <time>2021-08-07T14:43:45Z</time>
      </trkpt>
      <trkpt lat="43.60368" lon="1.44731">
        <ele>148.39999389648</ele>
        <time>2021-08-07T14:44:18Z</time>
      </trkpt>
      <trkpt lat="43.6043" lon="1.44733">
        <ele>148.39999389648</ele>
        <time>2021-08-07T14:44:47Z</time>
      </trkpt>
      <trkpt lat="43.60516" lon="1.44779">
        <ele>148.19999694824</ele>
        <time>2021-08-07T14:45:42Z</time>
      </trkpt>
      <trkpt lat="43.60502" lon="1.44618">
        <ele>146.80000305176</ele>
        <time>2021-08-07T14:46:37Z</time>
      </trkpt>
      <trkpt lat="43.60497" lon="1.44489">
        <ele>145.80000305176</ele>
        <time>2021-08-07T14:47:48Z</time>
      </trkpt>
      <trkpt lat="43.60508" lon="1.44377">
        <ele>146.19999694824</ele>
        <time>2021-08-07T14:48:42Z</time>
      </trkpt>
      <trkpt lat="43.60429" lon="1.44354">
        <ele>146.19999694824</ele>
        <time>2021-08-07T14:56:26Z</time>
      </trkpt>
      <trkpt lat="43.60397" lon="1.44443">
        <ele>146.60000610352</ele>
        <time>2021-08-07T14:57:12Z</time>
      </trkpt>
      <trkpt lat="43.604" lon="1.44457">
        <ele>146.60000610352</ele>
        <time>2021-08-07T14:57:21Z</time>
      </trkpt>
      <trkpt lat="43.60392" lon="1.44479">
        <ele>146.60000610352</ele>
        <time>2021-08-07T14:57:31Z</time>
      </trkpt>
      <trkpt lat="43.60383" lon="1.4448">
        <ele>146.39999389648</ele>
        <time>2021-08-07T14:59:27Z</time>
      </trkpt>
      <trkpt lat="43.60381" lon="1.44473">
        <ele>146.39999389648</ele>
        <time>2021-08-07T14:59:30Z</time>
      </trkpt>
      <trkpt lat="43.60379" lon="1.44459">
        <ele>146.60000610352</ele>
        <time>2021-08-07T14:59:38Z</time>
      </trkpt>
      <trkpt lat="43.6044" lon="1.44371">
        <ele>146.39999389648</ele>
        <time>2021-08-07T15:00:23Z</time>
      </trkpt>
      <trkpt lat="43.60458" lon="1.44377">
        <ele>146.39999389648</ele>
        <time>2021-08-07T15:00:30Z</time>
      </trkpt>
      <trkpt lat="43.60477" lon="1.44382">
        <ele>146</ele>
        <time>2021-08-07T15:00:49Z</time>
      </trkpt>
      <trkpt lat="43.60502" lon="1.44275">
        <ele>146.80000305176</ele>
        <time>2021-08-07T15:01:34Z</time>
      </trkpt>
      <trkpt lat="43.60563" lon="1.44263">
        <ele>147.60000610352</ele>
        <time>2021-08-07T15:02:15Z</time>
      </trkpt>
      <trkpt lat="43.6061" lon="1.44255">
        <ele>148</ele>
        <time>2021-08-07T15:02:40Z</time>
      </trkpt>
      <trkpt lat="43.60709" lon="1.44233">
        <ele>147.19999694824</ele>
        <time>2021-08-07T15:03:26Z</time>
      </trkpt>
      <trkpt lat="43.60786" lon="1.44181">
        <ele>150.60000610352</ele>
        <time>2021-08-07T15:03:58Z</time>
      </trkpt>
      <trkpt lat="43.60786" lon="1.44153">
        <ele>146.60000610352</ele>
        <time>2021-08-07T15:04:08Z</time>
      </trkpt>
      <trkpt lat="43.6079" lon="1.4414">
        <ele>146.60000610352</ele>
        <time>2021-08-07T15:04:14Z</time>
      </trkpt>
      <trkpt lat="43.60802" lon="1.44128">
        <ele>146.60000610352</ele>
        <time>2021-08-07T15:04:22Z</time>
      </trkpt>
      <trkpt lat="43.60822" lon="1.44091">
        <ele>146.60000610352</ele>
        <time>2021-08-07T15:07:00Z</time>
      </trkpt>
      <trkpt lat="43.60791" lon="1.44092">
        <ele>146.60000610352</ele>
        <time>2021-08-07T15:07:30Z</time>
      </trkpt>
      <trkpt lat="43.60792" lon="1.44098">
        <ele>144.60000610352</ele>
        <time>2021-08-07T15:38:23Z</time>
      </trkpt>
      <trkpt lat="43.60792" lon="1.44095">
        <ele>144.60000610352</ele>
        <time>2021-08-07T15:38:24Z</time>
      </trkpt>
      <trkpt lat="43.6076" lon="1.44041">
        <ele>144.60000610352</ele>
        <time>2021-08-07T15:38:49Z</time>
      </trkpt>
      <trkpt lat="43.60755" lon="1.43986">
        <ele>144.60000610352</ele>
        <time>2021-08-07T15:39:04Z</time>
      </trkpt>
      <trkpt lat="43.607" lon="1.43994">
        <ele>143.80000305176</ele>
        <time>2021-08-07T15:39:30Z</time>
      </trkpt>
      <trkpt lat="43.60655" lon="1.44032">
        <ele>143.60000610352</ele>
        <time>2021-08-07T15:39:51Z</time>
      </trkpt>
      <trkpt lat="43.60591" lon="1.44144">
        <ele>144</ele>
        <time>2021-08-07T15:40:37Z</time>
      </trkpt>
      <trkpt lat="43.6058" lon="1.44166">
        <ele>144</ele>
        <time>2021-08-07T15:40:47Z</time>
      </trkpt>
      <trkpt lat="43.60539" lon="1.44222">
        <ele>144.60000610352</ele>
        <time>2021-08-07T15:42:05Z</time>
      </trkpt>
      <trkpt lat="43.60532" lon="1.44244">
        <ele>144.60000610352</ele>
        <time>2021-08-07T15:42:18Z</time>
      </trkpt>
      <trkpt lat="43.60527" lon="1.44247">
        <ele>144.60000610352</ele>
        <time>2021-08-07T15:42:23Z</time>
      </trkpt>
      <trkpt lat="43.60507" lon="1.44258">
        <ele>144.19999694824</ele>
        <time>2021-08-07T15:42:38Z</time>
      </trkpt>
      <trkpt lat="43.60482" lon="1.44176">
        <ele>143.80000305176</ele>
        <time>2021-08-07T15:43:27Z</time>
      </trkpt>
      <trkpt lat="43.60483" lon="1.44174">
        <ele>143.80000305176</ele>
        <time>2021-08-07T15:43:29Z</time>
      </trkpt>
      <trkpt lat="43.60488" lon="1.44134">
        <ele>143.19999694824</ele>
        <time>2021-08-07T15:43:51Z</time>
      </trkpt>
      <trkpt lat="43.60466" lon="1.44096">
        <ele>143</ele>
        <time>2021-08-07T15:44:04Z</time>
      </trkpt>
      <trkpt lat="43.60457" lon="1.44082">
        <ele>142.80000305176</ele>
        <time>2021-08-07T15:44:12Z</time>
      </trkpt>
      <trkpt lat="43.60455" lon="1.44065">
        <ele>142.60000610352</ele>
        <time>2021-08-07T15:44:24Z</time>
      </trkpt>
      <trkpt lat="43.60451" lon="1.44063">
        <ele>142.60000610352</ele>
        <time>2021-08-07T15:44:32Z</time>
      </trkpt>
      <trkpt lat="43.60345" lon="1.44071">
        <ele>143</ele>
        <time>2021-08-07T15:45:21Z</time>
      </trkpt>
      <trkpt lat="43.603" lon="1.44085">
        <ele>143.80000305176</ele>
        <time>2021-08-07T15:45:45Z</time>
      </trkpt>
      <trkpt lat="43.60245" lon="1.44105">
        <ele>144.39999389648</ele>
        <time>2021-08-07T15:46:09Z</time>
      </trkpt>
      <trkpt lat="43.60213" lon="1.4411">
        <ele>144.60000610352</ele>
        <time>2021-08-07T15:46:20Z</time>
      </trkpt>
      <trkpt lat="43.60206" lon="1.44093">
        <ele>144.60000610352</ele>
        <time>2021-08-07T15:46:33Z</time>
      </trkpt>
      <trkpt lat="43.60199" lon="1.43923">
        <ele>144.39999389648</ele>
        <time>2021-08-07T15:47:14Z</time>
      </trkpt>
      <trkpt lat="43.60247" lon="1.43842">
        <ele>143.60000610352</ele>
        <time>2021-08-07T15:47:54Z</time>
      </trkpt>
      <trkpt lat="43.60258" lon="1.43833">
        <ele>143.39999389648</ele>
        <time>2021-08-07T15:47:59Z</time>
      </trkpt>
      <trkpt lat="43.60316" lon="1.4385">
        <ele>142.80000305176</ele>
        <time>2021-08-07T15:48:20Z</time>
      </trkpt>
      <trkpt lat="43.60369" lon="1.43856">
        <ele>143.19999694824</ele>
        <time>2021-08-07T15:48:46Z</time>
      </trkpt>
      <trkpt lat="43.60407" lon="1.43833">
        <ele>143.19999694824</ele>
        <time>2021-08-07T15:49:02Z</time>
      </trkpt>
      <trkpt lat="43.6043" lon="1.43938">
        <ele>142.80000305176</ele>
        <time>2021-08-07T15:49:38Z</time>
      </trkpt>
      <trkpt lat="43.60443" lon="1.44012">
        <ele>142.19999694824</ele>
        <time>2021-08-07T15:50:05Z</time>
      </trkpt>
      <trkpt lat="43.60439" lon="1.44054">
        <ele>142</ele>
        <time>2021-08-07T15:50:26Z</time>
      </trkpt>
      <trkpt lat="43.60432" lon="1.44061">
        <ele>142</ele>
        <time>2021-08-07T15:50:32Z</time>
      </trkpt>
      <trkpt lat="43.604" lon="1.44068">
        <ele>142.39999389648</ele>
        <time>2021-08-07T15:50:45Z</time>
      </trkpt>
      <trkpt lat="43.60378" lon="1.44071">
        <ele>142.80000305176</ele>
        <time>2021-08-07T15:50:53Z</time>
      </trkpt>
      <trkpt lat="43.60341" lon="1.44056">
        <ele>143.39999389648</ele>
        <time>2021-08-07T15:51:19Z</time>
      </trkpt>
      <trkpt lat="43.6034" lon="1.44025">
        <ele>144</ele>
        <time>2021-08-07T15:51:35Z</time>
      </trkpt>
      <trkpt lat="43.60326" lon="1.43992">
        <ele>143</ele>
        <time>2021-08-07T16:08:56Z</time>
      </trkpt>
      <trkpt lat="43.60344" lon="1.44014">
        <ele>143.19999694824</ele>
        <time>2021-08-07T16:09:09Z</time>
      </trkpt>
      <trkpt lat="43.60276" lon="1.44078">
        <ele>144.19999694824</ele>
        <time>2021-08-07T16:11:13Z</time>
      </trkpt>
      <trkpt lat="43.60148" lon="1.44005">
        <ele>143.60000610352</ele>
        <time>2021-08-07T16:12:14Z</time>
      </trkpt>
      <trkpt lat="43.60142" lon="1.43958">
        <ele>143</ele>
        <time>2021-08-07T16:12:37Z</time>
      </trkpt>
      <trkpt lat="43.60111" lon="1.4393">
        <ele>143.19999694824</ele>
        <time>2021-08-07T16:12:51Z</time>
      </trkpt>
      <trkpt lat="43.601" lon="1.43922">
        <ele>142.60000610352</ele>
        <time>2021-08-07T16:12:59Z</time>
      </trkpt>
      <trkpt lat="43.60079" lon="1.4392">
        <ele>139.60000610352</ele>
        <time>2021-08-07T16:18:50Z</time>
      </trkpt>
      <trkpt lat="43.60077" lon="1.43921">
        <ele>139.60000610352</ele>
        <time>2021-08-07T16:18:51Z</time>
      </trkpt>
      <trkpt lat="43.60022" lon="1.43944">
        <ele>140.80000305176</ele>
        <time>2021-08-07T16:19:14Z</time>
      </trkpt>
      <trkpt lat="43.59977" lon="1.44019">
        <ele>144</ele>
        <time>2021-08-07T16:19:37Z</time>
      </trkpt>
      <trkpt lat="43.59961" lon="1.44048">
        <ele>143.19999694824</ele>
        <time>2021-08-07T16:21:02Z</time>
      </trkpt>
      <trkpt lat="43.59962" lon="1.44051">
        <ele>143</ele>
        <time>2021-08-07T16:21:03Z</time>
      </trkpt>
      <trkpt lat="43.59965" lon="1.44075">
        <ele>143.19999694824</ele>
        <time>2021-08-07T16:21:11Z</time>
      </trkpt>
      <trkpt lat="43.59974" lon="1.44109">
        <ele>142.80000305176</ele>
        <time>2021-08-07T16:21:16Z</time>
      </trkpt>
      <trkpt lat="43.60022" lon="1.44313">
        <ele>143</ele>
        <time>2021-08-07T16:22:10Z</time>
      </trkpt>
      <trkpt lat="43.60023" lon="1.44364">
        <ele>143</ele>
        <time>2021-08-07T16:22:25Z</time>
      </trkpt>
      <trkpt lat="43.60014" lon="1.44375">
        <ele>143</ele>
        <time>2021-08-07T16:22:37Z</time>
      </trkpt>
      <trkpt lat="43.59964" lon="1.44476">
        <ele>143.19999694824</ele>
        <time>2021-08-07T16:23:36Z</time>
      </trkpt>
      <trkpt lat="43.59966" lon="1.44489">
        <ele>143.19999694824</ele>
        <time>2021-08-07T16:23:41Z</time>
      </trkpt>
      <trkpt lat="43.59951" lon="1.44553">
        <ele>144</ele>
        <time>2021-08-07T16:24:34Z</time>
      </trkpt>
      <trkpt lat="43.59979" lon="1.44717">
        <ele>142.80000305176</ele>
        <time>2021-08-07T16:25:08Z</time>
      </trkpt>
      <trkpt lat="43.59989" lon="1.44856">
        <ele>142</ele>
        <time>2021-08-07T16:25:40Z</time>
      </trkpt>
      <trkpt lat="43.59986" lon="1.44933">
        <ele>140.80000305176</ele>
        <time>2021-08-07T16:29:04Z</time>
      </trkpt>
      <trkpt lat="43.60052" lon="1.45006">
        <ele>140.19999694824</ele>
        <time>2021-08-07T16:30:22Z</time>
      </trkpt>
      <trkpt lat="43.60063" lon="1.44863">
        <ele>142.19999694824</ele>
        <time>2021-08-07T16:31:07Z</time>
      </trkpt>
      <trkpt lat="43.60063" lon="1.44766">
        <ele>142.60000610352</ele>
        <time>2021-08-07T16:31:32Z</time>
      </trkpt>
      <trkpt lat="43.6006" lon="1.44734">
        <ele>142.39999389648</ele>
        <time>2021-08-07T16:31:39Z</time>
      </trkpt>
      <trkpt lat="43.60089" lon="1.44695">
        <ele>141.19999694824</ele>
        <time>2021-08-07T16:32:00Z</time>
      </trkpt>
      <trkpt lat="43.60096" lon="1.44693">
        <ele>141.60000610352</ele>
        <time>2021-08-07T16:32:04Z</time>
      </trkpt>
      <trkpt lat="43.602" lon="1.4472">
        <ele>140.60000610352</ele>
        <time>2021-08-07T16:32:52Z</time>
      </trkpt>
      <trkpt lat="43.60186" lon="1.44733">
        <ele>139.60000610352</ele>
        <time>2021-08-07T16:35:35Z</time>
      </trkpt>
      <trkpt lat="43.6019" lon="1.4475">
        <ele>139.39999389648</ele>
        <time>2021-08-07T16:40:10Z</time>
      </trkpt>
      <trkpt lat="43.60241" lon="1.44741">
        <ele>139.19999694824</ele>
        <time>2021-08-07T16:40:47Z</time>
      </trkpt>
      <trkpt lat="43.60269" lon="1.44727">
        <ele>139.19999694824</ele>
        <time>2021-08-07T16:41:01Z</time>
      </trkpt>
      <trkpt lat="43.60336" lon="1.44741">
        <ele>138.39999389648</ele>
        <time>2021-08-07T16:41:30Z</time>
      </trkpt>
      <trkpt lat="43.60349" lon="1.44737">
        <ele>138.19999694824</ele>
        <time>2021-08-07T16:41:40Z</time>
      </trkpt>
      <trkpt lat="43.6042" lon="1.44737">
        <ele>138.39999389648</ele>
        <time>2021-08-07T16:42:01Z</time>
      </trkpt>
      <trkpt lat="43.60436" lon="1.44735">
        <ele>138.60000610352</ele>
        <time>2021-08-07T16:42:06Z</time>
      </trkpt>
      <trkpt lat="43.60468" lon="1.44788">
        <ele>137.80000305176</ele>
        <time>2021-08-07T16:42:29Z</time>
      </trkpt>
      <trkpt lat="43.60507" lon="1.44793">
        <ele>137.80000305176</ele>
        <time>2021-08-07T16:43:12Z</time>
      </trkpt>
      <trkpt lat="43.6053" lon="1.44707">
        <ele>138.39999389648</ele>
        <time>2021-08-07T16:44:21Z</time>
      </trkpt>
      <trkpt lat="43.60489" lon="1.44637">
        <ele>137</ele>
        <time>2021-08-07T16:45:08Z</time>
      </trkpt>
      <trkpt lat="43.6049" lon="1.44642">
        <ele>136.60000610352</ele>
        <time>2021-08-07T16:45:19Z</time>
      </trkpt>
      <trkpt lat="43.60513" lon="1.44646">
        <ele>138</ele>
        <time>2021-08-07T16:45:40Z</time>
      </trkpt>
      <trkpt lat="43.60632" lon="1.44703">
        <ele>137.39999389648</ele>
        <time>2021-08-07T16:49:51Z</time>
      </trkpt>
      <trkpt lat="43.60678" lon="1.44665">
        <ele>137.39999389648</ele>
        <time>2021-08-07T16:50:22Z</time>
      </trkpt>
      <trkpt lat="43.60756" lon="1.44664">
        <ele>136.80000305176</ele>
        <time>2021-08-07T16:51:29Z</time>
      </trkpt>
      <trkpt lat="43.6077" lon="1.44674">
        <ele>130.19999694824</ele>
        <time>2021-08-07T18:30:09Z</time>
      </trkpt>
      <trkpt lat="43.6077" lon="1.44674">
        <ele>130.19999694824</ele>
        <time>2021-08-07T18:30:10Z</time>
      </trkpt>
      <trkpt lat="43.60791" lon="1.44651">
        <ele>130.80000305176</ele>
        <time>2021-08-07T18:30:49Z</time>
      </trkpt>
      <trkpt lat="43.60776" lon="1.44571">
        <ele>130.60000610352</ele>
        <time>2021-08-07T18:31:09Z</time>
      </trkpt>
      <trkpt lat="43.60765" lon="1.44556">
        <ele>130.19999694824</ele>
        <time>2021-08-07T18:31:17Z</time>
      </trkpt>
      <trkpt lat="43.60721" lon="1.44522">
        <ele>129.39999389648</ele>
        <time>2021-08-07T18:31:41Z</time>
      </trkpt>
      <trkpt lat="43.60698" lon="1.44522">
        <ele>129.39999389648</ele>
        <time>2021-08-07T18:31:49Z</time>
      </trkpt>
      <trkpt lat="43.60646" lon="1.44503">
        <ele>129.39999389648</ele>
        <time>2021-08-07T18:32:06Z</time>
      </trkpt>
      <trkpt lat="43.60575" lon="1.44467">
        <ele>129.80000305176</ele>
        <time>2021-08-07T18:32:29Z</time>
      </trkpt>
      <trkpt lat="43.60557" lon="1.44443">
        <ele>129.60000610352</ele>
        <time>2021-08-07T18:33:27Z</time>
      </trkpt>
      <trkpt lat="43.60528" lon="1.4445">
        <ele>130</ele>
        <time>2021-08-07T18:33:36Z</time>
      </trkpt>
      <trkpt lat="43.60509" lon="1.44454">
        <ele>130</ele>
        <time>2021-08-07T18:33:42Z</time>
      </trkpt>
      <trkpt lat="43.60466" lon="1.44355">
        <ele>130.39999389648</ele>
        <time>2021-08-07T18:34:21Z</time>
      </trkpt>
      <trkpt lat="43.60469" lon="1.44304">
        <ele>131.19999694824</ele>
        <time>2021-08-07T18:34:51Z</time>
      </trkpt>
      <trkpt lat="43.60483" lon="1.44193">
        <ele>130.80000305176</ele>
        <time>2021-08-07T18:35:31Z</time>
      </trkpt>
      <trkpt lat="43.60422" lon="1.44047">
        <ele>129.39999389648</ele>
        <time>2021-08-07T18:36:17Z</time>
      </trkpt>
      <trkpt lat="43.6041" lon="1.44025">
        <ele>129.19999694824</ele>
        <time>2021-08-07T18:36:27Z</time>
      </trkpt>
      <trkpt lat="43.60452" lon="1.44046">
        <ele>129.19999694824</ele>
        <time>2021-08-07T18:36:55Z</time>
      </trkpt>
      <trkpt lat="43.60453" lon="1.44049">
        <ele>129.19999694824</ele>
        <time>2021-08-07T18:36:56Z</time>
      </trkpt>
      <trkpt lat="43.6046" lon="1.44063">
        <ele>129</ele>
        <time>2021-08-07T18:37:04Z</time>
      </trkpt>
      <trkpt lat="43.60465" lon="1.44044">
        <ele>128.19999694824</ele>
        <time>2021-08-07T18:41:52Z</time>
      </trkpt>
      <trkpt lat="43.60434" lon="1.43998">
        <ele>128.19999694824</ele>
        <time>2021-08-07T18:42:08Z</time>
      </trkpt>
      <trkpt lat="43.60421" lon="1.43958">
        <ele>128.39999389648</ele>
        <time>2021-08-07T18:42:21Z</time>
      </trkpt>
      <trkpt lat="43.6043" lon="1.43924">
        <ele>128.80000305176</ele>
        <time>2021-08-07T18:42:37Z</time>
      </trkpt>
      <trkpt lat="43.60427" lon="1.439">
        <ele>129</ele>
        <time>2021-08-07T18:42:48Z</time>
      </trkpt>
      <trkpt lat="43.60396" lon="1.43792">
        <ele>129.80000305176</ele>
        <time>2021-08-07T18:43:33Z</time>
      </trkpt>
      <trkpt lat="43.60379" lon="1.43612">
        <ele>128.80000305176</ele>
        <time>2021-08-07T18:44:30Z</time>
      </trkpt>
      <trkpt lat="43.60375" lon="1.43596">
        <ele>128.60000610352</ele>
        <time>2021-08-07T18:44:44Z</time>
      </trkpt>
      <trkpt lat="43.6033" lon="1.43602">
        <ele>128.39999389648</ele>
        <time>2021-08-07T18:45:09Z</time>
      </trkpt>
      <trkpt lat="43.60312" lon="1.43594">
        <ele>128.80000305176</ele>
        <time>2021-08-07T18:45:16Z</time>
      </trkpt>
      <trkpt lat="43.60271" lon="1.43635">
        <ele>127.19999694824</ele>
        <time>2021-08-07T18:46:50Z</time>
      </trkpt>
      <trkpt lat="43.60262" lon="1.4366">
        <ele>127.40000152588</ele>
        <time>2021-08-07T18:46:57Z</time>
      </trkpt>
      <trkpt lat="43.60213" lon="1.43788">
        <ele>127.80000305176</ele>
        <time>2021-08-07T18:47:26Z</time>
      </trkpt>
      <trkpt lat="43.60207" lon="1.43797">
        <ele>127.80000305176</ele>
        <time>2021-08-07T18:47:28Z</time>
      </trkpt>
      <trkpt lat="43.60181" lon="1.43846">
        <ele>127.59999847412</ele>
        <time>2021-08-07T18:50:08Z</time>
      </trkpt>
      <trkpt lat="43.60183" lon="1.4385">
        <ele>127.59999847412</ele>
        <time>2021-08-07T18:50:10Z</time>
      </trkpt>
      <trkpt lat="43.60195" lon="1.43892">
        <ele>128</ele>
        <time>2021-08-07T18:50:25Z</time>
      </trkpt>
      <trkpt lat="43.60188" lon="1.43907">
        <ele>128</ele>
        <time>2021-08-07T18:50:31Z</time>
      </trkpt>
      <trkpt lat="43.60158" lon="1.43958">
        <ele>128.19999694824</ele>
        <time>2021-08-07T18:50:51Z</time>
      </trkpt>
      <trkpt lat="43.60156" lon="1.43971">
        <ele>128.19999694824</ele>
        <time>2021-08-07T18:50:57Z</time>
      </trkpt>
      <trkpt lat="43.60256" lon="1.44129">
        <ele>129.19999694824</ele>
        <time>2021-08-07T18:52:12Z</time>
      </trkpt>
      <trkpt lat="43.60334" lon="1.44204">
        <ele>129.80000305176</ele>
        <time>2021-08-07T18:52:59Z</time>
      </trkpt>
      <trkpt lat="43.60366" lon="1.44254">
        <ele>129.39999389648</ele>
        <time>2021-08-07T18:53:11Z</time>
      </trkpt>
      <trkpt lat="43.60376" lon="1.44276">
        <ele>129.19999694824</ele>
        <time>2021-08-07T18:53:18Z</time>
      </trkpt>
      <trkpt lat="43.60394" lon="1.44386">
        <ele>128.80000305176</ele>
        <time>2021-08-07T18:53:55Z</time>
      </trkpt>
      <trkpt lat="43.60412" lon="1.44376">
        <ele>128.19999694824</ele>
        <time>2021-08-07T18:54:09Z</time>
      </trkpt>
      <trkpt lat="43.60427" lon="1.44358">
        <ele>128.39999389648</ele>
        <time>2021-08-07T18:56:29Z</time>
      </trkpt>
      <trkpt lat="43.60428" lon="1.44365">
        <ele>128.19999694824</ele>
        <time>2021-08-07T18:56:35Z</time>
      </trkpt>
      <trkpt lat="43.60394" lon="1.44426">
        <ele>128.19999694824</ele>
        <time>2021-08-07T18:57:02Z</time>
      </trkpt>
      <trkpt lat="43.60394" lon="1.44448">
        <ele>128.39999389648</ele>
        <time>2021-08-07T18:57:09Z</time>
      </trkpt>
      <trkpt lat="43.60362" lon="1.44483">
        <ele>129</ele>
        <time>2021-08-07T18:57:28Z</time>
      </trkpt>
      <trkpt lat="43.60332" lon="1.44549">
        <ele>129.39999389648</ele>
        <time>2021-08-07T18:57:51Z</time>
      </trkpt>
      <trkpt lat="43.60416" lon="1.44644">
        <ele>128.80000305176</ele>
        <time>2021-08-07T18:58:36Z</time>
      </trkpt>
      <trkpt lat="43.60479" lon="1.44793">
        <ele>128.80000305176</ele>
        <time>2021-08-07T18:59:30Z</time>
      </trkpt>
      <trkpt lat="43.60544" lon="1.44861">
        <ele>128.60000610352</ele>
        <time>2021-08-07T19:00:00Z</time>
      </trkpt>
      <trkpt lat="43.60728" lon="1.45141">
        <ele>128</ele>
        <time>2021-08-07T19:01:15Z</time>
      </trkpt>
      <trkpt lat="43.60719" lon="1.45149">
        <ele>128</ele>
        <time>2021-08-07T19:01:20Z</time>
      </trkpt>
      <trkpt lat="43.60623" lon="1.45233">
        <ele>129.39999389648</ele>
        <time>2021-08-07T19:01:57Z</time>
      </trkpt>
      <trkpt lat="43.60605" lon="1.45245">
        <ele>129.39999389648</ele>
        <time>2021-08-07T19:02:09Z</time>
      </trkpt>
      <trkpt lat="43.60609" lon="1.453">
        <ele>129.80000305176</ele>
        <time>2021-08-07T19:02:19Z</time>
      </trkpt>
      <trkpt lat="43.60618" lon="1.45462">
        <ele>131.19999694824</ele>
        <time>2021-08-07T19:02:56Z</time>
      </trkpt>
      <trkpt lat="43.60643" lon="1.45585">
        <ele>133</ele>
        <time>2021-08-07T19:03:27Z</time>
      </trkpt>
      <trkpt lat="43.60812" lon="1.45501">
        <ele>133</ele>
        <time>2021-08-07T19:04:22Z</time>
      </trkpt>
      <trkpt lat="43.60859" lon="1.45475">
        <ele>133</ele>
        <time>2021-08-07T19:04:31Z</time>
      </trkpt>
      <trkpt lat="43.60864" lon="1.45469">
        <ele>133</ele>
        <time>2021-08-07T19:04:32Z</time>
      </trkpt>
      <trkpt lat="43.60885" lon="1.45448">
        <ele>133</ele>
        <time>2021-08-07T19:04:36Z</time>
      </trkpt>
      <trkpt lat="43.6092" lon="1.45417">
        <ele>133.80000305176</ele>
        <time>2021-08-07T19:04:51Z</time>
      </trkpt>
      <trkpt lat="43.6093" lon="1.45441">
        <ele>135.19999694824</ele>
        <time>2021-08-07T19:06:30Z</time>
      </trkpt>
      <trkpt lat="43.60788" lon="1.45549">
        <ele>133.19999694824</ele>
        <time>2021-08-07T19:07:22Z</time>
      </trkpt>
      <trkpt lat="43.60734" lon="1.45569">
        <ele>133.19999694824</ele>
        <time>2021-08-07T19:07:38Z</time>
      </trkpt>
      <trkpt lat="43.6066" lon="1.45623">
        <ele>132.80000305176</ele>
        <time>2021-08-07T19:08:19Z</time>
      </trkpt>
      <trkpt lat="43.60606" lon="1.4566">
        <ele>133.60000610352</ele>
        <time>2021-08-07T19:08:38Z</time>
      </trkpt>
      <trkpt lat="43.60592" lon="1.45673">
        <ele>133.39999389648</ele>
        <time>2021-08-07T19:08:42Z</time>
      </trkpt>
      <trkpt lat="43.60464" lon="1.45711">
        <ele>134.60000610352</ele>
        <time>2021-08-07T19:09:33Z</time>
      </trkpt>
      <trkpt lat="43.60228" lon="1.45705">
        <ele>135.60000610352</ele>
        <time>2021-08-07T19:10:16Z</time>
      </trkpt>
      <trkpt lat="43.60194" lon="1.4571">
        <ele>136</ele>
        <time>2021-08-07T19:10:27Z</time>
      </trkpt>
      <trkpt lat="43.60135" lon="1.45657">
        <ele>135</ele>
        <time>2021-08-07T19:11:55Z</time>
      </trkpt>
      <trkpt lat="43.60188" lon="1.45697">
        <ele>156.19999694824</ele>
        <time>2021-08-08T06:22:27Z</time>
      </trkpt>
      <trkpt lat="43.60138" lon="1.45672">
        <ele>158.39999389648</ele>
        <time>2021-08-08T06:22:43Z</time>
      </trkpt>
      <trkpt lat="43.60127" lon="1.4564">
        <ele>157.80000305176</ele>
        <time>2021-08-08T06:23:26Z</time>
      </trkpt>
      <trkpt lat="43.60076" lon="1.45588">
        <ele>157.19999694824</ele>
        <time>2021-08-08T06:23:53Z</time>
      </trkpt>
      <trkpt lat="43.60054" lon="1.45593">
        <ele>156.80000305176</ele>
        <time>2021-08-08T06:23:58Z</time>
      </trkpt>
      <trkpt lat="43.59985" lon="1.4561">
        <ele>156</ele>
        <time>2021-08-08T06:24:08Z</time>
      </trkpt>
      <trkpt lat="43.59961" lon="1.45611">
        <ele>155.60000610352</ele>
        <time>2021-08-08T06:24:17Z</time>
      </trkpt>
      <trkpt lat="43.59964" lon="1.45613">
        <ele>154.80000305176</ele>
        <time>2021-08-08T06:24:23Z</time>
      </trkpt>
      <trkpt lat="43.5983" lon="1.456">
        <ele>154.60000610352</ele>
        <time>2021-08-08T06:24:51Z</time>
      </trkpt>
      <trkpt lat="43.59761" lon="1.45609">
        <ele>155.19999694824</ele>
        <time>2021-08-08T06:25:06Z</time>
      </trkpt>
      <trkpt lat="43.59737" lon="1.45612">
        <ele>155.19999694824</ele>
        <time>2021-08-08T06:25:11Z</time>
      </trkpt>
      <trkpt lat="43.59648" lon="1.45586">
        <ele>154.60000610352</ele>
        <time>2021-08-08T06:25:32Z</time>
      </trkpt>
      <trkpt lat="43.59629" lon="1.45583">
        <ele>154.39999389648</ele>
        <time>2021-08-08T06:25:36Z</time>
      </trkpt>
      <trkpt lat="43.59538" lon="1.45576">
        <ele>154.39999389648</ele>
        <time>2021-08-08T06:25:57Z</time>
      </trkpt>
      <trkpt lat="43.59499" lon="1.45578">
        <ele>154</ele>
        <time>2021-08-08T06:26:06Z</time>
      </trkpt>
      <trkpt lat="43.5944" lon="1.45598">
        <ele>153.60000610352</ele>
        <time>2021-08-08T06:26:21Z</time>
      </trkpt>
      <trkpt lat="43.59433" lon="1.45605">
        <ele>153.60000610352</ele>
        <time>2021-08-08T06:26:23Z</time>
      </trkpt>
      <trkpt lat="43.59362" lon="1.45697">
        <ele>154</ele>
        <time>2021-08-08T06:26:46Z</time>
      </trkpt>
      <trkpt lat="43.59332" lon="1.45731">
        <ele>154.19999694824</ele>
        <time>2021-08-08T06:26:53Z</time>
      </trkpt>
      <trkpt lat="43.59271" lon="1.45781">
        <ele>154.39999389648</ele>
        <time>2021-08-08T06:27:04Z</time>
      </trkpt>
      <trkpt lat="43.59122" lon="1.45945">
        <ele>154.39999389648</ele>
        <time>2021-08-08T06:27:40Z</time>
      </trkpt>
      <trkpt lat="43.59066" lon="1.45963">
        <ele>154.19999694824</ele>
        <time>2021-08-08T06:27:52Z</time>
      </trkpt>
      <trkpt lat="43.58906" lon="1.45993">
        <ele>153.60000610352</ele>
        <time>2021-08-08T06:28:34Z</time>
      </trkpt>
      <trkpt lat="43.58891" lon="1.45998">
        <ele>154</ele>
        <time>2021-08-08T06:28:37Z</time>
      </trkpt>
      <trkpt lat="43.58778" lon="1.46033">
        <ele>154</ele>
        <time>2021-08-08T06:29:01Z</time>
      </trkpt>
      <trkpt lat="43.58754" lon="1.46042">
        <ele>153.80000305176</ele>
        <time>2021-08-08T06:29:06Z</time>
      </trkpt>
      <trkpt lat="43.58644" lon="1.46072">
        <ele>154.80000305176</ele>
        <time>2021-08-08T06:29:28Z</time>
      </trkpt>
      <trkpt lat="43.58205" lon="1.46268">
        <ele>154.80000305176</ele>
        <time>2021-08-08T06:30:54Z</time>
      </trkpt>
      <trkpt lat="43.58105" lon="1.46359">
        <ele>154.80000305176</ele>
        <time>2021-08-08T06:31:25Z</time>
      </trkpt>
      <trkpt lat="43.58087" lon="1.46371">
        <ele>155</ele>
        <time>2021-08-08T06:31:29Z</time>
      </trkpt>
      <trkpt lat="43.57995" lon="1.46464">
        <ele>156</ele>
        <time>2021-08-08T06:31:51Z</time>
      </trkpt>
      <trkpt lat="43.57931" lon="1.46526">
        <ele>156</ele>
        <time>2021-08-08T06:32:08Z</time>
      </trkpt>
      <trkpt lat="43.5786" lon="1.46556">
        <ele>155.80000305176</ele>
        <time>2021-08-08T06:32:23Z</time>
      </trkpt>
      <trkpt lat="43.57804" lon="1.46575">
        <ele>155.60000610352</ele>
        <time>2021-08-08T06:32:32Z</time>
      </trkpt>
      <trkpt lat="43.5753" lon="1.46736">
        <ele>155.80000305176</ele>
        <time>2021-08-08T06:33:29Z</time>
      </trkpt>
      <trkpt lat="43.57456" lon="1.46863">
        <ele>155.60000610352</ele>
        <time>2021-08-08T06:33:51Z</time>
      </trkpt>
      <trkpt lat="43.57395" lon="1.46932">
        <ele>153.19999694824</ele>
        <time>2021-08-08T06:34:07Z</time>
      </trkpt>
      <trkpt lat="43.5736" lon="1.46944">
        <ele>154.19999694824</ele>
        <time>2021-08-08T06:34:20Z</time>
      </trkpt>
      <trkpt lat="43.57328" lon="1.46959">
        <ele>155</ele>
        <time>2021-08-08T06:34:30Z</time>
      </trkpt>
      <trkpt lat="43.57205" lon="1.46976">
        <ele>155.39999389648</ele>
        <time>2021-08-08T06:34:55Z</time>
      </trkpt>
      <trkpt lat="43.57021" lon="1.47004">
        <ele>156</ele>
        <time>2021-08-08T06:35:37Z</time>
      </trkpt>
      <trkpt lat="43.57005" lon="1.47056">
        <ele>156.60000610352</ele>
        <time>2021-08-08T06:35:55Z</time>
      </trkpt>
      <trkpt lat="43.56891" lon="1.47148">
        <ele>156</ele>
        <time>2021-08-08T06:36:19Z</time>
      </trkpt>
      <trkpt lat="43.56744" lon="1.47175">
        <ele>155.80000305176</ele>
        <time>2021-08-08T06:36:41Z</time>
      </trkpt>
      <trkpt lat="43.56552" lon="1.47162">
        <ele>154.60000610352</ele>
        <time>2021-08-08T06:37:20Z</time>
      </trkpt>
      <trkpt lat="43.56522" lon="1.47167">
        <ele>153.39999389648</ele>
        <time>2021-08-08T06:37:30Z</time>
      </trkpt>
      <trkpt lat="43.56488" lon="1.47166">
        <ele>153.80000305176</ele>
        <time>2021-08-08T06:37:40Z</time>
      </trkpt>
      <trkpt lat="43.56449" lon="1.47164">
        <ele>154.19999694824</ele>
        <time>2021-08-08T06:37:48Z</time>
      </trkpt>
      <trkpt lat="43.56293" lon="1.47274">
        <ele>154.60000610352</ele>
        <time>2021-08-08T06:38:23Z</time>
      </trkpt>
      <trkpt lat="43.56229" lon="1.47365">
        <ele>154.19999694824</ele>
        <time>2021-08-08T06:38:40Z</time>
      </trkpt>
      <trkpt lat="43.56079" lon="1.47538">
        <ele>154.60000610352</ele>
        <time>2021-08-08T06:39:18Z</time>
      </trkpt>
      <trkpt lat="43.55946" lon="1.4771">
        <ele>154.39999389648</ele>
        <time>2021-08-08T06:39:47Z</time>
      </trkpt>
      <trkpt lat="43.55873" lon="1.47819">
        <ele>154.39999389648</ele>
        <time>2021-08-08T06:40:06Z</time>
      </trkpt>
      <trkpt lat="43.55856" lon="1.47854">
        <ele>154.39999389648</ele>
        <time>2021-08-08T06:40:12Z</time>
      </trkpt>
      <trkpt lat="43.55827" lon="1.47895">
        <ele>154.39999389648</ele>
        <time>2021-08-08T06:40:19Z</time>
      </trkpt>
      <trkpt lat="43.55814" lon="1.47912">
        <ele>154.60000610352</ele>
        <time>2021-08-08T06:40:22Z</time>
      </trkpt>
      <trkpt lat="43.55793" lon="1.47931">
        <ele>154.39999389648</ele>
        <time>2021-08-08T06:40:26Z</time>
      </trkpt>
      <trkpt lat="43.55614" lon="1.48073">
        <ele>154.19999694824</ele>
        <time>2021-08-08T06:41:03Z</time>
      </trkpt>
      <trkpt lat="43.55583" lon="1.48083">
        <ele>153.60000610352</ele>
        <time>2021-08-08T06:41:07Z</time>
      </trkpt>
      <trkpt lat="43.55503" lon="1.48115">
        <ele>152.80000305176</ele>
        <time>2021-08-08T06:41:21Z</time>
      </trkpt>
      <trkpt lat="43.55439" lon="1.48119">
        <ele>153</ele>
        <time>2021-08-08T06:41:35Z</time>
      </trkpt>
      <trkpt lat="43.55405" lon="1.48118">
        <ele>153.39999389648</ele>
        <time>2021-08-08T06:41:42Z</time>
      </trkpt>
      <trkpt lat="43.55309" lon="1.48138">
        <ele>153.60000610352</ele>
        <time>2021-08-08T06:41:59Z</time>
      </trkpt>
      <trkpt lat="43.5511" lon="1.48211">
        <ele>154</ele>
        <time>2021-08-08T06:42:38Z</time>
      </trkpt>
      <trkpt lat="43.54996" lon="1.48322">
        <ele>154.60000610352</ele>
        <time>2021-08-08T06:43:08Z</time>
      </trkpt>
      <trkpt lat="43.54921" lon="1.48393">
        <ele>155.39999389648</ele>
        <time>2021-08-08T06:43:26Z</time>
      </trkpt>
      <trkpt lat="43.54885" lon="1.4842">
        <ele>155.39999389648</ele>
        <time>2021-08-08T06:43:35Z</time>
      </trkpt>
      <trkpt lat="43.54834" lon="1.48463">
        <ele>156.19999694824</ele>
        <time>2021-08-08T06:43:56Z</time>
      </trkpt>
      <trkpt lat="43.54798" lon="1.48463">
        <ele>153</ele>
        <time>2021-08-08T06:44:20Z</time>
      </trkpt>
      <trkpt lat="43.54769" lon="1.48486">
        <ele>153</ele>
        <time>2021-08-08T06:44:30Z</time>
      </trkpt>
      <trkpt lat="43.54741" lon="1.4851">
        <ele>153.39999389648</ele>
        <time>2021-08-08T06:44:37Z</time>
      </trkpt>
      <trkpt lat="43.54561" lon="1.48777">
        <ele>153.39999389648</ele>
        <time>2021-08-08T06:45:26Z</time>
      </trkpt>
      <trkpt lat="43.54543" lon="1.4883">
        <ele>153.19999694824</ele>
        <time>2021-08-08T06:45:34Z</time>
      </trkpt>
      <trkpt lat="43.54411" lon="1.49029">
        <ele>153.39999389648</ele>
        <time>2021-08-08T06:46:18Z</time>
      </trkpt>
      <trkpt lat="43.5438" lon="1.49045">
        <ele>153.39999389648</ele>
        <time>2021-08-08T06:46:26Z</time>
      </trkpt>
      <trkpt lat="43.54112" lon="1.49195">
        <ele>153.39999389648</ele>
        <time>2021-08-08T06:47:21Z</time>
      </trkpt>
      <trkpt lat="43.53996" lon="1.49239">
        <ele>153.19999694824</ele>
        <time>2021-08-08T06:47:40Z</time>
      </trkpt>
      <trkpt lat="43.5396" lon="1.49242">
        <ele>151.60000610352</ele>
        <time>2021-08-08T06:48:41Z</time>
      </trkpt>
      <trkpt lat="43.53954" lon="1.49244">
        <ele>151.60000610352</ele>
        <time>2021-08-08T06:48:43Z</time>
      </trkpt>
      <trkpt lat="43.53934" lon="1.49249">
        <ele>151.80000305176</ele>
        <time>2021-08-08T06:48:49Z</time>
      </trkpt>
      <trkpt lat="43.53893" lon="1.49291">
        <ele>152.60000610352</ele>
        <time>2021-08-08T06:49:02Z</time>
      </trkpt>
      <trkpt lat="43.53882" lon="1.49305">
        <ele>152.80000305176</ele>
        <time>2021-08-08T06:49:04Z</time>
      </trkpt>
      <trkpt lat="43.53865" lon="1.49419">
        <ele>152.80000305176</ele>
        <time>2021-08-08T06:49:19Z</time>
      </trkpt>
      <trkpt lat="43.53882" lon="1.49545">
        <ele>152</ele>
        <time>2021-08-08T06:52:17Z</time>
      </trkpt>
      <trkpt lat="43.53899" lon="1.49621">
        <ele>152.19999694824</ele>
        <time>2021-08-08T06:52:37Z</time>
      </trkpt>
      <trkpt lat="43.53904" lon="1.49664">
        <ele>152.60000610352</ele>
        <time>2021-08-08T06:52:44Z</time>
      </trkpt>
      <trkpt lat="43.53909" lon="1.49711">
        <ele>152.60000610352</ele>
        <time>2021-08-08T06:52:51Z</time>
      </trkpt>
      <trkpt lat="43.53893" lon="1.49862">
        <ele>152.80000305176</ele>
        <time>2021-08-08T06:53:11Z</time>
      </trkpt>
      <trkpt lat="43.53871" lon="1.49935">
        <ele>153.19999694824</ele>
        <time>2021-08-08T06:53:23Z</time>
      </trkpt>
      <trkpt lat="43.53825" lon="1.50034">
        <ele>152.80000305176</ele>
        <time>2021-08-08T06:53:39Z</time>
      </trkpt>
      <trkpt lat="43.53761" lon="1.50143">
        <ele>152.39999389648</ele>
        <time>2021-08-08T06:53:56Z</time>
      </trkpt>
      <trkpt lat="43.53679" lon="1.50281">
        <ele>152.39999389648</ele>
        <time>2021-08-08T06:54:19Z</time>
      </trkpt>
      <trkpt lat="43.53449" lon="1.50499">
        <ele>151.80000305176</ele>
        <time>2021-08-08T06:55:05Z</time>
      </trkpt>
      <trkpt lat="43.53301" lon="1.50544">
        <ele>151.80000305176</ele>
        <time>2021-08-08T06:55:31Z</time>
      </trkpt>
      <trkpt lat="43.53245" lon="1.50548">
        <ele>152</ele>
        <time>2021-08-08T06:55:41Z</time>
      </trkpt>
      <trkpt lat="43.53071" lon="1.50628">
        <ele>151.39999389648</ele>
        <time>2021-08-08T06:56:14Z</time>
      </trkpt>
      <trkpt lat="43.53051" lon="1.50641">
        <ele>151.39999389648</ele>
        <time>2021-08-08T06:56:18Z</time>
      </trkpt>
      <trkpt lat="43.53001" lon="1.50693">
        <ele>152.60000610352</ele>
        <time>2021-08-08T06:56:31Z</time>
      </trkpt>
      <trkpt lat="43.52918" lon="1.50787">
        <ele>152.80000305176</ele>
        <time>2021-08-08T06:56:50Z</time>
      </trkpt>
      <trkpt lat="43.52829" lon="1.50855">
        <ele>152.80000305176</ele>
        <time>2021-08-08T06:57:08Z</time>
      </trkpt>
      <trkpt lat="43.52783" lon="1.50882">
        <ele>152.60000610352</ele>
        <time>2021-08-08T06:57:16Z</time>
      </trkpt>
      <trkpt lat="43.52729" lon="1.50954">
        <ele>152.60000610352</ele>
        <time>2021-08-08T06:57:29Z</time>
      </trkpt>
      <trkpt lat="43.52705" lon="1.50997">
        <ele>152.60000610352</ele>
        <time>2021-08-08T06:57:37Z</time>
      </trkpt>
      <trkpt lat="43.52684" lon="1.51053">
        <ele>152.80000305176</ele>
        <time>2021-08-08T06:57:46Z</time>
      </trkpt>
      <trkpt lat="43.52678" lon="1.51076">
        <ele>152.80000305176</ele>
        <time>2021-08-08T06:57:49Z</time>
      </trkpt>
      <trkpt lat="43.52664" lon="1.5115">
        <ele>152.39999389648</ele>
        <time>2021-08-08T06:57:57Z</time>
      </trkpt>
      <trkpt lat="43.52654" lon="1.51205">
        <ele>152.39999389648</ele>
        <time>2021-08-08T06:58:02Z</time>
      </trkpt>
      <trkpt lat="43.52646" lon="1.51327">
        <ele>152.19999694824</ele>
        <time>2021-08-08T06:58:15Z</time>
      </trkpt>
      <trkpt lat="43.52624" lon="1.51558">
        <ele>151.80000305176</ele>
        <time>2021-08-08T06:58:42Z</time>
      </trkpt>
      <trkpt lat="43.52429" lon="1.51871">
        <ele>152</ele>
        <time>2021-08-08T06:59:38Z</time>
      </trkpt>
      <trkpt lat="43.52379" lon="1.5188">
        <ele>155</ele>
        <time>2021-08-08T06:59:59Z</time>
      </trkpt>
      <trkpt lat="43.52345" lon="1.51888">
        <ele>155.19999694824</ele>
        <time>2021-08-08T07:00:08Z</time>
      </trkpt>
      <trkpt lat="43.52321" lon="1.51903">
        <ele>155.39999389648</ele>
        <time>2021-08-08T07:00:14Z</time>
      </trkpt>
      <trkpt lat="43.5226" lon="1.51926">
        <ele>156.19999694824</ele>
        <time>2021-08-08T07:00:29Z</time>
      </trkpt>
      <trkpt lat="43.52256" lon="1.51927">
        <ele>156.39999389648</ele>
        <time>2021-08-08T07:00:30Z</time>
      </trkpt>
      <trkpt lat="43.52091" lon="1.51977">
        <ele>156.19999694824</ele>
        <time>2021-08-08T07:01:03Z</time>
      </trkpt>
      <trkpt lat="43.52053" lon="1.52002">
        <ele>156.39999389648</ele>
        <time>2021-08-08T07:01:11Z</time>
      </trkpt>
      <trkpt lat="43.51764" lon="1.51999">
        <ele>156.80000305176</ele>
        <time>2021-08-08T07:02:01Z</time>
      </trkpt>
      <trkpt lat="43.51582" lon="1.52031">
        <ele>157.19999694824</ele>
        <time>2021-08-08T07:02:34Z</time>
      </trkpt>
      <trkpt lat="43.51507" lon="1.51936">
        <ele>157</ele>
        <time>2021-08-08T07:02:52Z</time>
      </trkpt>
      <trkpt lat="43.5145" lon="1.51663">
        <ele>157.19999694824</ele>
        <time>2021-08-08T07:03:33Z</time>
      </trkpt>
      <trkpt lat="43.51401" lon="1.51661">
        <ele>157.39999389648</ele>
        <time>2021-08-08T07:03:42Z</time>
      </trkpt>
      <trkpt lat="43.51113" lon="1.51747">
        <ele>158.19999694824</ele>
        <time>2021-08-08T07:04:41Z</time>
      </trkpt>
      <trkpt lat="43.51067" lon="1.51758">
        <ele>158</ele>
        <time>2021-08-08T07:04:58Z</time>
      </trkpt>
      <trkpt lat="43.5102" lon="1.5177">
        <ele>158.80000305176</ele>
        <time>2021-08-08T07:05:11Z</time>
      </trkpt>
      <trkpt lat="43.50914" lon="1.51842">
        <ele>159.60000610352</ele>
        <time>2021-08-08T07:05:33Z</time>
      </trkpt>
      <trkpt lat="43.50875" lon="1.51874">
        <ele>159.39999389648</ele>
        <time>2021-08-08T07:05:41Z</time>
      </trkpt>
      <trkpt lat="43.50841" lon="1.51913">
        <ele>159.60000610352</ele>
        <time>2021-08-08T07:05:49Z</time>
      </trkpt>
      <trkpt lat="43.50781" lon="1.51985">
        <ele>159.19999694824</ele>
        <time>2021-08-08T07:06:02Z</time>
      </trkpt>
      <trkpt lat="43.50603" lon="1.52075">
        <ele>158.80000305176</ele>
        <time>2021-08-08T07:06:39Z</time>
      </trkpt>
      <trkpt lat="43.50544" lon="1.52085">
        <ele>158.80000305176</ele>
        <time>2021-08-08T07:06:49Z</time>
      </trkpt>
      <trkpt lat="43.50507" lon="1.52104">
        <ele>158.80000305176</ele>
        <time>2021-08-08T07:06:56Z</time>
      </trkpt>
      <trkpt lat="43.50501" lon="1.52109">
        <ele>159</ele>
        <time>2021-08-08T07:06:57Z</time>
      </trkpt>
      <trkpt lat="43.50424" lon="1.52319">
        <ele>159.39999389648</ele>
        <time>2021-08-08T07:07:30Z</time>
      </trkpt>
      <trkpt lat="43.50421" lon="1.52372">
        <ele>159.39999389648</ele>
        <time>2021-08-08T07:07:37Z</time>
      </trkpt>
      <trkpt lat="43.50418" lon="1.52431">
        <ele>159</ele>
        <time>2021-08-08T07:07:45Z</time>
      </trkpt>
      <trkpt lat="43.50366" lon="1.52684">
        <ele>159</ele>
        <time>2021-08-08T07:08:18Z</time>
      </trkpt>
      <trkpt lat="43.50361" lon="1.52697">
        <ele>159</ele>
        <time>2021-08-08T07:08:20Z</time>
      </trkpt>
      <trkpt lat="43.50351" lon="1.5272">
        <ele>159.19999694824</ele>
        <time>2021-08-08T07:08:24Z</time>
      </trkpt>
      <trkpt lat="43.50332" lon="1.52751">
        <ele>159.39999389648</ele>
        <time>2021-08-08T07:08:31Z</time>
      </trkpt>
      <trkpt lat="43.50318" lon="1.52774">
        <ele>159.39999389648</ele>
        <time>2021-08-08T07:08:36Z</time>
      </trkpt>
      <trkpt lat="43.50293" lon="1.52807">
        <ele>159.19999694824</ele>
        <time>2021-08-08T07:08:45Z</time>
      </trkpt>
      <trkpt lat="43.50249" lon="1.5286">
        <ele>159</ele>
        <time>2021-08-08T07:09:01Z</time>
      </trkpt>
      <trkpt lat="43.50208" lon="1.52918">
        <ele>159.19999694824</ele>
        <time>2021-08-08T07:09:12Z</time>
      </trkpt>
      <trkpt lat="43.50151" lon="1.52973">
        <ele>158.80000305176</ele>
        <time>2021-08-08T07:09:19Z</time>
      </trkpt>
      <trkpt lat="43.5001" lon="1.53087">
        <ele>158.80000305176</ele>
        <time>2021-08-08T07:09:40Z</time>
      </trkpt>
      <trkpt lat="43.49926" lon="1.53159">
        <ele>159.19999694824</ele>
        <time>2021-08-08T07:09:58Z</time>
      </trkpt>
      <trkpt lat="43.49881" lon="1.53195">
        <ele>159.19999694824</ele>
        <time>2021-08-08T07:10:06Z</time>
      </trkpt>
      <trkpt lat="43.49844" lon="1.53233">
        <ele>158.80000305176</ele>
        <time>2021-08-08T07:10:13Z</time>
      </trkpt>
      <trkpt lat="43.49759" lon="1.53339">
        <ele>158.60000610352</ele>
        <time>2021-08-08T07:10:31Z</time>
      </trkpt>
      <trkpt lat="43.49688" lon="1.53473">
        <ele>159</ele>
        <time>2021-08-08T07:10:53Z</time>
      </trkpt>
      <trkpt lat="43.49646" lon="1.53528">
        <ele>158.80000305176</ele>
        <time>2021-08-08T07:11:02Z</time>
      </trkpt>
      <trkpt lat="43.49642" lon="1.53533">
        <ele>158.80000305176</ele>
        <time>2021-08-08T07:11:03Z</time>
      </trkpt>
      <trkpt lat="43.49593" lon="1.53579">
        <ele>159.19999694824</ele>
        <time>2021-08-08T07:11:17Z</time>
      </trkpt>
      <trkpt lat="43.49589" lon="1.53581">
        <ele>159.39999389648</ele>
        <time>2021-08-08T07:11:18Z</time>
      </trkpt>
      <trkpt lat="43.49362" lon="1.53656">
        <ele>159.80000305176</ele>
        <time>2021-08-08T07:11:59Z</time>
      </trkpt>
      <trkpt lat="43.49303" lon="1.5366">
        <ele>159.39999389648</ele>
        <time>2021-08-08T07:12:10Z</time>
      </trkpt>
      <trkpt lat="43.49228" lon="1.5366">
        <ele>159.60000610352</ele>
        <time>2021-08-08T07:12:24Z</time>
      </trkpt>
      <trkpt lat="43.49055" lon="1.53621">
        <ele>159.19999694824</ele>
        <time>2021-08-08T07:12:55Z</time>
      </trkpt>
      <trkpt lat="43.48964" lon="1.53827">
        <ele>160.60000610352</ele>
        <time>2021-08-08T07:13:37Z</time>
      </trkpt>
      <trkpt lat="43.4898" lon="1.53971">
        <ele>160.80000305176</ele>
        <time>2021-08-08T07:13:56Z</time>
      </trkpt>
      <trkpt lat="43.48976" lon="1.54024">
        <ele>160.60000610352</ele>
        <time>2021-08-08T07:14:03Z</time>
      </trkpt>
      <trkpt lat="43.4897" lon="1.54146">
        <ele>159.80000305176</ele>
        <time>2021-08-08T07:14:19Z</time>
      </trkpt>
      <trkpt lat="43.48828" lon="1.54415">
        <ele>159.39999389648</ele>
        <time>2021-08-08T07:15:00Z</time>
      </trkpt>
      <trkpt lat="43.48808" lon="1.54444">
        <ele>159.19999694824</ele>
        <time>2021-08-08T07:15:05Z</time>
      </trkpt>
      <trkpt lat="43.48805" lon="1.54451">
        <ele>159.19999694824</ele>
        <time>2021-08-08T07:15:06Z</time>
      </trkpt>
      <trkpt lat="43.48729" lon="1.54572">
        <ele>159.39999389648</ele>
        <time>2021-08-08T07:15:28Z</time>
      </trkpt>
      <trkpt lat="43.48378" lon="1.54681">
        <ele>159.60000610352</ele>
        <time>2021-08-08T07:16:29Z</time>
      </trkpt>
      <trkpt lat="43.48337" lon="1.54676">
        <ele>159.60000610352</ele>
        <time>2021-08-08T07:16:36Z</time>
      </trkpt>
      <trkpt lat="43.48279" lon="1.54678">
        <ele>159.80000305176</ele>
        <time>2021-08-08T07:16:47Z</time>
      </trkpt>
      <trkpt lat="43.48208" lon="1.54738">
        <ele>159.60000610352</ele>
        <time>2021-08-08T07:17:02Z</time>
      </trkpt>
      <trkpt lat="43.48176" lon="1.54755">
        <ele>159.60000610352</ele>
        <time>2021-08-08T07:17:08Z</time>
      </trkpt>
      <trkpt lat="43.48137" lon="1.54773">
        <ele>159.60000610352</ele>
        <time>2021-08-08T07:17:15Z</time>
      </trkpt>
      <trkpt lat="43.48062" lon="1.54975">
        <ele>158.80000305176</ele>
        <time>2021-08-08T07:17:45Z</time>
      </trkpt>
      <trkpt lat="43.47977" lon="1.55072">
        <ele>159</ele>
        <time>2021-08-08T07:18:06Z</time>
      </trkpt>
      <trkpt lat="43.47947" lon="1.55085">
        <ele>158.80000305176</ele>
        <time>2021-08-08T07:18:12Z</time>
      </trkpt>
      <trkpt lat="43.47873" lon="1.55139">
        <ele>158.60000610352</ele>
        <time>2021-08-08T07:18:27Z</time>
      </trkpt>
      <trkpt lat="43.47762" lon="1.55265">
        <ele>159</ele>
        <time>2021-08-08T07:18:52Z</time>
      </trkpt>
      <trkpt lat="43.47739" lon="1.55297">
        <ele>159.19999694824</ele>
        <time>2021-08-08T07:19:02Z</time>
      </trkpt>
      <trkpt lat="43.47735" lon="1.55302">
        <ele>159.19999694824</ele>
        <time>2021-08-08T07:19:03Z</time>
      </trkpt>
      <trkpt lat="43.47618" lon="1.55429">
        <ele>159.19999694824</ele>
        <time>2021-08-08T07:19:32Z</time>
      </trkpt>
      <trkpt lat="43.47572" lon="1.55478">
        <ele>159.60000610352</ele>
        <time>2021-08-08T07:19:47Z</time>
      </trkpt>
      <trkpt lat="43.4755" lon="1.55505">
        <ele>159.60000610352</ele>
        <time>2021-08-08T07:19:54Z</time>
      </trkpt>
      <trkpt lat="43.47469" lon="1.55577">
        <ele>159.39999389648</ele>
        <time>2021-08-08T07:20:10Z</time>
      </trkpt>
      <trkpt lat="43.47422" lon="1.55623">
        <ele>159.60000610352</ele>
        <time>2021-08-08T07:20:20Z</time>
      </trkpt>
      <trkpt lat="43.4727" lon="1.55696">
        <ele>158.80000305176</ele>
        <time>2021-08-08T07:20:46Z</time>
      </trkpt>
      <trkpt lat="43.47064" lon="1.55755">
        <ele>159.19999694824</ele>
        <time>2021-08-08T07:21:23Z</time>
      </trkpt>
      <trkpt lat="43.46949" lon="1.55861">
        <ele>158.39999389648</ele>
        <time>2021-08-08T07:24:59Z</time>
      </trkpt>
      <trkpt lat="43.46903" lon="1.55913">
        <ele>158.80000305176</ele>
        <time>2021-08-08T07:25:24Z</time>
      </trkpt>
      <trkpt lat="43.46887" lon="1.55941">
        <ele>159</ele>
        <time>2021-08-08T07:25:30Z</time>
      </trkpt>
      <trkpt lat="43.46863" lon="1.55986">
        <ele>159.19999694824</ele>
        <time>2021-08-08T07:25:39Z</time>
      </trkpt>
      <trkpt lat="43.46847" lon="1.56029">
        <ele>159.39999389648</ele>
        <time>2021-08-08T07:25:45Z</time>
      </trkpt>
      <trkpt lat="43.46793" lon="1.56169">
        <ele>159.39999389648</ele>
        <time>2021-08-08T07:26:04Z</time>
      </trkpt>
      <trkpt lat="43.4677" lon="1.56208">
        <ele>159.60000610352</ele>
        <time>2021-08-08T07:26:11Z</time>
      </trkpt>
      <trkpt lat="43.4663" lon="1.56564">
        <ele>160</ele>
        <time>2021-08-08T07:27:04Z</time>
      </trkpt>
      <trkpt lat="43.46603" lon="1.56632">
        <ele>160</ele>
        <time>2021-08-08T07:27:13Z</time>
      </trkpt>
      <trkpt lat="43.46517" lon="1.56827">
        <ele>160.19999694824</ele>
        <time>2021-08-08T07:27:40Z</time>
      </trkpt>
      <trkpt lat="43.46468" lon="1.56916">
        <ele>160.60000610352</ele>
        <time>2021-08-08T07:27:55Z</time>
      </trkpt>
      <trkpt lat="43.46432" lon="1.56979">
        <ele>161.39999389648</ele>
        <time>2021-08-08T07:28:13Z</time>
      </trkpt>
      <trkpt lat="43.46339" lon="1.57067">
        <ele>159.80000305176</ele>
        <time>2021-08-08T07:28:33Z</time>
      </trkpt>
      <trkpt lat="43.46304" lon="1.5709">
        <ele>159.80000305176</ele>
        <time>2021-08-08T07:28:40Z</time>
      </trkpt>
      <trkpt lat="43.46285" lon="1.57099">
        <ele>160.39999389648</ele>
        <time>2021-08-08T07:28:49Z</time>
      </trkpt>
      <trkpt lat="43.46186" lon="1.57212">
        <ele>162.80000305176</ele>
        <time>2021-08-08T07:29:33Z</time>
      </trkpt>
      <trkpt lat="43.46149" lon="1.57273">
        <ele>163.19999694824</ele>
        <time>2021-08-08T07:29:46Z</time>
      </trkpt>
      <trkpt lat="43.46074" lon="1.57399">
        <ele>164</ele>
        <time>2021-08-08T07:30:09Z</time>
      </trkpt>
      <trkpt lat="43.46048" lon="1.57445">
        <ele>163.80000305176</ele>
        <time>2021-08-08T07:30:15Z</time>
      </trkpt>
      <trkpt lat="43.45972" lon="1.57568">
        <ele>163</ele>
        <time>2021-08-08T07:30:32Z</time>
      </trkpt>
      <trkpt lat="43.45884" lon="1.5776">
        <ele>163</ele>
        <time>2021-08-08T07:31:03Z</time>
      </trkpt>
      <trkpt lat="43.45836" lon="1.57845">
        <ele>164</ele>
        <time>2021-08-08T07:31:26Z</time>
      </trkpt>
      <trkpt lat="43.45827" lon="1.57859">
        <ele>164</ele>
        <time>2021-08-08T07:31:29Z</time>
      </trkpt>
      <trkpt lat="43.45816" lon="1.57885">
        <ele>164.19999694824</ele>
        <time>2021-08-08T07:31:33Z</time>
      </trkpt>
      <trkpt lat="43.45733" lon="1.58053">
        <ele>163.19999694824</ele>
        <time>2021-08-08T07:31:56Z</time>
      </trkpt>
      <trkpt lat="43.45687" lon="1.58176">
        <ele>162.80000305176</ele>
        <time>2021-08-08T07:32:14Z</time>
      </trkpt>
      <trkpt lat="43.45669" lon="1.58218">
        <ele>163</ele>
        <time>2021-08-08T07:32:22Z</time>
      </trkpt>
      <trkpt lat="43.4565" lon="1.58244">
        <ele>162.80000305176</ele>
        <time>2021-08-08T07:32:27Z</time>
      </trkpt>
      <trkpt lat="43.45615" lon="1.58283">
        <ele>162.60000610352</ele>
        <time>2021-08-08T07:32:34Z</time>
      </trkpt>
      <trkpt lat="43.45557" lon="1.58628">
        <ele>162.19999694824</ele>
        <time>2021-08-08T07:33:19Z</time>
      </trkpt>
      <trkpt lat="43.4558" lon="1.58768">
        <ele>162.19999694824</ele>
        <time>2021-08-08T07:33:35Z</time>
      </trkpt>
      <trkpt lat="43.45582" lon="1.59127">
        <ele>163</ele>
        <time>2021-08-08T07:34:25Z</time>
      </trkpt>
      <trkpt lat="43.45539" lon="1.5917">
        <ele>162.60000610352</ele>
        <time>2021-08-08T07:34:36Z</time>
      </trkpt>
      <trkpt lat="43.45525" lon="1.59179">
        <ele>162.60000610352</ele>
        <time>2021-08-08T07:34:39Z</time>
      </trkpt>
      <trkpt lat="43.45469" lon="1.59235">
        <ele>162.60000610352</ele>
        <time>2021-08-08T07:34:53Z</time>
      </trkpt>
      <trkpt lat="43.45408" lon="1.59292">
        <ele>162.39999389648</ele>
        <time>2021-08-08T07:35:06Z</time>
      </trkpt>
      <trkpt lat="43.45315" lon="1.59332">
        <ele>162</ele>
        <time>2021-08-08T07:35:22Z</time>
      </trkpt>
      <trkpt lat="43.45276" lon="1.59347">
        <ele>162</ele>
        <time>2021-08-08T07:35:28Z</time>
      </trkpt>
      <trkpt lat="43.45209" lon="1.594">
        <ele>162.39999389648</ele>
        <time>2021-08-08T07:35:40Z</time>
      </trkpt>
      <trkpt lat="43.45182" lon="1.59421">
        <ele>162.19999694824</ele>
        <time>2021-08-08T07:35:45Z</time>
      </trkpt>
      <trkpt lat="43.45114" lon="1.59617">
        <ele>163.39999389648</ele>
        <time>2021-08-08T07:36:27Z</time>
      </trkpt>
      <trkpt lat="43.45106" lon="1.5966">
        <ele>163.19999694824</ele>
        <time>2021-08-08T07:36:33Z</time>
      </trkpt>
      <trkpt lat="43.44996" lon="1.598">
        <ele>163.60000610352</ele>
        <time>2021-08-08T07:37:01Z</time>
      </trkpt>
      <trkpt lat="43.44961" lon="1.59822">
        <ele>163.80000305176</ele>
        <time>2021-08-08T07:37:07Z</time>
      </trkpt>
      <trkpt lat="43.44773" lon="1.59851">
        <ele>164</ele>
        <time>2021-08-08T07:37:31Z</time>
      </trkpt>
      <trkpt lat="43.44758" lon="1.59852">
        <ele>164</ele>
        <time>2021-08-08T07:37:34Z</time>
      </trkpt>
      <trkpt lat="43.44674" lon="1.59912">
        <ele>163.60000610352</ele>
        <time>2021-08-08T07:38:01Z</time>
      </trkpt>
      <trkpt lat="43.44647" lon="1.59919">
        <ele>165.19999694824</ele>
        <time>2021-08-08T07:38:15Z</time>
      </trkpt>
      <trkpt lat="43.44506" lon="1.6004">
        <ele>165.60000610352</ele>
        <time>2021-08-08T07:38:54Z</time>
      </trkpt>
      <trkpt lat="43.44503" lon="1.60045">
        <ele>165.60000610352</ele>
        <time>2021-08-08T07:38:55Z</time>
      </trkpt>
      <trkpt lat="43.44486" lon="1.60071">
        <ele>165.60000610352</ele>
        <time>2021-08-08T07:39:01Z</time>
      </trkpt>
      <trkpt lat="43.44475" lon="1.60107">
        <ele>165.60000610352</ele>
        <time>2021-08-08T07:39:07Z</time>
      </trkpt>
      <trkpt lat="43.44474" lon="1.60112">
        <ele>165.60000610352</ele>
        <time>2021-08-08T07:39:08Z</time>
      </trkpt>
      <trkpt lat="43.44479" lon="1.60129">
        <ele>165.60000610352</ele>
        <time>2021-08-08T07:39:11Z</time>
      </trkpt>
      <trkpt lat="43.44506" lon="1.6021">
        <ele>166.39999389648</ele>
        <time>2021-08-08T07:39:23Z</time>
      </trkpt>
      <trkpt lat="43.44518" lon="1.60253">
        <ele>166.60000610352</ele>
        <time>2021-08-08T07:39:28Z</time>
      </trkpt>
      <trkpt lat="43.44552" lon="1.60377">
        <ele>167</ele>
        <time>2021-08-08T07:39:44Z</time>
      </trkpt>
      <trkpt lat="43.44518" lon="1.60544">
        <ele>166.39999389648</ele>
        <time>2021-08-08T07:40:07Z</time>
      </trkpt>
      <trkpt lat="43.44509" lon="1.60561">
        <ele>166.19999694824</ele>
        <time>2021-08-08T07:40:10Z</time>
      </trkpt>
      <trkpt lat="43.44494" lon="1.60597">
        <ele>166.39999389648</ele>
        <time>2021-08-08T07:40:16Z</time>
      </trkpt>
      <trkpt lat="43.44284" lon="1.60846">
        <ele>166.80000305176</ele>
        <time>2021-08-08T07:41:09Z</time>
      </trkpt>
      <trkpt lat="43.44249" lon="1.60866">
        <ele>166.60000610352</ele>
        <time>2021-08-08T07:41:15Z</time>
      </trkpt>
      <trkpt lat="43.4421" lon="1.60913">
        <ele>166.39999389648</ele>
        <time>2021-08-08T07:41:22Z</time>
      </trkpt>
      <trkpt lat="43.44183" lon="1.60952">
        <ele>166.39999389648</ele>
        <time>2021-08-08T07:41:27Z</time>
      </trkpt>
      <trkpt lat="43.44131" lon="1.61049">
        <ele>166</ele>
        <time>2021-08-08T07:41:40Z</time>
      </trkpt>
      <trkpt lat="43.44104" lon="1.61144">
        <ele>167</ele>
        <time>2021-08-08T07:41:55Z</time>
      </trkpt>
      <trkpt lat="43.44041" lon="1.61231">
        <ele>167.39999389648</ele>
        <time>2021-08-08T07:42:13Z</time>
      </trkpt>
      <trkpt lat="43.44022" lon="1.61243">
        <ele>167.39999389648</ele>
        <time>2021-08-08T07:42:17Z</time>
      </trkpt>
      <trkpt lat="43.43953" lon="1.6122">
        <ele>169.19999694824</ele>
        <time>2021-08-08T07:42:43Z</time>
      </trkpt>
      <trkpt lat="43.43952" lon="1.61219">
        <ele>169.19999694824</ele>
        <time>2021-08-08T07:42:44Z</time>
      </trkpt>
      <trkpt lat="43.43955" lon="1.61232">
        <ele>168.80000305176</ele>
        <time>2021-08-08T07:44:21Z</time>
      </trkpt>
      <trkpt lat="43.43937" lon="1.61256">
        <ele>168.60000610352</ele>
        <time>2021-08-08T07:44:31Z</time>
      </trkpt>
      <trkpt lat="43.43885" lon="1.61278">
        <ele>168.60000610352</ele>
        <time>2021-08-08T07:44:48Z</time>
      </trkpt>
      <trkpt lat="43.43797" lon="1.61432">
        <ele>170</ele>
        <time>2021-08-08T07:45:33Z</time>
      </trkpt>
      <trkpt lat="43.43574" lon="1.61639">
        <ele>170.60000610352</ele>
        <time>2021-08-08T07:46:12Z</time>
      </trkpt>
      <trkpt lat="43.43502" lon="1.61744">
        <ele>170.39999389648</ele>
        <time>2021-08-08T07:46:31Z</time>
      </trkpt>
      <trkpt lat="43.43459" lon="1.61829">
        <ele>170.39999389648</ele>
        <time>2021-08-08T07:46:44Z</time>
      </trkpt>
      <trkpt lat="43.43428" lon="1.61871">
        <ele>170.19999694824</ele>
        <time>2021-08-08T07:46:51Z</time>
      </trkpt>
      <trkpt lat="43.43256" lon="1.6208">
        <ele>169.39999389648</ele>
        <time>2021-08-08T07:47:29Z</time>
      </trkpt>
      <trkpt lat="43.43132" lon="1.62096">
        <ele>170</ele>
        <time>2021-08-08T07:47:48Z</time>
      </trkpt>
      <trkpt lat="43.43079" lon="1.62087">
        <ele>169.80000305176</ele>
        <time>2021-08-08T07:47:57Z</time>
      </trkpt>
      <trkpt lat="43.42854" lon="1.62293">
        <ele>171.80000305176</ele>
        <time>2021-08-08T07:48:50Z</time>
      </trkpt>
      <trkpt lat="43.42786" lon="1.62416">
        <ele>172</ele>
        <time>2021-08-08T07:49:10Z</time>
      </trkpt>
      <trkpt lat="43.42758" lon="1.6248">
        <ele>171.39999389648</ele>
        <time>2021-08-08T07:49:18Z</time>
      </trkpt>
      <trkpt lat="43.42737" lon="1.62543">
        <ele>171.19999694824</ele>
        <time>2021-08-08T07:49:26Z</time>
      </trkpt>
      <trkpt lat="43.42723" lon="1.62587">
        <ele>171.19999694824</ele>
        <time>2021-08-08T07:49:32Z</time>
      </trkpt>
      <trkpt lat="43.42664" lon="1.62739">
        <ele>170.39999389648</ele>
        <time>2021-08-08T07:49:56Z</time>
      </trkpt>
      <trkpt lat="43.42646" lon="1.6285">
        <ele>171.60000610352</ele>
        <time>2021-08-08T07:50:19Z</time>
      </trkpt>
      <trkpt lat="43.42644" lon="1.62858">
        <ele>171.60000610352</ele>
        <time>2021-08-08T07:50:20Z</time>
      </trkpt>
      <trkpt lat="43.42633" lon="1.62907">
        <ele>171.39999389648</ele>
        <time>2021-08-08T07:50:26Z</time>
      </trkpt>
      <trkpt lat="43.42629" lon="1.63017">
        <ele>170.60000610352</ele>
        <time>2021-08-08T07:50:43Z</time>
      </trkpt>
      <trkpt lat="43.42631" lon="1.63031">
        <ele>170.80000305176</ele>
        <time>2021-08-08T07:50:45Z</time>
      </trkpt>
      <trkpt lat="43.42668" lon="1.63132">
        <ele>171</ele>
        <time>2021-08-08T07:50:59Z</time>
      </trkpt>
      <trkpt lat="43.42702" lon="1.63197">
        <ele>170.80000305176</ele>
        <time>2021-08-08T07:51:09Z</time>
      </trkpt>
      <trkpt lat="43.42714" lon="1.63311">
        <ele>171.19999694824</ele>
        <time>2021-08-08T07:51:25Z</time>
      </trkpt>
      <trkpt lat="43.42709" lon="1.63379">
        <ele>171</ele>
        <time>2021-08-08T07:51:34Z</time>
      </trkpt>
      <trkpt lat="43.42597" lon="1.63423">
        <ele>170.60000610352</ele>
        <time>2021-08-08T07:51:53Z</time>
      </trkpt>
      <trkpt lat="43.42578" lon="1.63417">
        <ele>170.60000610352</ele>
        <time>2021-08-08T07:51:56Z</time>
      </trkpt>
      <trkpt lat="43.42425" lon="1.63602">
        <ele>171.39999389648</ele>
        <time>2021-08-08T07:52:36Z</time>
      </trkpt>
      <trkpt lat="43.42145" lon="1.63871">
        <ele>171.60000610352</ele>
        <time>2021-08-08T07:53:32Z</time>
      </trkpt>
      <trkpt lat="43.42116" lon="1.63901">
        <ele>171.60000610352</ele>
        <time>2021-08-08T07:53:39Z</time>
      </trkpt>
      <trkpt lat="43.42054" lon="1.63968">
        <ele>172.80000305176</ele>
        <time>2021-08-08T07:53:54Z</time>
      </trkpt>
      <trkpt lat="43.41901" lon="1.64068">
        <ele>172.80000305176</ele>
        <time>2021-08-08T07:54:26Z</time>
      </trkpt>
      <trkpt lat="43.41834" lon="1.64134">
        <ele>171.39999389648</ele>
        <time>2021-08-08T07:54:47Z</time>
      </trkpt>
      <trkpt lat="43.41805" lon="1.64144">
        <ele>172</ele>
        <time>2021-08-08T07:54:55Z</time>
      </trkpt>
      <trkpt lat="43.41767" lon="1.64169">
        <ele>172.39999389648</ele>
        <time>2021-08-08T07:55:05Z</time>
      </trkpt>
      <trkpt lat="43.41756" lon="1.64183">
        <ele>172.19999694824</ele>
        <time>2021-08-08T07:55:08Z</time>
      </trkpt>
      <trkpt lat="43.41729" lon="1.64205">
        <ele>172.39999389648</ele>
        <time>2021-08-08T07:55:14Z</time>
      </trkpt>
      <trkpt lat="43.41657" lon="1.64257">
        <ele>172.19999694824</ele>
        <time>2021-08-08T07:55:29Z</time>
      </trkpt>
      <trkpt lat="43.41589" lon="1.64352">
        <ele>172.80000305176</ele>
        <time>2021-08-08T07:55:49Z</time>
      </trkpt>
      <trkpt lat="43.41583" lon="1.64359">
        <ele>173</ele>
        <time>2021-08-08T07:55:51Z</time>
      </trkpt>
      <trkpt lat="43.41555" lon="1.64443">
        <ele>173.80000305176</ele>
        <time>2021-08-08T07:56:09Z</time>
      </trkpt>
      <trkpt lat="43.41523" lon="1.64538">
        <ele>174</ele>
        <time>2021-08-08T07:56:23Z</time>
      </trkpt>
      <trkpt lat="43.41329" lon="1.64731">
        <ele>174.19999694824</ele>
        <time>2021-08-08T07:57:02Z</time>
      </trkpt>
      <trkpt lat="43.41275" lon="1.6475">
        <ele>174.39999389648</ele>
        <time>2021-08-08T07:57:11Z</time>
      </trkpt>
      <trkpt lat="43.41177" lon="1.64883">
        <ele>175.19999694824</ele>
        <time>2021-08-08T07:57:37Z</time>
      </trkpt>
      <trkpt lat="43.4115" lon="1.65012">
        <ele>175</ele>
        <time>2021-08-08T07:57:53Z</time>
      </trkpt>
      <trkpt lat="43.41151" lon="1.65189">
        <ele>174.19999694824</ele>
        <time>2021-08-08T07:58:15Z</time>
      </trkpt>
      <trkpt lat="43.41149" lon="1.65222">
        <ele>174</ele>
        <time>2021-08-08T07:58:19Z</time>
      </trkpt>
      <trkpt lat="43.41159" lon="1.65391">
        <ele>176</ele>
        <time>2021-08-08T07:58:48Z</time>
      </trkpt>
      <trkpt lat="43.41177" lon="1.65445">
        <ele>176.19999694824</ele>
        <time>2021-08-08T07:58:56Z</time>
      </trkpt>
      <trkpt lat="43.41229" lon="1.65674">
        <ele>175.19999694824</ele>
        <time>2021-08-08T07:59:26Z</time>
      </trkpt>
      <trkpt lat="43.41232" lon="1.65705">
        <ele>175</ele>
        <time>2021-08-08T07:59:31Z</time>
      </trkpt>
      <trkpt lat="43.41237" lon="1.65784">
        <ele>174.80000305176</ele>
        <time>2021-08-08T07:59:41Z</time>
      </trkpt>
      <trkpt lat="43.41234" lon="1.65875">
        <ele>174</ele>
        <time>2021-08-08T07:59:50Z</time>
      </trkpt>
      <trkpt lat="43.4123" lon="1.65916">
        <ele>173.60000610352</ele>
        <time>2021-08-08T07:59:55Z</time>
      </trkpt>
      <trkpt lat="43.41183" lon="1.661">
        <ele>174</ele>
        <time>2021-08-08T08:00:20Z</time>
      </trkpt>
      <trkpt lat="43.41163" lon="1.66158">
        <ele>173.80000305176</ele>
        <time>2021-08-08T08:00:28Z</time>
      </trkpt>
      <trkpt lat="43.4113" lon="1.66195">
        <ele>173.80000305176</ele>
        <time>2021-08-08T08:00:34Z</time>
      </trkpt>
      <trkpt lat="43.41092" lon="1.66231">
        <ele>173.60000610352</ele>
        <time>2021-08-08T08:00:41Z</time>
      </trkpt>
      <trkpt lat="43.41067" lon="1.66266">
        <ele>173.60000610352</ele>
        <time>2021-08-08T08:00:47Z</time>
      </trkpt>
      <trkpt lat="43.41031" lon="1.66315">
        <ele>173.80000305176</ele>
        <time>2021-08-08T08:00:55Z</time>
      </trkpt>
      <trkpt lat="43.40776" lon="1.66462">
        <ele>174</ele>
        <time>2021-08-08T08:01:39Z</time>
      </trkpt>
      <trkpt lat="43.40674" lon="1.66533">
        <ele>174</ele>
        <time>2021-08-08T08:01:58Z</time>
      </trkpt>
      <trkpt lat="43.40519" lon="1.66625">
        <ele>174</ele>
        <time>2021-08-08T08:02:27Z</time>
      </trkpt>
      <trkpt lat="43.40475" lon="1.66654">
        <ele>173.80000305176</ele>
        <time>2021-08-08T08:02:35Z</time>
      </trkpt>
      <trkpt lat="43.40415" lon="1.66753">
        <ele>174</ele>
        <time>2021-08-08T08:02:53Z</time>
      </trkpt>
      <trkpt lat="43.40404" lon="1.66803">
        <ele>174.19999694824</ele>
        <time>2021-08-08T08:03:00Z</time>
      </trkpt>
      <trkpt lat="43.404" lon="1.66851">
        <ele>174.19999694824</ele>
        <time>2021-08-08T08:03:06Z</time>
      </trkpt>
      <trkpt lat="43.40395" lon="1.66906">
        <ele>174</ele>
        <time>2021-08-08T08:03:13Z</time>
      </trkpt>
      <trkpt lat="43.4038" lon="1.66962">
        <ele>174</ele>
        <time>2021-08-08T08:03:21Z</time>
      </trkpt>
      <trkpt lat="43.40365" lon="1.67013">
        <ele>174.19999694824</ele>
        <time>2021-08-08T08:03:28Z</time>
      </trkpt>
      <trkpt lat="43.40341" lon="1.67068">
        <ele>174</ele>
        <time>2021-08-08T08:03:36Z</time>
      </trkpt>
      <trkpt lat="43.40314" lon="1.67131">
        <ele>174</ele>
        <time>2021-08-08T08:03:45Z</time>
      </trkpt>
      <trkpt lat="43.40294" lon="1.67189">
        <ele>174.19999694824</ele>
        <time>2021-08-08T08:03:53Z</time>
      </trkpt>
      <trkpt lat="43.40271" lon="1.67251">
        <ele>174.19999694824</ele>
        <time>2021-08-08T08:04:02Z</time>
      </trkpt>
      <trkpt lat="43.40235" lon="1.67365">
        <ele>174</ele>
        <time>2021-08-08T08:04:17Z</time>
      </trkpt>
      <trkpt lat="43.40196" lon="1.67481">
        <ele>173.80000305176</ele>
        <time>2021-08-08T08:04:33Z</time>
      </trkpt>
      <trkpt lat="43.40166" lon="1.67533">
        <ele>173.80000305176</ele>
        <time>2021-08-08T08:04:41Z</time>
      </trkpt>
      <trkpt lat="43.40077" lon="1.67708">
        <ele>174</ele>
        <time>2021-08-08T08:05:07Z</time>
      </trkpt>
      <trkpt lat="43.39963" lon="1.67907">
        <ele>174.19999694824</ele>
        <time>2021-08-08T08:05:38Z</time>
      </trkpt>
      <trkpt lat="43.3991" lon="1.67957">
        <ele>174.60000610352</ele>
        <time>2021-08-08T08:05:50Z</time>
      </trkpt>
      <trkpt lat="43.39818" lon="1.6801">
        <ele>176.80000305176</ele>
        <time>2021-08-08T08:06:29Z</time>
      </trkpt>
      <trkpt lat="43.39798" lon="1.68112">
        <ele>178.60000610352</ele>
        <time>2021-08-08T08:06:50Z</time>
      </trkpt>
      <trkpt lat="43.39786" lon="1.68163">
        <ele>178.80000305176</ele>
        <time>2021-08-08T08:06:57Z</time>
      </trkpt>
      <trkpt lat="43.39662" lon="1.68342">
        <ele>179.39999389648</ele>
        <time>2021-08-08T08:07:31Z</time>
      </trkpt>
      <trkpt lat="43.3958" lon="1.68638">
        <ele>180.39999389648</ele>
        <time>2021-08-08T08:08:16Z</time>
      </trkpt>
      <trkpt lat="43.39415" lon="1.68817">
        <ele>180</ele>
        <time>2021-08-08T08:09:05Z</time>
      </trkpt>
      <trkpt lat="43.39398" lon="1.6881">
        <ele>179.80000305176</ele>
        <time>2021-08-08T08:09:08Z</time>
      </trkpt>
      <trkpt lat="43.393" lon="1.68937">
        <ele>179.19999694824</ele>
        <time>2021-08-08T08:09:36Z</time>
      </trkpt>
      <trkpt lat="43.39272" lon="1.69009">
        <ele>179.19999694824</ele>
        <time>2021-08-08T08:09:46Z</time>
      </trkpt>
      <trkpt lat="43.39225" lon="1.69141">
        <ele>179</ele>
        <time>2021-08-08T08:10:06Z</time>
      </trkpt>
      <trkpt lat="43.39199" lon="1.69177">
        <ele>179</ele>
        <time>2021-08-08T08:10:16Z</time>
      </trkpt>
      <trkpt lat="43.39109" lon="1.69263">
        <ele>179.19999694824</ele>
        <time>2021-08-08T08:10:50Z</time>
      </trkpt>
      <trkpt lat="43.39114" lon="1.69272">
        <ele>180</ele>
        <time>2021-08-08T08:11:02Z</time>
      </trkpt>
      <trkpt lat="43.39125" lon="1.6926">
        <ele>179.80000305176</ele>
        <time>2021-08-08T08:11:08Z</time>
      </trkpt>
      <trkpt lat="43.39128" lon="1.6925">
        <ele>178</ele>
        <time>2021-08-08T08:31:30Z</time>
      </trkpt>
      <trkpt lat="43.39126" lon="1.69252">
        <ele>177.80000305176</ele>
        <time>2021-08-08T08:31:32Z</time>
      </trkpt>
      <trkpt lat="43.3907" lon="1.69318">
        <ele>179.80000305176</ele>
        <time>2021-08-08T08:31:59Z</time>
      </trkpt>
      <trkpt lat="43.39046" lon="1.69351">
        <ele>179.80000305176</ele>
        <time>2021-08-08T08:32:08Z</time>
      </trkpt>
      <trkpt lat="43.39026" lon="1.69372">
        <ele>180</ele>
        <time>2021-08-08T08:32:14Z</time>
      </trkpt>
      <trkpt lat="43.39014" lon="1.69386">
        <ele>180.19999694824</ele>
        <time>2021-08-08T08:32:21Z</time>
      </trkpt>
      <trkpt lat="43.38954" lon="1.69479">
        <ele>180.60000610352</ele>
        <time>2021-08-08T08:32:43Z</time>
      </trkpt>
      <trkpt lat="43.38951" lon="1.69501">
        <ele>180.60000610352</ele>
        <time>2021-08-08T08:32:46Z</time>
      </trkpt>
      <trkpt lat="43.38984" lon="1.69613">
        <ele>180.60000610352</ele>
        <time>2021-08-08T08:32:57Z</time>
      </trkpt>
      <trkpt lat="43.39021" lon="1.69676">
        <ele>180.80000305176</ele>
        <time>2021-08-08T08:33:06Z</time>
      </trkpt>
      <trkpt lat="43.39048" lon="1.69775">
        <ele>180.19999694824</ele>
        <time>2021-08-08T08:33:19Z</time>
      </trkpt>
      <trkpt lat="43.39033" lon="1.69898">
        <ele>179.60000610352</ele>
        <time>2021-08-08T08:33:35Z</time>
      </trkpt>
      <trkpt lat="43.38928" lon="1.69979">
        <ele>179.19999694824</ele>
        <time>2021-08-08T08:33:58Z</time>
      </trkpt>
      <trkpt lat="43.3888" lon="1.69973">
        <ele>180</ele>
        <time>2021-08-08T08:34:05Z</time>
      </trkpt>
      <trkpt lat="43.38795" lon="1.70025">
        <ele>180.19999694824</ele>
        <time>2021-08-08T08:34:21Z</time>
      </trkpt>
      <trkpt lat="43.38668" lon="1.70136">
        <ele>180.19999694824</ele>
        <time>2021-08-08T08:34:46Z</time>
      </trkpt>
      <trkpt lat="43.38638" lon="1.70174">
        <ele>180</ele>
        <time>2021-08-08T08:34:52Z</time>
      </trkpt>
      <trkpt lat="43.38604" lon="1.70217">
        <ele>180.60000610352</ele>
        <time>2021-08-08T08:35:00Z</time>
      </trkpt>
      <trkpt lat="43.38564" lon="1.70281">
        <ele>180.80000305176</ele>
        <time>2021-08-08T08:35:10Z</time>
      </trkpt>
      <trkpt lat="43.38503" lon="1.70402">
        <ele>180.80000305176</ele>
        <time>2021-08-08T08:35:29Z</time>
      </trkpt>
      <trkpt lat="43.38512" lon="1.7056">
        <ele>180.39999389648</ele>
        <time>2021-08-08T08:35:46Z</time>
      </trkpt>
      <trkpt lat="43.38611" lon="1.70804">
        <ele>180</ele>
        <time>2021-08-08T08:36:20Z</time>
      </trkpt>
      <trkpt lat="43.38632" lon="1.70904">
        <ele>177.19999694824</ele>
        <time>2021-08-08T08:37:41Z</time>
      </trkpt>
      <trkpt lat="43.38645" lon="1.70927">
        <ele>177.19999694824</ele>
        <time>2021-08-08T08:37:50Z</time>
      </trkpt>
      <trkpt lat="43.38715" lon="1.70985">
        <ele>177.19999694824</ele>
        <time>2021-08-08T08:38:17Z</time>
      </trkpt>
      <trkpt lat="43.38736" lon="1.70993">
        <ele>177.39999389648</ele>
        <time>2021-08-08T08:38:22Z</time>
      </trkpt>
      <trkpt lat="43.38873" lon="1.71079">
        <ele>176.80000305176</ele>
        <time>2021-08-08T08:38:49Z</time>
      </trkpt>
      <trkpt lat="43.38958" lon="1.71137">
        <ele>176.39999389648</ele>
        <time>2021-08-08T08:39:04Z</time>
      </trkpt>
      <trkpt lat="43.38995" lon="1.7121">
        <ele>177.80000305176</ele>
        <time>2021-08-08T08:39:30Z</time>
      </trkpt>
      <trkpt lat="43.39045" lon="1.71257">
        <ele>178.60000610352</ele>
        <time>2021-08-08T08:39:46Z</time>
      </trkpt>
      <trkpt lat="43.39042" lon="1.71646">
        <ele>178.80000305176</ele>
        <time>2021-08-08T08:40:41Z</time>
      </trkpt>
      <trkpt lat="43.39039" lon="1.71686">
        <ele>178.80000305176</ele>
        <time>2021-08-08T08:40:46Z</time>
      </trkpt>
      <trkpt lat="43.38998" lon="1.71895">
        <ele>178.80000305176</ele>
        <time>2021-08-08T08:41:11Z</time>
      </trkpt>
      <trkpt lat="43.38976" lon="1.71949">
        <ele>178.60000610352</ele>
        <time>2021-08-08T08:41:18Z</time>
      </trkpt>
      <trkpt lat="43.38833" lon="1.72024">
        <ele>179</ele>
        <time>2021-08-08T08:41:42Z</time>
      </trkpt>
      <trkpt lat="43.38729" lon="1.7204">
        <ele>178.60000610352</ele>
        <time>2021-08-08T08:41:59Z</time>
      </trkpt>
      <trkpt lat="43.38621" lon="1.72151">
        <ele>178.60000610352</ele>
        <time>2021-08-08T08:42:20Z</time>
      </trkpt>
      <trkpt lat="43.38432" lon="1.72486">
        <ele>178.60000610352</ele>
        <time>2021-08-08T08:43:11Z</time>
      </trkpt>
      <trkpt lat="43.38387" lon="1.72579">
        <ele>178.39999389648</ele>
        <time>2021-08-08T08:43:26Z</time>
      </trkpt>
      <trkpt lat="43.38384" lon="1.72584">
        <ele>178.39999389648</ele>
        <time>2021-08-08T08:43:27Z</time>
      </trkpt>
      <trkpt lat="43.38295" lon="1.72795">
        <ele>179.60000610352</ele>
        <time>2021-08-08T08:44:07Z</time>
      </trkpt>
      <trkpt lat="43.38165" lon="1.73065">
        <ele>182.19999694824</ele>
        <time>2021-08-08T08:45:03Z</time>
      </trkpt>
      <trkpt lat="43.38116" lon="1.73173">
        <ele>181.60000610352</ele>
        <time>2021-08-08T08:45:19Z</time>
      </trkpt>
      <trkpt lat="43.38091" lon="1.73285">
        <ele>181.19999694824</ele>
        <time>2021-08-08T08:45:34Z</time>
      </trkpt>
      <trkpt lat="43.3807" lon="1.73413">
        <ele>181</ele>
        <time>2021-08-08T08:45:50Z</time>
      </trkpt>
      <trkpt lat="43.37981" lon="1.73633">
        <ele>181.19999694824</ele>
        <time>2021-08-08T08:46:21Z</time>
      </trkpt>
      <trkpt lat="43.37938" lon="1.73762">
        <ele>181</ele>
        <time>2021-08-08T08:46:38Z</time>
      </trkpt>
      <trkpt lat="43.37831" lon="1.73953">
        <ele>182</ele>
        <time>2021-08-08T08:47:09Z</time>
      </trkpt>
      <trkpt lat="43.37791" lon="1.74007">
        <ele>181.80000305176</ele>
        <time>2021-08-08T08:47:19Z</time>
      </trkpt>
      <trkpt lat="43.37762" lon="1.74036">
        <ele>181.60000610352</ele>
        <time>2021-08-08T08:47:25Z</time>
      </trkpt>
      <trkpt lat="43.37679" lon="1.7413">
        <ele>181.80000305176</ele>
        <time>2021-08-08T08:47:43Z</time>
      </trkpt>
      <trkpt lat="43.37636" lon="1.74226">
        <ele>182.19999694824</ele>
        <time>2021-08-08T08:47:56Z</time>
      </trkpt>
      <trkpt lat="43.37502" lon="1.74664">
        <ele>181.19999694824</ele>
        <time>2021-08-08T08:48:49Z</time>
      </trkpt>
      <trkpt lat="43.3748" lon="1.74714">
        <ele>181.19999694824</ele>
        <time>2021-08-08T08:48:56Z</time>
      </trkpt>
      <trkpt lat="43.37423" lon="1.74834">
        <ele>181.19999694824</ele>
        <time>2021-08-08T08:49:14Z</time>
      </trkpt>
      <trkpt lat="43.37391" lon="1.74875">
        <ele>181.39999389648</ele>
        <time>2021-08-08T08:49:21Z</time>
      </trkpt>
      <trkpt lat="43.37275" lon="1.75046">
        <ele>181.80000305176</ele>
        <time>2021-08-08T08:49:50Z</time>
      </trkpt>
      <trkpt lat="43.37256" lon="1.75087">
        <ele>181.39999389648</ele>
        <time>2021-08-08T08:49:56Z</time>
      </trkpt>
      <trkpt lat="43.37234" lon="1.75144">
        <ele>181.19999694824</ele>
        <time>2021-08-08T08:50:04Z</time>
      </trkpt>
      <trkpt lat="43.37209" lon="1.75194">
        <ele>181</ele>
        <time>2021-08-08T08:50:11Z</time>
      </trkpt>
      <trkpt lat="43.37115" lon="1.75416">
        <ele>181.39999389648</ele>
        <time>2021-08-08T08:50:40Z</time>
      </trkpt>
      <trkpt lat="43.37088" lon="1.75447">
        <ele>181.60000610352</ele>
        <time>2021-08-08T08:50:46Z</time>
      </trkpt>
      <trkpt lat="43.3693" lon="1.75605">
        <ele>181.80000305176</ele>
        <time>2021-08-08T08:51:20Z</time>
      </trkpt>
      <trkpt lat="43.36776" lon="1.7576">
        <ele>185.19999694824</ele>
        <time>2021-08-08T08:52:10Z</time>
      </trkpt>
      <trkpt lat="43.3675" lon="1.758">
        <ele>185.39999389648</ele>
        <time>2021-08-08T08:52:19Z</time>
      </trkpt>
      <trkpt lat="43.3674" lon="1.75815">
        <ele>185.39999389648</ele>
        <time>2021-08-08T08:52:22Z</time>
      </trkpt>
      <trkpt lat="43.36726" lon="1.75845">
        <ele>185.39999389648</ele>
        <time>2021-08-08T08:52:27Z</time>
      </trkpt>
      <trkpt lat="43.36631" lon="1.76067">
        <ele>186.60000610352</ele>
        <time>2021-08-08T08:53:03Z</time>
      </trkpt>
      <trkpt lat="43.36585" lon="1.76237">
        <ele>186.60000610352</ele>
        <time>2021-08-08T08:53:26Z</time>
      </trkpt>
      <trkpt lat="43.36555" lon="1.76413">
        <ele>187</ele>
        <time>2021-08-08T08:53:56Z</time>
      </trkpt>
      <trkpt lat="43.36543" lon="1.76441">
        <ele>187.19999694824</ele>
        <time>2021-08-08T08:54:01Z</time>
      </trkpt>
      <trkpt lat="43.36474" lon="1.7658">
        <ele>186</ele>
        <time>2021-08-08T08:54:20Z</time>
      </trkpt>
      <trkpt lat="43.36457" lon="1.76626">
        <ele>185.80000305176</ele>
        <time>2021-08-08T08:54:26Z</time>
      </trkpt>
      <trkpt lat="43.36441" lon="1.7668">
        <ele>185.80000305176</ele>
        <time>2021-08-08T08:54:33Z</time>
      </trkpt>
      <trkpt lat="43.36408" lon="1.76939">
        <ele>185.80000305176</ele>
        <time>2021-08-08T08:55:06Z</time>
      </trkpt>
      <trkpt lat="43.36408" lon="1.77011">
        <ele>185.39999389648</ele>
        <time>2021-08-08T08:55:14Z</time>
      </trkpt>
      <trkpt lat="43.36399" lon="1.77072">
        <ele>185.39999389648</ele>
        <time>2021-08-08T08:55:21Z</time>
      </trkpt>
      <trkpt lat="43.36381" lon="1.77191">
        <ele>185.39999389648</ele>
        <time>2021-08-08T08:55:35Z</time>
      </trkpt>
      <trkpt lat="43.36368" lon="1.77235">
        <ele>185.39999389648</ele>
        <time>2021-08-08T08:55:41Z</time>
      </trkpt>
      <trkpt lat="43.36342" lon="1.77308">
        <ele>187</ele>
        <time>2021-08-08T08:56:05Z</time>
      </trkpt>
      <trkpt lat="43.36291" lon="1.77424">
        <ele>186.60000610352</ele>
        <time>2021-08-08T08:56:44Z</time>
      </trkpt>
      <trkpt lat="43.36275" lon="1.7747">
        <ele>186.80000305176</ele>
        <time>2021-08-08T08:56:52Z</time>
      </trkpt>
      <trkpt lat="43.36208" lon="1.77676">
        <ele>187.60000610352</ele>
        <time>2021-08-08T08:57:24Z</time>
      </trkpt>
      <trkpt lat="43.36177" lon="1.7773">
        <ele>188.80000305176</ele>
        <time>2021-08-08T08:57:39Z</time>
      </trkpt>
      <trkpt lat="43.36072" lon="1.77894">
        <ele>188.60000610352</ele>
        <time>2021-08-08T08:58:08Z</time>
      </trkpt>
      <trkpt lat="43.36052" lon="1.77942">
        <ele>189</ele>
        <time>2021-08-08T08:58:16Z</time>
      </trkpt>
      <trkpt lat="43.3603" lon="1.77993">
        <ele>189</ele>
        <time>2021-08-08T08:58:24Z</time>
      </trkpt>
      <trkpt lat="43.35899" lon="1.78311">
        <ele>188.60000610352</ele>
        <time>2021-08-08T08:59:09Z</time>
      </trkpt>
      <trkpt lat="43.3587" lon="1.78376">
        <ele>188.80000305176</ele>
        <time>2021-08-08T08:59:18Z</time>
      </trkpt>
      <trkpt lat="43.35805" lon="1.7862">
        <ele>189.19999694824</ele>
        <time>2021-08-08T08:59:56Z</time>
      </trkpt>
      <trkpt lat="43.35798" lon="1.78644">
        <ele>189.19999694824</ele>
        <time>2021-08-08T08:59:59Z</time>
      </trkpt>
      <trkpt lat="43.3577" lon="1.78742">
        <ele>189.39999389648</ele>
        <time>2021-08-08T09:00:12Z</time>
      </trkpt>
      <trkpt lat="43.35767" lon="1.7876">
        <ele>189.39999389648</ele>
        <time>2021-08-08T09:00:14Z</time>
      </trkpt>
      <trkpt lat="43.35757" lon="1.7881">
        <ele>188.80000305176</ele>
        <time>2021-08-08T09:00:20Z</time>
      </trkpt>
      <trkpt lat="43.35751" lon="1.78826">
        <ele>188.60000610352</ele>
        <time>2021-08-08T09:00:22Z</time>
      </trkpt>
      <trkpt lat="43.35686" lon="1.79067">
        <ele>189.19999694824</ele>
        <time>2021-08-08T09:00:55Z</time>
      </trkpt>
      <trkpt lat="43.35684" lon="1.79074">
        <ele>189.19999694824</ele>
        <time>2021-08-08T09:00:56Z</time>
      </trkpt>
      <trkpt lat="43.35596" lon="1.79544">
        <ele>189.39999389648</ele>
        <time>2021-08-08T09:01:55Z</time>
      </trkpt>
      <trkpt lat="43.35594" lon="1.7955">
        <ele>189.39999389648</ele>
        <time>2021-08-08T09:01:56Z</time>
      </trkpt>
      <trkpt lat="43.35586" lon="1.7957">
        <ele>189.39999389648</ele>
        <time>2021-08-08T09:02:00Z</time>
      </trkpt>
      <trkpt lat="43.35492" lon="1.79738">
        <ele>187.19999694824</ele>
        <time>2021-08-08T09:02:25Z</time>
      </trkpt>
      <trkpt lat="43.35408" lon="1.79912">
        <ele>187.39999389648</ele>
        <time>2021-08-08T09:02:52Z</time>
      </trkpt>
      <trkpt lat="43.354" lon="1.79941">
        <ele>187.39999389648</ele>
        <time>2021-08-08T09:02:56Z</time>
      </trkpt>
      <trkpt lat="43.35405" lon="1.80003">
        <ele>187.39999389648</ele>
        <time>2021-08-08T09:03:05Z</time>
      </trkpt>
      <trkpt lat="43.35404" lon="1.80042">
        <ele>187.39999389648</ele>
        <time>2021-08-08T09:03:10Z</time>
      </trkpt>
      <trkpt lat="43.35476" lon="1.80244">
        <ele>187.80000305176</ele>
        <time>2021-08-08T09:03:40Z</time>
      </trkpt>
      <trkpt lat="43.35483" lon="1.80256">
        <ele>187.80000305176</ele>
        <time>2021-08-08T09:03:42Z</time>
      </trkpt>
      <trkpt lat="43.35492" lon="1.80282">
        <ele>187.80000305176</ele>
        <time>2021-08-08T09:03:46Z</time>
      </trkpt>
      <trkpt lat="43.355" lon="1.80308">
        <ele>187.19999694824</ele>
        <time>2021-08-08T09:03:54Z</time>
      </trkpt>
      <trkpt lat="43.35533" lon="1.80327">
        <ele>187</ele>
        <time>2021-08-08T09:04:05Z</time>
      </trkpt>
      <trkpt lat="43.35545" lon="1.80333">
        <ele>187</ele>
        <time>2021-08-08T09:04:07Z</time>
      </trkpt>
      <trkpt lat="43.35582" lon="1.80375">
        <ele>187</ele>
        <time>2021-08-08T09:04:13Z</time>
      </trkpt>
      <trkpt lat="43.35587" lon="1.80381">
        <ele>187</ele>
        <time>2021-08-08T09:04:14Z</time>
      </trkpt>
      <trkpt lat="43.35616" lon="1.8043">
        <ele>185.60000610352</ele>
        <time>2021-08-08T09:04:20Z</time>
      </trkpt>
      <trkpt lat="43.35633" lon="1.80457">
        <ele>184.80000305176</ele>
        <time>2021-08-08T09:04:24Z</time>
      </trkpt>
      <trkpt lat="43.35636" lon="1.80464">
        <ele>184.80000305176</ele>
        <time>2021-08-08T09:04:25Z</time>
      </trkpt>
      <trkpt lat="43.35709" lon="1.80594">
        <ele>185.39999389648</ele>
        <time>2021-08-08T09:04:47Z</time>
      </trkpt>
      <trkpt lat="43.35711" lon="1.80599">
        <ele>185.60000610352</ele>
        <time>2021-08-08T09:04:48Z</time>
      </trkpt>
      <trkpt lat="43.35725" lon="1.80659">
        <ele>186.39999389648</ele>
        <time>2021-08-08T09:04:58Z</time>
      </trkpt>
      <trkpt lat="43.35763" lon="1.80781">
        <ele>187.60000610352</ele>
        <time>2021-08-08T09:05:25Z</time>
      </trkpt>
      <trkpt lat="43.35768" lon="1.80818">
        <ele>187.60000610352</ele>
        <time>2021-08-08T09:05:31Z</time>
      </trkpt>
      <trkpt lat="43.35792" lon="1.8094">
        <ele>187.39999389648</ele>
        <time>2021-08-08T09:05:46Z</time>
      </trkpt>
      <trkpt lat="43.35799" lon="1.81187">
        <ele>187.19999694824</ele>
        <time>2021-08-08T09:06:20Z</time>
      </trkpt>
      <trkpt lat="43.35788" lon="1.81306">
        <ele>187.19999694824</ele>
        <time>2021-08-08T09:06:37Z</time>
      </trkpt>
      <trkpt lat="43.35737" lon="1.81469">
        <ele>186.80000305176</ele>
        <time>2021-08-08T09:07:00Z</time>
      </trkpt>
      <trkpt lat="43.35686" lon="1.81598">
        <ele>186.60000610352</ele>
        <time>2021-08-08T09:07:32Z</time>
      </trkpt>
      <trkpt lat="43.35642" lon="1.81732">
        <ele>188.39999389648</ele>
        <time>2021-08-08T09:08:07Z</time>
      </trkpt>
      <trkpt lat="43.35596" lon="1.81794">
        <ele>189</ele>
        <time>2021-08-08T09:08:22Z</time>
      </trkpt>
      <trkpt lat="43.35579" lon="1.81803">
        <ele>189</ele>
        <time>2021-08-08T09:08:26Z</time>
      </trkpt>
      <trkpt lat="43.35401" lon="1.81948">
        <ele>190.39999389648</ele>
        <time>2021-08-08T09:09:24Z</time>
      </trkpt>
      <trkpt lat="43.3524" lon="1.8218">
        <ele>190</ele>
        <time>2021-08-08T09:10:17Z</time>
      </trkpt>
      <trkpt lat="43.35192" lon="1.82253">
        <ele>189.80000305176</ele>
        <time>2021-08-08T09:10:39Z</time>
      </trkpt>
      <trkpt lat="43.35124" lon="1.8228">
        <ele>191.60000610352</ele>
        <time>2021-08-08T09:12:05Z</time>
      </trkpt>
      <trkpt lat="43.35105" lon="1.8229">
        <ele>191.39999389648</ele>
        <time>2021-08-08T09:12:13Z</time>
      </trkpt>
      <trkpt lat="43.35073" lon="1.82311">
        <ele>190.80000305176</ele>
        <time>2021-08-08T09:12:21Z</time>
      </trkpt>
      <trkpt lat="43.34845" lon="1.82393">
        <ele>187.60000610352</ele>
        <time>2021-08-08T09:12:56Z</time>
      </trkpt>
      <trkpt lat="43.34838" lon="1.82394">
        <ele>187.60000610352</ele>
        <time>2021-08-08T09:12:57Z</time>
      </trkpt>
      <trkpt lat="43.34756" lon="1.82448">
        <ele>187.39999389648</ele>
        <time>2021-08-08T09:13:11Z</time>
      </trkpt>
      <trkpt lat="43.3446" lon="1.82695">
        <ele>188.39999389648</ele>
        <time>2021-08-08T09:14:12Z</time>
      </trkpt>
      <trkpt lat="43.34422" lon="1.82774">
        <ele>188.60000610352</ele>
        <time>2021-08-08T09:14:25Z</time>
      </trkpt>
      <trkpt lat="43.34313" lon="1.83077">
        <ele>189</ele>
        <time>2021-08-08T09:15:07Z</time>
      </trkpt>
      <trkpt lat="43.34293" lon="1.83142">
        <ele>189.19999694824</ele>
        <time>2021-08-08T09:15:16Z</time>
      </trkpt>
      <trkpt lat="43.34279" lon="1.83185">
        <ele>189.60000610352</ele>
        <time>2021-08-08T09:15:22Z</time>
      </trkpt>
      <trkpt lat="43.34259" lon="1.83245">
        <ele>189.60000610352</ele>
        <time>2021-08-08T09:15:30Z</time>
      </trkpt>
      <trkpt lat="43.34231" lon="1.83343">
        <ele>189.60000610352</ele>
        <time>2021-08-08T09:15:44Z</time>
      </trkpt>
      <trkpt lat="43.34147" lon="1.83439">
        <ele>192</ele>
        <time>2021-08-08T09:16:19Z</time>
      </trkpt>
      <trkpt lat="43.34128" lon="1.83443">
        <ele>191.39999389648</ele>
        <time>2021-08-08T09:17:45Z</time>
      </trkpt>
      <trkpt lat="43.34127" lon="1.83446">
        <ele>191.60000610352</ele>
        <time>2021-08-08T09:17:46Z</time>
      </trkpt>
      <trkpt lat="43.34101" lon="1.83504">
        <ele>190.80000305176</ele>
        <time>2021-08-08T09:17:57Z</time>
      </trkpt>
      <trkpt lat="43.33984" lon="1.83618">
        <ele>190</ele>
        <time>2021-08-08T09:18:48Z</time>
      </trkpt>
      <trkpt lat="43.33964" lon="1.83607">
        <ele>190.19999694824</ele>
        <time>2021-08-08T09:18:55Z</time>
      </trkpt>
      <trkpt lat="43.33883" lon="1.83588">
        <ele>192.60000610352</ele>
        <time>2021-08-08T09:19:23Z</time>
      </trkpt>
      <trkpt lat="43.33892" lon="1.83588">
        <ele>193</ele>
        <time>2021-08-08T09:19:27Z</time>
      </trkpt>
      <trkpt lat="43.33938" lon="1.83588">
        <ele>193.19999694824</ele>
        <time>2021-08-08T09:19:41Z</time>
      </trkpt>
      <trkpt lat="43.3396" lon="1.83604">
        <ele>193.19999694824</ele>
        <time>2021-08-08T09:19:46Z</time>
      </trkpt>
      <trkpt lat="43.33965" lon="1.83607">
        <ele>193</ele>
        <time>2021-08-08T09:19:47Z</time>
      </trkpt>
      <trkpt lat="43.34018" lon="1.83636">
        <ele>192.39999389648</ele>
        <time>2021-08-08T09:19:56Z</time>
      </trkpt>
      <trkpt lat="43.34059" lon="1.83645">
        <ele>190.39999389648</ele>
        <time>2021-08-08T09:20:11Z</time>
      </trkpt>
      <trkpt lat="43.34047" lon="1.83733">
        <ele>190</ele>
        <time>2021-08-08T09:20:30Z</time>
      </trkpt>
      <trkpt lat="43.34046" lon="1.83773">
        <ele>190</ele>
        <time>2021-08-08T09:20:37Z</time>
      </trkpt>
      <trkpt lat="43.34043" lon="1.83885">
        <ele>189.60000610352</ele>
        <time>2021-08-08T09:20:58Z</time>
      </trkpt>
      <trkpt lat="43.34034" lon="1.83937">
        <ele>189.80000305176</ele>
        <time>2021-08-08T09:21:14Z</time>
      </trkpt>
      <trkpt lat="43.34025" lon="1.84025">
        <ele>191</ele>
        <time>2021-08-08T09:21:35Z</time>
      </trkpt>
      <trkpt lat="43.34026" lon="1.84093">
        <ele>190.60000610352</ele>
        <time>2021-08-08T09:21:47Z</time>
      </trkpt>
      <trkpt lat="43.34002" lon="1.8428">
        <ele>189.19999694824</ele>
        <time>2021-08-08T09:22:37Z</time>
      </trkpt>
      <trkpt lat="43.33982" lon="1.84301">
        <ele>189</ele>
        <time>2021-08-08T09:23:09Z</time>
      </trkpt>
      <trkpt lat="43.33868" lon="1.8435">
        <ele>189.60000610352</ele>
        <time>2021-08-08T09:23:50Z</time>
      </trkpt>
      <trkpt lat="43.33783" lon="1.84224">
        <ele>189.60000610352</ele>
        <time>2021-08-08T09:24:28Z</time>
      </trkpt>
      <trkpt lat="43.33693" lon="1.84234">
        <ele>189.39999389648</ele>
        <time>2021-08-08T09:24:56Z</time>
      </trkpt>
      <trkpt lat="43.33679" lon="1.84241">
        <ele>189.39999389648</ele>
        <time>2021-08-08T09:24:59Z</time>
      </trkpt>
      <trkpt lat="43.33583" lon="1.84386">
        <ele>189.19999694824</ele>
        <time>2021-08-08T09:25:36Z</time>
      </trkpt>
      <trkpt lat="43.33461" lon="1.84705">
        <ele>189.60000610352</ele>
        <time>2021-08-08T09:26:53Z</time>
      </trkpt>
      <trkpt lat="43.33412" lon="1.84808">
        <ele>190.80000305176</ele>
        <time>2021-08-08T09:29:31Z</time>
      </trkpt>
      <trkpt lat="43.33335" lon="1.8489">
        <ele>192</ele>
        <time>2021-08-08T09:29:56Z</time>
      </trkpt>
      <trkpt lat="43.33286" lon="1.85185">
        <ele>191.19999694824</ele>
        <time>2021-08-08T09:30:51Z</time>
      </trkpt>
      <trkpt lat="43.33253" lon="1.85282">
        <ele>190.60000610352</ele>
        <time>2021-08-08T09:31:08Z</time>
      </trkpt>
      <trkpt lat="43.33248" lon="1.85296">
        <ele>190.60000610352</ele>
        <time>2021-08-08T09:31:11Z</time>
      </trkpt>
      <trkpt lat="43.33195" lon="1.85494">
        <ele>189.80000305176</ele>
        <time>2021-08-08T09:31:48Z</time>
      </trkpt>
      <trkpt lat="43.33136" lon="1.85785">
        <ele>189</ele>
        <time>2021-08-08T09:32:49Z</time>
      </trkpt>
      <trkpt lat="43.33115" lon="1.85831">
        <ele>188.80000305176</ele>
        <time>2021-08-08T09:32:57Z</time>
      </trkpt>
      <trkpt lat="43.33088" lon="1.85896">
        <ele>188.80000305176</ele>
        <time>2021-08-08T09:33:08Z</time>
      </trkpt>
      <trkpt lat="43.33027" lon="1.86114">
        <ele>188.80000305176</ele>
        <time>2021-08-08T09:33:53Z</time>
      </trkpt>
      <trkpt lat="43.33009" lon="1.8617">
        <ele>189</ele>
        <time>2021-08-08T09:34:09Z</time>
      </trkpt>
      <trkpt lat="43.32992" lon="1.862">
        <ele>189</ele>
        <time>2021-08-08T09:34:14Z</time>
      </trkpt>
      <trkpt lat="43.32977" lon="1.86244">
        <ele>188.39999389648</ele>
        <time>2021-08-08T09:34:20Z</time>
      </trkpt>
      <trkpt lat="43.3296" lon="1.86324">
        <ele>186.80000305176</ele>
        <time>2021-08-08T09:34:38Z</time>
      </trkpt>
      <trkpt lat="43.32963" lon="1.86319">
        <ele>186.60000610352</ele>
        <time>2021-08-08T09:34:58Z</time>
      </trkpt>
      <trkpt lat="43.33021" lon="1.86157">
        <ele>189.39999389648</ele>
        <time>2021-08-08T09:35:44Z</time>
      </trkpt>
      <trkpt lat="43.33061" lon="1.86174">
        <ele>190</ele>
        <time>2021-08-08T09:35:55Z</time>
      </trkpt>
      <trkpt lat="43.33067" lon="1.86176">
        <ele>190.19999694824</ele>
        <time>2021-08-08T09:35:56Z</time>
      </trkpt>
      <trkpt lat="43.33126" lon="1.86114">
        <ele>190.60000610352</ele>
        <time>2021-08-08T09:36:19Z</time>
      </trkpt>
      <trkpt lat="43.33171" lon="1.86028">
        <ele>191</ele>
        <time>2021-08-08T09:36:40Z</time>
      </trkpt>
      <trkpt lat="43.3325" lon="1.86045">
        <ele>191.19999694824</ele>
        <time>2021-08-08T09:37:01Z</time>
      </trkpt>
      <trkpt lat="43.33323" lon="1.86087">
        <ele>194.80000305176</ele>
        <time>2021-08-08T09:37:32Z</time>
      </trkpt>
      <trkpt lat="43.33334" lon="1.86098">
        <ele>195.60000610352</ele>
        <time>2021-08-08T09:37:38Z</time>
      </trkpt>
      <trkpt lat="43.33336" lon="1.86103">
        <ele>195.80000305176</ele>
        <time>2021-08-08T09:37:40Z</time>
      </trkpt>
      <trkpt lat="43.33328" lon="1.86156">
        <ele>197.39999389648</ele>
        <time>2021-08-08T09:37:55Z</time>
      </trkpt>
      <trkpt lat="43.33317" lon="1.86202">
        <ele>197.60000610352</ele>
        <time>2021-08-08T09:38:04Z</time>
      </trkpt>
      <trkpt lat="43.33253" lon="1.86517">
        <ele>198.80000305176</ele>
        <time>2021-08-08T09:38:50Z</time>
      </trkpt>
      <trkpt lat="43.3325" lon="1.86576">
        <ele>199.80000305176</ele>
        <time>2021-08-08T09:38:59Z</time>
      </trkpt>
      <trkpt lat="43.33242" lon="1.87048">
        <ele>200.80000305176</ele>
        <time>2021-08-08T09:40:01Z</time>
      </trkpt>
      <trkpt lat="43.33222" lon="1.87187">
        <ele>200</ele>
        <time>2021-08-08T09:40:17Z</time>
      </trkpt>
      <trkpt lat="43.33122" lon="1.87618">
        <ele>196.60000610352</ele>
        <time>2021-08-08T09:41:06Z</time>
      </trkpt>
      <trkpt lat="43.33063" lon="1.87888">
        <ele>198.60000610352</ele>
        <time>2021-08-08T09:41:44Z</time>
      </trkpt>
      <trkpt lat="43.33054" lon="1.87894">
        <ele>198.80000305176</ele>
        <time>2021-08-08T09:41:47Z</time>
      </trkpt>
      <trkpt lat="43.3303" lon="1.87881">
        <ele>199.19999694824</ele>
        <time>2021-08-08T09:41:53Z</time>
      </trkpt>
      <trkpt lat="43.33026" lon="1.87879">
        <ele>199</ele>
        <time>2021-08-08T09:41:54Z</time>
      </trkpt>
      <trkpt lat="43.32979" lon="1.87885">
        <ele>199.19999694824</ele>
        <time>2021-08-08T09:42:03Z</time>
      </trkpt>
      <trkpt lat="43.32844" lon="1.87944">
        <ele>194.80000305176</ele>
        <time>2021-08-08T09:42:20Z</time>
      </trkpt>
      <trkpt lat="43.32796" lon="1.87966">
        <ele>191.60000610352</ele>
        <time>2021-08-08T09:42:25Z</time>
      </trkpt>
      <trkpt lat="43.32778" lon="1.87973">
        <ele>190.80000305176</ele>
        <time>2021-08-08T09:42:27Z</time>
      </trkpt>
      <trkpt lat="43.32706" lon="1.87963">
        <ele>186.19999694824</ele>
        <time>2021-08-08T09:42:36Z</time>
      </trkpt>
      <trkpt lat="43.32699" lon="1.87959">
        <ele>185.60000610352</ele>
        <time>2021-08-08T09:42:37Z</time>
      </trkpt>
      <trkpt lat="43.3268" lon="1.87957">
        <ele>184.39999389648</ele>
        <time>2021-08-08T09:42:41Z</time>
      </trkpt>
      <trkpt lat="43.32635" lon="1.8807">
        <ele>182.80000305176</ele>
        <time>2021-08-08T09:43:01Z</time>
      </trkpt>
      <trkpt lat="43.32619" lon="1.88107">
        <ele>182.80000305176</ele>
        <time>2021-08-08T09:43:09Z</time>
      </trkpt>
      <trkpt lat="43.326" lon="1.88143">
        <ele>183</ele>
        <time>2021-08-08T09:43:16Z</time>
      </trkpt>
      <trkpt lat="43.3255" lon="1.88241">
        <ele>183.19999694824</ele>
        <time>2021-08-08T09:43:31Z</time>
      </trkpt>
      <trkpt lat="43.3254" lon="1.88295">
        <ele>183.39999389648</ele>
        <time>2021-08-08T09:43:39Z</time>
      </trkpt>
      <trkpt lat="43.32541" lon="1.88475">
        <ele>181.39999389648</ele>
        <time>2021-08-08T09:44:04Z</time>
      </trkpt>
      <trkpt lat="43.32539" lon="1.88523">
        <ele>181.19999694824</ele>
        <time>2021-08-08T09:44:11Z</time>
      </trkpt>
      <trkpt lat="43.32538" lon="1.8853">
        <ele>181</ele>
        <time>2021-08-08T09:44:12Z</time>
      </trkpt>
      <trkpt lat="43.32535" lon="1.88549">
        <ele>179.80000305176</ele>
        <time>2021-08-08T09:44:16Z</time>
      </trkpt>
      <trkpt lat="43.32533" lon="1.8855">
        <ele>179.60000610352</ele>
        <time>2021-08-08T09:44:17Z</time>
      </trkpt>
      <trkpt lat="43.32527" lon="1.88552">
        <ele>178.39999389648</ele>
        <time>2021-08-08T09:44:23Z</time>
      </trkpt>
      <trkpt lat="43.32514" lon="1.88568">
        <ele>177.60000610352</ele>
        <time>2021-08-08T09:49:15Z</time>
      </trkpt>
      <trkpt lat="43.32517" lon="1.88646">
        <ele>176.39999389648</ele>
        <time>2021-08-08T09:49:28Z</time>
      </trkpt>
      <trkpt lat="43.3252" lon="1.8868">
        <ele>176</ele>
        <time>2021-08-08T09:49:33Z</time>
      </trkpt>
      <trkpt lat="43.32508" lon="1.88909">
        <ele>175.19999694824</ele>
        <time>2021-08-08T09:50:08Z</time>
      </trkpt>
      <trkpt lat="43.32456" lon="1.89144">
        <ele>175.60000610352</ele>
        <time>2021-08-08T09:50:45Z</time>
      </trkpt>
      <trkpt lat="43.3244" lon="1.89239">
        <ele>175.39999389648</ele>
        <time>2021-08-08T09:50:59Z</time>
      </trkpt>
      <trkpt lat="43.32427" lon="1.89322">
        <ele>175.39999389648</ele>
        <time>2021-08-08T09:51:12Z</time>
      </trkpt>
      <trkpt lat="43.32419" lon="1.89393">
        <ele>175.60000610352</ele>
        <time>2021-08-08T09:51:22Z</time>
      </trkpt>
      <trkpt lat="43.32396" lon="1.89563">
        <ele>175.80000305176</ele>
        <time>2021-08-08T09:51:46Z</time>
      </trkpt>
      <trkpt lat="43.32384" lon="1.89622">
        <ele>175.60000610352</ele>
        <time>2021-08-08T09:51:54Z</time>
      </trkpt>
      <trkpt lat="43.32368" lon="1.89703">
        <ele>175.19999694824</ele>
        <time>2021-08-08T09:52:06Z</time>
      </trkpt>
      <trkpt lat="43.32334" lon="1.89781">
        <ele>175</ele>
        <time>2021-08-08T09:52:18Z</time>
      </trkpt>
      <trkpt lat="43.32311" lon="1.89841">
        <ele>175</ele>
        <time>2021-08-08T09:52:27Z</time>
      </trkpt>
      <trkpt lat="43.32301" lon="1.89895">
        <ele>175</ele>
        <time>2021-08-08T09:52:35Z</time>
      </trkpt>
      <trkpt lat="43.32299" lon="1.89908">
        <ele>175.19999694824</ele>
        <time>2021-08-08T09:52:37Z</time>
      </trkpt>
      <trkpt lat="43.32293" lon="1.89941">
        <ele>175.19999694824</ele>
        <time>2021-08-08T09:52:42Z</time>
      </trkpt>
      <trkpt lat="43.32228" lon="1.90181">
        <ele>173.60000610352</ele>
        <time>2021-08-08T09:53:14Z</time>
      </trkpt>
      <trkpt lat="43.3222" lon="1.90233">
        <ele>173.60000610352</ele>
        <time>2021-08-08T09:53:22Z</time>
      </trkpt>
      <trkpt lat="43.32217" lon="1.90337">
        <ele>173.39999389648</ele>
        <time>2021-08-08T09:53:37Z</time>
      </trkpt>
      <trkpt lat="43.32218" lon="1.90358">
        <ele>173.39999389648</ele>
        <time>2021-08-08T09:53:40Z</time>
      </trkpt>
      <trkpt lat="43.32217" lon="1.90372">
        <ele>173.39999389648</ele>
        <time>2021-08-08T09:53:42Z</time>
      </trkpt>
      <trkpt lat="43.32203" lon="1.90557">
        <ele>173.80000305176</ele>
        <time>2021-08-08T09:54:07Z</time>
      </trkpt>
      <trkpt lat="43.32145" lon="1.90902">
        <ele>173.80000305176</ele>
        <time>2021-08-08T09:54:55Z</time>
      </trkpt>
      <trkpt lat="43.32145" lon="1.90916">
        <ele>173.80000305176</ele>
        <time>2021-08-08T09:54:57Z</time>
      </trkpt>
      <trkpt lat="43.32079" lon="1.91236">
        <ele>173.80000305176</ele>
        <time>2021-08-08T09:55:45Z</time>
      </trkpt>
      <trkpt lat="43.32086" lon="1.91285">
        <ele>173.60000610352</ele>
        <time>2021-08-08T09:55:53Z</time>
      </trkpt>
      <trkpt lat="43.32086" lon="1.91326">
        <ele>173.39999389648</ele>
        <time>2021-08-08T09:56:00Z</time>
      </trkpt>
      <trkpt lat="43.32087" lon="1.91376">
        <ele>173.39999389648</ele>
        <time>2021-08-08T09:56:08Z</time>
      </trkpt>
      <trkpt lat="43.32094" lon="1.91458">
        <ele>172.60000610352</ele>
        <time>2021-08-08T09:56:19Z</time>
      </trkpt>
      <trkpt lat="43.32135" lon="1.91601">
        <ele>171.39999389648</ele>
        <time>2021-08-08T09:56:38Z</time>
      </trkpt>
      <trkpt lat="43.32104" lon="1.91748">
        <ele>171.19999694824</ele>
        <time>2021-08-08T09:57:00Z</time>
      </trkpt>
      <trkpt lat="43.32082" lon="1.91822">
        <ele>171.19999694824</ele>
        <time>2021-08-08T09:57:11Z</time>
      </trkpt>
      <trkpt lat="43.32074" lon="1.91865">
        <ele>171.19999694824</ele>
        <time>2021-08-08T09:57:18Z</time>
      </trkpt>
      <trkpt lat="43.32061" lon="1.91986">
        <ele>171</ele>
        <time>2021-08-08T09:57:35Z</time>
      </trkpt>
      <trkpt lat="43.32078" lon="1.92105">
        <ele>171.19999694824</ele>
        <time>2021-08-08T09:57:51Z</time>
      </trkpt>
      <trkpt lat="43.32105" lon="1.92237">
        <ele>171</ele>
        <time>2021-08-08T09:58:10Z</time>
      </trkpt>
      <trkpt lat="43.32092" lon="1.92326">
        <ele>171</ele>
        <time>2021-08-08T09:58:22Z</time>
      </trkpt>
      <trkpt lat="43.32061" lon="1.92429">
        <ele>171</ele>
        <time>2021-08-08T09:58:37Z</time>
      </trkpt>
      <trkpt lat="43.32049" lon="1.92505">
        <ele>171</ele>
        <time>2021-08-08T09:58:46Z</time>
      </trkpt>
      <trkpt lat="43.31995" lon="1.92825">
        <ele>170.80000305176</ele>
        <time>2021-08-08T09:59:31Z</time>
      </trkpt>
      <trkpt lat="43.31983" lon="1.92995">
        <ele>171</ele>
        <time>2021-08-08T09:59:51Z</time>
      </trkpt>
      <trkpt lat="43.31947" lon="1.93176">
        <ele>171.39999389648</ele>
        <time>2021-08-08T10:00:16Z</time>
      </trkpt>
      <trkpt lat="43.31904" lon="1.93258">
        <ele>171.39999389648</ele>
        <time>2021-08-08T10:00:30Z</time>
      </trkpt>
      <trkpt lat="43.31797" lon="1.93414">
        <ele>171.19999694824</ele>
        <time>2021-08-08T10:00:59Z</time>
      </trkpt>
      <trkpt lat="43.31792" lon="1.93645">
        <ele>171</ele>
        <time>2021-08-08T10:01:29Z</time>
      </trkpt>
      <trkpt lat="43.31608" lon="1.94005">
        <ele>171.19999694824</ele>
        <time>2021-08-08T10:02:28Z</time>
      </trkpt>
      <trkpt lat="43.31579" lon="1.9403">
        <ele>171.60000610352</ele>
        <time>2021-08-08T10:02:35Z</time>
      </trkpt>
      <trkpt lat="43.31521" lon="1.94069">
        <ele>171.60000610352</ele>
        <time>2021-08-08T10:02:47Z</time>
      </trkpt>
      <trkpt lat="43.31401" lon="1.94249">
        <ele>170.80000305176</ele>
        <time>2021-08-08T10:03:17Z</time>
      </trkpt>
      <trkpt lat="43.31368" lon="1.94305">
        <ele>170.80000305176</ele>
        <time>2021-08-08T10:03:26Z</time>
      </trkpt>
      <trkpt lat="43.31338" lon="1.94403">
        <ele>170.60000610352</ele>
        <time>2021-08-08T10:03:40Z</time>
      </trkpt>
      <trkpt lat="43.3133" lon="1.94435">
        <ele>170.60000610352</ele>
        <time>2021-08-08T10:03:45Z</time>
      </trkpt>
      <trkpt lat="43.31323" lon="1.94448">
        <ele>170.60000610352</ele>
        <time>2021-08-08T10:03:47Z</time>
      </trkpt>
      <trkpt lat="43.31281" lon="1.94511">
        <ele>170.60000610352</ele>
        <time>2021-08-08T10:03:58Z</time>
      </trkpt>
      <trkpt lat="43.31262" lon="1.94618">
        <ele>170.80000305176</ele>
        <time>2021-08-08T10:04:12Z</time>
      </trkpt>
      <trkpt lat="43.31264" lon="1.94649">
        <ele>170.80000305176</ele>
        <time>2021-08-08T10:04:17Z</time>
      </trkpt>
      <trkpt lat="43.31261" lon="1.94659">
        <ele>170.80000305176</ele>
        <time>2021-08-08T10:04:21Z</time>
      </trkpt>
      <trkpt lat="43.31277" lon="1.9468">
        <ele>170.60000610352</ele>
        <time>2021-08-08T10:04:35Z</time>
      </trkpt>
      <trkpt lat="43.31291" lon="1.94708">
        <ele>170.80000305176</ele>
        <time>2021-08-08T10:04:42Z</time>
      </trkpt>
      <trkpt lat="43.31309" lon="1.94762">
        <ele>170.39999389648</ele>
        <time>2021-08-08T10:05:38Z</time>
      </trkpt>
      <trkpt lat="43.31445" lon="1.94832">
        <ele>171</ele>
        <time>2021-08-08T10:06:27Z</time>
      </trkpt>
      <trkpt lat="43.31501" lon="1.9486">
        <ele>171.39999389648</ele>
        <time>2021-08-08T10:06:45Z</time>
      </trkpt>
      <trkpt lat="43.31564" lon="1.95032">
        <ele>171.39999389648</ele>
        <time>2021-08-08T10:07:17Z</time>
      </trkpt>
      <trkpt lat="43.31563" lon="1.95035">
        <ele>171.39999389648</ele>
        <time>2021-08-08T10:07:18Z</time>
      </trkpt>
      <trkpt lat="43.31552" lon="1.95068">
        <ele>173.19999694824</ele>
        <time>2021-08-08T10:07:32Z</time>
      </trkpt>
      <trkpt lat="43.31614" lon="1.95145">
        <ele>175.60000610352</ele>
        <time>2021-08-08T10:08:05Z</time>
      </trkpt>
      <trkpt lat="43.31753" lon="1.95275">
        <ele>178.80000305176</ele>
        <time>2021-08-08T10:09:00Z</time>
      </trkpt>
      <trkpt lat="43.31794" lon="1.95314">
        <ele>180.60000610352</ele>
        <time>2021-08-08T10:09:15Z</time>
      </trkpt>
      <trkpt lat="43.31877" lon="1.95406">
        <ele>183.60000610352</ele>
        <time>2021-08-08T10:12:42Z</time>
      </trkpt>
      <trkpt lat="43.31956" lon="1.95504">
        <ele>187</ele>
        <time>2021-08-08T10:13:30Z</time>
      </trkpt>
      <trkpt lat="43.31971" lon="1.95513">
        <ele>189.19999694824</ele>
        <time>2021-08-08T10:13:42Z</time>
      </trkpt>
      <trkpt lat="43.31934" lon="1.95486">
        <ele>188</ele>
        <time>2021-08-08T10:26:41Z</time>
      </trkpt>
      <trkpt lat="43.31928" lon="1.95475">
        <ele>186.39999389648</ele>
        <time>2021-08-08T10:26:55Z</time>
      </trkpt>
      <trkpt lat="43.31928" lon="1.95474">
        <ele>186.39999389648</ele>
        <time>2021-08-08T10:26:56Z</time>
      </trkpt>
      <trkpt lat="43.31834" lon="1.95363">
        <ele>184.19999694824</ele>
        <time>2021-08-08T10:27:41Z</time>
      </trkpt>
      <trkpt lat="43.31797" lon="1.95317">
        <ele>183.80000305176</ele>
        <time>2021-08-08T10:27:51Z</time>
      </trkpt>
      <trkpt lat="43.31742" lon="1.95269">
        <ele>182.80000305176</ele>
        <time>2021-08-08T10:28:00Z</time>
      </trkpt>
      <trkpt lat="43.3172" lon="1.95253">
        <ele>181.80000305176</ele>
        <time>2021-08-08T10:28:03Z</time>
      </trkpt>
      <trkpt lat="43.31694" lon="1.95227">
        <ele>181.60000610352</ele>
        <time>2021-08-08T10:28:07Z</time>
      </trkpt>
      <trkpt lat="43.316" lon="1.95128">
        <ele>179.39999389648</ele>
        <time>2021-08-08T10:28:23Z</time>
      </trkpt>
      <trkpt lat="43.31586" lon="1.95111">
        <ele>178.80000305176</ele>
        <time>2021-08-08T10:28:27Z</time>
      </trkpt>
      <trkpt lat="43.31559" lon="1.95076">
        <ele>177.19999694824</ele>
        <time>2021-08-08T10:28:39Z</time>
      </trkpt>
      <trkpt lat="43.31545" lon="1.95066">
        <ele>176.39999389648</ele>
        <time>2021-08-08T10:28:51Z</time>
      </trkpt>
      <trkpt lat="43.31536" lon="1.95088">
        <ele>175.60000610352</ele>
        <time>2021-08-08T10:29:01Z</time>
      </trkpt>
      <trkpt lat="43.31534" lon="1.95092">
        <ele>175.39999389648</ele>
        <time>2021-08-08T10:29:02Z</time>
      </trkpt>
      <trkpt lat="43.31511" lon="1.95195">
        <ele>171.60000610352</ele>
        <time>2021-08-08T10:29:23Z</time>
      </trkpt>
      <trkpt lat="43.31509" lon="1.95217">
        <ele>171.39999389648</ele>
        <time>2021-08-08T10:29:29Z</time>
      </trkpt>
      <trkpt lat="43.31508" lon="1.9522">
        <ele>172.60000610352</ele>
        <time>2021-08-08T11:30:03Z</time>
      </trkpt>
      <trkpt lat="43.31495" lon="1.95431">
        <ele>172.80000305176</ele>
        <time>2021-08-08T11:31:40Z</time>
      </trkpt>
      <trkpt lat="43.31479" lon="1.9547">
        <ele>173.39999389648</ele>
        <time>2021-08-08T11:31:52Z</time>
      </trkpt>
      <trkpt lat="43.31345" lon="1.95507">
        <ele>173.60000610352</ele>
        <time>2021-08-08T11:32:35Z</time>
      </trkpt>
      <trkpt lat="43.31318" lon="1.95535">
        <ele>173.19999694824</ele>
        <time>2021-08-08T11:32:43Z</time>
      </trkpt>
      <trkpt lat="43.31293" lon="1.9556">
        <ele>173</ele>
        <time>2021-08-08T11:32:50Z</time>
      </trkpt>
      <trkpt lat="43.31272" lon="1.95678">
        <ele>173</ele>
        <time>2021-08-08T11:33:26Z</time>
      </trkpt>
      <trkpt lat="43.31234" lon="1.9582">
        <ele>172.60000610352</ele>
        <time>2021-08-08T11:35:00Z</time>
      </trkpt>
      <trkpt lat="43.31213" lon="1.95913">
        <ele>174.19999694824</ele>
        <time>2021-08-08T11:35:30Z</time>
      </trkpt>
      <trkpt lat="43.31233" lon="1.9597">
        <ele>176.19999694824</ele>
        <time>2021-08-08T11:35:54Z</time>
      </trkpt>
      <trkpt lat="43.31217" lon="1.96014">
        <ele>173.19999694824</ele>
        <time>2021-08-08T11:36:07Z</time>
      </trkpt>
      <trkpt lat="43.31193" lon="1.96063">
        <ele>170.80000305176</ele>
        <time>2021-08-08T11:36:20Z</time>
      </trkpt>
      <trkpt lat="43.31162" lon="1.96089">
        <ele>168.60000610352</ele>
        <time>2021-08-08T11:36:28Z</time>
      </trkpt>
      <trkpt lat="43.31153" lon="1.961">
        <ele>168.19999694824</ele>
        <time>2021-08-08T11:36:30Z</time>
      </trkpt>
      <trkpt lat="43.31134" lon="1.96239">
        <ele>165.39999389648</ele>
        <time>2021-08-08T11:36:43Z</time>
      </trkpt>
      <trkpt lat="43.31134" lon="1.96374">
        <ele>164.39999389648</ele>
        <time>2021-08-08T11:36:57Z</time>
      </trkpt>
      <trkpt lat="43.3111" lon="1.96499">
        <ele>164.19999694824</ele>
        <time>2021-08-08T11:37:15Z</time>
      </trkpt>
      <trkpt lat="43.31098" lon="1.96538">
        <ele>163.60000610352</ele>
        <time>2021-08-08T11:37:22Z</time>
      </trkpt>
      <trkpt lat="43.31099" lon="1.96557">
        <ele>163.60000610352</ele>
        <time>2021-08-08T11:40:11Z</time>
      </trkpt>
      <trkpt lat="43.31097" lon="1.96563">
        <ele>163.39999389648</ele>
        <time>2021-08-08T11:40:13Z</time>
      </trkpt>
      <trkpt lat="43.31071" lon="1.96637">
        <ele>163.39999389648</ele>
        <time>2021-08-08T11:40:30Z</time>
      </trkpt>
      <trkpt lat="43.31005" lon="1.96722">
        <ele>164</ele>
        <time>2021-08-08T11:40:50Z</time>
      </trkpt>
      <trkpt lat="43.30866" lon="1.96869">
        <ele>164.19999694824</ele>
        <time>2021-08-08T11:41:25Z</time>
      </trkpt>
      <trkpt lat="43.30827" lon="1.9695">
        <ele>164.19999694824</ele>
        <time>2021-08-08T11:41:40Z</time>
      </trkpt>
      <trkpt lat="43.30779" lon="1.97089">
        <ele>164.60000610352</ele>
        <time>2021-08-08T11:42:04Z</time>
      </trkpt>
      <trkpt lat="43.30762" lon="1.9715">
        <ele>164.60000610352</ele>
        <time>2021-08-08T11:42:14Z</time>
      </trkpt>
      <trkpt lat="43.3075" lon="1.97199">
        <ele>164.39999389648</ele>
        <time>2021-08-08T11:42:22Z</time>
      </trkpt>
      <trkpt lat="43.30714" lon="1.97343">
        <ele>164.60000610352</ele>
        <time>2021-08-08T11:42:44Z</time>
      </trkpt>
      <trkpt lat="43.30697" lon="1.97388">
        <ele>164.60000610352</ele>
        <time>2021-08-08T11:42:50Z</time>
      </trkpt>
      <trkpt lat="43.30624" lon="1.97551">
        <ele>165</ele>
        <time>2021-08-08T11:43:12Z</time>
      </trkpt>
      <trkpt lat="43.30572" lon="1.977">
        <ele>165</ele>
        <time>2021-08-08T11:43:33Z</time>
      </trkpt>
      <trkpt lat="43.3051" lon="1.97812">
        <ele>162.80000305176</ele>
        <time>2021-08-08T11:43:59Z</time>
      </trkpt>
      <trkpt lat="43.30481" lon="1.97874">
        <ele>159.39999389648</ele>
        <time>2021-08-08T11:44:17Z</time>
      </trkpt>
      <trkpt lat="43.30468" lon="1.97894">
        <ele>159.19999694824</ele>
        <time>2021-08-08T11:44:25Z</time>
      </trkpt>
      <trkpt lat="43.30472" lon="1.97905">
        <ele>159.19999694824</ele>
        <time>2021-08-08T11:44:38Z</time>
      </trkpt>
      <trkpt lat="43.30534" lon="1.97958">
        <ele>160.60000610352</ele>
        <time>2021-08-08T11:45:19Z</time>
      </trkpt>
      <trkpt lat="43.3048" lon="1.98049">
        <ele>161.39999389648</ele>
        <time>2021-08-08T11:45:42Z</time>
      </trkpt>
      <trkpt lat="43.30412" lon="1.98143">
        <ele>161.60000610352</ele>
        <time>2021-08-08T11:45:59Z</time>
      </trkpt>
      <trkpt lat="43.30186" lon="1.98515">
        <ele>162.39999389648</ele>
        <time>2021-08-08T11:47:03Z</time>
      </trkpt>
      <trkpt lat="43.30117" lon="1.98611">
        <ele>161.60000610352</ele>
        <time>2021-08-08T11:47:17Z</time>
      </trkpt>
      <trkpt lat="43.29975" lon="1.98818">
        <ele>162.19999694824</ele>
        <time>2021-08-08T11:47:50Z</time>
      </trkpt>
      <trkpt lat="43.29895" lon="1.98934">
        <ele>163</ele>
        <time>2021-08-08T11:48:30Z</time>
      </trkpt>
      <trkpt lat="43.29893" lon="1.98937">
        <ele>163</ele>
        <time>2021-08-08T11:48:31Z</time>
      </trkpt>
      <trkpt lat="43.29879" lon="1.9896">
        <ele>163.19999694824</ele>
        <time>2021-08-08T11:48:38Z</time>
      </trkpt>
      <trkpt lat="43.29859" lon="1.99119">
        <ele>163</ele>
        <time>2021-08-08T11:49:06Z</time>
      </trkpt>
      <trkpt lat="43.29846" lon="1.99173">
        <ele>162.80000305176</ele>
        <time>2021-08-08T11:49:13Z</time>
      </trkpt>
      <trkpt lat="43.29803" lon="1.9931">
        <ele>162.60000610352</ele>
        <time>2021-08-08T11:49:30Z</time>
      </trkpt>
      <trkpt lat="43.29768" lon="1.9949">
        <ele>160.80000305176</ele>
        <time>2021-08-08T11:49:52Z</time>
      </trkpt>
      <trkpt lat="43.29765" lon="1.99491">
        <ele>160.60000610352</ele>
        <time>2021-08-08T11:49:53Z</time>
      </trkpt>
      <trkpt lat="43.29743" lon="1.99488">
        <ele>157.60000610352</ele>
        <time>2021-08-08T11:50:00Z</time>
      </trkpt>
      <trkpt lat="43.29743" lon="1.99489">
        <ele>157.39999389648</ele>
        <time>2021-08-08T11:50:01Z</time>
      </trkpt>
      <trkpt lat="43.29742" lon="1.99496">
        <ele>156.60000610352</ele>
        <time>2021-08-08T11:50:04Z</time>
      </trkpt>
      <trkpt lat="43.29737" lon="1.99521">
        <ele>155.60000610352</ele>
        <time>2021-08-08T11:50:09Z</time>
      </trkpt>
      <trkpt lat="43.29735" lon="1.99527">
        <ele>155.39999389648</ele>
        <time>2021-08-08T11:50:10Z</time>
      </trkpt>
      <trkpt lat="43.29724" lon="1.99566">
        <ele>154.60000610352</ele>
        <time>2021-08-08T11:50:15Z</time>
      </trkpt>
      <trkpt lat="43.29704" lon="1.99652">
        <ele>153.39999389648</ele>
        <time>2021-08-08T11:50:25Z</time>
      </trkpt>
      <trkpt lat="43.29645" lon="1.99888">
        <ele>152.80000305176</ele>
        <time>2021-08-08T11:50:59Z</time>
      </trkpt>
      <trkpt lat="43.29554" lon="2.00191">
        <ele>149.80000305176</ele>
        <time>2021-08-08T11:51:44Z</time>
      </trkpt>
      <trkpt lat="43.29483" lon="2.00286">
        <ele>150</ele>
        <time>2021-08-08T11:52:03Z</time>
      </trkpt>
      <trkpt lat="43.29374" lon="2.00418">
        <ele>150.60000610352</ele>
        <time>2021-08-08T11:52:30Z</time>
      </trkpt>
      <trkpt lat="43.29289" lon="2.00625">
        <ele>148.80000305176</ele>
        <time>2021-08-08T11:53:11Z</time>
      </trkpt>
      <trkpt lat="43.29117" lon="2.01259">
        <ele>147.80000305176</ele>
        <time>2021-08-08T11:54:57Z</time>
      </trkpt>
      <trkpt lat="43.29098" lon="2.01326">
        <ele>148</ele>
        <time>2021-08-08T11:55:07Z</time>
      </trkpt>
      <trkpt lat="43.29031" lon="2.01541">
        <ele>147.80000305176</ele>
        <time>2021-08-08T11:55:43Z</time>
      </trkpt>
      <trkpt lat="43.29017" lon="2.0157">
        <ele>147.60000610352</ele>
        <time>2021-08-08T11:55:49Z</time>
      </trkpt>
      <trkpt lat="43.29004" lon="2.01608">
        <ele>147.80000305176</ele>
        <time>2021-08-08T11:56:03Z</time>
      </trkpt>
      <trkpt lat="43.2895" lon="2.01698">
        <ele>147.60000610352</ele>
        <time>2021-08-08T11:56:26Z</time>
      </trkpt>
      <trkpt lat="43.28933" lon="2.01743">
        <ele>146.80000305176</ele>
        <time>2021-08-08T11:56:32Z</time>
      </trkpt>
      <trkpt lat="43.28931" lon="2.01751">
        <ele>146.80000305176</ele>
        <time>2021-08-08T11:56:33Z</time>
      </trkpt>
      <trkpt lat="43.28781" lon="2.02277">
        <ele>146</ele>
        <time>2021-08-08T11:57:42Z</time>
      </trkpt>
      <trkpt lat="43.28771" lon="2.02366">
        <ele>146</ele>
        <time>2021-08-08T11:57:54Z</time>
      </trkpt>
      <trkpt lat="43.28766" lon="2.02426">
        <ele>146</ele>
        <time>2021-08-08T11:58:02Z</time>
      </trkpt>
      <trkpt lat="43.28711" lon="2.0259">
        <ele>145.60000610352</ele>
        <time>2021-08-08T11:58:29Z</time>
      </trkpt>
      <trkpt lat="43.2868" lon="2.02615">
        <ele>145.19999694824</ele>
        <time>2021-08-08T11:58:36Z</time>
      </trkpt>
      <trkpt lat="43.2866" lon="2.0264">
        <ele>144.19999694824</ele>
        <time>2021-08-08T11:58:45Z</time>
      </trkpt>
      <trkpt lat="43.28715" lon="2.02594">
        <ele>143.80000305176</ele>
        <time>2021-08-08T11:59:18Z</time>
      </trkpt>
      <trkpt lat="43.28702" lon="2.02619">
        <ele>144.60000610352</ele>
        <time>2021-08-08T12:01:42Z</time>
      </trkpt>
      <trkpt lat="43.28686" lon="2.02676">
        <ele>144.39999389648</ele>
        <time>2021-08-08T12:02:05Z</time>
      </trkpt>
      <trkpt lat="43.28669" lon="2.02815">
        <ele>144.60000610352</ele>
        <time>2021-08-08T12:02:46Z</time>
      </trkpt>
      <trkpt lat="43.28662" lon="2.02862">
        <ele>145.39999389648</ele>
        <time>2021-08-08T12:03:06Z</time>
      </trkpt>
      <trkpt lat="43.28676" lon="2.0287">
        <ele>146</ele>
        <time>2021-08-08T12:03:17Z</time>
      </trkpt>
      <trkpt lat="43.28674" lon="2.02927">
        <ele>144.60000610352</ele>
        <time>2021-08-08T12:03:30Z</time>
      </trkpt>
      <trkpt lat="43.28617" lon="2.03191">
        <ele>143.19999694824</ele>
        <time>2021-08-08T12:04:09Z</time>
      </trkpt>
      <trkpt lat="43.28609" lon="2.03233">
        <ele>143.19999694824</ele>
        <time>2021-08-08T12:04:15Z</time>
      </trkpt>
      <trkpt lat="43.28551" lon="2.03391">
        <ele>143.39999389648</ele>
        <time>2021-08-08T12:04:40Z</time>
      </trkpt>
      <trkpt lat="43.28545" lon="2.03402">
        <ele>143.60000610352</ele>
        <time>2021-08-08T12:04:42Z</time>
      </trkpt>
      <trkpt lat="43.2851" lon="2.03526">
        <ele>142.39999389648</ele>
        <time>2021-08-08T12:05:00Z</time>
      </trkpt>
      <trkpt lat="43.28282" lon="2.04245">
        <ele>140.19999694824</ele>
        <time>2021-08-08T12:06:44Z</time>
      </trkpt>
      <trkpt lat="43.28221" lon="2.04454">
        <ele>139.39999389648</ele>
        <time>2021-08-08T12:08:10Z</time>
      </trkpt>
      <trkpt lat="43.28164" lon="2.04653">
        <ele>140</ele>
        <time>2021-08-08T12:08:44Z</time>
      </trkpt>
      <trkpt lat="43.28105" lon="2.04818">
        <ele>139.80000305176</ele>
        <time>2021-08-08T12:09:10Z</time>
      </trkpt>
      <trkpt lat="43.28102" lon="2.0483">
        <ele>140</ele>
        <time>2021-08-08T12:09:12Z</time>
      </trkpt>
      <trkpt lat="43.28082" lon="2.04873">
        <ele>140.19999694824</ele>
        <time>2021-08-08T12:09:20Z</time>
      </trkpt>
      <trkpt lat="43.28059" lon="2.04993">
        <ele>140.60000610352</ele>
        <time>2021-08-08T12:09:38Z</time>
      </trkpt>
      <trkpt lat="43.28058" lon="2.05005">
        <ele>140.39999389648</ele>
        <time>2021-08-08T12:09:40Z</time>
      </trkpt>
      <trkpt lat="43.28034" lon="2.05034">
        <ele>139.80000305176</ele>
        <time>2021-08-08T12:10:58Z</time>
      </trkpt>
      <trkpt lat="43.27997" lon="2.05143">
        <ele>138.39999389648</ele>
        <time>2021-08-08T12:11:16Z</time>
      </trkpt>
      <trkpt lat="43.27954" lon="2.05258">
        <ele>138</ele>
        <time>2021-08-08T12:11:33Z</time>
      </trkpt>
      <trkpt lat="43.27936" lon="2.05319">
        <ele>138</ele>
        <time>2021-08-08T12:11:42Z</time>
      </trkpt>
      <trkpt lat="43.27925" lon="2.0536">
        <ele>138.19999694824</ele>
        <time>2021-08-08T12:11:49Z</time>
      </trkpt>
      <trkpt lat="43.27917" lon="2.05398">
        <ele>138.19999694824</ele>
        <time>2021-08-08T12:11:55Z</time>
      </trkpt>
      <trkpt lat="43.27907" lon="2.05441">
        <ele>138.39999389648</ele>
        <time>2021-08-08T12:12:01Z</time>
      </trkpt>
      <trkpt lat="43.27875" lon="2.05524">
        <ele>138.19999694824</ele>
        <time>2021-08-08T12:12:15Z</time>
      </trkpt>
      <trkpt lat="43.27861" lon="2.0556">
        <ele>138.19999694824</ele>
        <time>2021-08-08T12:12:21Z</time>
      </trkpt>
      <trkpt lat="43.27848" lon="2.05605">
        <ele>138</ele>
        <time>2021-08-08T12:12:27Z</time>
      </trkpt>
      <trkpt lat="43.27835" lon="2.05658">
        <ele>137.80000305176</ele>
        <time>2021-08-08T12:12:34Z</time>
      </trkpt>
      <trkpt lat="43.27788" lon="2.05814">
        <ele>138.19999694824</ele>
        <time>2021-08-08T12:12:58Z</time>
      </trkpt>
      <trkpt lat="43.27781" lon="2.05944">
        <ele>137.80000305176</ele>
        <time>2021-08-08T12:13:14Z</time>
      </trkpt>
      <trkpt lat="43.27774" lon="2.05981">
        <ele>137.80000305176</ele>
        <time>2021-08-08T12:13:20Z</time>
      </trkpt>
      <trkpt lat="43.27734" lon="2.06228">
        <ele>137.60000610352</ele>
        <time>2021-08-08T12:13:54Z</time>
      </trkpt>
      <trkpt lat="43.27723" lon="2.06275">
        <ele>137.80000305176</ele>
        <time>2021-08-08T12:14:01Z</time>
      </trkpt>
      <trkpt lat="43.2771" lon="2.06331">
        <ele>138</ele>
        <time>2021-08-08T12:14:10Z</time>
      </trkpt>
      <trkpt lat="43.27696" lon="2.06491">
        <ele>137.60000610352</ele>
        <time>2021-08-08T12:14:32Z</time>
      </trkpt>
      <trkpt lat="43.27661" lon="2.06738">
        <ele>137.39999389648</ele>
        <time>2021-08-08T12:15:08Z</time>
      </trkpt>
      <trkpt lat="43.27628" lon="2.06928">
        <ele>137.39999389648</ele>
        <time>2021-08-08T12:15:35Z</time>
      </trkpt>
      <trkpt lat="43.27614" lon="2.06967">
        <ele>137.39999389648</ele>
        <time>2021-08-08T12:15:42Z</time>
      </trkpt>
      <trkpt lat="43.27521" lon="2.07193">
        <ele>137.80000305176</ele>
        <time>2021-08-08T12:16:16Z</time>
      </trkpt>
      <trkpt lat="43.27586" lon="2.07457">
        <ele>137.80000305176</ele>
        <time>2021-08-08T12:16:59Z</time>
      </trkpt>
      <trkpt lat="43.27608" lon="2.07511">
        <ele>138</ele>
        <time>2021-08-08T12:17:06Z</time>
      </trkpt>
      <trkpt lat="43.27618" lon="2.07616">
        <ele>138</ele>
        <time>2021-08-08T12:17:22Z</time>
      </trkpt>
      <trkpt lat="43.27614" lon="2.07653">
        <ele>137.80000305176</ele>
        <time>2021-08-08T12:17:28Z</time>
      </trkpt>
      <trkpt lat="43.27609" lon="2.07754">
        <ele>137.80000305176</ele>
        <time>2021-08-08T12:17:42Z</time>
      </trkpt>
      <trkpt lat="43.27608" lon="2.07898">
        <ele>139.80000305176</ele>
        <time>2021-08-08T12:18:12Z</time>
      </trkpt>
      <trkpt lat="43.27603" lon="2.07924">
        <ele>140</ele>
        <time>2021-08-08T12:18:18Z</time>
      </trkpt>
      <trkpt lat="43.27597" lon="2.08018">
        <ele>139</ele>
        <time>2021-08-08T12:18:29Z</time>
      </trkpt>
      <trkpt lat="43.27593" lon="2.08525">
        <ele>138.60000610352</ele>
        <time>2021-08-08T12:19:34Z</time>
      </trkpt>
      <trkpt lat="43.27594" lon="2.08707">
        <ele>138.80000305176</ele>
        <time>2021-08-08T12:19:58Z</time>
      </trkpt>
      <trkpt lat="43.27584" lon="2.08965">
        <ele>138.39999389648</ele>
        <time>2021-08-08T12:20:32Z</time>
      </trkpt>
      <trkpt lat="43.27526" lon="2.09269">
        <ele>138.19999694824</ele>
        <time>2021-08-08T12:21:21Z</time>
      </trkpt>
      <trkpt lat="43.27302" lon="2.09569">
        <ele>135.39999389648</ele>
        <time>2021-08-08T12:22:27Z</time>
      </trkpt>
      <trkpt lat="43.27297" lon="2.09575">
        <ele>135.19999694824</ele>
        <time>2021-08-08T12:22:28Z</time>
      </trkpt>
      <trkpt lat="43.27136" lon="2.09796">
        <ele>135</ele>
        <time>2021-08-08T12:23:10Z</time>
      </trkpt>
      <trkpt lat="43.27097" lon="2.0989">
        <ele>135</ele>
        <time>2021-08-08T12:23:24Z</time>
      </trkpt>
      <trkpt lat="43.27085" lon="2.09921">
        <ele>135</ele>
        <time>2021-08-08T12:23:29Z</time>
      </trkpt>
      <trkpt lat="43.26923" lon="2.10316">
        <ele>135.19999694824</ele>
        <time>2021-08-08T12:24:30Z</time>
      </trkpt>
      <trkpt lat="43.26917" lon="2.10433">
        <ele>135.39999389648</ele>
        <time>2021-08-08T12:24:46Z</time>
      </trkpt>
      <trkpt lat="43.26919" lon="2.10573">
        <ele>135.60000610352</ele>
        <time>2021-08-08T12:25:05Z</time>
      </trkpt>
      <trkpt lat="43.26792" lon="2.10841">
        <ele>135</ele>
        <time>2021-08-08T12:25:51Z</time>
      </trkpt>
      <trkpt lat="43.26531" lon="2.10989">
        <ele>135.60000610352</ele>
        <time>2021-08-08T12:26:48Z</time>
      </trkpt>
      <trkpt lat="43.26503" lon="2.11004">
        <ele>135.60000610352</ele>
        <time>2021-08-08T12:26:55Z</time>
      </trkpt>
      <trkpt lat="43.26168" lon="2.11208">
        <ele>134.19999694824</ele>
        <time>2021-08-08T12:28:02Z</time>
      </trkpt>
      <trkpt lat="43.26097" lon="2.11356">
        <ele>133.80000305176</ele>
        <time>2021-08-08T12:28:26Z</time>
      </trkpt>
      <trkpt lat="43.25854" lon="2.11971">
        <ele>134.19999694824</ele>
        <time>2021-08-08T12:29:58Z</time>
      </trkpt>
      <trkpt lat="43.25832" lon="2.12061">
        <ele>132.39999389648</ele>
        <time>2021-08-08T12:30:13Z</time>
      </trkpt>
      <trkpt lat="43.25814" lon="2.12074">
        <ele>132.39999389648</ele>
        <time>2021-08-08T12:30:18Z</time>
      </trkpt>
      <trkpt lat="43.25775" lon="2.12155">
        <ele>131.80000305176</ele>
        <time>2021-08-08T12:30:31Z</time>
      </trkpt>
      <trkpt lat="43.25565" lon="2.12662">
        <ele>132.60000610352</ele>
        <time>2021-08-08T12:31:51Z</time>
      </trkpt>
      <trkpt lat="43.25556" lon="2.1266">
        <ele>133.80000305176</ele>
        <time>2021-08-08T12:31:59Z</time>
      </trkpt>
      <trkpt lat="43.25512" lon="2.12798">
        <ele>132</ele>
        <time>2021-08-08T12:32:32Z</time>
      </trkpt>
      <trkpt lat="43.25437" lon="2.12974">
        <ele>132</ele>
        <time>2021-08-08T12:33:07Z</time>
      </trkpt>
      <trkpt lat="43.25394" lon="2.13075">
        <ele>131.60000610352</ele>
        <time>2021-08-08T12:33:27Z</time>
      </trkpt>
      <trkpt lat="43.25241" lon="2.13449">
        <ele>131.60000610352</ele>
        <time>2021-08-08T12:34:42Z</time>
      </trkpt>
      <trkpt lat="43.2521" lon="2.13514">
        <ele>131.39999389648</ele>
        <time>2021-08-08T12:35:00Z</time>
      </trkpt>
      <trkpt lat="43.25063" lon="2.13851">
        <ele>131.60000610352</ele>
        <time>2021-08-08T12:36:09Z</time>
      </trkpt>
      <trkpt lat="43.24685" lon="2.1456">
        <ele>131.19999694824</ele>
        <time>2021-08-08T12:38:25Z</time>
      </trkpt>
      <trkpt lat="43.24472" lon="2.14969">
        <ele>131.39999389648</ele>
        <time>2021-08-08T12:39:56Z</time>
      </trkpt>
      <trkpt lat="43.24466" lon="2.15012">
        <ele>131</ele>
        <time>2021-08-08T12:46:09Z</time>
      </trkpt>
      <trkpt lat="43.24444" lon="2.15241">
        <ele>131.39999389648</ele>
        <time>2021-08-08T12:47:16Z</time>
      </trkpt>
      <trkpt lat="43.24444" lon="2.15276">
        <ele>131.60000610352</ele>
        <time>2021-08-08T12:47:22Z</time>
      </trkpt>
      <trkpt lat="43.2445" lon="2.15458">
        <ele>131.19999694824</ele>
        <time>2021-08-08T12:47:55Z</time>
      </trkpt>
      <trkpt lat="43.2442" lon="2.15652">
        <ele>131.19999694824</ele>
        <time>2021-08-08T12:48:29Z</time>
      </trkpt>
      <trkpt lat="43.24417" lon="2.15683">
        <ele>131.39999389648</ele>
        <time>2021-08-08T12:48:35Z</time>
      </trkpt>
      <trkpt lat="43.24334" lon="2.15886">
        <ele>131.60000610352</ele>
        <time>2021-08-08T12:49:10Z</time>
      </trkpt>
      <trkpt lat="43.24185" lon="2.16093">
        <ele>131.19999694824</ele>
        <time>2021-08-08T12:50:07Z</time>
      </trkpt>
      <trkpt lat="43.24156" lon="2.16142">
        <ele>131</ele>
        <time>2021-08-08T12:50:19Z</time>
      </trkpt>
      <trkpt lat="43.24112" lon="2.1627">
        <ele>131.39999389648</ele>
        <time>2021-08-08T12:52:12Z</time>
      </trkpt>
      <trkpt lat="43.24107" lon="2.1629">
        <ele>131.60000610352</ele>
        <time>2021-08-08T12:52:17Z</time>
      </trkpt>
      <trkpt lat="43.23984" lon="2.16704">
        <ele>131.19999694824</ele>
        <time>2021-08-08T12:53:39Z</time>
      </trkpt>
      <trkpt lat="43.23957" lon="2.16795">
        <ele>131.80000305176</ele>
        <time>2021-08-08T13:01:13Z</time>
      </trkpt>
      <trkpt lat="43.23957" lon="2.16806">
        <ele>131.80000305176</ele>
        <time>2021-08-08T13:01:16Z</time>
      </trkpt>
      <trkpt lat="43.23959" lon="2.16861">
        <ele>131</ele>
        <time>2021-08-08T13:02:47Z</time>
      </trkpt>
      <trkpt lat="43.23938" lon="2.16902">
        <ele>133.39999389648</ele>
        <time>2021-08-08T13:06:11Z</time>
      </trkpt>
      <trkpt lat="43.23937" lon="2.1691">
        <ele>133.60000610352</ele>
        <time>2021-08-08T13:06:13Z</time>
      </trkpt>
      <trkpt lat="43.23921" lon="2.17167">
        <ele>130</ele>
        <time>2021-08-08T13:06:46Z</time>
      </trkpt>
      <trkpt lat="43.2392" lon="2.17178">
        <ele>129.80000305176</ele>
        <time>2021-08-08T13:06:47Z</time>
      </trkpt>
      <trkpt lat="43.23869" lon="2.18062">
        <ele>128.39999389648</ele>
        <time>2021-08-08T13:08:29Z</time>
      </trkpt>
      <trkpt lat="43.23819" lon="2.18867">
        <ele>128.60000610352</ele>
        <time>2021-08-08T13:10:01Z</time>
      </trkpt>
      <trkpt lat="43.23781" lon="2.19561">
        <ele>126.59999847412</ele>
        <time>2021-08-08T13:11:18Z</time>
      </trkpt>
      <trkpt lat="43.23835" lon="2.20301">
        <ele>127.19999694824</ele>
        <time>2021-08-08T13:12:40Z</time>
      </trkpt>
      <trkpt lat="43.23836" lon="2.20367">
        <ele>126.59999847412</ele>
        <time>2021-08-08T13:12:47Z</time>
      </trkpt>
      <trkpt lat="43.23884" lon="2.21153">
        <ele>125.80000305176</ele>
        <time>2021-08-08T13:14:17Z</time>
      </trkpt>
      <trkpt lat="43.23975" lon="2.2225">
        <ele>124.59999847412</ele>
        <time>2021-08-08T13:16:17Z</time>
      </trkpt>
      <trkpt lat="43.24004" lon="2.22865">
        <ele>128</ele>
        <time>2021-08-08T13:17:43Z</time>
      </trkpt>
      <trkpt lat="43.24004" lon="2.22867">
        <ele>128.19999694824</ele>
        <time>2021-08-08T13:17:48Z</time>
      </trkpt>
      <trkpt lat="43.24009" lon="2.22919">
        <ele>129.19999694824</ele>
        <time>2021-08-08T13:19:01Z</time>
      </trkpt>
      <trkpt lat="43.24016" lon="2.22985">
        <ele>129.60000610352</ele>
        <time>2021-08-08T13:19:12Z</time>
      </trkpt>
      <trkpt lat="43.24058" lon="2.23263">
        <ele>129.39999389648</ele>
        <time>2021-08-08T13:19:47Z</time>
      </trkpt>
      <trkpt lat="43.2404" lon="2.23444">
        <ele>126.59999847412</ele>
        <time>2021-08-08T13:20:05Z</time>
      </trkpt>
      <trkpt lat="43.24017" lon="2.23493">
        <ele>126.40000152588</ele>
        <time>2021-08-08T13:20:10Z</time>
      </trkpt>
      <trkpt lat="43.23964" lon="2.23607">
        <ele>124.40000152588</ele>
        <time>2021-08-08T13:20:22Z</time>
      </trkpt>
      <trkpt lat="43.23958" lon="2.23625">
        <ele>124.19999694824</ele>
        <time>2021-08-08T13:20:24Z</time>
      </trkpt>
      <trkpt lat="43.23932" lon="2.23758">
        <ele>124.19999694824</ele>
        <time>2021-08-08T13:20:39Z</time>
      </trkpt>
      <trkpt lat="43.23916" lon="2.23845">
        <ele>124.40000152588</ele>
        <time>2021-08-08T13:20:49Z</time>
      </trkpt>
      <trkpt lat="43.23839" lon="2.2411">
        <ele>122.19999694824</ele>
        <time>2021-08-08T13:21:19Z</time>
      </trkpt>
      <trkpt lat="43.23806" lon="2.24322">
        <ele>122.59999847412</ele>
        <time>2021-08-08T13:21:43Z</time>
      </trkpt>
      <trkpt lat="43.23805" lon="2.2433">
        <ele>122.59999847412</ele>
        <time>2021-08-08T13:21:44Z</time>
      </trkpt>
      <trkpt lat="43.23693" lon="2.25048">
        <ele>125.80000305176</ele>
        <time>2021-08-08T13:23:09Z</time>
      </trkpt>
      <trkpt lat="43.2364" lon="2.25267">
        <ele>129.39999389648</ele>
        <time>2021-08-08T13:23:46Z</time>
      </trkpt>
      <trkpt lat="43.23629" lon="2.25313">
        <ele>131.39999389648</ele>
        <time>2021-08-08T13:24:03Z</time>
      </trkpt>
      <trkpt lat="43.23638" lon="2.2533">
        <ele>129.80000305176</ele>
        <time>2021-08-08T13:44:03Z</time>
      </trkpt>
      <trkpt lat="43.23638" lon="2.25333">
        <ele>129.80000305176</ele>
        <time>2021-08-08T13:44:04Z</time>
      </trkpt>
      <trkpt lat="43.23635" lon="2.25353">
        <ele>129.60000610352</ele>
        <time>2021-08-08T13:44:09Z</time>
      </trkpt>
      <trkpt lat="43.2358" lon="2.25725">
        <ele>132</ele>
        <time>2021-08-08T13:45:12Z</time>
      </trkpt>
      <trkpt lat="43.23569" lon="2.25807">
        <ele>133.80000305176</ele>
        <time>2021-08-08T13:45:29Z</time>
      </trkpt>
      <trkpt lat="43.23538" lon="2.25988">
        <ele>137.39999389648</ele>
        <time>2021-08-08T13:46:08Z</time>
      </trkpt>
      <trkpt lat="43.2352" lon="2.2609">
        <ele>140.60000610352</ele>
        <time>2021-08-08T13:46:38Z</time>
      </trkpt>
      <trkpt lat="43.23518" lon="2.26098">
        <ele>140.80000305176</ele>
        <time>2021-08-08T13:46:41Z</time>
      </trkpt>
      <trkpt lat="43.23503" lon="2.26162">
        <ele>144.39999389648</ele>
        <time>2021-08-08T13:47:04Z</time>
      </trkpt>
      <trkpt lat="43.23502" lon="2.26165">
        <ele>144.39999389648</ele>
        <time>2021-08-08T13:47:05Z</time>
      </trkpt>
      <trkpt lat="43.23491" lon="2.26199">
        <ele>146.60000610352</ele>
        <time>2021-08-08T13:47:19Z</time>
      </trkpt>
      <trkpt lat="43.2347" lon="2.2626">
        <ele>149.80000305176</ele>
        <time>2021-08-08T13:47:44Z</time>
      </trkpt>
      <trkpt lat="43.23457" lon="2.26291">
        <ele>150.80000305176</ele>
        <time>2021-08-08T13:47:53Z</time>
      </trkpt>
      <trkpt lat="43.23271" lon="2.26912">
        <ele>149</ele>
        <time>2021-08-08T13:49:23Z</time>
      </trkpt>
      <trkpt lat="43.23238" lon="2.27012">
        <ele>148.60000610352</ele>
        <time>2021-08-08T13:49:36Z</time>
      </trkpt>
      <trkpt lat="43.23218" lon="2.27105">
        <ele>148.39999389648</ele>
        <time>2021-08-08T13:49:47Z</time>
      </trkpt>
      <trkpt lat="43.23089" lon="2.27561">
        <ele>145.19999694824</ele>
        <time>2021-08-08T13:50:43Z</time>
      </trkpt>
      <trkpt lat="43.22893" lon="2.28189">
        <ele>142</ele>
        <time>2021-08-08T13:52:01Z</time>
      </trkpt>
      <trkpt lat="43.22656" lon="2.28923">
        <ele>139.80000305176</ele>
        <time>2021-08-08T13:53:29Z</time>
      </trkpt>
      <trkpt lat="43.22566" lon="2.29192">
        <ele>138.39999389648</ele>
        <time>2021-08-08T13:54:00Z</time>
      </trkpt>
      <trkpt lat="43.22352" lon="2.29524">
        <ele>135.19999694824</ele>
        <time>2021-08-08T13:54:40Z</time>
      </trkpt>
      <trkpt lat="43.22315" lon="2.29575">
        <ele>134.39999389648</ele>
        <time>2021-08-08T13:54:45Z</time>
      </trkpt>
      <trkpt lat="43.22249" lon="2.29702">
        <ele>131.60000610352</ele>
        <time>2021-08-08T13:54:55Z</time>
      </trkpt>
      <trkpt lat="43.22202" lon="2.29797">
        <ele>128.60000610352</ele>
        <time>2021-08-08T13:55:02Z</time>
      </trkpt>
      <trkpt lat="43.22195" lon="2.2981">
        <ele>128.39999389648</ele>
        <time>2021-08-08T13:55:03Z</time>
      </trkpt>
      <trkpt lat="43.22043" lon="2.30105">
        <ele>129</ele>
        <time>2021-08-08T13:55:46Z</time>
      </trkpt>
      <trkpt lat="43.22041" lon="2.30108">
        <ele>129.19999694824</ele>
        <time>2021-08-08T13:55:48Z</time>
      </trkpt>
      <trkpt lat="43.22017" lon="2.30161">
        <ele>132.39999389648</ele>
        <time>2021-08-08T13:56:04Z</time>
      </trkpt>
      <trkpt lat="43.21987" lon="2.30239">
        <ele>134.80000305176</ele>
        <time>2021-08-08T13:56:25Z</time>
      </trkpt>
      <trkpt lat="43.21891" lon="2.3055">
        <ele>133.80000305176</ele>
        <time>2021-08-08T13:57:08Z</time>
      </trkpt>
      <trkpt lat="43.21865" lon="2.30634">
        <ele>132.39999389648</ele>
        <time>2021-08-08T13:57:17Z</time>
      </trkpt>
      <trkpt lat="43.21777" lon="2.30925">
        <ele>135.19999694824</ele>
        <time>2021-08-08T13:57:56Z</time>
      </trkpt>
      <trkpt lat="43.21674" lon="2.31645">
        <ele>131.39999389648</ele>
        <time>2021-08-08T13:59:13Z</time>
      </trkpt>
      <trkpt lat="43.21628" lon="2.31882">
        <ele>128</ele>
        <time>2021-08-08T13:59:33Z</time>
      </trkpt>
      <trkpt lat="43.21603" lon="2.31959">
        <ele>127</ele>
        <time>2021-08-08T13:59:40Z</time>
      </trkpt>
      <trkpt lat="43.21543" lon="2.32097">
        <ele>124.40000152588</ele>
        <time>2021-08-08T13:59:54Z</time>
      </trkpt>
      <trkpt lat="43.2151" lon="2.3217">
        <ele>123</ele>
        <time>2021-08-08T14:00:01Z</time>
      </trkpt>
      <trkpt lat="43.21459" lon="2.32258">
        <ele>121.80000305176</ele>
        <time>2021-08-08T14:00:10Z</time>
      </trkpt>
      <trkpt lat="43.21451" lon="2.32275">
        <ele>121.80000305176</ele>
        <time>2021-08-08T14:00:12Z</time>
      </trkpt>
      <trkpt lat="43.21391" lon="2.32323">
        <ele>121.59999847412</ele>
        <time>2021-08-08T14:00:23Z</time>
      </trkpt>
      <trkpt lat="43.21364" lon="2.32424">
        <ele>121</ele>
        <time>2021-08-08T14:00:37Z</time>
      </trkpt>
      <trkpt lat="43.21312" lon="2.32561">
        <ele>119.19999694824</ele>
        <time>2021-08-08T14:00:54Z</time>
      </trkpt>
      <trkpt lat="43.21296" lon="2.32614">
        <ele>118.59999847412</ele>
        <time>2021-08-08T14:01:01Z</time>
      </trkpt>
      <trkpt lat="43.21286" lon="2.32653">
        <ele>118.59999847412</ele>
        <time>2021-08-08T14:01:05Z</time>
      </trkpt>
      <trkpt lat="43.2118" lon="2.32655">
        <ele>119.19999694824</ele>
        <time>2021-08-08T14:01:28Z</time>
      </trkpt>
      <trkpt lat="43.21175" lon="2.32654">
        <ele>119.19999694824</ele>
        <time>2021-08-08T14:01:29Z</time>
      </trkpt>
      <trkpt lat="43.21123" lon="2.32711">
        <ele>119.80000305176</ele>
        <time>2021-08-08T14:01:47Z</time>
      </trkpt>
      <trkpt lat="43.21123" lon="2.32777">
        <ele>120</ele>
        <time>2021-08-08T14:01:57Z</time>
      </trkpt>
      <trkpt lat="43.21146" lon="2.32878">
        <ele>121.40000152588</ele>
        <time>2021-08-08T14:02:16Z</time>
      </trkpt>
      <trkpt lat="43.21162" lon="2.32918">
        <ele>122</ele>
        <time>2021-08-08T14:02:25Z</time>
      </trkpt>
      <trkpt lat="43.21167" lon="2.32934">
        <ele>122.19999694824</ele>
        <time>2021-08-08T14:02:28Z</time>
      </trkpt>
      <trkpt lat="43.21197" lon="2.33027">
        <ele>124.59999847412</ele>
        <time>2021-08-08T14:02:51Z</time>
      </trkpt>
      <trkpt lat="43.21192" lon="2.33053">
        <ele>124.59999847412</ele>
        <time>2021-08-08T14:02:57Z</time>
      </trkpt>
      <trkpt lat="43.21181" lon="2.33088">
        <ele>124.59999847412</ele>
        <time>2021-08-08T14:03:04Z</time>
      </trkpt>
      <trkpt lat="43.21166" lon="2.33135">
        <ele>124.59999847412</ele>
        <time>2021-08-08T14:03:11Z</time>
      </trkpt>
      <trkpt lat="43.21143" lon="2.33212">
        <ele>124.40000152588</ele>
        <time>2021-08-08T14:03:21Z</time>
      </trkpt>
      <trkpt lat="43.21132" lon="2.33249">
        <ele>124.80000305176</ele>
        <time>2021-08-08T14:03:28Z</time>
      </trkpt>
      <trkpt lat="43.21114" lon="2.33363">
        <ele>128</ele>
        <time>2021-08-08T14:03:52Z</time>
      </trkpt>
      <trkpt lat="43.21108" lon="2.33435">
        <ele>129.80000305176</ele>
        <time>2021-08-08T14:04:08Z</time>
      </trkpt>
      <trkpt lat="43.21104" lon="2.33542">
        <ele>129.80000305176</ele>
        <time>2021-08-08T14:04:45Z</time>
      </trkpt>
      <trkpt lat="43.21099" lon="2.33565">
        <ele>129.60000610352</ele>
        <time>2021-08-08T14:04:50Z</time>
      </trkpt>
      <trkpt lat="43.211" lon="2.33752">
        <ele>128.19999694824</ele>
        <time>2021-08-08T14:05:13Z</time>
      </trkpt>
      <trkpt lat="43.21098" lon="2.33868">
        <ele>126.59999847412</ele>
        <time>2021-08-08T14:05:25Z</time>
      </trkpt>
      <trkpt lat="43.21097" lon="2.33877">
        <ele>126.59999847412</ele>
        <time>2021-08-08T14:05:26Z</time>
      </trkpt>
      <trkpt lat="43.21086" lon="2.34036">
        <ele>126</ele>
        <time>2021-08-08T14:05:43Z</time>
      </trkpt>
      <trkpt lat="43.21085" lon="2.34111">
        <ele>124.19999694824</ele>
        <time>2021-08-08T14:05:58Z</time>
      </trkpt>
      <trkpt lat="43.21088" lon="2.34138">
        <ele>123.80000305176</ele>
        <time>2021-08-08T14:06:04Z</time>
      </trkpt>
      <trkpt lat="43.21081" lon="2.34281">
        <ele>125.40000152588</ele>
        <time>2021-08-08T14:06:34Z</time>
      </trkpt>
      <trkpt lat="43.21075" lon="2.34406">
        <ele>128.60000610352</ele>
        <time>2021-08-08T14:07:03Z</time>
      </trkpt>
      <trkpt lat="43.21069" lon="2.34441">
        <ele>129.19999694824</ele>
        <time>2021-08-08T14:07:15Z</time>
      </trkpt>
      <trkpt lat="43.21058" lon="2.34523">
        <ele>130</ele>
        <time>2021-08-08T14:07:30Z</time>
      </trkpt>
      <trkpt lat="43.21042" lon="2.34581">
        <ele>130.39999389648</ele>
        <time>2021-08-08T14:07:40Z</time>
      </trkpt>
      <trkpt lat="43.21037" lon="2.3462">
        <ele>130.39999389648</ele>
        <time>2021-08-08T14:07:47Z</time>
      </trkpt>
      <trkpt lat="43.21034" lon="2.34653">
        <ele>130.39999389648</ele>
        <time>2021-08-08T14:07:52Z</time>
      </trkpt>
      <trkpt lat="43.2103" lon="2.34712">
        <ele>130</ele>
        <time>2021-08-08T14:08:01Z</time>
      </trkpt>
      <trkpt lat="43.21041" lon="2.34851">
        <ele>128.60000610352</ele>
        <time>2021-08-08T14:08:16Z</time>
      </trkpt>
      <trkpt lat="43.21041" lon="2.34905">
        <ele>127.40000152588</ele>
        <time>2021-08-08T14:08:23Z</time>
      </trkpt>
      <trkpt lat="43.21039" lon="2.34954">
        <ele>126.59999847412</ele>
        <time>2021-08-08T14:08:27Z</time>
      </trkpt>
      <trkpt lat="43.21042" lon="2.35005">
        <ele>125.80000305176</ele>
        <time>2021-08-08T14:08:32Z</time>
      </trkpt>
      <trkpt lat="43.21045" lon="2.35117">
        <ele>123.19999694824</ele>
        <time>2021-08-08T14:08:43Z</time>
      </trkpt>
      <trkpt lat="43.2104" lon="2.35154">
        <ele>122.19999694824</ele>
        <time>2021-08-08T14:08:47Z</time>
      </trkpt>
      <trkpt lat="43.21035" lon="2.35209">
        <ele>121.40000152588</ele>
        <time>2021-08-08T14:08:53Z</time>
      </trkpt>
      <trkpt lat="43.21033" lon="2.35229">
        <ele>120.59999847412</ele>
        <time>2021-08-08T14:08:56Z</time>
      </trkpt>
      <trkpt lat="43.21029" lon="2.35291">
        <ele>118.80000305176</ele>
        <time>2021-08-08T14:09:03Z</time>
      </trkpt>
      <trkpt lat="43.21041" lon="2.35371">
        <ele>117.59999847412</ele>
        <time>2021-08-08T14:09:14Z</time>
      </trkpt>
      <trkpt lat="43.21047" lon="2.35493">
        <ele>116.40000152588</ele>
        <time>2021-08-08T14:09:28Z</time>
      </trkpt>
      <trkpt lat="43.21075" lon="2.3554">
        <ele>115.80000305176</ele>
        <time>2021-08-08T14:09:38Z</time>
      </trkpt>
      <trkpt lat="43.2111" lon="2.35545">
        <ele>115.19999694824</ele>
        <time>2021-08-08T14:09:48Z</time>
      </trkpt>
      <trkpt lat="43.21099" lon="2.3564">
        <ele>114.40000152588</ele>
        <time>2021-08-08T14:10:06Z</time>
      </trkpt>
      <trkpt lat="43.21092" lon="2.35711">
        <ele>113.80000305176</ele>
        <time>2021-08-08T14:10:18Z</time>
      </trkpt>
      <trkpt lat="43.21043" lon="2.35834">
        <ele>114.80000305176</ele>
        <time>2021-08-08T14:10:55Z</time>
      </trkpt>
      <trkpt lat="43.21029" lon="2.35903">
        <ele>117.80000305176</ele>
        <time>2021-08-08T14:11:23Z</time>
      </trkpt>
      <trkpt lat="43.2101" lon="2.35997">
        <ele>118</ele>
        <time>2021-08-08T14:13:30Z</time>
      </trkpt>
      <trkpt lat="43.20994" lon="2.36078">
        <ele>116</ele>
        <time>2021-08-08T14:14:12Z</time>
      </trkpt>
      <trkpt lat="43.20939" lon="2.36122">
        <ele>112.80000305176</ele>
        <time>2021-08-08T14:14:36Z</time>
      </trkpt>
      <trkpt lat="43.20922" lon="2.3612">
        <ele>112.59999847412</ele>
        <time>2021-08-08T14:14:42Z</time>
      </trkpt>
      <trkpt lat="43.20898" lon="2.36191">
        <ele>113</ele>
        <time>2021-08-08T14:15:05Z</time>
      </trkpt>
      <trkpt lat="43.20914" lon="2.36257">
        <ele>113</ele>
        <time>2021-08-08T14:15:24Z</time>
      </trkpt>
      <trkpt lat="43.20911" lon="2.36267">
        <ele>113.19999694824</ele>
        <time>2021-08-08T14:15:29Z</time>
      </trkpt>
      <trkpt lat="43.20936" lon="2.36317">
        <ele>113.40000152588</ele>
        <time>2021-08-08T14:15:41Z</time>
      </trkpt>
      <trkpt lat="43.20898" lon="2.36376">
        <ele>114.80000305176</ele>
        <time>2021-08-08T14:16:12Z</time>
      </trkpt>
      <trkpt lat="43.20892" lon="2.36411">
        <ele>117.19999694824</ele>
        <time>2021-08-08T14:16:29Z</time>
      </trkpt>
      <trkpt lat="43.20894" lon="2.36432">
        <ele>119</ele>
        <time>2021-08-08T14:16:38Z</time>
      </trkpt>
      <trkpt lat="43.20887" lon="2.36474">
        <ele>121.59999847412</ele>
        <time>2021-08-08T14:16:58Z</time>
      </trkpt>
      <trkpt lat="43.20877" lon="2.36516">
        <ele>124.80000305176</ele>
        <time>2021-08-08T14:17:22Z</time>
      </trkpt>
      <trkpt lat="43.20872" lon="2.36528">
        <ele>125.59999847412</ele>
        <time>2021-08-08T14:17:29Z</time>
      </trkpt>
      <trkpt lat="43.20842" lon="2.36566">
        <ele>129.19999694824</ele>
        <time>2021-08-08T14:17:54Z</time>
      </trkpt>
      <trkpt lat="43.2084" lon="2.36569">
        <ele>129.39999389648</ele>
        <time>2021-08-08T14:17:56Z</time>
      </trkpt>
      <trkpt lat="43.20817" lon="2.36597">
        <ele>131.60000610352</ele>
        <time>2021-08-08T14:18:14Z</time>
      </trkpt>
      <trkpt lat="43.20782" lon="2.36623">
        <ele>134.60000610352</ele>
        <time>2021-08-08T14:18:40Z</time>
      </trkpt>
      <trkpt lat="43.20773" lon="2.36626">
        <ele>135.60000610352</ele>
        <time>2021-08-08T14:18:46Z</time>
      </trkpt>
      <trkpt lat="43.20769" lon="2.36629">
        <ele>136</ele>
        <time>2021-08-08T14:18:49Z</time>
      </trkpt>
      <trkpt lat="43.20751" lon="2.36641">
        <ele>138</ele>
        <time>2021-08-08T14:19:03Z</time>
      </trkpt>
      <trkpt lat="43.20749" lon="2.36647">
        <ele>138.19999694824</ele>
        <time>2021-08-08T14:19:06Z</time>
      </trkpt>
      <trkpt lat="43.2075" lon="2.36653">
        <ele>138.19999694824</ele>
        <time>2021-08-08T14:19:09Z</time>
      </trkpt>
      <trkpt lat="43.20764" lon="2.36671">
        <ele>138.19999694824</ele>
        <time>2021-08-08T14:19:15Z</time>
      </trkpt>
      <trkpt lat="43.20789" lon="2.36699">
        <ele>135.19999694824</ele>
        <time>2021-08-08T14:19:29Z</time>
      </trkpt>
      <trkpt lat="43.20794" lon="2.36701">
        <ele>135</ele>
        <time>2021-08-08T14:19:30Z</time>
      </trkpt>
      <trkpt lat="43.20801" lon="2.36707">
        <ele>133.80000305176</ele>
        <time>2021-08-08T14:19:34Z</time>
      </trkpt>
      <trkpt lat="43.20803" lon="2.36709">
        <ele>133.60000610352</ele>
        <time>2021-08-08T14:19:35Z</time>
      </trkpt>
      <trkpt lat="43.20838" lon="2.36744">
        <ele>131.60000610352</ele>
        <time>2021-08-08T14:19:46Z</time>
      </trkpt>
      <trkpt lat="43.20842" lon="2.36766">
        <ele>129.19999694824</ele>
        <time>2021-08-08T14:20:00Z</time>
      </trkpt>
      <trkpt lat="43.20818" lon="2.36778">
        <ele>121.19999694824</ele>
        <time>2021-08-09T06:41:08Z</time>
      </trkpt>
      <trkpt lat="43.20818" lon="2.36778">
        <ele>121.40000152588</ele>
        <time>2021-08-09T06:41:09Z</time>
      </trkpt>
      <trkpt lat="43.20855" lon="2.36771">
        <ele>120.19999694824</ele>
        <time>2021-08-09T07:14:00Z</time>
      </trkpt>
      <trkpt lat="43.20865" lon="2.36792">
        <ele>98</ele>
        <time>2021-08-09T07:14:06Z</time>
      </trkpt>
      <trkpt lat="43.20875" lon="2.36813">
        <ele>120</ele>
        <time>2021-08-09T07:14:13Z</time>
      </trkpt>
      <trkpt lat="43.20883" lon="2.36875">
        <ele>120.40000152588</ele>
        <time>2021-08-09T07:14:29Z</time>
      </trkpt>
      <trkpt lat="43.20897" lon="2.37007">
        <ele>120</ele>
        <time>2021-08-09T07:15:36Z</time>
      </trkpt>
      <trkpt lat="43.20902" lon="2.37113">
        <ele>121.19999694824</ele>
        <time>2021-08-09T07:15:55Z</time>
      </trkpt>
      <trkpt lat="43.20891" lon="2.37281">
        <ele>121.40000152588</ele>
        <time>2021-08-09T07:16:24Z</time>
      </trkpt>
      <trkpt lat="43.2089" lon="2.37335">
        <ele>121.59999847412</ele>
        <time>2021-08-09T07:16:33Z</time>
      </trkpt>
      <trkpt lat="43.20896" lon="2.37431">
        <ele>122.40000152588</ele>
        <time>2021-08-09T07:16:49Z</time>
      </trkpt>
      <trkpt lat="43.20902" lon="2.37522">
        <ele>123.40000152588</ele>
        <time>2021-08-09T07:17:04Z</time>
      </trkpt>
      <trkpt lat="43.209" lon="2.37578">
        <ele>123.80000305176</ele>
        <time>2021-08-09T07:17:13Z</time>
      </trkpt>
      <trkpt lat="43.20902" lon="2.37694">
        <ele>124.19999694824</ele>
        <time>2021-08-09T07:17:30Z</time>
      </trkpt>
      <trkpt lat="43.209" lon="2.37745">
        <ele>124.19999694824</ele>
        <time>2021-08-09T07:17:36Z</time>
      </trkpt>
      <trkpt lat="43.2089" lon="2.37968">
        <ele>122.59999847412</ele>
        <time>2021-08-09T07:18:06Z</time>
      </trkpt>
      <trkpt lat="43.2087" lon="2.38096">
        <ele>123.19999694824</ele>
        <time>2021-08-09T07:18:29Z</time>
      </trkpt>
      <trkpt lat="43.20867" lon="2.38245">
        <ele>123.40000152588</ele>
        <time>2021-08-09T07:18:56Z</time>
      </trkpt>
      <trkpt lat="43.20901" lon="2.38253">
        <ele>123.59999847412</ele>
        <time>2021-08-09T07:19:03Z</time>
      </trkpt>
      <trkpt lat="43.20926" lon="2.38247">
        <ele>123</ele>
        <time>2021-08-09T07:19:08Z</time>
      </trkpt>
      <trkpt lat="43.20968" lon="2.38319">
        <ele>122.19999694824</ele>
        <time>2021-08-09T07:19:26Z</time>
      </trkpt>
      <trkpt lat="43.20994" lon="2.38457">
        <ele>122</ele>
        <time>2021-08-09T07:19:45Z</time>
      </trkpt>
      <trkpt lat="43.21011" lon="2.38572">
        <ele>122.40000152588</ele>
        <time>2021-08-09T07:20:02Z</time>
      </trkpt>
      <trkpt lat="43.21024" lon="2.38641">
        <ele>122.59999847412</ele>
        <time>2021-08-09T07:20:12Z</time>
      </trkpt>
      <trkpt lat="43.21023" lon="2.38735">
        <ele>123</ele>
        <time>2021-08-09T07:20:26Z</time>
      </trkpt>
      <trkpt lat="43.21022" lon="2.38741">
        <ele>123</ele>
        <time>2021-08-09T07:20:27Z</time>
      </trkpt>
      <trkpt lat="43.21045" lon="2.38876">
        <ele>124</ele>
        <time>2021-08-09T07:20:53Z</time>
      </trkpt>
      <trkpt lat="43.21052" lon="2.3894">
        <ele>127.19999694824</ele>
        <time>2021-08-09T07:21:16Z</time>
      </trkpt>
      <trkpt lat="43.21055" lon="2.38967">
        <ele>129.19999694824</ele>
        <time>2021-08-09T07:21:29Z</time>
      </trkpt>
      <trkpt lat="43.21057" lon="2.38997">
        <ele>131.39999389648</ele>
        <time>2021-08-09T07:21:42Z</time>
      </trkpt>
      <trkpt lat="43.21059" lon="2.39052">
        <ele>134.60000610352</ele>
        <time>2021-08-09T07:22:05Z</time>
      </trkpt>
      <trkpt lat="43.2107" lon="2.39141">
        <ele>137.80000305176</ele>
        <time>2021-08-09T07:22:33Z</time>
      </trkpt>
      <trkpt lat="43.21083" lon="2.39192">
        <ele>137.80000305176</ele>
        <time>2021-08-09T07:22:41Z</time>
      </trkpt>
      <trkpt lat="43.21115" lon="2.39319">
        <ele>136.39999389648</ele>
        <time>2021-08-09T07:22:59Z</time>
      </trkpt>
      <trkpt lat="43.21114" lon="2.39423">
        <ele>135.19999694824</ele>
        <time>2021-08-09T07:23:12Z</time>
      </trkpt>
      <trkpt lat="43.21099" lon="2.39632">
        <ele>133.60000610352</ele>
        <time>2021-08-09T07:23:36Z</time>
      </trkpt>
      <trkpt lat="43.21099" lon="2.39657">
        <ele>133.39999389648</ele>
        <time>2021-08-09T07:23:39Z</time>
      </trkpt>
      <trkpt lat="43.21103" lon="2.39756">
        <ele>133</ele>
        <time>2021-08-09T07:23:51Z</time>
      </trkpt>
      <trkpt lat="43.21093" lon="2.39884">
        <ele>132</ele>
        <time>2021-08-09T07:24:05Z</time>
      </trkpt>
      <trkpt lat="43.21085" lon="2.39945">
        <ele>131.19999694824</ele>
        <time>2021-08-09T07:24:11Z</time>
      </trkpt>
      <trkpt lat="43.21063" lon="2.4009">
        <ele>128.19999694824</ele>
        <time>2021-08-09T07:24:29Z</time>
      </trkpt>
      <trkpt lat="43.21056" lon="2.40159">
        <ele>127.59999847412</ele>
        <time>2021-08-09T07:24:38Z</time>
      </trkpt>
      <trkpt lat="43.21015" lon="2.4046">
        <ele>127.59999847412</ele>
        <time>2021-08-09T07:25:19Z</time>
      </trkpt>
      <trkpt lat="43.21082" lon="2.40581">
        <ele>128</ele>
        <time>2021-08-09T07:25:42Z</time>
      </trkpt>
      <trkpt lat="43.21102" lon="2.40593">
        <ele>128.19999694824</ele>
        <time>2021-08-09T07:25:47Z</time>
      </trkpt>
      <trkpt lat="43.21151" lon="2.40688">
        <ele>128.80000305176</ele>
        <time>2021-08-09T07:26:02Z</time>
      </trkpt>
      <trkpt lat="43.21166" lon="2.40756">
        <ele>128.19999694824</ele>
        <time>2021-08-09T07:26:09Z</time>
      </trkpt>
      <trkpt lat="43.21173" lon="2.40777">
        <ele>127.40000152588</ele>
        <time>2021-08-09T07:26:13Z</time>
      </trkpt>
      <trkpt lat="43.21176" lon="2.40784">
        <ele>123.80000305176</ele>
        <time>2021-08-09T07:26:21Z</time>
      </trkpt>
      <trkpt lat="43.2117" lon="2.40763">
        <ele>122.19999694824</ele>
        <time>2021-08-09T07:29:54Z</time>
      </trkpt>
      <trkpt lat="43.21169" lon="2.40761">
        <ele>122.40000152588</ele>
        <time>2021-08-09T07:29:55Z</time>
      </trkpt>
      <trkpt lat="43.21143" lon="2.40671">
        <ele>124.59999847412</ele>
        <time>2021-08-09T07:30:21Z</time>
      </trkpt>
      <trkpt lat="43.21136" lon="2.40629">
        <ele>126</ele>
        <time>2021-08-09T07:30:33Z</time>
      </trkpt>
      <trkpt lat="43.21063" lon="2.40551">
        <ele>128.39999389648</ele>
        <time>2021-08-09T07:31:04Z</time>
      </trkpt>
      <trkpt lat="43.20989" lon="2.40597">
        <ele>126.59999847412</ele>
        <time>2021-08-09T07:31:25Z</time>
      </trkpt>
      <trkpt lat="43.20987" lon="2.40631">
        <ele>125.40000152588</ele>
        <time>2021-08-09T07:31:29Z</time>
      </trkpt>
      <trkpt lat="43.20987" lon="2.4069">
        <ele>124.40000152588</ele>
        <time>2021-08-09T07:31:35Z</time>
      </trkpt>
      <trkpt lat="43.20989" lon="2.40872">
        <ele>121</ele>
        <time>2021-08-09T07:31:51Z</time>
      </trkpt>
      <trkpt lat="43.20992" lon="2.40943">
        <ele>119.19999694824</ele>
        <time>2021-08-09T07:31:57Z</time>
      </trkpt>
      <trkpt lat="43.20992" lon="2.40954">
        <ele>119</ele>
        <time>2021-08-09T07:31:58Z</time>
      </trkpt>
      <trkpt lat="43.20986" lon="2.41072">
        <ele>117.59999847412</ele>
        <time>2021-08-09T07:32:09Z</time>
      </trkpt>
      <trkpt lat="43.20988" lon="2.41152">
        <ele>116</ele>
        <time>2021-08-09T07:32:15Z</time>
      </trkpt>
      <trkpt lat="43.2098" lon="2.41219">
        <ele>113.19999694824</ele>
        <time>2021-08-09T07:32:20Z</time>
      </trkpt>
      <trkpt lat="43.20967" lon="2.41339">
        <ele>110.19999694824</ele>
        <time>2021-08-09T07:32:29Z</time>
      </trkpt>
      <trkpt lat="43.20965" lon="2.41353">
        <ele>110.19999694824</ele>
        <time>2021-08-09T07:32:30Z</time>
      </trkpt>
      <trkpt lat="43.20955" lon="2.41432">
        <ele>107.19999694824</ele>
        <time>2021-08-09T07:32:36Z</time>
      </trkpt>
      <trkpt lat="43.20955" lon="2.41443">
        <ele>107</ele>
        <time>2021-08-09T07:32:37Z</time>
      </trkpt>
      <trkpt lat="43.20955" lon="2.41454">
        <ele>106.80000305176</ele>
        <time>2021-08-09T07:32:38Z</time>
      </trkpt>
      <trkpt lat="43.20969" lon="2.41494">
        <ele>102.80000305176</ele>
        <time>2021-08-09T07:32:43Z</time>
      </trkpt>
      <trkpt lat="43.20984" lon="2.41518">
        <ele>99.800003051758</ele>
        <time>2021-08-09T07:32:47Z</time>
      </trkpt>
      <trkpt lat="43.20988" lon="2.4153">
        <ele>98.800003051758</ele>
        <time>2021-08-09T07:32:49Z</time>
      </trkpt>
      <trkpt lat="43.20989" lon="2.41536">
        <ele>98.599998474121</ele>
        <time>2021-08-09T07:32:50Z</time>
      </trkpt>
      <trkpt lat="43.20994" lon="2.4157">
        <ele>98.199996948242</ele>
        <time>2021-08-09T07:32:55Z</time>
      </trkpt>
      <trkpt lat="43.20995" lon="2.41624">
        <ele>98</ele>
        <time>2021-08-09T07:33:03Z</time>
      </trkpt>
      <trkpt lat="43.20992" lon="2.41707">
        <ele>96.599998474121</ele>
        <time>2021-08-09T07:33:15Z</time>
      </trkpt>
      <trkpt lat="43.20992" lon="2.41956">
        <ele>92.599998474121</ele>
        <time>2021-08-09T07:33:39Z</time>
      </trkpt>
      <trkpt lat="43.20992" lon="2.41966">
        <ele>92.400001525879</ele>
        <time>2021-08-09T07:33:40Z</time>
      </trkpt>
      <trkpt lat="43.20963" lon="2.42011">
        <ele>91.400001525879</ele>
        <time>2021-08-09T07:33:48Z</time>
      </trkpt>
      <trkpt lat="43.20888" lon="2.42017">
        <ele>94</ele>
        <time>2021-08-09T07:34:15Z</time>
      </trkpt>
      <trkpt lat="43.20842" lon="2.42036">
        <ele>97</ele>
        <time>2021-08-09T07:34:39Z</time>
      </trkpt>
      <trkpt lat="43.20806" lon="2.42049">
        <ele>98.400001525879</ele>
        <time>2021-08-09T07:34:56Z</time>
      </trkpt>
      <trkpt lat="43.20735" lon="2.42068">
        <ele>101.40000152588</ele>
        <time>2021-08-09T07:35:24Z</time>
      </trkpt>
      <trkpt lat="43.20733" lon="2.42069">
        <ele>101.59999847412</ele>
        <time>2021-08-09T07:35:25Z</time>
      </trkpt>
      <trkpt lat="43.20725" lon="2.42091">
        <ele>102.40000152588</ele>
        <time>2021-08-09T07:35:32Z</time>
      </trkpt>
      <trkpt lat="43.20711" lon="2.42158">
        <ele>104.80000305176</ele>
        <time>2021-08-09T07:35:50Z</time>
      </trkpt>
      <trkpt lat="43.20703" lon="2.42185">
        <ele>104.80000305176</ele>
        <time>2021-08-09T07:35:55Z</time>
      </trkpt>
      <trkpt lat="43.20673" lon="2.42262">
        <ele>105</ele>
        <time>2021-08-09T07:36:12Z</time>
      </trkpt>
      <trkpt lat="43.2065" lon="2.42256">
        <ele>104.80000305176</ele>
        <time>2021-08-09T07:36:18Z</time>
      </trkpt>
      <trkpt lat="43.20637" lon="2.42303">
        <ele>105</ele>
        <time>2021-08-09T07:36:29Z</time>
      </trkpt>
      <trkpt lat="43.20625" lon="2.42386">
        <ele>104.19999694824</ele>
        <time>2021-08-09T07:36:43Z</time>
      </trkpt>
      <trkpt lat="43.20624" lon="2.42415">
        <ele>104.19999694824</ele>
        <time>2021-08-09T07:36:47Z</time>
      </trkpt>
      <trkpt lat="43.2062" lon="2.42491">
        <ele>103.40000152588</ele>
        <time>2021-08-09T07:36:57Z</time>
      </trkpt>
      <trkpt lat="43.20611" lon="2.42509">
        <ele>103</ele>
        <time>2021-08-09T07:37:01Z</time>
      </trkpt>
      <trkpt lat="43.20601" lon="2.42501">
        <ele>102.80000305176</ele>
        <time>2021-08-09T07:37:18Z</time>
      </trkpt>
      <trkpt lat="43.20582" lon="2.42494">
        <ele>102.59999847412</ele>
        <time>2021-08-09T07:37:24Z</time>
      </trkpt>
      <trkpt lat="43.20577" lon="2.42542">
        <ele>103.80000305176</ele>
        <time>2021-08-09T07:37:34Z</time>
      </trkpt>
      <trkpt lat="43.20581" lon="2.42548">
        <ele>104</ele>
        <time>2021-08-09T07:37:35Z</time>
      </trkpt>
      <trkpt lat="43.206" lon="2.42633">
        <ele>102.80000305176</ele>
        <time>2021-08-09T07:37:46Z</time>
      </trkpt>
      <trkpt lat="43.20622" lon="2.42734">
        <ele>101.80000305176</ele>
        <time>2021-08-09T07:37:56Z</time>
      </trkpt>
      <trkpt lat="43.20629" lon="2.4283">
        <ele>101</ele>
        <time>2021-08-09T07:38:05Z</time>
      </trkpt>
      <trkpt lat="43.20629" lon="2.42871">
        <ele>100.19999694824</ele>
        <time>2021-08-09T07:38:09Z</time>
      </trkpt>
      <trkpt lat="43.20628" lon="2.4288">
        <ele>100</ele>
        <time>2021-08-09T07:38:10Z</time>
      </trkpt>
      <trkpt lat="43.2062" lon="2.43008">
        <ele>98.599998474121</ele>
        <time>2021-08-09T07:38:24Z</time>
      </trkpt>
      <trkpt lat="43.20599" lon="2.431">
        <ele>96</ele>
        <time>2021-08-09T07:38:37Z</time>
      </trkpt>
      <trkpt lat="43.206" lon="2.43106">
        <ele>95.800003051758</ele>
        <time>2021-08-09T07:38:38Z</time>
      </trkpt>
      <trkpt lat="43.20596" lon="2.43148">
        <ele>94</ele>
        <time>2021-08-09T07:38:44Z</time>
      </trkpt>
      <trkpt lat="43.20507" lon="2.43089">
        <ele>92.800003051758</ele>
        <time>2021-08-09T07:39:05Z</time>
      </trkpt>
      <trkpt lat="43.20566" lon="2.43151">
        <ele>93.199996948242</ele>
        <time>2021-08-09T07:39:36Z</time>
      </trkpt>
      <trkpt lat="43.20581" lon="2.43153">
        <ele>93.199996948242</ele>
        <time>2021-08-09T07:39:39Z</time>
      </trkpt>
      <trkpt lat="43.20594" lon="2.43153">
        <ele>92.800003051758</ele>
        <time>2021-08-09T07:39:42Z</time>
      </trkpt>
      <trkpt lat="43.20606" lon="2.43203">
        <ele>91</ele>
        <time>2021-08-09T07:40:48Z</time>
      </trkpt>
      <trkpt lat="43.20607" lon="2.43198">
        <ele>91</ele>
        <time>2021-08-09T07:40:50Z</time>
      </trkpt>
      <trkpt lat="43.2061" lon="2.43185">
        <ele>91</ele>
        <time>2021-08-09T07:40:55Z</time>
      </trkpt>
      <trkpt lat="43.20604" lon="2.43157">
        <ele>90.599998474121</ele>
        <time>2021-08-09T07:41:15Z</time>
      </trkpt>
      <trkpt lat="43.20608" lon="2.43258">
        <ele>90.400001525879</ele>
        <time>2021-08-09T07:41:39Z</time>
      </trkpt>
      <trkpt lat="43.20602" lon="2.43271">
        <ele>90.800003051758</ele>
        <time>2021-08-09T07:41:42Z</time>
      </trkpt>
      <trkpt lat="43.206" lon="2.43465">
        <ele>91.400001525879</ele>
        <time>2021-08-09T07:42:14Z</time>
      </trkpt>
      <trkpt lat="43.20604" lon="2.43531">
        <ele>91</ele>
        <time>2021-08-09T07:42:24Z</time>
      </trkpt>
      <trkpt lat="43.20632" lon="2.43578">
        <ele>89.599998474121</ele>
        <time>2021-08-09T07:42:34Z</time>
      </trkpt>
      <trkpt lat="43.20734" lon="2.43784">
        <ele>87.400001525879</ele>
        <time>2021-08-09T07:43:02Z</time>
      </trkpt>
      <trkpt lat="43.20759" lon="2.43832">
        <ele>87</ele>
        <time>2021-08-09T07:43:09Z</time>
      </trkpt>
      <trkpt lat="43.20816" lon="2.4394">
        <ele>86.199996948242</ele>
        <time>2021-08-09T07:43:26Z</time>
      </trkpt>
      <trkpt lat="43.20836" lon="2.43984">
        <ele>86.199996948242</ele>
        <time>2021-08-09T07:43:33Z</time>
      </trkpt>
      <trkpt lat="43.20874" lon="2.44031">
        <ele>86.599998474121</ele>
        <time>2021-08-09T07:43:45Z</time>
      </trkpt>
      <trkpt lat="43.20923" lon="2.44073">
        <ele>77.599998474121</ele>
        <time>2021-08-09T07:44:01Z</time>
      </trkpt>
      <trkpt lat="43.20941" lon="2.44089">
        <ele>88.199996948242</ele>
        <time>2021-08-09T07:44:06Z</time>
      </trkpt>
      <trkpt lat="43.2092" lon="2.44187">
        <ele>86.199996948242</ele>
        <time>2021-08-09T07:44:20Z</time>
      </trkpt>
      <trkpt lat="43.20916" lon="2.44201">
        <ele>86.199996948242</ele>
        <time>2021-08-09T07:44:22Z</time>
      </trkpt>
      <trkpt lat="43.20976" lon="2.44304">
        <ele>87.400001525879</ele>
        <time>2021-08-09T07:44:50Z</time>
      </trkpt>
      <trkpt lat="43.20978" lon="2.44306">
        <ele>87.400001525879</ele>
        <time>2021-08-09T07:44:51Z</time>
      </trkpt>
      <trkpt lat="43.21008" lon="2.4431">
        <ele>90.199996948242</ele>
        <time>2021-08-09T07:45:07Z</time>
      </trkpt>
      <trkpt lat="43.21025" lon="2.44322">
        <ele>91.400001525879</ele>
        <time>2021-08-09T07:45:20Z</time>
      </trkpt>
      <trkpt lat="43.2103" lon="2.44357">
        <ele>92.800003051758</ele>
        <time>2021-08-09T07:45:34Z</time>
      </trkpt>
      <trkpt lat="43.21097" lon="2.44371">
        <ele>95</ele>
        <time>2021-08-09T07:46:02Z</time>
      </trkpt>
      <trkpt lat="43.21105" lon="2.44446">
        <ele>97.199996948242</ele>
        <time>2021-08-09T07:46:21Z</time>
      </trkpt>
      <trkpt lat="43.21085" lon="2.44635">
        <ele>99</ele>
        <time>2021-08-09T07:46:54Z</time>
      </trkpt>
      <trkpt lat="43.21088" lon="2.44654">
        <ele>99</ele>
        <time>2021-08-09T07:46:57Z</time>
      </trkpt>
      <trkpt lat="43.2109" lon="2.44667">
        <ele>99.199996948242</ele>
        <time>2021-08-09T07:46:59Z</time>
      </trkpt>
      <trkpt lat="43.21099" lon="2.44741">
        <ele>99.599998474121</ele>
        <time>2021-08-09T07:47:11Z</time>
      </trkpt>
      <trkpt lat="43.21064" lon="2.44974">
        <ele>100.59999847412</ele>
        <time>2021-08-09T07:47:47Z</time>
      </trkpt>
      <trkpt lat="43.21063" lon="2.44988">
        <ele>100.59999847412</ele>
        <time>2021-08-09T07:47:49Z</time>
      </trkpt>
      <trkpt lat="43.21068" lon="2.45047">
        <ele>100.59999847412</ele>
        <time>2021-08-09T07:47:57Z</time>
      </trkpt>
      <trkpt lat="43.21088" lon="2.45348">
        <ele>102.40000152588</ele>
        <time>2021-08-09T07:48:50Z</time>
      </trkpt>
      <trkpt lat="43.21128" lon="2.45408">
        <ele>103.80000305176</ele>
        <time>2021-08-09T07:49:10Z</time>
      </trkpt>
      <trkpt lat="43.21148" lon="2.45445">
        <ele>104.59999847412</ele>
        <time>2021-08-09T07:49:19Z</time>
      </trkpt>
      <trkpt lat="43.21171" lon="2.45661">
        <ele>105</ele>
        <time>2021-08-09T07:49:54Z</time>
      </trkpt>
      <trkpt lat="43.21204" lon="2.45932">
        <ele>105.40000152588</ele>
        <time>2021-08-09T07:50:36Z</time>
      </trkpt>
      <trkpt lat="43.21212" lon="2.46018">
        <ele>106.59999847412</ele>
        <time>2021-08-09T07:50:51Z</time>
      </trkpt>
      <trkpt lat="43.21215" lon="2.46045">
        <ele>106.80000305176</ele>
        <time>2021-08-09T07:50:56Z</time>
      </trkpt>
      <trkpt lat="43.21223" lon="2.461">
        <ele>107.59999847412</ele>
        <time>2021-08-09T07:51:07Z</time>
      </trkpt>
      <trkpt lat="43.2128" lon="2.46327">
        <ele>109.40000152588</ele>
        <time>2021-08-09T07:51:44Z</time>
      </trkpt>
      <trkpt lat="43.21291" lon="2.46443">
        <ele>110</ele>
        <time>2021-08-09T07:52:03Z</time>
      </trkpt>
      <trkpt lat="43.21339" lon="2.46654">
        <ele>114.59999847412</ele>
        <time>2021-08-09T07:52:50Z</time>
      </trkpt>
      <trkpt lat="43.21341" lon="2.46663">
        <ele>114.80000305176</ele>
        <time>2021-08-09T07:52:53Z</time>
      </trkpt>
      <trkpt lat="43.21359" lon="2.46753">
        <ele>117.80000305176</ele>
        <time>2021-08-09T07:53:22Z</time>
      </trkpt>
      <trkpt lat="43.2136" lon="2.46756">
        <ele>117.80000305176</ele>
        <time>2021-08-09T07:53:23Z</time>
      </trkpt>
      <trkpt lat="43.21366" lon="2.46793">
        <ele>119.19999694824</ele>
        <time>2021-08-09T07:53:34Z</time>
      </trkpt>
      <trkpt lat="43.21333" lon="2.46984">
        <ele>122.19999694824</ele>
        <time>2021-08-09T07:54:17Z</time>
      </trkpt>
      <trkpt lat="43.21298" lon="2.47115">
        <ele>122.59999847412</ele>
        <time>2021-08-09T07:54:39Z</time>
      </trkpt>
      <trkpt lat="43.21421" lon="2.47251">
        <ele>123.59999847412</ele>
        <time>2021-08-09T07:55:18Z</time>
      </trkpt>
      <trkpt lat="43.21486" lon="2.47253">
        <ele>123.80000305176</ele>
        <time>2021-08-09T07:55:32Z</time>
      </trkpt>
      <trkpt lat="43.21495" lon="2.47255">
        <ele>123.80000305176</ele>
        <time>2021-08-09T07:55:34Z</time>
      </trkpt>
      <trkpt lat="43.21568" lon="2.47277">
        <ele>122.59999847412</ele>
        <time>2021-08-09T07:55:49Z</time>
      </trkpt>
      <trkpt lat="43.21596" lon="2.47276">
        <ele>122.19999694824</ele>
        <time>2021-08-09T07:55:55Z</time>
      </trkpt>
      <trkpt lat="43.21681" lon="2.47382">
        <ele>119.40000152588</ele>
        <time>2021-08-09T07:56:22Z</time>
      </trkpt>
      <trkpt lat="43.2168" lon="2.47491">
        <ele>121.59999847412</ele>
        <time>2021-08-09T07:56:45Z</time>
      </trkpt>
      <trkpt lat="43.21705" lon="2.47679">
        <ele>123.40000152588</ele>
        <time>2021-08-09T07:57:21Z</time>
      </trkpt>
      <trkpt lat="43.21704" lon="2.47794">
        <ele>124.19999694824</ele>
        <time>2021-08-09T07:57:40Z</time>
      </trkpt>
      <trkpt lat="43.21696" lon="2.47863">
        <ele>124.40000152588</ele>
        <time>2021-08-09T07:57:54Z</time>
      </trkpt>
      <trkpt lat="43.21728" lon="2.47884">
        <ele>123</ele>
        <time>2021-08-09T07:58:07Z</time>
      </trkpt>
      <trkpt lat="43.2174" lon="2.47886">
        <ele>123.19999694824</ele>
        <time>2021-08-09T07:58:10Z</time>
      </trkpt>
      <trkpt lat="43.21756" lon="2.47881">
        <ele>122.59999847412</ele>
        <time>2021-08-09T07:59:40Z</time>
      </trkpt>
      <trkpt lat="43.2173" lon="2.47871">
        <ele>122.80000305176</ele>
        <time>2021-08-09T07:59:49Z</time>
      </trkpt>
      <trkpt lat="43.21703" lon="2.47856">
        <ele>123.19999694824</ele>
        <time>2021-08-09T08:00:01Z</time>
      </trkpt>
      <trkpt lat="43.21686" lon="2.47908">
        <ele>123.19999694824</ele>
        <time>2021-08-09T08:00:11Z</time>
      </trkpt>
      <trkpt lat="43.21645" lon="2.48061">
        <ele>121.19999694824</ele>
        <time>2021-08-09T08:00:26Z</time>
      </trkpt>
      <trkpt lat="43.21633" lon="2.48099">
        <ele>120.40000152588</ele>
        <time>2021-08-09T08:00:29Z</time>
      </trkpt>
      <trkpt lat="43.21606" lon="2.48196">
        <ele>116.80000305176</ele>
        <time>2021-08-09T08:00:36Z</time>
      </trkpt>
      <trkpt lat="43.21566" lon="2.48391">
        <ele>111.59999847412</ele>
        <time>2021-08-09T08:00:49Z</time>
      </trkpt>
      <trkpt lat="43.21545" lon="2.48484">
        <ele>107.59999847412</ele>
        <time>2021-08-09T08:00:56Z</time>
      </trkpt>
      <trkpt lat="43.21538" lon="2.48544">
        <ele>106.80000305176</ele>
        <time>2021-08-09T08:01:01Z</time>
      </trkpt>
      <trkpt lat="43.21512" lon="2.48706">
        <ele>103.80000305176</ele>
        <time>2021-08-09T08:01:16Z</time>
      </trkpt>
      <trkpt lat="43.21497" lon="2.48784">
        <ele>102.19999694824</ele>
        <time>2021-08-09T08:01:24Z</time>
      </trkpt>
      <trkpt lat="43.2146" lon="2.48975">
        <ele>100.80000305176</ele>
        <time>2021-08-09T08:01:48Z</time>
      </trkpt>
      <trkpt lat="43.21462" lon="2.49063">
        <ele>100.59999847412</ele>
        <time>2021-08-09T08:02:01Z</time>
      </trkpt>
      <trkpt lat="43.21471" lon="2.49185">
        <ele>101.19999694824</ele>
        <time>2021-08-09T08:02:21Z</time>
      </trkpt>
      <trkpt lat="43.21467" lon="2.49277">
        <ele>101.80000305176</ele>
        <time>2021-08-09T08:02:37Z</time>
      </trkpt>
      <trkpt lat="43.21481" lon="2.49411">
        <ele>104.19999694824</ele>
        <time>2021-08-09T08:03:04Z</time>
      </trkpt>
      <trkpt lat="43.21498" lon="2.49461">
        <ele>106.19999694824</ele>
        <time>2021-08-09T08:03:19Z</time>
      </trkpt>
      <trkpt lat="43.2152" lon="2.49504">
        <ele>106.80000305176</ele>
        <time>2021-08-09T08:06:17Z</time>
      </trkpt>
      <trkpt lat="43.21604" lon="2.49677">
        <ele>105.40000152588</ele>
        <time>2021-08-09T08:06:45Z</time>
      </trkpt>
      <trkpt lat="43.21627" lon="2.49755">
        <ele>103.80000305176</ele>
        <time>2021-08-09T08:06:53Z</time>
      </trkpt>
      <trkpt lat="43.21629" lon="2.49765">
        <ele>103.80000305176</ele>
        <time>2021-08-09T08:06:54Z</time>
      </trkpt>
      <trkpt lat="43.2165" lon="2.49844">
        <ele>102</ele>
        <time>2021-08-09T08:07:02Z</time>
      </trkpt>
      <trkpt lat="43.21681" lon="2.49953">
        <ele>98.400001525879</ele>
        <time>2021-08-09T08:07:14Z</time>
      </trkpt>
      <trkpt lat="43.21684" lon="2.49962">
        <ele>98.199996948242</ele>
        <time>2021-08-09T08:07:15Z</time>
      </trkpt>
      <trkpt lat="43.21735" lon="2.50071">
        <ele>96.800003051758</ele>
        <time>2021-08-09T08:07:28Z</time>
      </trkpt>
      <trkpt lat="43.2182" lon="2.50316">
        <ele>93.400001525879</ele>
        <time>2021-08-09T08:07:57Z</time>
      </trkpt>
      <trkpt lat="43.21832" lon="2.5043">
        <ele>91</ele>
        <time>2021-08-09T08:08:09Z</time>
      </trkpt>
      <trkpt lat="43.21848" lon="2.50626">
        <ele>87.599998474121</ele>
        <time>2021-08-09T08:08:27Z</time>
      </trkpt>
      <trkpt lat="43.21849" lon="2.50637">
        <ele>87.400001525879</ele>
        <time>2021-08-09T08:08:28Z</time>
      </trkpt>
      <trkpt lat="43.21861" lon="2.50688">
        <ele>85.800003051758</ele>
        <time>2021-08-09T08:08:33Z</time>
      </trkpt>
      <trkpt lat="43.21876" lon="2.50722">
        <ele>84.400001525879</ele>
        <time>2021-08-09T08:08:38Z</time>
      </trkpt>
      <trkpt lat="43.21871" lon="2.50787">
        <ele>81</ele>
        <time>2021-08-09T08:08:59Z</time>
      </trkpt>
      <trkpt lat="43.21866" lon="2.50808">
        <ele>80.800003051758</ele>
        <time>2021-08-09T08:09:04Z</time>
      </trkpt>
      <trkpt lat="43.21865" lon="2.50814">
        <ele>80.800003051758</ele>
        <time>2021-08-09T08:09:05Z</time>
      </trkpt>
      <trkpt lat="43.21864" lon="2.50854">
        <ele>80.599998474121</ele>
        <time>2021-08-09T08:09:12Z</time>
      </trkpt>
      <trkpt lat="43.21925" lon="2.50929">
        <ele>79</ele>
        <time>2021-08-09T08:09:48Z</time>
      </trkpt>
      <trkpt lat="43.21953" lon="2.50999">
        <ele>78.400001525879</ele>
        <time>2021-08-09T08:10:07Z</time>
      </trkpt>
      <trkpt lat="43.21952" lon="2.51002">
        <ele>78.400001525879</ele>
        <time>2021-08-09T08:10:08Z</time>
      </trkpt>
      <trkpt lat="43.2193" lon="2.51031">
        <ele>78</ele>
        <time>2021-08-09T08:10:18Z</time>
      </trkpt>
      <trkpt lat="43.21918" lon="2.51074">
        <ele>77.400001525879</ele>
        <time>2021-08-09T08:11:33Z</time>
      </trkpt>
      <trkpt lat="43.21936" lon="2.5111">
        <ele>77.199996948242</ele>
        <time>2021-08-09T08:11:41Z</time>
      </trkpt>
      <trkpt lat="43.21945" lon="2.51131">
        <ele>77.599998474121</ele>
        <time>2021-08-09T08:11:46Z</time>
      </trkpt>
      <trkpt lat="43.21974" lon="2.51207">
        <ele>77.400001525879</ele>
        <time>2021-08-09T08:12:00Z</time>
      </trkpt>
      <trkpt lat="43.21991" lon="2.51244">
        <ele>77.400001525879</ele>
        <time>2021-08-09T08:12:07Z</time>
      </trkpt>
      <trkpt lat="43.22018" lon="2.51372">
        <ele>77.400001525879</ele>
        <time>2021-08-09T08:12:26Z</time>
      </trkpt>
      <trkpt lat="43.22031" lon="2.51439">
        <ele>77.199996948242</ele>
        <time>2021-08-09T08:12:35Z</time>
      </trkpt>
      <trkpt lat="43.22043" lon="2.51474">
        <ele>77.199996948242</ele>
        <time>2021-08-09T08:12:40Z</time>
      </trkpt>
      <trkpt lat="43.22112" lon="2.51663">
        <ele>75</ele>
        <time>2021-08-09T08:13:09Z</time>
      </trkpt>
      <trkpt lat="43.22178" lon="2.51786">
        <ele>74.199996948242</ele>
        <time>2021-08-09T08:13:28Z</time>
      </trkpt>
      <trkpt lat="43.22276" lon="2.52039">
        <ele>72.199996948242</ele>
        <time>2021-08-09T08:14:03Z</time>
      </trkpt>
      <trkpt lat="43.22286" lon="2.5208">
        <ele>72.199996948242</ele>
        <time>2021-08-09T08:14:08Z</time>
      </trkpt>
      <trkpt lat="43.223" lon="2.52149">
        <ele>71.800003051758</ele>
        <time>2021-08-09T08:14:17Z</time>
      </trkpt>
      <trkpt lat="43.22334" lon="2.52249">
        <ele>71</ele>
        <time>2021-08-09T08:14:31Z</time>
      </trkpt>
      <trkpt lat="43.22474" lon="2.52493">
        <ele>67.400001525879</ele>
        <time>2021-08-09T08:15:05Z</time>
      </trkpt>
      <trkpt lat="43.22491" lon="2.52521">
        <ele>67.199996948242</ele>
        <time>2021-08-09T08:15:09Z</time>
      </trkpt>
      <trkpt lat="43.22605" lon="2.52719">
        <ele>64.199996948242</ele>
        <time>2021-08-09T08:15:38Z</time>
      </trkpt>
      <trkpt lat="43.22937" lon="2.5331">
        <ele>63.400001525879</ele>
        <time>2021-08-09T08:17:19Z</time>
      </trkpt>
      <trkpt lat="43.23003" lon="2.53354">
        <ele>62.599998474121</ele>
        <time>2021-08-09T08:17:34Z</time>
      </trkpt>
      <trkpt lat="43.23016" lon="2.53365">
        <ele>62</ele>
        <time>2021-08-09T08:17:37Z</time>
      </trkpt>
      <trkpt lat="43.23028" lon="2.53379">
        <ele>61.799999237061</ele>
        <time>2021-08-09T08:17:40Z</time>
      </trkpt>
      <trkpt lat="43.23026" lon="2.53415">
        <ele>60.200000762939</ele>
        <time>2021-08-09T08:17:47Z</time>
      </trkpt>
      <trkpt lat="43.2299" lon="2.53518">
        <ele>59.400001525879</ele>
        <time>2021-08-09T08:18:11Z</time>
      </trkpt>
      <trkpt lat="43.22944" lon="2.53654">
        <ele>60.200000762939</ele>
        <time>2021-08-09T08:18:37Z</time>
      </trkpt>
      <trkpt lat="43.22907" lon="2.53768">
        <ele>60</ele>
        <time>2021-08-09T08:18:57Z</time>
      </trkpt>
      <trkpt lat="43.22898" lon="2.53814">
        <ele>60.200000762939</ele>
        <time>2021-08-09T08:19:04Z</time>
      </trkpt>
      <trkpt lat="43.22893" lon="2.53839">
        <ele>60.200000762939</ele>
        <time>2021-08-09T08:19:08Z</time>
      </trkpt>
      <trkpt lat="43.22796" lon="2.54028">
        <ele>60.599998474121</ele>
        <time>2021-08-09T08:19:50Z</time>
      </trkpt>
      <trkpt lat="43.22818" lon="2.54985">
        <ele>58.200000762939</ele>
        <time>2021-08-09T08:21:53Z</time>
      </trkpt>
      <trkpt lat="43.22845" lon="2.55389">
        <ele>58.200000762939</ele>
        <time>2021-08-09T08:22:46Z</time>
      </trkpt>
      <trkpt lat="43.22849" lon="2.55506">
        <ele>58</ele>
        <time>2021-08-09T08:23:02Z</time>
      </trkpt>
      <trkpt lat="43.22907" lon="2.56403">
        <ele>57.200000762939</ele>
        <time>2021-08-09T08:25:04Z</time>
      </trkpt>
      <trkpt lat="43.22944" lon="2.56914">
        <ele>56</ele>
        <time>2021-08-09T08:29:34Z</time>
      </trkpt>
      <trkpt lat="43.22946" lon="2.57006">
        <ele>56.799999237061</ele>
        <time>2021-08-09T08:29:58Z</time>
      </trkpt>
      <trkpt lat="43.22946" lon="2.57017">
        <ele>56.799999237061</ele>
        <time>2021-08-09T08:30:00Z</time>
      </trkpt>
      <trkpt lat="43.22988" lon="2.57691">
        <ele>58</ele>
        <time>2021-08-09T08:31:35Z</time>
      </trkpt>
      <trkpt lat="43.2299" lon="2.5775">
        <ele>57.799999237061</ele>
        <time>2021-08-09T08:31:43Z</time>
      </trkpt>
      <trkpt lat="43.23041" lon="2.58384">
        <ele>57.200000762939</ele>
        <time>2021-08-09T08:33:09Z</time>
      </trkpt>
      <trkpt lat="43.23042" lon="2.58451">
        <ele>57.400001525879</ele>
        <time>2021-08-09T08:33:18Z</time>
      </trkpt>
      <trkpt lat="43.23064" lon="2.58745">
        <ele>57.400001525879</ele>
        <time>2021-08-09T08:33:56Z</time>
      </trkpt>
      <trkpt lat="43.23073" lon="2.58805">
        <ele>57.200000762939</ele>
        <time>2021-08-09T08:34:05Z</time>
      </trkpt>
      <trkpt lat="43.23085" lon="2.58898">
        <ele>57.599998474121</ele>
        <time>2021-08-09T08:34:18Z</time>
      </trkpt>
      <trkpt lat="43.23092" lon="2.58996">
        <ele>57.599998474121</ele>
        <time>2021-08-09T08:34:31Z</time>
      </trkpt>
      <trkpt lat="43.23103" lon="2.5916">
        <ele>58</ele>
        <time>2021-08-09T08:34:53Z</time>
      </trkpt>
      <trkpt lat="43.23098" lon="2.59214">
        <ele>58.200000762939</ele>
        <time>2021-08-09T08:35:02Z</time>
      </trkpt>
      <trkpt lat="43.231" lon="2.5922">
        <ele>58.200000762939</ele>
        <time>2021-08-09T08:35:03Z</time>
      </trkpt>
      <trkpt lat="43.23106" lon="2.59307">
        <ele>58.599998474121</ele>
        <time>2021-08-09T08:35:16Z</time>
      </trkpt>
      <trkpt lat="43.23112" lon="2.59462">
        <ele>58.799999237061</ele>
        <time>2021-08-09T08:35:39Z</time>
      </trkpt>
      <trkpt lat="43.231" lon="2.59587">
        <ele>59.400001525879</ele>
        <time>2021-08-09T08:35:59Z</time>
      </trkpt>
      <trkpt lat="43.23095" lon="2.59663">
        <ele>61.400001525879</ele>
        <time>2021-08-09T08:36:19Z</time>
      </trkpt>
      <trkpt lat="43.23091" lon="2.59805">
        <ele>64.800003051758</ele>
        <time>2021-08-09T08:36:52Z</time>
      </trkpt>
      <trkpt lat="43.23084" lon="2.59956">
        <ele>66.800003051758</ele>
        <time>2021-08-09T08:37:19Z</time>
      </trkpt>
      <trkpt lat="43.23085" lon="2.60006">
        <ele>67.199996948242</ele>
        <time>2021-08-09T08:37:27Z</time>
      </trkpt>
      <trkpt lat="43.23083" lon="2.60062">
        <ele>67.599998474121</ele>
        <time>2021-08-09T08:37:36Z</time>
      </trkpt>
      <trkpt lat="43.23075" lon="2.60309">
        <ele>67.800003051758</ele>
        <time>2021-08-09T08:38:12Z</time>
      </trkpt>
      <trkpt lat="43.23056" lon="2.60571">
        <ele>65.199996948242</ele>
        <time>2021-08-09T08:38:44Z</time>
      </trkpt>
      <trkpt lat="43.23018" lon="2.60623">
        <ele>63.200000762939</ele>
        <time>2021-08-09T08:38:58Z</time>
      </trkpt>
      <trkpt lat="43.22947" lon="2.60646">
        <ele>62.200000762939</ele>
        <time>2021-08-09T08:40:54Z</time>
      </trkpt>
      <trkpt lat="43.22815" lon="2.60688">
        <ele>61.200000762939</ele>
        <time>2021-08-09T08:41:27Z</time>
      </trkpt>
      <trkpt lat="43.22654" lon="2.60857">
        <ele>59.400001525879</ele>
        <time>2021-08-09T08:42:03Z</time>
      </trkpt>
      <trkpt lat="43.22298" lon="2.61801">
        <ele>57.599998474121</ele>
        <time>2021-08-09T08:44:20Z</time>
      </trkpt>
      <trkpt lat="43.22284" lon="2.61847">
        <ele>57.599998474121</ele>
        <time>2021-08-09T08:44:27Z</time>
      </trkpt>
      <trkpt lat="43.22255" lon="2.61902">
        <ele>56.400001525879</ele>
        <time>2021-08-09T08:45:01Z</time>
      </trkpt>
      <trkpt lat="43.2226" lon="2.62083">
        <ele>57.799999237061</ele>
        <time>2021-08-09T08:45:32Z</time>
      </trkpt>
      <trkpt lat="43.22271" lon="2.62185">
        <ele>58.200000762939</ele>
        <time>2021-08-09T08:45:47Z</time>
      </trkpt>
      <trkpt lat="43.22276" lon="2.62208">
        <ele>58.200000762939</ele>
        <time>2021-08-09T08:45:51Z</time>
      </trkpt>
      <trkpt lat="43.2228" lon="2.62231">
        <ele>58</ele>
        <time>2021-08-09T08:45:55Z</time>
      </trkpt>
      <trkpt lat="43.22298" lon="2.62348">
        <ele>57.599998474121</ele>
        <time>2021-08-09T08:46:13Z</time>
      </trkpt>
      <trkpt lat="43.22299" lon="2.62366">
        <ele>57.599998474121</ele>
        <time>2021-08-09T08:46:16Z</time>
      </trkpt>
      <trkpt lat="43.22299" lon="2.62429">
        <ele>58.599998474121</ele>
        <time>2021-08-09T08:46:34Z</time>
      </trkpt>
      <trkpt lat="43.22277" lon="2.62469">
        <ele>58.400001525879</ele>
        <time>2021-08-09T08:46:45Z</time>
      </trkpt>
      <trkpt lat="43.22267" lon="2.62488">
        <ele>58.200000762939</ele>
        <time>2021-08-09T08:46:50Z</time>
      </trkpt>
      <trkpt lat="43.22228" lon="2.62566">
        <ele>57.599998474121</ele>
        <time>2021-08-09T08:47:08Z</time>
      </trkpt>
      <trkpt lat="43.22187" lon="2.62661">
        <ele>60</ele>
        <time>2021-08-09T08:48:07Z</time>
      </trkpt>
      <trkpt lat="43.22153" lon="2.62744">
        <ele>61.200000762939</ele>
        <time>2021-08-09T08:48:26Z</time>
      </trkpt>
      <trkpt lat="43.22134" lon="2.62783">
        <ele>61.200000762939</ele>
        <time>2021-08-09T08:48:33Z</time>
      </trkpt>
      <trkpt lat="43.22119" lon="2.62817">
        <ele>61.200000762939</ele>
        <time>2021-08-09T08:48:39Z</time>
      </trkpt>
      <trkpt lat="43.22116" lon="2.62858">
        <ele>60.599998474121</ele>
        <time>2021-08-09T08:48:45Z</time>
      </trkpt>
      <trkpt lat="43.22114" lon="2.62874">
        <ele>60.400001525879</ele>
        <time>2021-08-09T08:48:47Z</time>
      </trkpt>
      <trkpt lat="43.2211" lon="2.62959">
        <ele>59.799999237061</ele>
        <time>2021-08-09T08:49:00Z</time>
      </trkpt>
      <trkpt lat="43.2206" lon="2.63528">
        <ele>58</ele>
        <time>2021-08-09T08:50:18Z</time>
      </trkpt>
      <trkpt lat="43.22008" lon="2.64088">
        <ele>61.200000762939</ele>
        <time>2021-08-09T08:51:45Z</time>
      </trkpt>
      <trkpt lat="43.2199" lon="2.64261">
        <ele>61.200000762939</ele>
        <time>2021-08-09T08:52:10Z</time>
      </trkpt>
      <trkpt lat="43.2198" lon="2.6433">
        <ele>61</ele>
        <time>2021-08-09T08:52:18Z</time>
      </trkpt>
      <trkpt lat="43.21938" lon="2.64644">
        <ele>60</ele>
        <time>2021-08-09T08:52:58Z</time>
      </trkpt>
      <trkpt lat="43.21955" lon="2.64759">
        <ele>61.200000762939</ele>
        <time>2021-08-09T08:53:16Z</time>
      </trkpt>
      <trkpt lat="43.21964" lon="2.6479">
        <ele>61.200000762939</ele>
        <time>2021-08-09T08:53:21Z</time>
      </trkpt>
      <trkpt lat="43.21961" lon="2.6484">
        <ele>61.400001525879</ele>
        <time>2021-08-09T08:53:28Z</time>
      </trkpt>
      <trkpt lat="43.21947" lon="2.64913">
        <ele>61.400001525879</ele>
        <time>2021-08-09T08:53:43Z</time>
      </trkpt>
      <trkpt lat="43.22018" lon="2.64946">
        <ele>60.799999237061</ele>
        <time>2021-08-09T08:54:03Z</time>
      </trkpt>
      <trkpt lat="43.22034" lon="2.64952">
        <ele>60.599998474121</ele>
        <time>2021-08-09T08:54:06Z</time>
      </trkpt>
      <trkpt lat="43.22112" lon="2.64961">
        <ele>57.599998474121</ele>
        <time>2021-08-09T08:54:24Z</time>
      </trkpt>
      <trkpt lat="43.22127" lon="2.6496">
        <ele>57.400001525879</ele>
        <time>2021-08-09T08:54:27Z</time>
      </trkpt>
      <trkpt lat="43.22281" lon="2.65134">
        <ele>56.400001525879</ele>
        <time>2021-08-09T08:55:03Z</time>
      </trkpt>
      <trkpt lat="43.22504" lon="2.65656">
        <ele>55.400001525879</ele>
        <time>2021-08-09T08:56:23Z</time>
      </trkpt>
      <trkpt lat="43.2253" lon="2.65697">
        <ele>55.599998474121</ele>
        <time>2021-08-09T08:56:30Z</time>
      </trkpt>
      <trkpt lat="43.22669" lon="2.65927">
        <ele>59</ele>
        <time>2021-08-09T08:57:33Z</time>
      </trkpt>
      <trkpt lat="43.2268" lon="2.65945">
        <ele>60</ele>
        <time>2021-08-09T08:57:41Z</time>
      </trkpt>
      <trkpt lat="43.22696" lon="2.6597">
        <ele>61.599998474121</ele>
        <time>2021-08-09T08:57:53Z</time>
      </trkpt>
      <trkpt lat="43.22712" lon="2.6599">
        <ele>62.799999237061</ele>
        <time>2021-08-09T08:58:05Z</time>
      </trkpt>
      <trkpt lat="43.22738" lon="2.66023">
        <ele>64.199996948242</ele>
        <time>2021-08-09T08:58:20Z</time>
      </trkpt>
      <trkpt lat="43.22748" lon="2.66351">
        <ele>67</ele>
        <time>2021-08-09T08:59:31Z</time>
      </trkpt>
      <trkpt lat="43.22784" lon="2.66439">
        <ele>68.400001525879</ele>
        <time>2021-08-09T09:00:01Z</time>
      </trkpt>
      <trkpt lat="43.22781" lon="2.66528">
        <ele>71.400001525879</ele>
        <time>2021-08-09T09:00:28Z</time>
      </trkpt>
      <trkpt lat="43.22781" lon="2.66583">
        <ele>73.599998474121</ele>
        <time>2021-08-09T09:00:44Z</time>
      </trkpt>
      <trkpt lat="43.22821" lon="2.66681">
        <ele>75.800003051758</ele>
        <time>2021-08-09T09:01:11Z</time>
      </trkpt>
      <trkpt lat="43.22869" lon="2.66809">
        <ele>75</ele>
        <time>2021-08-09T09:01:35Z</time>
      </trkpt>
      <trkpt lat="43.2289" lon="2.66835">
        <ele>74.800003051758</ele>
        <time>2021-08-09T09:01:41Z</time>
      </trkpt>
      <trkpt lat="43.2311" lon="2.67024">
        <ele>72.800003051758</ele>
        <time>2021-08-09T09:02:30Z</time>
      </trkpt>
      <trkpt lat="43.23145" lon="2.67074">
        <ele>70.599998474121</ele>
        <time>2021-08-09T09:02:38Z</time>
      </trkpt>
      <trkpt lat="43.23151" lon="2.67089">
        <ele>69.400001525879</ele>
        <time>2021-08-09T09:02:40Z</time>
      </trkpt>
      <trkpt lat="43.23143" lon="2.67158">
        <ele>66.800003051758</ele>
        <time>2021-08-09T09:02:51Z</time>
      </trkpt>
      <trkpt lat="43.23174" lon="2.67304">
        <ele>68.199996948242</ele>
        <time>2021-08-09T09:03:27Z</time>
      </trkpt>
      <trkpt lat="43.23198" lon="2.67385">
        <ele>67.800003051758</ele>
        <time>2021-08-09T09:03:43Z</time>
      </trkpt>
      <trkpt lat="43.23204" lon="2.67409">
        <ele>68</ele>
        <time>2021-08-09T09:03:48Z</time>
      </trkpt>
      <trkpt lat="43.23192" lon="2.67455">
        <ele>68.400001525879</ele>
        <time>2021-08-09T09:03:59Z</time>
      </trkpt>
      <trkpt lat="43.23131" lon="2.67594">
        <ele>68.400001525879</ele>
        <time>2021-08-09T09:04:27Z</time>
      </trkpt>
      <trkpt lat="43.2307" lon="2.67658">
        <ele>66.199996948242</ele>
        <time>2021-08-09T09:04:40Z</time>
      </trkpt>
      <trkpt lat="43.23024" lon="2.67694">
        <ele>64.800003051758</ele>
        <time>2021-08-09T09:04:50Z</time>
      </trkpt>
      <trkpt lat="43.22999" lon="2.67718">
        <ele>64.599998474121</ele>
        <time>2021-08-09T09:04:56Z</time>
      </trkpt>
      <trkpt lat="43.22993" lon="2.67722">
        <ele>64.400001525879</ele>
        <time>2021-08-09T09:04:57Z</time>
      </trkpt>
      <trkpt lat="43.22948" lon="2.67752">
        <ele>64.199996948242</ele>
        <time>2021-08-09T09:05:05Z</time>
      </trkpt>
      <trkpt lat="43.22899" lon="2.67819">
        <ele>63.599998474121</ele>
        <time>2021-08-09T09:05:20Z</time>
      </trkpt>
      <trkpt lat="43.22834" lon="2.67924">
        <ele>63.599998474121</ele>
        <time>2021-08-09T09:05:40Z</time>
      </trkpt>
      <trkpt lat="43.22787" lon="2.67967">
        <ele>63.599998474121</ele>
        <time>2021-08-09T09:05:53Z</time>
      </trkpt>
      <trkpt lat="43.22618" lon="2.68277">
        <ele>66</ele>
        <time>2021-08-09T09:07:10Z</time>
      </trkpt>
      <trkpt lat="43.22579" lon="2.68359">
        <ele>65.199996948242</ele>
        <time>2021-08-09T09:16:17Z</time>
      </trkpt>
      <trkpt lat="43.22548" lon="2.68544">
        <ele>65.400001525879</ele>
        <time>2021-08-09T09:16:57Z</time>
      </trkpt>
      <trkpt lat="43.22535" lon="2.68593">
        <ele>65.400001525879</ele>
        <time>2021-08-09T09:17:05Z</time>
      </trkpt>
      <trkpt lat="43.22443" lon="2.69162">
        <ele>65.800003051758</ele>
        <time>2021-08-09T09:18:35Z</time>
      </trkpt>
      <trkpt lat="43.22443" lon="2.69166">
        <ele>66</ele>
        <time>2021-08-09T09:18:36Z</time>
      </trkpt>
      <trkpt lat="43.22438" lon="2.69225">
        <ele>67.400001525879</ele>
        <time>2021-08-09T09:18:52Z</time>
      </trkpt>
      <trkpt lat="43.22437" lon="2.69317">
        <ele>68</ele>
        <time>2021-08-09T09:19:11Z</time>
      </trkpt>
      <trkpt lat="43.22473" lon="2.69508">
        <ele>71.400001525879</ele>
        <time>2021-08-09T09:19:57Z</time>
      </trkpt>
      <trkpt lat="43.22479" lon="2.69532">
        <ele>72</ele>
        <time>2021-08-09T09:20:04Z</time>
      </trkpt>
      <trkpt lat="43.22479" lon="2.69563">
        <ele>72.800003051758</ele>
        <time>2021-08-09T09:20:13Z</time>
      </trkpt>
      <trkpt lat="43.22477" lon="2.69632">
        <ele>75.400001525879</ele>
        <time>2021-08-09T09:20:36Z</time>
      </trkpt>
      <trkpt lat="43.22425" lon="2.69662">
        <ele>73.599998474121</ele>
        <time>2021-08-09T09:21:15Z</time>
      </trkpt>
      <trkpt lat="43.22408" lon="2.69674">
        <ele>73.199996948242</ele>
        <time>2021-08-09T09:21:20Z</time>
      </trkpt>
      <trkpt lat="43.22432" lon="2.6964">
        <ele>73.199996948242</ele>
        <time>2021-08-09T09:21:49Z</time>
      </trkpt>
      <trkpt lat="43.224" lon="2.69621">
        <ele>75</ele>
        <time>2021-08-09T09:22:08Z</time>
      </trkpt>
      <trkpt lat="43.22409" lon="2.69626">
        <ele>73.800003051758</ele>
        <time>2021-08-09T09:40:39Z</time>
      </trkpt>
      <trkpt lat="43.22416" lon="2.69634">
        <ele>74</ele>
        <time>2021-08-09T09:40:43Z</time>
      </trkpt>
      <trkpt lat="43.22444" lon="2.69658">
        <ele>74</ele>
        <time>2021-08-09T09:40:53Z</time>
      </trkpt>
      <trkpt lat="43.22468" lon="2.69697">
        <ele>72.400001525879</ele>
        <time>2021-08-09T09:41:00Z</time>
      </trkpt>
      <trkpt lat="43.22483" lon="2.69723">
        <ele>72.199996948242</ele>
        <time>2021-08-09T09:41:04Z</time>
      </trkpt>
      <trkpt lat="43.22518" lon="2.6982">
        <ele>68.199996948242</ele>
        <time>2021-08-09T09:41:26Z</time>
      </trkpt>
      <trkpt lat="43.22521" lon="2.69837">
        <ele>68.199996948242</ele>
        <time>2021-08-09T09:41:29Z</time>
      </trkpt>
      <trkpt lat="43.22647" lon="2.70323">
        <ele>65</ele>
        <time>2021-08-09T09:42:42Z</time>
      </trkpt>
      <trkpt lat="43.2272" lon="2.70612">
        <ele>64.599998474121</ele>
        <time>2021-08-09T09:43:23Z</time>
      </trkpt>
      <trkpt lat="43.22747" lon="2.70673">
        <ele>64.199996948242</ele>
        <time>2021-08-09T09:43:32Z</time>
      </trkpt>
      <trkpt lat="43.22879" lon="2.71021">
        <ele>62.400001525879</ele>
        <time>2021-08-09T09:44:20Z</time>
      </trkpt>
      <trkpt lat="43.22884" lon="2.71122">
        <ele>62</ele>
        <time>2021-08-09T09:44:34Z</time>
      </trkpt>
      <trkpt lat="43.22882" lon="2.71234">
        <ele>61.400001525879</ele>
        <time>2021-08-09T09:44:49Z</time>
      </trkpt>
      <trkpt lat="43.22867" lon="2.71341">
        <ele>60.599998474121</ele>
        <time>2021-08-09T09:45:03Z</time>
      </trkpt>
      <trkpt lat="43.22862" lon="2.71365">
        <ele>60.599998474121</ele>
        <time>2021-08-09T09:45:06Z</time>
      </trkpt>
      <trkpt lat="43.22858" lon="2.7145">
        <ele>59.400001525879</ele>
        <time>2021-08-09T09:45:16Z</time>
      </trkpt>
      <trkpt lat="43.22872" lon="2.71603">
        <ele>58.200000762939</ele>
        <time>2021-08-09T09:45:35Z</time>
      </trkpt>
      <trkpt lat="43.22906" lon="2.71721">
        <ele>57.200000762939</ele>
        <time>2021-08-09T09:45:51Z</time>
      </trkpt>
      <trkpt lat="43.22923" lon="2.7177">
        <ele>57</ele>
        <time>2021-08-09T09:45:58Z</time>
      </trkpt>
      <trkpt lat="43.22926" lon="2.71791">
        <ele>57</ele>
        <time>2021-08-09T09:46:01Z</time>
      </trkpt>
      <trkpt lat="43.22929" lon="2.71813">
        <ele>56.799999237061</ele>
        <time>2021-08-09T09:46:04Z</time>
      </trkpt>
      <trkpt lat="43.2295" lon="2.71949">
        <ele>56.400001525879</ele>
        <time>2021-08-09T09:46:23Z</time>
      </trkpt>
      <trkpt lat="43.22952" lon="2.71964">
        <ele>56.200000762939</ele>
        <time>2021-08-09T09:46:25Z</time>
      </trkpt>
      <trkpt lat="43.22959" lon="2.72014">
        <ele>56.400001525879</ele>
        <time>2021-08-09T09:46:32Z</time>
      </trkpt>
      <trkpt lat="43.22963" lon="2.72073">
        <ele>55.799999237061</ele>
        <time>2021-08-09T09:46:40Z</time>
      </trkpt>
      <trkpt lat="43.22997" lon="2.72311">
        <ele>54.799999237061</ele>
        <time>2021-08-09T09:47:11Z</time>
      </trkpt>
      <trkpt lat="43.2303" lon="2.72578">
        <ele>55.599998474121</ele>
        <time>2021-08-09T09:47:45Z</time>
      </trkpt>
      <trkpt lat="43.23032" lon="2.72754">
        <ele>55.200000762939</ele>
        <time>2021-08-09T09:48:09Z</time>
      </trkpt>
      <trkpt lat="43.23022" lon="2.72849">
        <ele>55</ele>
        <time>2021-08-09T09:48:23Z</time>
      </trkpt>
      <trkpt lat="43.23003" lon="2.72938">
        <ele>54.400001525879</ele>
        <time>2021-08-09T09:48:37Z</time>
      </trkpt>
      <trkpt lat="43.22994" lon="2.72976">
        <ele>54.200000762939</ele>
        <time>2021-08-09T09:48:43Z</time>
      </trkpt>
      <trkpt lat="43.22989" lon="2.73093">
        <ele>54.200000762939</ele>
        <time>2021-08-09T09:49:01Z</time>
      </trkpt>
      <trkpt lat="43.2299" lon="2.73337">
        <ele>54.599998474121</ele>
        <time>2021-08-09T09:49:40Z</time>
      </trkpt>
      <trkpt lat="43.23001" lon="2.73395">
        <ele>54.400001525879</ele>
        <time>2021-08-09T09:49:49Z</time>
      </trkpt>
      <trkpt lat="43.23032" lon="2.73583">
        <ele>56.599998474121</ele>
        <time>2021-08-09T09:50:27Z</time>
      </trkpt>
      <trkpt lat="43.23081" lon="2.73847">
        <ele>59.599998474121</ele>
        <time>2021-08-09T09:51:22Z</time>
      </trkpt>
      <trkpt lat="43.23086" lon="2.73884">
        <ele>59.599998474121</ele>
        <time>2021-08-09T09:51:28Z</time>
      </trkpt>
      <trkpt lat="43.23091" lon="2.74029">
        <ele>58.400001525879</ele>
        <time>2021-08-09T09:51:49Z</time>
      </trkpt>
      <trkpt lat="43.23097" lon="2.7413">
        <ele>57.400001525879</ele>
        <time>2021-08-09T09:52:02Z</time>
      </trkpt>
      <trkpt lat="43.23101" lon="2.7422">
        <ele>56</ele>
        <time>2021-08-09T09:52:14Z</time>
      </trkpt>
      <trkpt lat="43.23136" lon="2.74398">
        <ele>52.200000762939</ele>
        <time>2021-08-09T09:52:34Z</time>
      </trkpt>
      <trkpt lat="43.23152" lon="2.74471">
        <ele>51.400001525879</ele>
        <time>2021-08-09T09:52:43Z</time>
      </trkpt>
      <trkpt lat="43.23159" lon="2.74512">
        <ele>51.200000762939</ele>
        <time>2021-08-09T09:52:49Z</time>
      </trkpt>
      <trkpt lat="43.23188" lon="2.74601">
        <ele>50.400001525879</ele>
        <time>2021-08-09T09:53:03Z</time>
      </trkpt>
      <trkpt lat="43.23365" lon="2.75107">
        <ele>49</ele>
        <time>2021-08-09T09:54:22Z</time>
      </trkpt>
      <trkpt lat="43.23438" lon="2.75214">
        <ele>48.599998474121</ele>
        <time>2021-08-09T09:54:43Z</time>
      </trkpt>
      <trkpt lat="43.23554" lon="2.75335">
        <ele>48</ele>
        <time>2021-08-09T09:55:10Z</time>
      </trkpt>
      <trkpt lat="43.23596" lon="2.75468">
        <ele>48.400001525879</ele>
        <time>2021-08-09T09:55:31Z</time>
      </trkpt>
      <trkpt lat="43.23619" lon="2.75749">
        <ele>48.799999237061</ele>
        <time>2021-08-09T09:56:15Z</time>
      </trkpt>
      <trkpt lat="43.23676" lon="2.75892">
        <ele>46.599998474121</ele>
        <time>2021-08-09T09:56:42Z</time>
      </trkpt>
      <trkpt lat="43.23706" lon="2.75968">
        <ele>46.400001525879</ele>
        <time>2021-08-09T09:56:54Z</time>
      </trkpt>
      <trkpt lat="43.23719" lon="2.76006">
        <ele>44.799999237061</ele>
        <time>2021-08-09T09:57:00Z</time>
      </trkpt>
      <trkpt lat="43.23721" lon="2.76012">
        <ele>44.599998474121</ele>
        <time>2021-08-09T09:57:01Z</time>
      </trkpt>
      <trkpt lat="43.23726" lon="2.76027">
        <ele>43.400001525879</ele>
        <time>2021-08-09T09:57:03Z</time>
      </trkpt>
      <trkpt lat="43.2375" lon="2.76078">
        <ele>41</ele>
        <time>2021-08-09T09:57:11Z</time>
      </trkpt>
      <trkpt lat="43.2376" lon="2.76104">
        <ele>37.799999237061</ele>
        <time>2021-08-09T09:57:20Z</time>
      </trkpt>
      <trkpt lat="43.23763" lon="2.76117">
        <ele>35.799999237061</ele>
        <time>2021-08-09T09:57:41Z</time>
      </trkpt>
      <trkpt lat="43.23777" lon="2.76131">
        <ele>35.799999237061</ele>
        <time>2021-08-09T09:57:46Z</time>
      </trkpt>
      <trkpt lat="43.23815" lon="2.76187">
        <ele>36</ele>
        <time>2021-08-09T09:57:58Z</time>
      </trkpt>
      <trkpt lat="43.23919" lon="2.76353">
        <ele>38</ele>
        <time>2021-08-09T09:58:47Z</time>
      </trkpt>
      <trkpt lat="43.2398" lon="2.76442">
        <ele>36</ele>
        <time>2021-08-09T09:59:00Z</time>
      </trkpt>
      <trkpt lat="43.23987" lon="2.76451">
        <ele>35.799999237061</ele>
        <time>2021-08-09T09:59:02Z</time>
      </trkpt>
      <trkpt lat="43.24028" lon="2.76512">
        <ele>37.200000762939</ele>
        <time>2021-08-09T09:59:35Z</time>
      </trkpt>
      <trkpt lat="43.24031" lon="2.76503">
        <ele>37.200000762939</ele>
        <time>2021-08-09T10:01:12Z</time>
      </trkpt>
      <trkpt lat="43.23999" lon="2.76558">
        <ele>40</ele>
        <time>2021-08-09T10:11:44Z</time>
      </trkpt>
      <trkpt lat="43.23998" lon="2.7656">
        <ele>39.799999237061</ele>
        <time>2021-08-09T10:11:45Z</time>
      </trkpt>
      <trkpt lat="43.23988" lon="2.76583">
        <ele>40.200000762939</ele>
        <time>2021-08-09T10:11:52Z</time>
      </trkpt>
      <trkpt lat="43.24016" lon="2.76637">
        <ele>43</ele>
        <time>2021-08-09T10:12:16Z</time>
      </trkpt>
      <trkpt lat="43.24097" lon="2.76697">
        <ele>42.599998474121</ele>
        <time>2021-08-09T10:12:38Z</time>
      </trkpt>
      <trkpt lat="43.24119" lon="2.76845">
        <ele>42.400001525879</ele>
        <time>2021-08-09T10:13:10Z</time>
      </trkpt>
      <trkpt lat="43.24093" lon="2.76951">
        <ele>42.799999237061</ele>
        <time>2021-08-09T10:13:30Z</time>
      </trkpt>
      <trkpt lat="43.24102" lon="2.77072">
        <ele>42.799999237061</ele>
        <time>2021-08-09T10:13:52Z</time>
      </trkpt>
      <trkpt lat="43.24102" lon="2.77084">
        <ele>42.599998474121</ele>
        <time>2021-08-09T10:13:54Z</time>
      </trkpt>
      <trkpt lat="43.2408" lon="2.77254">
        <ele>43.200000762939</ele>
        <time>2021-08-09T10:14:22Z</time>
      </trkpt>
      <trkpt lat="43.24071" lon="2.77363">
        <ele>42.599998474121</ele>
        <time>2021-08-09T10:14:38Z</time>
      </trkpt>
      <trkpt lat="43.24096" lon="2.77496">
        <ele>42.400001525879</ele>
        <time>2021-08-09T10:14:57Z</time>
      </trkpt>
      <trkpt lat="43.24108" lon="2.77543">
        <ele>42.400001525879</ele>
        <time>2021-08-09T10:15:04Z</time>
      </trkpt>
      <trkpt lat="43.24145" lon="2.77659">
        <ele>42.799999237061</ele>
        <time>2021-08-09T10:15:22Z</time>
      </trkpt>
      <trkpt lat="43.24266" lon="2.78125">
        <ele>44.400001525879</ele>
        <time>2021-08-09T10:16:41Z</time>
      </trkpt>
      <trkpt lat="43.24283" lon="2.78174">
        <ele>44.599998474121</ele>
        <time>2021-08-09T10:16:51Z</time>
      </trkpt>
      <trkpt lat="43.24362" lon="2.78483">
        <ele>45</ele>
        <time>2021-08-09T10:17:44Z</time>
      </trkpt>
      <trkpt lat="43.24378" lon="2.7854">
        <ele>44.599998474121</ele>
        <time>2021-08-09T10:17:53Z</time>
      </trkpt>
      <trkpt lat="43.24395" lon="2.78583">
        <ele>44.599998474121</ele>
        <time>2021-08-09T10:17:59Z</time>
      </trkpt>
      <trkpt lat="43.24403" lon="2.78626">
        <ele>44.599998474121</ele>
        <time>2021-08-09T10:18:04Z</time>
      </trkpt>
      <trkpt lat="43.24403" lon="2.78673">
        <ele>44.400001525879</ele>
        <time>2021-08-09T10:18:10Z</time>
      </trkpt>
      <trkpt lat="43.24442" lon="2.78766">
        <ele>44.200000762939</ele>
        <time>2021-08-09T10:22:00Z</time>
      </trkpt>
      <trkpt lat="43.24478" lon="2.78866">
        <ele>45</ele>
        <time>2021-08-09T10:22:22Z</time>
      </trkpt>
      <trkpt lat="43.24478" lon="2.78946">
        <ele>45.400001525879</ele>
        <time>2021-08-09T10:22:36Z</time>
      </trkpt>
      <trkpt lat="43.24465" lon="2.79119">
        <ele>46.799999237061</ele>
        <time>2021-08-09T10:23:10Z</time>
      </trkpt>
      <trkpt lat="43.2447" lon="2.79153">
        <ele>47</ele>
        <time>2021-08-09T10:23:16Z</time>
      </trkpt>
      <trkpt lat="43.24484" lon="2.79208">
        <ele>46.799999237061</ele>
        <time>2021-08-09T10:23:25Z</time>
      </trkpt>
      <trkpt lat="43.24498" lon="2.79247">
        <ele>46.400001525879</ele>
        <time>2021-08-09T10:23:32Z</time>
      </trkpt>
      <trkpt lat="43.24548" lon="2.79357">
        <ele>46</ele>
        <time>2021-08-09T10:23:52Z</time>
      </trkpt>
      <trkpt lat="43.24603" lon="2.7949">
        <ele>45.799999237061</ele>
        <time>2021-08-09T10:24:14Z</time>
      </trkpt>
      <trkpt lat="43.24638" lon="2.79563">
        <ele>46</ele>
        <time>2021-08-09T10:24:27Z</time>
      </trkpt>
      <trkpt lat="43.24661" lon="2.79617">
        <ele>46</ele>
        <time>2021-08-09T10:24:36Z</time>
      </trkpt>
      <trkpt lat="43.24719" lon="2.7975">
        <ele>45.400001525879</ele>
        <time>2021-08-09T10:24:57Z</time>
      </trkpt>
      <trkpt lat="43.24724" lon="2.79781">
        <ele>45.599998474121</ele>
        <time>2021-08-09T10:25:02Z</time>
      </trkpt>
      <trkpt lat="43.24743" lon="2.79898">
        <ele>45.200000762939</ele>
        <time>2021-08-09T10:25:20Z</time>
      </trkpt>
      <trkpt lat="43.24723" lon="2.79992">
        <ele>44.799999237061</ele>
        <time>2021-08-09T10:25:35Z</time>
      </trkpt>
      <trkpt lat="43.24714" lon="2.80042">
        <ele>43.599998474121</ele>
        <time>2021-08-09T10:25:48Z</time>
      </trkpt>
      <trkpt lat="43.24733" lon="2.80166">
        <ele>43.200000762939</ele>
        <time>2021-08-09T10:26:12Z</time>
      </trkpt>
      <trkpt lat="43.24722" lon="2.80195">
        <ele>42.799999237061</ele>
        <time>2021-08-09T10:26:17Z</time>
      </trkpt>
      <trkpt lat="43.24705" lon="2.80227">
        <ele>42.599998474121</ele>
        <time>2021-08-09T10:26:22Z</time>
      </trkpt>
      <trkpt lat="43.24676" lon="2.80284">
        <ele>41.799999237061</ele>
        <time>2021-08-09T10:26:29Z</time>
      </trkpt>
      <trkpt lat="43.24653" lon="2.80332">
        <ele>40.200000762939</ele>
        <time>2021-08-09T10:26:39Z</time>
      </trkpt>
      <trkpt lat="43.24682" lon="2.80376">
        <ele>38.400001525879</ele>
        <time>2021-08-09T10:26:56Z</time>
      </trkpt>
      <trkpt lat="43.24698" lon="2.80389">
        <ele>37.599998474121</ele>
        <time>2021-08-09T10:27:00Z</time>
      </trkpt>
      <trkpt lat="43.24786" lon="2.80517">
        <ele>36.799999237061</ele>
        <time>2021-08-09T10:27:24Z</time>
      </trkpt>
      <trkpt lat="43.24936" lon="2.80739">
        <ele>36.799999237061</ele>
        <time>2021-08-09T10:28:04Z</time>
      </trkpt>
      <trkpt lat="43.24997" lon="2.80875">
        <ele>37</ele>
        <time>2021-08-09T10:28:25Z</time>
      </trkpt>
      <trkpt lat="43.25067" lon="2.8113">
        <ele>37</ele>
        <time>2021-08-09T10:29:05Z</time>
      </trkpt>
      <trkpt lat="43.25054" lon="2.81414">
        <ele>36.200000762939</ele>
        <time>2021-08-09T10:29:42Z</time>
      </trkpt>
      <trkpt lat="43.2506" lon="2.81476">
        <ele>36.400001525879</ele>
        <time>2021-08-09T10:29:50Z</time>
      </trkpt>
      <trkpt lat="43.25116" lon="2.81829">
        <ele>35.200000762939</ele>
        <time>2021-08-09T10:30:37Z</time>
      </trkpt>
      <trkpt lat="43.25033" lon="2.82426">
        <ele>36.599998474121</ele>
        <time>2021-08-09T10:32:12Z</time>
      </trkpt>
      <trkpt lat="43.2503" lon="2.82465">
        <ele>37</ele>
        <time>2021-08-09T10:32:19Z</time>
      </trkpt>
      <trkpt lat="43.25008" lon="2.82577">
        <ele>37</ele>
        <time>2021-08-09T10:32:38Z</time>
      </trkpt>
      <trkpt lat="43.24874" lon="2.83065">
        <ele>37.200000762939</ele>
        <time>2021-08-09T10:33:50Z</time>
      </trkpt>
      <trkpt lat="43.24873" lon="2.83073">
        <ele>37.200000762939</ele>
        <time>2021-08-09T10:33:51Z</time>
      </trkpt>
      <trkpt lat="43.24858" lon="2.83167">
        <ele>37.400001525879</ele>
        <time>2021-08-09T10:34:04Z</time>
      </trkpt>
      <trkpt lat="43.24859" lon="2.83232">
        <ele>37.400001525879</ele>
        <time>2021-08-09T10:34:13Z</time>
      </trkpt>
      <trkpt lat="43.24858" lon="2.83439">
        <ele>37.799999237061</ele>
        <time>2021-08-09T10:34:48Z</time>
      </trkpt>
      <trkpt lat="43.24861" lon="2.83484">
        <ele>37.799999237061</ele>
        <time>2021-08-09T10:34:54Z</time>
      </trkpt>
      <trkpt lat="43.24869" lon="2.83594">
        <ele>37</ele>
        <time>2021-08-09T10:35:09Z</time>
      </trkpt>
      <trkpt lat="43.24863" lon="2.8372">
        <ele>37.400001525879</ele>
        <time>2021-08-09T10:35:27Z</time>
      </trkpt>
      <trkpt lat="43.24848" lon="2.84122">
        <ele>35.400001525879</ele>
        <time>2021-08-09T10:36:24Z</time>
      </trkpt>
      <trkpt lat="43.24845" lon="2.84192">
        <ele>34.599998474121</ele>
        <time>2021-08-09T10:36:32Z</time>
      </trkpt>
      <trkpt lat="43.24804" lon="2.84295">
        <ele>32</ele>
        <time>2021-08-09T10:36:44Z</time>
      </trkpt>
      <trkpt lat="43.2474" lon="2.84443">
        <ele>30.799999237061</ele>
        <time>2021-08-09T10:37:04Z</time>
      </trkpt>
      <trkpt lat="43.24714" lon="2.84569">
        <ele>30.39999961853</ele>
        <time>2021-08-09T10:37:22Z</time>
      </trkpt>
      <trkpt lat="43.24691" lon="2.84683">
        <ele>30.200000762939</ele>
        <time>2021-08-09T10:37:40Z</time>
      </trkpt>
      <trkpt lat="43.2469" lon="2.84695">
        <ele>30.200000762939</ele>
        <time>2021-08-09T10:37:42Z</time>
      </trkpt>
      <trkpt lat="43.24692" lon="2.84775">
        <ele>31</ele>
        <time>2021-08-09T10:37:57Z</time>
      </trkpt>
      <trkpt lat="43.24719" lon="2.8485">
        <ele>31.200000762939</ele>
        <time>2021-08-09T10:38:12Z</time>
      </trkpt>
      <trkpt lat="43.24761" lon="2.84954">
        <ele>32.400001525879</ele>
        <time>2021-08-09T10:38:33Z</time>
      </trkpt>
      <trkpt lat="43.24777" lon="2.85048">
        <ele>33.599998474121</ele>
        <time>2021-08-09T10:38:50Z</time>
      </trkpt>
      <trkpt lat="43.24775" lon="2.85088">
        <ele>34</ele>
        <time>2021-08-09T10:38:57Z</time>
      </trkpt>
      <trkpt lat="43.24767" lon="2.85431">
        <ele>33.400001525879</ele>
        <time>2021-08-09T10:39:45Z</time>
      </trkpt>
      <trkpt lat="43.24758" lon="2.85489">
        <ele>33.200000762939</ele>
        <time>2021-08-09T10:39:53Z</time>
      </trkpt>
      <trkpt lat="43.24725" lon="2.85668">
        <ele>33.400001525879</ele>
        <time>2021-08-09T10:40:18Z</time>
      </trkpt>
      <trkpt lat="43.24694" lon="2.85955">
        <ele>36.799999237061</ele>
        <time>2021-08-09T10:41:19Z</time>
      </trkpt>
      <trkpt lat="43.2469" lon="2.85977">
        <ele>37.599998474121</ele>
        <time>2021-08-09T10:41:26Z</time>
      </trkpt>
      <trkpt lat="43.24684" lon="2.86053">
        <ele>38.599998474121</ele>
        <time>2021-08-09T10:41:45Z</time>
      </trkpt>
      <trkpt lat="43.24676" lon="2.86107">
        <ele>38.400001525879</ele>
        <time>2021-08-09T10:41:53Z</time>
      </trkpt>
      <trkpt lat="43.24658" lon="2.86261">
        <ele>38</ele>
        <time>2021-08-09T10:42:16Z</time>
      </trkpt>
      <trkpt lat="43.24651" lon="2.86287">
        <ele>38.400001525879</ele>
        <time>2021-08-09T10:42:21Z</time>
      </trkpt>
      <trkpt lat="43.24645" lon="2.86317">
        <ele>38.400001525879</ele>
        <time>2021-08-09T10:42:26Z</time>
      </trkpt>
      <trkpt lat="43.24645" lon="2.86405">
        <ele>37.799999237061</ele>
        <time>2021-08-09T10:42:40Z</time>
      </trkpt>
      <trkpt lat="43.24663" lon="2.86623">
        <ele>37.400001525879</ele>
        <time>2021-08-09T10:43:14Z</time>
      </trkpt>
      <trkpt lat="43.24783" lon="2.86917">
        <ele>38.200000762939</ele>
        <time>2021-08-09T10:44:03Z</time>
      </trkpt>
      <trkpt lat="43.24783" lon="2.86962">
        <ele>38.200000762939</ele>
        <time>2021-08-09T10:44:10Z</time>
      </trkpt>
      <trkpt lat="43.24797" lon="2.87157">
        <ele>38.200000762939</ele>
        <time>2021-08-09T10:44:38Z</time>
      </trkpt>
      <trkpt lat="43.24786" lon="2.873">
        <ele>37.799999237061</ele>
        <time>2021-08-09T10:44:57Z</time>
      </trkpt>
      <trkpt lat="43.24789" lon="2.87352">
        <ele>38.200000762939</ele>
        <time>2021-08-09T10:45:04Z</time>
      </trkpt>
      <trkpt lat="43.24791" lon="2.87374">
        <ele>38.200000762939</ele>
        <time>2021-08-09T10:45:07Z</time>
      </trkpt>
      <trkpt lat="43.24782" lon="2.87435">
        <ele>38.200000762939</ele>
        <time>2021-08-09T10:45:14Z</time>
      </trkpt>
      <trkpt lat="43.24765" lon="2.87533">
        <ele>36.400001525879</ele>
        <time>2021-08-09T10:45:25Z</time>
      </trkpt>
      <trkpt lat="43.24755" lon="2.87574">
        <ele>36.200000762939</ele>
        <time>2021-08-09T10:45:30Z</time>
      </trkpt>
      <trkpt lat="43.24732" lon="2.87643">
        <ele>35.400001525879</ele>
        <time>2021-08-09T10:45:39Z</time>
      </trkpt>
      <trkpt lat="43.2461" lon="2.88031">
        <ele>32.400001525879</ele>
        <time>2021-08-09T10:46:32Z</time>
      </trkpt>
      <trkpt lat="43.24504" lon="2.88439">
        <ele>31.200000762939</ele>
        <time>2021-08-09T10:47:24Z</time>
      </trkpt>
      <trkpt lat="43.24493" lon="2.8846">
        <ele>31.200000762939</ele>
        <time>2021-08-09T10:47:27Z</time>
      </trkpt>
      <trkpt lat="43.2447" lon="2.88502">
        <ele>29.799999237061</ele>
        <time>2021-08-09T10:47:32Z</time>
      </trkpt>
      <trkpt lat="43.24456" lon="2.88651">
        <ele>27.200000762939</ele>
        <time>2021-08-09T10:47:47Z</time>
      </trkpt>
      <trkpt lat="43.24459" lon="2.88687">
        <ele>27.200000762939</ele>
        <time>2021-08-09T10:47:52Z</time>
      </trkpt>
      <trkpt lat="43.24463" lon="2.88739">
        <ele>28</ele>
        <time>2021-08-09T10:48:00Z</time>
      </trkpt>
      <trkpt lat="43.24459" lon="2.888">
        <ele>28.200000762939</ele>
        <time>2021-08-09T10:48:09Z</time>
      </trkpt>
      <trkpt lat="43.24456" lon="2.88885">
        <ele>28.200000762939</ele>
        <time>2021-08-09T10:48:22Z</time>
      </trkpt>
      <trkpt lat="43.24456" lon="2.8889">
        <ele>28.39999961853</ele>
        <time>2021-08-09T10:48:23Z</time>
      </trkpt>
      <trkpt lat="43.24457" lon="2.88923">
        <ele>28.200000762939</ele>
        <time>2021-08-09T10:48:28Z</time>
      </trkpt>
      <trkpt lat="43.24456" lon="2.88942">
        <ele>28.200000762939</ele>
        <time>2021-08-09T10:48:31Z</time>
      </trkpt>
      <trkpt lat="43.24457" lon="2.88959">
        <ele>28.200000762939</ele>
        <time>2021-08-09T10:48:34Z</time>
      </trkpt>
      <trkpt lat="43.24463" lon="2.89071">
        <ele>29</ele>
        <time>2021-08-09T10:48:56Z</time>
      </trkpt>
      <trkpt lat="43.2447" lon="2.89218">
        <ele>29.39999961853</ele>
        <time>2021-08-09T10:49:14Z</time>
      </trkpt>
      <trkpt lat="43.24493" lon="2.89361">
        <ele>26.200000762939</ele>
        <time>2021-08-09T10:49:32Z</time>
      </trkpt>
      <trkpt lat="43.24459" lon="2.89437">
        <ele>27.39999961853</ele>
        <time>2021-08-09T10:49:53Z</time>
      </trkpt>
      <trkpt lat="43.24425" lon="2.89464">
        <ele>30.60000038147</ele>
        <time>2021-08-09T11:42:31Z</time>
      </trkpt>
      <trkpt lat="43.24424" lon="2.89464">
        <ele>30.60000038147</ele>
        <time>2021-08-09T11:42:32Z</time>
      </trkpt>
      <trkpt lat="43.24449" lon="2.89477">
        <ele>30.200000762939</ele>
        <time>2021-08-09T11:44:05Z</time>
      </trkpt>
      <trkpt lat="43.24443" lon="2.89451">
        <ele>30.200000762939</ele>
        <time>2021-08-09T11:50:55Z</time>
      </trkpt>
      <trkpt lat="43.24416" lon="2.89601">
        <ele>30.39999961853</ele>
        <time>2021-08-09T11:51:34Z</time>
      </trkpt>
      <trkpt lat="43.24425" lon="2.89887">
        <ele>30.200000762939</ele>
        <time>2021-08-09T11:52:19Z</time>
      </trkpt>
      <trkpt lat="43.24425" lon="2.89893">
        <ele>30.200000762939</ele>
        <time>2021-08-09T11:52:20Z</time>
      </trkpt>
      <trkpt lat="43.2444" lon="2.90073">
        <ele>30.60000038147</ele>
        <time>2021-08-09T11:52:48Z</time>
      </trkpt>
      <trkpt lat="43.24452" lon="2.9014">
        <ele>30.39999961853</ele>
        <time>2021-08-09T11:52:58Z</time>
      </trkpt>
      <trkpt lat="43.24493" lon="2.90721">
        <ele>30.799999237061</ele>
        <time>2021-08-09T11:54:31Z</time>
      </trkpt>
      <trkpt lat="43.24467" lon="2.90863">
        <ele>30.60000038147</ele>
        <time>2021-08-09T11:54:53Z</time>
      </trkpt>
      <trkpt lat="43.24376" lon="2.91189">
        <ele>29.60000038147</ele>
        <time>2021-08-09T11:55:45Z</time>
      </trkpt>
      <trkpt lat="43.24373" lon="2.91196">
        <ele>29.799999237061</ele>
        <time>2021-08-09T11:55:46Z</time>
      </trkpt>
      <trkpt lat="43.24357" lon="2.91242">
        <ele>29.39999961853</ele>
        <time>2021-08-09T11:55:53Z</time>
      </trkpt>
      <trkpt lat="43.24342" lon="2.91347">
        <ele>29.200000762939</ele>
        <time>2021-08-09T11:56:08Z</time>
      </trkpt>
      <trkpt lat="43.2434" lon="2.91414">
        <ele>28.60000038147</ele>
        <time>2021-08-09T11:56:17Z</time>
      </trkpt>
      <trkpt lat="43.2431" lon="2.91668">
        <ele>25.60000038147</ele>
        <time>2021-08-09T11:56:47Z</time>
      </trkpt>
      <trkpt lat="43.24321" lon="2.9186">
        <ele>24</ele>
        <time>2021-08-09T11:57:13Z</time>
      </trkpt>
      <trkpt lat="43.2432" lon="2.91952">
        <ele>23.60000038147</ele>
        <time>2021-08-09T11:57:26Z</time>
      </trkpt>
      <trkpt lat="43.24301" lon="2.92118">
        <ele>24</ele>
        <time>2021-08-09T11:57:56Z</time>
      </trkpt>
      <trkpt lat="43.24298" lon="2.92148">
        <ele>24</ele>
        <time>2021-08-09T11:58:03Z</time>
      </trkpt>
      <trkpt lat="43.24274" lon="2.92216">
        <ele>25.39999961853</ele>
        <time>2021-08-09T11:58:23Z</time>
      </trkpt>
      <trkpt lat="43.24267" lon="2.92235">
        <ele>25.799999237061</ele>
        <time>2021-08-09T11:58:29Z</time>
      </trkpt>
      <trkpt lat="43.24278" lon="2.92318">
        <ele>28.60000038147</ele>
        <time>2021-08-09T11:58:54Z</time>
      </trkpt>
      <trkpt lat="43.24421" lon="2.92402">
        <ele>27.39999961853</ele>
        <time>2021-08-09T11:59:27Z</time>
      </trkpt>
      <trkpt lat="43.24433" lon="2.9241">
        <ele>27.39999961853</ele>
        <time>2021-08-09T11:59:29Z</time>
      </trkpt>
      <trkpt lat="43.24545" lon="2.92509">
        <ele>24.60000038147</ele>
        <time>2021-08-09T11:59:48Z</time>
      </trkpt>
      <trkpt lat="43.24578" lon="2.92535">
        <ele>23.799999237061</ele>
        <time>2021-08-09T11:59:55Z</time>
      </trkpt>
      <trkpt lat="43.24689" lon="2.92602">
        <ele>22.39999961853</ele>
        <time>2021-08-09T12:00:18Z</time>
      </trkpt>
      <trkpt lat="43.24755" lon="2.92654">
        <ele>22.200000762939</ele>
        <time>2021-08-09T12:00:34Z</time>
      </trkpt>
      <trkpt lat="43.24833" lon="2.92845">
        <ele>22.200000762939</ele>
        <time>2021-08-09T12:01:03Z</time>
      </trkpt>
      <trkpt lat="43.24876" lon="2.92891">
        <ele>22</ele>
        <time>2021-08-09T12:01:15Z</time>
      </trkpt>
      <trkpt lat="43.24898" lon="2.92901">
        <ele>21.799999237061</ele>
        <time>2021-08-09T12:01:19Z</time>
      </trkpt>
      <trkpt lat="43.24984" lon="2.92915">
        <ele>21.60000038147</ele>
        <time>2021-08-09T12:01:33Z</time>
      </trkpt>
      <trkpt lat="43.25136" lon="2.92935">
        <ele>21.60000038147</ele>
        <time>2021-08-09T12:01:59Z</time>
      </trkpt>
      <trkpt lat="43.252" lon="2.93011">
        <ele>21.799999237061</ele>
        <time>2021-08-09T12:02:15Z</time>
      </trkpt>
      <trkpt lat="43.25253" lon="2.93154">
        <ele>22</ele>
        <time>2021-08-09T12:02:37Z</time>
      </trkpt>
      <trkpt lat="43.25292" lon="2.93223">
        <ele>22.200000762939</ele>
        <time>2021-08-09T12:02:49Z</time>
      </trkpt>
      <trkpt lat="43.25565" lon="2.93648">
        <ele>22</ele>
        <time>2021-08-09T12:04:04Z</time>
      </trkpt>
      <trkpt lat="43.25585" lon="2.9369">
        <ele>22</ele>
        <time>2021-08-09T12:04:11Z</time>
      </trkpt>
      <trkpt lat="43.25622" lon="2.93776">
        <ele>23.60000038147</ele>
        <time>2021-08-09T12:04:29Z</time>
      </trkpt>
      <trkpt lat="43.25644" lon="2.9382">
        <ele>23.799999237061</ele>
        <time>2021-08-09T12:04:37Z</time>
      </trkpt>
      <trkpt lat="43.25684" lon="2.93932">
        <ele>22.60000038147</ele>
        <time>2021-08-09T12:04:51Z</time>
      </trkpt>
      <trkpt lat="43.25704" lon="2.94038">
        <ele>22.200000762939</ele>
        <time>2021-08-09T12:05:03Z</time>
      </trkpt>
      <trkpt lat="43.25718" lon="2.94115">
        <ele>22.39999961853</ele>
        <time>2021-08-09T12:05:15Z</time>
      </trkpt>
      <trkpt lat="43.25707" lon="2.94188">
        <ele>23.60000038147</ele>
        <time>2021-08-09T12:05:29Z</time>
      </trkpt>
      <trkpt lat="43.25707" lon="2.94201">
        <ele>23.60000038147</ele>
        <time>2021-08-09T12:05:31Z</time>
      </trkpt>
      <trkpt lat="43.257" lon="2.94279">
        <ele>22.799999237061</ele>
        <time>2021-08-09T12:05:43Z</time>
      </trkpt>
      <trkpt lat="43.257" lon="2.94316">
        <ele>22.799999237061</ele>
        <time>2021-08-09T12:05:49Z</time>
      </trkpt>
      <trkpt lat="43.25702" lon="2.94403">
        <ele>23</ele>
        <time>2021-08-09T12:06:02Z</time>
      </trkpt>
      <trkpt lat="43.25695" lon="2.94444">
        <ele>23</ele>
        <time>2021-08-09T12:06:09Z</time>
      </trkpt>
      <trkpt lat="43.25689" lon="2.94477">
        <ele>23</ele>
        <time>2021-08-09T12:06:14Z</time>
      </trkpt>
      <trkpt lat="43.25648" lon="2.9472">
        <ele>22.39999961853</ele>
        <time>2021-08-09T12:06:52Z</time>
      </trkpt>
      <trkpt lat="43.2574" lon="2.948">
        <ele>21.39999961853</ele>
        <time>2021-08-09T12:07:22Z</time>
      </trkpt>
      <trkpt lat="43.2574" lon="2.94812">
        <ele>21.60000038147</ele>
        <time>2021-08-09T12:07:24Z</time>
      </trkpt>
      <trkpt lat="43.25736" lon="2.94869">
        <ele>22.200000762939</ele>
        <time>2021-08-09T12:07:35Z</time>
      </trkpt>
      <trkpt lat="43.25732" lon="2.94886">
        <ele>22.200000762939</ele>
        <time>2021-08-09T12:07:38Z</time>
      </trkpt>
      <trkpt lat="43.25721" lon="2.94931">
        <ele>22.60000038147</ele>
        <time>2021-08-09T12:07:46Z</time>
      </trkpt>
      <trkpt lat="43.2574" lon="2.94999">
        <ele>21.60000038147</ele>
        <time>2021-08-09T12:08:20Z</time>
      </trkpt>
      <trkpt lat="43.25761" lon="2.94982">
        <ele>21.799999237061</ele>
        <time>2021-08-09T12:08:27Z</time>
      </trkpt>
      <trkpt lat="43.25857" lon="2.94892">
        <ele>23.200000762939</ele>
        <time>2021-08-09T12:08:54Z</time>
      </trkpt>
      <trkpt lat="43.25931" lon="2.94818">
        <ele>23.60000038147</ele>
        <time>2021-08-09T12:09:14Z</time>
      </trkpt>
      <trkpt lat="43.25977" lon="2.94807">
        <ele>23.60000038147</ele>
        <time>2021-08-09T12:09:25Z</time>
      </trkpt>
      <trkpt lat="43.26096" lon="2.94805">
        <ele>23.39999961853</ele>
        <time>2021-08-09T12:09:50Z</time>
      </trkpt>
      <trkpt lat="43.2622" lon="2.94813">
        <ele>23</ele>
        <time>2021-08-09T12:10:28Z</time>
      </trkpt>
      <trkpt lat="43.26242" lon="2.94814">
        <ele>23.200000762939</ele>
        <time>2021-08-09T12:10:33Z</time>
      </trkpt>
      <trkpt lat="43.2646" lon="2.9481">
        <ele>23.200000762939</ele>
        <time>2021-08-09T12:11:18Z</time>
      </trkpt>
      <trkpt lat="43.26489" lon="2.94807">
        <ele>23.200000762939</ele>
        <time>2021-08-09T12:11:24Z</time>
      </trkpt>
      <trkpt lat="43.26564" lon="2.9482">
        <ele>23.39999961853</ele>
        <time>2021-08-09T12:11:38Z</time>
      </trkpt>
      <trkpt lat="43.2659" lon="2.94826">
        <ele>23.39999961853</ele>
        <time>2021-08-09T12:11:43Z</time>
      </trkpt>
      <trkpt lat="43.26697" lon="2.94894">
        <ele>23.799999237061</ele>
        <time>2021-08-09T12:12:04Z</time>
      </trkpt>
      <trkpt lat="43.26844" lon="2.94994">
        <ele>26.200000762939</ele>
        <time>2021-08-09T12:12:38Z</time>
      </trkpt>
      <trkpt lat="43.2688" lon="2.9501">
        <ele>26.60000038147</ele>
        <time>2021-08-09T12:12:47Z</time>
      </trkpt>
      <trkpt lat="43.26962" lon="2.95044">
        <ele>27.60000038147</ele>
        <time>2021-08-09T12:13:08Z</time>
      </trkpt>
      <trkpt lat="43.27053" lon="2.95126">
        <ele>31</ele>
        <time>2021-08-09T12:13:36Z</time>
      </trkpt>
      <trkpt lat="43.27234" lon="2.95286">
        <ele>33</ele>
        <time>2021-08-09T12:14:26Z</time>
      </trkpt>
      <trkpt lat="43.27267" lon="2.95304">
        <ele>33.200000762939</ele>
        <time>2021-08-09T12:14:33Z</time>
      </trkpt>
      <trkpt lat="43.27435" lon="2.95395">
        <ele>36.799999237061</ele>
        <time>2021-08-09T12:15:18Z</time>
      </trkpt>
      <trkpt lat="43.2744" lon="2.954">
        <ele>36.799999237061</ele>
        <time>2021-08-09T12:15:20Z</time>
      </trkpt>
      <trkpt lat="43.2759" lon="2.95577">
        <ele>39.599998474121</ele>
        <time>2021-08-09T12:16:05Z</time>
      </trkpt>
      <trkpt lat="43.27617" lon="2.95603">
        <ele>39.799999237061</ele>
        <time>2021-08-09T12:16:13Z</time>
      </trkpt>
      <trkpt lat="43.27695" lon="2.95664">
        <ele>42</ele>
        <time>2021-08-09T12:16:38Z</time>
      </trkpt>
      <trkpt lat="43.27748" lon="2.95702">
        <ele>42.799999237061</ele>
        <time>2021-08-09T12:20:02Z</time>
      </trkpt>
      <trkpt lat="43.27773" lon="2.95722">
        <ele>42.200000762939</ele>
        <time>2021-08-09T12:20:47Z</time>
      </trkpt>
      <trkpt lat="43.27782" lon="2.95729">
        <ele>42.200000762939</ele>
        <time>2021-08-09T12:20:49Z</time>
      </trkpt>
      <trkpt lat="43.27824" lon="2.95759">
        <ele>42</ele>
        <time>2021-08-09T12:20:57Z</time>
      </trkpt>
      <trkpt lat="43.27887" lon="2.95799">
        <ele>40.799999237061</ele>
        <time>2021-08-09T12:21:06Z</time>
      </trkpt>
      <trkpt lat="43.27968" lon="2.95838">
        <ele>38.599998474121</ele>
        <time>2021-08-09T12:21:16Z</time>
      </trkpt>
      <trkpt lat="43.28059" lon="2.95919">
        <ele>35</ele>
        <time>2021-08-09T12:21:33Z</time>
      </trkpt>
      <trkpt lat="43.28082" lon="2.95943">
        <ele>34.799999237061</ele>
        <time>2021-08-09T12:21:39Z</time>
      </trkpt>
      <trkpt lat="43.28107" lon="2.95967">
        <ele>35</ele>
        <time>2021-08-09T12:21:45Z</time>
      </trkpt>
      <trkpt lat="43.2811" lon="2.95972">
        <ele>35</ele>
        <time>2021-08-09T12:21:46Z</time>
      </trkpt>
      <trkpt lat="43.2817" lon="2.96072">
        <ele>35.200000762939</ele>
        <time>2021-08-09T12:23:16Z</time>
      </trkpt>
      <trkpt lat="43.28255" lon="2.96207">
        <ele>37.599998474121</ele>
        <time>2021-08-09T12:23:57Z</time>
      </trkpt>
      <trkpt lat="43.28302" lon="2.96247">
        <ele>37.599998474121</ele>
        <time>2021-08-09T12:24:07Z</time>
      </trkpt>
      <trkpt lat="43.28355" lon="2.9629">
        <ele>36.799999237061</ele>
        <time>2021-08-09T12:24:16Z</time>
      </trkpt>
      <trkpt lat="43.28413" lon="2.96313">
        <ele>35.400001525879</ele>
        <time>2021-08-09T12:24:24Z</time>
      </trkpt>
      <trkpt lat="43.28473" lon="2.96337">
        <ele>33.799999237061</ele>
        <time>2021-08-09T12:24:33Z</time>
      </trkpt>
      <trkpt lat="43.2855" lon="2.96395">
        <ele>32</ele>
        <time>2021-08-09T12:24:46Z</time>
      </trkpt>
      <trkpt lat="43.28556" lon="2.96399">
        <ele>32.200000762939</ele>
        <time>2021-08-09T12:24:47Z</time>
      </trkpt>
      <trkpt lat="43.28595" lon="2.96434">
        <ele>32</ele>
        <time>2021-08-09T12:24:54Z</time>
      </trkpt>
      <trkpt lat="43.28605" lon="2.96445">
        <ele>31.799999237061</ele>
        <time>2021-08-09T12:24:56Z</time>
      </trkpt>
      <trkpt lat="43.28641" lon="2.96486">
        <ele>31.799999237061</ele>
        <time>2021-08-09T12:25:03Z</time>
      </trkpt>
      <trkpt lat="43.28687" lon="2.96667">
        <ele>31.200000762939</ele>
        <time>2021-08-09T12:25:30Z</time>
      </trkpt>
      <trkpt lat="43.28702" lon="2.96778">
        <ele>31.60000038147</ele>
        <time>2021-08-09T12:25:48Z</time>
      </trkpt>
      <trkpt lat="43.28729" lon="2.96856">
        <ele>32.599998474121</ele>
        <time>2021-08-09T12:26:06Z</time>
      </trkpt>
      <trkpt lat="43.28735" lon="2.96861">
        <ele>33.200000762939</ele>
        <time>2021-08-09T12:26:10Z</time>
      </trkpt>
      <trkpt lat="43.28744" lon="2.96862">
        <ele>33.400001525879</ele>
        <time>2021-08-09T12:26:15Z</time>
      </trkpt>
      <trkpt lat="43.28772" lon="2.9687">
        <ele>35.400001525879</ele>
        <time>2021-08-09T12:26:30Z</time>
      </trkpt>
      <trkpt lat="43.28783" lon="2.96878">
        <ele>36.599998474121</ele>
        <time>2021-08-09T12:26:38Z</time>
      </trkpt>
      <trkpt lat="43.28854" lon="2.96981">
        <ele>38</ele>
        <time>2021-08-09T12:27:11Z</time>
      </trkpt>
      <trkpt lat="43.28858" lon="2.9707">
        <ele>40.599998474121</ele>
        <time>2021-08-09T12:27:41Z</time>
      </trkpt>
      <trkpt lat="43.28859" lon="2.97084">
        <ele>40.599998474121</ele>
        <time>2021-08-09T12:27:46Z</time>
      </trkpt>
      <trkpt lat="43.28871" lon="2.97156">
        <ele>43.799999237061</ele>
        <time>2021-08-09T12:28:12Z</time>
      </trkpt>
      <trkpt lat="43.2887" lon="2.97191">
        <ele>44.200000762939</ele>
        <time>2021-08-09T12:28:26Z</time>
      </trkpt>
      <trkpt lat="43.28874" lon="2.97197">
        <ele>44.200000762939</ele>
        <time>2021-08-09T12:28:29Z</time>
      </trkpt>
      <trkpt lat="43.28959" lon="2.97118">
        <ele>42.599998474121</ele>
        <time>2021-08-09T12:29:06Z</time>
      </trkpt>
      <trkpt lat="43.28964" lon="2.97125">
        <ele>42.200000762939</ele>
        <time>2021-08-09T12:29:07Z</time>
      </trkpt>
      <trkpt lat="43.29002" lon="2.97181">
        <ele>40.799999237061</ele>
        <time>2021-08-09T12:29:13Z</time>
      </trkpt>
      <trkpt lat="43.29008" lon="2.97192">
        <ele>40.599998474121</ele>
        <time>2021-08-09T12:29:14Z</time>
      </trkpt>
      <trkpt lat="43.2906" lon="2.97297">
        <ele>38.599998474121</ele>
        <time>2021-08-09T12:29:23Z</time>
      </trkpt>
      <trkpt lat="43.29104" lon="2.97371">
        <ele>35.799999237061</ele>
        <time>2021-08-09T12:29:30Z</time>
      </trkpt>
      <trkpt lat="43.29174" lon="2.97504">
        <ele>32.200000762939</ele>
        <time>2021-08-09T12:29:44Z</time>
      </trkpt>
      <trkpt lat="43.29254" lon="2.97606">
        <ele>29.200000762939</ele>
        <time>2021-08-09T12:29:58Z</time>
      </trkpt>
      <trkpt lat="43.29259" lon="2.97613">
        <ele>29.200000762939</ele>
        <time>2021-08-09T12:29:59Z</time>
      </trkpt>
      <trkpt lat="43.2931" lon="2.97671">
        <ele>28.39999961853</ele>
        <time>2021-08-09T12:30:08Z</time>
      </trkpt>
      <trkpt lat="43.29337" lon="2.97713">
        <ele>26.60000038147</ele>
        <time>2021-08-09T12:30:14Z</time>
      </trkpt>
      <trkpt lat="43.2937" lon="2.97832">
        <ele>25.39999961853</ele>
        <time>2021-08-09T12:30:31Z</time>
      </trkpt>
      <trkpt lat="43.29377" lon="2.97855">
        <ele>25.200000762939</ele>
        <time>2021-08-09T12:30:35Z</time>
      </trkpt>
      <trkpt lat="43.2939" lon="2.97912">
        <ele>25.60000038147</ele>
        <time>2021-08-09T12:30:45Z</time>
      </trkpt>
      <trkpt lat="43.2945" lon="2.9822">
        <ele>23</ele>
        <time>2021-08-09T12:31:24Z</time>
      </trkpt>
      <trkpt lat="43.29487" lon="2.9841">
        <ele>23</ele>
        <time>2021-08-09T12:31:52Z</time>
      </trkpt>
      <trkpt lat="43.29505" lon="2.98463">
        <ele>23</ele>
        <time>2021-08-09T12:32:01Z</time>
      </trkpt>
      <trkpt lat="43.29523" lon="2.98509">
        <ele>23.200000762939</ele>
        <time>2021-08-09T12:32:09Z</time>
      </trkpt>
      <trkpt lat="43.2954" lon="2.98551">
        <ele>24</ele>
        <time>2021-08-09T12:32:17Z</time>
      </trkpt>
      <trkpt lat="43.296" lon="2.98683">
        <ele>21.39999961853</ele>
        <time>2021-08-09T12:32:40Z</time>
      </trkpt>
      <trkpt lat="43.29647" lon="2.98799">
        <ele>20.799999237061</ele>
        <time>2021-08-09T12:32:58Z</time>
      </trkpt>
      <trkpt lat="43.2969" lon="2.98901">
        <ele>21.200000762939</ele>
        <time>2021-08-09T12:33:14Z</time>
      </trkpt>
      <trkpt lat="43.29752" lon="2.99006">
        <ele>21</ele>
        <time>2021-08-09T12:33:34Z</time>
      </trkpt>
      <trkpt lat="43.29769" lon="2.99045">
        <ele>21.39999961853</ele>
        <time>2021-08-09T12:33:41Z</time>
      </trkpt>
      <trkpt lat="43.29782" lon="2.99082">
        <ele>21</ele>
        <time>2021-08-09T12:33:48Z</time>
      </trkpt>
      <trkpt lat="43.29847" lon="2.99311">
        <ele>22.60000038147</ele>
        <time>2021-08-09T12:34:28Z</time>
      </trkpt>
      <trkpt lat="43.29871" lon="2.99371">
        <ele>22.799999237061</ele>
        <time>2021-08-09T12:34:41Z</time>
      </trkpt>
      <trkpt lat="43.30097" lon="2.99777">
        <ele>19.799999237061</ele>
        <time>2021-08-09T12:35:44Z</time>
      </trkpt>
      <trkpt lat="43.30282" lon="3.00107">
        <ele>18.200000762939</ele>
        <time>2021-08-09T12:36:36Z</time>
      </trkpt>
      <trkpt lat="43.3032" lon="3.00222">
        <ele>18.200000762939</ele>
        <time>2021-08-09T12:36:53Z</time>
      </trkpt>
      <trkpt lat="43.30459" lon="3.00579">
        <ele>21.799999237061</ele>
        <time>2021-08-09T12:38:06Z</time>
      </trkpt>
      <trkpt lat="43.3046" lon="3.00585">
        <ele>22</ele>
        <time>2021-08-09T12:38:08Z</time>
      </trkpt>
      <trkpt lat="43.30471" lon="3.00645">
        <ele>25.39999961853</ele>
        <time>2021-08-09T12:38:29Z</time>
      </trkpt>
      <trkpt lat="43.30474" lon="3.00709">
        <ele>26.200000762939</ele>
        <time>2021-08-09T12:38:43Z</time>
      </trkpt>
      <trkpt lat="43.30476" lon="3.00722">
        <ele>26</ele>
        <time>2021-08-09T12:38:45Z</time>
      </trkpt>
      <trkpt lat="43.30476" lon="3.00729">
        <ele>26</ele>
        <time>2021-08-09T12:38:46Z</time>
      </trkpt>
      <trkpt lat="43.30491" lon="3.01159">
        <ele>26.39999961853</ele>
        <time>2021-08-09T12:39:56Z</time>
      </trkpt>
      <trkpt lat="43.30492" lon="3.01206">
        <ele>27.799999237061</ele>
        <time>2021-08-09T12:40:08Z</time>
      </trkpt>
      <trkpt lat="43.30476" lon="3.01297">
        <ele>31.200000762939</ele>
        <time>2021-08-09T12:40:32Z</time>
      </trkpt>
      <trkpt lat="43.30469" lon="3.01316">
        <ele>31.200000762939</ele>
        <time>2021-08-09T12:40:37Z</time>
      </trkpt>
      <trkpt lat="43.30432" lon="3.01414">
        <ele>32.200000762939</ele>
        <time>2021-08-09T12:40:58Z</time>
      </trkpt>
      <trkpt lat="43.30423" lon="3.01512">
        <ele>32.400001525879</ele>
        <time>2021-08-09T12:41:15Z</time>
      </trkpt>
      <trkpt lat="43.3042" lon="3.01569">
        <ele>32.400001525879</ele>
        <time>2021-08-09T12:41:25Z</time>
      </trkpt>
      <trkpt lat="43.30411" lon="3.01741">
        <ele>32.200000762939</ele>
        <time>2021-08-09T12:41:50Z</time>
      </trkpt>
      <trkpt lat="43.30411" lon="3.01846">
        <ele>30.799999237061</ele>
        <time>2021-08-09T12:42:04Z</time>
      </trkpt>
      <trkpt lat="43.30413" lon="3.0187">
        <ele>30.799999237061</ele>
        <time>2021-08-09T12:42:07Z</time>
      </trkpt>
      <trkpt lat="43.30413" lon="3.02129">
        <ele>28.799999237061</ele>
        <time>2021-08-09T12:42:39Z</time>
      </trkpt>
      <trkpt lat="43.30404" lon="3.02215">
        <ele>27.200000762939</ele>
        <time>2021-08-09T12:42:50Z</time>
      </trkpt>
      <trkpt lat="43.30384" lon="3.02378">
        <ele>27</ele>
        <time>2021-08-09T12:43:11Z</time>
      </trkpt>
      <trkpt lat="43.30379" lon="3.0258">
        <ele>25.39999961853</ele>
        <time>2021-08-09T12:43:38Z</time>
      </trkpt>
      <trkpt lat="43.30372" lon="3.02626">
        <ele>25.39999961853</ele>
        <time>2021-08-09T12:43:44Z</time>
      </trkpt>
      <trkpt lat="43.3036" lon="3.02697">
        <ele>22.200000762939</ele>
        <time>2021-08-09T12:50:00Z</time>
      </trkpt>
      <trkpt lat="43.30359" lon="3.02702">
        <ele>22.200000762939</ele>
        <time>2021-08-09T12:50:02Z</time>
      </trkpt>
      <trkpt lat="43.3033" lon="3.02933">
        <ele>20.39999961853</ele>
        <time>2021-08-09T12:50:38Z</time>
      </trkpt>
      <trkpt lat="43.30316" lon="3.03049">
        <ele>18.200000762939</ele>
        <time>2021-08-09T12:50:51Z</time>
      </trkpt>
      <trkpt lat="43.30365" lon="3.03071">
        <ele>15</ele>
        <time>2021-08-09T12:51:05Z</time>
      </trkpt>
      <trkpt lat="43.30384" lon="3.03069">
        <ele>15</ele>
        <time>2021-08-09T12:51:09Z</time>
      </trkpt>
      <trkpt lat="43.30398" lon="3.03069">
        <ele>14.60000038147</ele>
        <time>2021-08-09T12:51:12Z</time>
      </trkpt>
      <trkpt lat="43.30435" lon="3.03071">
        <ele>14.800000190735</ele>
        <time>2021-08-09T12:51:19Z</time>
      </trkpt>
      <trkpt lat="43.30929" lon="3.03137">
        <ele>14.39999961853</ele>
        <time>2021-08-09T12:52:46Z</time>
      </trkpt>
      <trkpt lat="43.31514" lon="3.03241">
        <ele>13.199999809265</ele>
        <time>2021-08-09T12:54:20Z</time>
      </trkpt>
      <trkpt lat="43.3156" lon="3.03256">
        <ele>13.199999809265</ele>
        <time>2021-08-09T12:54:27Z</time>
      </trkpt>
      <trkpt lat="43.31683" lon="3.03317">
        <ele>11.39999961853</ele>
        <time>2021-08-09T12:54:48Z</time>
      </trkpt>
      <trkpt lat="43.32116" lon="3.03534">
        <ele>12</ele>
        <time>2021-08-09T12:56:05Z</time>
      </trkpt>
      <trkpt lat="43.32549" lon="3.0375">
        <ele>13.60000038147</ele>
        <time>2021-08-09T12:58:03Z</time>
      </trkpt>
      <trkpt lat="43.32597" lon="3.03806">
        <ele>14.199999809265</ele>
        <time>2021-08-09T12:58:24Z</time>
      </trkpt>
      <trkpt lat="43.32724" lon="3.03933">
        <ele>16.60000038147</ele>
        <time>2021-08-09T12:59:02Z</time>
      </trkpt>
      <trkpt lat="43.32774" lon="3.03988">
        <ele>18.39999961853</ele>
        <time>2021-08-09T12:59:32Z</time>
      </trkpt>
      <trkpt lat="43.32785" lon="3.03993">
        <ele>19</ele>
        <time>2021-08-09T12:59:38Z</time>
      </trkpt>
      <trkpt lat="43.32842" lon="3.04048">
        <ele>22.39999961853</ele>
        <time>2021-08-09T13:00:10Z</time>
      </trkpt>
      <trkpt lat="43.32866" lon="3.04076">
        <ele>23.799999237061</ele>
        <time>2021-08-09T13:00:21Z</time>
      </trkpt>
      <trkpt lat="43.32903" lon="3.04128">
        <ele>25.60000038147</ele>
        <time>2021-08-09T13:00:36Z</time>
      </trkpt>
      <trkpt lat="43.32905" lon="3.04135">
        <ele>26</ele>
        <time>2021-08-09T13:00:39Z</time>
      </trkpt>
      <trkpt lat="43.32908" lon="3.04157">
        <ele>27.39999961853</ele>
        <time>2021-08-09T13:00:47Z</time>
      </trkpt>
      <trkpt lat="43.32906" lon="3.04241">
        <ele>29.799999237061</ele>
        <time>2021-08-09T13:01:14Z</time>
      </trkpt>
      <trkpt lat="43.32896" lon="3.04289">
        <ele>30.39999961853</ele>
        <time>2021-08-09T13:01:26Z</time>
      </trkpt>
      <trkpt lat="43.32894" lon="3.04318">
        <ele>30.200000762939</ele>
        <time>2021-08-09T13:01:33Z</time>
      </trkpt>
      <trkpt lat="43.32899" lon="3.04357">
        <ele>30.200000762939</ele>
        <time>2021-08-09T13:01:41Z</time>
      </trkpt>
      <trkpt lat="43.32899" lon="3.04362">
        <ele>30.200000762939</ele>
        <time>2021-08-09T13:01:44Z</time>
      </trkpt>
      <trkpt lat="43.32883" lon="3.04375">
        <ele>29.60000038147</ele>
        <time>2021-08-09T13:01:53Z</time>
      </trkpt>
      <trkpt lat="43.32868" lon="3.04484">
        <ele>27.39999961853</ele>
        <time>2021-08-09T13:02:23Z</time>
      </trkpt>
      <trkpt lat="43.32852" lon="3.0448">
        <ele>26</ele>
        <time>2021-08-09T13:02:37Z</time>
      </trkpt>
      <trkpt lat="43.32857" lon="3.04463">
        <ele>26.200000762939</ele>
        <time>2021-08-09T13:02:49Z</time>
      </trkpt>
      <trkpt lat="43.32831" lon="3.04428">
        <ele>29</ele>
        <time>2021-08-09T13:36:09Z</time>
      </trkpt>
      <trkpt lat="43.3283" lon="3.04401">
        <ele>29.39999961853</ele>
        <time>2021-08-09T13:36:27Z</time>
      </trkpt>
      <trkpt lat="43.3287" lon="3.04463">
        <ele>30</ele>
        <time>2021-08-09T13:36:57Z</time>
      </trkpt>
      <trkpt lat="43.32861" lon="3.04481">
        <ele>29.799999237061</ele>
        <time>2021-08-09T13:37:01Z</time>
      </trkpt>
      <trkpt lat="43.32845" lon="3.04511">
        <ele>29</ele>
        <time>2021-08-09T13:37:07Z</time>
      </trkpt>
      <trkpt lat="43.32843" lon="3.04516">
        <ele>28.799999237061</ele>
        <time>2021-08-09T13:37:08Z</time>
      </trkpt>
      <trkpt lat="43.32803" lon="3.04651">
        <ele>25.799999237061</ele>
        <time>2021-08-09T13:37:31Z</time>
      </trkpt>
      <trkpt lat="43.3276" lon="3.04683">
        <ele>23</ele>
        <time>2021-08-09T13:37:50Z</time>
      </trkpt>
      <trkpt lat="43.32766" lon="3.04667">
        <ele>22.200000762939</ele>
        <time>2021-08-09T13:38:29Z</time>
      </trkpt>
      <trkpt lat="43.32746" lon="3.04783">
        <ele>22.200000762939</ele>
        <time>2021-08-09T13:38:57Z</time>
      </trkpt>
      <trkpt lat="43.3271" lon="3.04971">
        <ele>22.200000762939</ele>
        <time>2021-08-09T13:39:39Z</time>
      </trkpt>
      <trkpt lat="43.32676" lon="3.05152">
        <ele>22.200000762939</ele>
        <time>2021-08-09T13:40:10Z</time>
      </trkpt>
      <trkpt lat="43.32654" lon="3.05299">
        <ele>22.39999961853</ele>
        <time>2021-08-09T13:40:33Z</time>
      </trkpt>
      <trkpt lat="43.32566" lon="3.05508">
        <ele>22.60000038147</ele>
        <time>2021-08-09T13:41:07Z</time>
      </trkpt>
      <trkpt lat="43.32543" lon="3.05552">
        <ele>22.799999237061</ele>
        <time>2021-08-09T13:41:15Z</time>
      </trkpt>
      <trkpt lat="43.32485" lon="3.05658">
        <ele>22</ele>
        <time>2021-08-09T13:41:42Z</time>
      </trkpt>
      <trkpt lat="43.32316" lon="3.06198">
        <ele>25</ele>
        <time>2021-08-09T13:43:13Z</time>
      </trkpt>
      <trkpt lat="43.32307" lon="3.06249">
        <ele>25.39999961853</ele>
        <time>2021-08-09T13:43:23Z</time>
      </trkpt>
      <trkpt lat="43.3231" lon="3.06317">
        <ele>26.39999961853</ele>
        <time>2021-08-09T13:43:35Z</time>
      </trkpt>
      <trkpt lat="43.32313" lon="3.06362">
        <ele>26.799999237061</ele>
        <time>2021-08-09T13:43:43Z</time>
      </trkpt>
      <trkpt lat="43.32313" lon="3.06368">
        <ele>26.799999237061</ele>
        <time>2021-08-09T13:43:44Z</time>
      </trkpt>
      <trkpt lat="43.32328" lon="3.06516">
        <ele>28.39999961853</ele>
        <time>2021-08-09T13:44:10Z</time>
      </trkpt>
      <trkpt lat="43.32292" lon="3.07088">
        <ele>31.60000038147</ele>
        <time>2021-08-09T13:45:39Z</time>
      </trkpt>
      <trkpt lat="43.32289" lon="3.07113">
        <ele>32.400001525879</ele>
        <time>2021-08-09T13:45:45Z</time>
      </trkpt>
      <trkpt lat="43.32278" lon="3.07198">
        <ele>35.799999237061</ele>
        <time>2021-08-09T13:46:06Z</time>
      </trkpt>
      <trkpt lat="43.32274" lon="3.0726">
        <ele>37.200000762939</ele>
        <time>2021-08-09T13:46:21Z</time>
      </trkpt>
      <trkpt lat="43.32272" lon="3.07357">
        <ele>39.400001525879</ele>
        <time>2021-08-09T13:46:43Z</time>
      </trkpt>
      <trkpt lat="43.3227" lon="3.07583">
        <ele>42.799999237061</ele>
        <time>2021-08-09T13:47:26Z</time>
      </trkpt>
      <trkpt lat="43.3227" lon="3.0764">
        <ele>43</ele>
        <time>2021-08-09T13:47:36Z</time>
      </trkpt>
      <trkpt lat="43.32262" lon="3.07856">
        <ele>46</ele>
        <time>2021-08-09T13:48:15Z</time>
      </trkpt>
      <trkpt lat="43.32261" lon="3.07893">
        <ele>46.200000762939</ele>
        <time>2021-08-09T13:48:23Z</time>
      </trkpt>
      <trkpt lat="43.32252" lon="3.08008">
        <ele>48.200000762939</ele>
        <time>2021-08-09T13:48:48Z</time>
      </trkpt>
      <trkpt lat="43.32252" lon="3.08176">
        <ele>50.400001525879</ele>
        <time>2021-08-09T13:49:22Z</time>
      </trkpt>
      <trkpt lat="43.32249" lon="3.08198">
        <ele>50.799999237061</ele>
        <time>2021-08-09T13:49:26Z</time>
      </trkpt>
      <trkpt lat="43.32241" lon="3.08321">
        <ele>52.400001525879</ele>
        <time>2021-08-09T13:49:47Z</time>
      </trkpt>
      <trkpt lat="43.32236" lon="3.08541">
        <ele>55.400001525879</ele>
        <time>2021-08-09T13:50:27Z</time>
      </trkpt>
      <trkpt lat="43.32246" lon="3.08692">
        <ele>57.400001525879</ele>
        <time>2021-08-09T13:50:53Z</time>
      </trkpt>
      <trkpt lat="43.32276" lon="3.09022">
        <ele>56.799999237061</ele>
        <time>2021-08-09T13:51:38Z</time>
      </trkpt>
      <trkpt lat="43.32294" lon="3.0909">
        <ele>55.400001525879</ele>
        <time>2021-08-09T13:51:46Z</time>
      </trkpt>
      <trkpt lat="43.32316" lon="3.09143">
        <ele>54.599998474121</ele>
        <time>2021-08-09T13:51:52Z</time>
      </trkpt>
      <trkpt lat="43.32417" lon="3.09337">
        <ele>50.599998474121</ele>
        <time>2021-08-09T13:52:13Z</time>
      </trkpt>
      <trkpt lat="43.32467" lon="3.0945">
        <ele>47.799999237061</ele>
        <time>2021-08-09T13:52:24Z</time>
      </trkpt>
      <trkpt lat="43.32522" lon="3.09607">
        <ele>44.799999237061</ele>
        <time>2021-08-09T13:52:39Z</time>
      </trkpt>
      <trkpt lat="43.32548" lon="3.09712">
        <ele>43.200000762939</ele>
        <time>2021-08-09T13:52:49Z</time>
      </trkpt>
      <trkpt lat="43.32571" lon="3.09819">
        <ele>41.599998474121</ele>
        <time>2021-08-09T13:53:00Z</time>
      </trkpt>
      <trkpt lat="43.32648" lon="3.102">
        <ele>38.400001525879</ele>
        <time>2021-08-09T13:53:41Z</time>
      </trkpt>
      <trkpt lat="43.32727" lon="3.10506">
        <ele>35.200000762939</ele>
        <time>2021-08-09T13:54:15Z</time>
      </trkpt>
      <trkpt lat="43.32878" lon="3.11071">
        <ele>33.799999237061</ele>
        <time>2021-08-09T13:55:27Z</time>
      </trkpt>
      <trkpt lat="43.32869" lon="3.11112">
        <ele>33.400001525879</ele>
        <time>2021-08-09T13:55:34Z</time>
      </trkpt>
      <trkpt lat="43.32861" lon="3.11121">
        <ele>33.400001525879</ele>
        <time>2021-08-09T13:55:36Z</time>
      </trkpt>
      <trkpt lat="43.32846" lon="3.1116">
        <ele>31.39999961853</ele>
        <time>2021-08-09T13:55:47Z</time>
      </trkpt>
      <trkpt lat="43.3286" lon="3.11132">
        <ele>29.60000038147</ele>
        <time>2021-08-09T13:58:37Z</time>
      </trkpt>
      <trkpt lat="43.32889" lon="3.11133">
        <ele>31.200000762939</ele>
        <time>2021-08-09T13:59:06Z</time>
      </trkpt>
      <trkpt lat="43.32888" lon="3.11118">
        <ele>31</ele>
        <time>2021-08-09T13:59:13Z</time>
      </trkpt>
      <trkpt lat="43.32907" lon="3.11114">
        <ele>31.799999237061</ele>
        <time>2021-08-09T13:59:26Z</time>
      </trkpt>
      <trkpt lat="43.32924" lon="3.11485">
        <ele>31.39999961853</ele>
        <time>2021-08-09T14:00:33Z</time>
      </trkpt>
      <trkpt lat="43.32917" lon="3.11545">
        <ele>31.39999961853</ele>
        <time>2021-08-09T14:00:42Z</time>
      </trkpt>
      <trkpt lat="43.32879" lon="3.11743">
        <ele>31.200000762939</ele>
        <time>2021-08-09T14:01:10Z</time>
      </trkpt>
      <trkpt lat="43.32874" lon="3.11946">
        <ele>31.200000762939</ele>
        <time>2021-08-09T14:01:38Z</time>
      </trkpt>
      <trkpt lat="43.32881" lon="3.11976">
        <ele>31</ele>
        <time>2021-08-09T14:01:43Z</time>
      </trkpt>
      <trkpt lat="43.3294" lon="3.12132">
        <ele>30.39999961853</ele>
        <time>2021-08-09T14:02:37Z</time>
      </trkpt>
      <trkpt lat="43.33001" lon="3.12256">
        <ele>29.799999237061</ele>
        <time>2021-08-09T14:03:09Z</time>
      </trkpt>
      <trkpt lat="43.33047" lon="3.12296">
        <ele>30.60000038147</ele>
        <time>2021-08-09T14:03:22Z</time>
      </trkpt>
      <trkpt lat="43.33065" lon="3.1231">
        <ele>30.60000038147</ele>
        <time>2021-08-09T14:03:26Z</time>
      </trkpt>
      <trkpt lat="43.33098" lon="3.12341">
        <ele>30.799999237061</ele>
        <time>2021-08-09T14:03:34Z</time>
      </trkpt>
      <trkpt lat="43.33139" lon="3.1238">
        <ele>31</ele>
        <time>2021-08-09T14:03:44Z</time>
      </trkpt>
      <trkpt lat="43.33204" lon="3.12508">
        <ele>31.39999961853</ele>
        <time>2021-08-09T14:04:06Z</time>
      </trkpt>
      <trkpt lat="43.33317" lon="3.12777">
        <ele>33.799999237061</ele>
        <time>2021-08-09T14:04:56Z</time>
      </trkpt>
      <trkpt lat="43.33336" lon="3.12838">
        <ele>35.400001525879</ele>
        <time>2021-08-09T14:05:09Z</time>
      </trkpt>
      <trkpt lat="43.33337" lon="3.12877">
        <ele>36.200000762939</ele>
        <time>2021-08-09T14:05:16Z</time>
      </trkpt>
      <trkpt lat="43.3334" lon="3.12941">
        <ele>37</ele>
        <time>2021-08-09T14:05:27Z</time>
      </trkpt>
      <trkpt lat="43.33343" lon="3.12986">
        <ele>37.200000762939</ele>
        <time>2021-08-09T14:05:34Z</time>
      </trkpt>
      <trkpt lat="43.33349" lon="3.13297">
        <ele>39</ele>
        <time>2021-08-09T14:06:22Z</time>
      </trkpt>
      <trkpt lat="43.33348" lon="3.13472">
        <ele>39.400001525879</ele>
        <time>2021-08-09T14:06:49Z</time>
      </trkpt>
      <trkpt lat="43.33297" lon="3.1448">
        <ele>41.599998474121</ele>
        <time>2021-08-09T14:08:59Z</time>
      </trkpt>
      <trkpt lat="43.33292" lon="3.14587">
        <ele>41.599998474121</ele>
        <time>2021-08-09T14:09:13Z</time>
      </trkpt>
      <trkpt lat="43.33292" lon="3.14681">
        <ele>41.599998474121</ele>
        <time>2021-08-09T14:09:25Z</time>
      </trkpt>
      <trkpt lat="43.3327" lon="3.15257">
        <ele>38.200000762939</ele>
        <time>2021-08-09T14:10:32Z</time>
      </trkpt>
      <trkpt lat="43.33383" lon="3.1621">
        <ele>37.200000762939</ele>
        <time>2021-08-09T14:12:27Z</time>
      </trkpt>
      <trkpt lat="43.33479" lon="3.17012">
        <ele>36.599998474121</ele>
        <time>2021-08-09T14:14:11Z</time>
      </trkpt>
      <trkpt lat="43.3354" lon="3.17681">
        <ele>37.599998474121</ele>
        <time>2021-08-09T14:15:40Z</time>
      </trkpt>
      <trkpt lat="43.33579" lon="3.17871">
        <ele>40</ele>
        <time>2021-08-09T14:16:10Z</time>
      </trkpt>
      <trkpt lat="43.33595" lon="3.17941">
        <ele>40.799999237061</ele>
        <time>2021-08-09T14:16:21Z</time>
      </trkpt>
      <trkpt lat="43.336" lon="3.18002">
        <ele>41.400001525879</ele>
        <time>2021-08-09T14:16:33Z</time>
      </trkpt>
      <trkpt lat="43.336" lon="3.18012">
        <ele>41.400001525879</ele>
        <time>2021-08-09T14:16:35Z</time>
      </trkpt>
      <trkpt lat="43.33612" lon="3.18041">
        <ele>41.599998474121</ele>
        <time>2021-08-09T14:16:41Z</time>
      </trkpt>
      <trkpt lat="43.33619" lon="3.18048">
        <ele>41.599998474121</ele>
        <time>2021-08-09T14:16:43Z</time>
      </trkpt>
      <trkpt lat="43.33661" lon="3.18194">
        <ele>42</ele>
        <time>2021-08-09T14:17:06Z</time>
      </trkpt>
      <trkpt lat="43.33669" lon="3.18204">
        <ele>42</ele>
        <time>2021-08-09T14:17:08Z</time>
      </trkpt>
      <trkpt lat="43.33681" lon="3.18233">
        <ele>41.599998474121</ele>
        <time>2021-08-09T14:17:12Z</time>
      </trkpt>
      <trkpt lat="43.33715" lon="3.18336">
        <ele>40.799999237061</ele>
        <time>2021-08-09T14:17:24Z</time>
      </trkpt>
      <trkpt lat="43.33716" lon="3.18355">
        <ele>40.400001525879</ele>
        <time>2021-08-09T14:17:26Z</time>
      </trkpt>
      <trkpt lat="43.33771" lon="3.18453">
        <ele>36.400001525879</ele>
        <time>2021-08-09T14:17:39Z</time>
      </trkpt>
      <trkpt lat="43.33791" lon="3.1851">
        <ele>36</ele>
        <time>2021-08-09T14:17:45Z</time>
      </trkpt>
      <trkpt lat="43.33801" lon="3.18544">
        <ele>35.799999237061</ele>
        <time>2021-08-09T14:17:48Z</time>
      </trkpt>
      <trkpt lat="43.33811" lon="3.18667">
        <ele>34</ele>
        <time>2021-08-09T14:17:57Z</time>
      </trkpt>
      <trkpt lat="43.33809" lon="3.18695">
        <ele>33.799999237061</ele>
        <time>2021-08-09T14:17:59Z</time>
      </trkpt>
      <trkpt lat="43.33799" lon="3.18803">
        <ele>30.39999961853</ele>
        <time>2021-08-09T14:18:07Z</time>
      </trkpt>
      <trkpt lat="43.33797" lon="3.18857">
        <ele>28.200000762939</ele>
        <time>2021-08-09T14:18:12Z</time>
      </trkpt>
      <trkpt lat="43.3379" lon="3.18989">
        <ele>25.200000762939</ele>
        <time>2021-08-09T14:18:27Z</time>
      </trkpt>
      <trkpt lat="43.33786" lon="3.19056">
        <ele>23.60000038147</ele>
        <time>2021-08-09T14:18:37Z</time>
      </trkpt>
      <trkpt lat="43.3378" lon="3.19105">
        <ele>23.60000038147</ele>
        <time>2021-08-09T14:18:45Z</time>
      </trkpt>
      <trkpt lat="43.33776" lon="3.19163">
        <ele>22</ele>
        <time>2021-08-09T14:19:53Z</time>
      </trkpt>
      <trkpt lat="43.33778" lon="3.19239">
        <ele>22.60000038147</ele>
        <time>2021-08-09T14:20:07Z</time>
      </trkpt>
      <trkpt lat="43.33777" lon="3.19266">
        <ele>22.60000038147</ele>
        <time>2021-08-09T14:20:11Z</time>
      </trkpt>
      <trkpt lat="43.33772" lon="3.19364">
        <ele>22.799999237061</ele>
        <time>2021-08-09T14:20:25Z</time>
      </trkpt>
      <trkpt lat="43.33772" lon="3.19372">
        <ele>22.60000038147</ele>
        <time>2021-08-09T14:20:26Z</time>
      </trkpt>
      <trkpt lat="43.33771" lon="3.19413">
        <ele>22.60000038147</ele>
        <time>2021-08-09T14:20:31Z</time>
      </trkpt>
      <trkpt lat="43.33774" lon="3.19725">
        <ele>20.39999961853</ele>
        <time>2021-08-09T14:21:20Z</time>
      </trkpt>
      <trkpt lat="43.33777" lon="3.19764">
        <ele>20.200000762939</ele>
        <time>2021-08-09T14:21:27Z</time>
      </trkpt>
      <trkpt lat="43.33772" lon="3.1989">
        <ele>20.799999237061</ele>
        <time>2021-08-09T14:21:49Z</time>
      </trkpt>
      <trkpt lat="43.33782" lon="3.2016">
        <ele>20.39999961853</ele>
        <time>2021-08-09T14:22:34Z</time>
      </trkpt>
      <trkpt lat="43.33762" lon="3.20185">
        <ele>20.200000762939</ele>
        <time>2021-08-09T14:22:40Z</time>
      </trkpt>
      <trkpt lat="43.33753" lon="3.20191">
        <ele>20.39999961853</ele>
        <time>2021-08-09T14:22:42Z</time>
      </trkpt>
      <trkpt lat="43.33724" lon="3.20336">
        <ele>21</ele>
        <time>2021-08-09T14:23:12Z</time>
      </trkpt>
      <trkpt lat="43.33771" lon="3.20425">
        <ele>20.200000762939</ele>
        <time>2021-08-09T14:23:27Z</time>
      </trkpt>
      <trkpt lat="43.33818" lon="3.20496">
        <ele>20</ele>
        <time>2021-08-09T14:23:42Z</time>
      </trkpt>
      <trkpt lat="43.33829" lon="3.20526">
        <ele>20</ele>
        <time>2021-08-09T14:23:47Z</time>
      </trkpt>
      <trkpt lat="43.33831" lon="3.20532">
        <ele>20</ele>
        <time>2021-08-09T14:23:48Z</time>
      </trkpt>
      <trkpt lat="43.33771" lon="3.20643">
        <ele>21.60000038147</ele>
        <time>2021-08-09T14:24:24Z</time>
      </trkpt>
      <trkpt lat="43.33717" lon="3.2065">
        <ele>21.60000038147</ele>
        <time>2021-08-09T14:24:37Z</time>
      </trkpt>
      <trkpt lat="43.33768" lon="3.20719">
        <ele>21.60000038147</ele>
        <time>2021-08-09T14:25:02Z</time>
      </trkpt>
      <trkpt lat="43.33803" lon="3.20773">
        <ele>22.200000762939</ele>
        <time>2021-08-09T14:25:15Z</time>
      </trkpt>
      <trkpt lat="43.33843" lon="3.20872">
        <ele>24.799999237061</ele>
        <time>2021-08-09T14:25:48Z</time>
      </trkpt>
      <trkpt lat="43.33908" lon="3.2111">
        <ele>25.200000762939</ele>
        <time>2021-08-09T14:26:47Z</time>
      </trkpt>
      <trkpt lat="43.33884" lon="3.21149">
        <ele>25.60000038147</ele>
        <time>2021-08-09T14:26:55Z</time>
      </trkpt>
      <trkpt lat="43.3385" lon="3.212">
        <ele>25.60000038147</ele>
        <time>2021-08-09T14:27:10Z</time>
      </trkpt>
      <trkpt lat="43.33812" lon="3.21242">
        <ele>26.60000038147</ele>
        <time>2021-08-09T14:27:22Z</time>
      </trkpt>
      <trkpt lat="43.33743" lon="3.21316">
        <ele>29.60000038147</ele>
        <time>2021-08-09T14:27:57Z</time>
      </trkpt>
      <trkpt lat="43.3372" lon="3.21351">
        <ele>31.39999961853</ele>
        <time>2021-08-09T14:28:13Z</time>
      </trkpt>
      <trkpt lat="43.33705" lon="3.21363">
        <ele>32.599998474121</ele>
        <time>2021-08-09T14:28:21Z</time>
      </trkpt>
      <trkpt lat="43.33704" lon="3.21379">
        <ele>33</ele>
        <time>2021-08-09T14:28:27Z</time>
      </trkpt>
      <trkpt lat="43.33694" lon="3.21468">
        <ele>35</ele>
        <time>2021-08-09T14:28:57Z</time>
      </trkpt>
      <trkpt lat="43.33706" lon="3.21529">
        <ele>36.599998474121</ele>
        <time>2021-08-09T14:29:18Z</time>
      </trkpt>
      <trkpt lat="43.33763" lon="3.21542">
        <ele>40.200000762939</ele>
        <time>2021-08-09T14:29:49Z</time>
      </trkpt>
      <trkpt lat="43.33769" lon="3.21542">
        <ele>40.400001525879</ele>
        <time>2021-08-09T14:29:52Z</time>
      </trkpt>
      <trkpt lat="43.33821" lon="3.21552">
        <ele>42.799999237061</ele>
        <time>2021-08-09T14:30:13Z</time>
      </trkpt>
      <trkpt lat="43.3389" lon="3.2152">
        <ele>45.400001525879</ele>
        <time>2021-08-09T14:30:44Z</time>
      </trkpt>
      <trkpt lat="43.33923" lon="3.21534">
        <ele>47</ele>
        <time>2021-08-09T14:30:59Z</time>
      </trkpt>
      <trkpt lat="43.33976" lon="3.21586">
        <ele>50.200000762939</ele>
        <time>2021-08-09T14:31:25Z</time>
      </trkpt>
      <trkpt lat="43.33998" lon="3.21627">
        <ele>51.599998474121</ele>
        <time>2021-08-09T14:31:42Z</time>
      </trkpt>
      <trkpt lat="43.33973" lon="3.21667">
        <ele>50.799999237061</ele>
        <time>2021-08-09T14:31:57Z</time>
      </trkpt>
      <trkpt lat="43.33931" lon="3.21685">
        <ele>47</ele>
        <time>2021-08-09T14:32:19Z</time>
      </trkpt>
      <trkpt lat="43.33952" lon="3.21669">
        <ele>47.200000762939</ele>
        <time>2021-08-09T14:32:34Z</time>
      </trkpt>
      <trkpt lat="43.33965" lon="3.21661">
        <ele>48.200000762939</ele>
        <time>2021-08-09T14:32:43Z</time>
      </trkpt>
      <trkpt lat="43.33988" lon="3.21691">
        <ele>49.799999237061</ele>
        <time>2021-08-09T14:32:56Z</time>
      </trkpt>
      <trkpt lat="43.34001" lon="3.2172">
        <ele>52.799999237061</ele>
        <time>2021-08-09T14:33:23Z</time>
      </trkpt>
      <trkpt lat="43.33992" lon="3.21746">
        <ele>53.400001525879</ele>
        <time>2021-08-09T14:33:39Z</time>
      </trkpt>
      <trkpt lat="43.33984" lon="3.21755">
        <ele>54.200000762939</ele>
        <time>2021-08-09T14:33:48Z</time>
      </trkpt>
      <trkpt lat="43.33971" lon="3.21753">
        <ele>56.400001525879</ele>
        <time>2021-08-09T14:33:59Z</time>
      </trkpt>
      <trkpt lat="43.33959" lon="3.21776">
        <ele>55.599998474121</ele>
        <time>2021-08-09T14:34:17Z</time>
      </trkpt>
      <trkpt lat="43.33956" lon="3.2178">
        <ele>55.599998474121</ele>
        <time>2021-08-09T14:34:19Z</time>
      </trkpt>
      <trkpt lat="43.33953" lon="3.21799">
        <ele>55</ele>
        <time>2021-08-09T14:34:32Z</time>
      </trkpt>
      <trkpt lat="43.33953" lon="3.21803">
        <ele>54.799999237061</ele>
        <time>2021-08-09T14:34:37Z</time>
      </trkpt>
      <trkpt lat="43.33956" lon="3.21865">
        <ele>58</ele>
        <time>2021-08-09T14:35:06Z</time>
      </trkpt>
      <trkpt lat="43.33963" lon="3.21862">
        <ele>58.799999237061</ele>
        <time>2021-08-09T14:35:15Z</time>
      </trkpt>
      <trkpt lat="43.33974" lon="3.21861">
        <ele>59.599998474121</ele>
        <time>2021-08-09T14:35:24Z</time>
      </trkpt>
      <trkpt lat="43.3402" lon="3.21888">
        <ele>61.599998474121</ele>
        <time>2021-08-09T14:36:07Z</time>
      </trkpt>
      <trkpt lat="43.34054" lon="3.21889">
        <ele>61.799999237061</ele>
        <time>2021-08-09T14:36:20Z</time>
      </trkpt>
      <trkpt lat="43.34094" lon="3.21952">
        <ele>63.400001525879</ele>
        <time>2021-08-09T14:36:45Z</time>
      </trkpt>
      <trkpt lat="43.34106" lon="3.2196">
        <ele>63.799999237061</ele>
        <time>2021-08-09T14:36:53Z</time>
      </trkpt>
      <trkpt lat="43.3412" lon="3.21967">
        <ele>63.799999237061</ele>
        <time>2021-08-09T14:36:58Z</time>
      </trkpt>
      <trkpt lat="43.34168" lon="3.21941">
        <ele>61.799999237061</ele>
        <time>2021-08-09T14:37:14Z</time>
      </trkpt>
      <trkpt lat="43.34194" lon="3.21945">
        <ele>59.799999237061</ele>
        <time>2021-08-09T14:37:23Z</time>
      </trkpt>
      <trkpt lat="43.34242" lon="3.22046">
        <ele>56.599998474121</ele>
        <time>2021-08-09T14:37:45Z</time>
      </trkpt>
      <trkpt lat="43.34219" lon="3.22042">
        <ele>53.599998474121</ele>
        <time>2021-08-10T06:12:11Z</time>
      </trkpt>
      <trkpt lat="43.34206" lon="3.22046">
        <ele>55.200000762939</ele>
        <time>2021-08-10T06:13:57Z</time>
      </trkpt>
      <trkpt lat="43.34202" lon="3.22049">
        <ele>55.599998474121</ele>
        <time>2021-08-10T06:14:00Z</time>
      </trkpt>
      <trkpt lat="43.34192" lon="3.22058">
        <ele>56.400001525879</ele>
        <time>2021-08-10T06:14:08Z</time>
      </trkpt>
      <trkpt lat="43.34175" lon="3.22068">
        <ele>57.200000762939</ele>
        <time>2021-08-10T06:14:17Z</time>
      </trkpt>
      <trkpt lat="43.34135" lon="3.22093">
        <ele>59.400001525879</ele>
        <time>2021-08-10T06:14:39Z</time>
      </trkpt>
      <trkpt lat="43.34113" lon="3.22083">
        <ele>60.799999237061</ele>
        <time>2021-08-10T06:14:53Z</time>
      </trkpt>
      <trkpt lat="43.34048" lon="3.22058">
        <ele>62.200000762939</ele>
        <time>2021-08-10T06:15:14Z</time>
      </trkpt>
      <trkpt lat="43.33987" lon="3.22173">
        <ele>61</ele>
        <time>2021-08-10T06:15:50Z</time>
      </trkpt>
      <trkpt lat="43.33978" lon="3.22195">
        <ele>59.799999237061</ele>
        <time>2021-08-10T06:15:55Z</time>
      </trkpt>
      <trkpt lat="43.33957" lon="3.22222">
        <ele>57.200000762939</ele>
        <time>2021-08-10T06:16:04Z</time>
      </trkpt>
      <trkpt lat="43.33949" lon="3.22237">
        <ele>56.200000762939</ele>
        <time>2021-08-10T06:16:09Z</time>
      </trkpt>
      <trkpt lat="43.33936" lon="3.2226">
        <ele>54.599998474121</ele>
        <time>2021-08-10T06:16:15Z</time>
      </trkpt>
      <trkpt lat="43.33911" lon="3.2229">
        <ele>53.200000762939</ele>
        <time>2021-08-10T06:16:22Z</time>
      </trkpt>
      <trkpt lat="43.33879" lon="3.22312">
        <ele>51</ele>
        <time>2021-08-10T06:16:28Z</time>
      </trkpt>
      <trkpt lat="43.33861" lon="3.22321">
        <ele>49.799999237061</ele>
        <time>2021-08-10T06:16:31Z</time>
      </trkpt>
      <trkpt lat="43.33864" lon="3.22373">
        <ele>45.400001525879</ele>
        <time>2021-08-10T06:16:44Z</time>
      </trkpt>
      <trkpt lat="43.33893" lon="3.22424">
        <ele>43.400001525879</ele>
        <time>2021-08-10T06:16:53Z</time>
      </trkpt>
      <trkpt lat="43.33877" lon="3.22485">
        <ele>41.400001525879</ele>
        <time>2021-08-10T06:17:15Z</time>
      </trkpt>
      <trkpt lat="43.33852" lon="3.225">
        <ele>41</ele>
        <time>2021-08-10T06:17:22Z</time>
      </trkpt>
      <trkpt lat="43.33844" lon="3.22506">
        <ele>40.799999237061</ele>
        <time>2021-08-10T06:17:24Z</time>
      </trkpt>
      <trkpt lat="43.3381" lon="3.2252">
        <ele>39.799999237061</ele>
        <time>2021-08-10T06:17:31Z</time>
      </trkpt>
      <trkpt lat="43.33791" lon="3.22523">
        <ele>39.200000762939</ele>
        <time>2021-08-10T06:17:34Z</time>
      </trkpt>
      <trkpt lat="43.33766" lon="3.22529">
        <ele>38.400001525879</ele>
        <time>2021-08-10T06:17:38Z</time>
      </trkpt>
      <trkpt lat="43.33754" lon="3.22529">
        <ele>37.799999237061</ele>
        <time>2021-08-10T06:17:40Z</time>
      </trkpt>
      <trkpt lat="43.33727" lon="3.22531">
        <ele>36.799999237061</ele>
        <time>2021-08-10T06:17:44Z</time>
      </trkpt>
      <trkpt lat="43.33706" lon="3.22528">
        <ele>36</ele>
        <time>2021-08-10T06:17:47Z</time>
      </trkpt>
      <trkpt lat="43.3367" lon="3.22517">
        <ele>35</ele>
        <time>2021-08-10T06:17:52Z</time>
      </trkpt>
      <trkpt lat="43.33637" lon="3.2249">
        <ele>30.799999237061</ele>
        <time>2021-08-10T06:18:02Z</time>
      </trkpt>
      <trkpt lat="43.33628" lon="3.22508">
        <ele>28.799999237061</ele>
        <time>2021-08-10T06:18:38Z</time>
      </trkpt>
      <trkpt lat="43.33641" lon="3.22454">
        <ele>29.39999961853</ele>
        <time>2021-08-10T06:19:06Z</time>
      </trkpt>
      <trkpt lat="43.33642" lon="3.22376">
        <ele>28.799999237061</ele>
        <time>2021-08-10T06:19:15Z</time>
      </trkpt>
      <trkpt lat="43.33637" lon="3.22322">
        <ele>26.39999961853</ele>
        <time>2021-08-10T06:19:21Z</time>
      </trkpt>
      <trkpt lat="43.33638" lon="3.22267">
        <ele>23</ele>
        <time>2021-08-10T06:19:30Z</time>
      </trkpt>
      <trkpt lat="43.33505" lon="3.2222">
        <ele>20.799999237061</ele>
        <time>2021-08-10T06:19:57Z</time>
      </trkpt>
      <trkpt lat="43.33437" lon="3.22226">
        <ele>20.60000038147</ele>
        <time>2021-08-10T06:20:18Z</time>
      </trkpt>
      <trkpt lat="43.33426" lon="3.22242">
        <ele>20.60000038147</ele>
        <time>2021-08-10T06:20:21Z</time>
      </trkpt>
      <trkpt lat="43.33336" lon="3.22365">
        <ele>20.200000762939</ele>
        <time>2021-08-10T06:20:45Z</time>
      </trkpt>
      <trkpt lat="43.33304" lon="3.22425">
        <ele>20</ele>
        <time>2021-08-10T06:20:56Z</time>
      </trkpt>
      <trkpt lat="43.33242" lon="3.22482">
        <ele>19.799999237061</ele>
        <time>2021-08-10T06:21:19Z</time>
      </trkpt>
      <trkpt lat="43.33232" lon="3.2255">
        <ele>18.60000038147</ele>
        <time>2021-08-10T06:21:28Z</time>
      </trkpt>
      <trkpt lat="43.33223" lon="3.22586">
        <ele>18.60000038147</ele>
        <time>2021-08-10T06:21:33Z</time>
      </trkpt>
      <trkpt lat="43.33204" lon="3.22664">
        <ele>18</ele>
        <time>2021-08-10T06:21:45Z</time>
      </trkpt>
      <trkpt lat="43.33188" lon="3.22708">
        <ele>17.799999237061</ele>
        <time>2021-08-10T06:21:53Z</time>
      </trkpt>
      <trkpt lat="43.32902" lon="3.23208">
        <ele>19.200000762939</ele>
        <time>2021-08-10T06:23:36Z</time>
      </trkpt>
      <trkpt lat="43.32829" lon="3.23453">
        <ele>19.200000762939</ele>
        <time>2021-08-10T06:24:12Z</time>
      </trkpt>
      <trkpt lat="43.32841" lon="3.23646">
        <ele>18</ele>
        <time>2021-08-10T06:24:35Z</time>
      </trkpt>
      <trkpt lat="43.3284" lon="3.2366">
        <ele>18</ele>
        <time>2021-08-10T06:24:37Z</time>
      </trkpt>
      <trkpt lat="43.32839" lon="3.23697">
        <ele>17.60000038147</ele>
        <time>2021-08-10T06:24:43Z</time>
      </trkpt>
      <trkpt lat="43.32839" lon="3.23705">
        <ele>17.39999961853</ele>
        <time>2021-08-10T06:24:44Z</time>
      </trkpt>
      <trkpt lat="43.32833" lon="3.23757">
        <ele>17.200000762939</ele>
        <time>2021-08-10T06:24:51Z</time>
      </trkpt>
      <trkpt lat="43.32825" lon="3.23803">
        <ele>17.200000762939</ele>
        <time>2021-08-10T06:24:57Z</time>
      </trkpt>
      <trkpt lat="43.32746" lon="3.24206">
        <ele>17</ele>
        <time>2021-08-10T06:25:59Z</time>
      </trkpt>
      <trkpt lat="43.32726" lon="3.24251">
        <ele>17.39999961853</ele>
        <time>2021-08-10T06:26:08Z</time>
      </trkpt>
      <trkpt lat="43.32683" lon="3.24342">
        <ele>17.200000762939</ele>
        <time>2021-08-10T06:26:23Z</time>
      </trkpt>
      <trkpt lat="43.32653" lon="3.24387">
        <ele>17.39999961853</ele>
        <time>2021-08-10T06:26:32Z</time>
      </trkpt>
      <trkpt lat="43.32587" lon="3.24473">
        <ele>17.799999237061</ele>
        <time>2021-08-10T06:26:49Z</time>
      </trkpt>
      <trkpt lat="43.32455" lon="3.24598">
        <ele>17.60000038147</ele>
        <time>2021-08-10T06:27:17Z</time>
      </trkpt>
      <trkpt lat="43.32359" lon="3.24747">
        <ele>17.60000038147</ele>
        <time>2021-08-10T06:27:43Z</time>
      </trkpt>
      <trkpt lat="43.32321" lon="3.24873">
        <ele>17.200000762939</ele>
        <time>2021-08-10T06:28:09Z</time>
      </trkpt>
      <trkpt lat="43.32321" lon="3.25053">
        <ele>17.39999961853</ele>
        <time>2021-08-10T06:28:36Z</time>
      </trkpt>
      <trkpt lat="43.32302" lon="3.25998">
        <ele>18.200000762939</ele>
        <time>2021-08-10T06:30:35Z</time>
      </trkpt>
      <trkpt lat="43.32276" lon="3.26243">
        <ele>17.799999237061</ele>
        <time>2021-08-10T06:31:08Z</time>
      </trkpt>
      <trkpt lat="43.32274" lon="3.26251">
        <ele>18</ele>
        <time>2021-08-10T06:31:09Z</time>
      </trkpt>
      <trkpt lat="43.32259" lon="3.2631">
        <ele>18</ele>
        <time>2021-08-10T06:31:17Z</time>
      </trkpt>
      <trkpt lat="43.32251" lon="3.26373">
        <ele>18</ele>
        <time>2021-08-10T06:31:25Z</time>
      </trkpt>
      <trkpt lat="43.32203" lon="3.26714">
        <ele>16.799999237061</ele>
        <time>2021-08-10T06:32:09Z</time>
      </trkpt>
      <trkpt lat="43.32148" lon="3.26882">
        <ele>17</ele>
        <time>2021-08-10T06:32:32Z</time>
      </trkpt>
      <trkpt lat="43.32052" lon="3.27154">
        <ele>15.800000190735</ele>
        <time>2021-08-10T06:33:07Z</time>
      </trkpt>
      <trkpt lat="43.32042" lon="3.27175">
        <ele>16</ele>
        <time>2021-08-10T06:33:10Z</time>
      </trkpt>
      <trkpt lat="43.32024" lon="3.27219">
        <ele>15.800000190735</ele>
        <time>2021-08-10T06:33:17Z</time>
      </trkpt>
      <trkpt lat="43.31986" lon="3.2733">
        <ele>15.800000190735</ele>
        <time>2021-08-10T06:33:33Z</time>
      </trkpt>
      <trkpt lat="43.3191" lon="3.27546">
        <ele>15.800000190735</ele>
        <time>2021-08-10T06:34:03Z</time>
      </trkpt>
      <trkpt lat="43.31892" lon="3.2759">
        <ele>15.800000190735</ele>
        <time>2021-08-10T06:34:09Z</time>
      </trkpt>
      <trkpt lat="43.31807" lon="3.27848">
        <ele>16</ele>
        <time>2021-08-10T06:34:44Z</time>
      </trkpt>
      <trkpt lat="43.3179" lon="3.27891">
        <ele>16.200000762939</ele>
        <time>2021-08-10T06:34:50Z</time>
      </trkpt>
      <trkpt lat="43.31764" lon="3.27958">
        <ele>16</ele>
        <time>2021-08-10T06:34:59Z</time>
      </trkpt>
      <trkpt lat="43.31719" lon="3.28115">
        <ele>14.60000038147</ele>
        <time>2021-08-10T06:35:36Z</time>
      </trkpt>
      <trkpt lat="43.3172" lon="3.28129">
        <ele>14.39999961853</ele>
        <time>2021-08-10T06:35:40Z</time>
      </trkpt>
      <trkpt lat="43.31707" lon="3.28158">
        <ele>13.800000190735</ele>
        <time>2021-08-10T06:35:47Z</time>
      </trkpt>
      <trkpt lat="43.3169" lon="3.2819">
        <ele>13.199999809265</ele>
        <time>2021-08-10T06:35:53Z</time>
      </trkpt>
      <trkpt lat="43.31687" lon="3.28203">
        <ele>13</ele>
        <time>2021-08-10T06:35:55Z</time>
      </trkpt>
      <trkpt lat="43.31652" lon="3.28328">
        <ele>13.39999961853</ele>
        <time>2021-08-10T06:36:14Z</time>
      </trkpt>
      <trkpt lat="43.31616" lon="3.28473">
        <ele>13.800000190735</ele>
        <time>2021-08-10T06:36:37Z</time>
      </trkpt>
      <trkpt lat="43.31575" lon="3.28664">
        <ele>14</ele>
        <time>2021-08-10T06:37:03Z</time>
      </trkpt>
      <trkpt lat="43.31561" lon="3.28735">
        <ele>13.800000190735</ele>
        <time>2021-08-10T06:37:13Z</time>
      </trkpt>
      <trkpt lat="43.31505" lon="3.29302">
        <ele>13</ele>
        <time>2021-08-10T06:38:21Z</time>
      </trkpt>
      <trkpt lat="43.31512" lon="3.29355">
        <ele>13.199999809265</ele>
        <time>2021-08-10T06:38:28Z</time>
      </trkpt>
      <trkpt lat="43.3152" lon="3.29377">
        <ele>13</ele>
        <time>2021-08-10T06:38:33Z</time>
      </trkpt>
      <trkpt lat="43.31526" lon="3.29398">
        <ele>11.39999961853</ele>
        <time>2021-08-10T06:45:09Z</time>
      </trkpt>
      <trkpt lat="43.31527" lon="3.29405">
        <ele>12.199999809265</ele>
        <time>2021-08-10T06:45:11Z</time>
      </trkpt>
      <trkpt lat="43.3153" lon="3.29446">
        <ele>12.199999809265</ele>
        <time>2021-08-10T06:45:19Z</time>
      </trkpt>
      <trkpt lat="43.31538" lon="3.29494">
        <ele>12.39999961853</ele>
        <time>2021-08-10T06:45:28Z</time>
      </trkpt>
      <trkpt lat="43.31637" lon="3.30067">
        <ele>13.800000190735</ele>
        <time>2021-08-10T06:46:52Z</time>
      </trkpt>
      <trkpt lat="43.31655" lon="3.30111">
        <ele>12.60000038147</ele>
        <time>2021-08-10T06:47:18Z</time>
      </trkpt>
      <trkpt lat="43.31657" lon="3.30135">
        <ele>12.60000038147</ele>
        <time>2021-08-10T06:47:25Z</time>
      </trkpt>
      <trkpt lat="43.31681" lon="3.30316">
        <ele>13.199999809265</ele>
        <time>2021-08-10T06:47:59Z</time>
      </trkpt>
      <trkpt lat="43.31665" lon="3.30589">
        <ele>13.39999961853</ele>
        <time>2021-08-10T06:48:37Z</time>
      </trkpt>
      <trkpt lat="43.3153" lon="3.3112">
        <ele>13.800000190735</ele>
        <time>2021-08-10T06:49:47Z</time>
      </trkpt>
      <trkpt lat="43.31499" lon="3.31189">
        <ele>13.60000038147</ele>
        <time>2021-08-10T06:49:57Z</time>
      </trkpt>
      <trkpt lat="43.31469" lon="3.31254">
        <ele>13.800000190735</ele>
        <time>2021-08-10T06:50:07Z</time>
      </trkpt>
      <trkpt lat="43.31422" lon="3.31331">
        <ele>14.60000038147</ele>
        <time>2021-08-10T06:50:27Z</time>
      </trkpt>
      <trkpt lat="43.31107" lon="3.31876">
        <ele>14.39999961853</ele>
        <time>2021-08-10T06:51:54Z</time>
      </trkpt>
      <trkpt lat="43.31103" lon="3.31882">
        <ele>14.199999809265</ele>
        <time>2021-08-10T06:51:55Z</time>
      </trkpt>
      <trkpt lat="43.3088" lon="3.32254">
        <ele>14.39999961853</ele>
        <time>2021-08-10T06:52:56Z</time>
      </trkpt>
      <trkpt lat="43.30634" lon="3.32662">
        <ele>15</ele>
        <time>2021-08-10T06:54:04Z</time>
      </trkpt>
      <trkpt lat="43.30555" lon="3.3279">
        <ele>15</ele>
        <time>2021-08-10T06:54:23Z</time>
      </trkpt>
      <trkpt lat="43.30521" lon="3.32837">
        <ele>14.800000190735</ele>
        <time>2021-08-10T06:54:30Z</time>
      </trkpt>
      <trkpt lat="43.30393" lon="3.33021">
        <ele>13.60000038147</ele>
        <time>2021-08-10T06:55:07Z</time>
      </trkpt>
      <trkpt lat="43.30229" lon="3.33151">
        <ele>13.60000038147</ele>
        <time>2021-08-10T06:55:39Z</time>
      </trkpt>
      <trkpt lat="43.29713" lon="3.33399">
        <ele>12.39999961853</ele>
        <time>2021-08-10T06:57:09Z</time>
      </trkpt>
      <trkpt lat="43.29623" lon="3.33565">
        <ele>12.60000038147</ele>
        <time>2021-08-10T06:57:35Z</time>
      </trkpt>
      <trkpt lat="43.29602" lon="3.33642">
        <ele>12.60000038147</ele>
        <time>2021-08-10T06:57:45Z</time>
      </trkpt>
      <trkpt lat="43.29589" lon="3.33721">
        <ele>12.800000190735</ele>
        <time>2021-08-10T06:57:55Z</time>
      </trkpt>
      <trkpt lat="43.29586" lon="3.3378">
        <ele>12.800000190735</ele>
        <time>2021-08-10T06:58:03Z</time>
      </trkpt>
      <trkpt lat="43.29572" lon="3.33859">
        <ele>12</ele>
        <time>2021-08-10T06:58:15Z</time>
      </trkpt>
      <trkpt lat="43.2956" lon="3.33919">
        <ele>12.39999961853</ele>
        <time>2021-08-10T06:58:23Z</time>
      </trkpt>
      <trkpt lat="43.29516" lon="3.34046">
        <ele>12.39999961853</ele>
        <time>2021-08-10T06:58:41Z</time>
      </trkpt>
      <trkpt lat="43.29464" lon="3.34188">
        <ele>12.60000038147</ele>
        <time>2021-08-10T06:59:02Z</time>
      </trkpt>
      <trkpt lat="43.29462" lon="3.34195">
        <ele>12.800000190735</ele>
        <time>2021-08-10T06:59:03Z</time>
      </trkpt>
      <trkpt lat="43.29441" lon="3.34265">
        <ele>13</ele>
        <time>2021-08-10T06:59:13Z</time>
      </trkpt>
      <trkpt lat="43.29414" lon="3.3432">
        <ele>13</ele>
        <time>2021-08-10T06:59:21Z</time>
      </trkpt>
      <trkpt lat="43.29118" lon="3.35061">
        <ele>13</ele>
        <time>2021-08-10T07:01:07Z</time>
      </trkpt>
      <trkpt lat="43.29078" lon="3.35195">
        <ele>12.39999961853</ele>
        <time>2021-08-10T07:01:30Z</time>
      </trkpt>
      <trkpt lat="43.29067" lon="3.35263">
        <ele>12.39999961853</ele>
        <time>2021-08-10T07:01:39Z</time>
      </trkpt>
      <trkpt lat="43.29044" lon="3.35622">
        <ele>12.800000190735</ele>
        <time>2021-08-10T07:02:26Z</time>
      </trkpt>
      <trkpt lat="43.29049" lon="3.35744">
        <ele>12.39999961853</ele>
        <time>2021-08-10T07:02:41Z</time>
      </trkpt>
      <trkpt lat="43.29073" lon="3.36057">
        <ele>11.800000190735</ele>
        <time>2021-08-10T07:03:39Z</time>
      </trkpt>
      <trkpt lat="43.29076" lon="3.36127">
        <ele>11.199999809265</ele>
        <time>2021-08-10T07:03:57Z</time>
      </trkpt>
      <trkpt lat="43.29104" lon="3.36205">
        <ele>11.39999961853</ele>
        <time>2021-08-10T07:04:57Z</time>
      </trkpt>
      <trkpt lat="43.29072" lon="3.36222">
        <ele>11.60000038147</ele>
        <time>2021-08-10T07:05:08Z</time>
      </trkpt>
      <trkpt lat="43.29042" lon="3.36232">
        <ele>11.60000038147</ele>
        <time>2021-08-10T07:05:16Z</time>
      </trkpt>
      <trkpt lat="43.28965" lon="3.36359">
        <ele>11.800000190735</ele>
        <time>2021-08-10T07:05:49Z</time>
      </trkpt>
      <trkpt lat="43.28964" lon="3.36364">
        <ele>11.800000190735</ele>
        <time>2021-08-10T07:05:50Z</time>
      </trkpt>
      <trkpt lat="43.28845" lon="3.36677">
        <ele>12.199999809265</ele>
        <time>2021-08-10T07:06:37Z</time>
      </trkpt>
      <trkpt lat="43.28809" lon="3.36821">
        <ele>12.60000038147</ele>
        <time>2021-08-10T07:06:57Z</time>
      </trkpt>
      <trkpt lat="43.28735" lon="3.37117">
        <ele>12</ele>
        <time>2021-08-10T07:07:37Z</time>
      </trkpt>
      <trkpt lat="43.28725" lon="3.37144">
        <ele>12.199999809265</ele>
        <time>2021-08-10T07:07:41Z</time>
      </trkpt>
      <trkpt lat="43.28714" lon="3.3717">
        <ele>12.39999961853</ele>
        <time>2021-08-10T07:07:45Z</time>
      </trkpt>
      <trkpt lat="43.28667" lon="3.373">
        <ele>12.199999809265</ele>
        <time>2021-08-10T07:08:05Z</time>
      </trkpt>
      <trkpt lat="43.28635" lon="3.37334">
        <ele>12</ele>
        <time>2021-08-10T07:08:13Z</time>
      </trkpt>
      <trkpt lat="43.28578" lon="3.3729">
        <ele>11.39999961853</ele>
        <time>2021-08-10T07:08:43Z</time>
      </trkpt>
      <trkpt lat="43.28645" lon="3.37448">
        <ele>12</ele>
        <time>2021-08-10T07:09:23Z</time>
      </trkpt>
      <trkpt lat="43.28657" lon="3.37459">
        <ele>12</ele>
        <time>2021-08-10T07:09:26Z</time>
      </trkpt>
      <trkpt lat="43.28686" lon="3.37489">
        <ele>12</ele>
        <time>2021-08-10T07:09:34Z</time>
      </trkpt>
      <trkpt lat="43.28693" lon="3.37497">
        <ele>12</ele>
        <time>2021-08-10T07:09:36Z</time>
      </trkpt>
      <trkpt lat="43.28711" lon="3.37522">
        <ele>12.60000038147</ele>
        <time>2021-08-10T07:09:42Z</time>
      </trkpt>
      <trkpt lat="43.28749" lon="3.37552">
        <ele>12.800000190735</ele>
        <time>2021-08-10T07:09:51Z</time>
      </trkpt>
      <trkpt lat="43.28767" lon="3.37562">
        <ele>13</ele>
        <time>2021-08-10T07:09:55Z</time>
      </trkpt>
      <trkpt lat="43.288" lon="3.37621">
        <ele>12.60000038147</ele>
        <time>2021-08-10T07:10:06Z</time>
      </trkpt>
      <trkpt lat="43.28807" lon="3.37645">
        <ele>12.60000038147</ele>
        <time>2021-08-10T07:10:09Z</time>
      </trkpt>
      <trkpt lat="43.28815" lon="3.37682">
        <ele>12.60000038147</ele>
        <time>2021-08-10T07:10:14Z</time>
      </trkpt>
      <trkpt lat="43.28829" lon="3.37754">
        <ele>12.39999961853</ele>
        <time>2021-08-10T07:10:23Z</time>
      </trkpt>
      <trkpt lat="43.28847" lon="3.37815">
        <ele>12.60000038147</ele>
        <time>2021-08-10T07:10:32Z</time>
      </trkpt>
      <trkpt lat="43.28866" lon="3.37878">
        <ele>12.800000190735</ele>
        <time>2021-08-10T07:10:42Z</time>
      </trkpt>
      <trkpt lat="43.29015" lon="3.38081">
        <ele>12</ele>
        <time>2021-08-10T07:11:25Z</time>
      </trkpt>
      <trkpt lat="43.29069" lon="3.38163">
        <ele>11.800000190735</ele>
        <time>2021-08-10T07:11:46Z</time>
      </trkpt>
      <trkpt lat="43.29087" lon="3.3816">
        <ele>12</ele>
        <time>2021-08-10T07:11:51Z</time>
      </trkpt>
      <trkpt lat="43.29095" lon="3.38185">
        <ele>11.199999809265</ele>
        <time>2021-08-10T07:12:03Z</time>
      </trkpt>
      <trkpt lat="43.29098" lon="3.38218">
        <ele>11</ele>
        <time>2021-08-10T07:12:10Z</time>
      </trkpt>
      <trkpt lat="43.29098" lon="3.38265">
        <ele>11.199999809265</ele>
        <time>2021-08-10T07:12:18Z</time>
      </trkpt>
      <trkpt lat="43.29083" lon="3.38969">
        <ele>11</ele>
        <time>2021-08-10T07:14:03Z</time>
      </trkpt>
      <trkpt lat="43.29084" lon="3.39004">
        <ele>11</ele>
        <time>2021-08-10T07:14:10Z</time>
      </trkpt>
      <trkpt lat="43.29187" lon="3.39104">
        <ele>11.60000038147</ele>
        <time>2021-08-10T07:14:36Z</time>
      </trkpt>
      <trkpt lat="43.29368" lon="3.39074">
        <ele>12.199999809265</ele>
        <time>2021-08-10T07:15:12Z</time>
      </trkpt>
      <trkpt lat="43.29415" lon="3.39315">
        <ele>11.199999809265</ele>
        <time>2021-08-10T07:15:56Z</time>
      </trkpt>
      <trkpt lat="43.29446" lon="3.39454">
        <ele>11.60000038147</ele>
        <time>2021-08-10T07:16:15Z</time>
      </trkpt>
      <trkpt lat="43.29483" lon="3.39649">
        <ele>11.800000190735</ele>
        <time>2021-08-10T07:16:41Z</time>
      </trkpt>
      <trkpt lat="43.29484" lon="3.39712">
        <ele>11.800000190735</ele>
        <time>2021-08-10T07:16:49Z</time>
      </trkpt>
      <trkpt lat="43.29483" lon="3.39784">
        <ele>12</ele>
        <time>2021-08-10T07:16:58Z</time>
      </trkpt>
      <trkpt lat="43.29524" lon="3.39824">
        <ele>12.39999961853</ele>
        <time>2021-08-10T07:17:07Z</time>
      </trkpt>
      <trkpt lat="43.29696" lon="3.39964">
        <ele>12.60000038147</ele>
        <time>2021-08-10T07:17:41Z</time>
      </trkpt>
      <trkpt lat="43.29727" lon="3.40058">
        <ele>12.39999961853</ele>
        <time>2021-08-10T07:17:58Z</time>
      </trkpt>
      <trkpt lat="43.29849" lon="3.40121">
        <ele>13</ele>
        <time>2021-08-10T07:18:20Z</time>
      </trkpt>
      <trkpt lat="43.29877" lon="3.40178">
        <ele>13</ele>
        <time>2021-08-10T07:18:29Z</time>
      </trkpt>
      <trkpt lat="43.29879" lon="3.40194">
        <ele>13</ele>
        <time>2021-08-10T07:18:31Z</time>
      </trkpt>
      <trkpt lat="43.29899" lon="3.40219">
        <ele>13</ele>
        <time>2021-08-10T07:18:36Z</time>
      </trkpt>
      <trkpt lat="43.29928" lon="3.40234">
        <ele>13.199999809265</ele>
        <time>2021-08-10T07:18:41Z</time>
      </trkpt>
      <trkpt lat="43.29946" lon="3.40298">
        <ele>13.39999961853</ele>
        <time>2021-08-10T07:18:50Z</time>
      </trkpt>
      <trkpt lat="43.29951" lon="3.4045">
        <ele>13.60000038147</ele>
        <time>2021-08-10T07:19:14Z</time>
      </trkpt>
      <trkpt lat="43.29949" lon="3.40452">
        <ele>13.60000038147</ele>
        <time>2021-08-10T07:19:20Z</time>
      </trkpt>
      <trkpt lat="43.29979" lon="3.40601">
        <ele>14</ele>
        <time>2021-08-10T07:19:46Z</time>
      </trkpt>
      <trkpt lat="43.30105" lon="3.41308">
        <ele>12.800000190735</ele>
        <time>2021-08-10T07:21:13Z</time>
      </trkpt>
      <trkpt lat="43.30124" lon="3.41516">
        <ele>13.199999809265</ele>
        <time>2021-08-10T07:21:41Z</time>
      </trkpt>
      <trkpt lat="43.30132" lon="3.4157">
        <ele>13</ele>
        <time>2021-08-10T07:21:49Z</time>
      </trkpt>
      <trkpt lat="43.30174" lon="3.41715">
        <ele>12.199999809265</ele>
        <time>2021-08-10T07:22:12Z</time>
      </trkpt>
      <trkpt lat="43.30201" lon="3.41773">
        <ele>12.39999961853</ele>
        <time>2021-08-10T07:22:21Z</time>
      </trkpt>
      <trkpt lat="43.30206" lon="3.41906">
        <ele>14</ele>
        <time>2021-08-10T07:22:58Z</time>
      </trkpt>
      <trkpt lat="43.30205" lon="3.41917">
        <ele>14.199999809265</ele>
        <time>2021-08-10T07:23:16Z</time>
      </trkpt>
      <trkpt lat="43.30225" lon="3.42132">
        <ele>13.199999809265</ele>
        <time>2021-08-10T07:23:57Z</time>
      </trkpt>
      <trkpt lat="43.30228" lon="3.42172">
        <ele>13.39999961853</ele>
        <time>2021-08-10T07:24:05Z</time>
      </trkpt>
      <trkpt lat="43.30237" lon="3.42216">
        <ele>14</ele>
        <time>2021-08-10T07:24:12Z</time>
      </trkpt>
      <trkpt lat="43.30246" lon="3.42255">
        <ele>14.199999809265</ele>
        <time>2021-08-10T07:24:18Z</time>
      </trkpt>
      <trkpt lat="43.30256" lon="3.42409">
        <ele>14.199999809265</ele>
        <time>2021-08-10T07:24:40Z</time>
      </trkpt>
      <trkpt lat="43.30295" lon="3.42903">
        <ele>13.800000190735</ele>
        <time>2021-08-10T07:25:41Z</time>
      </trkpt>
      <trkpt lat="43.30285" lon="3.43079">
        <ele>13.199999809265</ele>
        <time>2021-08-10T07:26:08Z</time>
      </trkpt>
      <trkpt lat="43.30281" lon="3.431">
        <ele>12.800000190735</ele>
        <time>2021-08-10T07:26:12Z</time>
      </trkpt>
      <trkpt lat="43.3024" lon="3.4313">
        <ele>12</ele>
        <time>2021-08-10T07:26:22Z</time>
      </trkpt>
      <trkpt lat="43.30216" lon="3.43165">
        <ele>12</ele>
        <time>2021-08-10T07:26:29Z</time>
      </trkpt>
      <trkpt lat="43.30182" lon="3.43217">
        <ele>12.199999809265</ele>
        <time>2021-08-10T07:26:38Z</time>
      </trkpt>
      <trkpt lat="43.30168" lon="3.43256">
        <ele>12.199999809265</ele>
        <time>2021-08-10T07:26:44Z</time>
      </trkpt>
      <trkpt lat="43.30154" lon="3.43295">
        <ele>12</ele>
        <time>2021-08-10T07:26:50Z</time>
      </trkpt>
      <trkpt lat="43.30083" lon="3.43413">
        <ele>11.800000190735</ele>
        <time>2021-08-10T07:27:12Z</time>
      </trkpt>
      <trkpt lat="43.29823" lon="3.43813">
        <ele>11.60000038147</ele>
        <time>2021-08-10T07:28:18Z</time>
      </trkpt>
      <trkpt lat="43.29819" lon="3.43818">
        <ele>11.39999961853</ele>
        <time>2021-08-10T07:28:19Z</time>
      </trkpt>
      <trkpt lat="43.29792" lon="3.43848">
        <ele>11.39999961853</ele>
        <time>2021-08-10T07:28:25Z</time>
      </trkpt>
      <trkpt lat="43.29836" lon="3.44025">
        <ele>11.60000038147</ele>
        <time>2021-08-10T07:28:50Z</time>
      </trkpt>
      <trkpt lat="43.29858" lon="3.44094">
        <ele>11.60000038147</ele>
        <time>2021-08-10T07:28:59Z</time>
      </trkpt>
      <trkpt lat="43.2986" lon="3.44102">
        <ele>11.60000038147</ele>
        <time>2021-08-10T07:29:00Z</time>
      </trkpt>
      <trkpt lat="43.29874" lon="3.44168">
        <ele>11.60000038147</ele>
        <time>2021-08-10T07:29:08Z</time>
      </trkpt>
      <trkpt lat="43.29896" lon="3.44264">
        <ele>12</ele>
        <time>2021-08-10T07:29:22Z</time>
      </trkpt>
      <trkpt lat="43.29895" lon="3.44279">
        <ele>11.60000038147</ele>
        <time>2021-08-10T07:29:31Z</time>
      </trkpt>
      <trkpt lat="43.29886" lon="3.4432">
        <ele>10.800000190735</ele>
        <time>2021-08-10T07:29:43Z</time>
      </trkpt>
      <trkpt lat="43.29882" lon="3.44348">
        <ele>11.39999961853</ele>
        <time>2021-08-10T07:29:48Z</time>
      </trkpt>
      <trkpt lat="43.29804" lon="3.44367">
        <ele>11.60000038147</ele>
        <time>2021-08-10T07:30:11Z</time>
      </trkpt>
      <trkpt lat="43.29747" lon="3.44343">
        <ele>11.199999809265</ele>
        <time>2021-08-10T07:30:23Z</time>
      </trkpt>
      <trkpt lat="43.29754" lon="3.44528">
        <ele>11.60000038147</ele>
        <time>2021-08-10T07:30:56Z</time>
      </trkpt>
      <trkpt lat="43.29769" lon="3.44589">
        <ele>11.800000190735</ele>
        <time>2021-08-10T07:31:05Z</time>
      </trkpt>
      <trkpt lat="43.29778" lon="3.4462">
        <ele>11.800000190735</ele>
        <time>2021-08-10T07:31:11Z</time>
      </trkpt>
      <trkpt lat="43.29791" lon="3.44641">
        <ele>11.800000190735</ele>
        <time>2021-08-10T07:31:16Z</time>
      </trkpt>
      <trkpt lat="43.29802" lon="3.44649">
        <ele>11.60000038147</ele>
        <time>2021-08-10T07:31:19Z</time>
      </trkpt>
      <trkpt lat="43.29805" lon="3.44749">
        <ele>11.199999809265</ele>
        <time>2021-08-10T07:31:35Z</time>
      </trkpt>
      <trkpt lat="43.29804" lon="3.44809">
        <ele>11.39999961853</ele>
        <time>2021-08-10T07:31:44Z</time>
      </trkpt>
      <trkpt lat="43.2979" lon="3.44997">
        <ele>11.39999961853</ele>
        <time>2021-08-10T07:32:14Z</time>
      </trkpt>
      <trkpt lat="43.29807" lon="3.45104">
        <ele>11.39999961853</ele>
        <time>2021-08-10T07:32:31Z</time>
      </trkpt>
      <trkpt lat="43.29817" lon="3.45227">
        <ele>11.60000038147</ele>
        <time>2021-08-10T07:33:10Z</time>
      </trkpt>
      <trkpt lat="43.29832" lon="3.4524">
        <ele>11.60000038147</ele>
        <time>2021-08-10T07:33:14Z</time>
      </trkpt>
      <trkpt lat="43.29857" lon="3.45341">
        <ele>10.800000190735</ele>
        <time>2021-08-10T07:33:53Z</time>
      </trkpt>
      <trkpt lat="43.29861" lon="3.45354">
        <ele>10.800000190735</ele>
        <time>2021-08-10T07:35:01Z</time>
      </trkpt>
      <trkpt lat="43.29886" lon="3.45429">
        <ele>11</ele>
        <time>2021-08-10T07:35:23Z</time>
      </trkpt>
      <trkpt lat="43.29912" lon="3.45502">
        <ele>11.199999809265</ele>
        <time>2021-08-10T07:35:38Z</time>
      </trkpt>
      <trkpt lat="43.29926" lon="3.45555">
        <ele>11.39999961853</ele>
        <time>2021-08-10T07:35:47Z</time>
      </trkpt>
      <trkpt lat="43.29953" lon="3.45668">
        <ele>11.39999961853</ele>
        <time>2021-08-10T07:36:05Z</time>
      </trkpt>
      <trkpt lat="43.2997" lon="3.45785">
        <ele>11.39999961853</ele>
        <time>2021-08-10T07:36:22Z</time>
      </trkpt>
      <trkpt lat="43.29979" lon="3.45842">
        <ele>11.39999961853</ele>
        <time>2021-08-10T07:36:31Z</time>
      </trkpt>
      <trkpt lat="43.30006" lon="3.46055">
        <ele>12</ele>
        <time>2021-08-10T07:36:59Z</time>
      </trkpt>
      <trkpt lat="43.30022" lon="3.46121">
        <ele>12</ele>
        <time>2021-08-10T07:37:08Z</time>
      </trkpt>
      <trkpt lat="43.30098" lon="3.46232">
        <ele>12</ele>
        <time>2021-08-10T07:37:29Z</time>
      </trkpt>
      <trkpt lat="43.30133" lon="3.46258">
        <ele>11.800000190735</ele>
        <time>2021-08-10T07:37:36Z</time>
      </trkpt>
      <trkpt lat="43.30174" lon="3.4628">
        <ele>11.60000038147</ele>
        <time>2021-08-10T07:37:44Z</time>
      </trkpt>
      <trkpt lat="43.30226" lon="3.4631">
        <ele>11.800000190735</ele>
        <time>2021-08-10T07:37:54Z</time>
      </trkpt>
      <trkpt lat="43.30276" lon="3.4633">
        <ele>12</ele>
        <time>2021-08-10T07:38:03Z</time>
      </trkpt>
      <trkpt lat="43.30528" lon="3.46404">
        <ele>12</ele>
        <time>2021-08-10T07:38:48Z</time>
      </trkpt>
      <trkpt lat="43.30693" lon="3.46398">
        <ele>12.199999809265</ele>
        <time>2021-08-10T07:39:20Z</time>
      </trkpt>
      <trkpt lat="43.30869" lon="3.46386">
        <ele>12.39999961853</ele>
        <time>2021-08-10T07:39:51Z</time>
      </trkpt>
      <trkpt lat="43.30904" lon="3.46387">
        <ele>12</ele>
        <time>2021-08-10T07:39:58Z</time>
      </trkpt>
      <trkpt lat="43.30924" lon="3.46378">
        <ele>11.39999961853</ele>
        <time>2021-08-10T07:40:03Z</time>
      </trkpt>
      <trkpt lat="43.3094" lon="3.46384">
        <ele>11.39999961853</ele>
        <time>2021-08-10T07:40:07Z</time>
      </trkpt>
      <trkpt lat="43.30965" lon="3.46399">
        <ele>11.60000038147</ele>
        <time>2021-08-10T07:40:13Z</time>
      </trkpt>
      <trkpt lat="43.31042" lon="3.46415">
        <ele>11.800000190735</ele>
        <time>2021-08-10T07:40:28Z</time>
      </trkpt>
      <trkpt lat="43.31094" lon="3.46425">
        <ele>11.800000190735</ele>
        <time>2021-08-10T07:40:37Z</time>
      </trkpt>
      <trkpt lat="43.3121" lon="3.46506">
        <ele>11.800000190735</ele>
        <time>2021-08-10T07:41:02Z</time>
      </trkpt>
      <trkpt lat="43.31248" lon="3.46533">
        <ele>12</ele>
        <time>2021-08-10T07:41:11Z</time>
      </trkpt>
      <trkpt lat="43.31411" lon="3.4669">
        <ele>12.60000038147</ele>
        <time>2021-08-10T07:41:50Z</time>
      </trkpt>
      <trkpt lat="43.31512" lon="3.46817">
        <ele>12.800000190735</ele>
        <time>2021-08-10T07:42:21Z</time>
      </trkpt>
      <trkpt lat="43.3152" lon="3.46824">
        <ele>13</ele>
        <time>2021-08-10T07:42:27Z</time>
      </trkpt>
      <trkpt lat="43.3153" lon="3.46897">
        <ele>14.39999961853</ele>
        <time>2021-08-10T07:42:42Z</time>
      </trkpt>
      <trkpt lat="43.3149" lon="3.46978">
        <ele>15.800000190735</ele>
        <time>2021-08-10T07:43:03Z</time>
      </trkpt>
      <trkpt lat="43.31488" lon="3.4699">
        <ele>15.800000190735</ele>
        <time>2021-08-10T07:43:06Z</time>
      </trkpt>
      <trkpt lat="43.31422" lon="3.46993">
        <ele>16</ele>
        <time>2021-08-10T07:43:43Z</time>
      </trkpt>
      <trkpt lat="43.31411" lon="3.4699">
        <ele>16.39999961853</ele>
        <time>2021-08-10T07:43:53Z</time>
      </trkpt>
      <trkpt lat="43.31412" lon="3.46974">
        <ele>16.200000762939</ele>
        <time>2021-08-10T07:44:01Z</time>
      </trkpt>
      <trkpt lat="43.31414" lon="3.46969">
        <ele>16</ele>
        <time>2021-08-10T07:44:05Z</time>
      </trkpt>
      <trkpt lat="43.31426" lon="3.46965">
        <ele>15.800000190735</ele>
        <time>2021-08-10T07:44:18Z</time>
      </trkpt>
      <trkpt lat="43.3142" lon="3.4696">
        <ele>15.800000190735</ele>
        <time>2021-08-10T07:44:24Z</time>
      </trkpt>
      <trkpt lat="43.31397" lon="3.46941">
        <ele>16.200000762939</ele>
        <time>2021-08-10T07:44:33Z</time>
      </trkpt>
      <trkpt lat="43.31336" lon="3.46854">
        <ele>13.60000038147</ele>
        <time>2021-08-10T07:48:30Z</time>
      </trkpt>
      <trkpt lat="43.31324" lon="3.46869">
        <ele>14.60000038147</ele>
        <time>2021-08-10T07:48:39Z</time>
      </trkpt>
      <trkpt lat="43.31316" lon="3.46878">
        <ele>16</ele>
        <time>2021-08-10T07:48:46Z</time>
      </trkpt>
      <trkpt lat="43.31315" lon="3.46883">
        <ele>16.200000762939</ele>
        <time>2021-08-10T07:48:48Z</time>
      </trkpt>
      <trkpt lat="43.31305" lon="3.46923">
        <ele>18.200000762939</ele>
        <time>2021-08-10T07:49:07Z</time>
      </trkpt>
      <trkpt lat="43.31294" lon="3.46965">
        <ele>18.39999961853</ele>
        <time>2021-08-10T07:49:21Z</time>
      </trkpt>
      <trkpt lat="43.31272" lon="3.47001">
        <ele>19</ele>
        <time>2021-08-10T07:49:34Z</time>
      </trkpt>
      <trkpt lat="43.31253" lon="3.4706">
        <ele>21.39999961853</ele>
        <time>2021-08-10T07:49:59Z</time>
      </trkpt>
      <trkpt lat="43.31264" lon="3.47085">
        <ele>21.200000762939</ele>
        <time>2021-08-10T07:50:18Z</time>
      </trkpt>
      <trkpt lat="43.31286" lon="3.4709">
        <ele>21.200000762939</ele>
        <time>2021-08-10T07:50:33Z</time>
      </trkpt>
      <trkpt lat="43.31287" lon="3.47106">
        <ele>20.799999237061</ele>
        <time>2021-08-10T07:57:16Z</time>
      </trkpt>
      <trkpt lat="43.3123" lon="3.47076">
        <ele>21.200000762939</ele>
        <time>2021-08-10T07:57:41Z</time>
      </trkpt>
      <trkpt lat="43.3119" lon="3.47084">
        <ele>20.200000762939</ele>
        <time>2021-08-10T07:58:22Z</time>
      </trkpt>
      <trkpt lat="43.31194" lon="3.47091">
        <ele>20.39999961853</ele>
        <time>2021-08-10T07:58:28Z</time>
      </trkpt>
      <trkpt lat="43.31221" lon="3.4706">
        <ele>18.60000038147</ele>
        <time>2021-08-10T08:16:55Z</time>
      </trkpt>
      <trkpt lat="43.31229" lon="3.47042">
        <ele>18</ele>
        <time>2021-08-10T08:17:05Z</time>
      </trkpt>
      <trkpt lat="43.31256" lon="3.4695">
        <ele>15</ele>
        <time>2021-08-10T08:17:37Z</time>
      </trkpt>
      <trkpt lat="43.31258" lon="3.4694">
        <ele>14.800000190735</ele>
        <time>2021-08-10T08:17:42Z</time>
      </trkpt>
      <trkpt lat="43.31264" lon="3.46929">
        <ele>14.800000190735</ele>
        <time>2021-08-10T08:17:49Z</time>
      </trkpt>
      <trkpt lat="43.31284" lon="3.46888">
        <ele>15.199999809265</ele>
        <time>2021-08-10T08:18:15Z</time>
      </trkpt>
      <trkpt lat="43.31277" lon="3.46903">
        <ele>15.39999961853</ele>
        <time>2021-08-10T08:19:09Z</time>
      </trkpt>
      <trkpt lat="43.3126" lon="3.46921">
        <ele>15.60000038147</ele>
        <time>2021-08-10T08:19:25Z</time>
      </trkpt>
      <trkpt lat="43.31282" lon="3.46928">
        <ele>17</ele>
        <time>2021-08-10T08:19:44Z</time>
      </trkpt>
      <trkpt lat="43.3129" lon="3.46915">
        <ele>17.799999237061</ele>
        <time>2021-08-10T08:19:52Z</time>
      </trkpt>
      <trkpt lat="43.3134" lon="3.46804">
        <ele>14.199999809265</ele>
        <time>2021-08-10T08:20:28Z</time>
      </trkpt>
      <trkpt lat="43.31346" lon="3.46786">
        <ele>11.60000038147</ele>
        <time>2021-08-10T08:20:39Z</time>
      </trkpt>
      <trkpt lat="43.31347" lon="3.46787">
        <ele>11.60000038147</ele>
        <time>2021-08-10T08:20:40Z</time>
      </trkpt>
      <trkpt lat="43.31385" lon="3.46818">
        <ele>11.199999809265</ele>
        <time>2021-08-10T08:20:59Z</time>
      </trkpt>
      <trkpt lat="43.31403" lon="3.46853">
        <ele>11.199999809265</ele>
        <time>2021-08-10T08:21:06Z</time>
      </trkpt>
      <trkpt lat="43.31381" lon="3.46896">
        <ele>14.39999961853</ele>
        <time>2021-08-10T08:23:09Z</time>
      </trkpt>
      <trkpt lat="43.31398" lon="3.4695">
        <ele>15.800000190735</ele>
        <time>2021-08-10T08:23:45Z</time>
      </trkpt>
      <trkpt lat="43.3142" lon="3.46964">
        <ele>15.199999809265</ele>
        <time>2021-08-10T08:23:59Z</time>
      </trkpt>
      <trkpt lat="43.31463" lon="3.47036">
        <ele>14.39999961853</ele>
        <time>2021-08-10T08:24:16Z</time>
      </trkpt>
      <trkpt lat="43.3151" lon="3.47125">
        <ele>12.199999809265</ele>
        <time>2021-08-10T08:25:40Z</time>
      </trkpt>
      <trkpt lat="43.31428" lon="3.472">
        <ele>13</ele>
        <time>2021-08-10T08:26:11Z</time>
      </trkpt>
      <trkpt lat="43.31339" lon="3.47221">
        <ele>15</ele>
        <time>2021-08-10T08:26:37Z</time>
      </trkpt>
      <trkpt lat="43.31331" lon="3.4724">
        <ele>16</ele>
        <time>2021-08-10T08:26:42Z</time>
      </trkpt>
      <trkpt lat="43.31317" lon="3.47276">
        <ele>16.200000762939</ele>
        <time>2021-08-10T08:26:52Z</time>
      </trkpt>
      <trkpt lat="43.31291" lon="3.4735">
        <ele>16.799999237061</ele>
        <time>2021-08-10T08:28:14Z</time>
      </trkpt>
      <trkpt lat="43.31276" lon="3.47383">
        <ele>17.200000762939</ele>
        <time>2021-08-10T08:28:23Z</time>
      </trkpt>
      <trkpt lat="43.31262" lon="3.47542">
        <ele>19.39999961853</ele>
        <time>2021-08-10T08:29:05Z</time>
      </trkpt>
      <trkpt lat="43.31236" lon="3.47616">
        <ele>20</ele>
        <time>2021-08-10T08:29:24Z</time>
      </trkpt>
      <trkpt lat="43.31226" lon="3.47627">
        <ele>20.200000762939</ele>
        <time>2021-08-10T08:29:29Z</time>
      </trkpt>
      <trkpt lat="43.31225" lon="3.47632">
        <ele>20.200000762939</ele>
        <time>2021-08-10T08:29:32Z</time>
      </trkpt>
      <trkpt lat="43.31227" lon="3.47636">
        <ele>20.39999961853</ele>
        <time>2021-08-10T08:29:34Z</time>
      </trkpt>
      <trkpt lat="43.31239" lon="3.47655">
        <ele>20.39999961853</ele>
        <time>2021-08-10T08:29:40Z</time>
      </trkpt>
      <trkpt lat="43.31265" lon="3.47849">
        <ele>22.39999961853</ele>
        <time>2021-08-10T08:30:24Z</time>
      </trkpt>
      <trkpt lat="43.31253" lon="3.48047">
        <ele>23.39999961853</ele>
        <time>2021-08-10T08:31:05Z</time>
      </trkpt>
      <trkpt lat="43.31258" lon="3.48152">
        <ele>23.799999237061</ele>
        <time>2021-08-10T08:31:24Z</time>
      </trkpt>
      <trkpt lat="43.31276" lon="3.48252">
        <ele>23.799999237061</ele>
        <time>2021-08-10T08:31:41Z</time>
      </trkpt>
      <trkpt lat="43.31282" lon="3.48276">
        <ele>23.60000038147</ele>
        <time>2021-08-10T08:31:45Z</time>
      </trkpt>
      <trkpt lat="43.31297" lon="3.48413">
        <ele>23.200000762939</ele>
        <time>2021-08-10T08:32:04Z</time>
      </trkpt>
      <trkpt lat="43.31303" lon="3.48509">
        <ele>22.200000762939</ele>
        <time>2021-08-10T08:32:18Z</time>
      </trkpt>
      <trkpt lat="43.31302" lon="3.48556">
        <ele>21.60000038147</ele>
        <time>2021-08-10T08:32:25Z</time>
      </trkpt>
      <trkpt lat="43.31263" lon="3.48729">
        <ele>18</ele>
        <time>2021-08-10T08:32:43Z</time>
      </trkpt>
      <trkpt lat="43.31243" lon="3.48795">
        <ele>15</ele>
        <time>2021-08-10T08:32:51Z</time>
      </trkpt>
      <trkpt lat="43.31214" lon="3.48891">
        <ele>14</ele>
        <time>2021-08-10T08:33:03Z</time>
      </trkpt>
      <trkpt lat="43.31211" lon="3.48928">
        <ele>13.60000038147</ele>
        <time>2021-08-10T08:33:08Z</time>
      </trkpt>
      <trkpt lat="43.31156" lon="3.49004">
        <ele>13</ele>
        <time>2021-08-10T08:33:24Z</time>
      </trkpt>
      <trkpt lat="43.31044" lon="3.49083">
        <ele>13</ele>
        <time>2021-08-10T08:33:47Z</time>
      </trkpt>
      <trkpt lat="43.3101" lon="3.49156">
        <ele>13.199999809265</ele>
        <time>2021-08-10T08:33:59Z</time>
      </trkpt>
      <trkpt lat="43.30986" lon="3.49208">
        <ele>13.60000038147</ele>
        <time>2021-08-10T08:34:09Z</time>
      </trkpt>
      <trkpt lat="43.309" lon="3.49213">
        <ele>13.800000190735</ele>
        <time>2021-08-10T08:34:29Z</time>
      </trkpt>
      <trkpt lat="43.30869" lon="3.49215">
        <ele>14.199999809265</ele>
        <time>2021-08-10T08:34:36Z</time>
      </trkpt>
      <trkpt lat="43.30818" lon="3.49171">
        <ele>14.800000190735</ele>
        <time>2021-08-10T08:35:18Z</time>
      </trkpt>
      <trkpt lat="43.30789" lon="3.49253">
        <ele>15.60000038147</ele>
        <time>2021-08-10T08:35:41Z</time>
      </trkpt>
      <trkpt lat="43.30797" lon="3.4926">
        <ele>15.800000190735</ele>
        <time>2021-08-10T08:35:43Z</time>
      </trkpt>
      <trkpt lat="43.30796" lon="3.49405">
        <ele>16.799999237061</ele>
        <time>2021-08-10T08:36:05Z</time>
      </trkpt>
      <trkpt lat="43.30784" lon="3.49474">
        <ele>17</ele>
        <time>2021-08-10T08:36:16Z</time>
      </trkpt>
      <trkpt lat="43.30762" lon="3.49535">
        <ele>18.39999961853</ele>
        <time>2021-08-10T08:36:29Z</time>
      </trkpt>
      <trkpt lat="43.30752" lon="3.4955">
        <ele>18.39999961853</ele>
        <time>2021-08-10T08:36:33Z</time>
      </trkpt>
      <trkpt lat="43.30781" lon="3.49639">
        <ele>19</ele>
        <time>2021-08-10T08:36:51Z</time>
      </trkpt>
      <trkpt lat="43.30769" lon="3.49908">
        <ele>22</ele>
        <time>2021-08-10T08:37:39Z</time>
      </trkpt>
      <trkpt lat="43.30768" lon="3.49943">
        <ele>23.60000038147</ele>
        <time>2021-08-10T08:37:49Z</time>
      </trkpt>
      <trkpt lat="43.30765" lon="3.50018">
        <ele>26.200000762939</ele>
        <time>2021-08-10T08:38:11Z</time>
      </trkpt>
      <trkpt lat="43.30761" lon="3.50129">
        <ele>27.39999961853</ele>
        <time>2021-08-10T08:38:37Z</time>
      </trkpt>
      <trkpt lat="43.30753" lon="3.50254">
        <ele>26.799999237061</ele>
        <time>2021-08-10T08:39:09Z</time>
      </trkpt>
      <trkpt lat="43.30748" lon="3.50293">
        <ele>26.200000762939</ele>
        <time>2021-08-10T08:39:16Z</time>
      </trkpt>
      <trkpt lat="43.30747" lon="3.50347">
        <ele>26</ele>
        <time>2021-08-10T08:39:25Z</time>
      </trkpt>
      <trkpt lat="43.30731" lon="3.50605">
        <ele>22.60000038147</ele>
        <time>2021-08-10T08:39:54Z</time>
      </trkpt>
      <trkpt lat="43.30709" lon="3.50703">
        <ele>21.200000762939</ele>
        <time>2021-08-10T08:40:06Z</time>
      </trkpt>
      <trkpt lat="43.30544" lon="3.50761">
        <ele>19.200000762939</ele>
        <time>2021-08-10T08:40:41Z</time>
      </trkpt>
      <trkpt lat="43.30461" lon="3.50756">
        <ele>19.200000762939</ele>
        <time>2021-08-10T08:41:00Z</time>
      </trkpt>
      <trkpt lat="43.30516" lon="3.50818">
        <ele>18.200000762939</ele>
        <time>2021-08-10T08:41:25Z</time>
      </trkpt>
      <trkpt lat="43.30643" lon="3.50827">
        <ele>18.60000038147</ele>
        <time>2021-08-10T08:41:49Z</time>
      </trkpt>
      <trkpt lat="43.30782" lon="3.51">
        <ele>14.39999961853</ele>
        <time>2021-08-10T08:42:21Z</time>
      </trkpt>
      <trkpt lat="43.30813" lon="3.51103">
        <ele>13.39999961853</ele>
        <time>2021-08-10T08:42:35Z</time>
      </trkpt>
      <trkpt lat="43.30831" lon="3.51164">
        <ele>12.800000190735</ele>
        <time>2021-08-10T08:42:43Z</time>
      </trkpt>
      <trkpt lat="43.30849" lon="3.51236">
        <ele>12.39999961853</ele>
        <time>2021-08-10T08:42:52Z</time>
      </trkpt>
      <trkpt lat="43.30854" lon="3.51249">
        <ele>12.199999809265</ele>
        <time>2021-08-10T08:42:54Z</time>
      </trkpt>
      <trkpt lat="43.30881" lon="3.51332">
        <ele>11.39999961853</ele>
        <time>2021-08-10T08:43:06Z</time>
      </trkpt>
      <trkpt lat="43.309" lon="3.5136">
        <ele>11.199999809265</ele>
        <time>2021-08-10T08:43:13Z</time>
      </trkpt>
      <trkpt lat="43.31102" lon="3.51986">
        <ele>11.60000038147</ele>
        <time>2021-08-10T08:44:44Z</time>
      </trkpt>
      <trkpt lat="43.31262" lon="3.52489">
        <ele>11.39999961853</ele>
        <time>2021-08-10T08:45:57Z</time>
      </trkpt>
      <trkpt lat="43.31292" lon="3.52588">
        <ele>11.39999961853</ele>
        <time>2021-08-10T08:46:13Z</time>
      </trkpt>
      <trkpt lat="43.31468" lon="3.53175">
        <ele>11.199999809265</ele>
        <time>2021-08-10T08:47:45Z</time>
      </trkpt>
      <trkpt lat="43.3156" lon="3.53537">
        <ele>11</ele>
        <time>2021-08-10T08:48:49Z</time>
      </trkpt>
      <trkpt lat="43.31611" lon="3.53626">
        <ele>10.800000190735</ele>
        <time>2021-08-10T08:49:14Z</time>
      </trkpt>
      <trkpt lat="43.31787" lon="3.54198">
        <ele>11.39999961853</ele>
        <time>2021-08-10T08:50:40Z</time>
      </trkpt>
      <trkpt lat="43.31878" lon="3.54481">
        <ele>12</ele>
        <time>2021-08-10T08:51:21Z</time>
      </trkpt>
      <trkpt lat="43.31895" lon="3.54606">
        <ele>10.39999961853</ele>
        <time>2021-08-10T08:51:58Z</time>
      </trkpt>
      <trkpt lat="43.31887" lon="3.5463">
        <ele>10.39999961853</ele>
        <time>2021-08-10T08:52:09Z</time>
      </trkpt>
      <trkpt lat="43.31958" lon="3.54743">
        <ele>10.800000190735</ele>
        <time>2021-08-10T08:52:44Z</time>
      </trkpt>
      <trkpt lat="43.32103" lon="3.55227">
        <ele>12.199999809265</ele>
        <time>2021-08-10T08:54:08Z</time>
      </trkpt>
      <trkpt lat="43.32233" lon="3.55549">
        <ele>11.199999809265</ele>
        <time>2021-08-10T08:55:18Z</time>
      </trkpt>
      <trkpt lat="43.32404" lon="3.55854">
        <ele>11</ele>
        <time>2021-08-10T08:56:27Z</time>
      </trkpt>
      <trkpt lat="43.32482" lon="3.56001">
        <ele>11.39999961853</ele>
        <time>2021-08-10T08:57:12Z</time>
      </trkpt>
      <trkpt lat="43.32526" lon="3.56074">
        <ele>11.199999809265</ele>
        <time>2021-08-10T08:57:37Z</time>
      </trkpt>
      <trkpt lat="43.32588" lon="3.56182">
        <ele>11.800000190735</ele>
        <time>2021-08-10T08:57:58Z</time>
      </trkpt>
      <trkpt lat="43.32662" lon="3.56373">
        <ele>12.39999961853</ele>
        <time>2021-08-10T08:58:40Z</time>
      </trkpt>
      <trkpt lat="43.32705" lon="3.56486">
        <ele>13.199999809265</ele>
        <time>2021-08-10T08:59:00Z</time>
      </trkpt>
      <trkpt lat="43.3278" lon="3.56655">
        <ele>12.39999961853</ele>
        <time>2021-08-10T08:59:47Z</time>
      </trkpt>
      <trkpt lat="43.32795" lon="3.56684">
        <ele>11.39999961853</ele>
        <time>2021-08-10T09:03:50Z</time>
      </trkpt>
      <trkpt lat="43.32799" lon="3.5669">
        <ele>11.60000038147</ele>
        <time>2021-08-10T09:03:52Z</time>
      </trkpt>
      <trkpt lat="43.33151" lon="3.57136">
        <ele>12</ele>
        <time>2021-08-10T09:05:36Z</time>
      </trkpt>
      <trkpt lat="43.33435" lon="3.57477">
        <ele>10.39999961853</ele>
        <time>2021-08-10T09:06:44Z</time>
      </trkpt>
      <trkpt lat="43.3346" lon="3.57496">
        <ele>10.39999961853</ele>
        <time>2021-08-10T09:06:50Z</time>
      </trkpt>
      <trkpt lat="43.33487" lon="3.57511">
        <ele>10.199999809265</ele>
        <time>2021-08-10T09:06:57Z</time>
      </trkpt>
      <trkpt lat="43.33562" lon="3.57475">
        <ele>9.6000003814697</ele>
        <time>2021-08-10T09:07:20Z</time>
      </trkpt>
      <trkpt lat="43.33645" lon="3.57588">
        <ele>9.8000001907349</ele>
        <time>2021-08-10T09:07:42Z</time>
      </trkpt>
      <trkpt lat="43.33676" lon="3.57634">
        <ele>9.3999996185303</ele>
        <time>2021-08-10T09:07:56Z</time>
      </trkpt>
      <trkpt lat="43.33724" lon="3.57699">
        <ele>9.3999996185303</ele>
        <time>2021-08-10T09:08:13Z</time>
      </trkpt>
      <trkpt lat="43.33713" lon="3.57801">
        <ele>10.199999809265</ele>
        <time>2021-08-10T09:08:37Z</time>
      </trkpt>
      <trkpt lat="43.33714" lon="3.57833">
        <ele>9</ele>
        <time>2021-08-10T09:53:13Z</time>
      </trkpt>
      <trkpt lat="43.33714" lon="3.57833">
        <ele>8.8000001907349</ele>
        <time>2021-08-10T09:53:14Z</time>
      </trkpt>
      <trkpt lat="43.33719" lon="3.57838">
        <ele>8.8000001907349</ele>
        <time>2021-08-10T09:53:26Z</time>
      </trkpt>
      <trkpt lat="43.33722" lon="3.57842">
        <ele>8.8000001907349</ele>
        <time>2021-08-10T09:53:28Z</time>
      </trkpt>
      <trkpt lat="43.34027" lon="3.58207">
        <ele>8.6000003814697</ele>
        <time>2021-08-10T09:55:03Z</time>
      </trkpt>
      <trkpt lat="43.34559" lon="3.5886">
        <ele>9.3999996185303</ele>
        <time>2021-08-10T09:57:19Z</time>
      </trkpt>
      <trkpt lat="43.34733" lon="3.59069">
        <ele>8.8000001907349</ele>
        <time>2021-08-10T09:58:03Z</time>
      </trkpt>
      <trkpt lat="43.34769" lon="3.59048">
        <ele>8.3999996185303</ele>
        <time>2021-08-10T09:58:11Z</time>
      </trkpt>
      <trkpt lat="43.34778" lon="3.59037">
        <ele>8.3999996185303</ele>
        <time>2021-08-10T09:58:13Z</time>
      </trkpt>
      <trkpt lat="43.34856" lon="3.59088">
        <ele>8</ele>
        <time>2021-08-10T09:58:30Z</time>
      </trkpt>
      <trkpt lat="43.34936" lon="3.59218">
        <ele>8</ele>
        <time>2021-08-10T09:58:52Z</time>
      </trkpt>
      <trkpt lat="43.35076" lon="3.59387">
        <ele>8.1999998092651</ele>
        <time>2021-08-10T09:59:27Z</time>
      </trkpt>
      <trkpt lat="43.35113" lon="3.59442">
        <ele>8.1999998092651</ele>
        <time>2021-08-10T09:59:37Z</time>
      </trkpt>
      <trkpt lat="43.35162" lon="3.59499">
        <ele>7.8000001907349</ele>
        <time>2021-08-10T09:59:49Z</time>
      </trkpt>
      <trkpt lat="43.35213" lon="3.59596">
        <ele>7.8000001907349</ele>
        <time>2021-08-10T10:00:04Z</time>
      </trkpt>
      <trkpt lat="43.35241" lon="3.59636">
        <ele>8.1999998092651</ele>
        <time>2021-08-10T10:00:12Z</time>
      </trkpt>
      <trkpt lat="43.35317" lon="3.59753">
        <ele>8.8000001907349</ele>
        <time>2021-08-10T10:00:34Z</time>
      </trkpt>
      <trkpt lat="43.35391" lon="3.59836">
        <ele>8.8000001907349</ele>
        <time>2021-08-10T10:00:52Z</time>
      </trkpt>
      <trkpt lat="43.35477" lon="3.59977">
        <ele>8.6000003814697</ele>
        <time>2021-08-10T10:01:17Z</time>
      </trkpt>
      <trkpt lat="43.355" lon="3.59993">
        <ele>8.3999996185303</ele>
        <time>2021-08-10T10:01:22Z</time>
      </trkpt>
      <trkpt lat="43.3552" lon="3.59998">
        <ele>8.1999998092651</ele>
        <time>2021-08-10T10:01:26Z</time>
      </trkpt>
      <trkpt lat="43.35689" lon="3.60229">
        <ele>8.3999996185303</ele>
        <time>2021-08-10T10:02:08Z</time>
      </trkpt>
      <trkpt lat="43.35783" lon="3.60378">
        <ele>8.8000001907349</ele>
        <time>2021-08-10T10:02:32Z</time>
      </trkpt>
      <trkpt lat="43.35854" lon="3.60437">
        <ele>8.6000003814697</ele>
        <time>2021-08-10T10:02:48Z</time>
      </trkpt>
      <trkpt lat="43.3603" lon="3.60724">
        <ele>8.3999996185303</ele>
        <time>2021-08-10T10:03:38Z</time>
      </trkpt>
      <trkpt lat="43.36056" lon="3.60717">
        <ele>8.1999998092651</ele>
        <time>2021-08-10T10:03:44Z</time>
      </trkpt>
      <trkpt lat="43.36065" lon="3.60709">
        <ele>8.1999998092651</ele>
        <time>2021-08-10T10:03:46Z</time>
      </trkpt>
      <trkpt lat="43.36108" lon="3.60733">
        <ele>7.8000001907349</ele>
        <time>2021-08-10T10:03:55Z</time>
      </trkpt>
      <trkpt lat="43.3653" lon="3.61436">
        <ele>7.5999999046326</ele>
        <time>2021-08-10T10:05:52Z</time>
      </trkpt>
      <trkpt lat="43.36616" lon="3.61575">
        <ele>7.4000000953674</ele>
        <time>2021-08-10T10:06:17Z</time>
      </trkpt>
      <trkpt lat="43.36639" lon="3.61605">
        <ele>7.1999998092651</ele>
        <time>2021-08-10T10:06:24Z</time>
      </trkpt>
      <trkpt lat="43.36669" lon="3.61641">
        <ele>7</ele>
        <time>2021-08-10T10:06:33Z</time>
      </trkpt>
      <trkpt lat="43.3671" lon="3.61701">
        <ele>7.4000000953674</ele>
        <time>2021-08-10T10:06:45Z</time>
      </trkpt>
      <trkpt lat="43.36789" lon="3.61805">
        <ele>7.4000000953674</ele>
        <time>2021-08-10T10:07:04Z</time>
      </trkpt>
      <trkpt lat="43.36818" lon="3.61848">
        <ele>7.1999998092651</ele>
        <time>2021-08-10T10:07:12Z</time>
      </trkpt>
      <trkpt lat="43.36902" lon="3.61957">
        <ele>7.1999998092651</ele>
        <time>2021-08-10T10:07:33Z</time>
      </trkpt>
      <trkpt lat="43.37178" lon="3.62344">
        <ele>7.4000000953674</ele>
        <time>2021-08-10T10:08:43Z</time>
      </trkpt>
      <trkpt lat="43.3719" lon="3.62364">
        <ele>7.4000000953674</ele>
        <time>2021-08-10T10:08:46Z</time>
      </trkpt>
      <trkpt lat="43.3737" lon="3.62622">
        <ele>8</ele>
        <time>2021-08-10T10:09:29Z</time>
      </trkpt>
      <trkpt lat="43.37449" lon="3.62743">
        <ele>8.1999998092651</ele>
        <time>2021-08-10T10:09:48Z</time>
      </trkpt>
      <trkpt lat="43.37458" lon="3.62754">
        <ele>8.1999998092651</ele>
        <time>2021-08-10T10:09:50Z</time>
      </trkpt>
      <trkpt lat="43.37482" lon="3.6278">
        <ele>8.1999998092651</ele>
        <time>2021-08-10T10:09:55Z</time>
      </trkpt>
      <trkpt lat="43.3749" lon="3.62792">
        <ele>8.1999998092651</ele>
        <time>2021-08-10T10:09:57Z</time>
      </trkpt>
      <trkpt lat="43.3793" lon="3.63478">
        <ele>8.6000003814697</ele>
        <time>2021-08-10T10:11:48Z</time>
      </trkpt>
      <trkpt lat="43.37999" lon="3.63587">
        <ele>8.3999996185303</ele>
        <time>2021-08-10T10:12:08Z</time>
      </trkpt>
      <trkpt lat="43.38058" lon="3.63686">
        <ele>8.3999996185303</ele>
        <time>2021-08-10T10:12:27Z</time>
      </trkpt>
      <trkpt lat="43.38414" lon="3.64257">
        <ele>8.1999998092651</ele>
        <time>2021-08-10T10:18:12Z</time>
      </trkpt>
      <trkpt lat="43.38596" lon="3.64544">
        <ele>9</ele>
        <time>2021-08-10T10:19:19Z</time>
      </trkpt>
      <trkpt lat="43.38802" lon="3.64852">
        <ele>9.3999996185303</ele>
        <time>2021-08-10T10:20:14Z</time>
      </trkpt>
      <trkpt lat="43.38804" lon="3.64858">
        <ele>9.3999996185303</ele>
        <time>2021-08-10T10:20:15Z</time>
      </trkpt>
      <trkpt lat="43.39007" lon="3.65228">
        <ele>10.39999961853</ele>
        <time>2021-08-10T10:21:24Z</time>
      </trkpt>
      <trkpt lat="43.39029" lon="3.65284">
        <ele>10.39999961853</ele>
        <time>2021-08-10T10:21:33Z</time>
      </trkpt>
      <trkpt lat="43.39195" lon="3.65723">
        <ele>10.39999961853</ele>
        <time>2021-08-10T10:22:40Z</time>
      </trkpt>
      <trkpt lat="43.39326" lon="3.66048">
        <ele>10.800000190735</ele>
        <time>2021-08-10T10:23:30Z</time>
      </trkpt>
      <trkpt lat="43.39308" lon="3.66218">
        <ele>11</ele>
        <time>2021-08-10T10:24:07Z</time>
      </trkpt>
      <trkpt lat="43.39359" lon="3.66363">
        <ele>11.800000190735</ele>
        <time>2021-08-10T10:24:39Z</time>
      </trkpt>
      <trkpt lat="43.394" lon="3.66671">
        <ele>11.800000190735</ele>
        <time>2021-08-10T10:25:32Z</time>
      </trkpt>
      <trkpt lat="43.39426" lon="3.66912">
        <ele>13.39999961853</ele>
        <time>2021-08-10T10:26:10Z</time>
      </trkpt>
      <trkpt lat="43.39402" lon="3.67066">
        <ele>15.199999809265</ele>
        <time>2021-08-10T10:26:38Z</time>
      </trkpt>
      <trkpt lat="43.39368" lon="3.67179">
        <ele>16</ele>
        <time>2021-08-10T10:27:00Z</time>
      </trkpt>
      <trkpt lat="43.39316" lon="3.67279">
        <ele>17.200000762939</ele>
        <time>2021-08-10T10:27:20Z</time>
      </trkpt>
      <trkpt lat="43.39275" lon="3.6735">
        <ele>18</ele>
        <time>2021-08-10T10:27:34Z</time>
      </trkpt>
      <trkpt lat="43.39271" lon="3.67509">
        <ele>18.200000762939</ele>
        <time>2021-08-10T10:28:06Z</time>
      </trkpt>
      <trkpt lat="43.39305" lon="3.67557">
        <ele>20.60000038147</ele>
        <time>2021-08-10T10:28:30Z</time>
      </trkpt>
      <trkpt lat="43.39318" lon="3.67576">
        <ele>21.799999237061</ele>
        <time>2021-08-10T10:28:40Z</time>
      </trkpt>
      <trkpt lat="43.39351" lon="3.67619">
        <ele>25</ele>
        <time>2021-08-10T10:29:04Z</time>
      </trkpt>
      <trkpt lat="43.39352" lon="3.67621">
        <ele>25.200000762939</ele>
        <time>2021-08-10T10:29:05Z</time>
      </trkpt>
      <trkpt lat="43.39375" lon="3.67644">
        <ele>27.200000762939</ele>
        <time>2021-08-10T10:29:23Z</time>
      </trkpt>
      <trkpt lat="43.39444" lon="3.67733">
        <ele>28.60000038147</ele>
        <time>2021-08-10T10:29:55Z</time>
      </trkpt>
      <trkpt lat="43.39403" lon="3.67871">
        <ele>27.200000762939</ele>
        <time>2021-08-10T10:30:30Z</time>
      </trkpt>
      <trkpt lat="43.39375" lon="3.6804">
        <ele>26</ele>
        <time>2021-08-10T10:31:13Z</time>
      </trkpt>
      <trkpt lat="43.39379" lon="3.68171">
        <ele>26</ele>
        <time>2021-08-10T10:31:32Z</time>
      </trkpt>
      <trkpt lat="43.39383" lon="3.68256">
        <ele>26</ele>
        <time>2021-08-10T10:31:44Z</time>
      </trkpt>
      <trkpt lat="43.3933" lon="3.68411">
        <ele>25.200000762939</ele>
        <time>2021-08-10T10:32:06Z</time>
      </trkpt>
      <trkpt lat="43.39299" lon="3.68481">
        <ele>24.60000038147</ele>
        <time>2021-08-10T10:32:16Z</time>
      </trkpt>
      <trkpt lat="43.39254" lon="3.6876">
        <ele>22.39999961853</ele>
        <time>2021-08-10T10:32:53Z</time>
      </trkpt>
      <trkpt lat="43.3924" lon="3.68985">
        <ele>21</ele>
        <time>2021-08-10T10:33:22Z</time>
      </trkpt>
      <trkpt lat="43.39281" lon="3.69141">
        <ele>19.799999237061</ele>
        <time>2021-08-10T10:33:50Z</time>
      </trkpt>
      <trkpt lat="43.39317" lon="3.69176">
        <ele>18.60000038147</ele>
        <time>2021-08-10T10:34:03Z</time>
      </trkpt>
      <trkpt lat="43.39321" lon="3.69178">
        <ele>18.60000038147</ele>
        <time>2021-08-10T10:34:04Z</time>
      </trkpt>
      <trkpt lat="43.39414" lon="3.69213">
        <ele>18</ele>
        <time>2021-08-10T10:34:33Z</time>
      </trkpt>
      <trkpt lat="43.39478" lon="3.69387">
        <ele>16.799999237061</ele>
        <time>2021-08-10T10:35:03Z</time>
      </trkpt>
      <trkpt lat="43.39496" lon="3.69471">
        <ele>15.60000038147</ele>
        <time>2021-08-10T10:35:28Z</time>
      </trkpt>
      <trkpt lat="43.39512" lon="3.69505">
        <ele>15.199999809265</ele>
        <time>2021-08-10T10:35:39Z</time>
      </trkpt>
      <trkpt lat="43.3955" lon="3.69519">
        <ele>14.60000038147</ele>
        <time>2021-08-10T10:35:48Z</time>
      </trkpt>
      <trkpt lat="43.39557" lon="3.6952">
        <ele>14.800000190735</ele>
        <time>2021-08-10T10:35:49Z</time>
      </trkpt>
      <trkpt lat="43.39642" lon="3.69566">
        <ele>12.800000190735</ele>
        <time>2021-08-10T10:36:02Z</time>
      </trkpt>
      <trkpt lat="43.39676" lon="3.69578">
        <ele>12</ele>
        <time>2021-08-10T10:36:08Z</time>
      </trkpt>
      <trkpt lat="43.39722" lon="3.69596">
        <ele>11.60000038147</ele>
        <time>2021-08-10T10:36:17Z</time>
      </trkpt>
      <trkpt lat="43.39849" lon="3.6967">
        <ele>10.800000190735</ele>
        <time>2021-08-10T10:37:01Z</time>
      </trkpt>
      <trkpt lat="43.39966" lon="3.69651">
        <ele>10.800000190735</ele>
        <time>2021-08-10T10:37:54Z</time>
      </trkpt>
      <trkpt lat="43.40064" lon="3.69675">
        <ele>10.199999809265</ele>
        <time>2021-08-10T10:39:18Z</time>
      </trkpt>
      <trkpt lat="43.40178" lon="3.69737">
        <ele>11.800000190735</ele>
        <time>2021-08-10T10:40:13Z</time>
      </trkpt>
      <trkpt lat="43.40178" lon="3.69771">
        <ele>12.60000038147</ele>
        <time>2021-08-10T10:45:01Z</time>
      </trkpt>
      <trkpt lat="43.40301" lon="3.69757">
        <ele>11.39999961853</ele>
        <time>2021-08-10T10:47:05Z</time>
      </trkpt>
      <trkpt lat="43.4037" lon="3.69743">
        <ele>10.800000190735</ele>
        <time>2021-08-10T10:48:37Z</time>
      </trkpt>
      <trkpt lat="43.40418" lon="3.69735">
        <ele>11</ele>
        <time>2021-08-10T10:49:19Z</time>
      </trkpt>
      <trkpt lat="43.40427" lon="3.69734">
        <ele>11.60000038147</ele>
        <time>2021-08-10T10:49:28Z</time>
      </trkpt>
      <trkpt lat="43.40556" lon="3.69751">
        <ele>11.39999961853</ele>
        <time>2021-08-10T10:50:11Z</time>
      </trkpt>
      <trkpt lat="43.4071" lon="3.70089">
        <ele>12</ele>
        <time>2021-08-10T10:51:18Z</time>
      </trkpt>
      <trkpt lat="43.40814" lon="3.70143">
        <ele>13.39999961853</ele>
        <time>2021-08-10T10:51:51Z</time>
      </trkpt>
      <trkpt lat="43.40837" lon="3.70181">
        <ele>14</ele>
        <time>2021-08-10T10:52:03Z</time>
      </trkpt>
      <trkpt lat="43.40879" lon="3.70279">
        <ele>13.39999961853</ele>
        <time>2021-08-10T10:52:17Z</time>
      </trkpt>
      <trkpt lat="43.40868" lon="3.70379">
        <ele>13</ele>
        <time>2021-08-10T10:53:08Z</time>
      </trkpt>
      <trkpt lat="43.40895" lon="3.70501">
        <ele>11.800000190735</ele>
        <time>2021-08-10T10:53:39Z</time>
      </trkpt>
      <trkpt lat="43.4095" lon="3.70485">
        <ele>12</ele>
        <time>2021-08-10T10:54:07Z</time>
      </trkpt>
      <trkpt lat="43.40969" lon="3.70525">
        <ele>12</ele>
        <time>2021-08-10T10:54:16Z</time>
      </trkpt>
      <trkpt lat="43.4108" lon="3.7076">
        <ele>10.39999961853</ele>
        <time>2021-08-10T10:56:27Z</time>
      </trkpt>
      <trkpt lat="43.41192" lon="3.71011">
        <ele>10.800000190735</ele>
        <time>2021-08-10T10:57:26Z</time>
      </trkpt>
      <trkpt lat="43.41239" lon="3.71105">
        <ele>11</ele>
        <time>2021-08-10T10:57:45Z</time>
      </trkpt>
      <trkpt lat="43.41322" lon="3.71271">
        <ele>11</ele>
        <time>2021-08-10T10:58:15Z</time>
      </trkpt>
      <trkpt lat="43.41414" lon="3.71455">
        <ele>11.39999961853</ele>
        <time>2021-08-10T10:58:47Z</time>
      </trkpt>
      <trkpt lat="43.41524" lon="3.71706">
        <ele>11.60000038147</ele>
        <time>2021-08-10T10:59:30Z</time>
      </trkpt>
      <trkpt lat="43.4162" lon="3.7193">
        <ele>11.60000038147</ele>
        <time>2021-08-10T11:00:11Z</time>
      </trkpt>
      <trkpt lat="43.4163" lon="3.71956">
        <ele>11.60000038147</ele>
        <time>2021-08-10T11:00:16Z</time>
      </trkpt>
      <trkpt lat="43.41647" lon="3.71993">
        <ele>11.60000038147</ele>
        <time>2021-08-10T11:00:24Z</time>
      </trkpt>
      <trkpt lat="43.41708" lon="3.72121">
        <ele>11.39999961853</ele>
        <time>2021-08-10T11:00:49Z</time>
      </trkpt>
      <trkpt lat="43.41798" lon="3.72301">
        <ele>10.800000190735</ele>
        <time>2021-08-10T11:04:55Z</time>
      </trkpt>
      <trkpt lat="43.41828" lon="3.7231">
        <ele>10.60000038147</ele>
        <time>2021-08-10T11:05:07Z</time>
      </trkpt>
      <trkpt lat="43.41844" lon="3.72303">
        <ele>10.60000038147</ele>
        <time>2021-08-10T11:05:13Z</time>
      </trkpt>
      <trkpt lat="43.41922" lon="3.72279">
        <ele>11.39999961853</ele>
        <time>2021-08-10T11:05:56Z</time>
      </trkpt>
      <trkpt lat="43.42088" lon="3.72221">
        <ele>12</ele>
        <time>2021-08-10T11:06:39Z</time>
      </trkpt>
      <trkpt lat="43.42095" lon="3.72258">
        <ele>12.39999961853</ele>
        <time>2021-08-10T11:06:50Z</time>
      </trkpt>
      <trkpt lat="43.42096" lon="3.72267">
        <ele>13</ele>
        <time>2021-08-10T11:06:53Z</time>
      </trkpt>
      <trkpt lat="43.42139" lon="3.72261">
        <ele>13.60000038147</ele>
        <time>2021-08-10T11:07:09Z</time>
      </trkpt>
      <trkpt lat="43.42267" lon="3.72228">
        <ele>15.60000038147</ele>
        <time>2021-08-10T11:07:47Z</time>
      </trkpt>
      <trkpt lat="43.42271" lon="3.72293">
        <ele>15</ele>
        <time>2021-08-10T11:08:02Z</time>
      </trkpt>
      <trkpt lat="43.42272" lon="3.72301">
        <ele>14.800000190735</ele>
        <time>2021-08-10T11:08:03Z</time>
      </trkpt>
      <trkpt lat="43.42281" lon="3.72368">
        <ele>12.39999961853</ele>
        <time>2021-08-10T11:08:15Z</time>
      </trkpt>
      <trkpt lat="43.42285" lon="3.72385">
        <ele>12.39999961853</ele>
        <time>2021-08-10T11:08:18Z</time>
      </trkpt>
      <trkpt lat="43.42295" lon="3.72458">
        <ele>11.800000190735</ele>
        <time>2021-08-10T11:08:29Z</time>
      </trkpt>
      <trkpt lat="43.42372" lon="3.7288">
        <ele>11.800000190735</ele>
        <time>2021-08-10T11:09:30Z</time>
      </trkpt>
      <trkpt lat="43.42438" lon="3.73">
        <ele>10.60000038147</ele>
        <time>2021-08-10T11:10:01Z</time>
      </trkpt>
      <trkpt lat="43.42466" lon="3.72979">
        <ele>10</ele>
        <time>2021-08-10T11:10:12Z</time>
      </trkpt>
      <trkpt lat="43.42482" lon="3.73001">
        <ele>10.39999961853</ele>
        <time>2021-08-10T11:10:19Z</time>
      </trkpt>
      <trkpt lat="43.42538" lon="3.73108">
        <ele>11.800000190735</ele>
        <time>2021-08-10T11:10:39Z</time>
      </trkpt>
      <trkpt lat="43.42595" lon="3.73379">
        <ele>11.39999961853</ele>
        <time>2021-08-10T11:11:27Z</time>
      </trkpt>
      <trkpt lat="43.42709" lon="3.73635">
        <ele>11.800000190735</ele>
        <time>2021-08-10T11:12:10Z</time>
      </trkpt>
      <trkpt lat="43.42711" lon="3.73641">
        <ele>12</ele>
        <time>2021-08-10T11:12:11Z</time>
      </trkpt>
      <trkpt lat="43.42724" lon="3.73678">
        <ele>11.800000190735</ele>
        <time>2021-08-10T11:12:17Z</time>
      </trkpt>
      <trkpt lat="43.42848" lon="3.73799">
        <ele>11.199999809265</ele>
        <time>2021-08-10T11:12:46Z</time>
      </trkpt>
      <trkpt lat="43.42881" lon="3.73854">
        <ele>11.60000038147</ele>
        <time>2021-08-10T11:12:56Z</time>
      </trkpt>
      <trkpt lat="43.42909" lon="3.73884">
        <ele>11.60000038147</ele>
        <time>2021-08-10T11:13:03Z</time>
      </trkpt>
      <trkpt lat="43.42934" lon="3.73912">
        <ele>11.60000038147</ele>
        <time>2021-08-10T11:13:09Z</time>
      </trkpt>
      <trkpt lat="43.43113" lon="3.74004">
        <ele>11.199999809265</ele>
        <time>2021-08-10T11:13:47Z</time>
      </trkpt>
      <trkpt lat="43.43134" lon="3.73994">
        <ele>11.199999809265</ele>
        <time>2021-08-10T11:13:51Z</time>
      </trkpt>
      <trkpt lat="43.43182" lon="3.74016">
        <ele>11.199999809265</ele>
        <time>2021-08-10T11:14:00Z</time>
      </trkpt>
      <trkpt lat="43.432" lon="3.74039">
        <ele>11.199999809265</ele>
        <time>2021-08-10T11:14:06Z</time>
      </trkpt>
      <trkpt lat="43.43267" lon="3.74159">
        <ele>12.199999809265</ele>
        <time>2021-08-10T11:14:28Z</time>
      </trkpt>
      <trkpt lat="43.43295" lon="3.74211">
        <ele>12.39999961853</ele>
        <time>2021-08-10T11:14:37Z</time>
      </trkpt>
      <trkpt lat="43.43319" lon="3.74239">
        <ele>12.199999809265</ele>
        <time>2021-08-10T11:14:43Z</time>
      </trkpt>
      <trkpt lat="43.43438" lon="3.74384">
        <ele>11.800000190735</ele>
        <time>2021-08-10T11:15:12Z</time>
      </trkpt>
      <trkpt lat="43.43558" lon="3.74404">
        <ele>11.39999961853</ele>
        <time>2021-08-10T11:15:35Z</time>
      </trkpt>
      <trkpt lat="43.43583" lon="3.74399">
        <ele>11.39999961853</ele>
        <time>2021-08-10T11:15:40Z</time>
      </trkpt>
      <trkpt lat="43.43601" lon="3.744">
        <ele>11.39999961853</ele>
        <time>2021-08-10T11:15:44Z</time>
      </trkpt>
      <trkpt lat="43.43634" lon="3.74407">
        <ele>11.199999809265</ele>
        <time>2021-08-10T11:15:52Z</time>
      </trkpt>
      <trkpt lat="43.43713" lon="3.74447">
        <ele>11.60000038147</ele>
        <time>2021-08-10T11:16:09Z</time>
      </trkpt>
      <trkpt lat="43.43887" lon="3.74554">
        <ele>11.800000190735</ele>
        <time>2021-08-10T11:16:45Z</time>
      </trkpt>
      <trkpt lat="43.44009" lon="3.74692">
        <ele>12.800000190735</ele>
        <time>2021-08-10T11:17:16Z</time>
      </trkpt>
      <trkpt lat="43.44106" lon="3.74848">
        <ele>12</ele>
        <time>2021-08-10T11:17:43Z</time>
      </trkpt>
      <trkpt lat="43.44014" lon="3.74985">
        <ele>12.39999961853</ele>
        <time>2021-08-10T11:18:18Z</time>
      </trkpt>
      <trkpt lat="43.44059" lon="3.7508">
        <ele>12.199999809265</ele>
        <time>2021-08-10T11:18:35Z</time>
      </trkpt>
      <trkpt lat="43.44097" lon="3.75121">
        <ele>12</ele>
        <time>2021-08-10T11:18:44Z</time>
      </trkpt>
      <trkpt lat="43.44175" lon="3.75236">
        <ele>12.199999809265</ele>
        <time>2021-08-10T11:19:05Z</time>
      </trkpt>
      <trkpt lat="43.44209" lon="3.75288">
        <ele>12.199999809265</ele>
        <time>2021-08-10T11:19:15Z</time>
      </trkpt>
      <trkpt lat="43.44158" lon="3.75406">
        <ele>12.39999961853</ele>
        <time>2021-08-10T11:19:44Z</time>
      </trkpt>
      <trkpt lat="43.44151" lon="3.75432">
        <ele>12.39999961853</ele>
        <time>2021-08-10T11:19:50Z</time>
      </trkpt>
      <trkpt lat="43.44223" lon="3.75488">
        <ele>12</ele>
        <time>2021-08-10T11:20:09Z</time>
      </trkpt>
      <trkpt lat="43.44305" lon="3.75543">
        <ele>11.39999961853</ele>
        <time>2021-08-10T11:20:28Z</time>
      </trkpt>
      <trkpt lat="43.44422" lon="3.75827">
        <ele>11.60000038147</ele>
        <time>2021-08-10T11:21:37Z</time>
      </trkpt>
      <trkpt lat="43.44424" lon="3.75831">
        <ele>12</ele>
        <time>2021-08-10T11:26:45Z</time>
      </trkpt>
      <trkpt lat="43.44561" lon="3.75819">
        <ele>11.800000190735</ele>
        <time>2021-08-10T11:27:30Z</time>
      </trkpt>
      <trkpt lat="43.44582" lon="3.75695">
        <ele>12.800000190735</ele>
        <time>2021-08-10T11:28:09Z</time>
      </trkpt>
      <trkpt lat="43.44547" lon="3.75709">
        <ele>13.39999961853</ele>
        <time>2021-08-10T11:28:37Z</time>
      </trkpt>
      <trkpt lat="43.44569" lon="3.75725">
        <ele>12.800000190735</ele>
        <time>2021-08-10T11:28:57Z</time>
      </trkpt>
      <trkpt lat="43.44616" lon="3.75645">
        <ele>13.60000038147</ele>
        <time>2021-08-10T11:29:36Z</time>
      </trkpt>
      <trkpt lat="43.44618" lon="3.7563">
        <ele>14</ele>
        <time>2021-08-10T11:29:53Z</time>
      </trkpt>
      <trkpt lat="43.44587" lon="3.75645">
        <ele>19</ele>
        <time>2021-08-10T12:20:30Z</time>
      </trkpt>
      <trkpt lat="43.44589" lon="3.75647">
        <ele>19</ele>
        <time>2021-08-10T12:20:31Z</time>
      </trkpt>
      <trkpt lat="43.44563" lon="3.75684">
        <ele>18.200000762939</ele>
        <time>2021-08-10T12:20:56Z</time>
      </trkpt>
      <trkpt lat="43.44532" lon="3.75727">
        <ele>18.200000762939</ele>
        <time>2021-08-10T12:21:14Z</time>
      </trkpt>
      <trkpt lat="43.44508" lon="3.75746">
        <ele>18</ele>
        <time>2021-08-10T12:21:23Z</time>
      </trkpt>
      <trkpt lat="43.44414" lon="3.75826">
        <ele>17.200000762939</ele>
        <time>2021-08-10T12:22:01Z</time>
      </trkpt>
      <trkpt lat="43.44375" lon="3.75909">
        <ele>17.39999961853</ele>
        <time>2021-08-10T12:22:45Z</time>
      </trkpt>
      <trkpt lat="43.44357" lon="3.75906">
        <ele>17.60000038147</ele>
        <time>2021-08-10T12:22:50Z</time>
      </trkpt>
      <trkpt lat="43.44211" lon="3.75879">
        <ele>17.799999237061</ele>
        <time>2021-08-10T12:23:23Z</time>
      </trkpt>
      <trkpt lat="43.44146" lon="3.75899">
        <ele>17.799999237061</ele>
        <time>2021-08-10T12:23:37Z</time>
      </trkpt>
      <trkpt lat="43.44043" lon="3.75942">
        <ele>18.200000762939</ele>
        <time>2021-08-10T12:24:02Z</time>
      </trkpt>
      <trkpt lat="43.43917" lon="3.75977">
        <ele>17.799999237061</ele>
        <time>2021-08-10T12:24:39Z</time>
      </trkpt>
      <trkpt lat="43.43809" lon="3.76018">
        <ele>20.39999961853</ele>
        <time>2021-08-10T12:25:12Z</time>
      </trkpt>
      <trkpt lat="43.43766" lon="3.76056">
        <ele>21.60000038147</ele>
        <time>2021-08-10T12:25:30Z</time>
      </trkpt>
      <trkpt lat="43.4375" lon="3.76052">
        <ele>22.200000762939</ele>
        <time>2021-08-10T12:25:36Z</time>
      </trkpt>
      <trkpt lat="43.43741" lon="3.7605">
        <ele>22.200000762939</ele>
        <time>2021-08-10T12:25:40Z</time>
      </trkpt>
      <trkpt lat="43.43729" lon="3.76075">
        <ele>22.799999237061</ele>
        <time>2021-08-10T12:25:51Z</time>
      </trkpt>
      <trkpt lat="43.43719" lon="3.76098">
        <ele>23.200000762939</ele>
        <time>2021-08-10T12:25:58Z</time>
      </trkpt>
      <trkpt lat="43.43722" lon="3.76114">
        <ele>23.60000038147</ele>
        <time>2021-08-10T12:26:03Z</time>
      </trkpt>
      <trkpt lat="43.43725" lon="3.76138">
        <ele>23.60000038147</ele>
        <time>2021-08-10T12:26:09Z</time>
      </trkpt>
      <trkpt lat="43.43717" lon="3.76169">
        <ele>24.200000762939</ele>
        <time>2021-08-10T12:26:16Z</time>
      </trkpt>
      <trkpt lat="43.43615" lon="3.76338">
        <ele>23.60000038147</ele>
        <time>2021-08-10T12:26:53Z</time>
      </trkpt>
      <trkpt lat="43.43587" lon="3.76285">
        <ele>18.39999961853</ele>
        <time>2021-08-10T12:27:07Z</time>
      </trkpt>
      <trkpt lat="43.4358" lon="3.76277">
        <ele>17.60000038147</ele>
        <time>2021-08-10T12:27:10Z</time>
      </trkpt>
      <trkpt lat="43.43571" lon="3.76392">
        <ele>17.200000762939</ele>
        <time>2021-08-10T12:27:28Z</time>
      </trkpt>
      <trkpt lat="43.43542" lon="3.77076">
        <ele>17.39999961853</ele>
        <time>2021-08-10T12:29:00Z</time>
      </trkpt>
      <trkpt lat="43.43529" lon="3.77254">
        <ele>17.200000762939</ele>
        <time>2021-08-10T12:29:34Z</time>
      </trkpt>
      <trkpt lat="43.43514" lon="3.77418">
        <ele>17</ele>
        <time>2021-08-10T12:29:59Z</time>
      </trkpt>
      <trkpt lat="43.43521" lon="3.77468">
        <ele>16.799999237061</ele>
        <time>2021-08-10T12:30:08Z</time>
      </trkpt>
      <trkpt lat="43.43536" lon="3.77625">
        <ele>20</ele>
        <time>2021-08-10T12:30:39Z</time>
      </trkpt>
      <trkpt lat="43.43541" lon="3.77682">
        <ele>20.200000762939</ele>
        <time>2021-08-10T12:30:49Z</time>
      </trkpt>
      <trkpt lat="43.4355" lon="3.77758">
        <ele>20</ele>
        <time>2021-08-10T12:30:59Z</time>
      </trkpt>
      <trkpt lat="43.43542" lon="3.77798">
        <ele>18.60000038147</ele>
        <time>2021-08-10T12:31:07Z</time>
      </trkpt>
      <trkpt lat="43.4354" lon="3.77803">
        <ele>18.200000762939</ele>
        <time>2021-08-10T12:31:09Z</time>
      </trkpt>
      <trkpt lat="43.43571" lon="3.77846">
        <ele>16.60000038147</ele>
        <time>2021-08-10T12:31:26Z</time>
      </trkpt>
      <trkpt lat="43.43624" lon="3.7795">
        <ele>17.200000762939</ele>
        <time>2021-08-10T12:31:45Z</time>
      </trkpt>
      <trkpt lat="43.43966" lon="3.78694">
        <ele>17.39999961853</ele>
        <time>2021-08-10T12:33:34Z</time>
      </trkpt>
      <trkpt lat="43.44083" lon="3.78949">
        <ele>18</ele>
        <time>2021-08-10T12:34:10Z</time>
      </trkpt>
      <trkpt lat="43.44124" lon="3.79205">
        <ele>17.200000762939</ele>
        <time>2021-08-10T12:34:54Z</time>
      </trkpt>
      <trkpt lat="43.4423" lon="3.79207">
        <ele>17.799999237061</ele>
        <time>2021-08-10T12:35:30Z</time>
      </trkpt>
      <trkpt lat="43.44314" lon="3.79304">
        <ele>18.200000762939</ele>
        <time>2021-08-10T12:35:50Z</time>
      </trkpt>
      <trkpt lat="43.44545" lon="3.79497">
        <ele>18.39999961853</ele>
        <time>2021-08-10T12:36:38Z</time>
      </trkpt>
      <trkpt lat="43.44576" lon="3.79518">
        <ele>18.799999237061</ele>
        <time>2021-08-10T12:37:24Z</time>
      </trkpt>
      <trkpt lat="43.44807" lon="3.79718">
        <ele>18.799999237061</ele>
        <time>2021-08-10T12:38:11Z</time>
      </trkpt>
      <trkpt lat="43.44933" lon="3.79863">
        <ele>19.200000762939</ele>
        <time>2021-08-10T12:38:37Z</time>
      </trkpt>
      <trkpt lat="43.44976" lon="3.79947">
        <ele>19.200000762939</ele>
        <time>2021-08-10T12:38:49Z</time>
      </trkpt>
      <trkpt lat="43.45332" lon="3.80708">
        <ele>19.60000038147</ele>
        <time>2021-08-10T12:40:37Z</time>
      </trkpt>
      <trkpt lat="43.45369" lon="3.80782">
        <ele>19.60000038147</ele>
        <time>2021-08-10T12:40:48Z</time>
      </trkpt>
      <trkpt lat="43.45651" lon="3.81343">
        <ele>19</ele>
        <time>2021-08-10T12:42:19Z</time>
      </trkpt>
      <trkpt lat="43.46044" lon="3.81916">
        <ele>19.200000762939</ele>
        <time>2021-08-10T12:43:58Z</time>
      </trkpt>
      <trkpt lat="43.46122" lon="3.81958">
        <ele>19.39999961853</ele>
        <time>2021-08-10T12:44:12Z</time>
      </trkpt>
      <trkpt lat="43.46191" lon="3.81971">
        <ele>19.200000762939</ele>
        <time>2021-08-10T12:44:25Z</time>
      </trkpt>
      <trkpt lat="43.46322" lon="3.81926">
        <ele>19.39999961853</ele>
        <time>2021-08-10T12:44:50Z</time>
      </trkpt>
      <trkpt lat="43.46327" lon="3.81924">
        <ele>19.200000762939</ele>
        <time>2021-08-10T12:44:51Z</time>
      </trkpt>
      <trkpt lat="43.46406" lon="3.81831">
        <ele>22.799999237061</ele>
        <time>2021-08-10T12:45:23Z</time>
      </trkpt>
      <trkpt lat="43.46408" lon="3.81829">
        <ele>22.799999237061</ele>
        <time>2021-08-10T12:45:24Z</time>
      </trkpt>
      <trkpt lat="43.46459" lon="3.81767">
        <ele>26</ele>
        <time>2021-08-10T12:45:52Z</time>
      </trkpt>
      <trkpt lat="43.4647" lon="3.81755">
        <ele>26</ele>
        <time>2021-08-10T12:46:00Z</time>
      </trkpt>
      <trkpt lat="43.46545" lon="3.81673">
        <ele>23.39999961853</ele>
        <time>2021-08-10T12:47:37Z</time>
      </trkpt>
      <trkpt lat="43.46548" lon="3.81673">
        <ele>23.200000762939</ele>
        <time>2021-08-10T12:47:38Z</time>
      </trkpt>
      <trkpt lat="43.46503" lon="3.81687">
        <ele>20.200000762939</ele>
        <time>2021-08-10T12:48:02Z</time>
      </trkpt>
      <trkpt lat="43.46586" lon="3.81598">
        <ele>20.39999961853</ele>
        <time>2021-08-10T12:48:34Z</time>
      </trkpt>
      <trkpt lat="43.46745" lon="3.81364">
        <ele>20.200000762939</ele>
        <time>2021-08-10T12:49:18Z</time>
      </trkpt>
      <trkpt lat="43.46766" lon="3.8132">
        <ele>20.39999961853</ele>
        <time>2021-08-10T12:49:28Z</time>
      </trkpt>
      <trkpt lat="43.46826" lon="3.81202">
        <ele>22.799999237061</ele>
        <time>2021-08-10T12:49:57Z</time>
      </trkpt>
      <trkpt lat="43.46862" lon="3.81148">
        <ele>23.799999237061</ele>
        <time>2021-08-10T12:50:13Z</time>
      </trkpt>
      <trkpt lat="43.46881" lon="3.81118">
        <ele>24</ele>
        <time>2021-08-10T12:50:19Z</time>
      </trkpt>
      <trkpt lat="43.46922" lon="3.81058">
        <ele>25.200000762939</ele>
        <time>2021-08-10T12:50:34Z</time>
      </trkpt>
      <trkpt lat="43.46989" lon="3.8096">
        <ele>26.60000038147</ele>
        <time>2021-08-10T12:50:55Z</time>
      </trkpt>
      <trkpt lat="43.47051" lon="3.80912">
        <ele>26</ele>
        <time>2021-08-10T12:51:06Z</time>
      </trkpt>
      <trkpt lat="43.47171" lon="3.80826">
        <ele>23.799999237061</ele>
        <time>2021-08-10T12:51:24Z</time>
      </trkpt>
      <trkpt lat="43.47178" lon="3.80823">
        <ele>23.60000038147</ele>
        <time>2021-08-10T12:51:25Z</time>
      </trkpt>
      <trkpt lat="43.47247" lon="3.80776">
        <ele>21.39999961853</ele>
        <time>2021-08-10T12:51:38Z</time>
      </trkpt>
      <trkpt lat="43.4729" lon="3.80732">
        <ele>21.39999961853</ele>
        <time>2021-08-10T12:51:48Z</time>
      </trkpt>
      <trkpt lat="43.47377" lon="3.80639">
        <ele>21</ele>
        <time>2021-08-10T12:52:07Z</time>
      </trkpt>
      <trkpt lat="43.47652" lon="3.80596">
        <ele>20.60000038147</ele>
        <time>2021-08-10T12:52:51Z</time>
      </trkpt>
      <trkpt lat="43.47698" lon="3.80563">
        <ele>20.60000038147</ele>
        <time>2021-08-10T12:52:59Z</time>
      </trkpt>
      <trkpt lat="43.47996" lon="3.80416">
        <ele>21</ele>
        <time>2021-08-10T12:53:49Z</time>
      </trkpt>
      <trkpt lat="43.48068" lon="3.80345">
        <ele>20.60000038147</ele>
        <time>2021-08-10T12:54:03Z</time>
      </trkpt>
      <trkpt lat="43.48238" lon="3.80162">
        <ele>21.60000038147</ele>
        <time>2021-08-10T12:54:40Z</time>
      </trkpt>
      <trkpt lat="43.4836" lon="3.80045">
        <ele>24.200000762939</ele>
        <time>2021-08-10T12:55:20Z</time>
      </trkpt>
      <trkpt lat="43.48469" lon="3.79956">
        <ele>27.39999961853</ele>
        <time>2021-08-10T12:55:57Z</time>
      </trkpt>
      <trkpt lat="43.48475" lon="3.7995">
        <ele>27.60000038147</ele>
        <time>2021-08-10T12:55:59Z</time>
      </trkpt>
      <trkpt lat="43.48531" lon="3.79905">
        <ele>28.60000038147</ele>
        <time>2021-08-10T12:56:16Z</time>
      </trkpt>
      <trkpt lat="43.48575" lon="3.79887">
        <ele>29</ele>
        <time>2021-08-10T12:56:27Z</time>
      </trkpt>
      <trkpt lat="43.48694" lon="3.79916">
        <ele>29.799999237061</ele>
        <time>2021-08-10T12:56:59Z</time>
      </trkpt>
      <trkpt lat="43.48795" lon="3.79957">
        <ele>31.200000762939</ele>
        <time>2021-08-10T12:57:27Z</time>
      </trkpt>
      <trkpt lat="43.48976" lon="3.79869">
        <ele>29.200000762939</ele>
        <time>2021-08-10T12:58:02Z</time>
      </trkpt>
      <trkpt lat="43.48997" lon="3.79855">
        <ele>29</ele>
        <time>2021-08-10T12:58:06Z</time>
      </trkpt>
      <trkpt lat="43.49044" lon="3.79701">
        <ele>27.60000038147</ele>
        <time>2021-08-10T12:58:29Z</time>
      </trkpt>
      <trkpt lat="43.49073" lon="3.79633">
        <ele>26.60000038147</ele>
        <time>2021-08-10T12:58:47Z</time>
      </trkpt>
      <trkpt lat="43.49062" lon="3.79678">
        <ele>26</ele>
        <time>2021-08-10T12:59:11Z</time>
      </trkpt>
      <trkpt lat="43.49131" lon="3.79616">
        <ele>26.200000762939</ele>
        <time>2021-08-10T12:59:46Z</time>
      </trkpt>
      <trkpt lat="43.49156" lon="3.79647">
        <ele>25.200000762939</ele>
        <time>2021-08-10T12:59:53Z</time>
      </trkpt>
      <trkpt lat="43.49273" lon="3.79566">
        <ele>23.39999961853</ele>
        <time>2021-08-10T13:00:24Z</time>
      </trkpt>
      <trkpt lat="43.49301" lon="3.79552">
        <ele>23.799999237061</ele>
        <time>2021-08-10T13:04:06Z</time>
      </trkpt>
      <trkpt lat="43.49449" lon="3.79536">
        <ele>24</ele>
        <time>2021-08-10T13:04:47Z</time>
      </trkpt>
      <trkpt lat="43.49478" lon="3.79554">
        <ele>23.799999237061</ele>
        <time>2021-08-10T13:05:03Z</time>
      </trkpt>
      <trkpt lat="43.49496" lon="3.79525">
        <ele>23.799999237061</ele>
        <time>2021-08-10T13:05:12Z</time>
      </trkpt>
      <trkpt lat="43.49533" lon="3.79449">
        <ele>26.39999961853</ele>
        <time>2021-08-10T13:05:40Z</time>
      </trkpt>
      <trkpt lat="43.49589" lon="3.79341">
        <ele>29.200000762939</ele>
        <time>2021-08-10T13:06:15Z</time>
      </trkpt>
      <trkpt lat="43.4962" lon="3.79282">
        <ele>29</ele>
        <time>2021-08-10T13:06:26Z</time>
      </trkpt>
      <trkpt lat="43.49621" lon="3.79341">
        <ele>26.60000038147</ele>
        <time>2021-08-10T13:06:39Z</time>
      </trkpt>
      <trkpt lat="43.49618" lon="3.79349">
        <ele>26.60000038147</ele>
        <time>2021-08-10T13:06:40Z</time>
      </trkpt>
      <trkpt lat="43.49657" lon="3.79441">
        <ele>25.39999961853</ele>
        <time>2021-08-10T13:06:53Z</time>
      </trkpt>
      <trkpt lat="43.49827" lon="3.79617">
        <ele>24.799999237061</ele>
        <time>2021-08-10T13:07:27Z</time>
      </trkpt>
      <trkpt lat="43.50018" lon="3.79809">
        <ele>24.39999961853</ele>
        <time>2021-08-10T13:08:07Z</time>
      </trkpt>
      <trkpt lat="43.50077" lon="3.79913">
        <ele>24</ele>
        <time>2021-08-10T13:08:23Z</time>
      </trkpt>
      <trkpt lat="43.50217" lon="3.80056">
        <ele>25</ele>
        <time>2021-08-10T13:08:55Z</time>
      </trkpt>
      <trkpt lat="43.50507" lon="3.80409">
        <ele>24.799999237061</ele>
        <time>2021-08-10T13:10:16Z</time>
      </trkpt>
      <trkpt lat="43.50561" lon="3.8049">
        <ele>24.60000038147</ele>
        <time>2021-08-10T13:10:32Z</time>
      </trkpt>
      <trkpt lat="43.50599" lon="3.80535">
        <ele>24.39999961853</ele>
        <time>2021-08-10T13:10:41Z</time>
      </trkpt>
      <trkpt lat="43.50688" lon="3.8065">
        <ele>23.60000038147</ele>
        <time>2021-08-10T13:11:03Z</time>
      </trkpt>
      <trkpt lat="43.50717" lon="3.807">
        <ele>23.200000762939</ele>
        <time>2021-08-10T13:11:12Z</time>
      </trkpt>
      <trkpt lat="43.50753" lon="3.80759">
        <ele>23.200000762939</ele>
        <time>2021-08-10T13:11:23Z</time>
      </trkpt>
      <trkpt lat="43.50789" lon="3.80806">
        <ele>23.200000762939</ele>
        <time>2021-08-10T13:11:32Z</time>
      </trkpt>
      <trkpt lat="43.50966" lon="3.81005">
        <ele>24.200000762939</ele>
        <time>2021-08-10T13:12:23Z</time>
      </trkpt>
      <trkpt lat="43.51067" lon="3.81126">
        <ele>24</ele>
        <time>2021-08-10T13:12:49Z</time>
      </trkpt>
      <trkpt lat="43.51267" lon="3.81505">
        <ele>24.200000762939</ele>
        <time>2021-08-10T13:13:49Z</time>
      </trkpt>
      <trkpt lat="43.51305" lon="3.81559">
        <ele>24</ele>
        <time>2021-08-10T13:13:59Z</time>
      </trkpt>
      <trkpt lat="43.5137" lon="3.81591">
        <ele>24.60000038147</ele>
        <time>2021-08-10T13:16:08Z</time>
      </trkpt>
      <trkpt lat="43.51538" lon="3.81366">
        <ele>27.39999961853</ele>
        <time>2021-08-10T13:17:13Z</time>
      </trkpt>
      <trkpt lat="43.51558" lon="3.81413">
        <ele>27.799999237061</ele>
        <time>2021-08-10T13:17:24Z</time>
      </trkpt>
      <trkpt lat="43.51574" lon="3.81464">
        <ele>27.799999237061</ele>
        <time>2021-08-10T13:17:32Z</time>
      </trkpt>
      <trkpt lat="43.51618" lon="3.81542">
        <ele>27.39999961853</ele>
        <time>2021-08-10T13:17:45Z</time>
      </trkpt>
      <trkpt lat="43.51751" lon="3.81724">
        <ele>29.200000762939</ele>
        <time>2021-08-10T13:18:27Z</time>
      </trkpt>
      <trkpt lat="43.51807" lon="3.81845">
        <ele>27.799999237061</ele>
        <time>2021-08-10T13:18:45Z</time>
      </trkpt>
      <trkpt lat="43.51906" lon="3.82032">
        <ele>28.39999961853</ele>
        <time>2021-08-10T13:19:15Z</time>
      </trkpt>
      <trkpt lat="43.51934" lon="3.82072">
        <ele>29</ele>
        <time>2021-08-10T13:19:24Z</time>
      </trkpt>
      <trkpt lat="43.51963" lon="3.82112">
        <ele>29.799999237061</ele>
        <time>2021-08-10T13:19:33Z</time>
      </trkpt>
      <trkpt lat="43.51992" lon="3.8216">
        <ele>30</ele>
        <time>2021-08-10T13:19:43Z</time>
      </trkpt>
      <trkpt lat="43.52114" lon="3.82392">
        <ele>33.799999237061</ele>
        <time>2021-08-10T13:20:36Z</time>
      </trkpt>
      <trkpt lat="43.52161" lon="3.82479">
        <ele>34.599998474121</ele>
        <time>2021-08-10T13:24:55Z</time>
      </trkpt>
      <trkpt lat="43.52163" lon="3.82484">
        <ele>34.400001525879</ele>
        <time>2021-08-10T13:24:56Z</time>
      </trkpt>
      <trkpt lat="43.52168" lon="3.82532">
        <ele>34</ele>
        <time>2021-08-10T13:25:03Z</time>
      </trkpt>
      <trkpt lat="43.5217" lon="3.82604">
        <ele>33.200000762939</ele>
        <time>2021-08-10T13:25:11Z</time>
      </trkpt>
      <trkpt lat="43.52167" lon="3.82665">
        <ele>31.60000038147</ele>
        <time>2021-08-10T13:25:16Z</time>
      </trkpt>
      <trkpt lat="43.52168" lon="3.82677">
        <ele>31.60000038147</ele>
        <time>2021-08-10T13:25:17Z</time>
      </trkpt>
      <trkpt lat="43.52177" lon="3.82755">
        <ele>29</ele>
        <time>2021-08-10T13:25:23Z</time>
      </trkpt>
      <trkpt lat="43.5221" lon="3.82808">
        <ele>26.799999237061</ele>
        <time>2021-08-10T13:25:29Z</time>
      </trkpt>
      <trkpt lat="43.52284" lon="3.82874">
        <ele>25.39999961853</ele>
        <time>2021-08-10T13:25:41Z</time>
      </trkpt>
      <trkpt lat="43.52344" lon="3.82908">
        <ele>25.39999961853</ele>
        <time>2021-08-10T13:25:51Z</time>
      </trkpt>
      <trkpt lat="43.52397" lon="3.82931">
        <ele>25.200000762939</ele>
        <time>2021-08-10T13:26:00Z</time>
      </trkpt>
      <trkpt lat="43.52428" lon="3.82971">
        <ele>25</ele>
        <time>2021-08-10T13:26:09Z</time>
      </trkpt>
      <trkpt lat="43.52456" lon="3.82998">
        <ele>24.799999237061</ele>
        <time>2021-08-10T13:26:16Z</time>
      </trkpt>
      <trkpt lat="43.52473" lon="3.83032">
        <ele>24.799999237061</ele>
        <time>2021-08-10T13:26:22Z</time>
      </trkpt>
      <trkpt lat="43.52489" lon="3.83089">
        <ele>24.799999237061</ele>
        <time>2021-08-10T13:26:30Z</time>
      </trkpt>
      <trkpt lat="43.52406" lon="3.83189">
        <ele>25.39999961853</ele>
        <time>2021-08-10T13:27:05Z</time>
      </trkpt>
      <trkpt lat="43.52402" lon="3.83191">
        <ele>25.200000762939</ele>
        <time>2021-08-10T13:27:06Z</time>
      </trkpt>
      <trkpt lat="43.52384" lon="3.832">
        <ele>25.39999961853</ele>
        <time>2021-08-10T13:27:11Z</time>
      </trkpt>
      <trkpt lat="43.52314" lon="3.83274">
        <ele>25</ele>
        <time>2021-08-10T13:27:29Z</time>
      </trkpt>
      <trkpt lat="43.52294" lon="3.83303">
        <ele>24.60000038147</ele>
        <time>2021-08-10T13:27:36Z</time>
      </trkpt>
      <trkpt lat="43.52299" lon="3.83324">
        <ele>24.39999961853</ele>
        <time>2021-08-10T13:27:40Z</time>
      </trkpt>
      <trkpt lat="43.52473" lon="3.83805">
        <ele>24.39999961853</ele>
        <time>2021-08-10T13:28:54Z</time>
      </trkpt>
      <trkpt lat="43.52512" lon="3.83873">
        <ele>24.39999961853</ele>
        <time>2021-08-10T13:29:04Z</time>
      </trkpt>
      <trkpt lat="43.52784" lon="3.84286">
        <ele>27.799999237061</ele>
        <time>2021-08-10T13:30:25Z</time>
      </trkpt>
      <trkpt lat="43.52821" lon="3.84351">
        <ele>28.39999961853</ele>
        <time>2021-08-10T13:30:37Z</time>
      </trkpt>
      <trkpt lat="43.52895" lon="3.84508">
        <ele>30</ele>
        <time>2021-08-10T13:31:03Z</time>
      </trkpt>
      <trkpt lat="43.52924" lon="3.84584">
        <ele>30.60000038147</ele>
        <time>2021-08-10T13:31:16Z</time>
      </trkpt>
      <trkpt lat="43.52938" lon="3.84604">
        <ele>30.60000038147</ele>
        <time>2021-08-10T13:31:21Z</time>
      </trkpt>
      <trkpt lat="43.5296" lon="3.84757">
        <ele>31.799999237061</ele>
        <time>2021-08-10T13:31:47Z</time>
      </trkpt>
      <trkpt lat="43.52962" lon="3.84762">
        <ele>32</ele>
        <time>2021-08-10T13:31:48Z</time>
      </trkpt>
      <trkpt lat="43.53017" lon="3.84852">
        <ele>33.400001525879</ele>
        <time>2021-08-10T13:32:07Z</time>
      </trkpt>
      <trkpt lat="43.53047" lon="3.84899">
        <ele>33.799999237061</ele>
        <time>2021-08-10T13:32:16Z</time>
      </trkpt>
      <trkpt lat="43.53226" lon="3.85167">
        <ele>36.400001525879</ele>
        <time>2021-08-10T13:33:10Z</time>
      </trkpt>
      <trkpt lat="43.53276" lon="3.85239">
        <ele>37.200000762939</ele>
        <time>2021-08-10T13:33:33Z</time>
      </trkpt>
      <trkpt lat="43.53279" lon="3.85384">
        <ele>36.799999237061</ele>
        <time>2021-08-10T13:34:20Z</time>
      </trkpt>
      <trkpt lat="43.53279" lon="3.85389">
        <ele>37</ele>
        <time>2021-08-10T13:34:21Z</time>
      </trkpt>
      <trkpt lat="43.53279" lon="3.85436">
        <ele>36.400001525879</ele>
        <time>2021-08-10T13:34:30Z</time>
      </trkpt>
      <trkpt lat="43.53305" lon="3.8553">
        <ele>36.400001525879</ele>
        <time>2021-08-10T13:34:47Z</time>
      </trkpt>
      <trkpt lat="43.53301" lon="3.85611">
        <ele>35.400001525879</ele>
        <time>2021-08-10T13:35:01Z</time>
      </trkpt>
      <trkpt lat="43.53269" lon="3.85694">
        <ele>34.400001525879</ele>
        <time>2021-08-10T13:35:22Z</time>
      </trkpt>
      <trkpt lat="43.53278" lon="3.85925">
        <ele>31.200000762939</ele>
        <time>2021-08-10T13:35:51Z</time>
      </trkpt>
      <trkpt lat="43.53277" lon="3.8595">
        <ele>31</ele>
        <time>2021-08-10T13:35:54Z</time>
      </trkpt>
      <trkpt lat="43.5328" lon="3.8605">
        <ele>30.200000762939</ele>
        <time>2021-08-10T13:36:08Z</time>
      </trkpt>
      <trkpt lat="43.53292" lon="3.86085">
        <ele>29.799999237061</ele>
        <time>2021-08-10T13:36:15Z</time>
      </trkpt>
      <trkpt lat="43.5335" lon="3.86206">
        <ele>30.60000038147</ele>
        <time>2021-08-10T13:37:00Z</time>
      </trkpt>
      <trkpt lat="43.53382" lon="3.86288">
        <ele>31</ele>
        <time>2021-08-10T13:37:24Z</time>
      </trkpt>
      <trkpt lat="43.53375" lon="3.86329">
        <ele>30.39999961853</ele>
        <time>2021-08-10T13:38:19Z</time>
      </trkpt>
      <trkpt lat="43.53376" lon="3.86326">
        <ele>30.39999961853</ele>
        <time>2021-08-10T13:38:20Z</time>
      </trkpt>
      <trkpt lat="43.53384" lon="3.86294">
        <ele>30.39999961853</ele>
        <time>2021-08-10T13:38:28Z</time>
      </trkpt>
      <trkpt lat="43.5335" lon="3.86214">
        <ele>31.39999961853</ele>
        <time>2021-08-10T13:38:47Z</time>
      </trkpt>
      <trkpt lat="43.53326" lon="3.86167">
        <ele>31.60000038147</ele>
        <time>2021-08-10T13:39:02Z</time>
      </trkpt>
      <trkpt lat="43.53347" lon="3.86133">
        <ele>31</ele>
        <time>2021-08-10T13:39:12Z</time>
      </trkpt>
      <trkpt lat="43.53476" lon="3.85988">
        <ele>31.799999237061</ele>
        <time>2021-08-10T13:39:50Z</time>
      </trkpt>
      <trkpt lat="43.53557" lon="3.85901">
        <ele>33.599998474121</ele>
        <time>2021-08-10T13:40:14Z</time>
      </trkpt>
      <trkpt lat="43.53559" lon="3.85889">
        <ele>33.799999237061</ele>
        <time>2021-08-10T13:40:16Z</time>
      </trkpt>
      <trkpt lat="43.53639" lon="3.85796">
        <ele>35</ele>
        <time>2021-08-10T13:40:52Z</time>
      </trkpt>
      <trkpt lat="43.5376" lon="3.85675">
        <ele>35.200000762939</ele>
        <time>2021-08-10T13:41:28Z</time>
      </trkpt>
      <trkpt lat="43.53779" lon="3.85757">
        <ele>34.200000762939</ele>
        <time>2021-08-10T13:41:51Z</time>
      </trkpt>
      <trkpt lat="43.5377" lon="3.85763">
        <ele>34.200000762939</ele>
        <time>2021-08-10T13:41:55Z</time>
      </trkpt>
      <trkpt lat="43.53733" lon="3.85848">
        <ele>34</ele>
        <time>2021-08-10T14:10:08Z</time>
      </trkpt>
      <trkpt lat="43.53761" lon="3.85857">
        <ele>34</ele>
        <time>2021-08-10T14:13:17Z</time>
      </trkpt>
      <trkpt lat="43.53792" lon="3.85768">
        <ele>33.799999237061</ele>
        <time>2021-08-10T14:13:45Z</time>
      </trkpt>
      <trkpt lat="43.53789" lon="3.85813">
        <ele>33.200000762939</ele>
        <time>2021-08-10T14:14:02Z</time>
      </trkpt>
      <trkpt lat="43.53769" lon="3.859">
        <ele>33</ele>
        <time>2021-08-10T14:14:19Z</time>
      </trkpt>
      <trkpt lat="43.53753" lon="3.86067">
        <ele>31.60000038147</ele>
        <time>2021-08-10T14:14:44Z</time>
      </trkpt>
      <trkpt lat="43.53756" lon="3.86111">
        <ele>31.39999961853</ele>
        <time>2021-08-10T14:14:51Z</time>
      </trkpt>
      <trkpt lat="43.53792" lon="3.86479">
        <ele>28.200000762939</ele>
        <time>2021-08-10T14:15:53Z</time>
      </trkpt>
      <trkpt lat="43.53806" lon="3.86521">
        <ele>27.60000038147</ele>
        <time>2021-08-10T14:16:28Z</time>
      </trkpt>
      <trkpt lat="43.53841" lon="3.86487">
        <ele>28.200000762939</ele>
        <time>2021-08-10T14:16:47Z</time>
      </trkpt>
      <trkpt lat="43.53884" lon="3.86519">
        <ele>28.200000762939</ele>
        <time>2021-08-10T14:16:57Z</time>
      </trkpt>
      <trkpt lat="43.53909" lon="3.86515">
        <ele>28.39999961853</ele>
        <time>2021-08-10T14:17:02Z</time>
      </trkpt>
      <trkpt lat="43.53918" lon="3.8651">
        <ele>28.39999961853</ele>
        <time>2021-08-10T14:17:04Z</time>
      </trkpt>
      <trkpt lat="43.53975" lon="3.86504">
        <ele>28.60000038147</ele>
        <time>2021-08-10T14:17:16Z</time>
      </trkpt>
      <trkpt lat="43.54" lon="3.86511">
        <ele>28.60000038147</ele>
        <time>2021-08-10T14:17:21Z</time>
      </trkpt>
      <trkpt lat="43.5406" lon="3.86458">
        <ele>28.39999961853</ele>
        <time>2021-08-10T14:17:34Z</time>
      </trkpt>
      <trkpt lat="43.54102" lon="3.86407">
        <ele>28.200000762939</ele>
        <time>2021-08-10T14:17:43Z</time>
      </trkpt>
      <trkpt lat="43.54152" lon="3.86295">
        <ele>27.799999237061</ele>
        <time>2021-08-10T14:17:58Z</time>
      </trkpt>
      <trkpt lat="43.54187" lon="3.8622">
        <ele>27.60000038147</ele>
        <time>2021-08-10T14:18:09Z</time>
      </trkpt>
      <trkpt lat="43.54206" lon="3.86176">
        <ele>28</ele>
        <time>2021-08-10T14:18:16Z</time>
      </trkpt>
      <trkpt lat="43.54257" lon="3.86064">
        <ele>29.39999961853</ele>
        <time>2021-08-10T14:18:35Z</time>
      </trkpt>
      <trkpt lat="43.54367" lon="3.85763">
        <ele>29.200000762939</ele>
        <time>2021-08-10T14:19:17Z</time>
      </trkpt>
      <trkpt lat="43.54463" lon="3.85865">
        <ele>28.60000038147</ele>
        <time>2021-08-10T14:19:51Z</time>
      </trkpt>
      <trkpt lat="43.54481" lon="3.85937">
        <ele>28.60000038147</ele>
        <time>2021-08-10T14:20:00Z</time>
      </trkpt>
      <trkpt lat="43.54541" lon="3.85955">
        <ele>27.60000038147</ele>
        <time>2021-08-10T14:20:14Z</time>
      </trkpt>
      <trkpt lat="43.54619" lon="3.85902">
        <ele>28.39999961853</ele>
        <time>2021-08-10T14:20:37Z</time>
      </trkpt>
      <trkpt lat="43.5483" lon="3.85857">
        <ele>28.39999961853</ele>
        <time>2021-08-10T14:21:19Z</time>
      </trkpt>
      <trkpt lat="43.55177" lon="3.85856">
        <ele>28.39999961853</ele>
        <time>2021-08-10T14:22:25Z</time>
      </trkpt>
      <trkpt lat="43.55209" lon="3.85872">
        <ele>28.39999961853</ele>
        <time>2021-08-10T14:22:33Z</time>
      </trkpt>
      <trkpt lat="43.55458" lon="3.85989">
        <ele>28.799999237061</ele>
        <time>2021-08-10T14:23:24Z</time>
      </trkpt>
      <trkpt lat="43.55523" lon="3.86032">
        <ele>29.200000762939</ele>
        <time>2021-08-10T14:23:38Z</time>
      </trkpt>
      <trkpt lat="43.55537" lon="3.86042">
        <ele>29.39999961853</ele>
        <time>2021-08-10T14:23:41Z</time>
      </trkpt>
      <trkpt lat="43.55698" lon="3.86044">
        <ele>32.599998474121</ele>
        <time>2021-08-10T14:24:31Z</time>
      </trkpt>
      <trkpt lat="43.55703" lon="3.86047">
        <ele>32.799999237061</ele>
        <time>2021-08-10T14:24:33Z</time>
      </trkpt>
      <trkpt lat="43.55728" lon="3.8607">
        <ele>34.200000762939</ele>
        <time>2021-08-10T14:24:44Z</time>
      </trkpt>
      <trkpt lat="43.55756" lon="3.86096">
        <ele>35.200000762939</ele>
        <time>2021-08-10T14:24:55Z</time>
      </trkpt>
      <trkpt lat="43.55786" lon="3.86078">
        <ele>36</ele>
        <time>2021-08-10T14:25:05Z</time>
      </trkpt>
      <trkpt lat="43.55822" lon="3.86064">
        <ele>36.599998474121</ele>
        <time>2021-08-10T14:25:16Z</time>
      </trkpt>
      <trkpt lat="43.55878" lon="3.86075">
        <ele>36.799999237061</ele>
        <time>2021-08-10T14:25:30Z</time>
      </trkpt>
      <trkpt lat="43.55891" lon="3.861">
        <ele>37</ele>
        <time>2021-08-10T14:25:35Z</time>
      </trkpt>
      <trkpt lat="43.5591" lon="3.86162">
        <ele>36.799999237061</ele>
        <time>2021-08-10T14:25:45Z</time>
      </trkpt>
      <trkpt lat="43.55964" lon="3.86135">
        <ele>37.200000762939</ele>
        <time>2021-08-10T14:26:01Z</time>
      </trkpt>
      <trkpt lat="43.55983" lon="3.86118">
        <ele>37.799999237061</ele>
        <time>2021-08-10T14:26:08Z</time>
      </trkpt>
      <trkpt lat="43.56059" lon="3.86082">
        <ele>40.799999237061</ele>
        <time>2021-08-10T14:26:41Z</time>
      </trkpt>
      <trkpt lat="43.56058" lon="3.86069">
        <ele>41</ele>
        <time>2021-08-10T14:26:46Z</time>
      </trkpt>
      <trkpt lat="43.56043" lon="3.86058">
        <ele>39.799999237061</ele>
        <time>2021-08-10T14:31:38Z</time>
      </trkpt>
      <trkpt lat="43.56" lon="3.86034">
        <ele>42.799999237061</ele>
        <time>2021-08-10T14:32:06Z</time>
      </trkpt>
      <trkpt lat="43.55995" lon="3.86029">
        <ele>43.200000762939</ele>
        <time>2021-08-10T14:32:10Z</time>
      </trkpt>
      <trkpt lat="43.56012" lon="3.85981">
        <ele>45</ele>
        <time>2021-08-10T14:32:31Z</time>
      </trkpt>
      <trkpt lat="43.56035" lon="3.85992">
        <ele>44.599998474121</ele>
        <time>2021-08-10T14:32:37Z</time>
      </trkpt>
      <trkpt lat="43.56083" lon="3.86013">
        <ele>42</ele>
        <time>2021-08-10T14:32:51Z</time>
      </trkpt>
      <trkpt lat="43.56094" lon="3.86009">
        <ele>40.599998474121</ele>
        <time>2021-08-10T14:32:57Z</time>
      </trkpt>
      <trkpt lat="43.56096" lon="3.85994">
        <ele>40.200000762939</ele>
        <time>2021-08-10T14:33:52Z</time>
      </trkpt>
      <trkpt lat="43.56097" lon="3.85958">
        <ele>40.799999237061</ele>
        <time>2021-08-10T14:34:05Z</time>
      </trkpt>
      <trkpt lat="43.56096" lon="3.85869">
        <ele>42.599998474121</ele>
        <time>2021-08-10T14:34:34Z</time>
      </trkpt>
      <trkpt lat="43.56187" lon="3.85679">
        <ele>42.400001525879</ele>
        <time>2021-08-10T14:35:37Z</time>
      </trkpt>
      <trkpt lat="43.5629" lon="3.85564">
        <ele>44.400001525879</ele>
        <time>2021-08-10T14:36:24Z</time>
      </trkpt>
      <trkpt lat="43.56297" lon="3.85552">
        <ele>44.599998474121</ele>
        <time>2021-08-10T14:36:29Z</time>
      </trkpt>
      <trkpt lat="43.56306" lon="3.85536">
        <ele>44.799999237061</ele>
        <time>2021-08-10T14:36:36Z</time>
      </trkpt>
      <trkpt lat="43.56351" lon="3.85569">
        <ele>44.599998474121</ele>
        <time>2021-08-10T14:37:18Z</time>
      </trkpt>
      <trkpt lat="43.56434" lon="3.85596">
        <ele>42.400001525879</ele>
        <time>2021-08-10T14:37:34Z</time>
      </trkpt>
      <trkpt lat="43.56476" lon="3.85632">
        <ele>41.400001525879</ele>
        <time>2021-08-10T14:37:42Z</time>
      </trkpt>
      <trkpt lat="43.5655" lon="3.85717">
        <ele>39</ele>
        <time>2021-08-10T14:37:59Z</time>
      </trkpt>
      <trkpt lat="43.56608" lon="3.85758">
        <ele>38.400001525879</ele>
        <time>2021-08-10T14:38:12Z</time>
      </trkpt>
      <trkpt lat="43.56664" lon="3.85793">
        <ele>36.599998474121</ele>
        <time>2021-08-10T14:38:24Z</time>
      </trkpt>
      <trkpt lat="43.56667" lon="3.85798">
        <ele>36.400001525879</ele>
        <time>2021-08-10T14:38:25Z</time>
      </trkpt>
      <trkpt lat="43.56681" lon="3.8581">
        <ele>36.200000762939</ele>
        <time>2021-08-10T14:38:28Z</time>
      </trkpt>
      <trkpt lat="43.56709" lon="3.85831">
        <ele>35.799999237061</ele>
        <time>2021-08-10T14:38:34Z</time>
      </trkpt>
      <trkpt lat="43.56752" lon="3.85842">
        <ele>34.799999237061</ele>
        <time>2021-08-10T14:38:47Z</time>
      </trkpt>
      <trkpt lat="43.56846" lon="3.8584">
        <ele>35.400001525879</ele>
        <time>2021-08-10T14:39:17Z</time>
      </trkpt>
      <trkpt lat="43.56882" lon="3.85849">
        <ele>36</ele>
        <time>2021-08-10T14:39:30Z</time>
      </trkpt>
      <trkpt lat="43.57093" lon="3.85857">
        <ele>35.400001525879</ele>
        <time>2021-08-10T14:40:19Z</time>
      </trkpt>
      <trkpt lat="43.57159" lon="3.85848">
        <ele>35.599998474121</ele>
        <time>2021-08-10T14:40:32Z</time>
      </trkpt>
      <trkpt lat="43.57344" lon="3.85939">
        <ele>38.599998474121</ele>
        <time>2021-08-10T14:41:15Z</time>
      </trkpt>
      <trkpt lat="43.57348" lon="3.85944">
        <ele>38.799999237061</ele>
        <time>2021-08-10T14:41:17Z</time>
      </trkpt>
      <trkpt lat="43.57383" lon="3.85959">
        <ele>39.400001525879</ele>
        <time>2021-08-10T14:41:29Z</time>
      </trkpt>
      <trkpt lat="43.57462" lon="3.86057">
        <ele>43</ele>
        <time>2021-08-10T14:42:07Z</time>
      </trkpt>
      <trkpt lat="43.57489" lon="3.86101">
        <ele>45</ele>
        <time>2021-08-10T14:42:24Z</time>
      </trkpt>
      <trkpt lat="43.57498" lon="3.86107">
        <ele>45</ele>
        <time>2021-08-10T14:42:30Z</time>
      </trkpt>
      <trkpt lat="43.57596" lon="3.85994">
        <ele>45</ele>
        <time>2021-08-10T14:43:16Z</time>
      </trkpt>
      <trkpt lat="43.57633" lon="3.85998">
        <ele>46.400001525879</ele>
        <time>2021-08-10T14:43:28Z</time>
      </trkpt>
      <trkpt lat="43.57669" lon="3.86">
        <ele>49.400001525879</ele>
        <time>2021-08-10T14:43:47Z</time>
      </trkpt>
      <trkpt lat="43.57671" lon="3.86">
        <ele>49.599998474121</ele>
        <time>2021-08-10T14:43:48Z</time>
      </trkpt>
      <trkpt lat="43.57695" lon="3.86002">
        <ele>51.799999237061</ele>
        <time>2021-08-10T14:44:02Z</time>
      </trkpt>
      <trkpt lat="43.57711" lon="3.86004">
        <ele>53.200000762939</ele>
        <time>2021-08-10T14:44:12Z</time>
      </trkpt>
      <trkpt lat="43.57791" lon="3.85994">
        <ele>56.599998474121</ele>
        <time>2021-08-10T14:44:47Z</time>
      </trkpt>
      <trkpt lat="43.57848" lon="3.85989">
        <ele>57.799999237061</ele>
        <time>2021-08-10T14:45:09Z</time>
      </trkpt>
      <trkpt lat="43.57873" lon="3.85987">
        <ele>58.400001525879</ele>
        <time>2021-08-10T14:45:16Z</time>
      </trkpt>
      <trkpt lat="43.58019" lon="3.85962">
        <ele>56.599998474121</ele>
        <time>2021-08-10T14:45:45Z</time>
      </trkpt>
      <trkpt lat="43.58077" lon="3.86013">
        <ele>55.200000762939</ele>
        <time>2021-08-10T14:45:57Z</time>
      </trkpt>
      <trkpt lat="43.58088" lon="3.86021">
        <ele>55</ele>
        <time>2021-08-10T14:45:58Z</time>
      </trkpt>
      <trkpt lat="43.5813" lon="3.86057">
        <ele>55</ele>
        <time>2021-08-10T14:46:09Z</time>
      </trkpt>
      <trkpt lat="43.58199" lon="3.86082">
        <ele>53.599998474121</ele>
        <time>2021-08-10T14:46:26Z</time>
      </trkpt>
      <trkpt lat="43.58241" lon="3.86104">
        <ele>53.400001525879</ele>
        <time>2021-08-10T14:46:35Z</time>
      </trkpt>
      <trkpt lat="43.58263" lon="3.86103">
        <ele>53.200000762939</ele>
        <time>2021-08-10T14:46:39Z</time>
      </trkpt>
      <trkpt lat="43.58316" lon="3.86046">
        <ele>54.400001525879</ele>
        <time>2021-08-10T14:46:57Z</time>
      </trkpt>
      <trkpt lat="43.58324" lon="3.86042">
        <ele>55.200000762939</ele>
        <time>2021-08-10T14:47:04Z</time>
      </trkpt>
      <trkpt lat="43.58333" lon="3.86038">
        <ele>55.599998474121</ele>
        <time>2021-08-10T14:47:26Z</time>
      </trkpt>
      <trkpt lat="43.58363" lon="3.86012">
        <ele>56.200000762939</ele>
        <time>2021-08-10T14:47:39Z</time>
      </trkpt>
      <trkpt lat="43.5838" lon="3.85991">
        <ele>57.200000762939</ele>
        <time>2021-08-10T14:47:48Z</time>
      </trkpt>
      <trkpt lat="43.58477" lon="3.85938">
        <ele>60.400001525879</ele>
        <time>2021-08-10T14:48:26Z</time>
      </trkpt>
      <trkpt lat="43.58541" lon="3.85939">
        <ele>62.200000762939</ele>
        <time>2021-08-10T14:48:49Z</time>
      </trkpt>
      <trkpt lat="43.58593" lon="3.85904">
        <ele>63.599998474121</ele>
        <time>2021-08-10T14:49:09Z</time>
      </trkpt>
      <trkpt lat="43.58616" lon="3.85887">
        <ele>63.799999237061</ele>
        <time>2021-08-10T14:49:17Z</time>
      </trkpt>
      <trkpt lat="43.58789" lon="3.85784">
        <ele>64</ele>
        <time>2021-08-10T14:50:36Z</time>
      </trkpt>
      <trkpt lat="43.58886" lon="3.8568">
        <ele>64.800003051758</ele>
        <time>2021-08-10T14:51:11Z</time>
      </trkpt>
      <trkpt lat="43.58939" lon="3.85658">
        <ele>67</ele>
        <time>2021-08-10T14:51:40Z</time>
      </trkpt>
      <trkpt lat="43.58956" lon="3.85679">
        <ele>67.599998474121</ele>
        <time>2021-08-10T14:52:53Z</time>
      </trkpt>
      <trkpt lat="43.59029" lon="3.85718">
        <ele>69.400001525879</ele>
        <time>2021-08-10T14:53:24Z</time>
      </trkpt>
      <trkpt lat="43.5906" lon="3.8571">
        <ele>70.199996948242</ele>
        <time>2021-08-10T14:53:34Z</time>
      </trkpt>
      <trkpt lat="43.59071" lon="3.85715">
        <ele>70.400001525879</ele>
        <time>2021-08-10T14:53:37Z</time>
      </trkpt>
      <trkpt lat="43.59137" lon="3.85777">
        <ele>72</ele>
        <time>2021-08-10T14:53:58Z</time>
      </trkpt>
      <trkpt lat="43.59361" lon="3.86009">
        <ele>69</ele>
        <time>2021-08-10T14:54:50Z</time>
      </trkpt>
      <trkpt lat="43.59458" lon="3.8611">
        <ele>64.400001525879</ele>
        <time>2021-08-10T14:55:05Z</time>
      </trkpt>
      <trkpt lat="43.59499" lon="3.86156">
        <ele>61.400001525879</ele>
        <time>2021-08-10T14:55:15Z</time>
      </trkpt>
      <trkpt lat="43.59519" lon="3.86182">
        <ele>56</ele>
        <time>2021-08-10T14:55:25Z</time>
      </trkpt>
      <trkpt lat="43.59543" lon="3.86213">
        <ele>54.200000762939</ele>
        <time>2021-08-10T14:56:00Z</time>
      </trkpt>
      <trkpt lat="43.59558" lon="3.86232">
        <ele>53.799999237061</ele>
        <time>2021-08-10T14:56:05Z</time>
      </trkpt>
      <trkpt lat="43.59597" lon="3.86266">
        <ele>52.799999237061</ele>
        <time>2021-08-10T14:56:15Z</time>
      </trkpt>
      <trkpt lat="43.59721" lon="3.86394">
        <ele>52.200000762939</ele>
        <time>2021-08-10T14:57:15Z</time>
      </trkpt>
      <trkpt lat="43.59744" lon="3.86419">
        <ele>52.400001525879</ele>
        <time>2021-08-10T14:57:28Z</time>
      </trkpt>
      <trkpt lat="43.59771" lon="3.86379">
        <ele>52</ele>
        <time>2021-08-10T14:59:03Z</time>
      </trkpt>
      <trkpt lat="43.5979" lon="3.86362">
        <ele>52</ele>
        <time>2021-08-10T14:59:12Z</time>
      </trkpt>
      <trkpt lat="43.59861" lon="3.86249">
        <ele>53.200000762939</ele>
        <time>2021-08-10T14:59:46Z</time>
      </trkpt>
      <trkpt lat="43.59912" lon="3.86282">
        <ele>56.200000762939</ele>
        <time>2021-08-10T15:00:11Z</time>
      </trkpt>
      <trkpt lat="43.59939" lon="3.86308">
        <ele>57.200000762939</ele>
        <time>2021-08-10T15:00:27Z</time>
      </trkpt>
      <trkpt lat="43.59941" lon="3.86309">
        <ele>57.200000762939</ele>
        <time>2021-08-10T15:00:28Z</time>
      </trkpt>
      <trkpt lat="43.59963" lon="3.86275">
        <ele>59.200000762939</ele>
        <time>2021-08-10T15:00:44Z</time>
      </trkpt>
      <trkpt lat="43.59982" lon="3.86243">
        <ele>60.200000762939</ele>
        <time>2021-08-10T15:00:57Z</time>
      </trkpt>
      <trkpt lat="43.60008" lon="3.86183">
        <ele>63.200000762939</ele>
        <time>2021-08-10T15:01:20Z</time>
      </trkpt>
      <trkpt lat="43.60066" lon="3.86219">
        <ele>64</ele>
        <time>2021-08-10T15:01:40Z</time>
      </trkpt>
      <trkpt lat="43.60128" lon="3.86259">
        <ele>63.400001525879</ele>
        <time>2021-08-10T15:01:51Z</time>
      </trkpt>
      <trkpt lat="43.60133" lon="3.86263">
        <ele>63.200000762939</ele>
        <time>2021-08-10T15:01:52Z</time>
      </trkpt>
      <trkpt lat="43.60162" lon="3.86287">
        <ele>62.400001525879</ele>
        <time>2021-08-10T15:01:58Z</time>
      </trkpt>
      <trkpt lat="43.60228" lon="3.86324">
        <ele>61.400001525879</ele>
        <time>2021-08-10T15:02:12Z</time>
      </trkpt>
      <trkpt lat="43.60245" lon="3.86332">
        <ele>61.599998474121</ele>
        <time>2021-08-10T15:02:16Z</time>
      </trkpt>
      <trkpt lat="43.60287" lon="3.8636">
        <ele>63.400001525879</ele>
        <time>2021-08-10T15:02:31Z</time>
      </trkpt>
      <trkpt lat="43.60352" lon="3.86129">
        <ele>64.800003051758</ele>
        <time>2021-08-10T15:03:14Z</time>
      </trkpt>
      <trkpt lat="43.60437" lon="3.85851">
        <ele>67.400001525879</ele>
        <time>2021-08-10T15:04:15Z</time>
      </trkpt>
      <trkpt lat="43.60464" lon="3.85901">
        <ele>68.599998474121</ele>
        <time>2021-08-10T15:04:29Z</time>
      </trkpt>
      <trkpt lat="43.60477" lon="3.85926">
        <ele>68.599998474121</ele>
        <time>2021-08-10T15:04:34Z</time>
      </trkpt>
      <trkpt lat="43.60485" lon="3.85938">
        <ele>68.199996948242</ele>
        <time>2021-08-10T15:04:37Z</time>
      </trkpt>
      <trkpt lat="43.6051" lon="3.85978">
        <ele>67.199996948242</ele>
        <time>2021-08-10T15:04:45Z</time>
      </trkpt>
      <trkpt lat="43.6053" lon="3.86042">
        <ele>65.599998474121</ele>
        <time>2021-08-10T15:04:54Z</time>
      </trkpt>
      <trkpt lat="43.60558" lon="3.8615">
        <ele>62</ele>
        <time>2021-08-10T15:05:11Z</time>
      </trkpt>
      <trkpt lat="43.60583" lon="3.86243">
        <ele>60.400001525879</ele>
        <time>2021-08-10T15:05:25Z</time>
      </trkpt>
      <trkpt lat="43.60616" lon="3.86349">
        <ele>59.799999237061</ele>
        <time>2021-08-10T15:06:52Z</time>
      </trkpt>
      <trkpt lat="43.60617" lon="3.86351">
        <ele>59.799999237061</ele>
        <time>2021-08-10T15:06:53Z</time>
      </trkpt>
      <trkpt lat="43.60677" lon="3.86335">
        <ele>60.400001525879</ele>
        <time>2021-08-10T15:07:18Z</time>
      </trkpt>
      <trkpt lat="43.607" lon="3.86326">
        <ele>60.599998474121</ele>
        <time>2021-08-10T15:07:26Z</time>
      </trkpt>
      <trkpt lat="43.60732" lon="3.86349">
        <ele>61</ele>
        <time>2021-08-10T15:07:37Z</time>
      </trkpt>
      <trkpt lat="43.60829" lon="3.86382">
        <ele>61.599998474121</ele>
        <time>2021-08-10T15:08:12Z</time>
      </trkpt>
      <trkpt lat="43.60845" lon="3.86405">
        <ele>61.200000762939</ele>
        <time>2021-08-10T15:08:23Z</time>
      </trkpt>
      <trkpt lat="43.60955" lon="3.86449">
        <ele>60.200000762939</ele>
        <time>2021-08-10T15:08:58Z</time>
      </trkpt>
      <trkpt lat="43.60967" lon="3.86416">
        <ele>61.200000762939</ele>
        <time>2021-08-10T15:09:08Z</time>
      </trkpt>
      <trkpt lat="43.60981" lon="3.86366">
        <ele>62.599998474121</ele>
        <time>2021-08-10T15:09:26Z</time>
      </trkpt>
      <trkpt lat="43.61053" lon="3.86397">
        <ele>62.799999237061</ele>
        <time>2021-08-10T15:09:53Z</time>
      </trkpt>
      <trkpt lat="43.61168" lon="3.86407">
        <ele>60.400001525879</ele>
        <time>2021-08-10T15:11:06Z</time>
      </trkpt>
      <trkpt lat="43.61162" lon="3.86486">
        <ele>38</ele>
        <time>2021-08-11T06:56:55Z</time>
      </trkpt>
      <trkpt lat="43.61152" lon="3.86513">
        <ele>41</ele>
        <time>2021-08-11T06:57:01Z</time>
      </trkpt>
      <trkpt lat="43.6116" lon="3.86634">
        <ele>39.200000762939</ele>
        <time>2021-08-11T06:57:35Z</time>
      </trkpt>
      <trkpt lat="43.61039" lon="3.86668">
        <ele>39.799999237061</ele>
        <time>2021-08-11T06:58:23Z</time>
      </trkpt>
      <trkpt lat="43.61005" lon="3.86675">
        <ele>39.400001525879</ele>
        <time>2021-08-11T06:58:34Z</time>
      </trkpt>
      <trkpt lat="43.60987" lon="3.86675">
        <ele>39</ele>
        <time>2021-08-11T06:58:39Z</time>
      </trkpt>
      <trkpt lat="43.60968" lon="3.86722">
        <ele>39</ele>
        <time>2021-08-11T06:58:58Z</time>
      </trkpt>
      <trkpt lat="43.61023" lon="3.86823">
        <ele>42.200000762939</ele>
        <time>2021-08-11T06:59:37Z</time>
      </trkpt>
      <trkpt lat="43.61025" lon="3.86825">
        <ele>42.400001525879</ele>
        <time>2021-08-11T06:59:38Z</time>
      </trkpt>
      <trkpt lat="43.61055" lon="3.86873">
        <ele>45.799999237061</ele>
        <time>2021-08-11T07:00:06Z</time>
      </trkpt>
      <trkpt lat="43.61059" lon="3.86879">
        <ele>46.200000762939</ele>
        <time>2021-08-11T07:00:10Z</time>
      </trkpt>
      <trkpt lat="43.61055" lon="3.86954">
        <ele>47.599998474121</ele>
        <time>2021-08-11T07:00:34Z</time>
      </trkpt>
      <trkpt lat="43.61053" lon="3.87145">
        <ele>49.599998474121</ele>
        <time>2021-08-11T07:01:21Z</time>
      </trkpt>
      <trkpt lat="43.61054" lon="3.87177">
        <ele>50.200000762939</ele>
        <time>2021-08-11T07:01:32Z</time>
      </trkpt>
      <trkpt lat="43.61104" lon="3.87201">
        <ele>53.799999237061</ele>
        <time>2021-08-11T07:02:03Z</time>
      </trkpt>
      <trkpt lat="43.61108" lon="3.8742">
        <ele>54.599998474121</ele>
        <time>2021-08-11T07:03:00Z</time>
      </trkpt>
      <trkpt lat="43.6111" lon="3.87474">
        <ele>54.400001525879</ele>
        <time>2021-08-11T07:03:07Z</time>
      </trkpt>
      <trkpt lat="43.6111" lon="3.87565">
        <ele>54</ele>
        <time>2021-08-11T07:03:19Z</time>
      </trkpt>
      <trkpt lat="43.61084" lon="3.87638">
        <ele>53.200000762939</ele>
        <time>2021-08-11T07:03:28Z</time>
      </trkpt>
      <trkpt lat="43.6108" lon="3.87643">
        <ele>53</ele>
        <time>2021-08-11T07:03:29Z</time>
      </trkpt>
      <trkpt lat="43.61057" lon="3.87669">
        <ele>51.200000762939</ele>
        <time>2021-08-11T07:03:41Z</time>
      </trkpt>
      <trkpt lat="43.61052" lon="3.87678">
        <ele>51</ele>
        <time>2021-08-11T07:03:43Z</time>
      </trkpt>
      <trkpt lat="43.61041" lon="3.877">
        <ele>50.799999237061</ele>
        <time>2021-08-11T07:03:48Z</time>
      </trkpt>
      <trkpt lat="43.61011" lon="3.87739">
        <ele>49.799999237061</ele>
        <time>2021-08-11T07:04:00Z</time>
      </trkpt>
      <trkpt lat="43.61" lon="3.87757">
        <ele>49.799999237061</ele>
        <time>2021-08-11T07:04:05Z</time>
      </trkpt>
      <trkpt lat="43.60984" lon="3.8779">
        <ele>48.599998474121</ele>
        <time>2021-08-11T07:04:12Z</time>
      </trkpt>
      <trkpt lat="43.60982" lon="3.87796">
        <ele>48</ele>
        <time>2021-08-11T07:04:14Z</time>
      </trkpt>
      <trkpt lat="43.60973" lon="3.878">
        <ele>46.799999237061</ele>
        <time>2021-08-11T07:04:19Z</time>
      </trkpt>
      <trkpt lat="43.6093" lon="3.87839">
        <ele>44.400001525879</ele>
        <time>2021-08-11T07:04:37Z</time>
      </trkpt>
      <trkpt lat="43.60881" lon="3.87903">
        <ele>42.400001525879</ele>
        <time>2021-08-11T07:04:56Z</time>
      </trkpt>
      <trkpt lat="43.60858" lon="3.8791">
        <ele>41</ele>
        <time>2021-08-11T07:05:04Z</time>
      </trkpt>
      <trkpt lat="43.60836" lon="3.87944">
        <ele>39.799999237061</ele>
        <time>2021-08-11T07:05:16Z</time>
      </trkpt>
      <trkpt lat="43.60884" lon="3.88024">
        <ele>40.200000762939</ele>
        <time>2021-08-11T07:05:42Z</time>
      </trkpt>
      <trkpt lat="43.60936" lon="3.88148">
        <ele>40.400001525879</ele>
        <time>2021-08-11T07:06:20Z</time>
      </trkpt>
      <trkpt lat="43.6089" lon="3.88336">
        <ele>40.400001525879</ele>
        <time>2021-08-11T07:07:09Z</time>
      </trkpt>
      <trkpt lat="43.609" lon="3.88354">
        <ele>40</ele>
        <time>2021-08-11T07:07:34Z</time>
      </trkpt>
      <trkpt lat="43.60922" lon="3.884">
        <ele>38</ele>
        <time>2021-08-11T07:07:50Z</time>
      </trkpt>
      <trkpt lat="43.60938" lon="3.88453">
        <ele>37.799999237061</ele>
        <time>2021-08-11T07:09:08Z</time>
      </trkpt>
      <trkpt lat="43.6095" lon="3.88516">
        <ele>37.799999237061</ele>
        <time>2021-08-11T07:09:44Z</time>
      </trkpt>
      <trkpt lat="43.60973" lon="3.88444">
        <ele>38</ele>
        <time>2021-08-11T07:10:03Z</time>
      </trkpt>
      <trkpt lat="43.60994" lon="3.88375">
        <ele>38.799999237061</ele>
        <time>2021-08-11T07:10:24Z</time>
      </trkpt>
      <trkpt lat="43.60993" lon="3.88405">
        <ele>39.200000762939</ele>
        <time>2021-08-11T07:10:37Z</time>
      </trkpt>
      <trkpt lat="43.60998" lon="3.88431">
        <ele>39.200000762939</ele>
        <time>2021-08-11T07:10:43Z</time>
      </trkpt>
      <trkpt lat="43.60989" lon="3.88495">
        <ele>36</ele>
        <time>2021-08-11T07:11:00Z</time>
      </trkpt>
      <trkpt lat="43.60988" lon="3.88495">
        <ele>36</ele>
        <time>2021-08-11T07:11:01Z</time>
      </trkpt>
      <trkpt lat="43.60986" lon="3.88496">
        <ele>35.799999237061</ele>
        <time>2021-08-11T07:11:04Z</time>
      </trkpt>
      <trkpt lat="43.61009" lon="3.88491">
        <ele>35.400001525879</ele>
        <time>2021-08-11T07:11:13Z</time>
      </trkpt>
      <trkpt lat="43.61021" lon="3.88526">
        <ele>35.799999237061</ele>
        <time>2021-08-11T07:11:19Z</time>
      </trkpt>
      <trkpt lat="43.61032" lon="3.8856">
        <ele>35</ele>
        <time>2021-08-11T07:11:29Z</time>
      </trkpt>
      <trkpt lat="43.61024" lon="3.88598">
        <ele>34</ele>
        <time>2021-08-11T07:11:37Z</time>
      </trkpt>
      <trkpt lat="43.61026" lon="3.8875">
        <ele>33</ele>
        <time>2021-08-11T07:11:58Z</time>
      </trkpt>
      <trkpt lat="43.61025" lon="3.88812">
        <ele>31.799999237061</ele>
        <time>2021-08-11T07:12:06Z</time>
      </trkpt>
      <trkpt lat="43.61026" lon="3.88899">
        <ele>27</ele>
        <time>2021-08-11T07:14:22Z</time>
      </trkpt>
      <trkpt lat="43.61025" lon="3.88923">
        <ele>27.200000762939</ele>
        <time>2021-08-11T07:14:27Z</time>
      </trkpt>
      <trkpt lat="43.61025" lon="3.88947">
        <ele>27.200000762939</ele>
        <time>2021-08-11T07:14:31Z</time>
      </trkpt>
      <trkpt lat="43.61027" lon="3.88962">
        <ele>27</ele>
        <time>2021-08-11T07:14:33Z</time>
      </trkpt>
      <trkpt lat="43.6103" lon="3.88994">
        <ele>26.39999961853</ele>
        <time>2021-08-11T07:14:37Z</time>
      </trkpt>
      <trkpt lat="43.61023" lon="3.89026">
        <ele>25.39999961853</ele>
        <time>2021-08-11T07:14:44Z</time>
      </trkpt>
      <trkpt lat="43.61017" lon="3.89042">
        <ele>23.60000038147</ele>
        <time>2021-08-11T07:14:51Z</time>
      </trkpt>
      <trkpt lat="43.61023" lon="3.89055">
        <ele>23.200000762939</ele>
        <time>2021-08-11T07:14:56Z</time>
      </trkpt>
      <trkpt lat="43.6103" lon="3.89067">
        <ele>23</ele>
        <time>2021-08-11T07:15:02Z</time>
      </trkpt>
      <trkpt lat="43.61021" lon="3.89173">
        <ele>22</ele>
        <time>2021-08-11T07:15:31Z</time>
      </trkpt>
      <trkpt lat="43.61013" lon="3.89195">
        <ele>21.799999237061</ele>
        <time>2021-08-11T07:15:37Z</time>
      </trkpt>
      <trkpt lat="43.60988" lon="3.89343">
        <ele>20.200000762939</ele>
        <time>2021-08-11T07:16:14Z</time>
      </trkpt>
      <trkpt lat="43.60884" lon="3.89428">
        <ele>21</ele>
        <time>2021-08-11T07:16:55Z</time>
      </trkpt>
      <trkpt lat="43.60873" lon="3.89427">
        <ele>21.39999961853</ele>
        <time>2021-08-11T07:17:12Z</time>
      </trkpt>
      <trkpt lat="43.60889" lon="3.89642">
        <ele>24</ele>
        <time>2021-08-11T07:17:59Z</time>
      </trkpt>
      <trkpt lat="43.60902" lon="3.89695">
        <ele>25.39999961853</ele>
        <time>2021-08-11T07:18:10Z</time>
      </trkpt>
      <trkpt lat="43.60949" lon="3.89962">
        <ele>27.200000762939</ele>
        <time>2021-08-11T07:18:57Z</time>
      </trkpt>
      <trkpt lat="43.6096" lon="3.90072">
        <ele>28</ele>
        <time>2021-08-11T07:19:14Z</time>
      </trkpt>
      <trkpt lat="43.60962" lon="3.90084">
        <ele>28</ele>
        <time>2021-08-11T07:19:16Z</time>
      </trkpt>
      <trkpt lat="43.61004" lon="3.90335">
        <ele>29.39999961853</ele>
        <time>2021-08-11T07:19:54Z</time>
      </trkpt>
      <trkpt lat="43.61008" lon="3.90392">
        <ele>29.60000038147</ele>
        <time>2021-08-11T07:20:02Z</time>
      </trkpt>
      <trkpt lat="43.6101" lon="3.90454">
        <ele>30</ele>
        <time>2021-08-11T07:20:11Z</time>
      </trkpt>
      <trkpt lat="43.60966" lon="3.90789">
        <ele>31</ele>
        <time>2021-08-11T07:21:02Z</time>
      </trkpt>
      <trkpt lat="43.60955" lon="3.90817">
        <ele>30.60000038147</ele>
        <time>2021-08-11T07:21:06Z</time>
      </trkpt>
      <trkpt lat="43.60943" lon="3.9084">
        <ele>27.200000762939</ele>
        <time>2021-08-11T07:21:15Z</time>
      </trkpt>
      <trkpt lat="43.60966" lon="3.90896">
        <ele>26.39999961853</ele>
        <time>2021-08-11T07:21:27Z</time>
      </trkpt>
      <trkpt lat="43.61001" lon="3.91004">
        <ele>26.799999237061</ele>
        <time>2021-08-11T07:21:44Z</time>
      </trkpt>
      <trkpt lat="43.6102" lon="3.91083">
        <ele>27.39999961853</ele>
        <time>2021-08-11T07:21:56Z</time>
      </trkpt>
      <trkpt lat="43.61036" lon="3.91363">
        <ele>27.799999237061</ele>
        <time>2021-08-11T07:22:50Z</time>
      </trkpt>
      <trkpt lat="43.61049" lon="3.91467">
        <ele>30</ele>
        <time>2021-08-11T07:24:31Z</time>
      </trkpt>
      <trkpt lat="43.61087" lon="3.91478">
        <ele>31.200000762939</ele>
        <time>2021-08-11T07:24:43Z</time>
      </trkpt>
      <trkpt lat="43.61151" lon="3.91471">
        <ele>32.200000762939</ele>
        <time>2021-08-11T07:25:03Z</time>
      </trkpt>
      <trkpt lat="43.61466" lon="3.91451">
        <ele>31.39999961853</ele>
        <time>2021-08-11T07:26:21Z</time>
      </trkpt>
      <trkpt lat="43.61435" lon="3.91457">
        <ele>30.799999237061</ele>
        <time>2021-08-11T07:26:39Z</time>
      </trkpt>
      <trkpt lat="43.61421" lon="3.91459">
        <ele>30.39999961853</ele>
        <time>2021-08-11T07:26:46Z</time>
      </trkpt>
      <trkpt lat="43.61425" lon="3.91463">
        <ele>29</ele>
        <time>2021-08-11T07:26:57Z</time>
      </trkpt>
      <trkpt lat="43.61385" lon="3.91538">
        <ele>30.200000762939</ele>
        <time>2021-08-11T07:27:37Z</time>
      </trkpt>
      <trkpt lat="43.6157" lon="3.91675">
        <ele>31.799999237061</ele>
        <time>2021-08-11T07:28:34Z</time>
      </trkpt>
      <trkpt lat="43.61594" lon="3.91686">
        <ele>32</ele>
        <time>2021-08-11T07:28:40Z</time>
      </trkpt>
      <trkpt lat="43.61614" lon="3.91696">
        <ele>32.799999237061</ele>
        <time>2021-08-11T07:28:45Z</time>
      </trkpt>
      <trkpt lat="43.61622" lon="3.91703">
        <ele>33</ele>
        <time>2021-08-11T07:28:47Z</time>
      </trkpt>
      <trkpt lat="43.61676" lon="3.91749">
        <ele>33.200000762939</ele>
        <time>2021-08-11T07:29:02Z</time>
      </trkpt>
      <trkpt lat="43.61756" lon="3.91892">
        <ele>34.599998474121</ele>
        <time>2021-08-11T07:29:34Z</time>
      </trkpt>
      <trkpt lat="43.61932" lon="3.92179">
        <ele>37.400001525879</ele>
        <time>2021-08-11T07:30:47Z</time>
      </trkpt>
      <trkpt lat="43.62085" lon="3.92416">
        <ele>40.400001525879</ele>
        <time>2021-08-11T07:31:52Z</time>
      </trkpt>
      <trkpt lat="43.62102" lon="3.92448">
        <ele>41.799999237061</ele>
        <time>2021-08-11T07:32:04Z</time>
      </trkpt>
      <trkpt lat="43.62124" lon="3.92484">
        <ele>43.799999237061</ele>
        <time>2021-08-11T07:32:21Z</time>
      </trkpt>
      <trkpt lat="43.62174" lon="3.92536">
        <ele>47.200000762939</ele>
        <time>2021-08-11T07:32:49Z</time>
      </trkpt>
      <trkpt lat="43.62177" lon="3.92538">
        <ele>47.400001525879</ele>
        <time>2021-08-11T07:32:50Z</time>
      </trkpt>
      <trkpt lat="43.62311" lon="3.92608">
        <ele>50.400001525879</ele>
        <time>2021-08-11T07:33:32Z</time>
      </trkpt>
      <trkpt lat="43.62367" lon="3.92627">
        <ele>51</ele>
        <time>2021-08-11T07:33:46Z</time>
      </trkpt>
      <trkpt lat="43.62406" lon="3.92652">
        <ele>51.400001525879</ele>
        <time>2021-08-11T07:33:55Z</time>
      </trkpt>
      <trkpt lat="43.62566" lon="3.92784">
        <ele>51.599998474121</ele>
        <time>2021-08-11T07:34:31Z</time>
      </trkpt>
      <trkpt lat="43.62605" lon="3.92866">
        <ele>52.200000762939</ele>
        <time>2021-08-11T07:34:47Z</time>
      </trkpt>
      <trkpt lat="43.62636" lon="3.92956">
        <ele>53.799999237061</ele>
        <time>2021-08-11T07:35:11Z</time>
      </trkpt>
      <trkpt lat="43.62797" lon="3.93184">
        <ele>50.400001525879</ele>
        <time>2021-08-11T07:35:45Z</time>
      </trkpt>
      <trkpt lat="43.62833" lon="3.93226">
        <ele>49.400001525879</ele>
        <time>2021-08-11T07:35:52Z</time>
      </trkpt>
      <trkpt lat="43.62876" lon="3.93289">
        <ele>48.799999237061</ele>
        <time>2021-08-11T07:36:02Z</time>
      </trkpt>
      <trkpt lat="43.62902" lon="3.93317">
        <ele>48.799999237061</ele>
        <time>2021-08-11T07:36:08Z</time>
      </trkpt>
      <trkpt lat="43.62919" lon="3.93336">
        <ele>48.200000762939</ele>
        <time>2021-08-11T07:36:13Z</time>
      </trkpt>
      <trkpt lat="43.62948" lon="3.93376">
        <ele>48.200000762939</ele>
        <time>2021-08-11T07:36:22Z</time>
      </trkpt>
      <trkpt lat="43.63014" lon="3.93485">
        <ele>47.599998474121</ele>
        <time>2021-08-11T07:36:45Z</time>
      </trkpt>
      <trkpt lat="43.63062" lon="3.93567">
        <ele>47.599998474121</ele>
        <time>2021-08-11T07:37:14Z</time>
      </trkpt>
      <trkpt lat="43.6306" lon="3.93463">
        <ele>47.799999237061</ele>
        <time>2021-08-11T07:37:43Z</time>
      </trkpt>
      <trkpt lat="43.63071" lon="3.93482">
        <ele>48</ele>
        <time>2021-08-11T07:37:49Z</time>
      </trkpt>
      <trkpt lat="43.63121" lon="3.9349">
        <ele>49</ele>
        <time>2021-08-11T07:38:04Z</time>
      </trkpt>
      <trkpt lat="43.63143" lon="3.93488">
        <ele>49</ele>
        <time>2021-08-11T07:38:10Z</time>
      </trkpt>
      <trkpt lat="43.63164" lon="3.93487">
        <ele>49.200000762939</ele>
        <time>2021-08-11T07:38:16Z</time>
      </trkpt>
      <trkpt lat="43.63232" lon="3.93483">
        <ele>52.200000762939</ele>
        <time>2021-08-11T07:38:41Z</time>
      </trkpt>
      <trkpt lat="43.63255" lon="3.93482">
        <ele>53.200000762939</ele>
        <time>2021-08-11T07:38:50Z</time>
      </trkpt>
      <trkpt lat="43.6339" lon="3.93438">
        <ele>54.200000762939</ele>
        <time>2021-08-11T07:39:32Z</time>
      </trkpt>
      <trkpt lat="43.6342" lon="3.93416">
        <ele>53.799999237061</ele>
        <time>2021-08-11T07:39:40Z</time>
      </trkpt>
      <trkpt lat="43.63449" lon="3.93399">
        <ele>53.799999237061</ele>
        <time>2021-08-11T07:39:47Z</time>
      </trkpt>
      <trkpt lat="43.6348" lon="3.93375">
        <ele>53.599998474121</ele>
        <time>2021-08-11T07:39:54Z</time>
      </trkpt>
      <trkpt lat="43.635" lon="3.93354">
        <ele>53</ele>
        <time>2021-08-11T07:39:58Z</time>
      </trkpt>
      <trkpt lat="43.63545" lon="3.93282">
        <ele>51.200000762939</ele>
        <time>2021-08-11T07:40:07Z</time>
      </trkpt>
      <trkpt lat="43.63581" lon="3.93224">
        <ele>50.400001525879</ele>
        <time>2021-08-11T07:40:14Z</time>
      </trkpt>
      <trkpt lat="43.63587" lon="3.93217">
        <ele>50.200000762939</ele>
        <time>2021-08-11T07:40:15Z</time>
      </trkpt>
      <trkpt lat="43.63644" lon="3.93145">
        <ele>48.599998474121</ele>
        <time>2021-08-11T07:40:26Z</time>
      </trkpt>
      <trkpt lat="43.63682" lon="3.93111">
        <ele>46</ele>
        <time>2021-08-11T07:40:36Z</time>
      </trkpt>
      <trkpt lat="43.63682" lon="3.93108">
        <ele>45.200000762939</ele>
        <time>2021-08-11T07:40:40Z</time>
      </trkpt>
      <trkpt lat="43.63655" lon="3.93139">
        <ele>43.599998474121</ele>
        <time>2021-08-11T07:40:53Z</time>
      </trkpt>
      <trkpt lat="43.63629" lon="3.93173">
        <ele>47.599998474121</ele>
        <time>2021-08-11T07:41:35Z</time>
      </trkpt>
      <trkpt lat="43.63643" lon="3.9317">
        <ele>48.200000762939</ele>
        <time>2021-08-11T07:41:43Z</time>
      </trkpt>
      <trkpt lat="43.63659" lon="3.93167">
        <ele>48.799999237061</ele>
        <time>2021-08-11T07:41:51Z</time>
      </trkpt>
      <trkpt lat="43.63671" lon="3.93155">
        <ele>49.400001525879</ele>
        <time>2021-08-11T07:43:36Z</time>
      </trkpt>
      <trkpt lat="43.63737" lon="3.93126">
        <ele>49</ele>
        <time>2021-08-11T07:43:52Z</time>
      </trkpt>
      <trkpt lat="43.63744" lon="3.93123">
        <ele>49</ele>
        <time>2021-08-11T07:43:53Z</time>
      </trkpt>
      <trkpt lat="43.63784" lon="3.93102">
        <ele>48.200000762939</ele>
        <time>2021-08-11T07:44:00Z</time>
      </trkpt>
      <trkpt lat="43.63792" lon="3.93101">
        <ele>43.799999237061</ele>
        <time>2021-08-11T07:44:15Z</time>
      </trkpt>
      <trkpt lat="43.63792" lon="3.93105">
        <ele>43.799999237061</ele>
        <time>2021-08-11T07:44:16Z</time>
      </trkpt>
      <trkpt lat="43.63808" lon="3.93133">
        <ele>43.799999237061</ele>
        <time>2021-08-11T07:44:26Z</time>
      </trkpt>
      <trkpt lat="43.63815" lon="3.93135">
        <ele>43.799999237061</ele>
        <time>2021-08-11T07:44:28Z</time>
      </trkpt>
      <trkpt lat="43.63843" lon="3.93253">
        <ele>43</ele>
        <time>2021-08-11T07:44:48Z</time>
      </trkpt>
      <trkpt lat="43.63859" lon="3.93297">
        <ele>42.599998474121</ele>
        <time>2021-08-11T07:44:57Z</time>
      </trkpt>
      <trkpt lat="43.63902" lon="3.93446">
        <ele>41.400001525879</ele>
        <time>2021-08-11T07:45:49Z</time>
      </trkpt>
      <trkpt lat="43.63943" lon="3.93559">
        <ele>41</ele>
        <time>2021-08-11T07:46:56Z</time>
      </trkpt>
      <trkpt lat="43.63963" lon="3.93621">
        <ele>41.599998474121</ele>
        <time>2021-08-11T07:47:05Z</time>
      </trkpt>
      <trkpt lat="43.64133" lon="3.9414">
        <ele>42.200000762939</ele>
        <time>2021-08-11T07:48:21Z</time>
      </trkpt>
      <trkpt lat="43.64138" lon="3.9418">
        <ele>42.200000762939</ele>
        <time>2021-08-11T07:48:27Z</time>
      </trkpt>
      <trkpt lat="43.64229" lon="3.94456">
        <ele>42.400001525879</ele>
        <time>2021-08-11T07:49:14Z</time>
      </trkpt>
      <trkpt lat="43.64382" lon="3.9495">
        <ele>41.799999237061</ele>
        <time>2021-08-11T07:50:20Z</time>
      </trkpt>
      <trkpt lat="43.64406" lon="3.95041">
        <ele>41.200000762939</ele>
        <time>2021-08-11T07:50:34Z</time>
      </trkpt>
      <trkpt lat="43.64518" lon="3.95193">
        <ele>42.799999237061</ele>
        <time>2021-08-11T07:51:07Z</time>
      </trkpt>
      <trkpt lat="43.64791" lon="3.95446">
        <ele>44.200000762939</ele>
        <time>2021-08-11T07:52:13Z</time>
      </trkpt>
      <trkpt lat="43.64842" lon="3.95522">
        <ele>45</ele>
        <time>2021-08-11T07:52:30Z</time>
      </trkpt>
      <trkpt lat="43.64889" lon="3.95601">
        <ele>45.599998474121</ele>
        <time>2021-08-11T07:52:49Z</time>
      </trkpt>
      <trkpt lat="43.65205" lon="3.961">
        <ele>48.200000762939</ele>
        <time>2021-08-11T07:54:29Z</time>
      </trkpt>
      <trkpt lat="43.6523" lon="3.96148">
        <ele>48.200000762939</ele>
        <time>2021-08-11T07:54:38Z</time>
      </trkpt>
      <trkpt lat="43.65235" lon="3.96176">
        <ele>48.200000762939</ele>
        <time>2021-08-11T07:54:43Z</time>
      </trkpt>
      <trkpt lat="43.65236" lon="3.96188">
        <ele>48.200000762939</ele>
        <time>2021-08-11T07:54:45Z</time>
      </trkpt>
      <trkpt lat="43.65338" lon="3.96184">
        <ele>48.200000762939</ele>
        <time>2021-08-11T07:55:14Z</time>
      </trkpt>
      <trkpt lat="43.65351" lon="3.96226">
        <ele>47.799999237061</ele>
        <time>2021-08-11T07:55:27Z</time>
      </trkpt>
      <trkpt lat="43.65329" lon="3.96184">
        <ele>47.400001525879</ele>
        <time>2021-08-11T07:55:38Z</time>
      </trkpt>
      <trkpt lat="43.65319" lon="3.96137">
        <ele>47.799999237061</ele>
        <time>2021-08-11T07:56:13Z</time>
      </trkpt>
      <trkpt lat="43.65447" lon="3.9616">
        <ele>49.599998474121</ele>
        <time>2021-08-11T07:56:48Z</time>
      </trkpt>
      <trkpt lat="43.65491" lon="3.96172">
        <ele>50</ele>
        <time>2021-08-11T07:56:59Z</time>
      </trkpt>
      <trkpt lat="43.65637" lon="3.96232">
        <ele>51.400001525879</ele>
        <time>2021-08-11T07:57:32Z</time>
      </trkpt>
      <trkpt lat="43.65836" lon="3.96334">
        <ele>51.200000762939</ele>
        <time>2021-08-11T07:58:12Z</time>
      </trkpt>
      <trkpt lat="43.65879" lon="3.96366">
        <ele>51.400001525879</ele>
        <time>2021-08-11T07:58:20Z</time>
      </trkpt>
      <trkpt lat="43.65896" lon="3.9638">
        <ele>51.599998474121</ele>
        <time>2021-08-11T07:58:24Z</time>
      </trkpt>
      <trkpt lat="43.66069" lon="3.96537">
        <ele>52</ele>
        <time>2021-08-11T07:59:06Z</time>
      </trkpt>
      <trkpt lat="43.66296" lon="3.968">
        <ele>50</ele>
        <time>2021-08-11T07:59:54Z</time>
      </trkpt>
      <trkpt lat="43.6636" lon="3.96892">
        <ele>50.599998474121</ele>
        <time>2021-08-11T08:00:11Z</time>
      </trkpt>
      <trkpt lat="43.66378" lon="3.96917">
        <ele>50.799999237061</ele>
        <time>2021-08-11T08:00:16Z</time>
      </trkpt>
      <trkpt lat="43.66393" lon="3.96933">
        <ele>51.400001525879</ele>
        <time>2021-08-11T08:00:20Z</time>
      </trkpt>
      <trkpt lat="43.66651" lon="3.97154">
        <ele>54.400001525879</ele>
        <time>2021-08-11T08:01:24Z</time>
      </trkpt>
      <trkpt lat="43.66687" lon="3.97186">
        <ele>54.799999237061</ele>
        <time>2021-08-11T08:01:33Z</time>
      </trkpt>
      <trkpt lat="43.66766" lon="3.97398">
        <ele>54.599998474121</ele>
        <time>2021-08-11T08:02:08Z</time>
      </trkpt>
      <trkpt lat="43.66767" lon="3.97428">
        <ele>54.599998474121</ele>
        <time>2021-08-11T08:02:13Z</time>
      </trkpt>
      <trkpt lat="43.66781" lon="3.97471">
        <ele>54.799999237061</ele>
        <time>2021-08-11T08:02:20Z</time>
      </trkpt>
      <trkpt lat="43.6679" lon="3.97493">
        <ele>55</ele>
        <time>2021-08-11T08:02:24Z</time>
      </trkpt>
      <trkpt lat="43.6685" lon="3.9766">
        <ele>54.400001525879</ele>
        <time>2021-08-11T08:02:59Z</time>
      </trkpt>
      <trkpt lat="43.66873" lon="3.97565">
        <ele>53.599998474121</ele>
        <time>2021-08-11T08:03:22Z</time>
      </trkpt>
      <trkpt lat="43.66995" lon="3.97645">
        <ele>55</ele>
        <time>2021-08-11T08:03:52Z</time>
      </trkpt>
      <trkpt lat="43.67181" lon="3.98011">
        <ele>53.200000762939</ele>
        <time>2021-08-11T08:04:43Z</time>
      </trkpt>
      <trkpt lat="43.6721" lon="3.9806">
        <ele>53</ele>
        <time>2021-08-11T08:04:52Z</time>
      </trkpt>
      <trkpt lat="43.67228" lon="3.98083">
        <ele>53.200000762939</ele>
        <time>2021-08-11T08:04:58Z</time>
      </trkpt>
      <trkpt lat="43.67273" lon="3.98134">
        <ele>54.599998474121</ele>
        <time>2021-08-11T08:05:12Z</time>
      </trkpt>
      <trkpt lat="43.67339" lon="3.98201">
        <ele>54</ele>
        <time>2021-08-11T08:05:28Z</time>
      </trkpt>
      <trkpt lat="43.67394" lon="3.9825">
        <ele>54.400001525879</ele>
        <time>2021-08-11T08:05:42Z</time>
      </trkpt>
      <trkpt lat="43.67417" lon="3.9827">
        <ele>54.599998474121</ele>
        <time>2021-08-11T08:05:49Z</time>
      </trkpt>
      <trkpt lat="43.67454" lon="3.98269">
        <ele>55.599998474121</ele>
        <time>2021-08-11T08:05:59Z</time>
      </trkpt>
      <trkpt lat="43.67458" lon="3.98271">
        <ele>55.799999237061</ele>
        <time>2021-08-11T08:06:00Z</time>
      </trkpt>
      <trkpt lat="43.67485" lon="3.9829">
        <ele>55.799999237061</ele>
        <time>2021-08-11T08:06:07Z</time>
      </trkpt>
      <trkpt lat="43.67636" lon="3.98389">
        <ele>58.799999237061</ele>
        <time>2021-08-11T08:06:54Z</time>
      </trkpt>
      <trkpt lat="43.67735" lon="3.98408">
        <ele>61.599998474121</ele>
        <time>2021-08-11T08:07:28Z</time>
      </trkpt>
      <trkpt lat="43.67743" lon="3.98405">
        <ele>62.200000762939</ele>
        <time>2021-08-11T08:07:33Z</time>
      </trkpt>
      <trkpt lat="43.67808" lon="3.98401">
        <ele>64.400001525879</ele>
        <time>2021-08-11T08:08:27Z</time>
      </trkpt>
      <trkpt lat="43.67821" lon="3.98409">
        <ele>64.599998474121</ele>
        <time>2021-08-11T08:08:33Z</time>
      </trkpt>
      <trkpt lat="43.67865" lon="3.98467">
        <ele>67.599998474121</ele>
        <time>2021-08-11T08:08:57Z</time>
      </trkpt>
      <trkpt lat="43.67907" lon="3.98567">
        <ele>70.599998474121</ele>
        <time>2021-08-11T08:09:37Z</time>
      </trkpt>
      <trkpt lat="43.67934" lon="3.98668">
        <ele>71.599998474121</ele>
        <time>2021-08-11T08:09:57Z</time>
      </trkpt>
      <trkpt lat="43.67979" lon="3.98791">
        <ele>69.800003051758</ele>
        <time>2021-08-11T08:10:14Z</time>
      </trkpt>
      <trkpt lat="43.68032" lon="3.98894">
        <ele>68.800003051758</ele>
        <time>2021-08-11T08:10:28Z</time>
      </trkpt>
      <trkpt lat="43.68051" lon="3.98926">
        <ele>67.199996948242</ele>
        <time>2021-08-11T08:10:32Z</time>
      </trkpt>
      <trkpt lat="43.68108" lon="3.9903">
        <ele>64</ele>
        <time>2021-08-11T08:10:44Z</time>
      </trkpt>
      <trkpt lat="43.68168" lon="3.99141">
        <ele>60.799999237061</ele>
        <time>2021-08-11T08:11:01Z</time>
      </trkpt>
      <trkpt lat="43.68171" lon="3.99147">
        <ele>60.599998474121</ele>
        <time>2021-08-11T08:11:02Z</time>
      </trkpt>
      <trkpt lat="43.68178" lon="3.99158">
        <ele>60.799999237061</ele>
        <time>2021-08-11T08:11:04Z</time>
      </trkpt>
      <trkpt lat="43.68204" lon="3.99187">
        <ele>55.200000762939</ele>
        <time>2021-08-11T09:02:03Z</time>
      </trkpt>
      <trkpt lat="43.68203" lon="3.99185">
        <ele>55.400001525879</ele>
        <time>2021-08-11T09:02:04Z</time>
      </trkpt>
      <trkpt lat="43.68177" lon="3.9915">
        <ele>56.400001525879</ele>
        <time>2021-08-11T09:02:22Z</time>
      </trkpt>
      <trkpt lat="43.68097" lon="3.98978">
        <ele>57.599998474121</ele>
        <time>2021-08-11T09:03:10Z</time>
      </trkpt>
      <trkpt lat="43.68032" lon="3.98852">
        <ele>61</ele>
        <time>2021-08-11T09:03:47Z</time>
      </trkpt>
      <trkpt lat="43.68" lon="3.98806">
        <ele>62.599998474121</ele>
        <time>2021-08-11T09:04:05Z</time>
      </trkpt>
      <trkpt lat="43.67961" lon="3.98695">
        <ele>65.800003051758</ele>
        <time>2021-08-11T09:04:36Z</time>
      </trkpt>
      <trkpt lat="43.67959" lon="3.98688">
        <ele>66</ele>
        <time>2021-08-11T09:04:38Z</time>
      </trkpt>
      <trkpt lat="43.6795" lon="3.98626">
        <ele>66.800003051758</ele>
        <time>2021-08-11T09:04:53Z</time>
      </trkpt>
      <trkpt lat="43.67937" lon="3.98603">
        <ele>67</ele>
        <time>2021-08-11T09:05:00Z</time>
      </trkpt>
      <trkpt lat="43.67923" lon="3.98576">
        <ele>68.199996948242</ele>
        <time>2021-08-11T09:05:14Z</time>
      </trkpt>
      <trkpt lat="43.67887" lon="3.98597">
        <ele>70.400001525879</ele>
        <time>2021-08-11T09:05:34Z</time>
      </trkpt>
      <trkpt lat="43.67799" lon="3.9858">
        <ele>71</ele>
        <time>2021-08-11T09:06:14Z</time>
      </trkpt>
      <trkpt lat="43.67787" lon="3.98586">
        <ele>70.599998474121</ele>
        <time>2021-08-11T09:06:22Z</time>
      </trkpt>
      <trkpt lat="43.67784" lon="3.98597">
        <ele>70</ele>
        <time>2021-08-11T09:06:33Z</time>
      </trkpt>
      <trkpt lat="43.67787" lon="3.98598">
        <ele>70</ele>
        <time>2021-08-11T09:06:38Z</time>
      </trkpt>
      <trkpt lat="43.67754" lon="3.98527">
        <ele>66</ele>
        <time>2021-08-11T09:07:11Z</time>
      </trkpt>
      <trkpt lat="43.67752" lon="3.98524">
        <ele>66</ele>
        <time>2021-08-11T09:07:12Z</time>
      </trkpt>
      <trkpt lat="43.67728" lon="3.98472">
        <ele>62.400001525879</ele>
        <time>2021-08-11T09:07:35Z</time>
      </trkpt>
      <trkpt lat="43.67726" lon="3.9847">
        <ele>62.200000762939</ele>
        <time>2021-08-11T09:07:36Z</time>
      </trkpt>
      <trkpt lat="43.67739" lon="3.9841">
        <ele>59.799999237061</ele>
        <time>2021-08-11T09:08:02Z</time>
      </trkpt>
      <trkpt lat="43.67751" lon="3.98395">
        <ele>59.799999237061</ele>
        <time>2021-08-11T09:08:09Z</time>
      </trkpt>
      <trkpt lat="43.67716" lon="3.98373">
        <ele>59.200000762939</ele>
        <time>2021-08-11T09:08:28Z</time>
      </trkpt>
      <trkpt lat="43.67691" lon="3.98355">
        <ele>55.200000762939</ele>
        <time>2021-08-11T09:22:11Z</time>
      </trkpt>
      <trkpt lat="43.67691" lon="3.98355">
        <ele>55.200000762939</ele>
        <time>2021-08-11T09:22:12Z</time>
      </trkpt>
      <trkpt lat="43.67551" lon="3.98268">
        <ele>46.400001525879</ele>
        <time>2021-08-11T10:06:44Z</time>
      </trkpt>
      <trkpt lat="43.67573" lon="3.98279">
        <ele>51.200000762939</ele>
        <time>2021-08-11T10:06:54Z</time>
      </trkpt>
      <trkpt lat="43.67623" lon="3.98286">
        <ele>52.200000762939</ele>
        <time>2021-08-11T10:07:15Z</time>
      </trkpt>
      <trkpt lat="43.67648" lon="3.98333">
        <ele>53.200000762939</ele>
        <time>2021-08-11T10:07:35Z</time>
      </trkpt>
      <trkpt lat="43.67674" lon="3.98375">
        <ele>54.599998474121</ele>
        <time>2021-08-11T10:07:56Z</time>
      </trkpt>
      <trkpt lat="43.6769" lon="3.98377">
        <ele>54.799999237061</ele>
        <time>2021-08-11T10:08:04Z</time>
      </trkpt>
      <trkpt lat="43.67735" lon="3.98377">
        <ele>56.400001525879</ele>
        <time>2021-08-11T10:08:26Z</time>
      </trkpt>
      <trkpt lat="43.67793" lon="3.98386">
        <ele>58.200000762939</ele>
        <time>2021-08-11T10:08:53Z</time>
      </trkpt>
      <trkpt lat="43.67839" lon="3.98431">
        <ele>60.599998474121</ele>
        <time>2021-08-11T10:09:13Z</time>
      </trkpt>
      <trkpt lat="43.67882" lon="3.98525">
        <ele>64</ele>
        <time>2021-08-11T10:09:50Z</time>
      </trkpt>
      <trkpt lat="43.67909" lon="3.98573">
        <ele>65.199996948242</ele>
        <time>2021-08-11T10:10:30Z</time>
      </trkpt>
      <trkpt lat="43.6793" lon="3.98663">
        <ele>64.800003051758</ele>
        <time>2021-08-11T10:10:49Z</time>
      </trkpt>
      <trkpt lat="43.67945" lon="3.987">
        <ele>64.800003051758</ele>
        <time>2021-08-11T10:10:55Z</time>
      </trkpt>
      <trkpt lat="43.67947" lon="3.98707">
        <ele>64.599998474121</ele>
        <time>2021-08-11T10:10:56Z</time>
      </trkpt>
      <trkpt lat="43.6796" lon="3.9875">
        <ele>64</ele>
        <time>2021-08-11T10:11:03Z</time>
      </trkpt>
      <trkpt lat="43.67962" lon="3.98769">
        <ele>63.799999237061</ele>
        <time>2021-08-11T10:11:09Z</time>
      </trkpt>
      <trkpt lat="43.67939" lon="3.98704">
        <ele>61.400001525879</ele>
        <time>2021-08-11T10:11:27Z</time>
      </trkpt>
      <trkpt lat="43.67932" lon="3.98685">
        <ele>61.799999237061</ele>
        <time>2021-08-11T10:11:33Z</time>
      </trkpt>
      <trkpt lat="43.67899" lon="3.98622">
        <ele>65</ele>
        <time>2021-08-11T10:12:04Z</time>
      </trkpt>
      <trkpt lat="43.67897" lon="3.98618">
        <ele>65.199996948242</ele>
        <time>2021-08-11T10:12:06Z</time>
      </trkpt>
      <trkpt lat="43.67891" lon="3.986">
        <ele>66.199996948242</ele>
        <time>2021-08-11T10:12:14Z</time>
      </trkpt>
      <trkpt lat="43.6787" lon="3.98591">
        <ele>67.599998474121</ele>
        <time>2021-08-11T10:12:29Z</time>
      </trkpt>
      <trkpt lat="43.67861" lon="3.98595">
        <ele>68.400001525879</ele>
        <time>2021-08-11T10:12:37Z</time>
      </trkpt>
      <trkpt lat="43.67854" lon="3.98602">
        <ele>68.800003051758</ele>
        <time>2021-08-11T10:12:41Z</time>
      </trkpt>
      <trkpt lat="43.67821" lon="3.98639">
        <ele>70.400001525879</ele>
        <time>2021-08-11T10:16:40Z</time>
      </trkpt>
      <trkpt lat="43.67838" lon="3.98622">
        <ele>69.599998474121</ele>
        <time>2021-08-11T10:17:04Z</time>
      </trkpt>
      <trkpt lat="43.67815" lon="3.98575">
        <ele>69.199996948242</ele>
        <time>2021-08-11T10:17:26Z</time>
      </trkpt>
      <trkpt lat="43.67811" lon="3.98567">
        <ele>69.199996948242</ele>
        <time>2021-08-11T10:17:29Z</time>
      </trkpt>
      <trkpt lat="43.67786" lon="3.98588">
        <ele>68.199996948242</ele>
        <time>2021-08-11T10:17:38Z</time>
      </trkpt>
      <trkpt lat="43.67761" lon="3.98615">
        <ele>68</ele>
        <time>2021-08-11T10:17:51Z</time>
      </trkpt>
      <trkpt lat="43.67714" lon="3.98695">
        <ele>69.400001525879</ele>
        <time>2021-08-11T10:18:29Z</time>
      </trkpt>
      <trkpt lat="43.67701" lon="3.98714">
        <ele>69.400001525879</ele>
        <time>2021-08-11T10:18:39Z</time>
      </trkpt>
      <trkpt lat="43.67693" lon="3.98723">
        <ele>68.599998474121</ele>
        <time>2021-08-11T10:18:46Z</time>
      </trkpt>
      <trkpt lat="43.67692" lon="3.98725">
        <ele>68.400001525879</ele>
        <time>2021-08-11T10:18:47Z</time>
      </trkpt>
      <trkpt lat="43.67691" lon="3.98738">
        <ele>67.199996948242</ele>
        <time>2021-08-11T10:18:52Z</time>
      </trkpt>
      <trkpt lat="43.67691" lon="3.98744">
        <ele>66.599998474121</ele>
        <time>2021-08-11T10:18:54Z</time>
      </trkpt>
      <trkpt lat="43.67699" lon="3.98756">
        <ele>65.599998474121</ele>
        <time>2021-08-11T10:18:57Z</time>
      </trkpt>
      <trkpt lat="43.67701" lon="3.9878">
        <ele>64.599998474121</ele>
        <time>2021-08-11T10:19:04Z</time>
      </trkpt>
      <trkpt lat="43.67686" lon="3.98792">
        <ele>62.400001525879</ele>
        <time>2021-08-11T10:19:14Z</time>
      </trkpt>
      <trkpt lat="43.67681" lon="3.98791">
        <ele>61.400001525879</ele>
        <time>2021-08-11T10:19:20Z</time>
      </trkpt>
      <trkpt lat="43.67674" lon="3.98781">
        <ele>61.200000762939</ele>
        <time>2021-08-11T10:19:26Z</time>
      </trkpt>
      <trkpt lat="43.6766" lon="3.98753">
        <ele>60.400001525879</ele>
        <time>2021-08-11T10:19:33Z</time>
      </trkpt>
      <trkpt lat="43.67666" lon="3.9862">
        <ele>58.599998474121</ele>
        <time>2021-08-11T10:19:59Z</time>
      </trkpt>
      <trkpt lat="43.67673" lon="3.98595">
        <ele>58.599998474121</ele>
        <time>2021-08-11T10:20:06Z</time>
      </trkpt>
      <trkpt lat="43.67664" lon="3.98581">
        <ele>58.599998474121</ele>
        <time>2021-08-11T10:20:10Z</time>
      </trkpt>
      <trkpt lat="43.67685" lon="3.98478">
        <ele>57.200000762939</ele>
        <time>2021-08-11T10:20:35Z</time>
      </trkpt>
      <trkpt lat="43.677" lon="3.9846">
        <ele>57.200000762939</ele>
        <time>2021-08-11T10:20:41Z</time>
      </trkpt>
      <trkpt lat="43.67703" lon="3.98437">
        <ele>57.799999237061</ele>
        <time>2021-08-11T10:21:28Z</time>
      </trkpt>
      <trkpt lat="43.67814" lon="3.98376">
        <ele>59.400001525879</ele>
        <time>2021-08-11T10:22:18Z</time>
      </trkpt>
      <trkpt lat="43.67827" lon="3.98195">
        <ele>60.400001525879</ele>
        <time>2021-08-11T10:22:53Z</time>
      </trkpt>
      <trkpt lat="43.67823" lon="3.98169">
        <ele>61.799999237061</ele>
        <time>2021-08-11T10:23:02Z</time>
      </trkpt>
      <trkpt lat="43.67821" lon="3.98151">
        <ele>63.200000762939</ele>
        <time>2021-08-11T10:23:10Z</time>
      </trkpt>
      <trkpt lat="43.67824" lon="3.98148">
        <ele>63.599998474121</ele>
        <time>2021-08-11T10:23:15Z</time>
      </trkpt>
      <trkpt lat="43.67852" lon="3.98142">
        <ele>64.800003051758</ele>
        <time>2021-08-11T10:23:31Z</time>
      </trkpt>
      <trkpt lat="43.67926" lon="3.98122">
        <ele>67.800003051758</ele>
        <time>2021-08-11T10:24:06Z</time>
      </trkpt>
      <trkpt lat="43.67937" lon="3.98121">
        <ele>68.599998474121</ele>
        <time>2021-08-11T10:24:15Z</time>
      </trkpt>
      <trkpt lat="43.67947" lon="3.98112">
        <ele>70</ele>
        <time>2021-08-11T10:24:24Z</time>
      </trkpt>
      <trkpt lat="43.67967" lon="3.98089">
        <ele>73</ele>
        <time>2021-08-11T10:24:45Z</time>
      </trkpt>
      <trkpt lat="43.67979" lon="3.98079">
        <ele>74.199996948242</ele>
        <time>2021-08-11T10:24:52Z</time>
      </trkpt>
      <trkpt lat="43.67987" lon="3.98068">
        <ele>75.599998474121</ele>
        <time>2021-08-11T10:25:01Z</time>
      </trkpt>
      <trkpt lat="43.67993" lon="3.98058">
        <ele>77</ele>
        <time>2021-08-11T10:25:11Z</time>
      </trkpt>
      <trkpt lat="43.68" lon="3.98045">
        <ele>78.800003051758</ele>
        <time>2021-08-11T10:25:23Z</time>
      </trkpt>
      <trkpt lat="43.68004" lon="3.98032">
        <ele>79.400001525879</ele>
        <time>2021-08-11T10:25:31Z</time>
      </trkpt>
      <trkpt lat="43.6802" lon="3.98018">
        <ele>81</ele>
        <time>2021-08-11T10:25:51Z</time>
      </trkpt>
      <trkpt lat="43.68014" lon="3.98055">
        <ele>80.599998474121</ele>
        <time>2021-08-11T10:26:13Z</time>
      </trkpt>
      <trkpt lat="43.67985" lon="3.98089">
        <ele>73</ele>
        <time>2021-08-11T11:36:44Z</time>
      </trkpt>
      <trkpt lat="43.67999" lon="3.98117">
        <ele>75.800003051758</ele>
        <time>2021-08-11T11:36:51Z</time>
      </trkpt>
      <trkpt lat="43.68018" lon="3.98162">
        <ele>74.800003051758</ele>
        <time>2021-08-11T11:37:01Z</time>
      </trkpt>
      <trkpt lat="43.68053" lon="3.98155">
        <ele>75</ele>
        <time>2021-08-11T11:37:15Z</time>
      </trkpt>
      <trkpt lat="43.68086" lon="3.98101">
        <ele>75</ele>
        <time>2021-08-11T11:37:38Z</time>
      </trkpt>
      <trkpt lat="43.68151" lon="3.98162">
        <ele>73.400001525879</ele>
        <time>2021-08-11T11:37:58Z</time>
      </trkpt>
      <trkpt lat="43.68181" lon="3.98196">
        <ele>71.599998474121</ele>
        <time>2021-08-11T11:38:16Z</time>
      </trkpt>
      <trkpt lat="43.68207" lon="3.98202">
        <ele>71</ele>
        <time>2021-08-11T11:38:30Z</time>
      </trkpt>
      <trkpt lat="43.68203" lon="3.98201">
        <ele>69.800003051758</ele>
        <time>2021-08-11T11:39:13Z</time>
      </trkpt>
      <trkpt lat="43.68183" lon="3.98195">
        <ele>70.599998474121</ele>
        <time>2021-08-11T11:39:24Z</time>
      </trkpt>
      <trkpt lat="43.68165" lon="3.98188">
        <ele>71.199996948242</ele>
        <time>2021-08-11T11:39:34Z</time>
      </trkpt>
      <trkpt lat="43.68166" lon="3.98227">
        <ele>70</ele>
        <time>2021-08-11T11:40:22Z</time>
      </trkpt>
      <trkpt lat="43.68149" lon="3.98158">
        <ele>72</ele>
        <time>2021-08-11T11:40:46Z</time>
      </trkpt>
      <trkpt lat="43.68138" lon="3.98146">
        <ele>72.599998474121</ele>
        <time>2021-08-11T11:40:54Z</time>
      </trkpt>
      <trkpt lat="43.68113" lon="3.98126">
        <ele>73.599998474121</ele>
        <time>2021-08-11T11:41:12Z</time>
      </trkpt>
      <trkpt lat="43.68108" lon="3.98127">
        <ele>74</ele>
        <time>2021-08-11T11:41:17Z</time>
      </trkpt>
      <trkpt lat="43.68128" lon="3.98146">
        <ele>73.599998474121</ele>
        <time>2021-08-11T11:41:48Z</time>
      </trkpt>
      <trkpt lat="43.68149" lon="3.98156">
        <ele>73.199996948242</ele>
        <time>2021-08-11T11:42:32Z</time>
      </trkpt>
      <trkpt lat="43.68192" lon="3.98198">
        <ele>72</ele>
        <time>2021-08-11T11:43:04Z</time>
      </trkpt>
      <trkpt lat="43.6821" lon="3.98199">
        <ele>71.599998474121</ele>
        <time>2021-08-11T11:43:13Z</time>
      </trkpt>
      <trkpt lat="43.68237" lon="3.9815">
        <ele>70.400001525879</ele>
        <time>2021-08-11T11:43:31Z</time>
      </trkpt>
      <trkpt lat="43.68286" lon="3.98128">
        <ele>68.199996948242</ele>
        <time>2021-08-11T11:43:57Z</time>
      </trkpt>
      <trkpt lat="43.68292" lon="3.98213">
        <ele>68.400001525879</ele>
        <time>2021-08-11T11:49:16Z</time>
      </trkpt>
      <trkpt lat="43.68296" lon="3.98238">
        <ele>68.400001525879</ele>
        <time>2021-08-11T11:49:23Z</time>
      </trkpt>
      <trkpt lat="43.68199" lon="3.98248">
        <ele>69.800003051758</ele>
        <time>2021-08-11T11:50:15Z</time>
      </trkpt>
      <trkpt lat="43.6818" lon="3.98245">
        <ele>70.400001525879</ele>
        <time>2021-08-11T11:50:23Z</time>
      </trkpt>
      <trkpt lat="43.6814" lon="3.98312">
        <ele>70.599998474121</ele>
        <time>2021-08-11T11:50:48Z</time>
      </trkpt>
      <trkpt lat="43.6804" lon="3.98526">
        <ele>68.199996948242</ele>
        <time>2021-08-11T11:52:20Z</time>
      </trkpt>
      <trkpt lat="43.68038" lon="3.98528">
        <ele>68.199996948242</ele>
        <time>2021-08-11T11:52:21Z</time>
      </trkpt>
      <trkpt lat="43.68026" lon="3.98539">
        <ele>68.199996948242</ele>
        <time>2021-08-11T11:52:25Z</time>
      </trkpt>
      <trkpt lat="43.67917" lon="3.98601">
        <ele>68.400001525879</ele>
        <time>2021-08-11T11:53:26Z</time>
      </trkpt>
      <trkpt lat="43.67952" lon="3.9871">
        <ele>67.599998474121</ele>
        <time>2021-08-11T11:53:44Z</time>
      </trkpt>
      <trkpt lat="43.67992" lon="3.98822">
        <ele>66.800003051758</ele>
        <time>2021-08-11T11:53:57Z</time>
      </trkpt>
      <trkpt lat="43.68113" lon="3.99031">
        <ele>62.599998474121</ele>
        <time>2021-08-11T11:54:20Z</time>
      </trkpt>
      <trkpt lat="43.68118" lon="3.9904">
        <ele>62.400001525879</ele>
        <time>2021-08-11T11:54:21Z</time>
      </trkpt>
      <trkpt lat="43.68176" lon="3.99149">
        <ele>58.599998474121</ele>
        <time>2021-08-11T11:54:36Z</time>
      </trkpt>
      <trkpt lat="43.68183" lon="3.99161">
        <ele>58.400001525879</ele>
        <time>2021-08-11T11:54:38Z</time>
      </trkpt>
      <trkpt lat="43.68222" lon="3.99207">
        <ele>58.200000762939</ele>
        <time>2021-08-11T11:54:46Z</time>
      </trkpt>
      <trkpt lat="43.68357" lon="3.99352">
        <ele>55.200000762939</ele>
        <time>2021-08-11T11:55:06Z</time>
      </trkpt>
      <trkpt lat="43.68424" lon="3.99439">
        <ele>51.799999237061</ele>
        <time>2021-08-11T11:55:17Z</time>
      </trkpt>
      <trkpt lat="43.68502" lon="3.99499">
        <ele>51</ele>
        <time>2021-08-11T11:55:29Z</time>
      </trkpt>
      <trkpt lat="43.68728" lon="3.99644">
        <ele>51.599998474121</ele>
        <time>2021-08-11T11:56:10Z</time>
      </trkpt>
      <trkpt lat="43.68817" lon="3.99741">
        <ele>51.799999237061</ele>
        <time>2021-08-11T11:56:31Z</time>
      </trkpt>
      <trkpt lat="43.68849" lon="3.99962">
        <ele>52.200000762939</ele>
        <time>2021-08-11T11:57:01Z</time>
      </trkpt>
      <trkpt lat="43.68845" lon="3.99973">
        <ele>52.200000762939</ele>
        <time>2021-08-11T11:57:03Z</time>
      </trkpt>
      <trkpt lat="43.68842" lon="3.99976">
        <ele>52.200000762939</ele>
        <time>2021-08-11T11:57:05Z</time>
      </trkpt>
      <trkpt lat="43.68826" lon="3.99988">
        <ele>50.799999237061</ele>
        <time>2021-08-11T11:57:11Z</time>
      </trkpt>
      <trkpt lat="43.68902" lon="4.00068">
        <ele>49</ele>
        <time>2021-08-11T11:57:38Z</time>
      </trkpt>
      <trkpt lat="43.68907" lon="4.00075">
        <ele>49.200000762939</ele>
        <time>2021-08-11T11:57:40Z</time>
      </trkpt>
      <trkpt lat="43.68956" lon="4.00152">
        <ele>50.599998474121</ele>
        <time>2021-08-11T11:57:56Z</time>
      </trkpt>
      <trkpt lat="43.68989" lon="4.00219">
        <ele>50.599998474121</ele>
        <time>2021-08-11T11:58:07Z</time>
      </trkpt>
      <trkpt lat="43.69018" lon="4.00277">
        <ele>50.799999237061</ele>
        <time>2021-08-11T11:58:17Z</time>
      </trkpt>
      <trkpt lat="43.69045" lon="4.00381">
        <ele>51</ele>
        <time>2021-08-11T11:58:30Z</time>
      </trkpt>
      <trkpt lat="43.69081" lon="4.0057">
        <ele>49.599998474121</ele>
        <time>2021-08-11T11:58:49Z</time>
      </trkpt>
      <trkpt lat="43.69089" lon="4.00599">
        <ele>49.400001525879</ele>
        <time>2021-08-11T11:58:52Z</time>
      </trkpt>
      <trkpt lat="43.69186" lon="4.00762">
        <ele>48.599998474121</ele>
        <time>2021-08-11T11:59:16Z</time>
      </trkpt>
      <trkpt lat="43.69262" lon="4.00873">
        <ele>47.400001525879</ele>
        <time>2021-08-11T11:59:32Z</time>
      </trkpt>
      <trkpt lat="43.69293" lon="4.00928">
        <ele>47</ele>
        <time>2021-08-11T11:59:39Z</time>
      </trkpt>
      <trkpt lat="43.69354" lon="4.01034">
        <ele>47.200000762939</ele>
        <time>2021-08-11T11:59:53Z</time>
      </trkpt>
      <trkpt lat="43.69433" lon="4.01149">
        <ele>47</ele>
        <time>2021-08-11T12:00:10Z</time>
      </trkpt>
      <trkpt lat="43.69482" lon="4.01231">
        <ele>47.400001525879</ele>
        <time>2021-08-11T12:00:23Z</time>
      </trkpt>
      <trkpt lat="43.69533" lon="4.01308">
        <ele>48.200000762939</ele>
        <time>2021-08-11T12:00:38Z</time>
      </trkpt>
      <trkpt lat="43.69663" lon="4.01467">
        <ele>51.799999237061</ele>
        <time>2021-08-11T12:01:19Z</time>
      </trkpt>
      <trkpt lat="43.69714" lon="4.01527">
        <ele>53.599998474121</ele>
        <time>2021-08-11T12:01:40Z</time>
      </trkpt>
      <trkpt lat="43.69807" lon="4.01639">
        <ele>56.599998474121</ele>
        <time>2021-08-11T12:02:14Z</time>
      </trkpt>
      <trkpt lat="43.69879" lon="4.01727">
        <ele>59.799999237061</ele>
        <time>2021-08-11T12:02:46Z</time>
      </trkpt>
      <trkpt lat="43.69946" lon="4.01803">
        <ele>62.599998474121</ele>
        <time>2021-08-11T12:03:13Z</time>
      </trkpt>
      <trkpt lat="43.70005" lon="4.01875">
        <ele>65.800003051758</ele>
        <time>2021-08-11T12:03:40Z</time>
      </trkpt>
      <trkpt lat="43.70009" lon="4.01882">
        <ele>66</ele>
        <time>2021-08-11T12:03:42Z</time>
      </trkpt>
      <trkpt lat="43.70023" lon="4.01901">
        <ele>66.400001525879</ele>
        <time>2021-08-11T12:03:48Z</time>
      </trkpt>
      <trkpt lat="43.70053" lon="4.01937">
        <ele>68</ele>
        <time>2021-08-11T12:04:04Z</time>
      </trkpt>
      <trkpt lat="43.70075" lon="4.01972">
        <ele>68.599998474121</ele>
        <time>2021-08-11T12:04:12Z</time>
      </trkpt>
      <trkpt lat="43.70245" lon="4.02256">
        <ele>72.199996948242</ele>
        <time>2021-08-11T12:05:12Z</time>
      </trkpt>
      <trkpt lat="43.70282" lon="4.02307">
        <ele>73.800003051758</ele>
        <time>2021-08-11T12:05:26Z</time>
      </trkpt>
      <trkpt lat="43.70361" lon="4.02402">
        <ele>77.199996948242</ele>
        <time>2021-08-11T12:05:59Z</time>
      </trkpt>
      <trkpt lat="43.70431" lon="4.02475">
        <ele>80.400001525879</ele>
        <time>2021-08-11T12:06:28Z</time>
      </trkpt>
      <trkpt lat="43.70556" lon="4.02542">
        <ele>83.599998474121</ele>
        <time>2021-08-11T12:07:11Z</time>
      </trkpt>
      <trkpt lat="43.70563" lon="4.02546">
        <ele>83.800003051758</ele>
        <time>2021-08-11T12:07:13Z</time>
      </trkpt>
      <trkpt lat="43.70742" lon="4.02641">
        <ele>87</ele>
        <time>2021-08-11T12:07:59Z</time>
      </trkpt>
      <trkpt lat="43.70828" lon="4.0269">
        <ele>89.400001525879</ele>
        <time>2021-08-11T12:08:25Z</time>
      </trkpt>
      <trkpt lat="43.70913" lon="4.02733">
        <ele>92.599998474121</ele>
        <time>2021-08-11T12:08:55Z</time>
      </trkpt>
      <trkpt lat="43.70922" lon="4.02738">
        <ele>92.800003051758</ele>
        <time>2021-08-11T12:08:58Z</time>
      </trkpt>
      <trkpt lat="43.71044" lon="4.02803">
        <ele>95.800003051758</ele>
        <time>2021-08-11T12:09:36Z</time>
      </trkpt>
      <trkpt lat="43.71159" lon="4.02842">
        <ele>94.199996948242</ele>
        <time>2021-08-11T12:09:54Z</time>
      </trkpt>
      <trkpt lat="43.71254" lon="4.02899">
        <ele>91.400001525879</ele>
        <time>2021-08-11T12:10:05Z</time>
      </trkpt>
      <trkpt lat="43.71314" lon="4.0294">
        <ele>89.400001525879</ele>
        <time>2021-08-11T12:10:12Z</time>
      </trkpt>
      <trkpt lat="43.71477" lon="4.03055">
        <ele>85.199996948242</ele>
        <time>2021-08-11T12:10:31Z</time>
      </trkpt>
      <trkpt lat="43.71503" lon="4.03077">
        <ele>85</ele>
        <time>2021-08-11T12:10:34Z</time>
      </trkpt>
      <trkpt lat="43.71584" lon="4.03146">
        <ele>81.599998474121</ele>
        <time>2021-08-11T12:10:44Z</time>
      </trkpt>
      <trkpt lat="43.71621" lon="4.03179">
        <ele>81.400001525879</ele>
        <time>2021-08-11T12:10:50Z</time>
      </trkpt>
      <trkpt lat="43.71722" lon="4.03266">
        <ele>84.400001525879</ele>
        <time>2021-08-11T12:11:34Z</time>
      </trkpt>
      <trkpt lat="43.71773" lon="4.03313">
        <ele>87.400001525879</ele>
        <time>2021-08-11T12:11:59Z</time>
      </trkpt>
      <trkpt lat="43.71802" lon="4.03351">
        <ele>89.599998474121</ele>
        <time>2021-08-11T12:12:17Z</time>
      </trkpt>
      <trkpt lat="43.71842" lon="4.03413">
        <ele>92.800003051758</ele>
        <time>2021-08-11T12:12:44Z</time>
      </trkpt>
      <trkpt lat="43.71851" lon="4.03446">
        <ele>93.800003051758</ele>
        <time>2021-08-11T12:12:54Z</time>
      </trkpt>
      <trkpt lat="43.71914" lon="4.03476">
        <ele>93.599998474121</ele>
        <time>2021-08-11T12:13:13Z</time>
      </trkpt>
      <trkpt lat="43.71991" lon="4.03525">
        <ele>93.599998474121</ele>
        <time>2021-08-11T12:13:30Z</time>
      </trkpt>
      <trkpt lat="43.72043" lon="4.03551">
        <ele>93.800003051758</ele>
        <time>2021-08-11T12:13:39Z</time>
      </trkpt>
      <trkpt lat="43.72088" lon="4.03577">
        <ele>93.800003051758</ele>
        <time>2021-08-11T12:13:48Z</time>
      </trkpt>
      <trkpt lat="43.72159" lon="4.03596">
        <ele>94.800003051758</ele>
        <time>2021-08-11T12:14:04Z</time>
      </trkpt>
      <trkpt lat="43.72238" lon="4.03613">
        <ele>91.599998474121</ele>
        <time>2021-08-11T12:14:18Z</time>
      </trkpt>
      <trkpt lat="43.72257" lon="4.03628">
        <ele>90.599998474121</ele>
        <time>2021-08-11T12:14:21Z</time>
      </trkpt>
      <trkpt lat="43.7227" lon="4.03643">
        <ele>89.800003051758</ele>
        <time>2021-08-11T12:14:23Z</time>
      </trkpt>
      <trkpt lat="43.72303" lon="4.037">
        <ele>87.800003051758</ele>
        <time>2021-08-11T12:14:30Z</time>
      </trkpt>
      <trkpt lat="43.72367" lon="4.03854">
        <ele>88.400001525879</ele>
        <time>2021-08-11T12:15:58Z</time>
      </trkpt>
      <trkpt lat="43.72374" lon="4.03879">
        <ele>88.199996948242</ele>
        <time>2021-08-11T12:16:03Z</time>
      </trkpt>
      <trkpt lat="43.72374" lon="4.03885">
        <ele>88.400001525879</ele>
        <time>2021-08-11T12:16:04Z</time>
      </trkpt>
      <trkpt lat="43.72377" lon="4.03914">
        <ele>88.199996948242</ele>
        <time>2021-08-11T12:16:08Z</time>
      </trkpt>
      <trkpt lat="43.72453" lon="4.03976">
        <ele>86.400001525879</ele>
        <time>2021-08-11T12:16:21Z</time>
      </trkpt>
      <trkpt lat="43.72466" lon="4.03983">
        <ele>86</ele>
        <time>2021-08-11T12:16:23Z</time>
      </trkpt>
      <trkpt lat="43.72526" lon="4.04026">
        <ele>85.400001525879</ele>
        <time>2021-08-11T12:16:34Z</time>
      </trkpt>
      <trkpt lat="43.72655" lon="4.04128">
        <ele>88.599998474121</ele>
        <time>2021-08-11T12:17:17Z</time>
      </trkpt>
      <trkpt lat="43.72694" lon="4.04162">
        <ele>90</ele>
        <time>2021-08-11T12:17:32Z</time>
      </trkpt>
      <trkpt lat="43.72774" lon="4.04226">
        <ele>93.599998474121</ele>
        <time>2021-08-11T12:18:04Z</time>
      </trkpt>
      <trkpt lat="43.72833" lon="4.04274">
        <ele>95.599998474121</ele>
        <time>2021-08-11T12:18:25Z</time>
      </trkpt>
      <trkpt lat="43.73008" lon="4.04446">
        <ele>99.199996948242</ele>
        <time>2021-08-11T12:19:28Z</time>
      </trkpt>
      <trkpt lat="43.73052" lon="4.04532">
        <ele>101</ele>
        <time>2021-08-11T12:19:52Z</time>
      </trkpt>
      <trkpt lat="43.73106" lon="4.04655">
        <ele>100.19999694824</ele>
        <time>2021-08-11T12:20:09Z</time>
      </trkpt>
      <trkpt lat="43.73235" lon="4.04811">
        <ele>97.599998474121</ele>
        <time>2021-08-11T12:20:33Z</time>
      </trkpt>
      <trkpt lat="43.73243" lon="4.04817">
        <ele>97.599998474121</ele>
        <time>2021-08-11T12:20:34Z</time>
      </trkpt>
      <trkpt lat="43.73315" lon="4.04848">
        <ele>96.800003051758</ele>
        <time>2021-08-11T12:20:43Z</time>
      </trkpt>
      <trkpt lat="43.73442" lon="4.04881">
        <ele>93.199996948242</ele>
        <time>2021-08-11T12:20:58Z</time>
      </trkpt>
      <trkpt lat="43.73633" lon="4.04935">
        <ele>89.599998474121</ele>
        <time>2021-08-11T12:21:21Z</time>
      </trkpt>
      <trkpt lat="43.73818" lon="4.04986">
        <ele>86.199996948242</ele>
        <time>2021-08-11T12:21:44Z</time>
      </trkpt>
      <trkpt lat="43.73843" lon="4.04993">
        <ele>86</ele>
        <time>2021-08-11T12:21:47Z</time>
      </trkpt>
      <trkpt lat="43.73986" lon="4.05036">
        <ele>82.400001525879</ele>
        <time>2021-08-11T12:22:06Z</time>
      </trkpt>
      <trkpt lat="43.7437" lon="4.05139">
        <ele>80</ele>
        <time>2021-08-11T12:23:06Z</time>
      </trkpt>
      <trkpt lat="43.74377" lon="4.05141">
        <ele>79.800003051758</ele>
        <time>2021-08-11T12:23:07Z</time>
      </trkpt>
      <trkpt lat="43.74438" lon="4.05162">
        <ele>79.199996948242</ele>
        <time>2021-08-11T12:23:16Z</time>
      </trkpt>
      <trkpt lat="43.74582" lon="4.05264">
        <ele>77.800003051758</ele>
        <time>2021-08-11T12:23:39Z</time>
      </trkpt>
      <trkpt lat="43.74776" lon="4.05459">
        <ele>79.599998474121</ele>
        <time>2021-08-11T12:24:22Z</time>
      </trkpt>
      <trkpt lat="43.74916" lon="4.05616">
        <ele>80.199996948242</ele>
        <time>2021-08-11T12:24:53Z</time>
      </trkpt>
      <trkpt lat="43.74958" lon="4.05825">
        <ele>81</ele>
        <time>2021-08-11T12:25:24Z</time>
      </trkpt>
      <trkpt lat="43.74943" lon="4.0594">
        <ele>81.599998474121</ele>
        <time>2021-08-11T12:25:43Z</time>
      </trkpt>
      <trkpt lat="43.74942" lon="4.05946">
        <ele>80.800003051758</ele>
        <time>2021-08-11T12:30:25Z</time>
      </trkpt>
      <trkpt lat="43.74941" lon="4.05979">
        <ele>81.599998474121</ele>
        <time>2021-08-11T12:30:35Z</time>
      </trkpt>
      <trkpt lat="43.74925" lon="4.06148">
        <ele>82.800003051758</ele>
        <time>2021-08-11T12:31:10Z</time>
      </trkpt>
      <trkpt lat="43.74919" lon="4.06197">
        <ele>82.599998474121</ele>
        <time>2021-08-11T12:31:17Z</time>
      </trkpt>
      <trkpt lat="43.74917" lon="4.06252">
        <ele>82.199996948242</ele>
        <time>2021-08-11T12:31:24Z</time>
      </trkpt>
      <trkpt lat="43.74952" lon="4.06472">
        <ele>79.800003051758</ele>
        <time>2021-08-11T12:31:46Z</time>
      </trkpt>
      <trkpt lat="43.75005" lon="4.06645">
        <ele>76.199996948242</ele>
        <time>2021-08-11T12:32:02Z</time>
      </trkpt>
      <trkpt lat="43.75059" lon="4.06824">
        <ele>72.400001525879</ele>
        <time>2021-08-11T12:32:17Z</time>
      </trkpt>
      <trkpt lat="43.75089" lon="4.0693">
        <ele>69.400001525879</ele>
        <time>2021-08-11T12:32:25Z</time>
      </trkpt>
      <trkpt lat="43.75138" lon="4.0709">
        <ele>67.199996948242</ele>
        <time>2021-08-11T12:32:38Z</time>
      </trkpt>
      <trkpt lat="43.75195" lon="4.07169">
        <ele>66.199996948242</ele>
        <time>2021-08-11T12:32:49Z</time>
      </trkpt>
      <trkpt lat="43.75566" lon="4.07591">
        <ele>65</ele>
        <time>2021-08-11T12:34:08Z</time>
      </trkpt>
      <trkpt lat="43.75623" lon="4.07636">
        <ele>63.799999237061</ele>
        <time>2021-08-11T12:34:17Z</time>
      </trkpt>
      <trkpt lat="43.7568" lon="4.07657">
        <ele>62.799999237061</ele>
        <time>2021-08-11T12:34:24Z</time>
      </trkpt>
      <trkpt lat="43.75745" lon="4.0766">
        <ele>61.599998474121</ele>
        <time>2021-08-11T12:34:31Z</time>
      </trkpt>
      <trkpt lat="43.75754" lon="4.07658">
        <ele>61.400001525879</ele>
        <time>2021-08-11T12:34:32Z</time>
      </trkpt>
      <trkpt lat="43.7578" lon="4.07652">
        <ele>60.799999237061</ele>
        <time>2021-08-11T12:34:35Z</time>
      </trkpt>
      <trkpt lat="43.75863" lon="4.07709">
        <ele>57.400001525879</ele>
        <time>2021-08-11T12:34:46Z</time>
      </trkpt>
      <trkpt lat="43.75867" lon="4.07717">
        <ele>57.400001525879</ele>
        <time>2021-08-11T12:34:47Z</time>
      </trkpt>
      <trkpt lat="43.7588" lon="4.07738">
        <ele>56.799999237061</ele>
        <time>2021-08-11T12:34:50Z</time>
      </trkpt>
      <trkpt lat="43.75909" lon="4.0779">
        <ele>52.400001525879</ele>
        <time>2021-08-11T12:34:59Z</time>
      </trkpt>
      <trkpt lat="43.75974" lon="4.07885">
        <ele>49</ele>
        <time>2021-08-11T12:35:15Z</time>
      </trkpt>
      <trkpt lat="43.75984" lon="4.07902">
        <ele>48.400001525879</ele>
        <time>2021-08-11T12:35:18Z</time>
      </trkpt>
      <trkpt lat="43.76005" lon="4.07941">
        <ele>45.400001525879</ele>
        <time>2021-08-11T12:35:26Z</time>
      </trkpt>
      <trkpt lat="43.76033" lon="4.07982">
        <ele>44.200000762939</ele>
        <time>2021-08-11T12:35:32Z</time>
      </trkpt>
      <trkpt lat="43.76069" lon="4.08046">
        <ele>40.200000762939</ele>
        <time>2021-08-11T12:35:46Z</time>
      </trkpt>
      <trkpt lat="43.76088" lon="4.08084">
        <ele>38.599998474121</ele>
        <time>2021-08-11T12:35:58Z</time>
      </trkpt>
      <trkpt lat="43.761" lon="4.08104">
        <ele>38.599998474121</ele>
        <time>2021-08-11T12:36:02Z</time>
      </trkpt>
      <trkpt lat="43.76264" lon="4.0818">
        <ele>38.200000762939</ele>
        <time>2021-08-11T12:36:41Z</time>
      </trkpt>
      <trkpt lat="43.76353" lon="4.08251">
        <ele>38</ele>
        <time>2021-08-11T12:36:57Z</time>
      </trkpt>
      <trkpt lat="43.76364" lon="4.08258">
        <ele>37.799999237061</ele>
        <time>2021-08-11T12:36:59Z</time>
      </trkpt>
      <trkpt lat="43.76422" lon="4.08289">
        <ele>36.599998474121</ele>
        <time>2021-08-11T12:37:08Z</time>
      </trkpt>
      <trkpt lat="43.76536" lon="4.0835">
        <ele>35.599998474121</ele>
        <time>2021-08-11T12:37:28Z</time>
      </trkpt>
      <trkpt lat="43.76643" lon="4.08345">
        <ele>34.799999237061</ele>
        <time>2021-08-11T12:37:58Z</time>
      </trkpt>
      <trkpt lat="43.77223" lon="4.08507">
        <ele>36.599998474121</ele>
        <time>2021-08-11T12:39:38Z</time>
      </trkpt>
      <trkpt lat="43.77514" lon="4.087">
        <ele>36.200000762939</ele>
        <time>2021-08-11T12:40:29Z</time>
      </trkpt>
      <trkpt lat="43.77859" lon="4.08636">
        <ele>37.400001525879</ele>
        <time>2021-08-11T12:41:32Z</time>
      </trkpt>
      <trkpt lat="43.77922" lon="4.08791">
        <ele>37.200000762939</ele>
        <time>2021-08-11T12:41:59Z</time>
      </trkpt>
      <trkpt lat="43.77979" lon="4.08796">
        <ele>37</ele>
        <time>2021-08-11T12:42:09Z</time>
      </trkpt>
      <trkpt lat="43.78068" lon="4.08798">
        <ele>37.400001525879</ele>
        <time>2021-08-11T12:42:28Z</time>
      </trkpt>
      <trkpt lat="43.78186" lon="4.08833">
        <ele>37.799999237061</ele>
        <time>2021-08-11T12:42:56Z</time>
      </trkpt>
      <trkpt lat="43.78197" lon="4.08846">
        <ele>37.799999237061</ele>
        <time>2021-08-11T12:43:02Z</time>
      </trkpt>
      <trkpt lat="43.78224" lon="4.089">
        <ele>40.400001525879</ele>
        <time>2021-08-11T12:43:24Z</time>
      </trkpt>
      <trkpt lat="43.78243" lon="4.08959">
        <ele>40.200000762939</ele>
        <time>2021-08-11T12:45:24Z</time>
      </trkpt>
      <trkpt lat="43.78219" lon="4.09022">
        <ele>40.400001525879</ele>
        <time>2021-08-11T12:46:56Z</time>
      </trkpt>
      <trkpt lat="43.78237" lon="4.09008">
        <ele>40.599998474121</ele>
        <time>2021-08-11T12:47:22Z</time>
      </trkpt>
      <trkpt lat="43.78267" lon="4.08987">
        <ele>41.200000762939</ele>
        <time>2021-08-11T12:47:57Z</time>
      </trkpt>
      <trkpt lat="43.78238" lon="4.08948">
        <ele>41</ele>
        <time>2021-08-11T12:49:37Z</time>
      </trkpt>
      <trkpt lat="43.78234" lon="4.08956">
        <ele>41</ele>
        <time>2021-08-11T12:49:41Z</time>
      </trkpt>
      <trkpt lat="43.78221" lon="4.08977">
        <ele>40.599998474121</ele>
        <time>2021-08-11T12:49:50Z</time>
      </trkpt>
      <trkpt lat="43.78178" lon="4.09006">
        <ele>38.599998474121</ele>
        <time>2021-08-11T12:50:01Z</time>
      </trkpt>
      <trkpt lat="43.78151" lon="4.09015">
        <ele>37.799999237061</ele>
        <time>2021-08-11T12:50:06Z</time>
      </trkpt>
      <trkpt lat="43.78095" lon="4.09125">
        <ele>39</ele>
        <time>2021-08-11T12:50:38Z</time>
      </trkpt>
      <trkpt lat="43.78085" lon="4.09173">
        <ele>41.200000762939</ele>
        <time>2021-08-11T12:51:11Z</time>
      </trkpt>
      <trkpt lat="43.78089" lon="4.09166">
        <ele>41.599998474121</ele>
        <time>2021-08-11T12:51:20Z</time>
      </trkpt>
      <trkpt lat="43.78105" lon="4.09197">
        <ele>43.599998474121</ele>
        <time>2021-08-11T12:51:36Z</time>
      </trkpt>
      <trkpt lat="43.7811" lon="4.09214">
        <ele>44.799999237061</ele>
        <time>2021-08-11T12:51:46Z</time>
      </trkpt>
      <trkpt lat="43.78128" lon="4.09228">
        <ele>45.799999237061</ele>
        <time>2021-08-11T12:51:57Z</time>
      </trkpt>
      <trkpt lat="43.78138" lon="4.09235">
        <ele>46.400001525879</ele>
        <time>2021-08-11T12:52:04Z</time>
      </trkpt>
      <trkpt lat="43.78154" lon="4.09227">
        <ele>48</ele>
        <time>2021-08-11T12:52:19Z</time>
      </trkpt>
      <trkpt lat="43.78176" lon="4.0924">
        <ele>49.200000762939</ele>
        <time>2021-08-11T12:52:34Z</time>
      </trkpt>
      <trkpt lat="43.7818" lon="4.09249">
        <ele>49.599998474121</ele>
        <time>2021-08-11T12:52:38Z</time>
      </trkpt>
      <trkpt lat="43.78229" lon="4.09284">
        <ele>53</ele>
        <time>2021-08-11T12:53:04Z</time>
      </trkpt>
      <trkpt lat="43.78232" lon="4.09303">
        <ele>53.599998474121</ele>
        <time>2021-08-11T12:53:14Z</time>
      </trkpt>
      <trkpt lat="43.78234" lon="4.09316">
        <ele>54.200000762939</ele>
        <time>2021-08-11T12:53:21Z</time>
      </trkpt>
      <trkpt lat="43.78255" lon="4.09315">
        <ele>55.599998474121</ele>
        <time>2021-08-11T12:53:36Z</time>
      </trkpt>
      <trkpt lat="43.78295" lon="4.0932">
        <ele>58.599998474121</ele>
        <time>2021-08-11T12:54:04Z</time>
      </trkpt>
      <trkpt lat="43.78296" lon="4.09321">
        <ele>58.799999237061</ele>
        <time>2021-08-11T12:54:05Z</time>
      </trkpt>
      <trkpt lat="43.78331" lon="4.09346">
        <ele>62.200000762939</ele>
        <time>2021-08-11T12:54:35Z</time>
      </trkpt>
      <trkpt lat="43.78342" lon="4.09381">
        <ele>66</ele>
        <time>2021-08-11T12:55:00Z</time>
      </trkpt>
      <trkpt lat="43.78346" lon="4.09402">
        <ele>67.800003051758</ele>
        <time>2021-08-11T12:55:14Z</time>
      </trkpt>
      <trkpt lat="43.78353" lon="4.09427">
        <ele>71</ele>
        <time>2021-08-11T12:55:34Z</time>
      </trkpt>
      <trkpt lat="43.78354" lon="4.09426">
        <ele>71</ele>
        <time>2021-08-11T12:55:35Z</time>
      </trkpt>
      <trkpt lat="43.78366" lon="4.09428">
        <ele>73.199996948242</ele>
        <time>2021-08-11T12:55:50Z</time>
      </trkpt>
      <trkpt lat="43.78402" lon="4.09477">
        <ele>76.599998474121</ele>
        <time>2021-08-11T12:56:18Z</time>
      </trkpt>
      <trkpt lat="43.78412" lon="4.09488">
        <ele>77.199996948242</ele>
        <time>2021-08-11T12:56:25Z</time>
      </trkpt>
      <trkpt lat="43.78448" lon="4.09549">
        <ele>80.199996948242</ele>
        <time>2021-08-11T12:57:01Z</time>
      </trkpt>
      <trkpt lat="43.78462" lon="4.09575">
        <ele>82.599998474121</ele>
        <time>2021-08-11T12:57:20Z</time>
      </trkpt>
      <trkpt lat="43.78471" lon="4.09576">
        <ele>84</ele>
        <time>2021-08-11T12:57:32Z</time>
      </trkpt>
      <trkpt lat="43.78476" lon="4.09578">
        <ele>84.199996948242</ele>
        <time>2021-08-11T12:57:36Z</time>
      </trkpt>
      <trkpt lat="43.7849" lon="4.09583">
        <ele>85.599998474121</ele>
        <time>2021-08-11T12:57:47Z</time>
      </trkpt>
      <trkpt lat="43.78506" lon="4.09587">
        <ele>88.599998474121</ele>
        <time>2021-08-11T12:58:01Z</time>
      </trkpt>
      <trkpt lat="43.7852" lon="4.09589">
        <ele>90.199996948242</ele>
        <time>2021-08-11T12:58:15Z</time>
      </trkpt>
      <trkpt lat="43.78549" lon="4.09596">
        <ele>92.800003051758</ele>
        <time>2021-08-11T12:58:35Z</time>
      </trkpt>
      <trkpt lat="43.78559" lon="4.09619">
        <ele>95.599998474121</ele>
        <time>2021-08-11T12:58:51Z</time>
      </trkpt>
      <trkpt lat="43.78573" lon="4.09657">
        <ele>98.599998474121</ele>
        <time>2021-08-11T12:59:16Z</time>
      </trkpt>
      <trkpt lat="43.78575" lon="4.09731">
        <ele>101.80000305176</ele>
        <time>2021-08-11T13:00:16Z</time>
      </trkpt>
      <trkpt lat="43.78588" lon="4.09802">
        <ele>104</ele>
        <time>2021-08-11T13:00:45Z</time>
      </trkpt>
      <trkpt lat="43.78587" lon="4.09826">
        <ele>104.40000152588</ele>
        <time>2021-08-11T13:00:52Z</time>
      </trkpt>
      <trkpt lat="43.78718" lon="4.09987">
        <ele>102.80000305176</ele>
        <time>2021-08-11T13:01:50Z</time>
      </trkpt>
      <trkpt lat="43.7871" lon="4.10017">
        <ele>102.59999847412</ele>
        <time>2021-08-11T13:01:56Z</time>
      </trkpt>
      <trkpt lat="43.78707" lon="4.10078">
        <ele>102</ele>
        <time>2021-08-11T13:02:06Z</time>
      </trkpt>
      <trkpt lat="43.78727" lon="4.10292">
        <ele>103</ele>
        <time>2021-08-11T13:02:46Z</time>
      </trkpt>
      <trkpt lat="43.78732" lon="4.10292">
        <ele>103</ele>
        <time>2021-08-11T13:02:49Z</time>
      </trkpt>
      <trkpt lat="43.78746" lon="4.1028">
        <ele>102.19999694824</ele>
        <time>2021-08-11T13:02:55Z</time>
      </trkpt>
      <trkpt lat="43.78762" lon="4.10318">
        <ele>101.80000305176</ele>
        <time>2021-08-11T13:03:06Z</time>
      </trkpt>
      <trkpt lat="43.78773" lon="4.10408">
        <ele>99.800003051758</ele>
        <time>2021-08-11T13:03:21Z</time>
      </trkpt>
      <trkpt lat="43.7878" lon="4.10442">
        <ele>97</ele>
        <time>2021-08-11T13:05:28Z</time>
      </trkpt>
      <trkpt lat="43.7878" lon="4.10446">
        <ele>97</ele>
        <time>2021-08-11T13:05:29Z</time>
      </trkpt>
      <trkpt lat="43.78793" lon="4.10548">
        <ele>95.800003051758</ele>
        <time>2021-08-11T13:05:47Z</time>
      </trkpt>
      <trkpt lat="43.78815" lon="4.10627">
        <ele>93.800003051758</ele>
        <time>2021-08-11T13:05:56Z</time>
      </trkpt>
      <trkpt lat="43.7882" lon="4.10637">
        <ele>93.599998474121</ele>
        <time>2021-08-11T13:05:57Z</time>
      </trkpt>
      <trkpt lat="43.78858" lon="4.10724">
        <ele>89.800003051758</ele>
        <time>2021-08-11T13:06:07Z</time>
      </trkpt>
      <trkpt lat="43.78846" lon="4.10805">
        <ele>86</ele>
        <time>2021-08-11T13:06:15Z</time>
      </trkpt>
      <trkpt lat="43.78831" lon="4.10838">
        <ele>84.800003051758</ele>
        <time>2021-08-11T13:06:18Z</time>
      </trkpt>
      <trkpt lat="43.78827" lon="4.1085">
        <ele>84.599998474121</ele>
        <time>2021-08-11T13:06:19Z</time>
      </trkpt>
      <trkpt lat="43.78809" lon="4.10896">
        <ele>83.199996948242</ele>
        <time>2021-08-11T13:06:23Z</time>
      </trkpt>
      <trkpt lat="43.78786" lon="4.10944">
        <ele>81</ele>
        <time>2021-08-11T13:06:28Z</time>
      </trkpt>
      <trkpt lat="43.78781" lon="4.10965">
        <ele>79.800003051758</ele>
        <time>2021-08-11T13:06:31Z</time>
      </trkpt>
      <trkpt lat="43.78781" lon="4.10977">
        <ele>77.800003051758</ele>
        <time>2021-08-11T13:06:33Z</time>
      </trkpt>
      <trkpt lat="43.78763" lon="4.11047">
        <ele>72.800003051758</ele>
        <time>2021-08-11T13:06:44Z</time>
      </trkpt>
      <trkpt lat="43.78759" lon="4.1107">
        <ele>72.599998474121</ele>
        <time>2021-08-11T13:06:47Z</time>
      </trkpt>
      <trkpt lat="43.78749" lon="4.11167">
        <ele>72</ele>
        <time>2021-08-11T13:06:59Z</time>
      </trkpt>
      <trkpt lat="43.78768" lon="4.11295">
        <ele>70.800003051758</ele>
        <time>2021-08-11T13:07:14Z</time>
      </trkpt>
      <trkpt lat="43.78781" lon="4.11348">
        <ele>70.599998474121</ele>
        <time>2021-08-11T13:07:21Z</time>
      </trkpt>
      <trkpt lat="43.78798" lon="4.11409">
        <ele>70.199996948242</ele>
        <time>2021-08-11T13:07:31Z</time>
      </trkpt>
      <trkpt lat="43.78799" lon="4.11415">
        <ele>70.199996948242</ele>
        <time>2021-08-11T13:07:32Z</time>
      </trkpt>
      <trkpt lat="43.78844" lon="4.11379">
        <ele>70.599998474121</ele>
        <time>2021-08-11T13:08:00Z</time>
      </trkpt>
      <trkpt lat="43.78834" lon="4.11377">
        <ele>70.599998474121</ele>
        <time>2021-08-11T13:08:03Z</time>
      </trkpt>
      <trkpt lat="43.78831" lon="4.11378">
        <ele>70.400001525879</ele>
        <time>2021-08-11T13:30:13Z</time>
      </trkpt>
      <trkpt lat="43.78798" lon="4.11417">
        <ele>71.800003051758</ele>
        <time>2021-08-11T13:30:52Z</time>
      </trkpt>
      <trkpt lat="43.78796" lon="4.11449">
        <ele>71.199996948242</ele>
        <time>2021-08-11T13:31:02Z</time>
      </trkpt>
      <trkpt lat="43.78812" lon="4.11691">
        <ele>74.800003051758</ele>
        <time>2021-08-11T13:31:52Z</time>
      </trkpt>
      <trkpt lat="43.78811" lon="4.11696">
        <ele>75</ele>
        <time>2021-08-11T13:31:53Z</time>
      </trkpt>
      <trkpt lat="43.78801" lon="4.11786">
        <ele>76.800003051758</ele>
        <time>2021-08-11T13:32:11Z</time>
      </trkpt>
      <trkpt lat="43.78725" lon="4.12134">
        <ele>79.800003051758</ele>
        <time>2021-08-11T13:33:17Z</time>
      </trkpt>
      <trkpt lat="43.78703" lon="4.12292">
        <ele>81</ele>
        <time>2021-08-11T13:33:44Z</time>
      </trkpt>
      <trkpt lat="43.78681" lon="4.12354">
        <ele>82.400001525879</ele>
        <time>2021-08-11T13:33:58Z</time>
      </trkpt>
      <trkpt lat="43.78654" lon="4.12437">
        <ele>83.199996948242</ele>
        <time>2021-08-11T13:34:13Z</time>
      </trkpt>
      <trkpt lat="43.78591" lon="4.1258">
        <ele>85</ele>
        <time>2021-08-11T13:34:40Z</time>
      </trkpt>
      <trkpt lat="43.78506" lon="4.12731">
        <ele>87</ele>
        <time>2021-08-11T13:35:14Z</time>
      </trkpt>
      <trkpt lat="43.78453" lon="4.1281">
        <ele>90</ele>
        <time>2021-08-11T13:35:41Z</time>
      </trkpt>
      <trkpt lat="43.78411" lon="4.12877">
        <ele>91.599998474121</ele>
        <time>2021-08-11T13:36:02Z</time>
      </trkpt>
      <trkpt lat="43.78343" lon="4.12985">
        <ele>93.199996948242</ele>
        <time>2021-08-11T13:36:30Z</time>
      </trkpt>
      <trkpt lat="43.78218" lon="4.13205">
        <ele>91.199996948242</ele>
        <time>2021-08-11T13:37:08Z</time>
      </trkpt>
      <trkpt lat="43.78009" lon="4.13652">
        <ele>90.400001525879</ele>
        <time>2021-08-11T13:38:12Z</time>
      </trkpt>
      <trkpt lat="43.77959" lon="4.13741">
        <ele>89.599998474121</ele>
        <time>2021-08-11T13:38:25Z</time>
      </trkpt>
      <trkpt lat="43.77906" lon="4.13825">
        <ele>88.599998474121</ele>
        <time>2021-08-11T13:38:38Z</time>
      </trkpt>
      <trkpt lat="43.77816" lon="4.13957">
        <ele>88.800003051758</ele>
        <time>2021-08-11T13:39:01Z</time>
      </trkpt>
      <trkpt lat="43.77775" lon="4.14032">
        <ele>88.599998474121</ele>
        <time>2021-08-11T13:39:13Z</time>
      </trkpt>
      <trkpt lat="43.77723" lon="4.14178">
        <ele>88.400001525879</ele>
        <time>2021-08-11T13:39:33Z</time>
      </trkpt>
      <trkpt lat="43.77652" lon="4.14361">
        <ele>89</ele>
        <time>2021-08-11T13:39:58Z</time>
      </trkpt>
      <trkpt lat="43.77643" lon="4.14391">
        <ele>89</ele>
        <time>2021-08-11T13:40:02Z</time>
      </trkpt>
      <trkpt lat="43.7758" lon="4.1468">
        <ele>89.599998474121</ele>
        <time>2021-08-11T13:40:40Z</time>
      </trkpt>
      <trkpt lat="43.77538" lon="4.14866">
        <ele>90.199996948242</ele>
        <time>2021-08-11T13:41:04Z</time>
      </trkpt>
      <trkpt lat="43.77491" lon="4.15">
        <ele>90</ele>
        <time>2021-08-11T13:41:24Z</time>
      </trkpt>
      <trkpt lat="43.77465" lon="4.15069">
        <ele>89.800003051758</ele>
        <time>2021-08-11T13:41:33Z</time>
      </trkpt>
      <trkpt lat="43.77463" lon="4.15077">
        <ele>89.599998474121</ele>
        <time>2021-08-11T13:41:34Z</time>
      </trkpt>
      <trkpt lat="43.77377" lon="4.15338">
        <ele>86.599998474121</ele>
        <time>2021-08-11T13:42:02Z</time>
      </trkpt>
      <trkpt lat="43.7735" lon="4.15592">
        <ele>83.400001525879</ele>
        <time>2021-08-11T13:42:24Z</time>
      </trkpt>
      <trkpt lat="43.77351" lon="4.15615">
        <ele>83.199996948242</ele>
        <time>2021-08-11T13:42:26Z</time>
      </trkpt>
      <trkpt lat="43.77377" lon="4.15908">
        <ele>81.400001525879</ele>
        <time>2021-08-11T13:42:56Z</time>
      </trkpt>
      <trkpt lat="43.77389" lon="4.16088">
        <ele>80.599998474121</ele>
        <time>2021-08-11T13:43:21Z</time>
      </trkpt>
      <trkpt lat="43.77413" lon="4.1625">
        <ele>78.800003051758</ele>
        <time>2021-08-11T13:43:43Z</time>
      </trkpt>
      <trkpt lat="43.77539" lon="4.17033">
        <ele>78.800003051758</ele>
        <time>2021-08-11T13:45:18Z</time>
      </trkpt>
      <trkpt lat="43.77515" lon="4.175">
        <ele>75.599998474121</ele>
        <time>2021-08-11T13:46:08Z</time>
      </trkpt>
      <trkpt lat="43.77514" lon="4.1751">
        <ele>75.599998474121</ele>
        <time>2021-08-11T13:46:09Z</time>
      </trkpt>
      <trkpt lat="43.77508" lon="4.17582">
        <ele>74.599998474121</ele>
        <time>2021-08-11T13:46:16Z</time>
      </trkpt>
      <trkpt lat="43.77534" lon="4.1775">
        <ele>72.800003051758</ele>
        <time>2021-08-11T13:46:33Z</time>
      </trkpt>
      <trkpt lat="43.77536" lon="4.1776">
        <ele>72.599998474121</ele>
        <time>2021-08-11T13:46:34Z</time>
      </trkpt>
      <trkpt lat="43.77643" lon="4.18279">
        <ele>69.599998474121</ele>
        <time>2021-08-11T13:47:31Z</time>
      </trkpt>
      <trkpt lat="43.77664" lon="4.18349">
        <ele>69.400001525879</ele>
        <time>2021-08-11T13:47:39Z</time>
      </trkpt>
      <trkpt lat="43.77673" lon="4.18374">
        <ele>69.199996948242</ele>
        <time>2021-08-11T13:47:42Z</time>
      </trkpt>
      <trkpt lat="43.77767" lon="4.18796">
        <ele>66.800003051758</ele>
        <time>2021-08-11T13:48:29Z</time>
      </trkpt>
      <trkpt lat="43.77763" lon="4.18837">
        <ele>66.599998474121</ele>
        <time>2021-08-11T13:48:33Z</time>
      </trkpt>
      <trkpt lat="43.77768" lon="4.18909">
        <ele>65.800003051758</ele>
        <time>2021-08-11T13:48:40Z</time>
      </trkpt>
      <trkpt lat="43.77785" lon="4.19021">
        <ele>64.599998474121</ele>
        <time>2021-08-11T13:48:51Z</time>
      </trkpt>
      <trkpt lat="43.77818" lon="4.19138">
        <ele>62.799999237061</ele>
        <time>2021-08-11T13:49:03Z</time>
      </trkpt>
      <trkpt lat="43.7784" lon="4.19194">
        <ele>62.599998474121</ele>
        <time>2021-08-11T13:49:09Z</time>
      </trkpt>
      <trkpt lat="43.77936" lon="4.19455">
        <ele>60.599998474121</ele>
        <time>2021-08-11T13:49:42Z</time>
      </trkpt>
      <trkpt lat="43.77937" lon="4.19496">
        <ele>59.200000762939</ele>
        <time>2021-08-11T13:49:53Z</time>
      </trkpt>
      <trkpt lat="43.77993" lon="4.19589">
        <ele>59.400001525879</ele>
        <time>2021-08-11T13:50:11Z</time>
      </trkpt>
      <trkpt lat="43.78096" lon="4.19861">
        <ele>60</ele>
        <time>2021-08-11T13:50:49Z</time>
      </trkpt>
      <trkpt lat="43.78121" lon="4.20004">
        <ele>60.400001525879</ele>
        <time>2021-08-11T13:51:07Z</time>
      </trkpt>
      <trkpt lat="43.78147" lon="4.20354">
        <ele>60</ele>
        <time>2021-08-11T13:51:46Z</time>
      </trkpt>
      <trkpt lat="43.78176" lon="4.20476">
        <ele>59.599998474121</ele>
        <time>2021-08-11T13:52:00Z</time>
      </trkpt>
      <trkpt lat="43.78187" lon="4.20504">
        <ele>59.400001525879</ele>
        <time>2021-08-11T13:52:04Z</time>
      </trkpt>
      <trkpt lat="43.78235" lon="4.2057">
        <ele>58.799999237061</ele>
        <time>2021-08-11T13:52:17Z</time>
      </trkpt>
      <trkpt lat="43.78286" lon="4.20612">
        <ele>58.799999237061</ele>
        <time>2021-08-11T13:52:27Z</time>
      </trkpt>
      <trkpt lat="43.78467" lon="4.20648">
        <ele>59.400001525879</ele>
        <time>2021-08-11T13:52:57Z</time>
      </trkpt>
      <trkpt lat="43.79193" lon="4.20571">
        <ele>57.799999237061</ele>
        <time>2021-08-11T13:54:47Z</time>
      </trkpt>
      <trkpt lat="43.79254" lon="4.20579">
        <ele>57.400001525879</ele>
        <time>2021-08-11T13:54:55Z</time>
      </trkpt>
      <trkpt lat="43.79439" lon="4.20713">
        <ele>55</ele>
        <time>2021-08-11T13:55:22Z</time>
      </trkpt>
      <trkpt lat="43.79817" lon="4.21233">
        <ele>55.200000762939</ele>
        <time>2021-08-11T13:56:47Z</time>
      </trkpt>
      <trkpt lat="43.80031" lon="4.21531">
        <ele>57.200000762939</ele>
        <time>2021-08-11T13:57:37Z</time>
      </trkpt>
      <trkpt lat="43.80074" lon="4.21572">
        <ele>57.799999237061</ele>
        <time>2021-08-11T13:57:47Z</time>
      </trkpt>
      <trkpt lat="43.80221" lon="4.21718">
        <ele>61</ele>
        <time>2021-08-11T13:58:27Z</time>
      </trkpt>
      <trkpt lat="43.80233" lon="4.21732">
        <ele>61.200000762939</ele>
        <time>2021-08-11T13:58:31Z</time>
      </trkpt>
      <trkpt lat="43.80358" lon="4.21859">
        <ele>64.400001525879</ele>
        <time>2021-08-11T13:59:08Z</time>
      </trkpt>
      <trkpt lat="43.80678" lon="4.22183">
        <ele>67</ele>
        <time>2021-08-11T14:00:24Z</time>
      </trkpt>
      <trkpt lat="43.80724" lon="4.22218">
        <ele>67.199996948242</ele>
        <time>2021-08-11T14:00:33Z</time>
      </trkpt>
      <trkpt lat="43.80769" lon="4.2225">
        <ele>67.400001525879</ele>
        <time>2021-08-11T14:00:42Z</time>
      </trkpt>
      <trkpt lat="43.80876" lon="4.22489">
        <ele>68.199996948242</ele>
        <time>2021-08-11T14:01:22Z</time>
      </trkpt>
      <trkpt lat="43.80872" lon="4.22564">
        <ele>68.800003051758</ele>
        <time>2021-08-11T14:01:32Z</time>
      </trkpt>
      <trkpt lat="43.80863" lon="4.22633">
        <ele>69.199996948242</ele>
        <time>2021-08-11T14:01:42Z</time>
      </trkpt>
      <trkpt lat="43.80796" lon="4.22716">
        <ele>70.199996948242</ele>
        <time>2021-08-11T14:02:05Z</time>
      </trkpt>
      <trkpt lat="43.80786" lon="4.22718">
        <ele>70.599998474121</ele>
        <time>2021-08-11T14:02:10Z</time>
      </trkpt>
      <trkpt lat="43.80748" lon="4.22726">
        <ele>72</ele>
        <time>2021-08-11T14:02:59Z</time>
      </trkpt>
      <trkpt lat="43.80723" lon="4.2272">
        <ele>72</ele>
        <time>2021-08-11T14:03:19Z</time>
      </trkpt>
      <trkpt lat="43.80788" lon="4.22723">
        <ele>72.800003051758</ele>
        <time>2021-08-11T14:16:36Z</time>
      </trkpt>
      <trkpt lat="43.80865" lon="4.22741">
        <ele>71.199996948242</ele>
        <time>2021-08-11T14:17:09Z</time>
      </trkpt>
      <trkpt lat="43.80864" lon="4.22872">
        <ele>73.400001525879</ele>
        <time>2021-08-11T14:17:34Z</time>
      </trkpt>
      <trkpt lat="43.80854" lon="4.23133">
        <ele>74.800003051758</ele>
        <time>2021-08-11T14:18:17Z</time>
      </trkpt>
      <trkpt lat="43.80852" lon="4.23138">
        <ele>74.800003051758</ele>
        <time>2021-08-11T14:18:18Z</time>
      </trkpt>
      <trkpt lat="43.80844" lon="4.23158">
        <ele>75.199996948242</ele>
        <time>2021-08-11T14:18:22Z</time>
      </trkpt>
      <trkpt lat="43.80852" lon="4.23222">
        <ele>75.400001525879</ele>
        <time>2021-08-11T14:18:32Z</time>
      </trkpt>
      <trkpt lat="43.80839" lon="4.23595">
        <ele>77.800003051758</ele>
        <time>2021-08-11T14:19:20Z</time>
      </trkpt>
      <trkpt lat="43.80836" lon="4.23623">
        <ele>78</ele>
        <time>2021-08-11T14:19:24Z</time>
      </trkpt>
      <trkpt lat="43.80837" lon="4.23771">
        <ele>76.199996948242</ele>
        <time>2021-08-11T14:19:45Z</time>
      </trkpt>
      <trkpt lat="43.80839" lon="4.23932">
        <ele>77</ele>
        <time>2021-08-11T14:20:07Z</time>
      </trkpt>
      <trkpt lat="43.8087" lon="4.24114">
        <ele>76.800003051758</ele>
        <time>2021-08-11T14:20:31Z</time>
      </trkpt>
      <trkpt lat="43.80909" lon="4.24278">
        <ele>76.599998474121</ele>
        <time>2021-08-11T14:20:53Z</time>
      </trkpt>
      <trkpt lat="43.80935" lon="4.2434">
        <ele>76.199996948242</ele>
        <time>2021-08-11T14:21:02Z</time>
      </trkpt>
      <trkpt lat="43.80988" lon="4.24559">
        <ele>76.199996948242</ele>
        <time>2021-08-11T14:21:41Z</time>
      </trkpt>
      <trkpt lat="43.81001" lon="4.24567">
        <ele>76.199996948242</ele>
        <time>2021-08-11T14:21:44Z</time>
      </trkpt>
      <trkpt lat="43.81009" lon="4.24643">
        <ele>76.400001525879</ele>
        <time>2021-08-11T14:21:56Z</time>
      </trkpt>
      <trkpt lat="43.81005" lon="4.24674">
        <ele>76.199996948242</ele>
        <time>2021-08-11T14:22:00Z</time>
      </trkpt>
      <trkpt lat="43.81171" lon="4.2495">
        <ele>77.400001525879</ele>
        <time>2021-08-11T14:22:47Z</time>
      </trkpt>
      <trkpt lat="43.8145" lon="4.25142">
        <ele>80.800003051758</ele>
        <time>2021-08-11T14:23:48Z</time>
      </trkpt>
      <trkpt lat="43.81454" lon="4.25146">
        <ele>81</ele>
        <time>2021-08-11T14:23:49Z</time>
      </trkpt>
      <trkpt lat="43.8163" lon="4.25269">
        <ele>84.199996948242</ele>
        <time>2021-08-11T14:24:45Z</time>
      </trkpt>
      <trkpt lat="43.81638" lon="4.25274">
        <ele>84.199996948242</ele>
        <time>2021-08-11T14:24:47Z</time>
      </trkpt>
      <trkpt lat="43.81691" lon="4.25311">
        <ele>85.599998474121</ele>
        <time>2021-08-11T14:25:02Z</time>
      </trkpt>
      <trkpt lat="43.81813" lon="4.25396">
        <ele>89</ele>
        <time>2021-08-11T14:25:36Z</time>
      </trkpt>
      <trkpt lat="43.8182" lon="4.25402">
        <ele>88.800003051758</ele>
        <time>2021-08-11T14:25:38Z</time>
      </trkpt>
      <trkpt lat="43.81994" lon="4.25534">
        <ele>91.400001525879</ele>
        <time>2021-08-11T14:26:23Z</time>
      </trkpt>
      <trkpt lat="43.8204" lon="4.25595">
        <ele>92.199996948242</ele>
        <time>2021-08-11T14:26:36Z</time>
      </trkpt>
      <trkpt lat="43.82113" lon="4.25703">
        <ele>93.400001525879</ele>
        <time>2021-08-11T14:26:58Z</time>
      </trkpt>
      <trkpt lat="43.82162" lon="4.25875">
        <ele>95.400001525879</ele>
        <time>2021-08-11T14:27:26Z</time>
      </trkpt>
      <trkpt lat="43.8218" lon="4.2603">
        <ele>96.400001525879</ele>
        <time>2021-08-11T14:27:50Z</time>
      </trkpt>
      <trkpt lat="43.82179" lon="4.26069">
        <ele>96.599998474121</ele>
        <time>2021-08-11T14:27:56Z</time>
      </trkpt>
      <trkpt lat="43.82179" lon="4.26076">
        <ele>97</ele>
        <time>2021-08-11T14:27:57Z</time>
      </trkpt>
      <trkpt lat="43.82205" lon="4.26279">
        <ele>98.199996948242</ele>
        <time>2021-08-11T14:28:32Z</time>
      </trkpt>
      <trkpt lat="43.82231" lon="4.26509">
        <ele>101.19999694824</ele>
        <time>2021-08-11T14:29:38Z</time>
      </trkpt>
      <trkpt lat="43.82244" lon="4.26635">
        <ele>104.19999694824</ele>
        <time>2021-08-11T14:30:09Z</time>
      </trkpt>
      <trkpt lat="43.82255" lon="4.26712">
        <ele>105.40000152588</ele>
        <time>2021-08-11T14:30:26Z</time>
      </trkpt>
      <trkpt lat="43.82277" lon="4.26946">
        <ele>108.19999694824</ele>
        <time>2021-08-11T14:31:13Z</time>
      </trkpt>
      <trkpt lat="43.823" lon="4.2715">
        <ele>110.19999694824</ele>
        <time>2021-08-11T14:31:47Z</time>
      </trkpt>
      <trkpt lat="43.82298" lon="4.27294">
        <ele>111.19999694824</ele>
        <time>2021-08-11T14:32:11Z</time>
      </trkpt>
      <trkpt lat="43.82303" lon="4.27368">
        <ele>110</ele>
        <time>2021-08-11T14:32:22Z</time>
      </trkpt>
      <trkpt lat="43.82302" lon="4.27437">
        <ele>109.80000305176</ele>
        <time>2021-08-11T14:32:31Z</time>
      </trkpt>
      <trkpt lat="43.82291" lon="4.2752">
        <ele>109.19999694824</ele>
        <time>2021-08-11T14:32:42Z</time>
      </trkpt>
      <trkpt lat="43.82206" lon="4.28013">
        <ele>106.19999694824</ele>
        <time>2021-08-11T14:33:41Z</time>
      </trkpt>
      <trkpt lat="43.822" lon="4.28089">
        <ele>102.59999847412</ele>
        <time>2021-08-11T14:41:04Z</time>
      </trkpt>
      <trkpt lat="43.82201" lon="4.28109">
        <ele>102.59999847412</ele>
        <time>2021-08-11T14:41:09Z</time>
      </trkpt>
      <trkpt lat="43.82201" lon="4.28138">
        <ele>102.80000305176</ele>
        <time>2021-08-11T14:41:15Z</time>
      </trkpt>
      <trkpt lat="43.822" lon="4.28341">
        <ele>102.59999847412</ele>
        <time>2021-08-11T14:41:44Z</time>
      </trkpt>
      <trkpt lat="43.82156" lon="4.28598">
        <ele>98.800003051758</ele>
        <time>2021-08-11T14:42:11Z</time>
      </trkpt>
      <trkpt lat="43.82075" lon="4.28872">
        <ele>95.800003051758</ele>
        <time>2021-08-11T14:42:41Z</time>
      </trkpt>
      <trkpt lat="43.82034" lon="4.28919">
        <ele>94.199996948242</ele>
        <time>2021-08-11T14:42:52Z</time>
      </trkpt>
      <trkpt lat="43.82029" lon="4.28939">
        <ele>94</ele>
        <time>2021-08-11T14:42:56Z</time>
      </trkpt>
      <trkpt lat="43.82043" lon="4.29022">
        <ele>91.800003051758</ele>
        <time>2021-08-11T14:43:19Z</time>
      </trkpt>
      <trkpt lat="43.8204" lon="4.29034">
        <ele>92</ele>
        <time>2021-08-11T14:43:21Z</time>
      </trkpt>
      <trkpt lat="43.82015" lon="4.29119">
        <ele>92.599998474121</ele>
        <time>2021-08-11T14:43:35Z</time>
      </trkpt>
      <trkpt lat="43.81938" lon="4.29457">
        <ele>90.400001525879</ele>
        <time>2021-08-11T14:44:16Z</time>
      </trkpt>
      <trkpt lat="43.81923" lon="4.29556">
        <ele>88.599998474121</ele>
        <time>2021-08-11T14:44:26Z</time>
      </trkpt>
      <trkpt lat="43.81922" lon="4.29566">
        <ele>88.400001525879</ele>
        <time>2021-08-11T14:44:27Z</time>
      </trkpt>
      <trkpt lat="43.81857" lon="4.29836">
        <ele>84.800003051758</ele>
        <time>2021-08-11T14:44:53Z</time>
      </trkpt>
      <trkpt lat="43.81849" lon="4.29865">
        <ele>84.599998474121</ele>
        <time>2021-08-11T14:44:56Z</time>
      </trkpt>
      <trkpt lat="43.81803" lon="4.30007">
        <ele>82.800003051758</ele>
        <time>2021-08-11T14:45:11Z</time>
      </trkpt>
      <trkpt lat="43.81784" lon="4.30053">
        <ele>81.800003051758</ele>
        <time>2021-08-11T14:45:16Z</time>
      </trkpt>
      <trkpt lat="43.81765" lon="4.30101">
        <ele>80.800003051758</ele>
        <time>2021-08-11T14:45:21Z</time>
      </trkpt>
      <trkpt lat="43.81748" lon="4.30126">
        <ele>80.400001525879</ele>
        <time>2021-08-11T14:45:24Z</time>
      </trkpt>
      <trkpt lat="43.81713" lon="4.30178">
        <ele>79.599998474121</ele>
        <time>2021-08-11T14:45:31Z</time>
      </trkpt>
      <trkpt lat="43.81661" lon="4.30236">
        <ele>79.199996948242</ele>
        <time>2021-08-11T14:45:41Z</time>
      </trkpt>
      <trkpt lat="43.81645" lon="4.30252">
        <ele>79.199996948242</ele>
        <time>2021-08-11T14:45:44Z</time>
      </trkpt>
      <trkpt lat="43.81549" lon="4.30394">
        <ele>76.800003051758</ele>
        <time>2021-08-11T14:46:04Z</time>
      </trkpt>
      <trkpt lat="43.81395" lon="4.30647">
        <ele>75</ele>
        <time>2021-08-11T14:46:45Z</time>
      </trkpt>
      <trkpt lat="43.8133" lon="4.30908">
        <ele>73.599998474121</ele>
        <time>2021-08-11T14:47:15Z</time>
      </trkpt>
      <trkpt lat="43.81316" lon="4.30934">
        <ele>73.400001525879</ele>
        <time>2021-08-11T14:47:19Z</time>
      </trkpt>
      <trkpt lat="43.81309" lon="4.30945">
        <ele>73.199996948242</ele>
        <time>2021-08-11T14:47:21Z</time>
      </trkpt>
      <trkpt lat="43.81318" lon="4.31008">
        <ele>71.800003051758</ele>
        <time>2021-08-11T14:47:31Z</time>
      </trkpt>
      <trkpt lat="43.81519" lon="4.31328">
        <ele>70.599998474121</ele>
        <time>2021-08-11T14:48:28Z</time>
      </trkpt>
      <trkpt lat="43.81563" lon="4.31425">
        <ele>71</ele>
        <time>2021-08-11T14:48:59Z</time>
      </trkpt>
      <trkpt lat="43.81551" lon="4.31393">
        <ele>71.199996948242</ele>
        <time>2021-08-11T14:51:25Z</time>
      </trkpt>
      <trkpt lat="43.81449" lon="4.31471">
        <ele>67.800003051758</ele>
        <time>2021-08-11T14:52:07Z</time>
      </trkpt>
      <trkpt lat="43.81445" lon="4.31474">
        <ele>68</ele>
        <time>2021-08-11T14:52:08Z</time>
      </trkpt>
      <trkpt lat="43.81441" lon="4.31477">
        <ele>67.800003051758</ele>
        <time>2021-08-11T14:52:09Z</time>
      </trkpt>
      <trkpt lat="43.81429" lon="4.31493">
        <ele>67.599998474121</ele>
        <time>2021-08-11T14:52:12Z</time>
      </trkpt>
      <trkpt lat="43.81363" lon="4.31592">
        <ele>65.599998474121</ele>
        <time>2021-08-11T14:52:27Z</time>
      </trkpt>
      <trkpt lat="43.81335" lon="4.31636">
        <ele>65.400001525879</ele>
        <time>2021-08-11T14:52:33Z</time>
      </trkpt>
      <trkpt lat="43.81322" lon="4.31742">
        <ele>62.400001525879</ele>
        <time>2021-08-11T14:52:53Z</time>
      </trkpt>
      <trkpt lat="43.81324" lon="4.31783">
        <ele>62.200000762939</ele>
        <time>2021-08-11T14:52:58Z</time>
      </trkpt>
      <trkpt lat="43.81326" lon="4.31943">
        <ele>61.599998474121</ele>
        <time>2021-08-11T14:53:15Z</time>
      </trkpt>
      <trkpt lat="43.81306" lon="4.32211">
        <ele>60.200000762939</ele>
        <time>2021-08-11T14:53:46Z</time>
      </trkpt>
      <trkpt lat="43.81316" lon="4.32285">
        <ele>59.799999237061</ele>
        <time>2021-08-11T14:53:55Z</time>
      </trkpt>
      <trkpt lat="43.81315" lon="4.32299">
        <ele>59.599998474121</ele>
        <time>2021-08-11T14:53:57Z</time>
      </trkpt>
      <trkpt lat="43.81311" lon="4.32327">
        <ele>59.400001525879</ele>
        <time>2021-08-11T14:54:01Z</time>
      </trkpt>
      <trkpt lat="43.81338" lon="4.32436">
        <ele>58</ele>
        <time>2021-08-11T14:54:16Z</time>
      </trkpt>
      <trkpt lat="43.81374" lon="4.32674">
        <ele>58.799999237061</ele>
        <time>2021-08-11T14:54:49Z</time>
      </trkpt>
      <trkpt lat="43.81374" lon="4.32743">
        <ele>58.400001525879</ele>
        <time>2021-08-11T14:55:14Z</time>
      </trkpt>
      <trkpt lat="43.81377" lon="4.32716">
        <ele>58.400001525879</ele>
        <time>2021-08-11T14:55:19Z</time>
      </trkpt>
      <trkpt lat="43.81412" lon="4.32788">
        <ele>58.400001525879</ele>
        <time>2021-08-11T14:55:36Z</time>
      </trkpt>
      <trkpt lat="43.81416" lon="4.32835">
        <ele>59.400001525879</ele>
        <time>2021-08-11T14:55:43Z</time>
      </trkpt>
      <trkpt lat="43.81427" lon="4.32885">
        <ele>59.400001525879</ele>
        <time>2021-08-11T14:55:51Z</time>
      </trkpt>
      <trkpt lat="43.81479" lon="4.32977">
        <ele>60</ele>
        <time>2021-08-11T14:56:06Z</time>
      </trkpt>
      <trkpt lat="43.81781" lon="4.3354">
        <ele>62.200000762939</ele>
        <time>2021-08-11T14:57:37Z</time>
      </trkpt>
      <trkpt lat="43.8185" lon="4.33672">
        <ele>62</ele>
        <time>2021-08-11T14:57:56Z</time>
      </trkpt>
      <trkpt lat="43.81896" lon="4.33759">
        <ele>62</ele>
        <time>2021-08-11T14:58:08Z</time>
      </trkpt>
      <trkpt lat="43.81962" lon="4.33862">
        <ele>63.400001525879</ele>
        <time>2021-08-11T14:58:26Z</time>
      </trkpt>
      <trkpt lat="43.81966" lon="4.33867">
        <ele>63.599998474121</ele>
        <time>2021-08-11T14:58:27Z</time>
      </trkpt>
      <trkpt lat="43.82033" lon="4.34021">
        <ele>64</ele>
        <time>2021-08-11T14:58:49Z</time>
      </trkpt>
      <trkpt lat="43.82188" lon="4.34432">
        <ele>61.799999237061</ele>
        <time>2021-08-11T14:59:42Z</time>
      </trkpt>
      <trkpt lat="43.82239" lon="4.34683">
        <ele>65</ele>
        <time>2021-08-11T15:00:25Z</time>
      </trkpt>
      <trkpt lat="43.82264" lon="4.34789">
        <ele>68</ele>
        <time>2021-08-11T15:00:51Z</time>
      </trkpt>
      <trkpt lat="43.82272" lon="4.34824">
        <ele>68.199996948242</ele>
        <time>2021-08-11T15:00:57Z</time>
      </trkpt>
      <trkpt lat="43.82335" lon="4.35021">
        <ele>65.400001525879</ele>
        <time>2021-08-11T15:01:18Z</time>
      </trkpt>
      <trkpt lat="43.82348" lon="4.35056">
        <ele>65.199996948242</ele>
        <time>2021-08-11T15:01:22Z</time>
      </trkpt>
      <trkpt lat="43.82359" lon="4.35087">
        <ele>64.800003051758</ele>
        <time>2021-08-11T15:01:26Z</time>
      </trkpt>
      <trkpt lat="43.82534" lon="4.35227">
        <ele>62.799999237061</ele>
        <time>2021-08-11T15:02:03Z</time>
      </trkpt>
      <trkpt lat="43.82574" lon="4.35258">
        <ele>62</ele>
        <time>2021-08-11T15:02:15Z</time>
      </trkpt>
      <trkpt lat="43.82616" lon="4.35326">
        <ele>61.799999237061</ele>
        <time>2021-08-11T15:02:51Z</time>
      </trkpt>
      <trkpt lat="43.82614" lon="4.35327">
        <ele>61.799999237061</ele>
        <time>2021-08-11T15:02:52Z</time>
      </trkpt>
      <trkpt lat="43.82562" lon="4.35353">
        <ele>61.799999237061</ele>
        <time>2021-08-11T15:03:07Z</time>
      </trkpt>
      <trkpt lat="43.82498" lon="4.35361">
        <ele>60.400001525879</ele>
        <time>2021-08-11T15:03:30Z</time>
      </trkpt>
      <trkpt lat="43.82494" lon="4.35367">
        <ele>60.400001525879</ele>
        <time>2021-08-11T15:03:46Z</time>
      </trkpt>
      <trkpt lat="43.82538" lon="4.35465">
        <ele>60.599998474121</ele>
        <time>2021-08-11T15:04:05Z</time>
      </trkpt>
      <trkpt lat="43.82564" lon="4.35508">
        <ele>60.799999237061</ele>
        <time>2021-08-11T15:04:13Z</time>
      </trkpt>
      <trkpt lat="43.82585" lon="4.35552">
        <ele>61</ele>
        <time>2021-08-11T15:04:21Z</time>
      </trkpt>
      <trkpt lat="43.82685" lon="4.35735">
        <ele>60.200000762939</ele>
        <time>2021-08-11T15:05:20Z</time>
      </trkpt>
      <trkpt lat="43.82825" lon="4.3597">
        <ele>62</ele>
        <time>2021-08-11T15:06:04Z</time>
      </trkpt>
      <trkpt lat="43.8284" lon="4.35976">
        <ele>60.200000762939</ele>
        <time>2021-08-11T15:06:21Z</time>
      </trkpt>
      <trkpt lat="43.82947" lon="4.36152">
        <ele>60.799999237061</ele>
        <time>2021-08-11T15:07:02Z</time>
      </trkpt>
      <trkpt lat="43.82965" lon="4.36181">
        <ele>60.400001525879</ele>
        <time>2021-08-11T15:07:41Z</time>
      </trkpt>
      <trkpt lat="43.83123" lon="4.36403">
        <ele>61.200000762939</ele>
        <time>2021-08-11T15:08:30Z</time>
      </trkpt>
      <trkpt lat="43.83126" lon="4.36407">
        <ele>61.200000762939</ele>
        <time>2021-08-11T15:08:37Z</time>
      </trkpt>
      <trkpt lat="43.83132" lon="4.36433">
        <ele>61.200000762939</ele>
        <time>2021-08-11T15:09:03Z</time>
      </trkpt>
      <trkpt lat="43.83136" lon="4.36437">
        <ele>61.200000762939</ele>
        <time>2021-08-11T15:09:05Z</time>
      </trkpt>
      <trkpt lat="43.83208" lon="4.36525">
        <ele>61.599998474121</ele>
        <time>2021-08-11T15:09:28Z</time>
      </trkpt>
      <trkpt lat="43.83211" lon="4.3653">
        <ele>61.400001525879</ele>
        <time>2021-08-11T15:09:29Z</time>
      </trkpt>
      <trkpt lat="43.83243" lon="4.36574">
        <ele>61.400001525879</ele>
        <time>2021-08-11T15:09:43Z</time>
      </trkpt>
      <trkpt lat="43.83246" lon="4.3659">
        <ele>61</ele>
        <time>2021-08-11T15:09:58Z</time>
      </trkpt>
    </trkseg>
  </trk>
</gpx>